<?xml version="1.0" encoding="UTF-8" standalone="no" ?>
<gpx xmlns="http://www.topografix.com/GPX/1/1" xmlns:xsi="http://www.w3.org/2001/XMLSchema-instance" xsi:schemaLocation="http://www.topografix.com/GPX/1/1 http://www.topografix.com/GPX/1/1/gpx.xsd" version="1.1" creator="VisuGPX - https://www.visugpx.com">
  <metadata>
    <name>Rando-84-Lourmarin-Bonnieux-Buoux-Reel</name>
    <desc><![CDATA[Belle boucle sportive et dépaysante]]></desc>
  </metadata>
  <trk>
    <name><![CDATA[2014-05-20-02_2 (1)]]></name>
    <desc><![CDATA[Total: 35.1km]]></desc>
    <trkseg>
      <trkpt lat="43.76628" lon="5.36093">
        <ele>213</ele>
        <time>2014-05-20T06:11:19Z</time>
      </trkpt>
      <trkpt lat="43.76627" lon="5.36093">
        <ele>213</ele>
        <time>2014-05-20T06:11:22Z</time>
      </trkpt>
      <trkpt lat="43.76627" lon="5.36093">
        <ele>213</ele>
        <time>2014-05-20T06:11:23Z</time>
      </trkpt>
      <trkpt lat="43.76624" lon="5.36091">
        <ele>213</ele>
        <time>2014-05-20T06:11:27Z</time>
      </trkpt>
      <trkpt lat="43.76624" lon="5.36092">
        <ele>213</ele>
        <time>2014-05-20T06:11:33Z</time>
      </trkpt>
      <trkpt lat="43.76631" lon="5.36091">
        <ele>213</ele>
        <time>2014-05-20T06:11:55Z</time>
      </trkpt>
      <trkpt lat="43.76632" lon="5.36092">
        <ele>213</ele>
        <time>2014-05-20T06:12:02Z</time>
      </trkpt>
      <trkpt lat="43.7663" lon="5.36094">
        <ele>213</ele>
        <time>2014-05-20T06:12:18Z</time>
      </trkpt>
      <trkpt lat="43.76631" lon="5.36096">
        <ele>213</ele>
        <time>2014-05-20T06:12:25Z</time>
      </trkpt>
      <trkpt lat="43.76631" lon="5.36098">
        <ele>213</ele>
        <time>2014-05-20T06:12:27Z</time>
      </trkpt>
      <trkpt lat="43.76632" lon="5.36098">
        <ele>213</ele>
        <time>2014-05-20T06:12:31Z</time>
      </trkpt>
      <trkpt lat="43.76632" lon="5.36099">
        <ele>213</ele>
        <time>2014-05-20T06:12:32Z</time>
      </trkpt>
      <trkpt lat="43.76632" lon="5.36099">
        <ele>213</ele>
        <time>2014-05-20T06:12:33Z</time>
      </trkpt>
      <trkpt lat="43.76632" lon="5.36098">
        <ele>213</ele>
        <time>2014-05-20T06:12:42Z</time>
      </trkpt>
      <trkpt lat="43.7663" lon="5.36098">
        <ele>213</ele>
        <time>2014-05-20T06:13:11Z</time>
      </trkpt>
      <trkpt lat="43.76629" lon="5.36098">
        <ele>213</ele>
        <time>2014-05-20T06:13:17Z</time>
      </trkpt>
      <trkpt lat="43.76629" lon="5.36098">
        <ele>213</ele>
        <time>2014-05-20T06:13:18Z</time>
      </trkpt>
      <trkpt lat="43.76628" lon="5.36095">
        <ele>213</ele>
        <time>2014-05-20T06:13:21Z</time>
      </trkpt>
      <trkpt lat="43.76628" lon="5.36094">
        <ele>213</ele>
        <time>2014-05-20T06:13:24Z</time>
      </trkpt>
      <trkpt lat="43.76625" lon="5.36094">
        <ele>213</ele>
        <time>2014-05-20T06:13:30Z</time>
      </trkpt>
      <trkpt lat="43.76624" lon="5.36092">
        <ele>213</ele>
        <time>2014-05-20T06:13:39Z</time>
      </trkpt>
      <trkpt lat="43.76623" lon="5.36092">
        <ele>213</ele>
        <time>2014-05-20T06:13:42Z</time>
      </trkpt>
      <trkpt lat="43.76621" lon="5.36091">
        <ele>213</ele>
        <time>2014-05-20T06:13:47Z</time>
      </trkpt>
      <trkpt lat="43.76622" lon="5.3609">
        <ele>213</ele>
        <time>2014-05-20T06:13:51Z</time>
      </trkpt>
      <trkpt lat="43.76623" lon="5.3609">
        <ele>213</ele>
        <time>2014-05-20T06:13:55Z</time>
      </trkpt>
      <trkpt lat="43.76621" lon="5.36086">
        <ele>213</ele>
        <time>2014-05-20T06:14:19Z</time>
      </trkpt>
      <trkpt lat="43.76621" lon="5.36085">
        <ele>213</ele>
        <time>2014-05-20T06:14:26Z</time>
      </trkpt>
      <trkpt lat="43.7662" lon="5.36083">
        <ele>210</ele>
        <time>2014-05-20T06:14:30Z</time>
      </trkpt>
      <trkpt lat="43.76619" lon="5.3608">
        <ele>210</ele>
        <time>2014-05-20T06:14:32Z</time>
      </trkpt>
      <trkpt lat="43.7662" lon="5.36081">
        <ele>210</ele>
        <time>2014-05-20T06:14:39Z</time>
      </trkpt>
      <trkpt lat="43.7662" lon="5.36082">
        <ele>210</ele>
        <time>2014-05-20T06:14:40Z</time>
      </trkpt>
      <trkpt lat="43.76621" lon="5.36081">
        <ele>210</ele>
        <time>2014-05-20T06:14:44Z</time>
      </trkpt>
      <trkpt lat="43.7662" lon="5.36081">
        <ele>210</ele>
        <time>2014-05-20T06:14:45Z</time>
      </trkpt>
      <trkpt lat="43.7662" lon="5.36082">
        <ele>210</ele>
        <time>2014-05-20T06:14:48Z</time>
      </trkpt>
      <trkpt lat="43.76621" lon="5.36086">
        <ele>213</ele>
        <time>2014-05-20T06:14:59Z</time>
      </trkpt>
      <trkpt lat="43.76622" lon="5.36089">
        <ele>213</ele>
        <time>2014-05-20T06:15:07Z</time>
      </trkpt>
      <trkpt lat="43.76621" lon="5.36087">
        <ele>213</ele>
        <time>2014-05-20T06:15:13Z</time>
      </trkpt>
      <trkpt lat="43.7662" lon="5.36086">
        <ele>213</ele>
        <time>2014-05-20T06:15:16Z</time>
      </trkpt>
      <trkpt lat="43.76622" lon="5.36087">
        <ele>213</ele>
        <time>2014-05-20T06:15:26Z</time>
      </trkpt>
      <trkpt lat="43.76621" lon="5.36086">
        <ele>213</ele>
        <time>2014-05-20T06:15:29Z</time>
      </trkpt>
      <trkpt lat="43.7662" lon="5.36086">
        <ele>213</ele>
        <time>2014-05-20T06:15:31Z</time>
      </trkpt>
      <trkpt lat="43.7662" lon="5.36086">
        <ele>213</ele>
        <time>2014-05-20T06:15:32Z</time>
      </trkpt>
      <trkpt lat="43.7662" lon="5.36087">
        <ele>213</ele>
        <time>2014-05-20T06:15:35Z</time>
      </trkpt>
      <trkpt lat="43.76619" lon="5.36086">
        <ele>213</ele>
        <time>2014-05-20T06:15:38Z</time>
      </trkpt>
      <trkpt lat="43.76618" lon="5.36086">
        <ele>213</ele>
        <time>2014-05-20T06:15:39Z</time>
      </trkpt>
      <trkpt lat="43.76619" lon="5.36087">
        <ele>213</ele>
        <time>2014-05-20T06:15:41Z</time>
      </trkpt>
      <trkpt lat="43.76621" lon="5.36087">
        <ele>213</ele>
        <time>2014-05-20T06:15:43Z</time>
      </trkpt>
      <trkpt lat="43.76622" lon="5.36088">
        <ele>213</ele>
        <time>2014-05-20T06:15:46Z</time>
      </trkpt>
      <trkpt lat="43.76621" lon="5.36085">
        <ele>213</ele>
        <time>2014-05-20T06:16:01Z</time>
      </trkpt>
      <trkpt lat="43.76621" lon="5.36085">
        <ele>213</ele>
        <time>2014-05-20T06:16:02Z</time>
      </trkpt>
      <trkpt lat="43.76622" lon="5.36083">
        <ele>210</ele>
        <time>2014-05-20T06:16:04Z</time>
      </trkpt>
      <trkpt lat="43.76625" lon="5.36083">
        <ele>210</ele>
        <time>2014-05-20T06:16:07Z</time>
      </trkpt>
      <trkpt lat="43.76628" lon="5.36084">
        <ele>213</ele>
        <time>2014-05-20T06:16:11Z</time>
      </trkpt>
      <trkpt lat="43.76632" lon="5.36087">
        <ele>213</ele>
        <time>2014-05-20T06:16:16Z</time>
      </trkpt>
      <trkpt lat="43.76635" lon="5.36087">
        <ele>213</ele>
        <time>2014-05-20T06:16:19Z</time>
      </trkpt>
      <trkpt lat="43.7664" lon="5.36088">
        <ele>213</ele>
        <time>2014-05-20T06:16:23Z</time>
      </trkpt>
      <trkpt lat="43.76647" lon="5.36086">
        <ele>213</ele>
        <time>2014-05-20T06:16:31Z</time>
      </trkpt>
      <trkpt lat="43.76649" lon="5.36085">
        <ele>213</ele>
        <time>2014-05-20T06:16:33Z</time>
      </trkpt>
      <trkpt lat="43.76651" lon="5.36084">
        <ele>213</ele>
        <time>2014-05-20T06:16:35Z</time>
      </trkpt>
      <trkpt lat="43.76652" lon="5.36082">
        <ele>211</ele>
        <time>2014-05-20T06:16:37Z</time>
      </trkpt>
      <trkpt lat="43.76653" lon="5.36078">
        <ele>211</ele>
        <time>2014-05-20T06:16:43Z</time>
      </trkpt>
      <trkpt lat="43.76652" lon="5.36068">
        <ele>211</ele>
        <time>2014-05-20T06:16:51Z</time>
      </trkpt>
      <trkpt lat="43.76647" lon="5.36049">
        <ele>210</ele>
        <time>2014-05-20T06:17:06Z</time>
      </trkpt>
      <trkpt lat="43.76645" lon="5.36037">
        <ele>210</ele>
        <time>2014-05-20T06:17:13Z</time>
      </trkpt>
      <trkpt lat="43.76642" lon="5.36028">
        <ele>209</ele>
        <time>2014-05-20T06:17:19Z</time>
      </trkpt>
      <trkpt lat="43.76642" lon="5.36022">
        <ele>209</ele>
        <time>2014-05-20T06:17:24Z</time>
      </trkpt>
      <trkpt lat="43.76642" lon="5.36021">
        <ele>209</ele>
        <time>2014-05-20T06:17:26Z</time>
      </trkpt>
      <trkpt lat="43.76641" lon="5.3602">
        <ele>209</ele>
        <time>2014-05-20T06:17:29Z</time>
      </trkpt>
      <trkpt lat="43.76641" lon="5.36016">
        <ele>209</ele>
        <time>2014-05-20T06:17:32Z</time>
      </trkpt>
      <trkpt lat="43.76637" lon="5.36002">
        <ele>209</ele>
        <time>2014-05-20T06:17:40Z</time>
      </trkpt>
      <trkpt lat="43.76636" lon="5.35989">
        <ele>207</ele>
        <time>2014-05-20T06:17:49Z</time>
      </trkpt>
      <trkpt lat="43.76635" lon="5.35984">
        <ele>207</ele>
        <time>2014-05-20T06:17:54Z</time>
      </trkpt>
      <trkpt lat="43.76632" lon="5.35962">
        <ele>207</ele>
        <time>2014-05-20T06:18:07Z</time>
      </trkpt>
      <trkpt lat="43.76629" lon="5.35951">
        <ele>207</ele>
        <time>2014-05-20T06:18:14Z</time>
      </trkpt>
      <trkpt lat="43.76627" lon="5.3594">
        <ele>207</ele>
        <time>2014-05-20T06:18:21Z</time>
      </trkpt>
      <trkpt lat="43.76626" lon="5.35936">
        <ele>207</ele>
        <time>2014-05-20T06:18:23Z</time>
      </trkpt>
      <trkpt lat="43.76625" lon="5.35928">
        <ele>207</ele>
        <time>2014-05-20T06:18:29Z</time>
      </trkpt>
      <trkpt lat="43.76626" lon="5.35922">
        <ele>207</ele>
        <time>2014-05-20T06:18:33Z</time>
      </trkpt>
      <trkpt lat="43.76625" lon="5.3591">
        <ele>206</ele>
        <time>2014-05-20T06:18:40Z</time>
      </trkpt>
      <trkpt lat="43.76622" lon="5.35894">
        <ele>206</ele>
        <time>2014-05-20T06:18:51Z</time>
      </trkpt>
      <trkpt lat="43.76622" lon="5.35891">
        <ele>206</ele>
        <time>2014-05-20T06:18:53Z</time>
      </trkpt>
      <trkpt lat="43.76623" lon="5.35887">
        <ele>206</ele>
        <time>2014-05-20T06:18:55Z</time>
      </trkpt>
      <trkpt lat="43.76622" lon="5.35884">
        <ele>206</ele>
        <time>2014-05-20T06:18:57Z</time>
      </trkpt>
      <trkpt lat="43.76622" lon="5.35879">
        <ele>206</ele>
        <time>2014-05-20T06:19:01Z</time>
      </trkpt>
      <trkpt lat="43.76622" lon="5.35872">
        <ele>206</ele>
        <time>2014-05-20T06:19:04Z</time>
      </trkpt>
      <trkpt lat="43.76624" lon="5.35843">
        <ele>206</ele>
        <time>2014-05-20T06:19:21Z</time>
      </trkpt>
      <trkpt lat="43.76625" lon="5.35839">
        <ele>206</ele>
        <time>2014-05-20T06:19:24Z</time>
      </trkpt>
      <trkpt lat="43.7663" lon="5.35804">
        <ele>207</ele>
        <time>2014-05-20T06:19:43Z</time>
      </trkpt>
      <trkpt lat="43.76637" lon="5.35757">
        <ele>208</ele>
        <time>2014-05-20T06:20:05Z</time>
      </trkpt>
      <trkpt lat="43.7664" lon="5.35739">
        <ele>209</ele>
        <time>2014-05-20T06:20:15Z</time>
      </trkpt>
      <trkpt lat="43.76647" lon="5.35713">
        <ele>208</ele>
        <time>2014-05-20T06:20:31Z</time>
      </trkpt>
      <trkpt lat="43.7665" lon="5.35694">
        <ele>208</ele>
        <time>2014-05-20T06:20:42Z</time>
      </trkpt>
      <trkpt lat="43.76651" lon="5.35684">
        <ele>208</ele>
        <time>2014-05-20T06:20:47Z</time>
      </trkpt>
      <trkpt lat="43.76652" lon="5.35668">
        <ele>208</ele>
        <time>2014-05-20T06:20:55Z</time>
      </trkpt>
      <trkpt lat="43.76654" lon="5.35657">
        <ele>206</ele>
        <time>2014-05-20T06:21:01Z</time>
      </trkpt>
      <trkpt lat="43.76655" lon="5.35638">
        <ele>206</ele>
        <time>2014-05-20T06:21:11Z</time>
      </trkpt>
      <trkpt lat="43.76658" lon="5.35622">
        <ele>205</ele>
        <time>2014-05-20T06:21:20Z</time>
      </trkpt>
      <trkpt lat="43.76659" lon="5.35616">
        <ele>204</ele>
        <time>2014-05-20T06:21:24Z</time>
      </trkpt>
      <trkpt lat="43.76661" lon="5.35614">
        <ele>204</ele>
        <time>2014-05-20T06:21:29Z</time>
      </trkpt>
      <trkpt lat="43.76662" lon="5.35609">
        <ele>204</ele>
        <time>2014-05-20T06:21:33Z</time>
      </trkpt>
      <trkpt lat="43.76665" lon="5.35601">
        <ele>203</ele>
        <time>2014-05-20T06:21:40Z</time>
      </trkpt>
      <trkpt lat="43.76669" lon="5.35586">
        <ele>203</ele>
        <time>2014-05-20T06:21:50Z</time>
      </trkpt>
      <trkpt lat="43.76671" lon="5.35579">
        <ele>202</ele>
        <time>2014-05-20T06:21:54Z</time>
      </trkpt>
      <trkpt lat="43.76676" lon="5.35568">
        <ele>201</ele>
        <time>2014-05-20T06:22:01Z</time>
      </trkpt>
      <trkpt lat="43.76679" lon="5.35561">
        <ele>201</ele>
        <time>2014-05-20T06:22:06Z</time>
      </trkpt>
      <trkpt lat="43.76683" lon="5.35548">
        <ele>201</ele>
        <time>2014-05-20T06:22:14Z</time>
      </trkpt>
      <trkpt lat="43.76685" lon="5.35535">
        <ele>200</ele>
        <time>2014-05-20T06:22:24Z</time>
      </trkpt>
      <trkpt lat="43.76686" lon="5.35529">
        <ele>200</ele>
        <time>2014-05-20T06:22:28Z</time>
      </trkpt>
      <trkpt lat="43.7669" lon="5.35522">
        <ele>200</ele>
        <time>2014-05-20T06:22:33Z</time>
      </trkpt>
      <trkpt lat="43.76692" lon="5.35512">
        <ele>199</ele>
        <time>2014-05-20T06:22:39Z</time>
      </trkpt>
      <trkpt lat="43.76695" lon="5.35505">
        <ele>199</ele>
        <time>2014-05-20T06:22:44Z</time>
      </trkpt>
      <trkpt lat="43.76699" lon="5.355">
        <ele>199</ele>
        <time>2014-05-20T06:22:48Z</time>
      </trkpt>
      <trkpt lat="43.76702" lon="5.35494">
        <ele>197</ele>
        <time>2014-05-20T06:22:52Z</time>
      </trkpt>
      <trkpt lat="43.76706" lon="5.35487">
        <ele>197</ele>
        <time>2014-05-20T06:22:57Z</time>
      </trkpt>
      <trkpt lat="43.76707" lon="5.35484">
        <ele>197</ele>
        <time>2014-05-20T06:22:59Z</time>
      </trkpt>
      <trkpt lat="43.76709" lon="5.3548">
        <ele>197</ele>
        <time>2014-05-20T06:23:02Z</time>
      </trkpt>
      <trkpt lat="43.76719" lon="5.35456">
        <ele>196</ele>
        <time>2014-05-20T06:23:16Z</time>
      </trkpt>
      <trkpt lat="43.76721" lon="5.35453">
        <ele>196</ele>
        <time>2014-05-20T06:23:18Z</time>
      </trkpt>
      <trkpt lat="43.76724" lon="5.35442">
        <ele>196</ele>
        <time>2014-05-20T06:23:25Z</time>
      </trkpt>
      <trkpt lat="43.76732" lon="5.35423">
        <ele>196</ele>
        <time>2014-05-20T06:23:36Z</time>
      </trkpt>
      <trkpt lat="43.76739" lon="5.35398">
        <ele>195</ele>
        <time>2014-05-20T06:23:51Z</time>
      </trkpt>
      <trkpt lat="43.76743" lon="5.35387">
        <ele>195</ele>
        <time>2014-05-20T06:23:58Z</time>
      </trkpt>
      <trkpt lat="43.76746" lon="5.3538">
        <ele>195</ele>
        <time>2014-05-20T06:24:02Z</time>
      </trkpt>
      <trkpt lat="43.76759" lon="5.35342">
        <ele>196</ele>
        <time>2014-05-20T06:24:26Z</time>
      </trkpt>
      <trkpt lat="43.76766" lon="5.35326">
        <ele>196</ele>
        <time>2014-05-20T06:24:38Z</time>
      </trkpt>
      <trkpt lat="43.76769" lon="5.35315">
        <ele>195</ele>
        <time>2014-05-20T06:24:45Z</time>
      </trkpt>
      <trkpt lat="43.76774" lon="5.35301">
        <ele>195</ele>
        <time>2014-05-20T06:24:53Z</time>
      </trkpt>
      <trkpt lat="43.76776" lon="5.35296">
        <ele>195</ele>
        <time>2014-05-20T06:24:56Z</time>
      </trkpt>
      <trkpt lat="43.76777" lon="5.35293">
        <ele>195</ele>
        <time>2014-05-20T06:24:58Z</time>
      </trkpt>
      <trkpt lat="43.76778" lon="5.35288">
        <ele>195</ele>
        <time>2014-05-20T06:25:01Z</time>
      </trkpt>
      <trkpt lat="43.76781" lon="5.35281">
        <ele>195</ele>
        <time>2014-05-20T06:25:06Z</time>
      </trkpt>
      <trkpt lat="43.76782" lon="5.35279">
        <ele>195</ele>
        <time>2014-05-20T06:25:07Z</time>
      </trkpt>
      <trkpt lat="43.76788" lon="5.35263">
        <ele>195</ele>
        <time>2014-05-20T06:25:17Z</time>
      </trkpt>
      <trkpt lat="43.7679" lon="5.3526">
        <ele>195</ele>
        <time>2014-05-20T06:25:19Z</time>
      </trkpt>
      <trkpt lat="43.76794" lon="5.35251">
        <ele>195</ele>
        <time>2014-05-20T06:25:24Z</time>
      </trkpt>
      <trkpt lat="43.76796" lon="5.35245">
        <ele>195</ele>
        <time>2014-05-20T06:25:28Z</time>
      </trkpt>
      <trkpt lat="43.76803" lon="5.35227">
        <ele>195</ele>
        <time>2014-05-20T06:25:39Z</time>
      </trkpt>
      <trkpt lat="43.76805" lon="5.35221">
        <ele>195</ele>
        <time>2014-05-20T06:25:43Z</time>
      </trkpt>
      <trkpt lat="43.76806" lon="5.35216">
        <ele>195</ele>
        <time>2014-05-20T06:25:46Z</time>
      </trkpt>
      <trkpt lat="43.76807" lon="5.35215">
        <ele>195</ele>
        <time>2014-05-20T06:25:47Z</time>
      </trkpt>
      <trkpt lat="43.76807" lon="5.35213">
        <ele>195</ele>
        <time>2014-05-20T06:25:48Z</time>
      </trkpt>
      <trkpt lat="43.76812" lon="5.35203">
        <ele>195</ele>
        <time>2014-05-20T06:25:56Z</time>
      </trkpt>
      <trkpt lat="43.76815" lon="5.35194">
        <ele>195</ele>
        <time>2014-05-20T06:26:03Z</time>
      </trkpt>
      <trkpt lat="43.76817" lon="5.35188">
        <ele>195</ele>
        <time>2014-05-20T06:26:08Z</time>
      </trkpt>
      <trkpt lat="43.7682" lon="5.35178">
        <ele>195</ele>
        <time>2014-05-20T06:26:14Z</time>
      </trkpt>
      <trkpt lat="43.76823" lon="5.35171">
        <ele>195</ele>
        <time>2014-05-20T06:26:18Z</time>
      </trkpt>
      <trkpt lat="43.76824" lon="5.35164">
        <ele>196</ele>
        <time>2014-05-20T06:26:21Z</time>
      </trkpt>
      <trkpt lat="43.7683" lon="5.35144">
        <ele>197</ele>
        <time>2014-05-20T06:26:31Z</time>
      </trkpt>
      <trkpt lat="43.76833" lon="5.35131">
        <ele>198</ele>
        <time>2014-05-20T06:26:38Z</time>
      </trkpt>
      <trkpt lat="43.76834" lon="5.35128">
        <ele>197</ele>
        <time>2014-05-20T06:26:40Z</time>
      </trkpt>
      <trkpt lat="43.76834" lon="5.35122">
        <ele>197</ele>
        <time>2014-05-20T06:26:44Z</time>
      </trkpt>
      <trkpt lat="43.76838" lon="5.35106">
        <ele>198</ele>
        <time>2014-05-20T06:26:54Z</time>
      </trkpt>
      <trkpt lat="43.76842" lon="5.35097">
        <ele>199</ele>
        <time>2014-05-20T06:27:01Z</time>
      </trkpt>
      <trkpt lat="43.76845" lon="5.35095">
        <ele>199</ele>
        <time>2014-05-20T06:27:05Z</time>
      </trkpt>
      <trkpt lat="43.76846" lon="5.35095">
        <ele>199</ele>
        <time>2014-05-20T06:27:08Z</time>
      </trkpt>
      <trkpt lat="43.76847" lon="5.35096">
        <ele>199</ele>
        <time>2014-05-20T06:27:13Z</time>
      </trkpt>
      <trkpt lat="43.76846" lon="5.35097">
        <ele>199</ele>
        <time>2014-05-20T06:27:18Z</time>
      </trkpt>
      <trkpt lat="43.76846" lon="5.35097">
        <ele>199</ele>
        <time>2014-05-20T06:27:23Z</time>
      </trkpt>
      <trkpt lat="43.76842" lon="5.35094">
        <ele>199</ele>
        <time>2014-05-20T06:27:39Z</time>
      </trkpt>
      <trkpt lat="43.76841" lon="5.35093">
        <ele>199</ele>
        <time>2014-05-20T06:27:46Z</time>
      </trkpt>
      <trkpt lat="43.76842" lon="5.35091">
        <ele>199</ele>
        <time>2014-05-20T06:27:57Z</time>
      </trkpt>
      <trkpt lat="43.76843" lon="5.35089">
        <ele>199</ele>
        <time>2014-05-20T06:28:01Z</time>
      </trkpt>
      <trkpt lat="43.76843" lon="5.35088">
        <ele>199</ele>
        <time>2014-05-20T06:28:06Z</time>
      </trkpt>
      <trkpt lat="43.76843" lon="5.35086">
        <ele>199</ele>
        <time>2014-05-20T06:28:10Z</time>
      </trkpt>
      <trkpt lat="43.76843" lon="5.35085">
        <ele>199</ele>
        <time>2014-05-20T06:28:12Z</time>
      </trkpt>
      <trkpt lat="43.76846" lon="5.3508">
        <ele>202</ele>
        <time>2014-05-20T06:28:18Z</time>
      </trkpt>
      <trkpt lat="43.76849" lon="5.35078">
        <ele>202</ele>
        <time>2014-05-20T06:28:24Z</time>
      </trkpt>
      <trkpt lat="43.76849" lon="5.35075">
        <ele>202</ele>
        <time>2014-05-20T06:28:28Z</time>
      </trkpt>
      <trkpt lat="43.76851" lon="5.35069">
        <ele>203</ele>
        <time>2014-05-20T06:28:33Z</time>
      </trkpt>
      <trkpt lat="43.76855" lon="5.35062">
        <ele>203</ele>
        <time>2014-05-20T06:28:39Z</time>
      </trkpt>
      <trkpt lat="43.76857" lon="5.35058">
        <ele>204</ele>
        <time>2014-05-20T06:28:42Z</time>
      </trkpt>
      <trkpt lat="43.76858" lon="5.35056">
        <ele>204</ele>
        <time>2014-05-20T06:28:44Z</time>
      </trkpt>
      <trkpt lat="43.7686" lon="5.35055">
        <ele>204</ele>
        <time>2014-05-20T06:28:45Z</time>
      </trkpt>
      <trkpt lat="43.76864" lon="5.35047">
        <ele>205</ele>
        <time>2014-05-20T06:28:54Z</time>
      </trkpt>
      <trkpt lat="43.76865" lon="5.35041">
        <ele>205</ele>
        <time>2014-05-20T06:29:08Z</time>
      </trkpt>
      <trkpt lat="43.76866" lon="5.3504">
        <ele>205</ele>
        <time>2014-05-20T06:29:10Z</time>
      </trkpt>
      <trkpt lat="43.76866" lon="5.35037">
        <ele>205</ele>
        <time>2014-05-20T06:29:13Z</time>
      </trkpt>
      <trkpt lat="43.76864" lon="5.35036">
        <ele>205</ele>
        <time>2014-05-20T06:29:17Z</time>
      </trkpt>
      <trkpt lat="43.76866" lon="5.35037">
        <ele>205</ele>
        <time>2014-05-20T06:29:23Z</time>
      </trkpt>
      <trkpt lat="43.76868" lon="5.35039">
        <ele>205</ele>
        <time>2014-05-20T06:29:31Z</time>
      </trkpt>
      <trkpt lat="43.76872" lon="5.35041">
        <ele>205</ele>
        <time>2014-05-20T06:29:40Z</time>
      </trkpt>
      <trkpt lat="43.76874" lon="5.3504">
        <ele>205</ele>
        <time>2014-05-20T06:29:49Z</time>
      </trkpt>
      <trkpt lat="43.76873" lon="5.35038">
        <ele>205</ele>
        <time>2014-05-20T06:29:54Z</time>
      </trkpt>
      <trkpt lat="43.76873" lon="5.35037">
        <ele>205</ele>
        <time>2014-05-20T06:29:56Z</time>
      </trkpt>
      <trkpt lat="43.76873" lon="5.3503">
        <ele>205</ele>
        <time>2014-05-20T06:30:01Z</time>
      </trkpt>
      <trkpt lat="43.76874" lon="5.35027">
        <ele>206</ele>
        <time>2014-05-20T06:30:03Z</time>
      </trkpt>
      <trkpt lat="43.76874" lon="5.35022">
        <ele>206</ele>
        <time>2014-05-20T06:30:06Z</time>
      </trkpt>
      <trkpt lat="43.76877" lon="5.35015">
        <ele>206</ele>
        <time>2014-05-20T06:30:11Z</time>
      </trkpt>
      <trkpt lat="43.76876" lon="5.3501">
        <ele>206</ele>
        <time>2014-05-20T06:30:14Z</time>
      </trkpt>
      <trkpt lat="43.76877" lon="5.35007">
        <ele>206</ele>
        <time>2014-05-20T06:30:16Z</time>
      </trkpt>
      <trkpt lat="43.76878" lon="5.34996">
        <ele>212</ele>
        <time>2014-05-20T06:30:24Z</time>
      </trkpt>
      <trkpt lat="43.76879" lon="5.34986">
        <ele>212</ele>
        <time>2014-05-20T06:30:32Z</time>
      </trkpt>
      <trkpt lat="43.7688" lon="5.34984">
        <ele>212</ele>
        <time>2014-05-20T06:30:34Z</time>
      </trkpt>
      <trkpt lat="43.7688" lon="5.3498">
        <ele>212</ele>
        <time>2014-05-20T06:30:37Z</time>
      </trkpt>
      <trkpt lat="43.76882" lon="5.34974">
        <ele>212</ele>
        <time>2014-05-20T06:30:42Z</time>
      </trkpt>
      <trkpt lat="43.76883" lon="5.3497">
        <ele>213</ele>
        <time>2014-05-20T06:30:45Z</time>
      </trkpt>
      <trkpt lat="43.76885" lon="5.34966">
        <ele>213</ele>
        <time>2014-05-20T06:30:49Z</time>
      </trkpt>
      <trkpt lat="43.76886" lon="5.3496">
        <ele>213</ele>
        <time>2014-05-20T06:30:53Z</time>
      </trkpt>
      <trkpt lat="43.76887" lon="5.34956">
        <ele>213</ele>
        <time>2014-05-20T06:30:56Z</time>
      </trkpt>
      <trkpt lat="43.76889" lon="5.34949">
        <ele>213</ele>
        <time>2014-05-20T06:31:01Z</time>
      </trkpt>
      <trkpt lat="43.76891" lon="5.34944">
        <ele>213</ele>
        <time>2014-05-20T06:31:05Z</time>
      </trkpt>
      <trkpt lat="43.76892" lon="5.34936">
        <ele>214</ele>
        <time>2014-05-20T06:31:10Z</time>
      </trkpt>
      <trkpt lat="43.76893" lon="5.3493">
        <ele>214</ele>
        <time>2014-05-20T06:31:14Z</time>
      </trkpt>
      <trkpt lat="43.76896" lon="5.34914">
        <ele>217</ele>
        <time>2014-05-20T06:31:24Z</time>
      </trkpt>
      <trkpt lat="43.76897" lon="5.34909">
        <ele>217</ele>
        <time>2014-05-20T06:31:28Z</time>
      </trkpt>
      <trkpt lat="43.76898" lon="5.34906">
        <ele>217</ele>
        <time>2014-05-20T06:31:31Z</time>
      </trkpt>
      <trkpt lat="43.76898" lon="5.34897">
        <ele>218</ele>
        <time>2014-05-20T06:31:36Z</time>
      </trkpt>
      <trkpt lat="43.76899" lon="5.34891">
        <ele>218</ele>
        <time>2014-05-20T06:31:40Z</time>
      </trkpt>
      <trkpt lat="43.769" lon="5.34888">
        <ele>218</ele>
        <time>2014-05-20T06:31:42Z</time>
      </trkpt>
      <trkpt lat="43.76903" lon="5.34878">
        <ele>218</ele>
        <time>2014-05-20T06:31:48Z</time>
      </trkpt>
      <trkpt lat="43.76905" lon="5.34873">
        <ele>218</ele>
        <time>2014-05-20T06:31:52Z</time>
      </trkpt>
      <trkpt lat="43.76908" lon="5.34857">
        <ele>218</ele>
        <time>2014-05-20T06:32:01Z</time>
      </trkpt>
      <trkpt lat="43.76915" lon="5.34839">
        <ele>217</ele>
        <time>2014-05-20T06:32:11Z</time>
      </trkpt>
      <trkpt lat="43.76918" lon="5.34821">
        <ele>218</ele>
        <time>2014-05-20T06:32:22Z</time>
      </trkpt>
      <trkpt lat="43.76919" lon="5.34814">
        <ele>218</ele>
        <time>2014-05-20T06:32:26Z</time>
      </trkpt>
      <trkpt lat="43.7692" lon="5.34798">
        <ele>219</ele>
        <time>2014-05-20T06:32:36Z</time>
      </trkpt>
      <trkpt lat="43.76921" lon="5.34785">
        <ele>220</ele>
        <time>2014-05-20T06:32:45Z</time>
      </trkpt>
      <trkpt lat="43.76923" lon="5.34775">
        <ele>220</ele>
        <time>2014-05-20T06:32:52Z</time>
      </trkpt>
      <trkpt lat="43.76923" lon="5.34771">
        <ele>220</ele>
        <time>2014-05-20T06:32:56Z</time>
      </trkpt>
      <trkpt lat="43.76925" lon="5.34756">
        <ele>221</ele>
        <time>2014-05-20T06:33:06Z</time>
      </trkpt>
      <trkpt lat="43.76926" lon="5.3475">
        <ele>221</ele>
        <time>2014-05-20T06:33:10Z</time>
      </trkpt>
      <trkpt lat="43.76926" lon="5.34737">
        <ele>224</ele>
        <time>2014-05-20T06:33:18Z</time>
      </trkpt>
      <trkpt lat="43.76925" lon="5.34724">
        <ele>225</ele>
        <time>2014-05-20T06:33:26Z</time>
      </trkpt>
      <trkpt lat="43.76925" lon="5.34721">
        <ele>225</ele>
        <time>2014-05-20T06:33:28Z</time>
      </trkpt>
      <trkpt lat="43.76929" lon="5.34708">
        <ele>226</ele>
        <time>2014-05-20T06:33:38Z</time>
      </trkpt>
      <trkpt lat="43.76934" lon="5.347">
        <ele>226</ele>
        <time>2014-05-20T06:33:44Z</time>
      </trkpt>
      <trkpt lat="43.7694" lon="5.34691">
        <ele>227</ele>
        <time>2014-05-20T06:33:51Z</time>
      </trkpt>
      <trkpt lat="43.76949" lon="5.3468">
        <ele>227</ele>
        <time>2014-05-20T06:34:00Z</time>
      </trkpt>
      <trkpt lat="43.76954" lon="5.34669">
        <ele>228</ele>
        <time>2014-05-20T06:34:10Z</time>
      </trkpt>
      <trkpt lat="43.76959" lon="5.34662">
        <ele>233</ele>
        <time>2014-05-20T06:34:17Z</time>
      </trkpt>
      <trkpt lat="43.76965" lon="5.34652">
        <ele>234</ele>
        <time>2014-05-20T06:34:26Z</time>
      </trkpt>
      <trkpt lat="43.7697" lon="5.34646">
        <ele>234</ele>
        <time>2014-05-20T06:34:32Z</time>
      </trkpt>
      <trkpt lat="43.76972" lon="5.34642">
        <ele>234</ele>
        <time>2014-05-20T06:34:36Z</time>
      </trkpt>
      <trkpt lat="43.76973" lon="5.3464">
        <ele>234</ele>
        <time>2014-05-20T06:34:38Z</time>
      </trkpt>
      <trkpt lat="43.76974" lon="5.34638">
        <ele>235</ele>
        <time>2014-05-20T06:34:41Z</time>
      </trkpt>
      <trkpt lat="43.76977" lon="5.34636">
        <ele>235</ele>
        <time>2014-05-20T06:34:48Z</time>
      </trkpt>
      <trkpt lat="43.76976" lon="5.34636">
        <ele>235</ele>
        <time>2014-05-20T06:34:50Z</time>
      </trkpt>
      <trkpt lat="43.76977" lon="5.34637">
        <ele>235</ele>
        <time>2014-05-20T06:34:58Z</time>
      </trkpt>
      <trkpt lat="43.76978" lon="5.34637">
        <ele>235</ele>
        <time>2014-05-20T06:35:00Z</time>
      </trkpt>
      <trkpt lat="43.76979" lon="5.34636">
        <ele>235</ele>
        <time>2014-05-20T06:35:02Z</time>
      </trkpt>
      <trkpt lat="43.76982" lon="5.34631">
        <ele>235</ele>
        <time>2014-05-20T06:35:07Z</time>
      </trkpt>
      <trkpt lat="43.76986" lon="5.34629">
        <ele>235</ele>
        <time>2014-05-20T06:35:14Z</time>
      </trkpt>
      <trkpt lat="43.76988" lon="5.34629">
        <ele>236</ele>
        <time>2014-05-20T06:35:16Z</time>
      </trkpt>
      <trkpt lat="43.76989" lon="5.34628">
        <ele>236</ele>
        <time>2014-05-20T06:35:21Z</time>
      </trkpt>
      <trkpt lat="43.7699" lon="5.34627">
        <ele>236</ele>
        <time>2014-05-20T06:35:23Z</time>
      </trkpt>
      <trkpt lat="43.76991" lon="5.34625">
        <ele>236</ele>
        <time>2014-05-20T06:35:24Z</time>
      </trkpt>
      <trkpt lat="43.76992" lon="5.34624">
        <ele>236</ele>
        <time>2014-05-20T06:35:26Z</time>
      </trkpt>
      <trkpt lat="43.76993" lon="5.34623">
        <ele>236</ele>
        <time>2014-05-20T06:35:28Z</time>
      </trkpt>
      <trkpt lat="43.76995" lon="5.34623">
        <ele>236</ele>
        <time>2014-05-20T06:35:30Z</time>
      </trkpt>
      <trkpt lat="43.76996" lon="5.34623">
        <ele>236</ele>
        <time>2014-05-20T06:35:32Z</time>
      </trkpt>
      <trkpt lat="43.77002" lon="5.34627">
        <ele>243</ele>
        <time>2014-05-20T06:35:39Z</time>
      </trkpt>
      <trkpt lat="43.77003" lon="5.34628">
        <ele>243</ele>
        <time>2014-05-20T06:35:40Z</time>
      </trkpt>
      <trkpt lat="43.77006" lon="5.34629">
        <ele>243</ele>
        <time>2014-05-20T06:35:44Z</time>
      </trkpt>
      <trkpt lat="43.77009" lon="5.34632">
        <ele>243</ele>
        <time>2014-05-20T06:35:48Z</time>
      </trkpt>
      <trkpt lat="43.77012" lon="5.34636">
        <ele>242</ele>
        <time>2014-05-20T06:35:53Z</time>
      </trkpt>
      <trkpt lat="43.77018" lon="5.34638">
        <ele>243</ele>
        <time>2014-05-20T06:35:58Z</time>
      </trkpt>
      <trkpt lat="43.77019" lon="5.3464">
        <ele>243</ele>
        <time>2014-05-20T06:36:00Z</time>
      </trkpt>
      <trkpt lat="43.77021" lon="5.34641">
        <ele>243</ele>
        <time>2014-05-20T06:36:02Z</time>
      </trkpt>
      <trkpt lat="43.77023" lon="5.34642">
        <ele>243</ele>
        <time>2014-05-20T06:36:06Z</time>
      </trkpt>
      <trkpt lat="43.77024" lon="5.3464">
        <ele>243</ele>
        <time>2014-05-20T06:36:10Z</time>
      </trkpt>
      <trkpt lat="43.77025" lon="5.34638">
        <ele>243</ele>
        <time>2014-05-20T06:36:12Z</time>
      </trkpt>
      <trkpt lat="43.77027" lon="5.34636">
        <ele>243</ele>
        <time>2014-05-20T06:36:17Z</time>
      </trkpt>
      <trkpt lat="43.77033" lon="5.3464">
        <ele>244</ele>
        <time>2014-05-20T06:36:24Z</time>
      </trkpt>
      <trkpt lat="43.77037" lon="5.34644">
        <ele>244</ele>
        <time>2014-05-20T06:36:29Z</time>
      </trkpt>
      <trkpt lat="43.77038" lon="5.34644">
        <ele>244</ele>
        <time>2014-05-20T06:36:31Z</time>
      </trkpt>
      <trkpt lat="43.7704" lon="5.34644">
        <ele>244</ele>
        <time>2014-05-20T06:36:33Z</time>
      </trkpt>
      <trkpt lat="43.77042" lon="5.34642">
        <ele>244</ele>
        <time>2014-05-20T06:36:37Z</time>
      </trkpt>
      <trkpt lat="43.77043" lon="5.34636">
        <ele>245</ele>
        <time>2014-05-20T06:36:45Z</time>
      </trkpt>
      <trkpt lat="43.77046" lon="5.34632">
        <ele>245</ele>
        <time>2014-05-20T06:36:50Z</time>
      </trkpt>
      <trkpt lat="43.77048" lon="5.34627">
        <ele>245</ele>
        <time>2014-05-20T06:36:55Z</time>
      </trkpt>
      <trkpt lat="43.7705" lon="5.34625">
        <ele>246</ele>
        <time>2014-05-20T06:36:59Z</time>
      </trkpt>
      <trkpt lat="43.77051" lon="5.34625">
        <ele>246</ele>
        <time>2014-05-20T06:37:03Z</time>
      </trkpt>
      <trkpt lat="43.77053" lon="5.34621">
        <ele>246</ele>
        <time>2014-05-20T06:37:06Z</time>
      </trkpt>
      <trkpt lat="43.77056" lon="5.34614">
        <ele>247</ele>
        <time>2014-05-20T06:37:12Z</time>
      </trkpt>
      <trkpt lat="43.77062" lon="5.34607">
        <ele>248</ele>
        <time>2014-05-20T06:37:21Z</time>
      </trkpt>
      <trkpt lat="43.77064" lon="5.34602">
        <ele>249</ele>
        <time>2014-05-20T06:37:26Z</time>
      </trkpt>
      <trkpt lat="43.77068" lon="5.34596">
        <ele>250</ele>
        <time>2014-05-20T06:37:42Z</time>
      </trkpt>
      <trkpt lat="43.7707" lon="5.34593">
        <ele>251</ele>
        <time>2014-05-20T06:37:46Z</time>
      </trkpt>
      <trkpt lat="43.77072" lon="5.3459">
        <ele>251</ele>
        <time>2014-05-20T06:37:49Z</time>
      </trkpt>
      <trkpt lat="43.77073" lon="5.34587">
        <ele>252</ele>
        <time>2014-05-20T06:37:52Z</time>
      </trkpt>
      <trkpt lat="43.77072" lon="5.34584">
        <ele>252</ele>
        <time>2014-05-20T06:37:55Z</time>
      </trkpt>
      <trkpt lat="43.77072" lon="5.34578">
        <ele>254</ele>
        <time>2014-05-20T06:38:01Z</time>
      </trkpt>
      <trkpt lat="43.77073" lon="5.34577">
        <ele>254</ele>
        <time>2014-05-20T06:38:02Z</time>
      </trkpt>
      <trkpt lat="43.77075" lon="5.34578">
        <ele>255</ele>
        <time>2014-05-20T06:38:05Z</time>
      </trkpt>
      <trkpt lat="43.77076" lon="5.34578">
        <ele>255</ele>
        <time>2014-05-20T06:38:06Z</time>
      </trkpt>
      <trkpt lat="43.77078" lon="5.34576">
        <ele>255</ele>
        <time>2014-05-20T06:38:10Z</time>
      </trkpt>
      <trkpt lat="43.7708" lon="5.34575">
        <ele>255</ele>
        <time>2014-05-20T06:38:13Z</time>
      </trkpt>
      <trkpt lat="43.77084" lon="5.34573">
        <ele>260</ele>
        <time>2014-05-20T06:38:17Z</time>
      </trkpt>
      <trkpt lat="43.77086" lon="5.34571">
        <ele>260</ele>
        <time>2014-05-20T06:38:19Z</time>
      </trkpt>
      <trkpt lat="43.77091" lon="5.34569">
        <ele>261</ele>
        <time>2014-05-20T06:38:24Z</time>
      </trkpt>
      <trkpt lat="43.77095" lon="5.34568">
        <ele>262</ele>
        <time>2014-05-20T06:38:27Z</time>
      </trkpt>
      <trkpt lat="43.77101" lon="5.3457">
        <ele>263</ele>
        <time>2014-05-20T06:38:34Z</time>
      </trkpt>
      <trkpt lat="43.77119" lon="5.34567">
        <ele>265</ele>
        <time>2014-05-20T06:38:51Z</time>
      </trkpt>
      <trkpt lat="43.77122" lon="5.34565">
        <ele>266</ele>
        <time>2014-05-20T06:38:54Z</time>
      </trkpt>
      <trkpt lat="43.77125" lon="5.34565">
        <ele>266</ele>
        <time>2014-05-20T06:38:57Z</time>
      </trkpt>
      <trkpt lat="43.77128" lon="5.34563">
        <ele>267</ele>
        <time>2014-05-20T06:39:00Z</time>
      </trkpt>
      <trkpt lat="43.77135" lon="5.34563">
        <ele>267</ele>
        <time>2014-05-20T06:39:06Z</time>
      </trkpt>
      <trkpt lat="43.77142" lon="5.3456">
        <ele>268</ele>
        <time>2014-05-20T06:39:12Z</time>
      </trkpt>
      <trkpt lat="43.77149" lon="5.34559">
        <ele>269</ele>
        <time>2014-05-20T06:39:20Z</time>
      </trkpt>
      <trkpt lat="43.77154" lon="5.34557">
        <ele>269</ele>
        <time>2014-05-20T06:39:24Z</time>
      </trkpt>
      <trkpt lat="43.77157" lon="5.34557">
        <ele>269</ele>
        <time>2014-05-20T06:39:27Z</time>
      </trkpt>
      <trkpt lat="43.77162" lon="5.34554">
        <ele>270</ele>
        <time>2014-05-20T06:39:32Z</time>
      </trkpt>
      <trkpt lat="43.77162" lon="5.34553">
        <ele>270</ele>
        <time>2014-05-20T06:39:34Z</time>
      </trkpt>
      <trkpt lat="43.77163" lon="5.34553">
        <ele>270</ele>
        <time>2014-05-20T06:39:35Z</time>
      </trkpt>
      <trkpt lat="43.77165" lon="5.34553">
        <ele>270</ele>
        <time>2014-05-20T06:39:38Z</time>
      </trkpt>
      <trkpt lat="43.77166" lon="5.34553">
        <ele>270</ele>
        <time>2014-05-20T06:39:39Z</time>
      </trkpt>
      <trkpt lat="43.77167" lon="5.34555">
        <ele>281</ele>
        <time>2014-05-20T06:39:41Z</time>
      </trkpt>
      <trkpt lat="43.77166" lon="5.34556">
        <ele>270</ele>
        <time>2014-05-20T06:39:43Z</time>
      </trkpt>
      <trkpt lat="43.77167" lon="5.34557">
        <ele>281</ele>
        <time>2014-05-20T06:39:44Z</time>
      </trkpt>
      <trkpt lat="43.77166" lon="5.34559">
        <ele>270</ele>
        <time>2014-05-20T06:39:47Z</time>
      </trkpt>
      <trkpt lat="43.77165" lon="5.34561">
        <ele>270</ele>
        <time>2014-05-20T06:39:50Z</time>
      </trkpt>
      <trkpt lat="43.77165" lon="5.34567">
        <ele>270</ele>
        <time>2014-05-20T06:39:55Z</time>
      </trkpt>
      <trkpt lat="43.77167" lon="5.34574">
        <ele>270</ele>
        <time>2014-05-20T06:40:01Z</time>
      </trkpt>
      <trkpt lat="43.77166" lon="5.34587">
        <ele>270</ele>
        <time>2014-05-20T06:40:10Z</time>
      </trkpt>
      <trkpt lat="43.77164" lon="5.34594">
        <ele>267</ele>
        <time>2014-05-20T06:40:15Z</time>
      </trkpt>
      <trkpt lat="43.77163" lon="5.34596">
        <ele>267</ele>
        <time>2014-05-20T06:40:22Z</time>
      </trkpt>
      <trkpt lat="43.77163" lon="5.34599">
        <ele>266</ele>
        <time>2014-05-20T06:40:27Z</time>
      </trkpt>
      <trkpt lat="43.77162" lon="5.34599">
        <ele>266</ele>
        <time>2014-05-20T06:40:36Z</time>
      </trkpt>
      <trkpt lat="43.77162" lon="5.34598">
        <ele>266</ele>
        <time>2014-05-20T06:40:40Z</time>
      </trkpt>
      <trkpt lat="43.77161" lon="5.34598">
        <ele>266</ele>
        <time>2014-05-20T06:40:42Z</time>
      </trkpt>
      <trkpt lat="43.77162" lon="5.34613">
        <ele>264</ele>
        <time>2014-05-20T06:40:54Z</time>
      </trkpt>
      <trkpt lat="43.77163" lon="5.34633">
        <ele>263</ele>
        <time>2014-05-20T06:41:07Z</time>
      </trkpt>
      <trkpt lat="43.77162" lon="5.34637">
        <ele>263</ele>
        <time>2014-05-20T06:41:10Z</time>
      </trkpt>
      <trkpt lat="43.77164" lon="5.34651">
        <ele>264</ele>
        <time>2014-05-20T06:41:19Z</time>
      </trkpt>
      <trkpt lat="43.77166" lon="5.34656">
        <ele>265</ele>
        <time>2014-05-20T06:41:22Z</time>
      </trkpt>
      <trkpt lat="43.77167" lon="5.34659">
        <ele>273</ele>
        <time>2014-05-20T06:41:25Z</time>
      </trkpt>
      <trkpt lat="43.77171" lon="5.34669">
        <ele>271</ele>
        <time>2014-05-20T06:41:33Z</time>
      </trkpt>
      <trkpt lat="43.77172" lon="5.34673">
        <ele>272</ele>
        <time>2014-05-20T06:41:36Z</time>
      </trkpt>
      <trkpt lat="43.77174" lon="5.34677">
        <ele>273</ele>
        <time>2014-05-20T06:41:40Z</time>
      </trkpt>
      <trkpt lat="43.7718" lon="5.3468">
        <ele>275</ele>
        <time>2014-05-20T06:41:49Z</time>
      </trkpt>
      <trkpt lat="43.77185" lon="5.34682">
        <ele>276</ele>
        <time>2014-05-20T06:41:58Z</time>
      </trkpt>
      <trkpt lat="43.77191" lon="5.34683">
        <ele>278</ele>
        <time>2014-05-20T06:42:04Z</time>
      </trkpt>
      <trkpt lat="43.77195" lon="5.34685">
        <ele>279</ele>
        <time>2014-05-20T06:42:08Z</time>
      </trkpt>
      <trkpt lat="43.77199" lon="5.34686">
        <ele>280</ele>
        <time>2014-05-20T06:42:12Z</time>
      </trkpt>
      <trkpt lat="43.77205" lon="5.3469">
        <ele>281</ele>
        <time>2014-05-20T06:42:18Z</time>
      </trkpt>
      <trkpt lat="43.77208" lon="5.34691">
        <ele>282</ele>
        <time>2014-05-20T06:42:20Z</time>
      </trkpt>
      <trkpt lat="43.7721" lon="5.34692">
        <ele>282</ele>
        <time>2014-05-20T06:42:21Z</time>
      </trkpt>
      <trkpt lat="43.77213" lon="5.34698">
        <ele>282</ele>
        <time>2014-05-20T06:42:26Z</time>
      </trkpt>
      <trkpt lat="43.77214" lon="5.34704">
        <ele>282</ele>
        <time>2014-05-20T06:42:31Z</time>
      </trkpt>
      <trkpt lat="43.77212" lon="5.34723">
        <ele>282</ele>
        <time>2014-05-20T06:42:43Z</time>
      </trkpt>
      <trkpt lat="43.77212" lon="5.34724">
        <ele>282</ele>
        <time>2014-05-20T06:42:44Z</time>
      </trkpt>
      <trkpt lat="43.77211" lon="5.3473">
        <ele>281</ele>
        <time>2014-05-20T06:42:48Z</time>
      </trkpt>
      <trkpt lat="43.77211" lon="5.34733">
        <ele>281</ele>
        <time>2014-05-20T06:42:50Z</time>
      </trkpt>
      <trkpt lat="43.77211" lon="5.34738">
        <ele>281</ele>
        <time>2014-05-20T06:42:53Z</time>
      </trkpt>
      <trkpt lat="43.77211" lon="5.34741">
        <ele>281</ele>
        <time>2014-05-20T06:42:55Z</time>
      </trkpt>
      <trkpt lat="43.77211" lon="5.34748">
        <ele>281</ele>
        <time>2014-05-20T06:42:59Z</time>
      </trkpt>
      <trkpt lat="43.7721" lon="5.34757">
        <ele>276</ele>
        <time>2014-05-20T06:43:06Z</time>
      </trkpt>
      <trkpt lat="43.77214" lon="5.34771">
        <ele>277</ele>
        <time>2014-05-20T06:43:16Z</time>
      </trkpt>
      <trkpt lat="43.77215" lon="5.34774">
        <ele>277</ele>
        <time>2014-05-20T06:43:19Z</time>
      </trkpt>
      <trkpt lat="43.77217" lon="5.34784">
        <ele>277</ele>
        <time>2014-05-20T06:43:26Z</time>
      </trkpt>
      <trkpt lat="43.77218" lon="5.34785">
        <ele>277</ele>
        <time>2014-05-20T06:43:27Z</time>
      </trkpt>
      <trkpt lat="43.77221" lon="5.34795">
        <ele>277</ele>
        <time>2014-05-20T06:43:34Z</time>
      </trkpt>
      <trkpt lat="43.77222" lon="5.34798">
        <ele>277</ele>
        <time>2014-05-20T06:43:37Z</time>
      </trkpt>
      <trkpt lat="43.77221" lon="5.348">
        <ele>276</ele>
        <time>2014-05-20T06:43:50Z</time>
      </trkpt>
      <trkpt lat="43.77222" lon="5.34802">
        <ele>277</ele>
        <time>2014-05-20T06:43:54Z</time>
      </trkpt>
      <trkpt lat="43.77223" lon="5.34804">
        <ele>277</ele>
        <time>2014-05-20T06:43:58Z</time>
      </trkpt>
      <trkpt lat="43.77223" lon="5.34804">
        <ele>277</ele>
        <time>2014-05-20T06:43:59Z</time>
      </trkpt>
      <trkpt lat="43.77222" lon="5.34804">
        <ele>277</ele>
        <time>2014-05-20T06:44:00Z</time>
      </trkpt>
      <trkpt lat="43.7722" lon="5.34804">
        <ele>276</ele>
        <time>2014-05-20T06:44:04Z</time>
      </trkpt>
      <trkpt lat="43.77217" lon="5.34807">
        <ele>276</ele>
        <time>2014-05-20T06:44:17Z</time>
      </trkpt>
      <trkpt lat="43.77217" lon="5.34808">
        <ele>276</ele>
        <time>2014-05-20T06:44:21Z</time>
      </trkpt>
      <trkpt lat="43.77222" lon="5.34811">
        <ele>276</ele>
        <time>2014-05-20T06:44:29Z</time>
      </trkpt>
      <trkpt lat="43.77224" lon="5.34813">
        <ele>277</ele>
        <time>2014-05-20T06:44:31Z</time>
      </trkpt>
      <trkpt lat="43.77226" lon="5.34813">
        <ele>277</ele>
        <time>2014-05-20T06:44:34Z</time>
      </trkpt>
      <trkpt lat="43.77229" lon="5.34814">
        <ele>278</ele>
        <time>2014-05-20T06:44:37Z</time>
      </trkpt>
      <trkpt lat="43.77239" lon="5.34815">
        <ele>279</ele>
        <time>2014-05-20T06:44:48Z</time>
      </trkpt>
      <trkpt lat="43.77243" lon="5.34816">
        <ele>280</ele>
        <time>2014-05-20T06:44:53Z</time>
      </trkpt>
      <trkpt lat="43.77245" lon="5.34816">
        <ele>280</ele>
        <time>2014-05-20T06:44:55Z</time>
      </trkpt>
      <trkpt lat="43.77248" lon="5.34816">
        <ele>280</ele>
        <time>2014-05-20T06:44:57Z</time>
      </trkpt>
      <trkpt lat="43.77255" lon="5.34818">
        <ele>291</ele>
        <time>2014-05-20T06:45:03Z</time>
      </trkpt>
      <trkpt lat="43.77259" lon="5.34819">
        <ele>291</ele>
        <time>2014-05-20T06:45:07Z</time>
      </trkpt>
      <trkpt lat="43.77267" lon="5.34818">
        <ele>293</ele>
        <time>2014-05-20T06:45:16Z</time>
      </trkpt>
      <trkpt lat="43.77271" lon="5.34818">
        <ele>293</ele>
        <time>2014-05-20T06:45:20Z</time>
      </trkpt>
      <trkpt lat="43.77282" lon="5.34819">
        <ele>295</ele>
        <time>2014-05-20T06:45:31Z</time>
      </trkpt>
      <trkpt lat="43.77288" lon="5.34821">
        <ele>296</ele>
        <time>2014-05-20T06:45:36Z</time>
      </trkpt>
      <trkpt lat="43.7729" lon="5.34822">
        <ele>296</ele>
        <time>2014-05-20T06:45:38Z</time>
      </trkpt>
      <trkpt lat="43.77301" lon="5.34828">
        <ele>297</ele>
        <time>2014-05-20T06:45:48Z</time>
      </trkpt>
      <trkpt lat="43.77302" lon="5.34829">
        <ele>297</ele>
        <time>2014-05-20T06:45:50Z</time>
      </trkpt>
      <trkpt lat="43.77304" lon="5.3483">
        <ele>297</ele>
        <time>2014-05-20T06:45:51Z</time>
      </trkpt>
      <trkpt lat="43.77311" lon="5.34836">
        <ele>290</ele>
        <time>2014-05-20T06:45:58Z</time>
      </trkpt>
      <trkpt lat="43.77313" lon="5.34838">
        <ele>291</ele>
        <time>2014-05-20T06:46:00Z</time>
      </trkpt>
      <trkpt lat="43.77315" lon="5.3484">
        <ele>291</ele>
        <time>2014-05-20T06:46:03Z</time>
      </trkpt>
      <trkpt lat="43.7732" lon="5.34845">
        <ele>292</ele>
        <time>2014-05-20T06:46:09Z</time>
      </trkpt>
      <trkpt lat="43.77324" lon="5.34852">
        <ele>291</ele>
        <time>2014-05-20T06:46:16Z</time>
      </trkpt>
      <trkpt lat="43.77327" lon="5.34855">
        <ele>291</ele>
        <time>2014-05-20T06:46:20Z</time>
      </trkpt>
      <trkpt lat="43.77329" lon="5.34855">
        <ele>291</ele>
        <time>2014-05-20T06:46:22Z</time>
      </trkpt>
      <trkpt lat="43.77333" lon="5.34853">
        <ele>292</ele>
        <time>2014-05-20T06:46:27Z</time>
      </trkpt>
      <trkpt lat="43.77336" lon="5.34851">
        <ele>300</ele>
        <time>2014-05-20T06:46:31Z</time>
      </trkpt>
      <trkpt lat="43.77339" lon="5.34848">
        <ele>300</ele>
        <time>2014-05-20T06:46:35Z</time>
      </trkpt>
      <trkpt lat="43.77341" lon="5.34846">
        <ele>300</ele>
        <time>2014-05-20T06:46:37Z</time>
      </trkpt>
      <trkpt lat="43.77342" lon="5.34842">
        <ele>300</ele>
        <time>2014-05-20T06:46:41Z</time>
      </trkpt>
      <trkpt lat="43.77346" lon="5.34837">
        <ele>300</ele>
        <time>2014-05-20T06:46:46Z</time>
      </trkpt>
      <trkpt lat="43.77347" lon="5.34834">
        <ele>300</ele>
        <time>2014-05-20T06:46:49Z</time>
      </trkpt>
      <trkpt lat="43.77355" lon="5.34824">
        <ele>306</ele>
        <time>2014-05-20T06:47:00Z</time>
      </trkpt>
      <trkpt lat="43.77357" lon="5.3482">
        <ele>307</ele>
        <time>2014-05-20T06:47:04Z</time>
      </trkpt>
      <trkpt lat="43.7736" lon="5.34818">
        <ele>307</ele>
        <time>2014-05-20T06:47:07Z</time>
      </trkpt>
      <trkpt lat="43.77362" lon="5.34816">
        <ele>308</ele>
        <time>2014-05-20T06:47:10Z</time>
      </trkpt>
      <trkpt lat="43.77365" lon="5.34813">
        <ele>308</ele>
        <time>2014-05-20T06:47:14Z</time>
      </trkpt>
      <trkpt lat="43.77366" lon="5.34813">
        <ele>308</ele>
        <time>2014-05-20T06:47:17Z</time>
      </trkpt>
      <trkpt lat="43.77369" lon="5.34811">
        <ele>309</ele>
        <time>2014-05-20T06:47:20Z</time>
      </trkpt>
      <trkpt lat="43.77372" lon="5.34807">
        <ele>309</ele>
        <time>2014-05-20T06:47:24Z</time>
      </trkpt>
      <trkpt lat="43.77375" lon="5.34803">
        <ele>310</ele>
        <time>2014-05-20T06:47:28Z</time>
      </trkpt>
      <trkpt lat="43.77377" lon="5.34799">
        <ele>310</ele>
        <time>2014-05-20T06:47:32Z</time>
      </trkpt>
      <trkpt lat="43.7738" lon="5.34796">
        <ele>310</ele>
        <time>2014-05-20T06:47:34Z</time>
      </trkpt>
      <trkpt lat="43.77384" lon="5.3479">
        <ele>311</ele>
        <time>2014-05-20T06:47:40Z</time>
      </trkpt>
      <trkpt lat="43.77388" lon="5.34785">
        <ele>311</ele>
        <time>2014-05-20T06:47:45Z</time>
      </trkpt>
      <trkpt lat="43.77389" lon="5.34783">
        <ele>311</ele>
        <time>2014-05-20T06:47:47Z</time>
      </trkpt>
      <trkpt lat="43.77397" lon="5.34771">
        <ele>312</ele>
        <time>2014-05-20T06:47:58Z</time>
      </trkpt>
      <trkpt lat="43.77406" lon="5.34765">
        <ele>312</ele>
        <time>2014-05-20T06:48:10Z</time>
      </trkpt>
      <trkpt lat="43.77411" lon="5.3476">
        <ele>313</ele>
        <time>2014-05-20T06:48:16Z</time>
      </trkpt>
      <trkpt lat="43.77413" lon="5.34759">
        <ele>313</ele>
        <time>2014-05-20T06:48:18Z</time>
      </trkpt>
      <trkpt lat="43.77416" lon="5.34756">
        <ele>313</ele>
        <time>2014-05-20T06:48:21Z</time>
      </trkpt>
      <trkpt lat="43.77417" lon="5.34755">
        <ele>315</ele>
        <time>2014-05-20T06:48:22Z</time>
      </trkpt>
      <trkpt lat="43.7742" lon="5.3475">
        <ele>316</ele>
        <time>2014-05-20T06:48:26Z</time>
      </trkpt>
      <trkpt lat="43.77424" lon="5.34745">
        <ele>319</ele>
        <time>2014-05-20T06:48:30Z</time>
      </trkpt>
      <trkpt lat="43.77427" lon="5.3474">
        <ele>322</ele>
        <time>2014-05-20T06:48:35Z</time>
      </trkpt>
      <trkpt lat="43.77431" lon="5.34727">
        <ele>325</ele>
        <time>2014-05-20T06:48:46Z</time>
      </trkpt>
      <trkpt lat="43.77431" lon="5.34722">
        <ele>326</ele>
        <time>2014-05-20T06:48:50Z</time>
      </trkpt>
      <trkpt lat="43.77432" lon="5.34721">
        <ele>326</ele>
        <time>2014-05-20T06:48:51Z</time>
      </trkpt>
      <trkpt lat="43.77431" lon="5.34714">
        <ele>327</ele>
        <time>2014-05-20T06:48:56Z</time>
      </trkpt>
      <trkpt lat="43.77432" lon="5.34708">
        <ele>328</ele>
        <time>2014-05-20T06:49:01Z</time>
      </trkpt>
      <trkpt lat="43.77434" lon="5.34699">
        <ele>329</ele>
        <time>2014-05-20T06:49:07Z</time>
      </trkpt>
      <trkpt lat="43.77434" lon="5.34695">
        <ele>329</ele>
        <time>2014-05-20T06:49:10Z</time>
      </trkpt>
      <trkpt lat="43.77435" lon="5.34687">
        <ele>329</ele>
        <time>2014-05-20T06:49:17Z</time>
      </trkpt>
      <trkpt lat="43.77437" lon="5.34683">
        <ele>329</ele>
        <time>2014-05-20T06:49:20Z</time>
      </trkpt>
      <trkpt lat="43.77437" lon="5.34681">
        <ele>330</ele>
        <time>2014-05-20T06:49:22Z</time>
      </trkpt>
      <trkpt lat="43.77439" lon="5.34675">
        <ele>330</ele>
        <time>2014-05-20T06:49:26Z</time>
      </trkpt>
      <trkpt lat="43.7744" lon="5.34673">
        <ele>330</ele>
        <time>2014-05-20T06:49:28Z</time>
      </trkpt>
      <trkpt lat="43.7744" lon="5.34667">
        <ele>330</ele>
        <time>2014-05-20T06:49:33Z</time>
      </trkpt>
      <trkpt lat="43.77448" lon="5.34646">
        <ele>336</ele>
        <time>2014-05-20T06:49:52Z</time>
      </trkpt>
      <trkpt lat="43.77448" lon="5.34645">
        <ele>336</ele>
        <time>2014-05-20T06:49:53Z</time>
      </trkpt>
      <trkpt lat="43.77449" lon="5.34639">
        <ele>336</ele>
        <time>2014-05-20T06:49:58Z</time>
      </trkpt>
      <trkpt lat="43.7745" lon="5.34632">
        <ele>336</ele>
        <time>2014-05-20T06:50:03Z</time>
      </trkpt>
      <trkpt lat="43.77453" lon="5.34627">
        <ele>337</ele>
        <time>2014-05-20T06:50:07Z</time>
      </trkpt>
      <trkpt lat="43.77455" lon="5.34623">
        <ele>337</ele>
        <time>2014-05-20T06:50:10Z</time>
      </trkpt>
      <trkpt lat="43.77456" lon="5.34619">
        <ele>337</ele>
        <time>2014-05-20T06:50:13Z</time>
      </trkpt>
      <trkpt lat="43.77459" lon="5.34617">
        <ele>337</ele>
        <time>2014-05-20T06:50:16Z</time>
      </trkpt>
      <trkpt lat="43.7746" lon="5.34615">
        <ele>338</ele>
        <time>2014-05-20T06:50:18Z</time>
      </trkpt>
      <trkpt lat="43.77464" lon="5.34609">
        <ele>338</ele>
        <time>2014-05-20T06:50:24Z</time>
      </trkpt>
      <trkpt lat="43.77464" lon="5.34606">
        <ele>338</ele>
        <time>2014-05-20T06:50:27Z</time>
      </trkpt>
      <trkpt lat="43.77464" lon="5.34603">
        <ele>338</ele>
        <time>2014-05-20T06:50:30Z</time>
      </trkpt>
      <trkpt lat="43.77466" lon="5.34598">
        <ele>338</ele>
        <time>2014-05-20T06:50:34Z</time>
      </trkpt>
      <trkpt lat="43.77469" lon="5.34595">
        <ele>339</ele>
        <time>2014-05-20T06:50:37Z</time>
      </trkpt>
      <trkpt lat="43.77473" lon="5.34588">
        <ele>339</ele>
        <time>2014-05-20T06:50:43Z</time>
      </trkpt>
      <trkpt lat="43.77473" lon="5.34586">
        <ele>339</ele>
        <time>2014-05-20T06:50:45Z</time>
      </trkpt>
      <trkpt lat="43.77477" lon="5.34576">
        <ele>342</ele>
        <time>2014-05-20T06:50:52Z</time>
      </trkpt>
      <trkpt lat="43.77477" lon="5.34574">
        <ele>342</ele>
        <time>2014-05-20T06:50:54Z</time>
      </trkpt>
      <trkpt lat="43.77479" lon="5.34568">
        <ele>342</ele>
        <time>2014-05-20T06:50:58Z</time>
      </trkpt>
      <trkpt lat="43.77481" lon="5.34564">
        <ele>342</ele>
        <time>2014-05-20T06:51:01Z</time>
      </trkpt>
      <trkpt lat="43.77483" lon="5.34558">
        <ele>342</ele>
        <time>2014-05-20T06:51:05Z</time>
      </trkpt>
      <trkpt lat="43.77484" lon="5.34556">
        <ele>342</ele>
        <time>2014-05-20T06:51:07Z</time>
      </trkpt>
      <trkpt lat="43.77485" lon="5.34553">
        <ele>342</ele>
        <time>2014-05-20T06:51:09Z</time>
      </trkpt>
      <trkpt lat="43.77486" lon="5.3455">
        <ele>343</ele>
        <time>2014-05-20T06:51:11Z</time>
      </trkpt>
      <trkpt lat="43.77485" lon="5.34545">
        <ele>343</ele>
        <time>2014-05-20T06:51:15Z</time>
      </trkpt>
      <trkpt lat="43.77484" lon="5.34537">
        <ele>343</ele>
        <time>2014-05-20T06:51:20Z</time>
      </trkpt>
      <trkpt lat="43.77483" lon="5.3453">
        <ele>343</ele>
        <time>2014-05-20T06:51:25Z</time>
      </trkpt>
      <trkpt lat="43.77483" lon="5.34527">
        <ele>343</ele>
        <time>2014-05-20T06:51:28Z</time>
      </trkpt>
      <trkpt lat="43.77486" lon="5.34524">
        <ele>343</ele>
        <time>2014-05-20T06:51:31Z</time>
      </trkpt>
      <trkpt lat="43.77487" lon="5.34521">
        <ele>344</ele>
        <time>2014-05-20T06:51:33Z</time>
      </trkpt>
      <trkpt lat="43.77486" lon="5.34514">
        <ele>344</ele>
        <time>2014-05-20T06:51:38Z</time>
      </trkpt>
      <trkpt lat="43.77488" lon="5.34505">
        <ele>344</ele>
        <time>2014-05-20T06:51:45Z</time>
      </trkpt>
      <trkpt lat="43.77487" lon="5.34501">
        <ele>344</ele>
        <time>2014-05-20T06:51:48Z</time>
      </trkpt>
      <trkpt lat="43.77487" lon="5.34493">
        <ele>347</ele>
        <time>2014-05-20T06:51:54Z</time>
      </trkpt>
      <trkpt lat="43.77489" lon="5.34486">
        <ele>347</ele>
        <time>2014-05-20T06:51:59Z</time>
      </trkpt>
      <trkpt lat="43.7749" lon="5.34486">
        <ele>347</ele>
        <time>2014-05-20T06:52:00Z</time>
      </trkpt>
      <trkpt lat="43.77492" lon="5.3448">
        <ele>348</ele>
        <time>2014-05-20T06:52:04Z</time>
      </trkpt>
      <trkpt lat="43.77494" lon="5.34476">
        <ele>348</ele>
        <time>2014-05-20T06:52:07Z</time>
      </trkpt>
      <trkpt lat="43.77494" lon="5.34473">
        <ele>348</ele>
        <time>2014-05-20T06:52:09Z</time>
      </trkpt>
      <trkpt lat="43.77495" lon="5.34466">
        <ele>348</ele>
        <time>2014-05-20T06:52:14Z</time>
      </trkpt>
      <trkpt lat="43.77496" lon="5.34462">
        <ele>348</ele>
        <time>2014-05-20T06:52:17Z</time>
      </trkpt>
      <trkpt lat="43.77497" lon="5.34458">
        <ele>349</ele>
        <time>2014-05-20T06:52:20Z</time>
      </trkpt>
      <trkpt lat="43.775" lon="5.34455">
        <ele>349</ele>
        <time>2014-05-20T06:52:23Z</time>
      </trkpt>
      <trkpt lat="43.77501" lon="5.3445">
        <ele>356</ele>
        <time>2014-05-20T06:52:26Z</time>
      </trkpt>
      <trkpt lat="43.77502" lon="5.34444">
        <ele>355</ele>
        <time>2014-05-20T06:52:30Z</time>
      </trkpt>
      <trkpt lat="43.77502" lon="5.34438">
        <ele>355</ele>
        <time>2014-05-20T06:52:34Z</time>
      </trkpt>
      <trkpt lat="43.77505" lon="5.34432">
        <ele>354</ele>
        <time>2014-05-20T06:52:39Z</time>
      </trkpt>
      <trkpt lat="43.77504" lon="5.34429">
        <ele>353</ele>
        <time>2014-05-20T06:52:41Z</time>
      </trkpt>
      <trkpt lat="43.77504" lon="5.34417">
        <ele>351</ele>
        <time>2014-05-20T06:52:49Z</time>
      </trkpt>
      <trkpt lat="43.77506" lon="5.34409">
        <ele>354</ele>
        <time>2014-05-20T06:52:54Z</time>
      </trkpt>
      <trkpt lat="43.77507" lon="5.34406">
        <ele>355</ele>
        <time>2014-05-20T06:52:56Z</time>
      </trkpt>
      <trkpt lat="43.77508" lon="5.34399">
        <ele>357</ele>
        <time>2014-05-20T06:53:01Z</time>
      </trkpt>
      <trkpt lat="43.77508" lon="5.34395">
        <ele>358</ele>
        <time>2014-05-20T06:53:04Z</time>
      </trkpt>
      <trkpt lat="43.77508" lon="5.34394">
        <ele>359</ele>
        <time>2014-05-20T06:53:05Z</time>
      </trkpt>
      <trkpt lat="43.77507" lon="5.34388">
        <ele>360</ele>
        <time>2014-05-20T06:53:09Z</time>
      </trkpt>
      <trkpt lat="43.77508" lon="5.34385">
        <ele>360</ele>
        <time>2014-05-20T06:53:11Z</time>
      </trkpt>
      <trkpt lat="43.77507" lon="5.34374">
        <ele>361</ele>
        <time>2014-05-20T06:53:20Z</time>
      </trkpt>
      <trkpt lat="43.77506" lon="5.34369">
        <ele>361</ele>
        <time>2014-05-20T06:53:24Z</time>
      </trkpt>
      <trkpt lat="43.77505" lon="5.34359">
        <ele>360</ele>
        <time>2014-05-20T06:53:31Z</time>
      </trkpt>
      <trkpt lat="43.77502" lon="5.34349">
        <ele>359</ele>
        <time>2014-05-20T06:53:38Z</time>
      </trkpt>
      <trkpt lat="43.77501" lon="5.3434">
        <ele>356</ele>
        <time>2014-05-20T06:53:44Z</time>
      </trkpt>
      <trkpt lat="43.77499" lon="5.34333">
        <ele>354</ele>
        <time>2014-05-20T06:53:50Z</time>
      </trkpt>
      <trkpt lat="43.77499" lon="5.34329">
        <ele>356</ele>
        <time>2014-05-20T06:53:53Z</time>
      </trkpt>
      <trkpt lat="43.77499" lon="5.34328">
        <ele>356</ele>
        <time>2014-05-20T06:53:54Z</time>
      </trkpt>
      <trkpt lat="43.77498" lon="5.34321">
        <ele>358</ele>
        <time>2014-05-20T06:53:59Z</time>
      </trkpt>
      <trkpt lat="43.77496" lon="5.34311">
        <ele>360</ele>
        <time>2014-05-20T06:54:05Z</time>
      </trkpt>
      <trkpt lat="43.77494" lon="5.34305">
        <ele>362</ele>
        <time>2014-05-20T06:54:10Z</time>
      </trkpt>
      <trkpt lat="43.77491" lon="5.3429">
        <ele>363</ele>
        <time>2014-05-20T06:54:21Z</time>
      </trkpt>
      <trkpt lat="43.7749" lon="5.34288">
        <ele>364</ele>
        <time>2014-05-20T06:54:23Z</time>
      </trkpt>
      <trkpt lat="43.7749" lon="5.34282">
        <ele>364</ele>
        <time>2014-05-20T06:54:27Z</time>
      </trkpt>
      <trkpt lat="43.77489" lon="5.34273">
        <ele>365</ele>
        <time>2014-05-20T06:54:33Z</time>
      </trkpt>
      <trkpt lat="43.77489" lon="5.3427">
        <ele>365</ele>
        <time>2014-05-20T06:54:35Z</time>
      </trkpt>
      <trkpt lat="43.7749" lon="5.34268">
        <ele>365</ele>
        <time>2014-05-20T06:54:36Z</time>
      </trkpt>
      <trkpt lat="43.77492" lon="5.34266">
        <ele>365</ele>
        <time>2014-05-20T06:54:39Z</time>
      </trkpt>
      <trkpt lat="43.77492" lon="5.34264">
        <ele>365</ele>
        <time>2014-05-20T06:54:40Z</time>
      </trkpt>
      <trkpt lat="43.77493" lon="5.34263">
        <ele>365</ele>
        <time>2014-05-20T06:54:41Z</time>
      </trkpt>
      <trkpt lat="43.77495" lon="5.34259">
        <ele>365</ele>
        <time>2014-05-20T06:54:44Z</time>
      </trkpt>
      <trkpt lat="43.77496" lon="5.34253">
        <ele>365</ele>
        <time>2014-05-20T06:54:49Z</time>
      </trkpt>
      <trkpt lat="43.77499" lon="5.34248">
        <ele>366</ele>
        <time>2014-05-20T06:54:54Z</time>
      </trkpt>
      <trkpt lat="43.77502" lon="5.34245">
        <ele>368</ele>
        <time>2014-05-20T06:54:57Z</time>
      </trkpt>
      <trkpt lat="43.77508" lon="5.34243">
        <ele>371</ele>
        <time>2014-05-20T06:55:03Z</time>
      </trkpt>
      <trkpt lat="43.7751" lon="5.34241">
        <ele>371</ele>
        <time>2014-05-20T06:55:06Z</time>
      </trkpt>
      <trkpt lat="43.77512" lon="5.3424">
        <ele>372</ele>
        <time>2014-05-20T06:55:09Z</time>
      </trkpt>
      <trkpt lat="43.77514" lon="5.34236">
        <ele>374</ele>
        <time>2014-05-20T06:55:14Z</time>
      </trkpt>
      <trkpt lat="43.77514" lon="5.34225">
        <ele>375</ele>
        <time>2014-05-20T06:55:23Z</time>
      </trkpt>
      <trkpt lat="43.77514" lon="5.34223">
        <ele>376</ele>
        <time>2014-05-20T06:55:25Z</time>
      </trkpt>
      <trkpt lat="43.77516" lon="5.34216">
        <ele>377</ele>
        <time>2014-05-20T06:55:31Z</time>
      </trkpt>
      <trkpt lat="43.77516" lon="5.34212">
        <ele>377</ele>
        <time>2014-05-20T06:55:35Z</time>
      </trkpt>
      <trkpt lat="43.77515" lon="5.34211">
        <ele>377</ele>
        <time>2014-05-20T06:55:36Z</time>
      </trkpt>
      <trkpt lat="43.77516" lon="5.34206">
        <ele>378</ele>
        <time>2014-05-20T06:55:40Z</time>
      </trkpt>
      <trkpt lat="43.77519" lon="5.34202">
        <ele>378</ele>
        <time>2014-05-20T06:55:46Z</time>
      </trkpt>
      <trkpt lat="43.77518" lon="5.342">
        <ele>378</ele>
        <time>2014-05-20T06:55:51Z</time>
      </trkpt>
      <trkpt lat="43.77518" lon="5.34198">
        <ele>378</ele>
        <time>2014-05-20T06:55:57Z</time>
      </trkpt>
      <trkpt lat="43.77514" lon="5.34192">
        <ele>378</ele>
        <time>2014-05-20T06:56:10Z</time>
      </trkpt>
      <trkpt lat="43.77515" lon="5.34191">
        <ele>378</ele>
        <time>2014-05-20T06:56:12Z</time>
      </trkpt>
      <trkpt lat="43.77515" lon="5.3419">
        <ele>379</ele>
        <time>2014-05-20T06:56:14Z</time>
      </trkpt>
      <trkpt lat="43.77515" lon="5.34191">
        <ele>379</ele>
        <time>2014-05-20T06:56:15Z</time>
      </trkpt>
      <trkpt lat="43.77514" lon="5.3419">
        <ele>378</ele>
        <time>2014-05-20T06:56:22Z</time>
      </trkpt>
      <trkpt lat="43.77514" lon="5.34189">
        <ele>378</ele>
        <time>2014-05-20T06:56:23Z</time>
      </trkpt>
      <trkpt lat="43.77513" lon="5.3419">
        <ele>378</ele>
        <time>2014-05-20T06:56:28Z</time>
      </trkpt>
      <trkpt lat="43.77513" lon="5.3419">
        <ele>378</ele>
        <time>2014-05-20T06:56:30Z</time>
      </trkpt>
      <trkpt lat="43.77513" lon="5.34189">
        <ele>378</ele>
        <time>2014-05-20T06:56:38Z</time>
      </trkpt>
      <trkpt lat="43.77513" lon="5.34189">
        <ele>378</ele>
        <time>2014-05-20T06:56:40Z</time>
      </trkpt>
      <trkpt lat="43.77512" lon="5.34188">
        <ele>378</ele>
        <time>2014-05-20T06:56:50Z</time>
      </trkpt>
      <trkpt lat="43.77512" lon="5.34187">
        <ele>378</ele>
        <time>2014-05-20T06:56:54Z</time>
      </trkpt>
      <trkpt lat="43.77514" lon="5.34186">
        <ele>378</ele>
        <time>2014-05-20T06:56:56Z</time>
      </trkpt>
      <trkpt lat="43.77515" lon="5.34185">
        <ele>379</ele>
        <time>2014-05-20T06:56:58Z</time>
      </trkpt>
      <trkpt lat="43.77518" lon="5.34183">
        <ele>379</ele>
        <time>2014-05-20T06:57:02Z</time>
      </trkpt>
      <trkpt lat="43.77519" lon="5.34181">
        <ele>379</ele>
        <time>2014-05-20T06:57:04Z</time>
      </trkpt>
      <trkpt lat="43.77523" lon="5.34178">
        <ele>379</ele>
        <time>2014-05-20T06:57:08Z</time>
      </trkpt>
      <trkpt lat="43.77527" lon="5.34174">
        <ele>380</ele>
        <time>2014-05-20T06:57:13Z</time>
      </trkpt>
      <trkpt lat="43.77529" lon="5.34169">
        <ele>380</ele>
        <time>2014-05-20T06:57:17Z</time>
      </trkpt>
      <trkpt lat="43.77531" lon="5.34161">
        <ele>384</ele>
        <time>2014-05-20T06:57:23Z</time>
      </trkpt>
      <trkpt lat="43.77533" lon="5.3416">
        <ele>384</ele>
        <time>2014-05-20T06:57:25Z</time>
      </trkpt>
      <trkpt lat="43.77534" lon="5.34156">
        <ele>384</ele>
        <time>2014-05-20T06:57:28Z</time>
      </trkpt>
      <trkpt lat="43.77535" lon="5.34155">
        <ele>385</ele>
        <time>2014-05-20T06:57:30Z</time>
      </trkpt>
      <trkpt lat="43.77535" lon="5.34154">
        <ele>385</ele>
        <time>2014-05-20T06:57:31Z</time>
      </trkpt>
      <trkpt lat="43.77537" lon="5.34152">
        <ele>385</ele>
        <time>2014-05-20T06:57:33Z</time>
      </trkpt>
      <trkpt lat="43.77538" lon="5.34148">
        <ele>385</ele>
        <time>2014-05-20T06:57:37Z</time>
      </trkpt>
      <trkpt lat="43.7754" lon="5.34145">
        <ele>385</ele>
        <time>2014-05-20T06:57:40Z</time>
      </trkpt>
      <trkpt lat="43.77541" lon="5.34143">
        <ele>385</ele>
        <time>2014-05-20T06:57:42Z</time>
      </trkpt>
      <trkpt lat="43.77543" lon="5.34139">
        <ele>386</ele>
        <time>2014-05-20T06:57:45Z</time>
      </trkpt>
      <trkpt lat="43.77546" lon="5.34133">
        <ele>386</ele>
        <time>2014-05-20T06:57:50Z</time>
      </trkpt>
      <trkpt lat="43.77546" lon="5.3413">
        <ele>386</ele>
        <time>2014-05-20T06:57:52Z</time>
      </trkpt>
      <trkpt lat="43.7755" lon="5.34125">
        <ele>386</ele>
        <time>2014-05-20T06:57:56Z</time>
      </trkpt>
      <trkpt lat="43.77551" lon="5.3412">
        <ele>386</ele>
        <time>2014-05-20T06:57:59Z</time>
      </trkpt>
      <trkpt lat="43.77554" lon="5.34114">
        <ele>386</ele>
        <time>2014-05-20T06:58:07Z</time>
      </trkpt>
      <trkpt lat="43.77552" lon="5.34112">
        <ele>386</ele>
        <time>2014-05-20T06:58:12Z</time>
      </trkpt>
      <trkpt lat="43.77552" lon="5.34111">
        <ele>386</ele>
        <time>2014-05-20T06:58:15Z</time>
      </trkpt>
      <trkpt lat="43.77553" lon="5.34109">
        <ele>386</ele>
        <time>2014-05-20T06:58:20Z</time>
      </trkpt>
      <trkpt lat="43.77555" lon="5.34099">
        <ele>387</ele>
        <time>2014-05-20T06:58:32Z</time>
      </trkpt>
      <trkpt lat="43.77557" lon="5.34094">
        <ele>387</ele>
        <time>2014-05-20T06:58:37Z</time>
      </trkpt>
      <trkpt lat="43.77559" lon="5.34091">
        <ele>387</ele>
        <time>2014-05-20T06:58:41Z</time>
      </trkpt>
      <trkpt lat="43.77562" lon="5.34089">
        <ele>386</ele>
        <time>2014-05-20T06:58:45Z</time>
      </trkpt>
      <trkpt lat="43.77562" lon="5.34088">
        <ele>386</ele>
        <time>2014-05-20T06:58:48Z</time>
      </trkpt>
      <trkpt lat="43.77561" lon="5.34089">
        <ele>386</ele>
        <time>2014-05-20T06:58:52Z</time>
      </trkpt>
      <trkpt lat="43.7756" lon="5.34088">
        <ele>387</ele>
        <time>2014-05-20T06:58:59Z</time>
      </trkpt>
      <trkpt lat="43.77561" lon="5.34083">
        <ele>392</ele>
        <time>2014-05-20T06:59:05Z</time>
      </trkpt>
      <trkpt lat="43.77564" lon="5.34082">
        <ele>391</ele>
        <time>2014-05-20T06:59:08Z</time>
      </trkpt>
      <trkpt lat="43.77566" lon="5.3408">
        <ele>391</ele>
        <time>2014-05-20T06:59:10Z</time>
      </trkpt>
      <trkpt lat="43.77568" lon="5.34078">
        <ele>391</ele>
        <time>2014-05-20T06:59:14Z</time>
      </trkpt>
      <trkpt lat="43.77569" lon="5.34078">
        <ele>391</ele>
        <time>2014-05-20T06:59:16Z</time>
      </trkpt>
      <trkpt lat="43.77571" lon="5.34076">
        <ele>391</ele>
        <time>2014-05-20T06:59:18Z</time>
      </trkpt>
      <trkpt lat="43.77573" lon="5.34075">
        <ele>390</ele>
        <time>2014-05-20T06:59:21Z</time>
      </trkpt>
      <trkpt lat="43.77576" lon="5.3407">
        <ele>391</ele>
        <time>2014-05-20T06:59:30Z</time>
      </trkpt>
      <trkpt lat="43.77579" lon="5.34068">
        <ele>391</ele>
        <time>2014-05-20T06:59:34Z</time>
      </trkpt>
      <trkpt lat="43.7758" lon="5.34067">
        <ele>391</ele>
        <time>2014-05-20T06:59:35Z</time>
      </trkpt>
      <trkpt lat="43.77585" lon="5.34067">
        <ele>392</ele>
        <time>2014-05-20T06:59:39Z</time>
      </trkpt>
      <trkpt lat="43.7759" lon="5.3407">
        <ele>392</ele>
        <time>2014-05-20T06:59:45Z</time>
      </trkpt>
      <trkpt lat="43.77591" lon="5.34069">
        <ele>392</ele>
        <time>2014-05-20T06:59:46Z</time>
      </trkpt>
      <trkpt lat="43.77592" lon="5.34068">
        <ele>392</ele>
        <time>2014-05-20T06:59:47Z</time>
      </trkpt>
      <trkpt lat="43.77594" lon="5.34067">
        <ele>393</ele>
        <time>2014-05-20T06:59:51Z</time>
      </trkpt>
      <trkpt lat="43.77595" lon="5.34065">
        <ele>393</ele>
        <time>2014-05-20T06:59:54Z</time>
      </trkpt>
      <trkpt lat="43.77598" lon="5.34064">
        <ele>394</ele>
        <time>2014-05-20T06:59:57Z</time>
      </trkpt>
      <trkpt lat="43.77603" lon="5.3406">
        <ele>395</ele>
        <time>2014-05-20T07:00:04Z</time>
      </trkpt>
      <trkpt lat="43.77607" lon="5.34058">
        <ele>395</ele>
        <time>2014-05-20T07:00:08Z</time>
      </trkpt>
      <trkpt lat="43.77613" lon="5.34052">
        <ele>396</ele>
        <time>2014-05-20T07:00:15Z</time>
      </trkpt>
      <trkpt lat="43.7762" lon="5.3405">
        <ele>397</ele>
        <time>2014-05-20T07:00:21Z</time>
      </trkpt>
      <trkpt lat="43.77622" lon="5.34049">
        <ele>397</ele>
        <time>2014-05-20T07:00:23Z</time>
      </trkpt>
      <trkpt lat="43.77623" lon="5.34047">
        <ele>397</ele>
        <time>2014-05-20T07:00:24Z</time>
      </trkpt>
      <trkpt lat="43.77624" lon="5.34046">
        <ele>397</ele>
        <time>2014-05-20T07:00:25Z</time>
      </trkpt>
      <trkpt lat="43.77629" lon="5.34044">
        <ele>398</ele>
        <time>2014-05-20T07:00:28Z</time>
      </trkpt>
      <trkpt lat="43.77632" lon="5.34041">
        <ele>398</ele>
        <time>2014-05-20T07:00:31Z</time>
      </trkpt>
      <trkpt lat="43.77634" lon="5.3404">
        <ele>398</ele>
        <time>2014-05-20T07:00:33Z</time>
      </trkpt>
      <trkpt lat="43.77635" lon="5.34039">
        <ele>398</ele>
        <time>2014-05-20T07:00:35Z</time>
      </trkpt>
      <trkpt lat="43.77643" lon="5.34036">
        <ele>399</ele>
        <time>2014-05-20T07:00:42Z</time>
      </trkpt>
      <trkpt lat="43.77646" lon="5.34032">
        <ele>399</ele>
        <time>2014-05-20T07:00:49Z</time>
      </trkpt>
      <trkpt lat="43.77648" lon="5.34032">
        <ele>399</ele>
        <time>2014-05-20T07:00:51Z</time>
      </trkpt>
      <trkpt lat="43.77649" lon="5.34032">
        <ele>399</ele>
        <time>2014-05-20T07:00:52Z</time>
      </trkpt>
      <trkpt lat="43.7765" lon="5.34032">
        <ele>399</ele>
        <time>2014-05-20T07:00:53Z</time>
      </trkpt>
      <trkpt lat="43.77652" lon="5.34031">
        <ele>399</ele>
        <time>2014-05-20T07:00:55Z</time>
      </trkpt>
      <trkpt lat="43.77653" lon="5.34029">
        <ele>399</ele>
        <time>2014-05-20T07:00:57Z</time>
      </trkpt>
      <trkpt lat="43.77658" lon="5.34028">
        <ele>399</ele>
        <time>2014-05-20T07:01:03Z</time>
      </trkpt>
      <trkpt lat="43.7766" lon="5.34027">
        <ele>399</ele>
        <time>2014-05-20T07:01:07Z</time>
      </trkpt>
      <trkpt lat="43.77668" lon="5.34026">
        <ele>403</ele>
        <time>2014-05-20T07:01:15Z</time>
      </trkpt>
      <trkpt lat="43.77678" lon="5.34027">
        <ele>403</ele>
        <time>2014-05-20T07:01:26Z</time>
      </trkpt>
      <trkpt lat="43.77684" lon="5.34026">
        <ele>403</ele>
        <time>2014-05-20T07:01:33Z</time>
      </trkpt>
      <trkpt lat="43.77687" lon="5.34025">
        <ele>403</ele>
        <time>2014-05-20T07:01:35Z</time>
      </trkpt>
      <trkpt lat="43.7769" lon="5.34026">
        <ele>403</ele>
        <time>2014-05-20T07:01:37Z</time>
      </trkpt>
      <trkpt lat="43.77693" lon="5.34024">
        <ele>403</ele>
        <time>2014-05-20T07:01:40Z</time>
      </trkpt>
      <trkpt lat="43.77697" lon="5.34024">
        <ele>403</ele>
        <time>2014-05-20T07:01:43Z</time>
      </trkpt>
      <trkpt lat="43.77698" lon="5.34022">
        <ele>403</ele>
        <time>2014-05-20T07:01:45Z</time>
      </trkpt>
      <trkpt lat="43.77703" lon="5.34022">
        <ele>404</ele>
        <time>2014-05-20T07:01:50Z</time>
      </trkpt>
      <trkpt lat="43.77708" lon="5.34021">
        <ele>404</ele>
        <time>2014-05-20T07:01:55Z</time>
      </trkpt>
      <trkpt lat="43.77709" lon="5.34021">
        <ele>404</ele>
        <time>2014-05-20T07:02:00Z</time>
      </trkpt>
      <trkpt lat="43.7771" lon="5.34021">
        <ele>404</ele>
        <time>2014-05-20T07:02:02Z</time>
      </trkpt>
      <trkpt lat="43.7771" lon="5.3402">
        <ele>404</ele>
        <time>2014-05-20T07:02:04Z</time>
      </trkpt>
      <trkpt lat="43.77712" lon="5.3402">
        <ele>404</ele>
        <time>2014-05-20T07:02:11Z</time>
      </trkpt>
      <trkpt lat="43.77712" lon="5.34019">
        <ele>404</ele>
        <time>2014-05-20T07:02:15Z</time>
      </trkpt>
      <trkpt lat="43.77714" lon="5.3402">
        <ele>404</ele>
        <time>2014-05-20T07:02:20Z</time>
      </trkpt>
      <trkpt lat="43.77715" lon="5.3402">
        <ele>404</ele>
        <time>2014-05-20T07:02:22Z</time>
      </trkpt>
      <trkpt lat="43.77716" lon="5.34019">
        <ele>404</ele>
        <time>2014-05-20T07:02:29Z</time>
      </trkpt>
      <trkpt lat="43.77717" lon="5.34017">
        <ele>404</ele>
        <time>2014-05-20T07:02:36Z</time>
      </trkpt>
      <trkpt lat="43.77718" lon="5.34017">
        <ele>404</ele>
        <time>2014-05-20T07:02:39Z</time>
      </trkpt>
      <trkpt lat="43.7772" lon="5.34017">
        <ele>404</ele>
        <time>2014-05-20T07:02:41Z</time>
      </trkpt>
      <trkpt lat="43.77722" lon="5.34017">
        <ele>404</ele>
        <time>2014-05-20T07:02:43Z</time>
      </trkpt>
      <trkpt lat="43.7773" lon="5.34015">
        <ele>405</ele>
        <time>2014-05-20T07:02:53Z</time>
      </trkpt>
      <trkpt lat="43.77733" lon="5.34014">
        <ele>405</ele>
        <time>2014-05-20T07:02:55Z</time>
      </trkpt>
      <trkpt lat="43.77735" lon="5.34015">
        <ele>405</ele>
        <time>2014-05-20T07:02:57Z</time>
      </trkpt>
      <trkpt lat="43.77739" lon="5.34013">
        <ele>405</ele>
        <time>2014-05-20T07:03:00Z</time>
      </trkpt>
      <trkpt lat="43.77741" lon="5.34012">
        <ele>405</ele>
        <time>2014-05-20T07:03:02Z</time>
      </trkpt>
      <trkpt lat="43.77741" lon="5.3401">
        <ele>405</ele>
        <time>2014-05-20T07:03:04Z</time>
      </trkpt>
      <trkpt lat="43.77743" lon="5.34008">
        <ele>405</ele>
        <time>2014-05-20T07:03:06Z</time>
      </trkpt>
      <trkpt lat="43.77746" lon="5.34006">
        <ele>406</ele>
        <time>2014-05-20T07:03:09Z</time>
      </trkpt>
      <trkpt lat="43.77746" lon="5.34004">
        <ele>406</ele>
        <time>2014-05-20T07:03:11Z</time>
      </trkpt>
      <trkpt lat="43.7775" lon="5.34001">
        <ele>406</ele>
        <time>2014-05-20T07:03:15Z</time>
      </trkpt>
      <trkpt lat="43.77751" lon="5.33999">
        <ele>407</ele>
        <time>2014-05-20T07:03:17Z</time>
      </trkpt>
      <trkpt lat="43.77753" lon="5.33996">
        <ele>408</ele>
        <time>2014-05-20T07:03:20Z</time>
      </trkpt>
      <trkpt lat="43.7776" lon="5.33991">
        <ele>410</ele>
        <time>2014-05-20T07:03:27Z</time>
      </trkpt>
      <trkpt lat="43.77762" lon="5.33987">
        <ele>411</ele>
        <time>2014-05-20T07:03:30Z</time>
      </trkpt>
      <trkpt lat="43.77763" lon="5.33986">
        <ele>412</ele>
        <time>2014-05-20T07:03:32Z</time>
      </trkpt>
      <trkpt lat="43.77768" lon="5.33982">
        <ele>413</ele>
        <time>2014-05-20T07:03:38Z</time>
      </trkpt>
      <trkpt lat="43.7777" lon="5.33981">
        <ele>413</ele>
        <time>2014-05-20T07:03:40Z</time>
      </trkpt>
      <trkpt lat="43.77773" lon="5.33978">
        <ele>414</ele>
        <time>2014-05-20T07:03:44Z</time>
      </trkpt>
      <trkpt lat="43.77775" lon="5.33977">
        <ele>414</ele>
        <time>2014-05-20T07:03:46Z</time>
      </trkpt>
      <trkpt lat="43.77776" lon="5.33975">
        <ele>414</ele>
        <time>2014-05-20T07:03:48Z</time>
      </trkpt>
      <trkpt lat="43.77777" lon="5.33975">
        <ele>414</ele>
        <time>2014-05-20T07:03:49Z</time>
      </trkpt>
      <trkpt lat="43.77778" lon="5.33974">
        <ele>414</ele>
        <time>2014-05-20T07:03:51Z</time>
      </trkpt>
      <trkpt lat="43.77781" lon="5.33973">
        <ele>415</ele>
        <time>2014-05-20T07:03:53Z</time>
      </trkpt>
      <trkpt lat="43.77783" lon="5.33971">
        <ele>415</ele>
        <time>2014-05-20T07:03:56Z</time>
      </trkpt>
      <trkpt lat="43.77784" lon="5.3397">
        <ele>415</ele>
        <time>2014-05-20T07:03:58Z</time>
      </trkpt>
      <trkpt lat="43.77791" lon="5.33963">
        <ele>416</ele>
        <time>2014-05-20T07:04:07Z</time>
      </trkpt>
      <trkpt lat="43.77793" lon="5.33958">
        <ele>416</ele>
        <time>2014-05-20T07:04:12Z</time>
      </trkpt>
      <trkpt lat="43.77796" lon="5.33955">
        <ele>416</ele>
        <time>2014-05-20T07:04:15Z</time>
      </trkpt>
      <trkpt lat="43.77799" lon="5.33948">
        <ele>417</ele>
        <time>2014-05-20T07:04:20Z</time>
      </trkpt>
      <trkpt lat="43.77801" lon="5.33946">
        <ele>417</ele>
        <time>2014-05-20T07:04:22Z</time>
      </trkpt>
      <trkpt lat="43.77803" lon="5.33941">
        <ele>417</ele>
        <time>2014-05-20T07:04:25Z</time>
      </trkpt>
      <trkpt lat="43.77804" lon="5.33939">
        <ele>417</ele>
        <time>2014-05-20T07:04:27Z</time>
      </trkpt>
      <trkpt lat="43.77804" lon="5.33936">
        <ele>417</ele>
        <time>2014-05-20T07:04:29Z</time>
      </trkpt>
      <trkpt lat="43.77805" lon="5.33931">
        <ele>418</ele>
        <time>2014-05-20T07:04:33Z</time>
      </trkpt>
      <trkpt lat="43.77806" lon="5.33926">
        <ele>418</ele>
        <time>2014-05-20T07:04:37Z</time>
      </trkpt>
      <trkpt lat="43.77808" lon="5.33921">
        <ele>418</ele>
        <time>2014-05-20T07:04:42Z</time>
      </trkpt>
      <trkpt lat="43.77809" lon="5.3392">
        <ele>418</ele>
        <time>2014-05-20T07:04:44Z</time>
      </trkpt>
      <trkpt lat="43.77811" lon="5.33916">
        <ele>425</ele>
        <time>2014-05-20T07:04:47Z</time>
      </trkpt>
      <trkpt lat="43.77813" lon="5.33912">
        <ele>425</ele>
        <time>2014-05-20T07:04:51Z</time>
      </trkpt>
      <trkpt lat="43.77814" lon="5.3391">
        <ele>425</ele>
        <time>2014-05-20T07:04:53Z</time>
      </trkpt>
      <trkpt lat="43.77819" lon="5.33907">
        <ele>425</ele>
        <time>2014-05-20T07:04:57Z</time>
      </trkpt>
      <trkpt lat="43.77821" lon="5.33903">
        <ele>425</ele>
        <time>2014-05-20T07:05:00Z</time>
      </trkpt>
      <trkpt lat="43.77822" lon="5.33903">
        <ele>425</ele>
        <time>2014-05-20T07:05:01Z</time>
      </trkpt>
      <trkpt lat="43.77823" lon="5.33899">
        <ele>425</ele>
        <time>2014-05-20T07:05:04Z</time>
      </trkpt>
      <trkpt lat="43.7783" lon="5.33894">
        <ele>426</ele>
        <time>2014-05-20T07:05:12Z</time>
      </trkpt>
      <trkpt lat="43.77829" lon="5.33895">
        <ele>426</ele>
        <time>2014-05-20T07:05:14Z</time>
      </trkpt>
      <trkpt lat="43.7783" lon="5.33896">
        <ele>426</ele>
        <time>2014-05-20T07:05:17Z</time>
      </trkpt>
      <trkpt lat="43.77835" lon="5.33895">
        <ele>421</ele>
        <time>2014-05-20T07:05:22Z</time>
      </trkpt>
      <trkpt lat="43.77839" lon="5.33892">
        <ele>421</ele>
        <time>2014-05-20T07:05:26Z</time>
      </trkpt>
      <trkpt lat="43.77845" lon="5.33883">
        <ele>422</ele>
        <time>2014-05-20T07:05:34Z</time>
      </trkpt>
      <trkpt lat="43.77846" lon="5.33878">
        <ele>422</ele>
        <time>2014-05-20T07:05:39Z</time>
      </trkpt>
      <trkpt lat="43.77843" lon="5.33875">
        <ele>423</ele>
        <time>2014-05-20T07:05:43Z</time>
      </trkpt>
      <trkpt lat="43.77843" lon="5.33871">
        <ele>423</ele>
        <time>2014-05-20T07:05:46Z</time>
      </trkpt>
      <trkpt lat="43.77844" lon="5.33866">
        <ele>424</ele>
        <time>2014-05-20T07:05:50Z</time>
      </trkpt>
      <trkpt lat="43.77843" lon="5.33863">
        <ele>424</ele>
        <time>2014-05-20T07:05:52Z</time>
      </trkpt>
      <trkpt lat="43.77842" lon="5.33862">
        <ele>424</ele>
        <time>2014-05-20T07:05:53Z</time>
      </trkpt>
      <trkpt lat="43.7784" lon="5.33854">
        <ele>426</ele>
        <time>2014-05-20T07:06:00Z</time>
      </trkpt>
      <trkpt lat="43.77841" lon="5.33848">
        <ele>427</ele>
        <time>2014-05-20T07:06:04Z</time>
      </trkpt>
      <trkpt lat="43.77841" lon="5.33844">
        <ele>428</ele>
        <time>2014-05-20T07:06:07Z</time>
      </trkpt>
      <trkpt lat="43.77842" lon="5.33842">
        <ele>428</ele>
        <time>2014-05-20T07:06:08Z</time>
      </trkpt>
      <trkpt lat="43.77848" lon="5.33837">
        <ele>428</ele>
        <time>2014-05-20T07:06:17Z</time>
      </trkpt>
      <trkpt lat="43.77853" lon="5.33835">
        <ele>427</ele>
        <time>2014-05-20T07:06:21Z</time>
      </trkpt>
      <trkpt lat="43.77854" lon="5.33834">
        <ele>427</ele>
        <time>2014-05-20T07:06:22Z</time>
      </trkpt>
      <trkpt lat="43.77855" lon="5.33832">
        <ele>436</ele>
        <time>2014-05-20T07:06:24Z</time>
      </trkpt>
      <trkpt lat="43.77856" lon="5.3383">
        <ele>436</ele>
        <time>2014-05-20T07:06:27Z</time>
      </trkpt>
      <trkpt lat="43.77856" lon="5.33828">
        <ele>436</ele>
        <time>2014-05-20T07:06:29Z</time>
      </trkpt>
      <trkpt lat="43.77857" lon="5.33827">
        <ele>436</ele>
        <time>2014-05-20T07:06:31Z</time>
      </trkpt>
      <trkpt lat="43.77857" lon="5.33826">
        <ele>436</ele>
        <time>2014-05-20T07:06:33Z</time>
      </trkpt>
      <trkpt lat="43.77858" lon="5.33824">
        <ele>436</ele>
        <time>2014-05-20T07:06:36Z</time>
      </trkpt>
      <trkpt lat="43.77862" lon="5.33821">
        <ele>437</ele>
        <time>2014-05-20T07:06:40Z</time>
      </trkpt>
      <trkpt lat="43.77867" lon="5.33819">
        <ele>437</ele>
        <time>2014-05-20T07:06:44Z</time>
      </trkpt>
      <trkpt lat="43.77868" lon="5.33818">
        <ele>437</ele>
        <time>2014-05-20T07:06:45Z</time>
      </trkpt>
      <trkpt lat="43.7787" lon="5.33817">
        <ele>437</ele>
        <time>2014-05-20T07:06:47Z</time>
      </trkpt>
      <trkpt lat="43.77872" lon="5.33817">
        <ele>437</ele>
        <time>2014-05-20T07:06:48Z</time>
      </trkpt>
      <trkpt lat="43.77873" lon="5.33815">
        <ele>437</ele>
        <time>2014-05-20T07:06:50Z</time>
      </trkpt>
      <trkpt lat="43.77874" lon="5.33814">
        <ele>437</ele>
        <time>2014-05-20T07:06:51Z</time>
      </trkpt>
      <trkpt lat="43.77875" lon="5.33812">
        <ele>437</ele>
        <time>2014-05-20T07:06:53Z</time>
      </trkpt>
      <trkpt lat="43.77876" lon="5.33809">
        <ele>437</ele>
        <time>2014-05-20T07:06:56Z</time>
      </trkpt>
      <trkpt lat="43.77878" lon="5.33807">
        <ele>437</ele>
        <time>2014-05-20T07:06:59Z</time>
      </trkpt>
      <trkpt lat="43.77881" lon="5.33806">
        <ele>437</ele>
        <time>2014-05-20T07:07:01Z</time>
      </trkpt>
      <trkpt lat="43.77883" lon="5.33801">
        <ele>438</ele>
        <time>2014-05-20T07:07:05Z</time>
      </trkpt>
      <trkpt lat="43.77884" lon="5.338">
        <ele>438</ele>
        <time>2014-05-20T07:07:07Z</time>
      </trkpt>
      <trkpt lat="43.77884" lon="5.33799">
        <ele>438</ele>
        <time>2014-05-20T07:07:08Z</time>
      </trkpt>
      <trkpt lat="43.77887" lon="5.33793">
        <ele>439</ele>
        <time>2014-05-20T07:07:19Z</time>
      </trkpt>
      <trkpt lat="43.77887" lon="5.33791">
        <ele>439</ele>
        <time>2014-05-20T07:07:21Z</time>
      </trkpt>
      <trkpt lat="43.77887" lon="5.33787">
        <ele>439</ele>
        <time>2014-05-20T07:07:24Z</time>
      </trkpt>
      <trkpt lat="43.77889" lon="5.33785">
        <ele>440</ele>
        <time>2014-05-20T07:07:27Z</time>
      </trkpt>
      <trkpt lat="43.77892" lon="5.33782">
        <ele>440</ele>
        <time>2014-05-20T07:07:31Z</time>
      </trkpt>
      <trkpt lat="43.77894" lon="5.3378">
        <ele>440</ele>
        <time>2014-05-20T07:07:33Z</time>
      </trkpt>
      <trkpt lat="43.77895" lon="5.33778">
        <ele>440</ele>
        <time>2014-05-20T07:07:35Z</time>
      </trkpt>
      <trkpt lat="43.77898" lon="5.33775">
        <ele>441</ele>
        <time>2014-05-20T07:07:38Z</time>
      </trkpt>
      <trkpt lat="43.77899" lon="5.33769">
        <ele>442</ele>
        <time>2014-05-20T07:07:43Z</time>
      </trkpt>
      <trkpt lat="43.77901" lon="5.33767">
        <ele>442</ele>
        <time>2014-05-20T07:07:45Z</time>
      </trkpt>
      <trkpt lat="43.77905" lon="5.33764">
        <ele>442</ele>
        <time>2014-05-20T07:07:49Z</time>
      </trkpt>
      <trkpt lat="43.77906" lon="5.33763">
        <ele>443</ele>
        <time>2014-05-20T07:07:50Z</time>
      </trkpt>
      <trkpt lat="43.77907" lon="5.33759">
        <ele>443</ele>
        <time>2014-05-20T07:07:54Z</time>
      </trkpt>
      <trkpt lat="43.77911" lon="5.33754">
        <ele>444</ele>
        <time>2014-05-20T07:07:58Z</time>
      </trkpt>
      <trkpt lat="43.77913" lon="5.33751">
        <ele>445</ele>
        <time>2014-05-20T07:08:00Z</time>
      </trkpt>
      <trkpt lat="43.77913" lon="5.33749">
        <ele>448</ele>
        <time>2014-05-20T07:08:01Z</time>
      </trkpt>
      <trkpt lat="43.77915" lon="5.33744">
        <ele>449</ele>
        <time>2014-05-20T07:08:05Z</time>
      </trkpt>
      <trkpt lat="43.77917" lon="5.33741">
        <ele>449</ele>
        <time>2014-05-20T07:08:08Z</time>
      </trkpt>
      <trkpt lat="43.77919" lon="5.33737">
        <ele>450</ele>
        <time>2014-05-20T07:08:11Z</time>
      </trkpt>
      <trkpt lat="43.77921" lon="5.33735">
        <ele>450</ele>
        <time>2014-05-20T07:08:13Z</time>
      </trkpt>
      <trkpt lat="43.77923" lon="5.33732">
        <ele>451</ele>
        <time>2014-05-20T07:08:15Z</time>
      </trkpt>
      <trkpt lat="43.77925" lon="5.33726">
        <ele>452</ele>
        <time>2014-05-20T07:08:19Z</time>
      </trkpt>
      <trkpt lat="43.77926" lon="5.33723">
        <ele>453</ele>
        <time>2014-05-20T07:08:22Z</time>
      </trkpt>
      <trkpt lat="43.77927" lon="5.33721">
        <ele>453</ele>
        <time>2014-05-20T07:08:24Z</time>
      </trkpt>
      <trkpt lat="43.77928" lon="5.33719">
        <ele>453</ele>
        <time>2014-05-20T07:08:26Z</time>
      </trkpt>
      <trkpt lat="43.7793" lon="5.33717">
        <ele>454</ele>
        <time>2014-05-20T07:08:28Z</time>
      </trkpt>
      <trkpt lat="43.77936" lon="5.33713">
        <ele>454</ele>
        <time>2014-05-20T07:08:33Z</time>
      </trkpt>
      <trkpt lat="43.77937" lon="5.33712">
        <ele>454</ele>
        <time>2014-05-20T07:08:34Z</time>
      </trkpt>
      <trkpt lat="43.77937" lon="5.33708">
        <ele>455</ele>
        <time>2014-05-20T07:08:37Z</time>
      </trkpt>
      <trkpt lat="43.77936" lon="5.33706">
        <ele>455</ele>
        <time>2014-05-20T07:08:40Z</time>
      </trkpt>
      <trkpt lat="43.77935" lon="5.33705">
        <ele>455</ele>
        <time>2014-05-20T07:08:42Z</time>
      </trkpt>
      <trkpt lat="43.77934" lon="5.33703">
        <ele>455</ele>
        <time>2014-05-20T07:08:44Z</time>
      </trkpt>
      <trkpt lat="43.77935" lon="5.33698">
        <ele>456</ele>
        <time>2014-05-20T07:08:48Z</time>
      </trkpt>
      <trkpt lat="43.77935" lon="5.33694">
        <ele>457</ele>
        <time>2014-05-20T07:08:51Z</time>
      </trkpt>
      <trkpt lat="43.77937" lon="5.33691">
        <ele>457</ele>
        <time>2014-05-20T07:08:54Z</time>
      </trkpt>
      <trkpt lat="43.77937" lon="5.33689">
        <ele>457</ele>
        <time>2014-05-20T07:08:56Z</time>
      </trkpt>
      <trkpt lat="43.77938" lon="5.33687">
        <ele>457</ele>
        <time>2014-05-20T07:08:57Z</time>
      </trkpt>
      <trkpt lat="43.77939" lon="5.33685">
        <ele>457</ele>
        <time>2014-05-20T07:08:58Z</time>
      </trkpt>
      <trkpt lat="43.77939" lon="5.33682">
        <ele>458</ele>
        <time>2014-05-20T07:09:00Z</time>
      </trkpt>
      <trkpt lat="43.7794" lon="5.33681">
        <ele>458</ele>
        <time>2014-05-20T07:09:02Z</time>
      </trkpt>
      <trkpt lat="43.7794" lon="5.33679">
        <ele>458</ele>
        <time>2014-05-20T07:09:04Z</time>
      </trkpt>
      <trkpt lat="43.77941" lon="5.33678">
        <ele>458</ele>
        <time>2014-05-20T07:09:05Z</time>
      </trkpt>
      <trkpt lat="43.77942" lon="5.3367">
        <ele>458</ele>
        <time>2014-05-20T07:09:12Z</time>
      </trkpt>
      <trkpt lat="43.77943" lon="5.33669">
        <ele>458</ele>
        <time>2014-05-20T07:09:13Z</time>
      </trkpt>
      <trkpt lat="43.77944" lon="5.33665">
        <ele>468</ele>
        <time>2014-05-20T07:09:16Z</time>
      </trkpt>
      <trkpt lat="43.77944" lon="5.33661">
        <ele>468</ele>
        <time>2014-05-20T07:09:20Z</time>
      </trkpt>
      <trkpt lat="43.77946" lon="5.33657">
        <ele>469</ele>
        <time>2014-05-20T07:09:26Z</time>
      </trkpt>
      <trkpt lat="43.77948" lon="5.33653">
        <ele>469</ele>
        <time>2014-05-20T07:09:30Z</time>
      </trkpt>
      <trkpt lat="43.7795" lon="5.33652">
        <ele>469</ele>
        <time>2014-05-20T07:09:32Z</time>
      </trkpt>
      <trkpt lat="43.77953" lon="5.3365">
        <ele>470</ele>
        <time>2014-05-20T07:09:35Z</time>
      </trkpt>
      <trkpt lat="43.77953" lon="5.33646">
        <ele>470</ele>
        <time>2014-05-20T07:09:39Z</time>
      </trkpt>
      <trkpt lat="43.77956" lon="5.33643">
        <ele>470</ele>
        <time>2014-05-20T07:09:42Z</time>
      </trkpt>
      <trkpt lat="43.77957" lon="5.33639">
        <ele>471</ele>
        <time>2014-05-20T07:09:46Z</time>
      </trkpt>
      <trkpt lat="43.77957" lon="5.33638">
        <ele>471</ele>
        <time>2014-05-20T07:09:48Z</time>
      </trkpt>
      <trkpt lat="43.77959" lon="5.33633">
        <ele>471</ele>
        <time>2014-05-20T07:09:52Z</time>
      </trkpt>
      <trkpt lat="43.77961" lon="5.3363">
        <ele>472</ele>
        <time>2014-05-20T07:09:55Z</time>
      </trkpt>
      <trkpt lat="43.77964" lon="5.33629">
        <ele>472</ele>
        <time>2014-05-20T07:09:58Z</time>
      </trkpt>
      <trkpt lat="43.77964" lon="5.33627">
        <ele>472</ele>
        <time>2014-05-20T07:10:01Z</time>
      </trkpt>
      <trkpt lat="43.77965" lon="5.33626">
        <ele>472</ele>
        <time>2014-05-20T07:10:03Z</time>
      </trkpt>
      <trkpt lat="43.77965" lon="5.33625">
        <ele>472</ele>
        <time>2014-05-20T07:10:04Z</time>
      </trkpt>
      <trkpt lat="43.77966" lon="5.33621">
        <ele>472</ele>
        <time>2014-05-20T07:10:07Z</time>
      </trkpt>
      <trkpt lat="43.77966" lon="5.3362">
        <ele>472</ele>
        <time>2014-05-20T07:10:08Z</time>
      </trkpt>
      <trkpt lat="43.77967" lon="5.33615">
        <ele>473</ele>
        <time>2014-05-20T07:10:13Z</time>
      </trkpt>
      <trkpt lat="43.77967" lon="5.33614">
        <ele>473</ele>
        <time>2014-05-20T07:10:14Z</time>
      </trkpt>
      <trkpt lat="43.77968" lon="5.33614">
        <ele>473</ele>
        <time>2014-05-20T07:10:15Z</time>
      </trkpt>
      <trkpt lat="43.77968" lon="5.33611">
        <ele>473</ele>
        <time>2014-05-20T07:10:19Z</time>
      </trkpt>
      <trkpt lat="43.77969" lon="5.33608">
        <ele>474</ele>
        <time>2014-05-20T07:10:22Z</time>
      </trkpt>
      <trkpt lat="43.77971" lon="5.33602">
        <ele>474</ele>
        <time>2014-05-20T07:10:28Z</time>
      </trkpt>
      <trkpt lat="43.77974" lon="5.33598">
        <ele>474</ele>
        <time>2014-05-20T07:10:32Z</time>
      </trkpt>
      <trkpt lat="43.77975" lon="5.33595">
        <ele>475</ele>
        <time>2014-05-20T07:10:34Z</time>
      </trkpt>
      <trkpt lat="43.77976" lon="5.33593">
        <ele>475</ele>
        <time>2014-05-20T07:10:36Z</time>
      </trkpt>
      <trkpt lat="43.77978" lon="5.33593">
        <ele>475</ele>
        <time>2014-05-20T07:10:38Z</time>
      </trkpt>
      <trkpt lat="43.77979" lon="5.33591">
        <ele>475</ele>
        <time>2014-05-20T07:10:40Z</time>
      </trkpt>
      <trkpt lat="43.7798" lon="5.3359">
        <ele>475</ele>
        <time>2014-05-20T07:10:41Z</time>
      </trkpt>
      <trkpt lat="43.77984" lon="5.33584">
        <ele>476</ele>
        <time>2014-05-20T07:10:48Z</time>
      </trkpt>
      <trkpt lat="43.77986" lon="5.33583">
        <ele>482</ele>
        <time>2014-05-20T07:10:51Z</time>
      </trkpt>
      <trkpt lat="43.77987" lon="5.33583">
        <ele>482</ele>
        <time>2014-05-20T07:10:52Z</time>
      </trkpt>
      <trkpt lat="43.77991" lon="5.33576">
        <ele>482</ele>
        <time>2014-05-20T07:11:00Z</time>
      </trkpt>
      <trkpt lat="43.77991" lon="5.33573">
        <ele>483</ele>
        <time>2014-05-20T07:11:02Z</time>
      </trkpt>
      <trkpt lat="43.77995" lon="5.33571">
        <ele>483</ele>
        <time>2014-05-20T07:11:06Z</time>
      </trkpt>
      <trkpt lat="43.77996" lon="5.33569">
        <ele>483</ele>
        <time>2014-05-20T07:11:08Z</time>
      </trkpt>
      <trkpt lat="43.77996" lon="5.33567">
        <ele>483</ele>
        <time>2014-05-20T07:11:11Z</time>
      </trkpt>
      <trkpt lat="43.77998" lon="5.33566">
        <ele>484</ele>
        <time>2014-05-20T07:11:15Z</time>
      </trkpt>
      <trkpt lat="43.78" lon="5.33563">
        <ele>483</ele>
        <time>2014-05-20T07:11:18Z</time>
      </trkpt>
      <trkpt lat="43.78001" lon="5.33562">
        <ele>483</ele>
        <time>2014-05-20T07:11:19Z</time>
      </trkpt>
      <trkpt lat="43.78002" lon="5.33562">
        <ele>483</ele>
        <time>2014-05-20T07:11:20Z</time>
      </trkpt>
      <trkpt lat="43.78005" lon="5.33558">
        <ele>484</ele>
        <time>2014-05-20T07:11:24Z</time>
      </trkpt>
      <trkpt lat="43.78006" lon="5.33556">
        <ele>484</ele>
        <time>2014-05-20T07:11:26Z</time>
      </trkpt>
      <trkpt lat="43.78006" lon="5.33553">
        <ele>485</ele>
        <time>2014-05-20T07:11:28Z</time>
      </trkpt>
      <trkpt lat="43.78006" lon="5.3355">
        <ele>485</ele>
        <time>2014-05-20T07:11:31Z</time>
      </trkpt>
      <trkpt lat="43.78008" lon="5.3355">
        <ele>485</ele>
        <time>2014-05-20T07:11:34Z</time>
      </trkpt>
      <trkpt lat="43.78008" lon="5.33549">
        <ele>486</ele>
        <time>2014-05-20T07:11:36Z</time>
      </trkpt>
      <trkpt lat="43.78011" lon="5.33546">
        <ele>486</ele>
        <time>2014-05-20T07:11:40Z</time>
      </trkpt>
      <trkpt lat="43.78012" lon="5.33543">
        <ele>487</ele>
        <time>2014-05-20T07:11:43Z</time>
      </trkpt>
      <trkpt lat="43.78013" lon="5.33541">
        <ele>487</ele>
        <time>2014-05-20T07:11:46Z</time>
      </trkpt>
      <trkpt lat="43.78016" lon="5.33539">
        <ele>487</ele>
        <time>2014-05-20T07:11:49Z</time>
      </trkpt>
      <trkpt lat="43.78017" lon="5.33539">
        <ele>487</ele>
        <time>2014-05-20T07:11:51Z</time>
      </trkpt>
      <trkpt lat="43.78018" lon="5.33536">
        <ele>487</ele>
        <time>2014-05-20T07:11:54Z</time>
      </trkpt>
      <trkpt lat="43.7802" lon="5.33535">
        <ele>488</ele>
        <time>2014-05-20T07:11:57Z</time>
      </trkpt>
      <trkpt lat="43.78019" lon="5.33529">
        <ele>488</ele>
        <time>2014-05-20T07:12:01Z</time>
      </trkpt>
      <trkpt lat="43.78021" lon="5.33528">
        <ele>488</ele>
        <time>2014-05-20T07:12:04Z</time>
      </trkpt>
      <trkpt lat="43.78021" lon="5.33529">
        <ele>488</ele>
        <time>2014-05-20T07:12:05Z</time>
      </trkpt>
      <trkpt lat="43.78024" lon="5.3353">
        <ele>488</ele>
        <time>2014-05-20T07:12:09Z</time>
      </trkpt>
      <trkpt lat="43.78025" lon="5.3353">
        <ele>488</ele>
        <time>2014-05-20T07:12:10Z</time>
      </trkpt>
      <trkpt lat="43.78026" lon="5.33531">
        <ele>488</ele>
        <time>2014-05-20T07:12:12Z</time>
      </trkpt>
      <trkpt lat="43.7803" lon="5.33532">
        <ele>488</ele>
        <time>2014-05-20T07:12:17Z</time>
      </trkpt>
      <trkpt lat="43.78032" lon="5.33531">
        <ele>488</ele>
        <time>2014-05-20T07:12:20Z</time>
      </trkpt>
      <trkpt lat="43.78035" lon="5.33531">
        <ele>488</ele>
        <time>2014-05-20T07:12:23Z</time>
      </trkpt>
      <trkpt lat="43.78037" lon="5.3353">
        <ele>488</ele>
        <time>2014-05-20T07:12:26Z</time>
      </trkpt>
      <trkpt lat="43.78039" lon="5.33526">
        <ele>488</ele>
        <time>2014-05-20T07:12:30Z</time>
      </trkpt>
      <trkpt lat="43.78039" lon="5.33524">
        <ele>489</ele>
        <time>2014-05-20T07:12:33Z</time>
      </trkpt>
      <trkpt lat="43.78043" lon="5.33521">
        <ele>489</ele>
        <time>2014-05-20T07:12:37Z</time>
      </trkpt>
      <trkpt lat="43.78043" lon="5.33521">
        <ele>489</ele>
        <time>2014-05-20T07:12:38Z</time>
      </trkpt>
      <trkpt lat="43.78044" lon="5.33522">
        <ele>489</ele>
        <time>2014-05-20T07:12:40Z</time>
      </trkpt>
      <trkpt lat="43.78048" lon="5.33521">
        <ele>489</ele>
        <time>2014-05-20T07:12:45Z</time>
      </trkpt>
      <trkpt lat="43.78051" lon="5.3352">
        <ele>489</ele>
        <time>2014-05-20T07:12:48Z</time>
      </trkpt>
      <trkpt lat="43.78056" lon="5.33518">
        <ele>490</ele>
        <time>2014-05-20T07:12:55Z</time>
      </trkpt>
      <trkpt lat="43.78062" lon="5.33518">
        <ele>490</ele>
        <time>2014-05-20T07:13:01Z</time>
      </trkpt>
      <trkpt lat="43.78064" lon="5.33517">
        <ele>490</ele>
        <time>2014-05-20T07:13:07Z</time>
      </trkpt>
      <trkpt lat="43.78064" lon="5.33517">
        <ele>490</ele>
        <time>2014-05-20T07:13:09Z</time>
      </trkpt>
      <trkpt lat="43.78066" lon="5.33517">
        <ele>490</ele>
        <time>2014-05-20T07:13:14Z</time>
      </trkpt>
      <trkpt lat="43.78066" lon="5.33519">
        <ele>490</ele>
        <time>2014-05-20T07:13:15Z</time>
      </trkpt>
      <trkpt lat="43.78067" lon="5.3352">
        <ele>490</ele>
        <time>2014-05-20T07:13:21Z</time>
      </trkpt>
      <trkpt lat="43.78067" lon="5.3352">
        <ele>490</ele>
        <time>2014-05-20T07:13:22Z</time>
      </trkpt>
      <trkpt lat="43.78068" lon="5.3352">
        <ele>490</ele>
        <time>2014-05-20T07:13:25Z</time>
      </trkpt>
      <trkpt lat="43.78068" lon="5.33521">
        <ele>490</ele>
        <time>2014-05-20T07:13:29Z</time>
      </trkpt>
      <trkpt lat="43.78068" lon="5.33522">
        <ele>490</ele>
        <time>2014-05-20T07:13:34Z</time>
      </trkpt>
      <trkpt lat="43.78068" lon="5.33522">
        <ele>490</ele>
        <time>2014-05-20T07:13:36Z</time>
      </trkpt>
      <trkpt lat="43.78069" lon="5.33521">
        <ele>490</ele>
        <time>2014-05-20T07:13:37Z</time>
      </trkpt>
      <trkpt lat="43.7807" lon="5.33523">
        <ele>490</ele>
        <time>2014-05-20T07:13:44Z</time>
      </trkpt>
      <trkpt lat="43.78072" lon="5.33521">
        <ele>490</ele>
        <time>2014-05-20T07:13:47Z</time>
      </trkpt>
      <trkpt lat="43.78074" lon="5.3352">
        <ele>491</ele>
        <time>2014-05-20T07:13:53Z</time>
      </trkpt>
      <trkpt lat="43.78074" lon="5.33521">
        <ele>491</ele>
        <time>2014-05-20T07:13:55Z</time>
      </trkpt>
      <trkpt lat="43.78073" lon="5.33521">
        <ele>490</ele>
        <time>2014-05-20T07:14:00Z</time>
      </trkpt>
      <trkpt lat="43.78074" lon="5.33521">
        <ele>491</ele>
        <time>2014-05-20T07:14:03Z</time>
      </trkpt>
      <trkpt lat="43.78076" lon="5.33519">
        <ele>491</ele>
        <time>2014-05-20T07:14:05Z</time>
      </trkpt>
      <trkpt lat="43.78077" lon="5.33519">
        <ele>491</ele>
        <time>2014-05-20T07:14:06Z</time>
      </trkpt>
      <trkpt lat="43.78075" lon="5.33519">
        <ele>491</ele>
        <time>2014-05-20T07:14:08Z</time>
      </trkpt>
      <trkpt lat="43.78079" lon="5.33515">
        <ele>492</ele>
        <time>2014-05-20T07:14:20Z</time>
      </trkpt>
      <trkpt lat="43.78076" lon="5.33517">
        <ele>491</ele>
        <time>2014-05-20T07:14:26Z</time>
      </trkpt>
      <trkpt lat="43.78077" lon="5.33516">
        <ele>492</ele>
        <time>2014-05-20T07:14:33Z</time>
      </trkpt>
      <trkpt lat="43.78074" lon="5.33519">
        <ele>491</ele>
        <time>2014-05-20T07:14:55Z</time>
      </trkpt>
      <trkpt lat="43.78073" lon="5.3352">
        <ele>491</ele>
        <time>2014-05-20T07:15:05Z</time>
      </trkpt>
      <trkpt lat="43.78074" lon="5.33518">
        <ele>491</ele>
        <time>2014-05-20T07:15:14Z</time>
      </trkpt>
      <trkpt lat="43.78074" lon="5.33517">
        <ele>491</ele>
        <time>2014-05-20T07:15:27Z</time>
      </trkpt>
      <trkpt lat="43.78074" lon="5.33516">
        <ele>491</ele>
        <time>2014-05-20T07:15:35Z</time>
      </trkpt>
      <trkpt lat="43.78074" lon="5.33515">
        <ele>492</ele>
        <time>2014-05-20T07:15:40Z</time>
      </trkpt>
      <trkpt lat="43.78074" lon="5.33514">
        <ele>492</ele>
        <time>2014-05-20T07:15:47Z</time>
      </trkpt>
      <trkpt lat="43.78074" lon="5.33514">
        <ele>492</ele>
        <time>2014-05-20T07:15:50Z</time>
      </trkpt>
      <trkpt lat="43.78075" lon="5.33513">
        <ele>492</ele>
        <time>2014-05-20T07:15:57Z</time>
      </trkpt>
      <trkpt lat="43.78076" lon="5.33513">
        <ele>492</ele>
        <time>2014-05-20T07:16:11Z</time>
      </trkpt>
      <trkpt lat="43.78078" lon="5.33511">
        <ele>493</ele>
        <time>2014-05-20T07:16:27Z</time>
      </trkpt>
      <trkpt lat="43.78077" lon="5.33512">
        <ele>493</ele>
        <time>2014-05-20T07:16:31Z</time>
      </trkpt>
      <trkpt lat="43.78078" lon="5.33511">
        <ele>493</ele>
        <time>2014-05-20T07:16:34Z</time>
      </trkpt>
      <trkpt lat="43.78076" lon="5.33512">
        <ele>493</ele>
        <time>2014-05-20T07:16:55Z</time>
      </trkpt>
      <trkpt lat="43.78078" lon="5.3351">
        <ele>493</ele>
        <time>2014-05-20T07:17:02Z</time>
      </trkpt>
      <trkpt lat="43.78078" lon="5.33513">
        <ele>493</ele>
        <time>2014-05-20T07:17:11Z</time>
      </trkpt>
      <trkpt lat="43.78077" lon="5.33508">
        <ele>494</ele>
        <time>2014-05-20T07:17:18Z</time>
      </trkpt>
      <trkpt lat="43.78077" lon="5.33506">
        <ele>494</ele>
        <time>2014-05-20T07:17:22Z</time>
      </trkpt>
      <trkpt lat="43.78076" lon="5.33502">
        <ele>494</ele>
        <time>2014-05-20T07:17:28Z</time>
      </trkpt>
      <trkpt lat="43.78077" lon="5.33497">
        <ele>499</ele>
        <time>2014-05-20T07:17:34Z</time>
      </trkpt>
      <trkpt lat="43.78076" lon="5.33493">
        <ele>500</ele>
        <time>2014-05-20T07:17:39Z</time>
      </trkpt>
      <trkpt lat="43.78075" lon="5.33488">
        <ele>501</ele>
        <time>2014-05-20T07:17:44Z</time>
      </trkpt>
      <trkpt lat="43.7807" lon="5.33479">
        <ele>503</ele>
        <time>2014-05-20T07:17:54Z</time>
      </trkpt>
      <trkpt lat="43.78069" lon="5.33478">
        <ele>503</ele>
        <time>2014-05-20T07:17:56Z</time>
      </trkpt>
      <trkpt lat="43.78071" lon="5.33473">
        <ele>503</ele>
        <time>2014-05-20T07:18:01Z</time>
      </trkpt>
      <trkpt lat="43.7807" lon="5.3347">
        <ele>504</ele>
        <time>2014-05-20T07:18:04Z</time>
      </trkpt>
      <trkpt lat="43.78069" lon="5.33464">
        <ele>505</ele>
        <time>2014-05-20T07:18:11Z</time>
      </trkpt>
      <trkpt lat="43.78069" lon="5.3346">
        <ele>505</ele>
        <time>2014-05-20T07:18:15Z</time>
      </trkpt>
      <trkpt lat="43.78069" lon="5.33459">
        <ele>506</ele>
        <time>2014-05-20T07:18:17Z</time>
      </trkpt>
      <trkpt lat="43.78071" lon="5.33457">
        <ele>506</ele>
        <time>2014-05-20T07:18:20Z</time>
      </trkpt>
      <trkpt lat="43.78072" lon="5.33456">
        <ele>506</ele>
        <time>2014-05-20T07:18:22Z</time>
      </trkpt>
      <trkpt lat="43.78073" lon="5.33454">
        <ele>506</ele>
        <time>2014-05-20T07:18:24Z</time>
      </trkpt>
      <trkpt lat="43.78073" lon="5.33449">
        <ele>507</ele>
        <time>2014-05-20T07:18:30Z</time>
      </trkpt>
      <trkpt lat="43.78072" lon="5.33445">
        <ele>508</ele>
        <time>2014-05-20T07:18:34Z</time>
      </trkpt>
      <trkpt lat="43.7807" lon="5.33443">
        <ele>508</ele>
        <time>2014-05-20T07:18:40Z</time>
      </trkpt>
      <trkpt lat="43.78069" lon="5.33443">
        <ele>508</ele>
        <time>2014-05-20T07:18:45Z</time>
      </trkpt>
      <trkpt lat="43.78068" lon="5.33442">
        <ele>508</ele>
        <time>2014-05-20T07:18:48Z</time>
      </trkpt>
      <trkpt lat="43.7806" lon="5.33429">
        <ele>509</ele>
        <time>2014-05-20T07:19:05Z</time>
      </trkpt>
      <trkpt lat="43.78061" lon="5.33426">
        <ele>509</ele>
        <time>2014-05-20T07:19:09Z</time>
      </trkpt>
      <trkpt lat="43.78061" lon="5.33424">
        <ele>510</ele>
        <time>2014-05-20T07:19:12Z</time>
      </trkpt>
      <trkpt lat="43.78061" lon="5.33423">
        <ele>510</ele>
        <time>2014-05-20T07:19:13Z</time>
      </trkpt>
      <trkpt lat="43.78062" lon="5.33423">
        <ele>510</ele>
        <time>2014-05-20T07:19:14Z</time>
      </trkpt>
      <trkpt lat="43.78066" lon="5.33418">
        <ele>511</ele>
        <time>2014-05-20T07:19:21Z</time>
      </trkpt>
      <trkpt lat="43.78068" lon="5.33412">
        <ele>515</ele>
        <time>2014-05-20T07:19:28Z</time>
      </trkpt>
      <trkpt lat="43.7807" lon="5.334">
        <ele>515</ele>
        <time>2014-05-20T07:19:40Z</time>
      </trkpt>
      <trkpt lat="43.78071" lon="5.33398">
        <ele>515</ele>
        <time>2014-05-20T07:19:42Z</time>
      </trkpt>
      <trkpt lat="43.78074" lon="5.33395">
        <ele>515</ele>
        <time>2014-05-20T07:19:45Z</time>
      </trkpt>
      <trkpt lat="43.78075" lon="5.33393">
        <ele>515</ele>
        <time>2014-05-20T07:19:48Z</time>
      </trkpt>
      <trkpt lat="43.78074" lon="5.33384">
        <ele>515</ele>
        <time>2014-05-20T07:19:55Z</time>
      </trkpt>
      <trkpt lat="43.78069" lon="5.33372">
        <ele>515</ele>
        <time>2014-05-20T07:20:05Z</time>
      </trkpt>
      <trkpt lat="43.78069" lon="5.33371">
        <ele>515</ele>
        <time>2014-05-20T07:20:06Z</time>
      </trkpt>
      <trkpt lat="43.7807" lon="5.33367">
        <ele>516</ele>
        <time>2014-05-20T07:20:14Z</time>
      </trkpt>
      <trkpt lat="43.78068" lon="5.33365">
        <ele>516</ele>
        <time>2014-05-20T07:20:26Z</time>
      </trkpt>
      <trkpt lat="43.78068" lon="5.33364">
        <ele>516</ele>
        <time>2014-05-20T07:20:29Z</time>
      </trkpt>
      <trkpt lat="43.78069" lon="5.33363">
        <ele>516</ele>
        <time>2014-05-20T07:20:34Z</time>
      </trkpt>
      <trkpt lat="43.7807" lon="5.33363">
        <ele>516</ele>
        <time>2014-05-20T07:20:38Z</time>
      </trkpt>
      <trkpt lat="43.78071" lon="5.33362">
        <ele>516</ele>
        <time>2014-05-20T07:20:42Z</time>
      </trkpt>
      <trkpt lat="43.78074" lon="5.33362">
        <ele>516</ele>
        <time>2014-05-20T07:20:52Z</time>
      </trkpt>
      <trkpt lat="43.78076" lon="5.33363">
        <ele>516</ele>
        <time>2014-05-20T07:21:09Z</time>
      </trkpt>
      <trkpt lat="43.78076" lon="5.33363">
        <ele>516</ele>
        <time>2014-05-20T07:21:13Z</time>
      </trkpt>
      <trkpt lat="43.78075" lon="5.33364">
        <ele>516</ele>
        <time>2014-05-20T07:21:24Z</time>
      </trkpt>
      <trkpt lat="43.78075" lon="5.33363">
        <ele>516</ele>
        <time>2014-05-20T07:21:26Z</time>
      </trkpt>
      <trkpt lat="43.7808" lon="5.33365">
        <ele>516</ele>
        <time>2014-05-20T07:21:36Z</time>
      </trkpt>
      <trkpt lat="43.78081" lon="5.33365">
        <ele>516</ele>
        <time>2014-05-20T07:21:38Z</time>
      </trkpt>
      <trkpt lat="43.78085" lon="5.33366">
        <ele>520</ele>
        <time>2014-05-20T07:21:43Z</time>
      </trkpt>
      <trkpt lat="43.78088" lon="5.33365">
        <ele>520</ele>
        <time>2014-05-20T07:21:46Z</time>
      </trkpt>
      <trkpt lat="43.78094" lon="5.33365">
        <ele>520</ele>
        <time>2014-05-20T07:21:53Z</time>
      </trkpt>
      <trkpt lat="43.78099" lon="5.33362">
        <ele>520</ele>
        <time>2014-05-20T07:22:00Z</time>
      </trkpt>
      <trkpt lat="43.781" lon="5.3336">
        <ele>520</ele>
        <time>2014-05-20T07:22:02Z</time>
      </trkpt>
      <trkpt lat="43.78102" lon="5.33357">
        <ele>520</ele>
        <time>2014-05-20T07:22:05Z</time>
      </trkpt>
      <trkpt lat="43.78102" lon="5.33353">
        <ele>520</ele>
        <time>2014-05-20T07:22:08Z</time>
      </trkpt>
      <trkpt lat="43.78104" lon="5.33348">
        <ele>520</ele>
        <time>2014-05-20T07:22:13Z</time>
      </trkpt>
      <trkpt lat="43.78108" lon="5.33345">
        <ele>521</ele>
        <time>2014-05-20T07:22:18Z</time>
      </trkpt>
      <trkpt lat="43.78119" lon="5.33339">
        <ele>521</ele>
        <time>2014-05-20T07:22:31Z</time>
      </trkpt>
      <trkpt lat="43.78128" lon="5.33337">
        <ele>522</ele>
        <time>2014-05-20T07:22:40Z</time>
      </trkpt>
      <trkpt lat="43.78131" lon="5.33335">
        <ele>523</ele>
        <time>2014-05-20T07:22:43Z</time>
      </trkpt>
      <trkpt lat="43.78133" lon="5.33334">
        <ele>523</ele>
        <time>2014-05-20T07:22:45Z</time>
      </trkpt>
      <trkpt lat="43.78138" lon="5.33328">
        <ele>523</ele>
        <time>2014-05-20T07:22:51Z</time>
      </trkpt>
      <trkpt lat="43.78142" lon="5.33325">
        <ele>523</ele>
        <time>2014-05-20T07:22:56Z</time>
      </trkpt>
      <trkpt lat="43.78144" lon="5.33324">
        <ele>523</ele>
        <time>2014-05-20T07:22:58Z</time>
      </trkpt>
      <trkpt lat="43.78148" lon="5.33323">
        <ele>524</ele>
        <time>2014-05-20T07:23:02Z</time>
      </trkpt>
      <trkpt lat="43.7815" lon="5.33321">
        <ele>524</ele>
        <time>2014-05-20T07:23:05Z</time>
      </trkpt>
      <trkpt lat="43.78154" lon="5.33319">
        <ele>525</ele>
        <time>2014-05-20T07:23:10Z</time>
      </trkpt>
      <trkpt lat="43.78157" lon="5.3332">
        <ele>525</ele>
        <time>2014-05-20T07:23:14Z</time>
      </trkpt>
      <trkpt lat="43.78162" lon="5.33323">
        <ele>527</ele>
        <time>2014-05-20T07:23:20Z</time>
      </trkpt>
      <trkpt lat="43.78165" lon="5.33323">
        <ele>527</ele>
        <time>2014-05-20T07:23:22Z</time>
      </trkpt>
      <trkpt lat="43.78169" lon="5.33323">
        <ele>529</ele>
        <time>2014-05-20T07:23:26Z</time>
      </trkpt>
      <trkpt lat="43.78175" lon="5.33321">
        <ele>528</ele>
        <time>2014-05-20T07:23:32Z</time>
      </trkpt>
      <trkpt lat="43.7818" lon="5.33321">
        <ele>527</ele>
        <time>2014-05-20T07:23:37Z</time>
      </trkpt>
      <trkpt lat="43.78185" lon="5.33323">
        <ele>527</ele>
        <time>2014-05-20T07:23:42Z</time>
      </trkpt>
      <trkpt lat="43.78191" lon="5.3333">
        <ele>527</ele>
        <time>2014-05-20T07:23:51Z</time>
      </trkpt>
      <trkpt lat="43.78195" lon="5.33331">
        <ele>527</ele>
        <time>2014-05-20T07:23:55Z</time>
      </trkpt>
      <trkpt lat="43.78198" lon="5.33331">
        <ele>527</ele>
        <time>2014-05-20T07:23:58Z</time>
      </trkpt>
      <trkpt lat="43.78207" lon="5.33327">
        <ele>526</ele>
        <time>2014-05-20T07:24:08Z</time>
      </trkpt>
      <trkpt lat="43.78213" lon="5.33328">
        <ele>526</ele>
        <time>2014-05-20T07:24:14Z</time>
      </trkpt>
      <trkpt lat="43.78221" lon="5.33327">
        <ele>526</ele>
        <time>2014-05-20T07:24:21Z</time>
      </trkpt>
      <trkpt lat="43.78225" lon="5.33328">
        <ele>526</ele>
        <time>2014-05-20T07:24:25Z</time>
      </trkpt>
      <trkpt lat="43.78235" lon="5.33329">
        <ele>527</ele>
        <time>2014-05-20T07:24:32Z</time>
      </trkpt>
      <trkpt lat="43.78242" lon="5.33331">
        <ele>528</ele>
        <time>2014-05-20T07:24:38Z</time>
      </trkpt>
      <trkpt lat="43.78248" lon="5.33331">
        <ele>528</ele>
        <time>2014-05-20T07:24:44Z</time>
      </trkpt>
      <trkpt lat="43.78254" lon="5.3333">
        <ele>529</ele>
        <time>2014-05-20T07:24:50Z</time>
      </trkpt>
      <trkpt lat="43.78255" lon="5.3333">
        <ele>529</ele>
        <time>2014-05-20T07:24:51Z</time>
      </trkpt>
      <trkpt lat="43.7826" lon="5.3333">
        <ele>530</ele>
        <time>2014-05-20T07:24:56Z</time>
      </trkpt>
      <trkpt lat="43.78262" lon="5.33328">
        <ele>530</ele>
        <time>2014-05-20T07:24:58Z</time>
      </trkpt>
      <trkpt lat="43.78264" lon="5.33326">
        <ele>530</ele>
        <time>2014-05-20T07:25:01Z</time>
      </trkpt>
      <trkpt lat="43.78268" lon="5.33325">
        <ele>530</ele>
        <time>2014-05-20T07:25:05Z</time>
      </trkpt>
      <trkpt lat="43.78271" lon="5.33324">
        <ele>530</ele>
        <time>2014-05-20T07:25:08Z</time>
      </trkpt>
      <trkpt lat="43.78274" lon="5.33325">
        <ele>531</ele>
        <time>2014-05-20T07:25:11Z</time>
      </trkpt>
      <trkpt lat="43.78277" lon="5.33327">
        <ele>531</ele>
        <time>2014-05-20T07:25:14Z</time>
      </trkpt>
      <trkpt lat="43.78279" lon="5.33328">
        <ele>531</ele>
        <time>2014-05-20T07:25:16Z</time>
      </trkpt>
      <trkpt lat="43.78282" lon="5.33333">
        <ele>531</ele>
        <time>2014-05-20T07:25:20Z</time>
      </trkpt>
      <trkpt lat="43.78284" lon="5.33334">
        <ele>530</ele>
        <time>2014-05-20T07:25:22Z</time>
      </trkpt>
      <trkpt lat="43.78285" lon="5.33334">
        <ele>530</ele>
        <time>2014-05-20T07:25:23Z</time>
      </trkpt>
      <trkpt lat="43.78287" lon="5.33334">
        <ele>530</ele>
        <time>2014-05-20T07:25:25Z</time>
      </trkpt>
      <trkpt lat="43.78293" lon="5.33331">
        <ele>532</ele>
        <time>2014-05-20T07:25:31Z</time>
      </trkpt>
      <trkpt lat="43.78296" lon="5.33332">
        <ele>533</ele>
        <time>2014-05-20T07:25:37Z</time>
      </trkpt>
      <trkpt lat="43.78298" lon="5.33331">
        <ele>533</ele>
        <time>2014-05-20T07:25:39Z</time>
      </trkpt>
      <trkpt lat="43.78308" lon="5.33332">
        <ele>534</ele>
        <time>2014-05-20T07:25:55Z</time>
      </trkpt>
      <trkpt lat="43.78308" lon="5.33332">
        <ele>534</ele>
        <time>2014-05-20T07:25:57Z</time>
      </trkpt>
      <trkpt lat="43.78308" lon="5.33332">
        <ele>534</ele>
        <time>2014-05-20T07:26:00Z</time>
      </trkpt>
      <trkpt lat="43.78308" lon="5.33333">
        <ele>534</ele>
        <time>2014-05-20T07:26:01Z</time>
      </trkpt>
      <trkpt lat="43.78311" lon="5.33333">
        <ele>535</ele>
        <time>2014-05-20T07:26:05Z</time>
      </trkpt>
      <trkpt lat="43.78317" lon="5.33332">
        <ele>535</ele>
        <time>2014-05-20T07:26:13Z</time>
      </trkpt>
      <trkpt lat="43.78319" lon="5.33332">
        <ele>536</ele>
        <time>2014-05-20T07:26:16Z</time>
      </trkpt>
      <trkpt lat="43.78327" lon="5.33333">
        <ele>537</ele>
        <time>2014-05-20T07:26:25Z</time>
      </trkpt>
      <trkpt lat="43.78332" lon="5.33332">
        <ele>538</ele>
        <time>2014-05-20T07:26:30Z</time>
      </trkpt>
      <trkpt lat="43.78335" lon="5.33333">
        <ele>540</ele>
        <time>2014-05-20T07:26:34Z</time>
      </trkpt>
      <trkpt lat="43.78339" lon="5.33334">
        <ele>541</ele>
        <time>2014-05-20T07:26:38Z</time>
      </trkpt>
      <trkpt lat="43.78341" lon="5.33335">
        <ele>542</ele>
        <time>2014-05-20T07:26:42Z</time>
      </trkpt>
      <trkpt lat="43.7834" lon="5.33332">
        <ele>543</ele>
        <time>2014-05-20T07:27:02Z</time>
      </trkpt>
      <trkpt lat="43.78341" lon="5.33333">
        <ele>543</ele>
        <time>2014-05-20T07:27:06Z</time>
      </trkpt>
      <trkpt lat="43.78342" lon="5.33334">
        <ele>542</ele>
        <time>2014-05-20T07:27:08Z</time>
      </trkpt>
      <trkpt lat="43.78349" lon="5.33336">
        <ele>544</ele>
        <time>2014-05-20T07:27:22Z</time>
      </trkpt>
      <trkpt lat="43.7835" lon="5.33337">
        <ele>544</ele>
        <time>2014-05-20T07:27:30Z</time>
      </trkpt>
      <trkpt lat="43.7835" lon="5.33338">
        <ele>544</ele>
        <time>2014-05-20T07:27:36Z</time>
      </trkpt>
      <trkpt lat="43.7835" lon="5.33339">
        <ele>544</ele>
        <time>2014-05-20T07:27:38Z</time>
      </trkpt>
      <trkpt lat="43.78355" lon="5.3334">
        <ele>545</ele>
        <time>2014-05-20T07:27:44Z</time>
      </trkpt>
      <trkpt lat="43.78359" lon="5.33343">
        <ele>546</ele>
        <time>2014-05-20T07:27:49Z</time>
      </trkpt>
      <trkpt lat="43.7836" lon="5.33343">
        <ele>546</ele>
        <time>2014-05-20T07:27:51Z</time>
      </trkpt>
      <trkpt lat="43.78363" lon="5.33344">
        <ele>547</ele>
        <time>2014-05-20T07:27:55Z</time>
      </trkpt>
      <trkpt lat="43.78366" lon="5.33343">
        <ele>548</ele>
        <time>2014-05-20T07:27:58Z</time>
      </trkpt>
      <trkpt lat="43.78367" lon="5.33344">
        <ele>548</ele>
        <time>2014-05-20T07:28:00Z</time>
      </trkpt>
      <trkpt lat="43.78375" lon="5.33343">
        <ele>550</ele>
        <time>2014-05-20T07:28:10Z</time>
      </trkpt>
      <trkpt lat="43.7838" lon="5.33344">
        <ele>551</ele>
        <time>2014-05-20T07:28:17Z</time>
      </trkpt>
      <trkpt lat="43.78381" lon="5.33346">
        <ele>551</ele>
        <time>2014-05-20T07:28:19Z</time>
      </trkpt>
      <trkpt lat="43.78384" lon="5.33347">
        <ele>552</ele>
        <time>2014-05-20T07:28:23Z</time>
      </trkpt>
      <trkpt lat="43.78386" lon="5.33347">
        <ele>552</ele>
        <time>2014-05-20T07:28:26Z</time>
      </trkpt>
      <trkpt lat="43.78388" lon="5.33345">
        <ele>553</ele>
        <time>2014-05-20T07:28:31Z</time>
      </trkpt>
      <trkpt lat="43.78391" lon="5.33347">
        <ele>554</ele>
        <time>2014-05-20T07:28:36Z</time>
      </trkpt>
      <trkpt lat="43.78393" lon="5.33347">
        <ele>554</ele>
        <time>2014-05-20T07:28:39Z</time>
      </trkpt>
      <trkpt lat="43.78397" lon="5.33346">
        <ele>555</ele>
        <time>2014-05-20T07:28:44Z</time>
      </trkpt>
      <trkpt lat="43.784" lon="5.33344">
        <ele>557</ele>
        <time>2014-05-20T07:28:49Z</time>
      </trkpt>
      <trkpt lat="43.78401" lon="5.33342">
        <ele>557</ele>
        <time>2014-05-20T07:28:51Z</time>
      </trkpt>
      <trkpt lat="43.78402" lon="5.33342">
        <ele>558</ele>
        <time>2014-05-20T07:28:53Z</time>
      </trkpt>
      <trkpt lat="43.78403" lon="5.33341">
        <ele>558</ele>
        <time>2014-05-20T07:28:55Z</time>
      </trkpt>
      <trkpt lat="43.78403" lon="5.33338">
        <ele>559</ele>
        <time>2014-05-20T07:28:58Z</time>
      </trkpt>
      <trkpt lat="43.78405" lon="5.33335">
        <ele>560</ele>
        <time>2014-05-20T07:29:02Z</time>
      </trkpt>
      <trkpt lat="43.78407" lon="5.33329">
        <ele>562</ele>
        <time>2014-05-20T07:29:09Z</time>
      </trkpt>
      <trkpt lat="43.78407" lon="5.33328">
        <ele>562</ele>
        <time>2014-05-20T07:29:11Z</time>
      </trkpt>
      <trkpt lat="43.78409" lon="5.33327">
        <ele>563</ele>
        <time>2014-05-20T07:29:14Z</time>
      </trkpt>
      <trkpt lat="43.7841" lon="5.33326">
        <ele>563</ele>
        <time>2014-05-20T07:29:16Z</time>
      </trkpt>
      <trkpt lat="43.78413" lon="5.33324">
        <ele>563</ele>
        <time>2014-05-20T07:29:20Z</time>
      </trkpt>
      <trkpt lat="43.78416" lon="5.33322">
        <ele>563</ele>
        <time>2014-05-20T07:29:23Z</time>
      </trkpt>
      <trkpt lat="43.78418" lon="5.3332">
        <ele>570</ele>
        <time>2014-05-20T07:29:26Z</time>
      </trkpt>
      <trkpt lat="43.78421" lon="5.33319">
        <ele>571</ele>
        <time>2014-05-20T07:29:30Z</time>
      </trkpt>
      <trkpt lat="43.78422" lon="5.33318">
        <ele>571</ele>
        <time>2014-05-20T07:29:33Z</time>
      </trkpt>
      <trkpt lat="43.78423" lon="5.33317">
        <ele>571</ele>
        <time>2014-05-20T07:29:37Z</time>
      </trkpt>
      <trkpt lat="43.78426" lon="5.33317">
        <ele>572</ele>
        <time>2014-05-20T07:29:41Z</time>
      </trkpt>
      <trkpt lat="43.7843" lon="5.33312">
        <ele>572</ele>
        <time>2014-05-20T07:29:49Z</time>
      </trkpt>
      <trkpt lat="43.78434" lon="5.33308">
        <ele>573</ele>
        <time>2014-05-20T07:29:55Z</time>
      </trkpt>
      <trkpt lat="43.78437" lon="5.33306">
        <ele>574</ele>
        <time>2014-05-20T07:29:59Z</time>
      </trkpt>
      <trkpt lat="43.78438" lon="5.33306">
        <ele>574</ele>
        <time>2014-05-20T07:30:00Z</time>
      </trkpt>
      <trkpt lat="43.78439" lon="5.33305">
        <ele>574</ele>
        <time>2014-05-20T07:30:02Z</time>
      </trkpt>
      <trkpt lat="43.78445" lon="5.33305">
        <ele>574</ele>
        <time>2014-05-20T07:30:08Z</time>
      </trkpt>
      <trkpt lat="43.78447" lon="5.33305">
        <ele>575</ele>
        <time>2014-05-20T07:30:10Z</time>
      </trkpt>
      <trkpt lat="43.7845" lon="5.33306">
        <ele>575</ele>
        <time>2014-05-20T07:30:14Z</time>
      </trkpt>
      <trkpt lat="43.78453" lon="5.33305">
        <ele>575</ele>
        <time>2014-05-20T07:30:17Z</time>
      </trkpt>
      <trkpt lat="43.78456" lon="5.33304">
        <ele>575</ele>
        <time>2014-05-20T07:30:21Z</time>
      </trkpt>
      <trkpt lat="43.78457" lon="5.333">
        <ele>576</ele>
        <time>2014-05-20T07:30:26Z</time>
      </trkpt>
      <trkpt lat="43.78459" lon="5.33298">
        <ele>576</ele>
        <time>2014-05-20T07:30:29Z</time>
      </trkpt>
      <trkpt lat="43.78461" lon="5.33299">
        <ele>576</ele>
        <time>2014-05-20T07:30:32Z</time>
      </trkpt>
      <trkpt lat="43.78463" lon="5.33298">
        <ele>576</ele>
        <time>2014-05-20T07:30:35Z</time>
      </trkpt>
      <trkpt lat="43.78468" lon="5.333">
        <ele>576</ele>
        <time>2014-05-20T07:30:41Z</time>
      </trkpt>
      <trkpt lat="43.78469" lon="5.33299">
        <ele>577</ele>
        <time>2014-05-20T07:30:43Z</time>
      </trkpt>
      <trkpt lat="43.78474" lon="5.33302">
        <ele>577</ele>
        <time>2014-05-20T07:30:50Z</time>
      </trkpt>
      <trkpt lat="43.78482" lon="5.33302">
        <ele>577</ele>
        <time>2014-05-20T07:31:00Z</time>
      </trkpt>
      <trkpt lat="43.78484" lon="5.33301">
        <ele>578</ele>
        <time>2014-05-20T07:31:03Z</time>
      </trkpt>
      <trkpt lat="43.78486" lon="5.33302">
        <ele>578</ele>
        <time>2014-05-20T07:31:07Z</time>
      </trkpt>
      <trkpt lat="43.78488" lon="5.33302">
        <ele>578</ele>
        <time>2014-05-20T07:31:10Z</time>
      </trkpt>
      <trkpt lat="43.78489" lon="5.33301">
        <ele>578</ele>
        <time>2014-05-20T07:31:13Z</time>
      </trkpt>
      <trkpt lat="43.7849" lon="5.33301">
        <ele>578</ele>
        <time>2014-05-20T07:31:24Z</time>
      </trkpt>
      <trkpt lat="43.78489" lon="5.33302">
        <ele>578</ele>
        <time>2014-05-20T07:31:38Z</time>
      </trkpt>
      <trkpt lat="43.78489" lon="5.33302">
        <ele>578</ele>
        <time>2014-05-20T07:31:43Z</time>
      </trkpt>
      <trkpt lat="43.78489" lon="5.33303">
        <ele>578</ele>
        <time>2014-05-20T07:31:50Z</time>
      </trkpt>
      <trkpt lat="43.78489" lon="5.33302">
        <ele>578</ele>
        <time>2014-05-20T07:32:13Z</time>
      </trkpt>
      <trkpt lat="43.78489" lon="5.33302">
        <ele>578</ele>
        <time>2014-05-20T07:32:20Z</time>
      </trkpt>
      <trkpt lat="43.78488" lon="5.33303">
        <ele>578</ele>
        <time>2014-05-20T07:32:30Z</time>
      </trkpt>
      <trkpt lat="43.78488" lon="5.33304">
        <ele>578</ele>
        <time>2014-05-20T07:32:32Z</time>
      </trkpt>
      <trkpt lat="43.78489" lon="5.33304">
        <ele>578</ele>
        <time>2014-05-20T07:32:39Z</time>
      </trkpt>
      <trkpt lat="43.78491" lon="5.33303">
        <ele>578</ele>
        <time>2014-05-20T07:32:46Z</time>
      </trkpt>
      <trkpt lat="43.78491" lon="5.33302">
        <ele>578</ele>
        <time>2014-05-20T07:32:50Z</time>
      </trkpt>
      <trkpt lat="43.78493" lon="5.33301">
        <ele>578</ele>
        <time>2014-05-20T07:32:52Z</time>
      </trkpt>
      <trkpt lat="43.78494" lon="5.33297">
        <ele>578</ele>
        <time>2014-05-20T07:32:55Z</time>
      </trkpt>
      <trkpt lat="43.78494" lon="5.3329">
        <ele>579</ele>
        <time>2014-05-20T07:33:01Z</time>
      </trkpt>
      <trkpt lat="43.78495" lon="5.33287">
        <ele>579</ele>
        <time>2014-05-20T07:33:03Z</time>
      </trkpt>
      <trkpt lat="43.78497" lon="5.33285">
        <ele>579</ele>
        <time>2014-05-20T07:33:06Z</time>
      </trkpt>
      <trkpt lat="43.78499" lon="5.33281">
        <ele>580</ele>
        <time>2014-05-20T07:33:11Z</time>
      </trkpt>
      <trkpt lat="43.785" lon="5.3328">
        <ele>578</ele>
        <time>2014-05-20T07:33:13Z</time>
      </trkpt>
      <trkpt lat="43.785" lon="5.33279">
        <ele>580</ele>
        <time>2014-05-20T07:33:20Z</time>
      </trkpt>
      <trkpt lat="43.785" lon="5.33281">
        <ele>578</ele>
        <time>2014-05-20T07:33:29Z</time>
      </trkpt>
      <trkpt lat="43.78502" lon="5.33281">
        <ele>578</ele>
        <time>2014-05-20T07:33:33Z</time>
      </trkpt>
      <trkpt lat="43.78505" lon="5.33278">
        <ele>578</ele>
        <time>2014-05-20T07:33:40Z</time>
      </trkpt>
      <trkpt lat="43.78505" lon="5.33277">
        <ele>578</ele>
        <time>2014-05-20T07:33:44Z</time>
      </trkpt>
      <trkpt lat="43.78505" lon="5.33276">
        <ele>578</ele>
        <time>2014-05-20T07:33:45Z</time>
      </trkpt>
      <trkpt lat="43.78507" lon="5.33265">
        <ele>581</ele>
        <time>2014-05-20T07:33:54Z</time>
      </trkpt>
      <trkpt lat="43.78506" lon="5.3326">
        <ele>582</ele>
        <time>2014-05-20T07:33:58Z</time>
      </trkpt>
      <trkpt lat="43.78508" lon="5.33247">
        <ele>586</ele>
        <time>2014-05-20T07:34:07Z</time>
      </trkpt>
      <trkpt lat="43.78508" lon="5.33244">
        <ele>586</ele>
        <time>2014-05-20T07:34:09Z</time>
      </trkpt>
      <trkpt lat="43.78509" lon="5.33239">
        <ele>586</ele>
        <time>2014-05-20T07:34:12Z</time>
      </trkpt>
      <trkpt lat="43.78508" lon="5.33237">
        <ele>585</ele>
        <time>2014-05-20T07:34:14Z</time>
      </trkpt>
      <trkpt lat="43.78507" lon="5.3323">
        <ele>585</ele>
        <time>2014-05-20T07:34:19Z</time>
      </trkpt>
      <trkpt lat="43.78506" lon="5.33222">
        <ele>585</ele>
        <time>2014-05-20T07:34:24Z</time>
      </trkpt>
      <trkpt lat="43.78506" lon="5.33216">
        <ele>586</ele>
        <time>2014-05-20T07:34:29Z</time>
      </trkpt>
      <trkpt lat="43.78509" lon="5.33211">
        <ele>586</ele>
        <time>2014-05-20T07:34:34Z</time>
      </trkpt>
      <trkpt lat="43.78511" lon="5.33203">
        <ele>586</ele>
        <time>2014-05-20T07:34:40Z</time>
      </trkpt>
      <trkpt lat="43.7851" lon="5.33199">
        <ele>587</ele>
        <time>2014-05-20T07:34:43Z</time>
      </trkpt>
      <trkpt lat="43.78511" lon="5.33191">
        <ele>588</ele>
        <time>2014-05-20T07:34:49Z</time>
      </trkpt>
      <trkpt lat="43.78513" lon="5.33182">
        <ele>589</ele>
        <time>2014-05-20T07:34:56Z</time>
      </trkpt>
      <trkpt lat="43.78512" lon="5.33178">
        <ele>590</ele>
        <time>2014-05-20T07:34:59Z</time>
      </trkpt>
      <trkpt lat="43.78513" lon="5.33171">
        <ele>590</ele>
        <time>2014-05-20T07:35:05Z</time>
      </trkpt>
      <trkpt lat="43.78516" lon="5.33161">
        <ele>591</ele>
        <time>2014-05-20T07:35:12Z</time>
      </trkpt>
      <trkpt lat="43.78518" lon="5.3316">
        <ele>591</ele>
        <time>2014-05-20T07:35:15Z</time>
      </trkpt>
      <trkpt lat="43.78519" lon="5.3316">
        <ele>591</ele>
        <time>2014-05-20T07:35:16Z</time>
      </trkpt>
      <trkpt lat="43.78519" lon="5.3316">
        <ele>591</ele>
        <time>2014-05-20T07:35:18Z</time>
      </trkpt>
      <trkpt lat="43.78521" lon="5.33159">
        <ele>590</ele>
        <time>2014-05-20T07:35:23Z</time>
      </trkpt>
      <trkpt lat="43.78522" lon="5.33158">
        <ele>590</ele>
        <time>2014-05-20T07:35:26Z</time>
      </trkpt>
      <trkpt lat="43.78524" lon="5.33159">
        <ele>590</ele>
        <time>2014-05-20T07:35:36Z</time>
      </trkpt>
      <trkpt lat="43.78522" lon="5.3316">
        <ele>590</ele>
        <time>2014-05-20T07:35:43Z</time>
      </trkpt>
      <trkpt lat="43.78522" lon="5.3316">
        <ele>590</ele>
        <time>2014-05-20T07:35:46Z</time>
      </trkpt>
      <trkpt lat="43.78522" lon="5.33161">
        <ele>590</ele>
        <time>2014-05-20T07:35:48Z</time>
      </trkpt>
      <trkpt lat="43.78524" lon="5.33161">
        <ele>590</ele>
        <time>2014-05-20T07:35:59Z</time>
      </trkpt>
      <trkpt lat="43.78524" lon="5.33159">
        <ele>590</ele>
        <time>2014-05-20T07:36:06Z</time>
      </trkpt>
      <trkpt lat="43.78525" lon="5.33158">
        <ele>590</ele>
        <time>2014-05-20T07:36:14Z</time>
      </trkpt>
      <trkpt lat="43.78525" lon="5.33155">
        <ele>590</ele>
        <time>2014-05-20T07:36:25Z</time>
      </trkpt>
      <trkpt lat="43.78525" lon="5.33156">
        <ele>590</ele>
        <time>2014-05-20T07:36:27Z</time>
      </trkpt>
      <trkpt lat="43.78523" lon="5.33154">
        <ele>590</ele>
        <time>2014-05-20T07:36:37Z</time>
      </trkpt>
      <trkpt lat="43.78521" lon="5.33153">
        <ele>590</ele>
        <time>2014-05-20T07:36:44Z</time>
      </trkpt>
      <trkpt lat="43.78521" lon="5.33153">
        <ele>590</ele>
        <time>2014-05-20T07:36:48Z</time>
      </trkpt>
      <trkpt lat="43.78521" lon="5.33153">
        <ele>590</ele>
        <time>2014-05-20T07:36:49Z</time>
      </trkpt>
      <trkpt lat="43.78521" lon="5.3315">
        <ele>590</ele>
        <time>2014-05-20T07:36:54Z</time>
      </trkpt>
      <trkpt lat="43.78521" lon="5.3315">
        <ele>590</ele>
        <time>2014-05-20T07:37:00Z</time>
      </trkpt>
      <trkpt lat="43.78519" lon="5.33151">
        <ele>590</ele>
        <time>2014-05-20T07:37:04Z</time>
      </trkpt>
      <trkpt lat="43.78522" lon="5.33151">
        <ele>590</ele>
        <time>2014-05-20T07:37:13Z</time>
      </trkpt>
      <trkpt lat="43.78523" lon="5.33152">
        <ele>590</ele>
        <time>2014-05-20T07:37:16Z</time>
      </trkpt>
      <trkpt lat="43.78524" lon="5.33151">
        <ele>590</ele>
        <time>2014-05-20T07:37:20Z</time>
      </trkpt>
      <trkpt lat="43.78523" lon="5.3315">
        <ele>590</ele>
        <time>2014-05-20T07:37:30Z</time>
      </trkpt>
      <trkpt lat="43.78522" lon="5.33149">
        <ele>590</ele>
        <time>2014-05-20T07:37:35Z</time>
      </trkpt>
      <trkpt lat="43.78522" lon="5.33147">
        <ele>590</ele>
        <time>2014-05-20T07:37:38Z</time>
      </trkpt>
      <trkpt lat="43.78521" lon="5.33136">
        <ele>589</ele>
        <time>2014-05-20T07:37:46Z</time>
      </trkpt>
      <trkpt lat="43.7852" lon="5.33133">
        <ele>589</ele>
        <time>2014-05-20T07:37:48Z</time>
      </trkpt>
      <trkpt lat="43.78519" lon="5.3313">
        <ele>589</ele>
        <time>2014-05-20T07:37:51Z</time>
      </trkpt>
      <trkpt lat="43.78519" lon="5.33126">
        <ele>589</ele>
        <time>2014-05-20T07:37:54Z</time>
      </trkpt>
      <trkpt lat="43.78518" lon="5.33123">
        <ele>589</ele>
        <time>2014-05-20T07:37:56Z</time>
      </trkpt>
      <trkpt lat="43.78517" lon="5.33121">
        <ele>589</ele>
        <time>2014-05-20T07:37:58Z</time>
      </trkpt>
      <trkpt lat="43.78516" lon="5.33116">
        <ele>590</ele>
        <time>2014-05-20T07:38:01Z</time>
      </trkpt>
      <trkpt lat="43.78516" lon="5.33115">
        <ele>590</ele>
        <time>2014-05-20T07:38:02Z</time>
      </trkpt>
      <trkpt lat="43.78516" lon="5.33113">
        <ele>590</ele>
        <time>2014-05-20T07:38:04Z</time>
      </trkpt>
      <trkpt lat="43.78517" lon="5.3311">
        <ele>590</ele>
        <time>2014-05-20T07:38:08Z</time>
      </trkpt>
      <trkpt lat="43.78516" lon="5.33108">
        <ele>590</ele>
        <time>2014-05-20T07:38:10Z</time>
      </trkpt>
      <trkpt lat="43.78515" lon="5.33106">
        <ele>590</ele>
        <time>2014-05-20T07:38:12Z</time>
      </trkpt>
      <trkpt lat="43.78515" lon="5.33102">
        <ele>590</ele>
        <time>2014-05-20T07:38:16Z</time>
      </trkpt>
      <trkpt lat="43.78509" lon="5.33087">
        <ele>593</ele>
        <time>2014-05-20T07:38:27Z</time>
      </trkpt>
      <trkpt lat="43.78506" lon="5.33076">
        <ele>592</ele>
        <time>2014-05-20T07:38:36Z</time>
      </trkpt>
      <trkpt lat="43.78505" lon="5.3307">
        <ele>590</ele>
        <time>2014-05-20T07:38:40Z</time>
      </trkpt>
      <trkpt lat="43.78502" lon="5.33064">
        <ele>589</ele>
        <time>2014-05-20T07:38:44Z</time>
      </trkpt>
      <trkpt lat="43.78501" lon="5.3306">
        <ele>588</ele>
        <time>2014-05-20T07:38:47Z</time>
      </trkpt>
      <trkpt lat="43.78501" lon="5.33053">
        <ele>587</ele>
        <time>2014-05-20T07:38:51Z</time>
      </trkpt>
      <trkpt lat="43.78499" lon="5.33044">
        <ele>590</ele>
        <time>2014-05-20T07:38:57Z</time>
      </trkpt>
      <trkpt lat="43.78499" lon="5.3304">
        <ele>590</ele>
        <time>2014-05-20T07:38:59Z</time>
      </trkpt>
      <trkpt lat="43.78496" lon="5.33031">
        <ele>589</ele>
        <time>2014-05-20T07:39:05Z</time>
      </trkpt>
      <trkpt lat="43.78494" lon="5.33027">
        <ele>589</ele>
        <time>2014-05-20T07:39:08Z</time>
      </trkpt>
      <trkpt lat="43.78489" lon="5.33018">
        <ele>589</ele>
        <time>2014-05-20T07:39:14Z</time>
      </trkpt>
      <trkpt lat="43.78486" lon="5.33016">
        <ele>589</ele>
        <time>2014-05-20T07:39:16Z</time>
      </trkpt>
      <trkpt lat="43.78485" lon="5.33014">
        <ele>589</ele>
        <time>2014-05-20T07:39:18Z</time>
      </trkpt>
      <trkpt lat="43.78484" lon="5.3301">
        <ele>589</ele>
        <time>2014-05-20T07:39:22Z</time>
      </trkpt>
      <trkpt lat="43.78484" lon="5.33008">
        <ele>589</ele>
        <time>2014-05-20T07:39:23Z</time>
      </trkpt>
      <trkpt lat="43.78484" lon="5.33001">
        <ele>589</ele>
        <time>2014-05-20T07:39:28Z</time>
      </trkpt>
      <trkpt lat="43.78482" lon="5.32998">
        <ele>591</ele>
        <time>2014-05-20T07:39:31Z</time>
      </trkpt>
      <trkpt lat="43.78481" lon="5.32994">
        <ele>591</ele>
        <time>2014-05-20T07:39:33Z</time>
      </trkpt>
      <trkpt lat="43.7848" lon="5.32983">
        <ele>591</ele>
        <time>2014-05-20T07:39:42Z</time>
      </trkpt>
      <trkpt lat="43.78479" lon="5.32977">
        <ele>591</ele>
        <time>2014-05-20T07:39:46Z</time>
      </trkpt>
      <trkpt lat="43.7848" lon="5.32974">
        <ele>591</ele>
        <time>2014-05-20T07:39:48Z</time>
      </trkpt>
      <trkpt lat="43.78481" lon="5.3297">
        <ele>591</ele>
        <time>2014-05-20T07:39:51Z</time>
      </trkpt>
      <trkpt lat="43.78483" lon="5.32968">
        <ele>592</ele>
        <time>2014-05-20T07:39:53Z</time>
      </trkpt>
      <trkpt lat="43.78487" lon="5.32966">
        <ele>592</ele>
        <time>2014-05-20T07:39:57Z</time>
      </trkpt>
      <trkpt lat="43.7849" lon="5.32964">
        <ele>592</ele>
        <time>2014-05-20T07:40:01Z</time>
      </trkpt>
      <trkpt lat="43.78494" lon="5.32965">
        <ele>592</ele>
        <time>2014-05-20T07:40:05Z</time>
      </trkpt>
      <trkpt lat="43.78496" lon="5.32966">
        <ele>592</ele>
        <time>2014-05-20T07:40:07Z</time>
      </trkpt>
      <trkpt lat="43.78497" lon="5.32967">
        <ele>592</ele>
        <time>2014-05-20T07:40:09Z</time>
      </trkpt>
      <trkpt lat="43.785" lon="5.3297">
        <ele>585</ele>
        <time>2014-05-20T07:40:13Z</time>
      </trkpt>
      <trkpt lat="43.78503" lon="5.32971">
        <ele>585</ele>
        <time>2014-05-20T07:40:16Z</time>
      </trkpt>
      <trkpt lat="43.78505" lon="5.32972">
        <ele>585</ele>
        <time>2014-05-20T07:40:18Z</time>
      </trkpt>
      <trkpt lat="43.78508" lon="5.32973">
        <ele>585</ele>
        <time>2014-05-20T07:40:21Z</time>
      </trkpt>
      <trkpt lat="43.78509" lon="5.32973">
        <ele>585</ele>
        <time>2014-05-20T07:40:22Z</time>
      </trkpt>
      <trkpt lat="43.78511" lon="5.32978">
        <ele>585</ele>
        <time>2014-05-20T07:40:25Z</time>
      </trkpt>
      <trkpt lat="43.78513" lon="5.32986">
        <ele>585</ele>
        <time>2014-05-20T07:40:31Z</time>
      </trkpt>
      <trkpt lat="43.78514" lon="5.32988">
        <ele>585</ele>
        <time>2014-05-20T07:40:33Z</time>
      </trkpt>
      <trkpt lat="43.78516" lon="5.32989">
        <ele>585</ele>
        <time>2014-05-20T07:40:35Z</time>
      </trkpt>
      <trkpt lat="43.78518" lon="5.32988">
        <ele>584</ele>
        <time>2014-05-20T07:40:38Z</time>
      </trkpt>
      <trkpt lat="43.78518" lon="5.32989">
        <ele>584</ele>
        <time>2014-05-20T07:40:39Z</time>
      </trkpt>
      <trkpt lat="43.78521" lon="5.32989">
        <ele>584</ele>
        <time>2014-05-20T07:40:42Z</time>
      </trkpt>
      <trkpt lat="43.78524" lon="5.32988">
        <ele>583</ele>
        <time>2014-05-20T07:40:47Z</time>
      </trkpt>
      <trkpt lat="43.78525" lon="5.32988">
        <ele>583</ele>
        <time>2014-05-20T07:40:49Z</time>
      </trkpt>
      <trkpt lat="43.78527" lon="5.32987">
        <ele>583</ele>
        <time>2014-05-20T07:40:52Z</time>
      </trkpt>
      <trkpt lat="43.7853" lon="5.32988">
        <ele>582</ele>
        <time>2014-05-20T07:40:55Z</time>
      </trkpt>
      <trkpt lat="43.78531" lon="5.32987">
        <ele>582</ele>
        <time>2014-05-20T07:40:58Z</time>
      </trkpt>
      <trkpt lat="43.78534" lon="5.32987">
        <ele>581</ele>
        <time>2014-05-20T07:41:02Z</time>
      </trkpt>
      <trkpt lat="43.78537" lon="5.32989">
        <ele>581</ele>
        <time>2014-05-20T07:41:07Z</time>
      </trkpt>
      <trkpt lat="43.78541" lon="5.32989">
        <ele>580</ele>
        <time>2014-05-20T07:41:12Z</time>
      </trkpt>
      <trkpt lat="43.78541" lon="5.3299">
        <ele>580</ele>
        <time>2014-05-20T07:41:13Z</time>
      </trkpt>
      <trkpt lat="43.78541" lon="5.3299">
        <ele>580</ele>
        <time>2014-05-20T07:41:14Z</time>
      </trkpt>
      <trkpt lat="43.78542" lon="5.32989">
        <ele>580</ele>
        <time>2014-05-20T07:41:16Z</time>
      </trkpt>
      <trkpt lat="43.78544" lon="5.3299">
        <ele>579</ele>
        <time>2014-05-20T07:41:19Z</time>
      </trkpt>
      <trkpt lat="43.78547" lon="5.32991">
        <ele>578</ele>
        <time>2014-05-20T07:41:24Z</time>
      </trkpt>
      <trkpt lat="43.7855" lon="5.3299">
        <ele>578</ele>
        <time>2014-05-20T07:41:30Z</time>
      </trkpt>
      <trkpt lat="43.78551" lon="5.32991">
        <ele>577</ele>
        <time>2014-05-20T07:41:32Z</time>
      </trkpt>
      <trkpt lat="43.78554" lon="5.3299">
        <ele>577</ele>
        <time>2014-05-20T07:41:37Z</time>
      </trkpt>
      <trkpt lat="43.78556" lon="5.3299">
        <ele>576</ele>
        <time>2014-05-20T07:41:40Z</time>
      </trkpt>
      <trkpt lat="43.7856" lon="5.3299">
        <ele>575</ele>
        <time>2014-05-20T07:41:44Z</time>
      </trkpt>
      <trkpt lat="43.7856" lon="5.32989">
        <ele>575</ele>
        <time>2014-05-20T07:41:45Z</time>
      </trkpt>
      <trkpt lat="43.78561" lon="5.32988">
        <ele>575</ele>
        <time>2014-05-20T07:41:47Z</time>
      </trkpt>
      <trkpt lat="43.78566" lon="5.32987">
        <ele>574</ele>
        <time>2014-05-20T07:41:53Z</time>
      </trkpt>
      <trkpt lat="43.78568" lon="5.32985">
        <ele>574</ele>
        <time>2014-05-20T07:41:57Z</time>
      </trkpt>
      <trkpt lat="43.78571" lon="5.32984">
        <ele>573</ele>
        <time>2014-05-20T07:42:02Z</time>
      </trkpt>
      <trkpt lat="43.78573" lon="5.32984">
        <ele>573</ele>
        <time>2014-05-20T07:42:05Z</time>
      </trkpt>
      <trkpt lat="43.78574" lon="5.32983">
        <ele>573</ele>
        <time>2014-05-20T07:42:08Z</time>
      </trkpt>
      <trkpt lat="43.78575" lon="5.32983">
        <ele>573</ele>
        <time>2014-05-20T07:42:09Z</time>
      </trkpt>
      <trkpt lat="43.78576" lon="5.32983">
        <ele>572</ele>
        <time>2014-05-20T07:42:11Z</time>
      </trkpt>
      <trkpt lat="43.78577" lon="5.32982">
        <ele>572</ele>
        <time>2014-05-20T07:42:13Z</time>
      </trkpt>
      <trkpt lat="43.78579" lon="5.32983">
        <ele>572</ele>
        <time>2014-05-20T07:42:16Z</time>
      </trkpt>
      <trkpt lat="43.78586" lon="5.32983">
        <ele>561</ele>
        <time>2014-05-20T07:42:25Z</time>
      </trkpt>
      <trkpt lat="43.78591" lon="5.32984">
        <ele>560</ele>
        <time>2014-05-20T07:42:31Z</time>
      </trkpt>
      <trkpt lat="43.78592" lon="5.32984">
        <ele>560</ele>
        <time>2014-05-20T07:42:32Z</time>
      </trkpt>
      <trkpt lat="43.78596" lon="5.32985">
        <ele>560</ele>
        <time>2014-05-20T07:42:37Z</time>
      </trkpt>
      <trkpt lat="43.78604" lon="5.32991">
        <ele>559</ele>
        <time>2014-05-20T07:42:47Z</time>
      </trkpt>
      <trkpt lat="43.78608" lon="5.32992">
        <ele>558</ele>
        <time>2014-05-20T07:42:51Z</time>
      </trkpt>
      <trkpt lat="43.7861" lon="5.32994">
        <ele>558</ele>
        <time>2014-05-20T07:42:55Z</time>
      </trkpt>
      <trkpt lat="43.7861" lon="5.32995">
        <ele>558</ele>
        <time>2014-05-20T07:43:03Z</time>
      </trkpt>
      <trkpt lat="43.78611" lon="5.32994">
        <ele>558</ele>
        <time>2014-05-20T07:43:09Z</time>
      </trkpt>
      <trkpt lat="43.78612" lon="5.32994">
        <ele>558</ele>
        <time>2014-05-20T07:43:11Z</time>
      </trkpt>
      <trkpt lat="43.78613" lon="5.32995">
        <ele>557</ele>
        <time>2014-05-20T07:43:16Z</time>
      </trkpt>
      <trkpt lat="43.78613" lon="5.32995">
        <ele>557</ele>
        <time>2014-05-20T07:43:28Z</time>
      </trkpt>
      <trkpt lat="43.78614" lon="5.32995">
        <ele>557</ele>
        <time>2014-05-20T07:43:31Z</time>
      </trkpt>
      <trkpt lat="43.78615" lon="5.32996">
        <ele>557</ele>
        <time>2014-05-20T07:43:33Z</time>
      </trkpt>
      <trkpt lat="43.78616" lon="5.32996">
        <ele>557</ele>
        <time>2014-05-20T07:43:36Z</time>
      </trkpt>
      <trkpt lat="43.78616" lon="5.32995">
        <ele>557</ele>
        <time>2014-05-20T07:43:39Z</time>
      </trkpt>
      <trkpt lat="43.78618" lon="5.32996">
        <ele>556</ele>
        <time>2014-05-20T07:43:41Z</time>
      </trkpt>
      <trkpt lat="43.7862" lon="5.32994">
        <ele>556</ele>
        <time>2014-05-20T07:43:46Z</time>
      </trkpt>
      <trkpt lat="43.78621" lon="5.32994">
        <ele>556</ele>
        <time>2014-05-20T07:43:49Z</time>
      </trkpt>
      <trkpt lat="43.78622" lon="5.32994">
        <ele>556</ele>
        <time>2014-05-20T07:43:50Z</time>
      </trkpt>
      <trkpt lat="43.78625" lon="5.32993">
        <ele>555</ele>
        <time>2014-05-20T07:43:56Z</time>
      </trkpt>
      <trkpt lat="43.78628" lon="5.32994">
        <ele>554</ele>
        <time>2014-05-20T07:44:00Z</time>
      </trkpt>
      <trkpt lat="43.78631" lon="5.32995">
        <ele>553</ele>
        <time>2014-05-20T07:44:03Z</time>
      </trkpt>
      <trkpt lat="43.78638" lon="5.32996">
        <ele>551</ele>
        <time>2014-05-20T07:44:10Z</time>
      </trkpt>
      <trkpt lat="43.78639" lon="5.32997">
        <ele>551</ele>
        <time>2014-05-20T07:44:13Z</time>
      </trkpt>
      <trkpt lat="43.7864" lon="5.32997">
        <ele>551</ele>
        <time>2014-05-20T07:44:14Z</time>
      </trkpt>
      <trkpt lat="43.78642" lon="5.32996">
        <ele>550</ele>
        <time>2014-05-20T07:44:17Z</time>
      </trkpt>
      <trkpt lat="43.78644" lon="5.32996">
        <ele>549</ele>
        <time>2014-05-20T07:44:20Z</time>
      </trkpt>
      <trkpt lat="43.78645" lon="5.32997">
        <ele>549</ele>
        <time>2014-05-20T07:44:22Z</time>
      </trkpt>
      <trkpt lat="43.78646" lon="5.32998">
        <ele>549</ele>
        <time>2014-05-20T07:44:23Z</time>
      </trkpt>
      <trkpt lat="43.78648" lon="5.32997">
        <ele>548</ele>
        <time>2014-05-20T07:44:26Z</time>
      </trkpt>
      <trkpt lat="43.7865" lon="5.32998">
        <ele>547</ele>
        <time>2014-05-20T07:44:30Z</time>
      </trkpt>
      <trkpt lat="43.78651" lon="5.33">
        <ele>545</ele>
        <time>2014-05-20T07:44:34Z</time>
      </trkpt>
      <trkpt lat="43.78651" lon="5.33001">
        <ele>545</ele>
        <time>2014-05-20T07:44:35Z</time>
      </trkpt>
      <trkpt lat="43.7865" lon="5.33">
        <ele>546</ele>
        <time>2014-05-20T07:44:36Z</time>
      </trkpt>
      <trkpt lat="43.7865" lon="5.33">
        <ele>546</ele>
        <time>2014-05-20T07:44:38Z</time>
      </trkpt>
      <trkpt lat="43.78654" lon="5.33001">
        <ele>544</ele>
        <time>2014-05-20T07:44:42Z</time>
      </trkpt>
      <trkpt lat="43.78656" lon="5.33003">
        <ele>543</ele>
        <time>2014-05-20T07:44:45Z</time>
      </trkpt>
      <trkpt lat="43.78657" lon="5.33002">
        <ele>543</ele>
        <time>2014-05-20T07:44:48Z</time>
      </trkpt>
      <trkpt lat="43.78658" lon="5.33002">
        <ele>542</ele>
        <time>2014-05-20T07:44:52Z</time>
      </trkpt>
      <trkpt lat="43.78661" lon="5.33005">
        <ele>542</ele>
        <time>2014-05-20T07:44:57Z</time>
      </trkpt>
      <trkpt lat="43.78666" lon="5.33005">
        <ele>540</ele>
        <time>2014-05-20T07:45:00Z</time>
      </trkpt>
      <trkpt lat="43.7867" lon="5.33007">
        <ele>535</ele>
        <time>2014-05-20T07:45:04Z</time>
      </trkpt>
      <trkpt lat="43.78676" lon="5.33006">
        <ele>534</ele>
        <time>2014-05-20T07:45:12Z</time>
      </trkpt>
      <trkpt lat="43.78677" lon="5.33003">
        <ele>534</ele>
        <time>2014-05-20T07:45:15Z</time>
      </trkpt>
      <trkpt lat="43.7868" lon="5.33002">
        <ele>534</ele>
        <time>2014-05-20T07:45:17Z</time>
      </trkpt>
      <trkpt lat="43.7869" lon="5.33001">
        <ele>531</ele>
        <time>2014-05-20T07:45:26Z</time>
      </trkpt>
      <trkpt lat="43.78694" lon="5.33">
        <ele>532</ele>
        <time>2014-05-20T07:45:29Z</time>
      </trkpt>
      <trkpt lat="43.78698" lon="5.33001">
        <ele>530</ele>
        <time>2014-05-20T07:45:33Z</time>
      </trkpt>
      <trkpt lat="43.78702" lon="5.33001">
        <ele>529</ele>
        <time>2014-05-20T07:45:37Z</time>
      </trkpt>
      <trkpt lat="43.78703" lon="5.33001">
        <ele>529</ele>
        <time>2014-05-20T07:45:39Z</time>
      </trkpt>
      <trkpt lat="43.78707" lon="5.33003">
        <ele>528</ele>
        <time>2014-05-20T07:45:43Z</time>
      </trkpt>
      <trkpt lat="43.78708" lon="5.33003">
        <ele>528</ele>
        <time>2014-05-20T07:45:44Z</time>
      </trkpt>
      <trkpt lat="43.78712" lon="5.33003">
        <ele>527</ele>
        <time>2014-05-20T07:45:47Z</time>
      </trkpt>
      <trkpt lat="43.78713" lon="5.33003">
        <ele>527</ele>
        <time>2014-05-20T07:45:48Z</time>
      </trkpt>
      <trkpt lat="43.78716" lon="5.33003">
        <ele>526</ele>
        <time>2014-05-20T07:45:51Z</time>
      </trkpt>
      <trkpt lat="43.78726" lon="5.33002">
        <ele>523</ele>
        <time>2014-05-20T07:46:01Z</time>
      </trkpt>
      <trkpt lat="43.78734" lon="5.32999">
        <ele>521</ele>
        <time>2014-05-20T07:46:10Z</time>
      </trkpt>
      <trkpt lat="43.78736" lon="5.32999">
        <ele>520</ele>
        <time>2014-05-20T07:46:12Z</time>
      </trkpt>
      <trkpt lat="43.7874" lon="5.33">
        <ele>518</ele>
        <time>2014-05-20T07:46:16Z</time>
      </trkpt>
      <trkpt lat="43.78742" lon="5.33001">
        <ele>517</ele>
        <time>2014-05-20T07:46:18Z</time>
      </trkpt>
      <trkpt lat="43.78747" lon="5.33">
        <ele>514</ele>
        <time>2014-05-20T07:46:24Z</time>
      </trkpt>
      <trkpt lat="43.78752" lon="5.33003">
        <ele>512</ele>
        <time>2014-05-20T07:46:30Z</time>
      </trkpt>
      <trkpt lat="43.78755" lon="5.33003">
        <ele>512</ele>
        <time>2014-05-20T07:46:32Z</time>
      </trkpt>
      <trkpt lat="43.78757" lon="5.33001">
        <ele>511</ele>
        <time>2014-05-20T07:46:35Z</time>
      </trkpt>
      <trkpt lat="43.78763" lon="5.32996">
        <ele>508</ele>
        <time>2014-05-20T07:46:42Z</time>
      </trkpt>
      <trkpt lat="43.78767" lon="5.32994">
        <ele>507</ele>
        <time>2014-05-20T07:46:50Z</time>
      </trkpt>
      <trkpt lat="43.78768" lon="5.32993">
        <ele>507</ele>
        <time>2014-05-20T07:46:54Z</time>
      </trkpt>
      <trkpt lat="43.78769" lon="5.32994">
        <ele>507</ele>
        <time>2014-05-20T07:46:57Z</time>
      </trkpt>
      <trkpt lat="43.7877" lon="5.32987">
        <ele>507</ele>
        <time>2014-05-20T07:47:14Z</time>
      </trkpt>
      <trkpt lat="43.78773" lon="5.32978">
        <ele>506</ele>
        <time>2014-05-20T07:47:23Z</time>
      </trkpt>
      <trkpt lat="43.78774" lon="5.32976">
        <ele>506</ele>
        <time>2014-05-20T07:47:25Z</time>
      </trkpt>
      <trkpt lat="43.78777" lon="5.3297">
        <ele>505</ele>
        <time>2014-05-20T07:47:30Z</time>
      </trkpt>
      <trkpt lat="43.78782" lon="5.3296">
        <ele>505</ele>
        <time>2014-05-20T07:47:40Z</time>
      </trkpt>
      <trkpt lat="43.78784" lon="5.32955">
        <ele>505</ele>
        <time>2014-05-20T07:47:44Z</time>
      </trkpt>
      <trkpt lat="43.78786" lon="5.32951">
        <ele>504</ele>
        <time>2014-05-20T07:47:47Z</time>
      </trkpt>
      <trkpt lat="43.7879" lon="5.32943">
        <ele>504</ele>
        <time>2014-05-20T07:47:53Z</time>
      </trkpt>
      <trkpt lat="43.7879" lon="5.32941">
        <ele>504</ele>
        <time>2014-05-20T07:47:55Z</time>
      </trkpt>
      <trkpt lat="43.78793" lon="5.32934">
        <ele>503</ele>
        <time>2014-05-20T07:48:00Z</time>
      </trkpt>
      <trkpt lat="43.78798" lon="5.32925">
        <ele>502</ele>
        <time>2014-05-20T07:48:07Z</time>
      </trkpt>
      <trkpt lat="43.78801" lon="5.32918">
        <ele>501</ele>
        <time>2014-05-20T07:48:12Z</time>
      </trkpt>
      <trkpt lat="43.78801" lon="5.32917">
        <ele>507</ele>
        <time>2014-05-20T07:48:13Z</time>
      </trkpt>
      <trkpt lat="43.78804" lon="5.3291">
        <ele>506</ele>
        <time>2014-05-20T07:48:18Z</time>
      </trkpt>
      <trkpt lat="43.78806" lon="5.32902">
        <ele>507</ele>
        <time>2014-05-20T07:48:23Z</time>
      </trkpt>
      <trkpt lat="43.78807" lon="5.32898">
        <ele>507</ele>
        <time>2014-05-20T07:48:27Z</time>
      </trkpt>
      <trkpt lat="43.78808" lon="5.32897">
        <ele>507</ele>
        <time>2014-05-20T07:48:33Z</time>
      </trkpt>
      <trkpt lat="43.78808" lon="5.32896">
        <ele>507</ele>
        <time>2014-05-20T07:48:37Z</time>
      </trkpt>
      <trkpt lat="43.7882" lon="5.32865">
        <ele>510</ele>
        <time>2014-05-20T07:48:59Z</time>
      </trkpt>
      <trkpt lat="43.78826" lon="5.32853">
        <ele>510</ele>
        <time>2014-05-20T07:49:08Z</time>
      </trkpt>
      <trkpt lat="43.78827" lon="5.32851">
        <ele>510</ele>
        <time>2014-05-20T07:49:09Z</time>
      </trkpt>
      <trkpt lat="43.78831" lon="5.32843">
        <ele>508</ele>
        <time>2014-05-20T07:49:15Z</time>
      </trkpt>
      <trkpt lat="43.78835" lon="5.32831">
        <ele>505</ele>
        <time>2014-05-20T07:49:24Z</time>
      </trkpt>
      <trkpt lat="43.78836" lon="5.32829">
        <ele>504</ele>
        <time>2014-05-20T07:49:25Z</time>
      </trkpt>
      <trkpt lat="43.7884" lon="5.32818">
        <ele>502</ele>
        <time>2014-05-20T07:49:32Z</time>
      </trkpt>
      <trkpt lat="43.78844" lon="5.32808">
        <ele>501</ele>
        <time>2014-05-20T07:49:40Z</time>
      </trkpt>
      <trkpt lat="43.78844" lon="5.32803">
        <ele>502</ele>
        <time>2014-05-20T07:49:43Z</time>
      </trkpt>
      <trkpt lat="43.78848" lon="5.32795">
        <ele>502</ele>
        <time>2014-05-20T07:49:49Z</time>
      </trkpt>
      <trkpt lat="43.7885" lon="5.32787">
        <ele>503</ele>
        <time>2014-05-20T07:49:55Z</time>
      </trkpt>
      <trkpt lat="43.78856" lon="5.32773">
        <ele>504</ele>
        <time>2014-05-20T07:50:05Z</time>
      </trkpt>
      <trkpt lat="43.78858" lon="5.32768">
        <ele>505</ele>
        <time>2014-05-20T07:50:09Z</time>
      </trkpt>
      <trkpt lat="43.78861" lon="5.32759">
        <ele>505</ele>
        <time>2014-05-20T07:50:15Z</time>
      </trkpt>
      <trkpt lat="43.78863" lon="5.32749">
        <ele>513</ele>
        <time>2014-05-20T07:50:22Z</time>
      </trkpt>
      <trkpt lat="43.78866" lon="5.32743">
        <ele>512</ele>
        <time>2014-05-20T07:50:26Z</time>
      </trkpt>
      <trkpt lat="43.78868" lon="5.32739">
        <ele>512</ele>
        <time>2014-05-20T07:50:29Z</time>
      </trkpt>
      <trkpt lat="43.78869" lon="5.32735">
        <ele>512</ele>
        <time>2014-05-20T07:50:34Z</time>
      </trkpt>
      <trkpt lat="43.7887" lon="5.32733">
        <ele>511</ele>
        <time>2014-05-20T07:50:46Z</time>
      </trkpt>
      <trkpt lat="43.78871" lon="5.32729">
        <ele>511</ele>
        <time>2014-05-20T07:50:50Z</time>
      </trkpt>
      <trkpt lat="43.78872" lon="5.32727">
        <ele>511</ele>
        <time>2014-05-20T07:50:52Z</time>
      </trkpt>
      <trkpt lat="43.78873" lon="5.32722">
        <ele>511</ele>
        <time>2014-05-20T07:50:55Z</time>
      </trkpt>
      <trkpt lat="43.78876" lon="5.32712">
        <ele>511</ele>
        <time>2014-05-20T07:51:02Z</time>
      </trkpt>
      <trkpt lat="43.78878" lon="5.32698">
        <ele>511</ele>
        <time>2014-05-20T07:51:12Z</time>
      </trkpt>
      <trkpt lat="43.78877" lon="5.32693">
        <ele>512</ele>
        <time>2014-05-20T07:51:15Z</time>
      </trkpt>
      <trkpt lat="43.7888" lon="5.32682">
        <ele>511</ele>
        <time>2014-05-20T07:51:23Z</time>
      </trkpt>
      <trkpt lat="43.7888" lon="5.32681">
        <ele>511</ele>
        <time>2014-05-20T07:51:24Z</time>
      </trkpt>
      <trkpt lat="43.78881" lon="5.3267">
        <ele>511</ele>
        <time>2014-05-20T07:51:31Z</time>
      </trkpt>
      <trkpt lat="43.78883" lon="5.32664">
        <ele>515</ele>
        <time>2014-05-20T07:51:35Z</time>
      </trkpt>
      <trkpt lat="43.78885" lon="5.32656">
        <ele>515</ele>
        <time>2014-05-20T07:51:40Z</time>
      </trkpt>
      <trkpt lat="43.78885" lon="5.32653">
        <ele>515</ele>
        <time>2014-05-20T07:51:42Z</time>
      </trkpt>
      <trkpt lat="43.78885" lon="5.3265">
        <ele>515</ele>
        <time>2014-05-20T07:51:44Z</time>
      </trkpt>
      <trkpt lat="43.78886" lon="5.32646">
        <ele>515</ele>
        <time>2014-05-20T07:51:46Z</time>
      </trkpt>
      <trkpt lat="43.78887" lon="5.32639">
        <ele>516</ele>
        <time>2014-05-20T07:51:51Z</time>
      </trkpt>
      <trkpt lat="43.78887" lon="5.32637">
        <ele>516</ele>
        <time>2014-05-20T07:51:52Z</time>
      </trkpt>
      <trkpt lat="43.78888" lon="5.32634">
        <ele>516</ele>
        <time>2014-05-20T07:51:54Z</time>
      </trkpt>
      <trkpt lat="43.78889" lon="5.32614">
        <ele>516</ele>
        <time>2014-05-20T07:52:06Z</time>
      </trkpt>
      <trkpt lat="43.78889" lon="5.32611">
        <ele>516</ele>
        <time>2014-05-20T07:52:08Z</time>
      </trkpt>
      <trkpt lat="43.78889" lon="5.32606">
        <ele>516</ele>
        <time>2014-05-20T07:52:11Z</time>
      </trkpt>
      <trkpt lat="43.78888" lon="5.326">
        <ele>516</ele>
        <time>2014-05-20T07:52:15Z</time>
      </trkpt>
      <trkpt lat="43.78888" lon="5.32597">
        <ele>516</ele>
        <time>2014-05-20T07:52:17Z</time>
      </trkpt>
      <trkpt lat="43.78887" lon="5.32592">
        <ele>516</ele>
        <time>2014-05-20T07:52:22Z</time>
      </trkpt>
      <trkpt lat="43.78886" lon="5.32587">
        <ele>516</ele>
        <time>2014-05-20T07:52:25Z</time>
      </trkpt>
      <trkpt lat="43.78884" lon="5.3258">
        <ele>515</ele>
        <time>2014-05-20T07:52:30Z</time>
      </trkpt>
      <trkpt lat="43.78881" lon="5.32573">
        <ele>516</ele>
        <time>2014-05-20T07:52:35Z</time>
      </trkpt>
      <trkpt lat="43.7888" lon="5.32569">
        <ele>516</ele>
        <time>2014-05-20T07:52:38Z</time>
      </trkpt>
      <trkpt lat="43.7888" lon="5.32562">
        <ele>516</ele>
        <time>2014-05-20T07:52:42Z</time>
      </trkpt>
      <trkpt lat="43.78878" lon="5.32556">
        <ele>516</ele>
        <time>2014-05-20T07:52:46Z</time>
      </trkpt>
      <trkpt lat="43.78877" lon="5.32549">
        <ele>516</ele>
        <time>2014-05-20T07:52:50Z</time>
      </trkpt>
      <trkpt lat="43.78875" lon="5.32543">
        <ele>516</ele>
        <time>2014-05-20T07:52:54Z</time>
      </trkpt>
      <trkpt lat="43.78874" lon="5.32533">
        <ele>516</ele>
        <time>2014-05-20T07:53:00Z</time>
      </trkpt>
      <trkpt lat="43.78873" lon="5.32526">
        <ele>516</ele>
        <time>2014-05-20T07:53:04Z</time>
      </trkpt>
      <trkpt lat="43.78872" lon="5.3252">
        <ele>515</ele>
        <time>2014-05-20T07:53:08Z</time>
      </trkpt>
      <trkpt lat="43.78871" lon="5.32511">
        <ele>515</ele>
        <time>2014-05-20T07:53:13Z</time>
      </trkpt>
      <trkpt lat="43.78871" lon="5.32507">
        <ele>515</ele>
        <time>2014-05-20T07:53:15Z</time>
      </trkpt>
      <trkpt lat="43.78871" lon="5.32504">
        <ele>515</ele>
        <time>2014-05-20T07:53:17Z</time>
      </trkpt>
      <trkpt lat="43.7887" lon="5.32497">
        <ele>511</ele>
        <time>2014-05-20T07:53:21Z</time>
      </trkpt>
      <trkpt lat="43.78871" lon="5.32477">
        <ele>511</ele>
        <time>2014-05-20T07:53:32Z</time>
      </trkpt>
      <trkpt lat="43.78872" lon="5.3247">
        <ele>510</ele>
        <time>2014-05-20T07:53:36Z</time>
      </trkpt>
      <trkpt lat="43.78872" lon="5.32467">
        <ele>510</ele>
        <time>2014-05-20T07:53:38Z</time>
      </trkpt>
      <trkpt lat="43.78873" lon="5.32463">
        <ele>510</ele>
        <time>2014-05-20T07:53:40Z</time>
      </trkpt>
      <trkpt lat="43.78875" lon="5.32452">
        <ele>510</ele>
        <time>2014-05-20T07:53:47Z</time>
      </trkpt>
      <trkpt lat="43.78877" lon="5.32447">
        <ele>510</ele>
        <time>2014-05-20T07:53:50Z</time>
      </trkpt>
      <trkpt lat="43.78879" lon="5.32439">
        <ele>510</ele>
        <time>2014-05-20T07:53:55Z</time>
      </trkpt>
      <trkpt lat="43.78884" lon="5.32426">
        <ele>509</ele>
        <time>2014-05-20T07:54:04Z</time>
      </trkpt>
      <trkpt lat="43.78884" lon="5.32421">
        <ele>509</ele>
        <time>2014-05-20T07:54:07Z</time>
      </trkpt>
      <trkpt lat="43.78886" lon="5.32412">
        <ele>508</ele>
        <time>2014-05-20T07:54:13Z</time>
      </trkpt>
      <trkpt lat="43.78886" lon="5.32409">
        <ele>508</ele>
        <time>2014-05-20T07:54:15Z</time>
      </trkpt>
      <trkpt lat="43.78886" lon="5.32406">
        <ele>508</ele>
        <time>2014-05-20T07:54:17Z</time>
      </trkpt>
      <trkpt lat="43.78889" lon="5.32392">
        <ele>508</ele>
        <time>2014-05-20T07:54:26Z</time>
      </trkpt>
      <trkpt lat="43.78888" lon="5.32386">
        <ele>508</ele>
        <time>2014-05-20T07:54:30Z</time>
      </trkpt>
      <trkpt lat="43.78889" lon="5.32381">
        <ele>508</ele>
        <time>2014-05-20T07:54:34Z</time>
      </trkpt>
      <trkpt lat="43.78895" lon="5.3237">
        <ele>508</ele>
        <time>2014-05-20T07:54:42Z</time>
      </trkpt>
      <trkpt lat="43.78899" lon="5.32365">
        <ele>509</ele>
        <time>2014-05-20T07:54:46Z</time>
      </trkpt>
      <trkpt lat="43.78903" lon="5.32357">
        <ele>510</ele>
        <time>2014-05-20T07:54:52Z</time>
      </trkpt>
      <trkpt lat="43.78911" lon="5.32346">
        <ele>513</ele>
        <time>2014-05-20T07:55:01Z</time>
      </trkpt>
      <trkpt lat="43.78913" lon="5.32342">
        <ele>515</ele>
        <time>2014-05-20T07:55:04Z</time>
      </trkpt>
      <trkpt lat="43.78916" lon="5.32338">
        <ele>517</ele>
        <time>2014-05-20T07:55:07Z</time>
      </trkpt>
      <trkpt lat="43.78918" lon="5.32333">
        <ele>519</ele>
        <time>2014-05-20T07:55:11Z</time>
      </trkpt>
      <trkpt lat="43.78924" lon="5.32326">
        <ele>519</ele>
        <time>2014-05-20T07:55:17Z</time>
      </trkpt>
      <trkpt lat="43.78926" lon="5.32324">
        <ele>519</ele>
        <time>2014-05-20T07:55:19Z</time>
      </trkpt>
      <trkpt lat="43.78928" lon="5.32321">
        <ele>519</ele>
        <time>2014-05-20T07:55:22Z</time>
      </trkpt>
      <trkpt lat="43.78934" lon="5.32314">
        <ele>519</ele>
        <time>2014-05-20T07:55:28Z</time>
      </trkpt>
      <trkpt lat="43.78937" lon="5.32312">
        <ele>519</ele>
        <time>2014-05-20T07:55:31Z</time>
      </trkpt>
      <trkpt lat="43.78939" lon="5.32309">
        <ele>519</ele>
        <time>2014-05-20T07:55:33Z</time>
      </trkpt>
      <trkpt lat="43.78942" lon="5.32307">
        <ele>519</ele>
        <time>2014-05-20T07:55:36Z</time>
      </trkpt>
      <trkpt lat="43.78946" lon="5.32303">
        <ele>519</ele>
        <time>2014-05-20T07:55:40Z</time>
      </trkpt>
      <trkpt lat="43.78951" lon="5.32298">
        <ele>519</ele>
        <time>2014-05-20T07:55:46Z</time>
      </trkpt>
      <trkpt lat="43.78959" lon="5.32294">
        <ele>519</ele>
        <time>2014-05-20T07:55:53Z</time>
      </trkpt>
      <trkpt lat="43.78972" lon="5.32284">
        <ele>519</ele>
        <time>2014-05-20T07:56:06Z</time>
      </trkpt>
      <trkpt lat="43.78979" lon="5.32281">
        <ele>520</ele>
        <time>2014-05-20T07:56:12Z</time>
      </trkpt>
      <trkpt lat="43.78982" lon="5.3228">
        <ele>520</ele>
        <time>2014-05-20T07:56:14Z</time>
      </trkpt>
      <trkpt lat="43.78988" lon="5.32277">
        <ele>520</ele>
        <time>2014-05-20T07:56:19Z</time>
      </trkpt>
      <trkpt lat="43.79" lon="5.32271">
        <ele>521</ele>
        <time>2014-05-20T07:56:30Z</time>
      </trkpt>
      <trkpt lat="43.79004" lon="5.32267">
        <ele>515</ele>
        <time>2014-05-20T07:56:35Z</time>
      </trkpt>
      <trkpt lat="43.79012" lon="5.3226">
        <ele>515</ele>
        <time>2014-05-20T07:56:42Z</time>
      </trkpt>
      <trkpt lat="43.79014" lon="5.32257">
        <ele>515</ele>
        <time>2014-05-20T07:56:45Z</time>
      </trkpt>
      <trkpt lat="43.79015" lon="5.32255">
        <ele>515</ele>
        <time>2014-05-20T07:56:46Z</time>
      </trkpt>
      <trkpt lat="43.79015" lon="5.32251">
        <ele>515</ele>
        <time>2014-05-20T07:56:49Z</time>
      </trkpt>
      <trkpt lat="43.79016" lon="5.32246">
        <ele>516</ele>
        <time>2014-05-20T07:56:53Z</time>
      </trkpt>
      <trkpt lat="43.79014" lon="5.32233">
        <ele>515</ele>
        <time>2014-05-20T07:57:03Z</time>
      </trkpt>
      <trkpt lat="43.79013" lon="5.32225">
        <ele>514</ele>
        <time>2014-05-20T07:57:09Z</time>
      </trkpt>
      <trkpt lat="43.79011" lon="5.32221">
        <ele>514</ele>
        <time>2014-05-20T07:57:13Z</time>
      </trkpt>
      <trkpt lat="43.79009" lon="5.32214">
        <ele>513</ele>
        <time>2014-05-20T07:57:18Z</time>
      </trkpt>
      <trkpt lat="43.79008" lon="5.32204">
        <ele>513</ele>
        <time>2014-05-20T07:57:25Z</time>
      </trkpt>
      <trkpt lat="43.79005" lon="5.32194">
        <ele>513</ele>
        <time>2014-05-20T07:57:32Z</time>
      </trkpt>
      <trkpt lat="43.79002" lon="5.32173">
        <ele>515</ele>
        <time>2014-05-20T07:57:43Z</time>
      </trkpt>
      <trkpt lat="43.79001" lon="5.32167">
        <ele>517</ele>
        <time>2014-05-20T07:57:47Z</time>
      </trkpt>
      <trkpt lat="43.79" lon="5.3216">
        <ele>517</ele>
        <time>2014-05-20T07:57:51Z</time>
      </trkpt>
      <trkpt lat="43.78998" lon="5.32154">
        <ele>517</ele>
        <time>2014-05-20T07:57:55Z</time>
      </trkpt>
      <trkpt lat="43.78997" lon="5.32153">
        <ele>517</ele>
        <time>2014-05-20T07:57:56Z</time>
      </trkpt>
      <trkpt lat="43.78995" lon="5.32146">
        <ele>517</ele>
        <time>2014-05-20T07:58:00Z</time>
      </trkpt>
      <trkpt lat="43.78989" lon="5.32137">
        <ele>517</ele>
        <time>2014-05-20T07:58:08Z</time>
      </trkpt>
      <trkpt lat="43.78987" lon="5.3213">
        <ele>517</ele>
        <time>2014-05-20T07:58:13Z</time>
      </trkpt>
      <trkpt lat="43.78982" lon="5.3212">
        <ele>517</ele>
        <time>2014-05-20T07:58:19Z</time>
      </trkpt>
      <trkpt lat="43.78981" lon="5.32116">
        <ele>516</ele>
        <time>2014-05-20T07:58:21Z</time>
      </trkpt>
      <trkpt lat="43.7898" lon="5.32113">
        <ele>516</ele>
        <time>2014-05-20T07:58:23Z</time>
      </trkpt>
      <trkpt lat="43.78979" lon="5.32105">
        <ele>516</ele>
        <time>2014-05-20T07:58:27Z</time>
      </trkpt>
      <trkpt lat="43.78976" lon="5.32099">
        <ele>516</ele>
        <time>2014-05-20T07:58:31Z</time>
      </trkpt>
      <trkpt lat="43.78974" lon="5.32098">
        <ele>516</ele>
        <time>2014-05-20T07:58:32Z</time>
      </trkpt>
      <trkpt lat="43.78973" lon="5.32094">
        <ele>516</ele>
        <time>2014-05-20T07:58:35Z</time>
      </trkpt>
      <trkpt lat="43.78973" lon="5.3209">
        <ele>516</ele>
        <time>2014-05-20T07:58:38Z</time>
      </trkpt>
      <trkpt lat="43.78973" lon="5.32088">
        <ele>516</ele>
        <time>2014-05-20T07:58:39Z</time>
      </trkpt>
      <trkpt lat="43.78977" lon="5.32083">
        <ele>514</ele>
        <time>2014-05-20T07:58:43Z</time>
      </trkpt>
      <trkpt lat="43.78983" lon="5.3208">
        <ele>515</ele>
        <time>2014-05-20T07:58:50Z</time>
      </trkpt>
      <trkpt lat="43.78989" lon="5.3208">
        <ele>516</ele>
        <time>2014-05-20T07:58:57Z</time>
      </trkpt>
      <trkpt lat="43.78992" lon="5.32079">
        <ele>516</ele>
        <time>2014-05-20T07:59:01Z</time>
      </trkpt>
      <trkpt lat="43.78998" lon="5.32079">
        <ele>517</ele>
        <time>2014-05-20T07:59:06Z</time>
      </trkpt>
      <trkpt lat="43.79001" lon="5.32077">
        <ele>520</ele>
        <time>2014-05-20T07:59:09Z</time>
      </trkpt>
      <trkpt lat="43.79002" lon="5.32077">
        <ele>520</ele>
        <time>2014-05-20T07:59:11Z</time>
      </trkpt>
      <trkpt lat="43.79008" lon="5.32078">
        <ele>520</ele>
        <time>2014-05-20T07:59:15Z</time>
      </trkpt>
      <trkpt lat="43.79011" lon="5.32078">
        <ele>521</ele>
        <time>2014-05-20T07:59:18Z</time>
      </trkpt>
      <trkpt lat="43.79018" lon="5.32078">
        <ele>522</ele>
        <time>2014-05-20T07:59:24Z</time>
      </trkpt>
      <trkpt lat="43.79025" lon="5.32081">
        <ele>522</ele>
        <time>2014-05-20T07:59:30Z</time>
      </trkpt>
      <trkpt lat="43.79027" lon="5.32081">
        <ele>523</ele>
        <time>2014-05-20T07:59:32Z</time>
      </trkpt>
      <trkpt lat="43.79034" lon="5.32083">
        <ele>523</ele>
        <time>2014-05-20T07:59:37Z</time>
      </trkpt>
      <trkpt lat="43.79038" lon="5.32084">
        <ele>517</ele>
        <time>2014-05-20T07:59:40Z</time>
      </trkpt>
      <trkpt lat="43.79047" lon="5.32087">
        <ele>517</ele>
        <time>2014-05-20T07:59:48Z</time>
      </trkpt>
      <trkpt lat="43.79051" lon="5.32088">
        <ele>517</ele>
        <time>2014-05-20T07:59:51Z</time>
      </trkpt>
      <trkpt lat="43.79054" lon="5.32088">
        <ele>517</ele>
        <time>2014-05-20T07:59:53Z</time>
      </trkpt>
      <trkpt lat="43.79057" lon="5.32088">
        <ele>517</ele>
        <time>2014-05-20T07:59:56Z</time>
      </trkpt>
      <trkpt lat="43.79065" lon="5.32087">
        <ele>518</ele>
        <time>2014-05-20T08:00:02Z</time>
      </trkpt>
      <trkpt lat="43.79073" lon="5.32087">
        <ele>519</ele>
        <time>2014-05-20T08:00:10Z</time>
      </trkpt>
      <trkpt lat="43.79075" lon="5.32086">
        <ele>520</ele>
        <time>2014-05-20T08:00:12Z</time>
      </trkpt>
      <trkpt lat="43.79089" lon="5.32087">
        <ele>519</ele>
        <time>2014-05-20T08:00:24Z</time>
      </trkpt>
      <trkpt lat="43.79091" lon="5.32087">
        <ele>519</ele>
        <time>2014-05-20T08:00:26Z</time>
      </trkpt>
      <trkpt lat="43.79094" lon="5.32086">
        <ele>518</ele>
        <time>2014-05-20T08:00:29Z</time>
      </trkpt>
      <trkpt lat="43.79102" lon="5.32086">
        <ele>516</ele>
        <time>2014-05-20T08:00:35Z</time>
      </trkpt>
      <trkpt lat="43.79105" lon="5.32086">
        <ele>516</ele>
        <time>2014-05-20T08:00:37Z</time>
      </trkpt>
      <trkpt lat="43.79111" lon="5.32086">
        <ele>515</ele>
        <time>2014-05-20T08:00:43Z</time>
      </trkpt>
      <trkpt lat="43.79127" lon="5.32087">
        <ele>514</ele>
        <time>2014-05-20T08:00:58Z</time>
      </trkpt>
      <trkpt lat="43.79128" lon="5.32086">
        <ele>514</ele>
        <time>2014-05-20T08:01:00Z</time>
      </trkpt>
      <trkpt lat="43.79141" lon="5.32086">
        <ele>515</ele>
        <time>2014-05-20T08:01:10Z</time>
      </trkpt>
      <trkpt lat="43.79157" lon="5.32083">
        <ele>521</ele>
        <time>2014-05-20T08:01:24Z</time>
      </trkpt>
      <trkpt lat="43.79159" lon="5.32082">
        <ele>520</ele>
        <time>2014-05-20T08:01:26Z</time>
      </trkpt>
      <trkpt lat="43.79163" lon="5.32081">
        <ele>520</ele>
        <time>2014-05-20T08:01:29Z</time>
      </trkpt>
      <trkpt lat="43.79169" lon="5.32079">
        <ele>517</ele>
        <time>2014-05-20T08:01:34Z</time>
      </trkpt>
      <trkpt lat="43.79173" lon="5.32074">
        <ele>515</ele>
        <time>2014-05-20T08:01:39Z</time>
      </trkpt>
      <trkpt lat="43.79175" lon="5.32073">
        <ele>514</ele>
        <time>2014-05-20T08:01:44Z</time>
      </trkpt>
      <trkpt lat="43.79175" lon="5.32073">
        <ele>514</ele>
        <time>2014-05-20T08:01:48Z</time>
      </trkpt>
      <trkpt lat="43.79176" lon="5.32071">
        <ele>513</ele>
        <time>2014-05-20T08:01:53Z</time>
      </trkpt>
      <trkpt lat="43.79176" lon="5.32065">
        <ele>512</ele>
        <time>2014-05-20T08:01:58Z</time>
      </trkpt>
      <trkpt lat="43.79175" lon="5.32061">
        <ele>512</ele>
        <time>2014-05-20T08:02:01Z</time>
      </trkpt>
      <trkpt lat="43.79174" lon="5.32054">
        <ele>511</ele>
        <time>2014-05-20T08:02:06Z</time>
      </trkpt>
      <trkpt lat="43.79172" lon="5.32052">
        <ele>511</ele>
        <time>2014-05-20T08:02:08Z</time>
      </trkpt>
      <trkpt lat="43.79171" lon="5.32044">
        <ele>511</ele>
        <time>2014-05-20T08:02:14Z</time>
      </trkpt>
      <trkpt lat="43.7917" lon="5.32035">
        <ele>512</ele>
        <time>2014-05-20T08:02:20Z</time>
      </trkpt>
      <trkpt lat="43.79169" lon="5.3203">
        <ele>513</ele>
        <time>2014-05-20T08:02:23Z</time>
      </trkpt>
      <trkpt lat="43.79169" lon="5.32028">
        <ele>513</ele>
        <time>2014-05-20T08:02:24Z</time>
      </trkpt>
      <trkpt lat="43.79168" lon="5.32023">
        <ele>514</ele>
        <time>2014-05-20T08:02:27Z</time>
      </trkpt>
      <trkpt lat="43.79168" lon="5.32017">
        <ele>515</ele>
        <time>2014-05-20T08:02:31Z</time>
      </trkpt>
      <trkpt lat="43.79167" lon="5.32014">
        <ele>516</ele>
        <time>2014-05-20T08:02:33Z</time>
      </trkpt>
      <trkpt lat="43.79166" lon="5.32006">
        <ele>523</ele>
        <time>2014-05-20T08:02:38Z</time>
      </trkpt>
      <trkpt lat="43.79164" lon="5.32001">
        <ele>523</ele>
        <time>2014-05-20T08:02:41Z</time>
      </trkpt>
      <trkpt lat="43.79163" lon="5.31997">
        <ele>524</ele>
        <time>2014-05-20T08:02:43Z</time>
      </trkpt>
      <trkpt lat="43.79162" lon="5.31983">
        <ele>526</ele>
        <time>2014-05-20T08:02:52Z</time>
      </trkpt>
      <trkpt lat="43.79161" lon="5.3198">
        <ele>526</ele>
        <time>2014-05-20T08:02:54Z</time>
      </trkpt>
      <trkpt lat="43.79158" lon="5.31967">
        <ele>526</ele>
        <time>2014-05-20T08:03:02Z</time>
      </trkpt>
      <trkpt lat="43.79157" lon="5.3195">
        <ele>526</ele>
        <time>2014-05-20T08:03:13Z</time>
      </trkpt>
      <trkpt lat="43.79155" lon="5.31945">
        <ele>526</ele>
        <time>2014-05-20T08:03:16Z</time>
      </trkpt>
      <trkpt lat="43.79154" lon="5.31938">
        <ele>525</ele>
        <time>2014-05-20T08:03:20Z</time>
      </trkpt>
      <trkpt lat="43.79154" lon="5.31937">
        <ele>525</ele>
        <time>2014-05-20T08:03:21Z</time>
      </trkpt>
      <trkpt lat="43.79153" lon="5.31929">
        <ele>524</ele>
        <time>2014-05-20T08:03:26Z</time>
      </trkpt>
      <trkpt lat="43.79151" lon="5.31926">
        <ele>524</ele>
        <time>2014-05-20T08:03:28Z</time>
      </trkpt>
      <trkpt lat="43.79151" lon="5.31924">
        <ele>524</ele>
        <time>2014-05-20T08:03:29Z</time>
      </trkpt>
      <trkpt lat="43.79149" lon="5.31922">
        <ele>524</ele>
        <time>2014-05-20T08:03:31Z</time>
      </trkpt>
      <trkpt lat="43.79148" lon="5.31918">
        <ele>525</ele>
        <time>2014-05-20T08:03:34Z</time>
      </trkpt>
      <trkpt lat="43.79144" lon="5.31915">
        <ele>522</ele>
        <time>2014-05-20T08:03:38Z</time>
      </trkpt>
      <trkpt lat="43.79143" lon="5.31914">
        <ele>522</ele>
        <time>2014-05-20T08:03:39Z</time>
      </trkpt>
      <trkpt lat="43.79141" lon="5.31911">
        <ele>522</ele>
        <time>2014-05-20T08:03:42Z</time>
      </trkpt>
      <trkpt lat="43.79133" lon="5.31904">
        <ele>523</ele>
        <time>2014-05-20T08:03:50Z</time>
      </trkpt>
      <trkpt lat="43.7913" lon="5.31902">
        <ele>524</ele>
        <time>2014-05-20T08:03:53Z</time>
      </trkpt>
      <trkpt lat="43.79122" lon="5.31894">
        <ele>524</ele>
        <time>2014-05-20T08:04:02Z</time>
      </trkpt>
      <trkpt lat="43.79111" lon="5.31884">
        <ele>525</ele>
        <time>2014-05-20T08:04:12Z</time>
      </trkpt>
      <trkpt lat="43.79101" lon="5.31874">
        <ele>526</ele>
        <time>2014-05-20T08:04:22Z</time>
      </trkpt>
      <trkpt lat="43.79098" lon="5.31872">
        <ele>526</ele>
        <time>2014-05-20T08:04:25Z</time>
      </trkpt>
      <trkpt lat="43.79097" lon="5.3187">
        <ele>526</ele>
        <time>2014-05-20T08:04:26Z</time>
      </trkpt>
      <trkpt lat="43.7909" lon="5.31865">
        <ele>526</ele>
        <time>2014-05-20T08:04:33Z</time>
      </trkpt>
      <trkpt lat="43.79086" lon="5.3186">
        <ele>527</ele>
        <time>2014-05-20T08:04:38Z</time>
      </trkpt>
      <trkpt lat="43.79082" lon="5.31856">
        <ele>531</ele>
        <time>2014-05-20T08:04:42Z</time>
      </trkpt>
      <trkpt lat="43.79082" lon="5.31853">
        <ele>531</ele>
        <time>2014-05-20T08:04:44Z</time>
      </trkpt>
      <trkpt lat="43.79081" lon="5.31852">
        <ele>531</ele>
        <time>2014-05-20T08:04:45Z</time>
      </trkpt>
      <trkpt lat="43.79071" lon="5.3184">
        <ele>530</ele>
        <time>2014-05-20T08:04:55Z</time>
      </trkpt>
      <trkpt lat="43.79067" lon="5.31831">
        <ele>532</ele>
        <time>2014-05-20T08:05:02Z</time>
      </trkpt>
      <trkpt lat="43.79064" lon="5.31819">
        <ele>532</ele>
        <time>2014-05-20T08:05:10Z</time>
      </trkpt>
      <trkpt lat="43.79062" lon="5.31805">
        <ele>533</ele>
        <time>2014-05-20T08:05:19Z</time>
      </trkpt>
      <trkpt lat="43.79062" lon="5.31795">
        <ele>533</ele>
        <time>2014-05-20T08:05:25Z</time>
      </trkpt>
      <trkpt lat="43.79064" lon="5.31786">
        <ele>534</ele>
        <time>2014-05-20T08:05:31Z</time>
      </trkpt>
      <trkpt lat="43.79068" lon="5.31779">
        <ele>534</ele>
        <time>2014-05-20T08:05:37Z</time>
      </trkpt>
      <trkpt lat="43.79071" lon="5.31774">
        <ele>534</ele>
        <time>2014-05-20T08:05:41Z</time>
      </trkpt>
      <trkpt lat="43.79072" lon="5.3177">
        <ele>534</ele>
        <time>2014-05-20T08:05:44Z</time>
      </trkpt>
      <trkpt lat="43.79075" lon="5.31758">
        <ele>535</ele>
        <time>2014-05-20T08:05:53Z</time>
      </trkpt>
      <trkpt lat="43.79078" lon="5.31751">
        <ele>536</ele>
        <time>2014-05-20T08:05:58Z</time>
      </trkpt>
      <trkpt lat="43.79079" lon="5.31748">
        <ele>537</ele>
        <time>2014-05-20T08:06:01Z</time>
      </trkpt>
      <trkpt lat="43.7908" lon="5.31745">
        <ele>538</ele>
        <time>2014-05-20T08:06:03Z</time>
      </trkpt>
      <trkpt lat="43.79082" lon="5.31739">
        <ele>539</ele>
        <time>2014-05-20T08:06:07Z</time>
      </trkpt>
      <trkpt lat="43.79087" lon="5.3173">
        <ele>530</ele>
        <time>2014-05-20T08:06:14Z</time>
      </trkpt>
      <trkpt lat="43.79088" lon="5.31727">
        <ele>530</ele>
        <time>2014-05-20T08:06:16Z</time>
      </trkpt>
      <trkpt lat="43.7909" lon="5.31724">
        <ele>529</ele>
        <time>2014-05-20T08:06:18Z</time>
      </trkpt>
      <trkpt lat="43.79091" lon="5.31717">
        <ele>529</ele>
        <time>2014-05-20T08:06:22Z</time>
      </trkpt>
      <trkpt lat="43.79096" lon="5.31708">
        <ele>528</ele>
        <time>2014-05-20T08:06:28Z</time>
      </trkpt>
      <trkpt lat="43.79097" lon="5.31691">
        <ele>530</ele>
        <time>2014-05-20T08:06:39Z</time>
      </trkpt>
      <trkpt lat="43.79098" lon="5.31688">
        <ele>531</ele>
        <time>2014-05-20T08:06:41Z</time>
      </trkpt>
      <trkpt lat="43.79101" lon="5.31681">
        <ele>531</ele>
        <time>2014-05-20T08:06:45Z</time>
      </trkpt>
      <trkpt lat="43.79102" lon="5.31674">
        <ele>532</ele>
        <time>2014-05-20T08:06:50Z</time>
      </trkpt>
      <trkpt lat="43.79101" lon="5.31668">
        <ele>533</ele>
        <time>2014-05-20T08:06:54Z</time>
      </trkpt>
      <trkpt lat="43.79103" lon="5.31656">
        <ele>535</ele>
        <time>2014-05-20T08:07:02Z</time>
      </trkpt>
      <trkpt lat="43.79103" lon="5.31653">
        <ele>535</ele>
        <time>2014-05-20T08:07:04Z</time>
      </trkpt>
      <trkpt lat="43.79104" lon="5.31642">
        <ele>534</ele>
        <time>2014-05-20T08:07:10Z</time>
      </trkpt>
      <trkpt lat="43.79104" lon="5.31635">
        <ele>534</ele>
        <time>2014-05-20T08:07:14Z</time>
      </trkpt>
      <trkpt lat="43.79106" lon="5.31618">
        <ele>535</ele>
        <time>2014-05-20T08:07:24Z</time>
      </trkpt>
      <trkpt lat="43.79108" lon="5.31609">
        <ele>535</ele>
        <time>2014-05-20T08:07:29Z</time>
      </trkpt>
      <trkpt lat="43.79109" lon="5.31606">
        <ele>535</ele>
        <time>2014-05-20T08:07:31Z</time>
      </trkpt>
      <trkpt lat="43.79109" lon="5.31604">
        <ele>536</ele>
        <time>2014-05-20T08:07:32Z</time>
      </trkpt>
      <trkpt lat="43.7911" lon="5.31599">
        <ele>536</ele>
        <time>2014-05-20T08:07:35Z</time>
      </trkpt>
      <trkpt lat="43.7911" lon="5.31594">
        <ele>536</ele>
        <time>2014-05-20T08:07:38Z</time>
      </trkpt>
      <trkpt lat="43.79111" lon="5.31589">
        <ele>536</ele>
        <time>2014-05-20T08:07:41Z</time>
      </trkpt>
      <trkpt lat="43.79112" lon="5.31585">
        <ele>536</ele>
        <time>2014-05-20T08:07:44Z</time>
      </trkpt>
      <trkpt lat="43.79113" lon="5.31581">
        <ele>539</ele>
        <time>2014-05-20T08:07:46Z</time>
      </trkpt>
      <trkpt lat="43.79113" lon="5.3158">
        <ele>539</ele>
        <time>2014-05-20T08:07:47Z</time>
      </trkpt>
      <trkpt lat="43.79114" lon="5.31577">
        <ele>538</ele>
        <time>2014-05-20T08:07:49Z</time>
      </trkpt>
      <trkpt lat="43.79116" lon="5.3157">
        <ele>538</ele>
        <time>2014-05-20T08:07:53Z</time>
      </trkpt>
      <trkpt lat="43.79117" lon="5.31567">
        <ele>537</ele>
        <time>2014-05-20T08:07:55Z</time>
      </trkpt>
      <trkpt lat="43.79119" lon="5.31552">
        <ele>537</ele>
        <time>2014-05-20T08:08:06Z</time>
      </trkpt>
      <trkpt lat="43.79119" lon="5.31546">
        <ele>537</ele>
        <time>2014-05-20T08:08:10Z</time>
      </trkpt>
      <trkpt lat="43.79118" lon="5.31542">
        <ele>537</ele>
        <time>2014-05-20T08:08:13Z</time>
      </trkpt>
      <trkpt lat="43.79117" lon="5.3153">
        <ele>537</ele>
        <time>2014-05-20T08:08:21Z</time>
      </trkpt>
      <trkpt lat="43.79115" lon="5.31523">
        <ele>538</ele>
        <time>2014-05-20T08:08:27Z</time>
      </trkpt>
      <trkpt lat="43.79108" lon="5.31513">
        <ele>540</ele>
        <time>2014-05-20T08:08:39Z</time>
      </trkpt>
      <trkpt lat="43.79104" lon="5.31508">
        <ele>541</ele>
        <time>2014-05-20T08:08:44Z</time>
      </trkpt>
      <trkpt lat="43.79102" lon="5.31506">
        <ele>542</ele>
        <time>2014-05-20T08:08:47Z</time>
      </trkpt>
      <trkpt lat="43.791" lon="5.31502">
        <ele>543</ele>
        <time>2014-05-20T08:08:50Z</time>
      </trkpt>
      <trkpt lat="43.79096" lon="5.31498">
        <ele>543</ele>
        <time>2014-05-20T08:08:54Z</time>
      </trkpt>
      <trkpt lat="43.79092" lon="5.31494">
        <ele>544</ele>
        <time>2014-05-20T08:08:58Z</time>
      </trkpt>
      <trkpt lat="43.79084" lon="5.31484">
        <ele>543</ele>
        <time>2014-05-20T08:09:06Z</time>
      </trkpt>
      <trkpt lat="43.79082" lon="5.31481">
        <ele>548</ele>
        <time>2014-05-20T08:09:09Z</time>
      </trkpt>
      <trkpt lat="43.79078" lon="5.31475">
        <ele>548</ele>
        <time>2014-05-20T08:09:14Z</time>
      </trkpt>
      <trkpt lat="43.79076" lon="5.3147">
        <ele>547</ele>
        <time>2014-05-20T08:09:18Z</time>
      </trkpt>
      <trkpt lat="43.79074" lon="5.31466">
        <ele>547</ele>
        <time>2014-05-20T08:09:21Z</time>
      </trkpt>
      <trkpt lat="43.79074" lon="5.31465">
        <ele>547</ele>
        <time>2014-05-20T08:09:22Z</time>
      </trkpt>
      <trkpt lat="43.79073" lon="5.31462">
        <ele>547</ele>
        <time>2014-05-20T08:09:25Z</time>
      </trkpt>
      <trkpt lat="43.79072" lon="5.31459">
        <ele>547</ele>
        <time>2014-05-20T08:09:27Z</time>
      </trkpt>
      <trkpt lat="43.7907" lon="5.31449">
        <ele>546</ele>
        <time>2014-05-20T08:09:33Z</time>
      </trkpt>
      <trkpt lat="43.79069" lon="5.31447">
        <ele>546</ele>
        <time>2014-05-20T08:09:35Z</time>
      </trkpt>
      <trkpt lat="43.7907" lon="5.3144">
        <ele>546</ele>
        <time>2014-05-20T08:09:39Z</time>
      </trkpt>
      <trkpt lat="43.7907" lon="5.31432">
        <ele>545</ele>
        <time>2014-05-20T08:09:44Z</time>
      </trkpt>
      <trkpt lat="43.7907" lon="5.31429">
        <ele>545</ele>
        <time>2014-05-20T08:09:46Z</time>
      </trkpt>
      <trkpt lat="43.79071" lon="5.31416">
        <ele>540</ele>
        <time>2014-05-20T08:09:54Z</time>
      </trkpt>
      <trkpt lat="43.79071" lon="5.31403">
        <ele>539</ele>
        <time>2014-05-20T08:10:02Z</time>
      </trkpt>
      <trkpt lat="43.79071" lon="5.314">
        <ele>539</ele>
        <time>2014-05-20T08:10:04Z</time>
      </trkpt>
      <trkpt lat="43.79071" lon="5.31394">
        <ele>538</ele>
        <time>2014-05-20T08:10:08Z</time>
      </trkpt>
      <trkpt lat="43.79073" lon="5.31377">
        <ele>537</ele>
        <time>2014-05-20T08:10:19Z</time>
      </trkpt>
      <trkpt lat="43.79078" lon="5.31361">
        <ele>537</ele>
        <time>2014-05-20T08:10:31Z</time>
      </trkpt>
      <trkpt lat="43.79081" lon="5.31355">
        <ele>537</ele>
        <time>2014-05-20T08:10:36Z</time>
      </trkpt>
      <trkpt lat="43.79082" lon="5.31354">
        <ele>537</ele>
        <time>2014-05-20T08:10:37Z</time>
      </trkpt>
      <trkpt lat="43.79085" lon="5.31348">
        <ele>536</ele>
        <time>2014-05-20T08:10:42Z</time>
      </trkpt>
      <trkpt lat="43.79087" lon="5.31346">
        <ele>536</ele>
        <time>2014-05-20T08:10:44Z</time>
      </trkpt>
      <trkpt lat="43.79088" lon="5.31345">
        <ele>536</ele>
        <time>2014-05-20T08:10:45Z</time>
      </trkpt>
      <trkpt lat="43.79091" lon="5.31332">
        <ele>536</ele>
        <time>2014-05-20T08:10:54Z</time>
      </trkpt>
      <trkpt lat="43.79095" lon="5.31325">
        <ele>534</ele>
        <time>2014-05-20T08:10:59Z</time>
      </trkpt>
      <trkpt lat="43.79099" lon="5.31313">
        <ele>532</ele>
        <time>2014-05-20T08:11:08Z</time>
      </trkpt>
      <trkpt lat="43.79101" lon="5.31306">
        <ele>532</ele>
        <time>2014-05-20T08:11:13Z</time>
      </trkpt>
      <trkpt lat="43.79105" lon="5.31296">
        <ele>531</ele>
        <time>2014-05-20T08:11:19Z</time>
      </trkpt>
      <trkpt lat="43.79106" lon="5.31295">
        <ele>531</ele>
        <time>2014-05-20T08:11:20Z</time>
      </trkpt>
      <trkpt lat="43.79108" lon="5.31289">
        <ele>530</ele>
        <time>2014-05-20T08:11:24Z</time>
      </trkpt>
      <trkpt lat="43.79118" lon="5.31267">
        <ele>529</ele>
        <time>2014-05-20T08:11:39Z</time>
      </trkpt>
      <trkpt lat="43.79121" lon="5.31262">
        <ele>529</ele>
        <time>2014-05-20T08:11:43Z</time>
      </trkpt>
      <trkpt lat="43.79126" lon="5.31248">
        <ele>529</ele>
        <time>2014-05-20T08:11:52Z</time>
      </trkpt>
      <trkpt lat="43.79136" lon="5.31231">
        <ele>530</ele>
        <time>2014-05-20T08:12:04Z</time>
      </trkpt>
      <trkpt lat="43.79143" lon="5.31222">
        <ele>531</ele>
        <time>2014-05-20T08:12:11Z</time>
      </trkpt>
      <trkpt lat="43.79148" lon="5.31218">
        <ele>531</ele>
        <time>2014-05-20T08:12:16Z</time>
      </trkpt>
      <trkpt lat="43.79148" lon="5.31217">
        <ele>531</ele>
        <time>2014-05-20T08:12:18Z</time>
      </trkpt>
      <trkpt lat="43.79148" lon="5.31216">
        <ele>531</ele>
        <time>2014-05-20T08:12:26Z</time>
      </trkpt>
      <trkpt lat="43.7915" lon="5.31215">
        <ele>531</ele>
        <time>2014-05-20T08:12:40Z</time>
      </trkpt>
      <trkpt lat="43.7916" lon="5.31213">
        <ele>532</ele>
        <time>2014-05-20T08:12:49Z</time>
      </trkpt>
      <trkpt lat="43.79169" lon="5.31212">
        <ele>536</ele>
        <time>2014-05-20T08:12:56Z</time>
      </trkpt>
      <trkpt lat="43.7917" lon="5.31211">
        <ele>536</ele>
        <time>2014-05-20T08:12:57Z</time>
      </trkpt>
      <trkpt lat="43.79172" lon="5.31212">
        <ele>536</ele>
        <time>2014-05-20T08:12:59Z</time>
      </trkpt>
      <trkpt lat="43.79175" lon="5.31211">
        <ele>536</ele>
        <time>2014-05-20T08:13:01Z</time>
      </trkpt>
      <trkpt lat="43.79176" lon="5.31211">
        <ele>536</ele>
        <time>2014-05-20T08:13:02Z</time>
      </trkpt>
      <trkpt lat="43.79182" lon="5.31211">
        <ele>536</ele>
        <time>2014-05-20T08:13:07Z</time>
      </trkpt>
      <trkpt lat="43.7919" lon="5.3121">
        <ele>536</ele>
        <time>2014-05-20T08:13:13Z</time>
      </trkpt>
      <trkpt lat="43.79196" lon="5.31211">
        <ele>535</ele>
        <time>2014-05-20T08:13:18Z</time>
      </trkpt>
      <trkpt lat="43.79199" lon="5.31211">
        <ele>535</ele>
        <time>2014-05-20T08:13:20Z</time>
      </trkpt>
      <trkpt lat="43.79204" lon="5.3121">
        <ele>535</ele>
        <time>2014-05-20T08:13:24Z</time>
      </trkpt>
      <trkpt lat="43.79205" lon="5.31211">
        <ele>535</ele>
        <time>2014-05-20T08:13:25Z</time>
      </trkpt>
      <trkpt lat="43.79214" lon="5.31209">
        <ele>535</ele>
        <time>2014-05-20T08:13:32Z</time>
      </trkpt>
      <trkpt lat="43.79221" lon="5.31205">
        <ele>535</ele>
        <time>2014-05-20T08:13:38Z</time>
      </trkpt>
      <trkpt lat="43.79233" lon="5.31194">
        <ele>536</ele>
        <time>2014-05-20T08:13:51Z</time>
      </trkpt>
      <trkpt lat="43.79237" lon="5.31191">
        <ele>536</ele>
        <time>2014-05-20T08:13:54Z</time>
      </trkpt>
      <trkpt lat="43.79241" lon="5.31187">
        <ele>537</ele>
        <time>2014-05-20T08:13:58Z</time>
      </trkpt>
      <trkpt lat="43.79248" lon="5.31183">
        <ele>537</ele>
        <time>2014-05-20T08:14:04Z</time>
      </trkpt>
      <trkpt lat="43.79251" lon="5.31182">
        <ele>537</ele>
        <time>2014-05-20T08:14:06Z</time>
      </trkpt>
      <trkpt lat="43.79256" lon="5.31178">
        <ele>538</ele>
        <time>2014-05-20T08:14:11Z</time>
      </trkpt>
      <trkpt lat="43.79264" lon="5.31175">
        <ele>537</ele>
        <time>2014-05-20T08:14:17Z</time>
      </trkpt>
      <trkpt lat="43.79269" lon="5.31173">
        <ele>537</ele>
        <time>2014-05-20T08:14:21Z</time>
      </trkpt>
      <trkpt lat="43.79271" lon="5.31173">
        <ele>537</ele>
        <time>2014-05-20T08:14:23Z</time>
      </trkpt>
      <trkpt lat="43.79274" lon="5.31171">
        <ele>537</ele>
        <time>2014-05-20T08:14:26Z</time>
      </trkpt>
      <trkpt lat="43.79281" lon="5.3117">
        <ele>537</ele>
        <time>2014-05-20T08:14:31Z</time>
      </trkpt>
      <trkpt lat="43.79282" lon="5.3117">
        <ele>537</ele>
        <time>2014-05-20T08:14:32Z</time>
      </trkpt>
      <trkpt lat="43.79284" lon="5.3117">
        <ele>537</ele>
        <time>2014-05-20T08:14:34Z</time>
      </trkpt>
      <trkpt lat="43.79297" lon="5.31171">
        <ele>537</ele>
        <time>2014-05-20T08:14:44Z</time>
      </trkpt>
      <trkpt lat="43.79298" lon="5.31171">
        <ele>537</ele>
        <time>2014-05-20T08:14:46Z</time>
      </trkpt>
      <trkpt lat="43.793" lon="5.31171">
        <ele>537</ele>
        <time>2014-05-20T08:14:47Z</time>
      </trkpt>
      <trkpt lat="43.79309" lon="5.31174">
        <ele>538</ele>
        <time>2014-05-20T08:14:55Z</time>
      </trkpt>
      <trkpt lat="43.79313" lon="5.31175">
        <ele>538</ele>
        <time>2014-05-20T08:14:58Z</time>
      </trkpt>
      <trkpt lat="43.79314" lon="5.31177">
        <ele>538</ele>
        <time>2014-05-20T08:15:00Z</time>
      </trkpt>
      <trkpt lat="43.79317" lon="5.31178">
        <ele>538</ele>
        <time>2014-05-20T08:15:03Z</time>
      </trkpt>
      <trkpt lat="43.79319" lon="5.3118">
        <ele>538</ele>
        <time>2014-05-20T08:15:06Z</time>
      </trkpt>
      <trkpt lat="43.79321" lon="5.31185">
        <ele>538</ele>
        <time>2014-05-20T08:15:10Z</time>
      </trkpt>
      <trkpt lat="43.79324" lon="5.31192">
        <ele>537</ele>
        <time>2014-05-20T08:15:15Z</time>
      </trkpt>
      <trkpt lat="43.7933" lon="5.31204">
        <ele>536</ele>
        <time>2014-05-20T08:15:25Z</time>
      </trkpt>
      <trkpt lat="43.79332" lon="5.31208">
        <ele>536</ele>
        <time>2014-05-20T08:15:28Z</time>
      </trkpt>
      <trkpt lat="43.79335" lon="5.31214">
        <ele>539</ele>
        <time>2014-05-20T08:15:32Z</time>
      </trkpt>
      <trkpt lat="43.79339" lon="5.31218">
        <ele>538</ele>
        <time>2014-05-20T08:15:37Z</time>
      </trkpt>
      <trkpt lat="43.79343" lon="5.31222">
        <ele>538</ele>
        <time>2014-05-20T08:15:41Z</time>
      </trkpt>
      <trkpt lat="43.79354" lon="5.3123">
        <ele>538</ele>
        <time>2014-05-20T08:15:51Z</time>
      </trkpt>
      <trkpt lat="43.79358" lon="5.31232">
        <ele>538</ele>
        <time>2014-05-20T08:15:55Z</time>
      </trkpt>
      <trkpt lat="43.7936" lon="5.31233">
        <ele>538</ele>
        <time>2014-05-20T08:15:57Z</time>
      </trkpt>
      <trkpt lat="43.79375" lon="5.31237">
        <ele>538</ele>
        <time>2014-05-20T08:16:10Z</time>
      </trkpt>
      <trkpt lat="43.79383" lon="5.31238">
        <ele>539</ele>
        <time>2014-05-20T08:16:16Z</time>
      </trkpt>
      <trkpt lat="43.79388" lon="5.3124">
        <ele>539</ele>
        <time>2014-05-20T08:16:20Z</time>
      </trkpt>
      <trkpt lat="43.79398" lon="5.31241">
        <ele>538</ele>
        <time>2014-05-20T08:16:28Z</time>
      </trkpt>
      <trkpt lat="43.79401" lon="5.31242">
        <ele>538</ele>
        <time>2014-05-20T08:16:31Z</time>
      </trkpt>
      <trkpt lat="43.79403" lon="5.31242">
        <ele>538</ele>
        <time>2014-05-20T08:16:32Z</time>
      </trkpt>
      <trkpt lat="43.79404" lon="5.31241">
        <ele>538</ele>
        <time>2014-05-20T08:16:33Z</time>
      </trkpt>
      <trkpt lat="43.79412" lon="5.31242">
        <ele>538</ele>
        <time>2014-05-20T08:16:40Z</time>
      </trkpt>
      <trkpt lat="43.79419" lon="5.31243">
        <ele>538</ele>
        <time>2014-05-20T08:16:47Z</time>
      </trkpt>
      <trkpt lat="43.79423" lon="5.31243">
        <ele>538</ele>
        <time>2014-05-20T08:16:51Z</time>
      </trkpt>
      <trkpt lat="43.79427" lon="5.31241">
        <ele>538</ele>
        <time>2014-05-20T08:16:55Z</time>
      </trkpt>
      <trkpt lat="43.79433" lon="5.31241">
        <ele>538</ele>
        <time>2014-05-20T08:17:00Z</time>
      </trkpt>
      <trkpt lat="43.79436" lon="5.3124">
        <ele>538</ele>
        <time>2014-05-20T08:17:02Z</time>
      </trkpt>
      <trkpt lat="43.79438" lon="5.31239">
        <ele>538</ele>
        <time>2014-05-20T08:17:04Z</time>
      </trkpt>
      <trkpt lat="43.7944" lon="5.31239">
        <ele>538</ele>
        <time>2014-05-20T08:17:05Z</time>
      </trkpt>
      <trkpt lat="43.79449" lon="5.31238">
        <ele>538</ele>
        <time>2014-05-20T08:17:13Z</time>
      </trkpt>
      <trkpt lat="43.79457" lon="5.31236">
        <ele>538</ele>
        <time>2014-05-20T08:17:20Z</time>
      </trkpt>
      <trkpt lat="43.79461" lon="5.31235">
        <ele>538</ele>
        <time>2014-05-20T08:17:23Z</time>
      </trkpt>
      <trkpt lat="43.79466" lon="5.31233">
        <ele>538</ele>
        <time>2014-05-20T08:17:28Z</time>
      </trkpt>
      <trkpt lat="43.79471" lon="5.31232">
        <ele>538</ele>
        <time>2014-05-20T08:17:32Z</time>
      </trkpt>
      <trkpt lat="43.79477" lon="5.3123">
        <ele>537</ele>
        <time>2014-05-20T08:17:37Z</time>
      </trkpt>
      <trkpt lat="43.79483" lon="5.3123">
        <ele>537</ele>
        <time>2014-05-20T08:17:42Z</time>
      </trkpt>
      <trkpt lat="43.79491" lon="5.31227">
        <ele>537</ele>
        <time>2014-05-20T08:17:48Z</time>
      </trkpt>
      <trkpt lat="43.79495" lon="5.31225">
        <ele>537</ele>
        <time>2014-05-20T08:17:51Z</time>
      </trkpt>
      <trkpt lat="43.79501" lon="5.31225">
        <ele>534</ele>
        <time>2014-05-20T08:17:56Z</time>
      </trkpt>
      <trkpt lat="43.79507" lon="5.31224">
        <ele>534</ele>
        <time>2014-05-20T08:18:01Z</time>
      </trkpt>
      <trkpt lat="43.79511" lon="5.31223">
        <ele>534</ele>
        <time>2014-05-20T08:18:04Z</time>
      </trkpt>
      <trkpt lat="43.79518" lon="5.31223">
        <ele>534</ele>
        <time>2014-05-20T08:18:10Z</time>
      </trkpt>
      <trkpt lat="43.79525" lon="5.31222">
        <ele>534</ele>
        <time>2014-05-20T08:18:16Z</time>
      </trkpt>
      <trkpt lat="43.79529" lon="5.31222">
        <ele>534</ele>
        <time>2014-05-20T08:18:19Z</time>
      </trkpt>
      <trkpt lat="43.7953" lon="5.31222">
        <ele>534</ele>
        <time>2014-05-20T08:18:20Z</time>
      </trkpt>
      <trkpt lat="43.79531" lon="5.31222">
        <ele>534</ele>
        <time>2014-05-20T08:18:21Z</time>
      </trkpt>
      <trkpt lat="43.79544" lon="5.31219">
        <ele>534</ele>
        <time>2014-05-20T08:18:32Z</time>
      </trkpt>
      <trkpt lat="43.79545" lon="5.31219">
        <ele>534</ele>
        <time>2014-05-20T08:18:33Z</time>
      </trkpt>
      <trkpt lat="43.79552" lon="5.31218">
        <ele>534</ele>
        <time>2014-05-20T08:18:39Z</time>
      </trkpt>
      <trkpt lat="43.79557" lon="5.31218">
        <ele>533</ele>
        <time>2014-05-20T08:18:43Z</time>
      </trkpt>
      <trkpt lat="43.79561" lon="5.31216">
        <ele>533</ele>
        <time>2014-05-20T08:18:46Z</time>
      </trkpt>
      <trkpt lat="43.79564" lon="5.31216">
        <ele>533</ele>
        <time>2014-05-20T08:18:48Z</time>
      </trkpt>
      <trkpt lat="43.79566" lon="5.31215">
        <ele>533</ele>
        <time>2014-05-20T08:18:50Z</time>
      </trkpt>
      <trkpt lat="43.7957" lon="5.31215">
        <ele>533</ele>
        <time>2014-05-20T08:18:53Z</time>
      </trkpt>
      <trkpt lat="43.79574" lon="5.31213">
        <ele>533</ele>
        <time>2014-05-20T08:18:56Z</time>
      </trkpt>
      <trkpt lat="43.79579" lon="5.31212">
        <ele>533</ele>
        <time>2014-05-20T08:19:01Z</time>
      </trkpt>
      <trkpt lat="43.79581" lon="5.31211">
        <ele>533</ele>
        <time>2014-05-20T08:19:03Z</time>
      </trkpt>
      <trkpt lat="43.79595" lon="5.31209">
        <ele>529</ele>
        <time>2014-05-20T08:19:16Z</time>
      </trkpt>
      <trkpt lat="43.79596" lon="5.31208">
        <ele>529</ele>
        <time>2014-05-20T08:19:17Z</time>
      </trkpt>
      <trkpt lat="43.79604" lon="5.31205">
        <ele>529</ele>
        <time>2014-05-20T08:19:23Z</time>
      </trkpt>
      <trkpt lat="43.79607" lon="5.31204">
        <ele>529</ele>
        <time>2014-05-20T08:19:25Z</time>
      </trkpt>
      <trkpt lat="43.79617" lon="5.31205">
        <ele>528</ele>
        <time>2014-05-20T08:19:32Z</time>
      </trkpt>
      <trkpt lat="43.79621" lon="5.31207">
        <ele>528</ele>
        <time>2014-05-20T08:19:36Z</time>
      </trkpt>
      <trkpt lat="43.79625" lon="5.31208">
        <ele>528</ele>
        <time>2014-05-20T08:19:39Z</time>
      </trkpt>
      <trkpt lat="43.79627" lon="5.31208">
        <ele>528</ele>
        <time>2014-05-20T08:19:41Z</time>
      </trkpt>
      <trkpt lat="43.79631" lon="5.31209">
        <ele>528</ele>
        <time>2014-05-20T08:19:44Z</time>
      </trkpt>
      <trkpt lat="43.79636" lon="5.31211">
        <ele>528</ele>
        <time>2014-05-20T08:19:48Z</time>
      </trkpt>
      <trkpt lat="43.79637" lon="5.31212">
        <ele>527</ele>
        <time>2014-05-20T08:19:49Z</time>
      </trkpt>
      <trkpt lat="43.79641" lon="5.31214">
        <ele>527</ele>
        <time>2014-05-20T08:19:54Z</time>
      </trkpt>
      <trkpt lat="43.79645" lon="5.31216">
        <ele>527</ele>
        <time>2014-05-20T08:19:57Z</time>
      </trkpt>
      <trkpt lat="43.7965" lon="5.31219">
        <ele>527</ele>
        <time>2014-05-20T08:20:02Z</time>
      </trkpt>
      <trkpt lat="43.79656" lon="5.31221">
        <ele>527</ele>
        <time>2014-05-20T08:20:08Z</time>
      </trkpt>
      <trkpt lat="43.79659" lon="5.31223">
        <ele>527</ele>
        <time>2014-05-20T08:20:11Z</time>
      </trkpt>
      <trkpt lat="43.79661" lon="5.31223">
        <ele>527</ele>
        <time>2014-05-20T08:20:20Z</time>
      </trkpt>
      <trkpt lat="43.79662" lon="5.31217">
        <ele>527</ele>
        <time>2014-05-20T08:20:34Z</time>
      </trkpt>
      <trkpt lat="43.79662" lon="5.31218">
        <ele>527</ele>
        <time>2014-05-20T08:20:35Z</time>
      </trkpt>
      <trkpt lat="43.79662" lon="5.31218">
        <ele>527</ele>
        <time>2014-05-20T08:20:37Z</time>
      </trkpt>
      <trkpt lat="43.79663" lon="5.31217">
        <ele>527</ele>
        <time>2014-05-20T08:20:42Z</time>
      </trkpt>
      <trkpt lat="43.79665" lon="5.3122">
        <ele>527</ele>
        <time>2014-05-20T08:20:52Z</time>
      </trkpt>
      <trkpt lat="43.79667" lon="5.3122">
        <ele>527</ele>
        <time>2014-05-20T08:20:54Z</time>
      </trkpt>
      <trkpt lat="43.79671" lon="5.31224">
        <ele>521</ele>
        <time>2014-05-20T08:20:59Z</time>
      </trkpt>
      <trkpt lat="43.79672" lon="5.31225">
        <ele>521</ele>
        <time>2014-05-20T08:21:01Z</time>
      </trkpt>
      <trkpt lat="43.79677" lon="5.31228">
        <ele>521</ele>
        <time>2014-05-20T08:21:06Z</time>
      </trkpt>
      <trkpt lat="43.7968" lon="5.31228">
        <ele>521</ele>
        <time>2014-05-20T08:21:09Z</time>
      </trkpt>
      <trkpt lat="43.79683" lon="5.3123">
        <ele>521</ele>
        <time>2014-05-20T08:21:12Z</time>
      </trkpt>
      <trkpt lat="43.79685" lon="5.3123">
        <ele>521</ele>
        <time>2014-05-20T08:21:14Z</time>
      </trkpt>
      <trkpt lat="43.79691" lon="5.31235">
        <ele>520</ele>
        <time>2014-05-20T08:21:21Z</time>
      </trkpt>
      <trkpt lat="43.79696" lon="5.31236">
        <ele>520</ele>
        <time>2014-05-20T08:21:25Z</time>
      </trkpt>
      <trkpt lat="43.79699" lon="5.31238">
        <ele>519</ele>
        <time>2014-05-20T08:21:28Z</time>
      </trkpt>
      <trkpt lat="43.79701" lon="5.31239">
        <ele>519</ele>
        <time>2014-05-20T08:21:30Z</time>
      </trkpt>
      <trkpt lat="43.79703" lon="5.31239">
        <ele>519</ele>
        <time>2014-05-20T08:21:31Z</time>
      </trkpt>
      <trkpt lat="43.79703" lon="5.3124">
        <ele>519</ele>
        <time>2014-05-20T08:21:32Z</time>
      </trkpt>
      <trkpt lat="43.79705" lon="5.31241">
        <ele>519</ele>
        <time>2014-05-20T08:21:34Z</time>
      </trkpt>
      <trkpt lat="43.79708" lon="5.31242">
        <ele>519</ele>
        <time>2014-05-20T08:21:37Z</time>
      </trkpt>
      <trkpt lat="43.79713" lon="5.31241">
        <ele>518</ele>
        <time>2014-05-20T08:21:43Z</time>
      </trkpt>
      <trkpt lat="43.79716" lon="5.31242">
        <ele>518</ele>
        <time>2014-05-20T08:21:45Z</time>
      </trkpt>
      <trkpt lat="43.79726" lon="5.31243">
        <ele>517</ele>
        <time>2014-05-20T08:21:52Z</time>
      </trkpt>
      <trkpt lat="43.7973" lon="5.31245">
        <ele>516</ele>
        <time>2014-05-20T08:21:57Z</time>
      </trkpt>
      <trkpt lat="43.79733" lon="5.31244">
        <ele>516</ele>
        <time>2014-05-20T08:22:00Z</time>
      </trkpt>
      <trkpt lat="43.79736" lon="5.31243">
        <ele>516</ele>
        <time>2014-05-20T08:22:02Z</time>
      </trkpt>
      <trkpt lat="43.79742" lon="5.31236">
        <ele>515</ele>
        <time>2014-05-20T08:22:07Z</time>
      </trkpt>
      <trkpt lat="43.79744" lon="5.31234">
        <ele>515</ele>
        <time>2014-05-20T08:22:10Z</time>
      </trkpt>
      <trkpt lat="43.79752" lon="5.31221">
        <ele>509</ele>
        <time>2014-05-20T08:22:23Z</time>
      </trkpt>
      <trkpt lat="43.79753" lon="5.31217">
        <ele>508</ele>
        <time>2014-05-20T08:22:27Z</time>
      </trkpt>
      <trkpt lat="43.79754" lon="5.31211">
        <ele>508</ele>
        <time>2014-05-20T08:22:32Z</time>
      </trkpt>
      <trkpt lat="43.79755" lon="5.31209">
        <ele>508</ele>
        <time>2014-05-20T08:22:33Z</time>
      </trkpt>
      <trkpt lat="43.79754" lon="5.31204">
        <ele>508</ele>
        <time>2014-05-20T08:22:37Z</time>
      </trkpt>
      <trkpt lat="43.79755" lon="5.31201">
        <ele>508</ele>
        <time>2014-05-20T08:22:41Z</time>
      </trkpt>
      <trkpt lat="43.79756" lon="5.31198">
        <ele>508</ele>
        <time>2014-05-20T08:22:44Z</time>
      </trkpt>
      <trkpt lat="43.79758" lon="5.31195">
        <ele>508</ele>
        <time>2014-05-20T08:22:47Z</time>
      </trkpt>
      <trkpt lat="43.79758" lon="5.31192">
        <ele>508</ele>
        <time>2014-05-20T08:22:50Z</time>
      </trkpt>
      <trkpt lat="43.79759" lon="5.3119">
        <ele>508</ele>
        <time>2014-05-20T08:22:52Z</time>
      </trkpt>
      <trkpt lat="43.79758" lon="5.31188">
        <ele>508</ele>
        <time>2014-05-20T08:22:54Z</time>
      </trkpt>
      <trkpt lat="43.79759" lon="5.31185">
        <ele>508</ele>
        <time>2014-05-20T08:22:56Z</time>
      </trkpt>
      <trkpt lat="43.79758" lon="5.3118">
        <ele>509</ele>
        <time>2014-05-20T08:23:01Z</time>
      </trkpt>
      <trkpt lat="43.79758" lon="5.31176">
        <ele>509</ele>
        <time>2014-05-20T08:23:04Z</time>
      </trkpt>
      <trkpt lat="43.79759" lon="5.31174">
        <ele>509</ele>
        <time>2014-05-20T08:23:06Z</time>
      </trkpt>
      <trkpt lat="43.79763" lon="5.3117">
        <ele>509</ele>
        <time>2014-05-20T08:23:10Z</time>
      </trkpt>
      <trkpt lat="43.79767" lon="5.31167">
        <ele>508</ele>
        <time>2014-05-20T08:23:15Z</time>
      </trkpt>
      <trkpt lat="43.79768" lon="5.31165">
        <ele>511</ele>
        <time>2014-05-20T08:23:17Z</time>
      </trkpt>
      <trkpt lat="43.7977" lon="5.31165">
        <ele>511</ele>
        <time>2014-05-20T08:23:19Z</time>
      </trkpt>
      <trkpt lat="43.79772" lon="5.31163">
        <ele>511</ele>
        <time>2014-05-20T08:23:22Z</time>
      </trkpt>
      <trkpt lat="43.79773" lon="5.31162">
        <ele>511</ele>
        <time>2014-05-20T08:23:24Z</time>
      </trkpt>
      <trkpt lat="43.79774" lon="5.31159">
        <ele>511</ele>
        <time>2014-05-20T08:23:33Z</time>
      </trkpt>
      <trkpt lat="43.79776" lon="5.31156">
        <ele>511</ele>
        <time>2014-05-20T08:23:41Z</time>
      </trkpt>
      <trkpt lat="43.79778" lon="5.31151">
        <ele>511</ele>
        <time>2014-05-20T08:23:46Z</time>
      </trkpt>
      <trkpt lat="43.7978" lon="5.31148">
        <ele>511</ele>
        <time>2014-05-20T08:23:49Z</time>
      </trkpt>
      <trkpt lat="43.79788" lon="5.31139">
        <ele>511</ele>
        <time>2014-05-20T08:23:58Z</time>
      </trkpt>
      <trkpt lat="43.79797" lon="5.31129">
        <ele>511</ele>
        <time>2014-05-20T08:24:07Z</time>
      </trkpt>
      <trkpt lat="43.79806" lon="5.3112">
        <ele>511</ele>
        <time>2014-05-20T08:24:16Z</time>
      </trkpt>
      <trkpt lat="43.79829" lon="5.31101">
        <ele>511</ele>
        <time>2014-05-20T08:24:37Z</time>
      </trkpt>
      <trkpt lat="43.79832" lon="5.31097">
        <ele>510</ele>
        <time>2014-05-20T08:24:41Z</time>
      </trkpt>
      <trkpt lat="43.79835" lon="5.31094">
        <ele>507</ele>
        <time>2014-05-20T08:24:45Z</time>
      </trkpt>
      <trkpt lat="43.79842" lon="5.31088">
        <ele>507</ele>
        <time>2014-05-20T08:24:51Z</time>
      </trkpt>
      <trkpt lat="43.79846" lon="5.31083">
        <ele>509</ele>
        <time>2014-05-20T08:24:56Z</time>
      </trkpt>
      <trkpt lat="43.79848" lon="5.31081">
        <ele>509</ele>
        <time>2014-05-20T08:24:59Z</time>
      </trkpt>
      <trkpt lat="43.79848" lon="5.31079">
        <ele>509</ele>
        <time>2014-05-20T08:25:03Z</time>
      </trkpt>
      <trkpt lat="43.79849" lon="5.31079">
        <ele>509</ele>
        <time>2014-05-20T08:25:08Z</time>
      </trkpt>
      <trkpt lat="43.7985" lon="5.31078">
        <ele>509</ele>
        <time>2014-05-20T08:25:10Z</time>
      </trkpt>
      <trkpt lat="43.79852" lon="5.31078">
        <ele>509</ele>
        <time>2014-05-20T08:25:12Z</time>
      </trkpt>
      <trkpt lat="43.79855" lon="5.31075">
        <ele>509</ele>
        <time>2014-05-20T08:25:16Z</time>
      </trkpt>
      <trkpt lat="43.79858" lon="5.3107">
        <ele>508</ele>
        <time>2014-05-20T08:25:21Z</time>
      </trkpt>
      <trkpt lat="43.79861" lon="5.31067">
        <ele>508</ele>
        <time>2014-05-20T08:25:24Z</time>
      </trkpt>
      <trkpt lat="43.79862" lon="5.31064">
        <ele>508</ele>
        <time>2014-05-20T08:25:27Z</time>
      </trkpt>
      <trkpt lat="43.79868" lon="5.31052">
        <ele>508</ele>
        <time>2014-05-20T08:25:37Z</time>
      </trkpt>
      <trkpt lat="43.79869" lon="5.31047">
        <ele>508</ele>
        <time>2014-05-20T08:25:41Z</time>
      </trkpt>
      <trkpt lat="43.79872" lon="5.31043">
        <ele>508</ele>
        <time>2014-05-20T08:25:44Z</time>
      </trkpt>
      <trkpt lat="43.79874" lon="5.31036">
        <ele>508</ele>
        <time>2014-05-20T08:25:49Z</time>
      </trkpt>
      <trkpt lat="43.79877" lon="5.31033">
        <ele>508</ele>
        <time>2014-05-20T08:25:52Z</time>
      </trkpt>
      <trkpt lat="43.79878" lon="5.3103">
        <ele>508</ele>
        <time>2014-05-20T08:25:54Z</time>
      </trkpt>
      <trkpt lat="43.79881" lon="5.31025">
        <ele>508</ele>
        <time>2014-05-20T08:25:58Z</time>
      </trkpt>
      <trkpt lat="43.79884" lon="5.31021">
        <ele>508</ele>
        <time>2014-05-20T08:26:01Z</time>
      </trkpt>
      <trkpt lat="43.79886" lon="5.31017">
        <ele>508</ele>
        <time>2014-05-20T08:26:04Z</time>
      </trkpt>
      <trkpt lat="43.79887" lon="5.31015">
        <ele>508</ele>
        <time>2014-05-20T08:26:06Z</time>
      </trkpt>
      <trkpt lat="43.79888" lon="5.31011">
        <ele>508</ele>
        <time>2014-05-20T08:26:09Z</time>
      </trkpt>
      <trkpt lat="43.79892" lon="5.31003">
        <ele>507</ele>
        <time>2014-05-20T08:26:15Z</time>
      </trkpt>
      <trkpt lat="43.79902" lon="5.30986">
        <ele>509</ele>
        <time>2014-05-20T08:26:26Z</time>
      </trkpt>
      <trkpt lat="43.79909" lon="5.3098">
        <ele>510</ele>
        <time>2014-05-20T08:26:32Z</time>
      </trkpt>
      <trkpt lat="43.79916" lon="5.3097">
        <ele>510</ele>
        <time>2014-05-20T08:26:40Z</time>
      </trkpt>
      <trkpt lat="43.79919" lon="5.30965">
        <ele>501</ele>
        <time>2014-05-20T08:26:44Z</time>
      </trkpt>
      <trkpt lat="43.79921" lon="5.30964">
        <ele>501</ele>
        <time>2014-05-20T08:26:46Z</time>
      </trkpt>
      <trkpt lat="43.79921" lon="5.30963">
        <ele>501</ele>
        <time>2014-05-20T08:26:47Z</time>
      </trkpt>
      <trkpt lat="43.79926" lon="5.30956">
        <ele>501</ele>
        <time>2014-05-20T08:26:52Z</time>
      </trkpt>
      <trkpt lat="43.79931" lon="5.30946">
        <ele>502</ele>
        <time>2014-05-20T08:26:58Z</time>
      </trkpt>
      <trkpt lat="43.79934" lon="5.30936">
        <ele>502</ele>
        <time>2014-05-20T08:27:05Z</time>
      </trkpt>
      <trkpt lat="43.79936" lon="5.30913">
        <ele>506</ele>
        <time>2014-05-20T08:27:18Z</time>
      </trkpt>
      <trkpt lat="43.79937" lon="5.30904">
        <ele>506</ele>
        <time>2014-05-20T08:27:23Z</time>
      </trkpt>
      <trkpt lat="43.79941" lon="5.30896">
        <ele>506</ele>
        <time>2014-05-20T08:27:29Z</time>
      </trkpt>
      <trkpt lat="43.79947" lon="5.3089">
        <ele>505</ele>
        <time>2014-05-20T08:27:35Z</time>
      </trkpt>
      <trkpt lat="43.79949" lon="5.30888">
        <ele>505</ele>
        <time>2014-05-20T08:27:37Z</time>
      </trkpt>
      <trkpt lat="43.79953" lon="5.30885">
        <ele>505</ele>
        <time>2014-05-20T08:27:40Z</time>
      </trkpt>
      <trkpt lat="43.7996" lon="5.30883">
        <ele>505</ele>
        <time>2014-05-20T08:27:45Z</time>
      </trkpt>
      <trkpt lat="43.79962" lon="5.30883">
        <ele>505</ele>
        <time>2014-05-20T08:27:49Z</time>
      </trkpt>
      <trkpt lat="43.79964" lon="5.30883">
        <ele>505</ele>
        <time>2014-05-20T08:27:51Z</time>
      </trkpt>
      <trkpt lat="43.79967" lon="5.30883">
        <ele>505</ele>
        <time>2014-05-20T08:27:59Z</time>
      </trkpt>
      <trkpt lat="43.79969" lon="5.30884">
        <ele>504</ele>
        <time>2014-05-20T08:28:02Z</time>
      </trkpt>
      <trkpt lat="43.79974" lon="5.30888">
        <ele>504</ele>
        <time>2014-05-20T08:28:07Z</time>
      </trkpt>
      <trkpt lat="43.79976" lon="5.3089">
        <ele>504</ele>
        <time>2014-05-20T08:28:09Z</time>
      </trkpt>
      <trkpt lat="43.79978" lon="5.30893">
        <ele>503</ele>
        <time>2014-05-20T08:28:13Z</time>
      </trkpt>
      <trkpt lat="43.7998" lon="5.30895">
        <ele>503</ele>
        <time>2014-05-20T08:28:15Z</time>
      </trkpt>
      <trkpt lat="43.79985" lon="5.309">
        <ele>502</ele>
        <time>2014-05-20T08:28:21Z</time>
      </trkpt>
      <trkpt lat="43.7999" lon="5.30904">
        <ele>501</ele>
        <time>2014-05-20T08:28:26Z</time>
      </trkpt>
      <trkpt lat="43.79997" lon="5.30907">
        <ele>499</ele>
        <time>2014-05-20T08:28:32Z</time>
      </trkpt>
      <trkpt lat="43.80002" lon="5.30908">
        <ele>498</ele>
        <time>2014-05-20T08:28:36Z</time>
      </trkpt>
      <trkpt lat="43.8001" lon="5.30907">
        <ele>499</ele>
        <time>2014-05-20T08:28:42Z</time>
      </trkpt>
      <trkpt lat="43.80014" lon="5.30906">
        <ele>499</ele>
        <time>2014-05-20T08:28:45Z</time>
      </trkpt>
      <trkpt lat="43.80028" lon="5.309">
        <ele>500</ele>
        <time>2014-05-20T08:28:56Z</time>
      </trkpt>
      <trkpt lat="43.80036" lon="5.30895">
        <ele>501</ele>
        <time>2014-05-20T08:29:03Z</time>
      </trkpt>
      <trkpt lat="43.80037" lon="5.30894">
        <ele>501</ele>
        <time>2014-05-20T08:29:05Z</time>
      </trkpt>
      <trkpt lat="43.80044" lon="5.30889">
        <ele>502</ele>
        <time>2014-05-20T08:29:11Z</time>
      </trkpt>
      <trkpt lat="43.80052" lon="5.30885">
        <ele>502</ele>
        <time>2014-05-20T08:29:18Z</time>
      </trkpt>
      <trkpt lat="43.8007" lon="5.30889">
        <ele>502</ele>
        <time>2014-05-20T08:29:32Z</time>
      </trkpt>
      <trkpt lat="43.80072" lon="5.30888">
        <ele>502</ele>
        <time>2014-05-20T08:29:34Z</time>
      </trkpt>
      <trkpt lat="43.80075" lon="5.30888">
        <ele>502</ele>
        <time>2014-05-20T08:29:36Z</time>
      </trkpt>
      <trkpt lat="43.80077" lon="5.30888">
        <ele>502</ele>
        <time>2014-05-20T08:29:38Z</time>
      </trkpt>
      <trkpt lat="43.80082" lon="5.30888">
        <ele>502</ele>
        <time>2014-05-20T08:29:43Z</time>
      </trkpt>
      <trkpt lat="43.80083" lon="5.30889">
        <ele>502</ele>
        <time>2014-05-20T08:29:44Z</time>
      </trkpt>
      <trkpt lat="43.80088" lon="5.30891">
        <ele>503</ele>
        <time>2014-05-20T08:29:48Z</time>
      </trkpt>
      <trkpt lat="43.80092" lon="5.30894">
        <ele>503</ele>
        <time>2014-05-20T08:29:52Z</time>
      </trkpt>
      <trkpt lat="43.80095" lon="5.30896">
        <ele>503</ele>
        <time>2014-05-20T08:29:55Z</time>
      </trkpt>
      <trkpt lat="43.80096" lon="5.309">
        <ele>502</ele>
        <time>2014-05-20T08:29:58Z</time>
      </trkpt>
      <trkpt lat="43.80097" lon="5.30902">
        <ele>502</ele>
        <time>2014-05-20T08:30:00Z</time>
      </trkpt>
      <trkpt lat="43.80096" lon="5.30905">
        <ele>502</ele>
        <time>2014-05-20T08:30:02Z</time>
      </trkpt>
      <trkpt lat="43.80094" lon="5.30909">
        <ele>501</ele>
        <time>2014-05-20T08:30:06Z</time>
      </trkpt>
      <trkpt lat="43.80092" lon="5.30912">
        <ele>501</ele>
        <time>2014-05-20T08:30:09Z</time>
      </trkpt>
      <trkpt lat="43.80089" lon="5.30914">
        <ele>500</ele>
        <time>2014-05-20T08:30:12Z</time>
      </trkpt>
      <trkpt lat="43.80088" lon="5.30917">
        <ele>500</ele>
        <time>2014-05-20T08:30:14Z</time>
      </trkpt>
      <trkpt lat="43.80082" lon="5.30921">
        <ele>499</ele>
        <time>2014-05-20T08:30:19Z</time>
      </trkpt>
      <trkpt lat="43.80077" lon="5.30927">
        <ele>499</ele>
        <time>2014-05-20T08:30:24Z</time>
      </trkpt>
      <trkpt lat="43.80075" lon="5.30929">
        <ele>499</ele>
        <time>2014-05-20T08:30:26Z</time>
      </trkpt>
      <trkpt lat="43.80071" lon="5.30936">
        <ele>499</ele>
        <time>2014-05-20T08:30:31Z</time>
      </trkpt>
      <trkpt lat="43.80067" lon="5.30943">
        <ele>498</ele>
        <time>2014-05-20T08:30:36Z</time>
      </trkpt>
      <trkpt lat="43.80065" lon="5.30948">
        <ele>499</ele>
        <time>2014-05-20T08:30:40Z</time>
      </trkpt>
      <trkpt lat="43.80063" lon="5.30958">
        <ele>499</ele>
        <time>2014-05-20T08:30:46Z</time>
      </trkpt>
      <trkpt lat="43.80062" lon="5.30964">
        <ele>499</ele>
        <time>2014-05-20T08:30:50Z</time>
      </trkpt>
      <trkpt lat="43.80063" lon="5.30974">
        <ele>499</ele>
        <time>2014-05-20T08:30:56Z</time>
      </trkpt>
      <trkpt lat="43.80065" lon="5.30982">
        <ele>500</ele>
        <time>2014-05-20T08:31:02Z</time>
      </trkpt>
      <trkpt lat="43.80067" lon="5.30989">
        <ele>500</ele>
        <time>2014-05-20T08:31:07Z</time>
      </trkpt>
      <trkpt lat="43.80074" lon="5.31005">
        <ele>502</ele>
        <time>2014-05-20T08:31:20Z</time>
      </trkpt>
      <trkpt lat="43.80076" lon="5.31011">
        <ele>502</ele>
        <time>2014-05-20T08:31:24Z</time>
      </trkpt>
      <trkpt lat="43.80077" lon="5.31018">
        <ele>502</ele>
        <time>2014-05-20T08:31:30Z</time>
      </trkpt>
      <trkpt lat="43.80078" lon="5.31033">
        <ele>502</ele>
        <time>2014-05-20T08:31:39Z</time>
      </trkpt>
      <trkpt lat="43.80076" lon="5.31053">
        <ele>503</ele>
        <time>2014-05-20T08:31:50Z</time>
      </trkpt>
      <trkpt lat="43.80075" lon="5.31063">
        <ele>504</ele>
        <time>2014-05-20T08:31:56Z</time>
      </trkpt>
      <trkpt lat="43.80074" lon="5.31076">
        <ele>506</ele>
        <time>2014-05-20T08:32:03Z</time>
      </trkpt>
      <trkpt lat="43.80075" lon="5.31091">
        <ele>506</ele>
        <time>2014-05-20T08:32:11Z</time>
      </trkpt>
      <trkpt lat="43.80075" lon="5.31093">
        <ele>506</ele>
        <time>2014-05-20T08:32:12Z</time>
      </trkpt>
      <trkpt lat="43.80075" lon="5.31095">
        <ele>505</ele>
        <time>2014-05-20T08:32:13Z</time>
      </trkpt>
      <trkpt lat="43.80075" lon="5.31107">
        <ele>503</ele>
        <time>2014-05-20T08:32:20Z</time>
      </trkpt>
      <trkpt lat="43.80076" lon="5.31116">
        <ele>503</ele>
        <time>2014-05-20T08:32:25Z</time>
      </trkpt>
      <trkpt lat="43.80079" lon="5.31133">
        <ele>502</ele>
        <time>2014-05-20T08:32:36Z</time>
      </trkpt>
      <trkpt lat="43.80081" lon="5.31137">
        <ele>502</ele>
        <time>2014-05-20T08:32:40Z</time>
      </trkpt>
      <trkpt lat="43.80082" lon="5.31143">
        <ele>503</ele>
        <time>2014-05-20T08:32:45Z</time>
      </trkpt>
      <trkpt lat="43.80086" lon="5.31153">
        <ele>510</ele>
        <time>2014-05-20T08:32:52Z</time>
      </trkpt>
      <trkpt lat="43.80093" lon="5.31162">
        <ele>510</ele>
        <time>2014-05-20T08:33:00Z</time>
      </trkpt>
      <trkpt lat="43.80095" lon="5.31164">
        <ele>510</ele>
        <time>2014-05-20T08:33:02Z</time>
      </trkpt>
      <trkpt lat="43.80098" lon="5.31167">
        <ele>507</ele>
        <time>2014-05-20T08:33:05Z</time>
      </trkpt>
      <trkpt lat="43.80103" lon="5.31168">
        <ele>507</ele>
        <time>2014-05-20T08:33:10Z</time>
      </trkpt>
      <trkpt lat="43.8011" lon="5.31176">
        <ele>508</ele>
        <time>2014-05-20T08:33:17Z</time>
      </trkpt>
      <trkpt lat="43.80111" lon="5.31177">
        <ele>508</ele>
        <time>2014-05-20T08:33:18Z</time>
      </trkpt>
      <trkpt lat="43.80116" lon="5.31182">
        <ele>508</ele>
        <time>2014-05-20T08:33:24Z</time>
      </trkpt>
      <trkpt lat="43.80123" lon="5.31188">
        <ele>508</ele>
        <time>2014-05-20T08:33:31Z</time>
      </trkpt>
      <trkpt lat="43.80128" lon="5.31191">
        <ele>509</ele>
        <time>2014-05-20T08:33:36Z</time>
      </trkpt>
      <trkpt lat="43.80133" lon="5.31193">
        <ele>509</ele>
        <time>2014-05-20T08:33:42Z</time>
      </trkpt>
      <trkpt lat="43.8014" lon="5.31195">
        <ele>510</ele>
        <time>2014-05-20T08:33:48Z</time>
      </trkpt>
      <trkpt lat="43.80144" lon="5.31196">
        <ele>510</ele>
        <time>2014-05-20T08:33:51Z</time>
      </trkpt>
      <trkpt lat="43.80153" lon="5.312">
        <ele>510</ele>
        <time>2014-05-20T08:33:58Z</time>
      </trkpt>
      <trkpt lat="43.80156" lon="5.312">
        <ele>510</ele>
        <time>2014-05-20T08:34:00Z</time>
      </trkpt>
      <trkpt lat="43.80161" lon="5.31203">
        <ele>510</ele>
        <time>2014-05-20T08:34:04Z</time>
      </trkpt>
      <trkpt lat="43.80168" lon="5.3121">
        <ele>518</ele>
        <time>2014-05-20T08:34:11Z</time>
      </trkpt>
      <trkpt lat="43.8017" lon="5.31212">
        <ele>518</ele>
        <time>2014-05-20T08:34:13Z</time>
      </trkpt>
      <trkpt lat="43.80175" lon="5.31215">
        <ele>518</ele>
        <time>2014-05-20T08:34:17Z</time>
      </trkpt>
      <trkpt lat="43.80177" lon="5.31217">
        <ele>517</ele>
        <time>2014-05-20T08:34:19Z</time>
      </trkpt>
      <trkpt lat="43.80179" lon="5.3122">
        <ele>517</ele>
        <time>2014-05-20T08:34:21Z</time>
      </trkpt>
      <trkpt lat="43.80187" lon="5.3123">
        <ele>517</ele>
        <time>2014-05-20T08:34:29Z</time>
      </trkpt>
      <trkpt lat="43.80191" lon="5.31237">
        <ele>516</ele>
        <time>2014-05-20T08:34:34Z</time>
      </trkpt>
      <trkpt lat="43.80197" lon="5.31248">
        <ele>517</ele>
        <time>2014-05-20T08:34:41Z</time>
      </trkpt>
      <trkpt lat="43.802" lon="5.31252">
        <ele>510</ele>
        <time>2014-05-20T08:34:44Z</time>
      </trkpt>
      <trkpt lat="43.80201" lon="5.31254">
        <ele>510</ele>
        <time>2014-05-20T08:34:46Z</time>
      </trkpt>
      <trkpt lat="43.80204" lon="5.31257">
        <ele>511</ele>
        <time>2014-05-20T08:34:49Z</time>
      </trkpt>
      <trkpt lat="43.80209" lon="5.31266">
        <ele>511</ele>
        <time>2014-05-20T08:34:55Z</time>
      </trkpt>
      <trkpt lat="43.80215" lon="5.31272">
        <ele>512</ele>
        <time>2014-05-20T08:35:01Z</time>
      </trkpt>
      <trkpt lat="43.8022" lon="5.31281">
        <ele>511</ele>
        <time>2014-05-20T08:35:07Z</time>
      </trkpt>
      <trkpt lat="43.80224" lon="5.31285">
        <ele>512</ele>
        <time>2014-05-20T08:35:11Z</time>
      </trkpt>
      <trkpt lat="43.80228" lon="5.3129">
        <ele>511</ele>
        <time>2014-05-20T08:35:16Z</time>
      </trkpt>
      <trkpt lat="43.80229" lon="5.31292">
        <ele>511</ele>
        <time>2014-05-20T08:35:17Z</time>
      </trkpt>
      <trkpt lat="43.80232" lon="5.31295">
        <ele>511</ele>
        <time>2014-05-20T08:35:21Z</time>
      </trkpt>
      <trkpt lat="43.80236" lon="5.31301">
        <ele>511</ele>
        <time>2014-05-20T08:35:26Z</time>
      </trkpt>
      <trkpt lat="43.80239" lon="5.31303">
        <ele>511</ele>
        <time>2014-05-20T08:35:28Z</time>
      </trkpt>
      <trkpt lat="43.80243" lon="5.31307">
        <ele>511</ele>
        <time>2014-05-20T08:35:33Z</time>
      </trkpt>
      <trkpt lat="43.8025" lon="5.31316">
        <ele>511</ele>
        <time>2014-05-20T08:35:40Z</time>
      </trkpt>
      <trkpt lat="43.80253" lon="5.31319">
        <ele>516</ele>
        <time>2014-05-20T08:35:43Z</time>
      </trkpt>
      <trkpt lat="43.80259" lon="5.31327">
        <ele>515</ele>
        <time>2014-05-20T08:35:49Z</time>
      </trkpt>
      <trkpt lat="43.80262" lon="5.31333">
        <ele>516</ele>
        <time>2014-05-20T08:35:53Z</time>
      </trkpt>
      <trkpt lat="43.80263" lon="5.31334">
        <ele>513</ele>
        <time>2014-05-20T08:35:54Z</time>
      </trkpt>
      <trkpt lat="43.80268" lon="5.31341">
        <ele>513</ele>
        <time>2014-05-20T08:35:59Z</time>
      </trkpt>
      <trkpt lat="43.80269" lon="5.31342">
        <ele>513</ele>
        <time>2014-05-20T08:36:00Z</time>
      </trkpt>
      <trkpt lat="43.80275" lon="5.31352">
        <ele>513</ele>
        <time>2014-05-20T08:36:08Z</time>
      </trkpt>
      <trkpt lat="43.80277" lon="5.31354">
        <ele>513</ele>
        <time>2014-05-20T08:36:10Z</time>
      </trkpt>
      <trkpt lat="43.80285" lon="5.31358">
        <ele>513</ele>
        <time>2014-05-20T08:36:17Z</time>
      </trkpt>
      <trkpt lat="43.8029" lon="5.31362">
        <ele>514</ele>
        <time>2014-05-20T08:36:21Z</time>
      </trkpt>
      <trkpt lat="43.80294" lon="5.31364">
        <ele>514</ele>
        <time>2014-05-20T08:36:25Z</time>
      </trkpt>
      <trkpt lat="43.80296" lon="5.31364">
        <ele>514</ele>
        <time>2014-05-20T08:36:27Z</time>
      </trkpt>
      <trkpt lat="43.80303" lon="5.31366">
        <ele>514</ele>
        <time>2014-05-20T08:36:33Z</time>
      </trkpt>
      <trkpt lat="43.80313" lon="5.31369">
        <ele>515</ele>
        <time>2014-05-20T08:36:41Z</time>
      </trkpt>
      <trkpt lat="43.80317" lon="5.3137">
        <ele>515</ele>
        <time>2014-05-20T08:36:44Z</time>
      </trkpt>
      <trkpt lat="43.80325" lon="5.31374">
        <ele>515</ele>
        <time>2014-05-20T08:36:50Z</time>
      </trkpt>
      <trkpt lat="43.80333" lon="5.3138">
        <ele>515</ele>
        <time>2014-05-20T08:36:58Z</time>
      </trkpt>
      <trkpt lat="43.80337" lon="5.31385">
        <ele>519</ele>
        <time>2014-05-20T08:37:03Z</time>
      </trkpt>
      <trkpt lat="43.80346" lon="5.31391">
        <ele>518</ele>
        <time>2014-05-20T08:37:11Z</time>
      </trkpt>
      <trkpt lat="43.80351" lon="5.31394">
        <ele>518</ele>
        <time>2014-05-20T08:37:16Z</time>
      </trkpt>
      <trkpt lat="43.80359" lon="5.31395">
        <ele>518</ele>
        <time>2014-05-20T08:37:23Z</time>
      </trkpt>
      <trkpt lat="43.80361" lon="5.31395">
        <ele>518</ele>
        <time>2014-05-20T08:37:25Z</time>
      </trkpt>
      <trkpt lat="43.80364" lon="5.31395">
        <ele>518</ele>
        <time>2014-05-20T08:37:28Z</time>
      </trkpt>
      <trkpt lat="43.80372" lon="5.31392">
        <ele>519</ele>
        <time>2014-05-20T08:37:35Z</time>
      </trkpt>
      <trkpt lat="43.80374" lon="5.31391">
        <ele>519</ele>
        <time>2014-05-20T08:37:38Z</time>
      </trkpt>
      <trkpt lat="43.80378" lon="5.31386">
        <ele>519</ele>
        <time>2014-05-20T08:37:45Z</time>
      </trkpt>
      <trkpt lat="43.80381" lon="5.31385">
        <ele>519</ele>
        <time>2014-05-20T08:37:47Z</time>
      </trkpt>
      <trkpt lat="43.80393" lon="5.31376">
        <ele>519</ele>
        <time>2014-05-20T08:38:00Z</time>
      </trkpt>
      <trkpt lat="43.80395" lon="5.31375">
        <ele>519</ele>
        <time>2014-05-20T08:38:03Z</time>
      </trkpt>
      <trkpt lat="43.80398" lon="5.31375">
        <ele>519</ele>
        <time>2014-05-20T08:38:05Z</time>
      </trkpt>
      <trkpt lat="43.804" lon="5.31376">
        <ele>519</ele>
        <time>2014-05-20T08:38:07Z</time>
      </trkpt>
      <trkpt lat="43.80402" lon="5.31377">
        <ele>519</ele>
        <time>2014-05-20T08:38:09Z</time>
      </trkpt>
      <trkpt lat="43.80402" lon="5.31378">
        <ele>519</ele>
        <time>2014-05-20T08:38:10Z</time>
      </trkpt>
      <trkpt lat="43.80404" lon="5.31377">
        <ele>519</ele>
        <time>2014-05-20T08:38:16Z</time>
      </trkpt>
      <trkpt lat="43.80403" lon="5.31376">
        <ele>519</ele>
        <time>2014-05-20T08:38:18Z</time>
      </trkpt>
      <trkpt lat="43.80404" lon="5.31376">
        <ele>519</ele>
        <time>2014-05-20T08:38:28Z</time>
      </trkpt>
      <trkpt lat="43.80404" lon="5.31376">
        <ele>519</ele>
        <time>2014-05-20T08:38:29Z</time>
      </trkpt>
      <trkpt lat="43.80405" lon="5.31374">
        <ele>519</ele>
        <time>2014-05-20T08:38:36Z</time>
      </trkpt>
      <trkpt lat="43.80407" lon="5.31374">
        <ele>519</ele>
        <time>2014-05-20T08:38:42Z</time>
      </trkpt>
      <trkpt lat="43.80408" lon="5.31376">
        <ele>519</ele>
        <time>2014-05-20T08:38:50Z</time>
      </trkpt>
      <trkpt lat="43.80406" lon="5.31378">
        <ele>519</ele>
        <time>2014-05-20T08:39:04Z</time>
      </trkpt>
      <trkpt lat="43.80406" lon="5.3138">
        <ele>519</ele>
        <time>2014-05-20T08:39:17Z</time>
      </trkpt>
      <trkpt lat="43.80406" lon="5.3138">
        <ele>519</ele>
        <time>2014-05-20T08:39:22Z</time>
      </trkpt>
      <trkpt lat="43.80406" lon="5.3138">
        <ele>519</ele>
        <time>2014-05-20T08:39:29Z</time>
      </trkpt>
      <trkpt lat="43.80406" lon="5.3138">
        <ele>519</ele>
        <time>2014-05-20T08:39:33Z</time>
      </trkpt>
      <trkpt lat="43.80406" lon="5.31381">
        <ele>519</ele>
        <time>2014-05-20T08:39:38Z</time>
      </trkpt>
      <trkpt lat="43.80406" lon="5.31382">
        <ele>519</ele>
        <time>2014-05-20T08:39:47Z</time>
      </trkpt>
      <trkpt lat="43.80406" lon="5.31382">
        <ele>519</ele>
        <time>2014-05-20T08:39:56Z</time>
      </trkpt>
      <trkpt lat="43.80406" lon="5.31381">
        <ele>519</ele>
        <time>2014-05-20T08:40:04Z</time>
      </trkpt>
      <trkpt lat="43.80406" lon="5.31381">
        <ele>519</ele>
        <time>2014-05-20T08:40:07Z</time>
      </trkpt>
      <trkpt lat="43.80406" lon="5.31381">
        <ele>519</ele>
        <time>2014-05-20T08:40:10Z</time>
      </trkpt>
      <trkpt lat="43.80406" lon="5.31381">
        <ele>519</ele>
        <time>2014-05-20T08:40:27Z</time>
      </trkpt>
      <trkpt lat="43.80406" lon="5.3138">
        <ele>519</ele>
        <time>2014-05-20T08:40:31Z</time>
      </trkpt>
      <trkpt lat="43.80405" lon="5.3138">
        <ele>519</ele>
        <time>2014-05-20T08:40:39Z</time>
      </trkpt>
      <trkpt lat="43.80405" lon="5.31381">
        <ele>519</ele>
        <time>2014-05-20T08:40:43Z</time>
      </trkpt>
      <trkpt lat="43.80405" lon="5.31383">
        <ele>519</ele>
        <time>2014-05-20T08:40:51Z</time>
      </trkpt>
      <trkpt lat="43.80405" lon="5.31384">
        <ele>519</ele>
        <time>2014-05-20T08:40:54Z</time>
      </trkpt>
      <trkpt lat="43.80406" lon="5.31384">
        <ele>519</ele>
        <time>2014-05-20T08:41:00Z</time>
      </trkpt>
      <trkpt lat="43.80408" lon="5.31383">
        <ele>519</ele>
        <time>2014-05-20T08:41:10Z</time>
      </trkpt>
      <trkpt lat="43.80408" lon="5.31382">
        <ele>519</ele>
        <time>2014-05-20T08:41:17Z</time>
      </trkpt>
      <trkpt lat="43.80409" lon="5.31381">
        <ele>519</ele>
        <time>2014-05-20T08:41:20Z</time>
      </trkpt>
      <trkpt lat="43.80409" lon="5.31382">
        <ele>519</ele>
        <time>2014-05-20T08:41:24Z</time>
      </trkpt>
      <trkpt lat="43.8041" lon="5.31381">
        <ele>519</ele>
        <time>2014-05-20T08:41:29Z</time>
      </trkpt>
      <trkpt lat="43.8041" lon="5.31378">
        <ele>519</ele>
        <time>2014-05-20T08:41:44Z</time>
      </trkpt>
      <trkpt lat="43.80409" lon="5.31377">
        <ele>519</ele>
        <time>2014-05-20T08:41:53Z</time>
      </trkpt>
      <trkpt lat="43.80409" lon="5.31377">
        <ele>519</ele>
        <time>2014-05-20T08:41:54Z</time>
      </trkpt>
      <trkpt lat="43.80408" lon="5.31376">
        <ele>519</ele>
        <time>2014-05-20T08:42:06Z</time>
      </trkpt>
      <trkpt lat="43.80409" lon="5.31376">
        <ele>519</ele>
        <time>2014-05-20T08:42:10Z</time>
      </trkpt>
      <trkpt lat="43.80408" lon="5.31376">
        <ele>519</ele>
        <time>2014-05-20T08:42:13Z</time>
      </trkpt>
      <trkpt lat="43.80409" lon="5.31377">
        <ele>519</ele>
        <time>2014-05-20T08:42:21Z</time>
      </trkpt>
      <trkpt lat="43.80408" lon="5.31377">
        <ele>519</ele>
        <time>2014-05-20T08:42:22Z</time>
      </trkpt>
      <trkpt lat="43.80409" lon="5.31378">
        <ele>519</ele>
        <time>2014-05-20T08:42:28Z</time>
      </trkpt>
      <trkpt lat="43.80409" lon="5.31376">
        <ele>519</ele>
        <time>2014-05-20T08:42:32Z</time>
      </trkpt>
      <trkpt lat="43.80408" lon="5.31377">
        <ele>519</ele>
        <time>2014-05-20T08:42:36Z</time>
      </trkpt>
      <trkpt lat="43.80407" lon="5.31377">
        <ele>519</ele>
        <time>2014-05-20T08:42:39Z</time>
      </trkpt>
      <trkpt lat="43.80408" lon="5.31378">
        <ele>519</ele>
        <time>2014-05-20T08:42:50Z</time>
      </trkpt>
      <trkpt lat="43.80407" lon="5.31378">
        <ele>519</ele>
        <time>2014-05-20T08:42:55Z</time>
      </trkpt>
      <trkpt lat="43.80408" lon="5.31379">
        <ele>519</ele>
        <time>2014-05-20T08:43:02Z</time>
      </trkpt>
      <trkpt lat="43.80409" lon="5.31381">
        <ele>519</ele>
        <time>2014-05-20T08:43:13Z</time>
      </trkpt>
      <trkpt lat="43.80409" lon="5.31381">
        <ele>519</ele>
        <time>2014-05-20T08:43:16Z</time>
      </trkpt>
      <trkpt lat="43.80409" lon="5.31387">
        <ele>518</ele>
        <time>2014-05-20T08:43:38Z</time>
      </trkpt>
      <trkpt lat="43.8041" lon="5.31389">
        <ele>518</ele>
        <time>2014-05-20T08:43:44Z</time>
      </trkpt>
      <trkpt lat="43.80409" lon="5.31392">
        <ele>518</ele>
        <time>2014-05-20T08:43:54Z</time>
      </trkpt>
      <trkpt lat="43.80409" lon="5.31388">
        <ele>518</ele>
        <time>2014-05-20T08:44:20Z</time>
      </trkpt>
      <trkpt lat="43.80408" lon="5.31387">
        <ele>518</ele>
        <time>2014-05-20T08:44:24Z</time>
      </trkpt>
      <trkpt lat="43.80405" lon="5.31386">
        <ele>518</ele>
        <time>2014-05-20T08:44:28Z</time>
      </trkpt>
      <trkpt lat="43.80407" lon="5.3138">
        <ele>519</ele>
        <time>2014-05-20T08:44:41Z</time>
      </trkpt>
      <trkpt lat="43.80408" lon="5.3138">
        <ele>519</ele>
        <time>2014-05-20T08:44:44Z</time>
      </trkpt>
      <trkpt lat="43.80408" lon="5.31378">
        <ele>519</ele>
        <time>2014-05-20T08:44:58Z</time>
      </trkpt>
      <trkpt lat="43.80409" lon="5.31379">
        <ele>519</ele>
        <time>2014-05-20T08:45:04Z</time>
      </trkpt>
      <trkpt lat="43.8041" lon="5.31379">
        <ele>519</ele>
        <time>2014-05-20T08:45:08Z</time>
      </trkpt>
      <trkpt lat="43.80411" lon="5.31381">
        <ele>519</ele>
        <time>2014-05-20T08:45:26Z</time>
      </trkpt>
      <trkpt lat="43.8041" lon="5.31382">
        <ele>519</ele>
        <time>2014-05-20T08:45:31Z</time>
      </trkpt>
      <trkpt lat="43.8041" lon="5.31381">
        <ele>519</ele>
        <time>2014-05-20T08:45:35Z</time>
      </trkpt>
      <trkpt lat="43.80409" lon="5.31382">
        <ele>519</ele>
        <time>2014-05-20T08:45:39Z</time>
      </trkpt>
      <trkpt lat="43.8041" lon="5.31385">
        <ele>518</ele>
        <time>2014-05-20T08:45:56Z</time>
      </trkpt>
      <trkpt lat="43.8041" lon="5.31387">
        <ele>518</ele>
        <time>2014-05-20T08:46:09Z</time>
      </trkpt>
      <trkpt lat="43.80411" lon="5.31387">
        <ele>518</ele>
        <time>2014-05-20T08:46:15Z</time>
      </trkpt>
      <trkpt lat="43.80411" lon="5.31387">
        <ele>518</ele>
        <time>2014-05-20T08:46:21Z</time>
      </trkpt>
      <trkpt lat="43.80411" lon="5.31387">
        <ele>518</ele>
        <time>2014-05-20T08:46:29Z</time>
      </trkpt>
      <trkpt lat="43.80411" lon="5.31389">
        <ele>518</ele>
        <time>2014-05-20T08:46:35Z</time>
      </trkpt>
      <trkpt lat="43.80411" lon="5.31389">
        <ele>518</ele>
        <time>2014-05-20T08:46:41Z</time>
      </trkpt>
      <trkpt lat="43.80411" lon="5.31389">
        <ele>518</ele>
        <time>2014-05-20T08:46:45Z</time>
      </trkpt>
      <trkpt lat="43.80411" lon="5.31388">
        <ele>518</ele>
        <time>2014-05-20T08:46:48Z</time>
      </trkpt>
      <trkpt lat="43.80412" lon="5.31388">
        <ele>518</ele>
        <time>2014-05-20T08:46:53Z</time>
      </trkpt>
      <trkpt lat="43.80414" lon="5.3139">
        <ele>518</ele>
        <time>2014-05-20T08:46:57Z</time>
      </trkpt>
      <trkpt lat="43.80414" lon="5.31393">
        <ele>518</ele>
        <time>2014-05-20T08:47:00Z</time>
      </trkpt>
      <trkpt lat="43.80416" lon="5.31397">
        <ele>518</ele>
        <time>2014-05-20T08:47:07Z</time>
      </trkpt>
      <trkpt lat="43.80415" lon="5.31424">
        <ele>516</ele>
        <time>2014-05-20T08:47:33Z</time>
      </trkpt>
      <trkpt lat="43.80414" lon="5.31428">
        <ele>516</ele>
        <time>2014-05-20T08:47:37Z</time>
      </trkpt>
      <trkpt lat="43.80414" lon="5.31437">
        <ele>516</ele>
        <time>2014-05-20T08:47:45Z</time>
      </trkpt>
      <trkpt lat="43.80413" lon="5.31439">
        <ele>516</ele>
        <time>2014-05-20T08:47:49Z</time>
      </trkpt>
      <trkpt lat="43.80413" lon="5.31444">
        <ele>516</ele>
        <time>2014-05-20T08:47:54Z</time>
      </trkpt>
      <trkpt lat="43.80412" lon="5.31445">
        <ele>516</ele>
        <time>2014-05-20T08:47:57Z</time>
      </trkpt>
      <trkpt lat="43.80413" lon="5.31445">
        <ele>516</ele>
        <time>2014-05-20T08:48:01Z</time>
      </trkpt>
      <trkpt lat="43.80414" lon="5.31446">
        <ele>516</ele>
        <time>2014-05-20T08:48:05Z</time>
      </trkpt>
      <trkpt lat="43.80415" lon="5.31447">
        <ele>516</ele>
        <time>2014-05-20T08:48:09Z</time>
      </trkpt>
      <trkpt lat="43.80416" lon="5.31449">
        <ele>516</ele>
        <time>2014-05-20T08:48:18Z</time>
      </trkpt>
      <trkpt lat="43.80419" lon="5.3146">
        <ele>508</ele>
        <time>2014-05-20T08:48:30Z</time>
      </trkpt>
      <trkpt lat="43.8042" lon="5.31462">
        <ele>508</ele>
        <time>2014-05-20T08:48:32Z</time>
      </trkpt>
      <trkpt lat="43.8042" lon="5.31467">
        <ele>508</ele>
        <time>2014-05-20T08:48:36Z</time>
      </trkpt>
      <trkpt lat="43.80419" lon="5.31471">
        <ele>508</ele>
        <time>2014-05-20T08:48:39Z</time>
      </trkpt>
      <trkpt lat="43.80416" lon="5.31478">
        <ele>515</ele>
        <time>2014-05-20T08:48:44Z</time>
      </trkpt>
      <trkpt lat="43.80414" lon="5.31483">
        <ele>514</ele>
        <time>2014-05-20T08:48:49Z</time>
      </trkpt>
      <trkpt lat="43.80413" lon="5.3149">
        <ele>514</ele>
        <time>2014-05-20T08:48:58Z</time>
      </trkpt>
      <trkpt lat="43.80413" lon="5.31497">
        <ele>513</ele>
        <time>2014-05-20T08:49:02Z</time>
      </trkpt>
      <trkpt lat="43.80414" lon="5.31501">
        <ele>512</ele>
        <time>2014-05-20T08:49:06Z</time>
      </trkpt>
      <trkpt lat="43.80414" lon="5.31503">
        <ele>512</ele>
        <time>2014-05-20T08:49:07Z</time>
      </trkpt>
      <trkpt lat="43.80415" lon="5.31512">
        <ele>513</ele>
        <time>2014-05-20T08:49:13Z</time>
      </trkpt>
      <trkpt lat="43.80415" lon="5.31517">
        <ele>513</ele>
        <time>2014-05-20T08:49:16Z</time>
      </trkpt>
      <trkpt lat="43.80416" lon="5.31518">
        <ele>513</ele>
        <time>2014-05-20T08:49:17Z</time>
      </trkpt>
      <trkpt lat="43.80416" lon="5.31527">
        <ele>513</ele>
        <time>2014-05-20T08:49:22Z</time>
      </trkpt>
      <trkpt lat="43.80418" lon="5.31533">
        <ele>505</ele>
        <time>2014-05-20T08:49:26Z</time>
      </trkpt>
      <trkpt lat="43.80417" lon="5.31539">
        <ele>505</ele>
        <time>2014-05-20T08:49:30Z</time>
      </trkpt>
      <trkpt lat="43.80417" lon="5.31551">
        <ele>504</ele>
        <time>2014-05-20T08:49:38Z</time>
      </trkpt>
      <trkpt lat="43.80417" lon="5.31558">
        <ele>512</ele>
        <time>2014-05-20T08:49:42Z</time>
      </trkpt>
      <trkpt lat="43.80417" lon="5.31565">
        <ele>505</ele>
        <time>2014-05-20T08:49:46Z</time>
      </trkpt>
      <trkpt lat="43.80417" lon="5.31574">
        <ele>505</ele>
        <time>2014-05-20T08:49:51Z</time>
      </trkpt>
      <trkpt lat="43.80416" lon="5.31581">
        <ele>508</ele>
        <time>2014-05-20T08:49:55Z</time>
      </trkpt>
      <trkpt lat="43.80414" lon="5.31587">
        <ele>507</ele>
        <time>2014-05-20T08:50:05Z</time>
      </trkpt>
      <trkpt lat="43.80414" lon="5.31592">
        <ele>508</ele>
        <time>2014-05-20T08:50:18Z</time>
      </trkpt>
      <trkpt lat="43.80415" lon="5.31593">
        <ele>508</ele>
        <time>2014-05-20T08:50:24Z</time>
      </trkpt>
      <trkpt lat="43.80415" lon="5.31596">
        <ele>508</ele>
        <time>2014-05-20T08:50:34Z</time>
      </trkpt>
      <trkpt lat="43.80412" lon="5.31607">
        <ele>508</ele>
        <time>2014-05-20T08:50:51Z</time>
      </trkpt>
      <trkpt lat="43.80411" lon="5.31613">
        <ele>508</ele>
        <time>2014-05-20T08:50:56Z</time>
      </trkpt>
      <trkpt lat="43.8041" lon="5.31615">
        <ele>508</ele>
        <time>2014-05-20T08:50:58Z</time>
      </trkpt>
      <trkpt lat="43.80409" lon="5.31619">
        <ele>508</ele>
        <time>2014-05-20T08:51:01Z</time>
      </trkpt>
      <trkpt lat="43.80406" lon="5.31623">
        <ele>508</ele>
        <time>2014-05-20T08:51:04Z</time>
      </trkpt>
      <trkpt lat="43.80405" lon="5.31626">
        <ele>508</ele>
        <time>2014-05-20T08:51:06Z</time>
      </trkpt>
      <trkpt lat="43.80405" lon="5.3163">
        <ele>507</ele>
        <time>2014-05-20T08:51:09Z</time>
      </trkpt>
      <trkpt lat="43.80403" lon="5.31636">
        <ele>507</ele>
        <time>2014-05-20T08:51:13Z</time>
      </trkpt>
      <trkpt lat="43.80392" lon="5.31662">
        <ele>506</ele>
        <time>2014-05-20T08:51:32Z</time>
      </trkpt>
      <trkpt lat="43.80385" lon="5.31672">
        <ele>504</ele>
        <time>2014-05-20T08:51:40Z</time>
      </trkpt>
      <trkpt lat="43.80381" lon="5.3168">
        <ele>505</ele>
        <time>2014-05-20T08:51:46Z</time>
      </trkpt>
      <trkpt lat="43.80379" lon="5.31684">
        <ele>505</ele>
        <time>2014-05-20T08:51:49Z</time>
      </trkpt>
      <trkpt lat="43.80378" lon="5.31689">
        <ele>505</ele>
        <time>2014-05-20T08:51:52Z</time>
      </trkpt>
      <trkpt lat="43.80377" lon="5.31696">
        <ele>505</ele>
        <time>2014-05-20T08:51:57Z</time>
      </trkpt>
      <trkpt lat="43.80376" lon="5.31717">
        <ele>505</ele>
        <time>2014-05-20T08:52:10Z</time>
      </trkpt>
      <trkpt lat="43.80373" lon="5.31728">
        <ele>505</ele>
        <time>2014-05-20T08:52:17Z</time>
      </trkpt>
      <trkpt lat="43.80372" lon="5.31736">
        <ele>505</ele>
        <time>2014-05-20T08:52:22Z</time>
      </trkpt>
      <trkpt lat="43.80373" lon="5.31738">
        <ele>505</ele>
        <time>2014-05-20T08:52:24Z</time>
      </trkpt>
      <trkpt lat="43.8037" lon="5.31744">
        <ele>505</ele>
        <time>2014-05-20T08:52:29Z</time>
      </trkpt>
      <trkpt lat="43.80367" lon="5.31756">
        <ele>502</ele>
        <time>2014-05-20T08:52:38Z</time>
      </trkpt>
      <trkpt lat="43.80366" lon="5.31766">
        <ele>502</ele>
        <time>2014-05-20T08:52:47Z</time>
      </trkpt>
      <trkpt lat="43.80364" lon="5.31769">
        <ele>502</ele>
        <time>2014-05-20T08:52:52Z</time>
      </trkpt>
      <trkpt lat="43.80364" lon="5.3177">
        <ele>502</ele>
        <time>2014-05-20T08:52:55Z</time>
      </trkpt>
      <trkpt lat="43.80364" lon="5.31771">
        <ele>502</ele>
        <time>2014-05-20T08:52:56Z</time>
      </trkpt>
      <trkpt lat="43.80365" lon="5.31774">
        <ele>502</ele>
        <time>2014-05-20T08:53:07Z</time>
      </trkpt>
      <trkpt lat="43.80365" lon="5.31774">
        <ele>502</ele>
        <time>2014-05-20T08:53:11Z</time>
      </trkpt>
      <trkpt lat="43.80366" lon="5.31774">
        <ele>502</ele>
        <time>2014-05-20T08:53:14Z</time>
      </trkpt>
      <trkpt lat="43.80366" lon="5.31775">
        <ele>501</ele>
        <time>2014-05-20T08:53:16Z</time>
      </trkpt>
      <trkpt lat="43.80368" lon="5.31775">
        <ele>501</ele>
        <time>2014-05-20T08:53:19Z</time>
      </trkpt>
      <trkpt lat="43.80369" lon="5.31777">
        <ele>501</ele>
        <time>2014-05-20T08:53:28Z</time>
      </trkpt>
      <trkpt lat="43.80368" lon="5.31778">
        <ele>501</ele>
        <time>2014-05-20T08:53:32Z</time>
      </trkpt>
      <trkpt lat="43.80366" lon="5.31782">
        <ele>501</ele>
        <time>2014-05-20T08:53:36Z</time>
      </trkpt>
      <trkpt lat="43.80362" lon="5.31787">
        <ele>501</ele>
        <time>2014-05-20T08:53:42Z</time>
      </trkpt>
      <trkpt lat="43.8036" lon="5.31794">
        <ele>501</ele>
        <time>2014-05-20T08:53:49Z</time>
      </trkpt>
      <trkpt lat="43.80358" lon="5.31798">
        <ele>501</ele>
        <time>2014-05-20T08:53:52Z</time>
      </trkpt>
      <trkpt lat="43.80357" lon="5.31801">
        <ele>501</ele>
        <time>2014-05-20T08:53:54Z</time>
      </trkpt>
      <trkpt lat="43.80357" lon="5.31808">
        <ele>500</ele>
        <time>2014-05-20T08:53:58Z</time>
      </trkpt>
      <trkpt lat="43.80356" lon="5.3181">
        <ele>500</ele>
        <time>2014-05-20T08:54:00Z</time>
      </trkpt>
      <trkpt lat="43.80355" lon="5.31821">
        <ele>500</ele>
        <time>2014-05-20T08:54:08Z</time>
      </trkpt>
      <trkpt lat="43.80354" lon="5.31826">
        <ele>500</ele>
        <time>2014-05-20T08:54:11Z</time>
      </trkpt>
      <trkpt lat="43.80353" lon="5.31833">
        <ele>500</ele>
        <time>2014-05-20T08:54:17Z</time>
      </trkpt>
      <trkpt lat="43.80349" lon="5.31841">
        <ele>497</ele>
        <time>2014-05-20T08:54:23Z</time>
      </trkpt>
      <trkpt lat="43.80348" lon="5.31847">
        <ele>496</ele>
        <time>2014-05-20T08:54:28Z</time>
      </trkpt>
      <trkpt lat="43.80343" lon="5.31854">
        <ele>496</ele>
        <time>2014-05-20T08:54:34Z</time>
      </trkpt>
      <trkpt lat="43.80342" lon="5.31858">
        <ele>495</ele>
        <time>2014-05-20T08:54:37Z</time>
      </trkpt>
      <trkpt lat="43.80338" lon="5.31867">
        <ele>494</ele>
        <time>2014-05-20T08:54:44Z</time>
      </trkpt>
      <trkpt lat="43.80333" lon="5.31892">
        <ele>500</ele>
        <time>2014-05-20T08:55:00Z</time>
      </trkpt>
      <trkpt lat="43.80327" lon="5.3191">
        <ele>497</ele>
        <time>2014-05-20T08:55:13Z</time>
      </trkpt>
      <trkpt lat="43.80327" lon="5.31912">
        <ele>496</ele>
        <time>2014-05-20T08:55:15Z</time>
      </trkpt>
      <trkpt lat="43.80321" lon="5.31926">
        <ele>495</ele>
        <time>2014-05-20T08:55:24Z</time>
      </trkpt>
      <trkpt lat="43.80321" lon="5.31932">
        <ele>496</ele>
        <time>2014-05-20T08:55:28Z</time>
      </trkpt>
      <trkpt lat="43.80318" lon="5.31938">
        <ele>496</ele>
        <time>2014-05-20T08:55:33Z</time>
      </trkpt>
      <trkpt lat="43.80316" lon="5.31947">
        <ele>496</ele>
        <time>2014-05-20T08:55:39Z</time>
      </trkpt>
      <trkpt lat="43.80313" lon="5.31953">
        <ele>496</ele>
        <time>2014-05-20T08:55:43Z</time>
      </trkpt>
      <trkpt lat="43.80313" lon="5.31956">
        <ele>496</ele>
        <time>2014-05-20T08:55:45Z</time>
      </trkpt>
      <trkpt lat="43.8031" lon="5.31961">
        <ele>496</ele>
        <time>2014-05-20T08:55:49Z</time>
      </trkpt>
      <trkpt lat="43.80307" lon="5.31965">
        <ele>496</ele>
        <time>2014-05-20T08:55:52Z</time>
      </trkpt>
      <trkpt lat="43.80305" lon="5.3197">
        <ele>496</ele>
        <time>2014-05-20T08:55:56Z</time>
      </trkpt>
      <trkpt lat="43.80304" lon="5.31973">
        <ele>496</ele>
        <time>2014-05-20T08:55:58Z</time>
      </trkpt>
      <trkpt lat="43.80304" lon="5.31976">
        <ele>496</ele>
        <time>2014-05-20T08:56:00Z</time>
      </trkpt>
      <trkpt lat="43.80306" lon="5.31981">
        <ele>496</ele>
        <time>2014-05-20T08:56:07Z</time>
      </trkpt>
      <trkpt lat="43.80309" lon="5.31988">
        <ele>495</ele>
        <time>2014-05-20T08:56:15Z</time>
      </trkpt>
      <trkpt lat="43.80312" lon="5.31994">
        <ele>494</ele>
        <time>2014-05-20T08:56:22Z</time>
      </trkpt>
      <trkpt lat="43.80312" lon="5.31995">
        <ele>494</ele>
        <time>2014-05-20T08:56:24Z</time>
      </trkpt>
      <trkpt lat="43.80314" lon="5.31999">
        <ele>493</ele>
        <time>2014-05-20T08:56:30Z</time>
      </trkpt>
      <trkpt lat="43.80319" lon="5.32003">
        <ele>490</ele>
        <time>2014-05-20T08:56:35Z</time>
      </trkpt>
      <trkpt lat="43.80325" lon="5.32009">
        <ele>490</ele>
        <time>2014-05-20T08:56:43Z</time>
      </trkpt>
      <trkpt lat="43.80327" lon="5.32011">
        <ele>490</ele>
        <time>2014-05-20T08:56:45Z</time>
      </trkpt>
      <trkpt lat="43.80329" lon="5.32013">
        <ele>490</ele>
        <time>2014-05-20T08:56:47Z</time>
      </trkpt>
      <trkpt lat="43.8033" lon="5.32014">
        <ele>490</ele>
        <time>2014-05-20T08:56:49Z</time>
      </trkpt>
      <trkpt lat="43.80336" lon="5.32022">
        <ele>483</ele>
        <time>2014-05-20T08:56:58Z</time>
      </trkpt>
      <trkpt lat="43.80341" lon="5.32028">
        <ele>482</ele>
        <time>2014-05-20T08:57:06Z</time>
      </trkpt>
      <trkpt lat="43.80344" lon="5.32029">
        <ele>482</ele>
        <time>2014-05-20T08:57:09Z</time>
      </trkpt>
      <trkpt lat="43.80347" lon="5.32034">
        <ele>481</ele>
        <time>2014-05-20T08:57:14Z</time>
      </trkpt>
      <trkpt lat="43.80349" lon="5.32035">
        <ele>481</ele>
        <time>2014-05-20T08:57:16Z</time>
      </trkpt>
      <trkpt lat="43.80352" lon="5.32035">
        <ele>481</ele>
        <time>2014-05-20T08:57:20Z</time>
      </trkpt>
      <trkpt lat="43.80356" lon="5.32036">
        <ele>480</ele>
        <time>2014-05-20T08:57:26Z</time>
      </trkpt>
      <trkpt lat="43.80357" lon="5.32035">
        <ele>480</ele>
        <time>2014-05-20T08:57:28Z</time>
      </trkpt>
      <trkpt lat="43.80358" lon="5.32034">
        <ele>480</ele>
        <time>2014-05-20T08:57:31Z</time>
      </trkpt>
      <trkpt lat="43.80359" lon="5.32034">
        <ele>480</ele>
        <time>2014-05-20T08:57:35Z</time>
      </trkpt>
      <trkpt lat="43.8036" lon="5.32034">
        <ele>480</ele>
        <time>2014-05-20T08:57:36Z</time>
      </trkpt>
      <trkpt lat="43.8036" lon="5.32033">
        <ele>480</ele>
        <time>2014-05-20T08:57:38Z</time>
      </trkpt>
      <trkpt lat="43.80362" lon="5.32032">
        <ele>480</ele>
        <time>2014-05-20T08:57:41Z</time>
      </trkpt>
      <trkpt lat="43.80364" lon="5.32033">
        <ele>480</ele>
        <time>2014-05-20T08:57:47Z</time>
      </trkpt>
      <trkpt lat="43.80364" lon="5.32034">
        <ele>480</ele>
        <time>2014-05-20T08:57:52Z</time>
      </trkpt>
      <trkpt lat="43.80365" lon="5.32036">
        <ele>480</ele>
        <time>2014-05-20T08:57:54Z</time>
      </trkpt>
      <trkpt lat="43.80373" lon="5.32038">
        <ele>479</ele>
        <time>2014-05-20T08:58:03Z</time>
      </trkpt>
      <trkpt lat="43.80376" lon="5.32039">
        <ele>478</ele>
        <time>2014-05-20T08:58:07Z</time>
      </trkpt>
      <trkpt lat="43.80379" lon="5.32038">
        <ele>478</ele>
        <time>2014-05-20T08:58:11Z</time>
      </trkpt>
      <trkpt lat="43.80383" lon="5.32036">
        <ele>478</ele>
        <time>2014-05-20T08:58:17Z</time>
      </trkpt>
      <trkpt lat="43.80387" lon="5.32036">
        <ele>478</ele>
        <time>2014-05-20T08:58:20Z</time>
      </trkpt>
      <trkpt lat="43.80388" lon="5.32037">
        <ele>477</ele>
        <time>2014-05-20T08:58:22Z</time>
      </trkpt>
      <trkpt lat="43.80391" lon="5.32038">
        <ele>477</ele>
        <time>2014-05-20T08:58:25Z</time>
      </trkpt>
      <trkpt lat="43.80395" lon="5.32037">
        <ele>477</ele>
        <time>2014-05-20T08:58:29Z</time>
      </trkpt>
      <trkpt lat="43.80397" lon="5.32037">
        <ele>477</ele>
        <time>2014-05-20T08:58:31Z</time>
      </trkpt>
      <trkpt lat="43.80399" lon="5.32038">
        <ele>477</ele>
        <time>2014-05-20T08:58:33Z</time>
      </trkpt>
      <trkpt lat="43.80401" lon="5.32039">
        <ele>476</ele>
        <time>2014-05-20T08:58:39Z</time>
      </trkpt>
      <trkpt lat="43.80402" lon="5.32041">
        <ele>476</ele>
        <time>2014-05-20T08:58:43Z</time>
      </trkpt>
      <trkpt lat="43.80401" lon="5.32051">
        <ele>476</ele>
        <time>2014-05-20T08:58:52Z</time>
      </trkpt>
      <trkpt lat="43.804" lon="5.32053">
        <ele>476</ele>
        <time>2014-05-20T08:58:54Z</time>
      </trkpt>
      <trkpt lat="43.80397" lon="5.32054">
        <ele>476</ele>
        <time>2014-05-20T08:58:59Z</time>
      </trkpt>
      <trkpt lat="43.80396" lon="5.32055">
        <ele>476</ele>
        <time>2014-05-20T08:59:01Z</time>
      </trkpt>
      <trkpt lat="43.80395" lon="5.32056">
        <ele>476</ele>
        <time>2014-05-20T08:59:02Z</time>
      </trkpt>
      <trkpt lat="43.80391" lon="5.32057">
        <ele>477</ele>
        <time>2014-05-20T08:59:06Z</time>
      </trkpt>
      <trkpt lat="43.80387" lon="5.3206">
        <ele>477</ele>
        <time>2014-05-20T08:59:11Z</time>
      </trkpt>
      <trkpt lat="43.80383" lon="5.32061">
        <ele>477</ele>
        <time>2014-05-20T08:59:15Z</time>
      </trkpt>
      <trkpt lat="43.80382" lon="5.32062">
        <ele>477</ele>
        <time>2014-05-20T08:59:16Z</time>
      </trkpt>
      <trkpt lat="43.80379" lon="5.32066">
        <ele>478</ele>
        <time>2014-05-20T08:59:20Z</time>
      </trkpt>
      <trkpt lat="43.80378" lon="5.32067">
        <ele>478</ele>
        <time>2014-05-20T08:59:21Z</time>
      </trkpt>
      <trkpt lat="43.80376" lon="5.32067">
        <ele>478</ele>
        <time>2014-05-20T08:59:23Z</time>
      </trkpt>
      <trkpt lat="43.80375" lon="5.3207">
        <ele>478</ele>
        <time>2014-05-20T08:59:33Z</time>
      </trkpt>
      <trkpt lat="43.80364" lon="5.32073">
        <ele>479</ele>
        <time>2014-05-20T08:59:45Z</time>
      </trkpt>
      <trkpt lat="43.80359" lon="5.32073">
        <ele>480</ele>
        <time>2014-05-20T08:59:50Z</time>
      </trkpt>
      <trkpt lat="43.80353" lon="5.32074">
        <ele>481</ele>
        <time>2014-05-20T08:59:56Z</time>
      </trkpt>
      <trkpt lat="43.8035" lon="5.32076">
        <ele>481</ele>
        <time>2014-05-20T09:00:00Z</time>
      </trkpt>
      <trkpt lat="43.80343" lon="5.32084">
        <ele>482</ele>
        <time>2014-05-20T09:00:08Z</time>
      </trkpt>
      <trkpt lat="43.80341" lon="5.32086">
        <ele>482</ele>
        <time>2014-05-20T09:00:10Z</time>
      </trkpt>
      <trkpt lat="43.80338" lon="5.32089">
        <ele>483</ele>
        <time>2014-05-20T09:00:13Z</time>
      </trkpt>
      <trkpt lat="43.80337" lon="5.32093">
        <ele>482</ele>
        <time>2014-05-20T09:00:16Z</time>
      </trkpt>
      <trkpt lat="43.80338" lon="5.32101">
        <ele>481</ele>
        <time>2014-05-20T09:00:21Z</time>
      </trkpt>
      <trkpt lat="43.8034" lon="5.32104">
        <ele>481</ele>
        <time>2014-05-20T09:00:24Z</time>
      </trkpt>
      <trkpt lat="43.80342" lon="5.32106">
        <ele>481</ele>
        <time>2014-05-20T09:00:27Z</time>
      </trkpt>
      <trkpt lat="43.80347" lon="5.32108">
        <ele>480</ele>
        <time>2014-05-20T09:00:34Z</time>
      </trkpt>
      <trkpt lat="43.80349" lon="5.3211">
        <ele>480</ele>
        <time>2014-05-20T09:00:37Z</time>
      </trkpt>
      <trkpt lat="43.80352" lon="5.3211">
        <ele>480</ele>
        <time>2014-05-20T09:00:40Z</time>
      </trkpt>
      <trkpt lat="43.80356" lon="5.3211">
        <ele>480</ele>
        <time>2014-05-20T09:00:50Z</time>
      </trkpt>
      <trkpt lat="43.80359" lon="5.32111">
        <ele>479</ele>
        <time>2014-05-20T09:00:52Z</time>
      </trkpt>
      <trkpt lat="43.8036" lon="5.32111">
        <ele>479</ele>
        <time>2014-05-20T09:00:53Z</time>
      </trkpt>
      <trkpt lat="43.80361" lon="5.32111">
        <ele>479</ele>
        <time>2014-05-20T09:00:58Z</time>
      </trkpt>
      <trkpt lat="43.80363" lon="5.32111">
        <ele>479</ele>
        <time>2014-05-20T09:01:03Z</time>
      </trkpt>
      <trkpt lat="43.80366" lon="5.32112">
        <ele>479</ele>
        <time>2014-05-20T09:01:07Z</time>
      </trkpt>
      <trkpt lat="43.80369" lon="5.32112">
        <ele>478</ele>
        <time>2014-05-20T09:01:10Z</time>
      </trkpt>
      <trkpt lat="43.8037" lon="5.3211">
        <ele>478</ele>
        <time>2014-05-20T09:01:12Z</time>
      </trkpt>
      <trkpt lat="43.80373" lon="5.32109">
        <ele>478</ele>
        <time>2014-05-20T09:01:14Z</time>
      </trkpt>
      <trkpt lat="43.80382" lon="5.3211">
        <ele>477</ele>
        <time>2014-05-20T09:01:22Z</time>
      </trkpt>
      <trkpt lat="43.80385" lon="5.3211">
        <ele>477</ele>
        <time>2014-05-20T09:01:25Z</time>
      </trkpt>
      <trkpt lat="43.80391" lon="5.32112">
        <ele>476</ele>
        <time>2014-05-20T09:01:30Z</time>
      </trkpt>
      <trkpt lat="43.804" lon="5.32111">
        <ele>476</ele>
        <time>2014-05-20T09:01:39Z</time>
      </trkpt>
      <trkpt lat="43.80404" lon="5.32109">
        <ele>475</ele>
        <time>2014-05-20T09:01:45Z</time>
      </trkpt>
      <trkpt lat="43.80406" lon="5.3211">
        <ele>475</ele>
        <time>2014-05-20T09:01:48Z</time>
      </trkpt>
      <trkpt lat="43.80408" lon="5.32112">
        <ele>475</ele>
        <time>2014-05-20T09:01:51Z</time>
      </trkpt>
      <trkpt lat="43.8041" lon="5.32112">
        <ele>475</ele>
        <time>2014-05-20T09:01:54Z</time>
      </trkpt>
      <trkpt lat="43.80413" lon="5.32112">
        <ele>475</ele>
        <time>2014-05-20T09:01:59Z</time>
      </trkpt>
      <trkpt lat="43.80414" lon="5.3211">
        <ele>475</ele>
        <time>2014-05-20T09:02:04Z</time>
      </trkpt>
      <trkpt lat="43.80415" lon="5.3211">
        <ele>475</ele>
        <time>2014-05-20T09:02:05Z</time>
      </trkpt>
      <trkpt lat="43.80418" lon="5.32111">
        <ele>466</ele>
        <time>2014-05-20T09:02:12Z</time>
      </trkpt>
      <trkpt lat="43.80419" lon="5.32111">
        <ele>466</ele>
        <time>2014-05-20T09:02:13Z</time>
      </trkpt>
      <trkpt lat="43.8042" lon="5.32112">
        <ele>466</ele>
        <time>2014-05-20T09:02:16Z</time>
      </trkpt>
      <trkpt lat="43.80421" lon="5.32113">
        <ele>466</ele>
        <time>2014-05-20T09:02:20Z</time>
      </trkpt>
      <trkpt lat="43.80424" lon="5.32114">
        <ele>466</ele>
        <time>2014-05-20T09:02:24Z</time>
      </trkpt>
      <trkpt lat="43.80425" lon="5.32115">
        <ele>466</ele>
        <time>2014-05-20T09:02:25Z</time>
      </trkpt>
      <trkpt lat="43.80432" lon="5.32116">
        <ele>465</ele>
        <time>2014-05-20T09:02:32Z</time>
      </trkpt>
      <trkpt lat="43.80433" lon="5.32117">
        <ele>465</ele>
        <time>2014-05-20T09:02:34Z</time>
      </trkpt>
      <trkpt lat="43.80434" lon="5.3212">
        <ele>465</ele>
        <time>2014-05-20T09:02:39Z</time>
      </trkpt>
      <trkpt lat="43.80435" lon="5.3212">
        <ele>465</ele>
        <time>2014-05-20T09:02:41Z</time>
      </trkpt>
      <trkpt lat="43.80442" lon="5.32123">
        <ele>465</ele>
        <time>2014-05-20T09:02:48Z</time>
      </trkpt>
      <trkpt lat="43.80445" lon="5.32124">
        <ele>464</ele>
        <time>2014-05-20T09:02:52Z</time>
      </trkpt>
      <trkpt lat="43.80448" lon="5.32126">
        <ele>464</ele>
        <time>2014-05-20T09:02:56Z</time>
      </trkpt>
      <trkpt lat="43.8045" lon="5.32126">
        <ele>464</ele>
        <time>2014-05-20T09:02:57Z</time>
      </trkpt>
      <trkpt lat="43.80454" lon="5.32128">
        <ele>463</ele>
        <time>2014-05-20T09:03:00Z</time>
      </trkpt>
      <trkpt lat="43.80459" lon="5.3213">
        <ele>463</ele>
        <time>2014-05-20T09:03:05Z</time>
      </trkpt>
      <trkpt lat="43.80471" lon="5.32132">
        <ele>462</ele>
        <time>2014-05-20T09:03:14Z</time>
      </trkpt>
      <trkpt lat="43.80476" lon="5.32134">
        <ele>461</ele>
        <time>2014-05-20T09:03:19Z</time>
      </trkpt>
      <trkpt lat="43.80481" lon="5.32138">
        <ele>460</ele>
        <time>2014-05-20T09:03:24Z</time>
      </trkpt>
      <trkpt lat="43.80487" lon="5.3214">
        <ele>460</ele>
        <time>2014-05-20T09:03:30Z</time>
      </trkpt>
      <trkpt lat="43.80491" lon="5.32142">
        <ele>459</ele>
        <time>2014-05-20T09:03:35Z</time>
      </trkpt>
      <trkpt lat="43.80492" lon="5.32144">
        <ele>459</ele>
        <time>2014-05-20T09:03:40Z</time>
      </trkpt>
      <trkpt lat="43.80496" lon="5.32145">
        <ele>459</ele>
        <time>2014-05-20T09:03:44Z</time>
      </trkpt>
      <trkpt lat="43.80497" lon="5.32146">
        <ele>458</ele>
        <time>2014-05-20T09:03:46Z</time>
      </trkpt>
      <trkpt lat="43.805" lon="5.32147">
        <ele>458</ele>
        <time>2014-05-20T09:03:48Z</time>
      </trkpt>
      <trkpt lat="43.80502" lon="5.32149">
        <ele>451</ele>
        <time>2014-05-20T09:03:50Z</time>
      </trkpt>
      <trkpt lat="43.80507" lon="5.3215">
        <ele>451</ele>
        <time>2014-05-20T09:03:56Z</time>
      </trkpt>
      <trkpt lat="43.8051" lon="5.32151">
        <ele>451</ele>
        <time>2014-05-20T09:04:04Z</time>
      </trkpt>
      <trkpt lat="43.80512" lon="5.3215">
        <ele>451</ele>
        <time>2014-05-20T09:04:08Z</time>
      </trkpt>
      <trkpt lat="43.80515" lon="5.3215">
        <ele>451</ele>
        <time>2014-05-20T09:04:12Z</time>
      </trkpt>
      <trkpt lat="43.80516" lon="5.32151">
        <ele>450</ele>
        <time>2014-05-20T09:04:13Z</time>
      </trkpt>
      <trkpt lat="43.8052" lon="5.32155">
        <ele>450</ele>
        <time>2014-05-20T09:04:18Z</time>
      </trkpt>
      <trkpt lat="43.80525" lon="5.32158">
        <ele>450</ele>
        <time>2014-05-20T09:04:23Z</time>
      </trkpt>
      <trkpt lat="43.80532" lon="5.32163">
        <ele>449</ele>
        <time>2014-05-20T09:04:30Z</time>
      </trkpt>
      <trkpt lat="43.80537" lon="5.32168">
        <ele>447</ele>
        <time>2014-05-20T09:04:35Z</time>
      </trkpt>
      <trkpt lat="43.80538" lon="5.32169">
        <ele>447</ele>
        <time>2014-05-20T09:04:37Z</time>
      </trkpt>
      <trkpt lat="43.80545" lon="5.32174">
        <ele>446</ele>
        <time>2014-05-20T09:04:44Z</time>
      </trkpt>
      <trkpt lat="43.80546" lon="5.32177">
        <ele>446</ele>
        <time>2014-05-20T09:04:47Z</time>
      </trkpt>
      <trkpt lat="43.80549" lon="5.32188">
        <ele>446</ele>
        <time>2014-05-20T09:04:56Z</time>
      </trkpt>
      <trkpt lat="43.8055" lon="5.32194">
        <ele>446</ele>
        <time>2014-05-20T09:05:00Z</time>
      </trkpt>
      <trkpt lat="43.80552" lon="5.32201">
        <ele>445</ele>
        <time>2014-05-20T09:05:05Z</time>
      </trkpt>
      <trkpt lat="43.80555" lon="5.32205">
        <ele>445</ele>
        <time>2014-05-20T09:05:09Z</time>
      </trkpt>
      <trkpt lat="43.8056" lon="5.32212">
        <ele>445</ele>
        <time>2014-05-20T09:05:15Z</time>
      </trkpt>
      <trkpt lat="43.80564" lon="5.32217">
        <ele>444</ele>
        <time>2014-05-20T09:05:20Z</time>
      </trkpt>
      <trkpt lat="43.80566" lon="5.3222">
        <ele>444</ele>
        <time>2014-05-20T09:05:23Z</time>
      </trkpt>
      <trkpt lat="43.80567" lon="5.3222">
        <ele>444</ele>
        <time>2014-05-20T09:05:24Z</time>
      </trkpt>
      <trkpt lat="43.8057" lon="5.32224">
        <ele>443</ele>
        <time>2014-05-20T09:05:28Z</time>
      </trkpt>
      <trkpt lat="43.80573" lon="5.32229">
        <ele>443</ele>
        <time>2014-05-20T09:05:32Z</time>
      </trkpt>
      <trkpt lat="43.80578" lon="5.32234">
        <ele>442</ele>
        <time>2014-05-20T09:05:38Z</time>
      </trkpt>
      <trkpt lat="43.80579" lon="5.32237">
        <ele>441</ele>
        <time>2014-05-20T09:05:40Z</time>
      </trkpt>
      <trkpt lat="43.8058" lon="5.32237">
        <ele>441</ele>
        <time>2014-05-20T09:05:41Z</time>
      </trkpt>
      <trkpt lat="43.80581" lon="5.3224">
        <ele>441</ele>
        <time>2014-05-20T09:05:43Z</time>
      </trkpt>
      <trkpt lat="43.80582" lon="5.32243">
        <ele>440</ele>
        <time>2014-05-20T09:05:45Z</time>
      </trkpt>
      <trkpt lat="43.80586" lon="5.32248">
        <ele>437</ele>
        <time>2014-05-20T09:05:50Z</time>
      </trkpt>
      <trkpt lat="43.80587" lon="5.3225">
        <ele>437</ele>
        <time>2014-05-20T09:05:52Z</time>
      </trkpt>
      <trkpt lat="43.80588" lon="5.32253">
        <ele>437</ele>
        <time>2014-05-20T09:05:54Z</time>
      </trkpt>
      <trkpt lat="43.80589" lon="5.32261">
        <ele>435</ele>
        <time>2014-05-20T09:05:59Z</time>
      </trkpt>
      <trkpt lat="43.80589" lon="5.32263">
        <ele>435</ele>
        <time>2014-05-20T09:06:00Z</time>
      </trkpt>
      <trkpt lat="43.80592" lon="5.32267">
        <ele>434</ele>
        <time>2014-05-20T09:06:03Z</time>
      </trkpt>
      <trkpt lat="43.80594" lon="5.32272">
        <ele>434</ele>
        <time>2014-05-20T09:06:06Z</time>
      </trkpt>
      <trkpt lat="43.80597" lon="5.32278">
        <ele>433</ele>
        <time>2014-05-20T09:06:10Z</time>
      </trkpt>
      <trkpt lat="43.80598" lon="5.32279">
        <ele>433</ele>
        <time>2014-05-20T09:06:11Z</time>
      </trkpt>
      <trkpt lat="43.80599" lon="5.32279">
        <ele>433</ele>
        <time>2014-05-20T09:06:12Z</time>
      </trkpt>
      <trkpt lat="43.80601" lon="5.32278">
        <ele>433</ele>
        <time>2014-05-20T09:06:14Z</time>
      </trkpt>
      <trkpt lat="43.80601" lon="5.32278">
        <ele>433</ele>
        <time>2014-05-20T09:06:15Z</time>
      </trkpt>
      <trkpt lat="43.80601" lon="5.32277">
        <ele>433</ele>
        <time>2014-05-20T09:06:18Z</time>
      </trkpt>
      <trkpt lat="43.80602" lon="5.32279">
        <ele>433</ele>
        <time>2014-05-20T09:06:25Z</time>
      </trkpt>
      <trkpt lat="43.80602" lon="5.32279">
        <ele>433</ele>
        <time>2014-05-20T09:06:26Z</time>
      </trkpt>
      <trkpt lat="43.80604" lon="5.32279">
        <ele>433</ele>
        <time>2014-05-20T09:06:28Z</time>
      </trkpt>
      <trkpt lat="43.80606" lon="5.32277">
        <ele>432</ele>
        <time>2014-05-20T09:06:31Z</time>
      </trkpt>
      <trkpt lat="43.80608" lon="5.32274">
        <ele>432</ele>
        <time>2014-05-20T09:06:35Z</time>
      </trkpt>
      <trkpt lat="43.80614" lon="5.3227">
        <ele>432</ele>
        <time>2014-05-20T09:06:40Z</time>
      </trkpt>
      <trkpt lat="43.80617" lon="5.32267">
        <ele>431</ele>
        <time>2014-05-20T09:06:44Z</time>
      </trkpt>
      <trkpt lat="43.80624" lon="5.3226">
        <ele>430</ele>
        <time>2014-05-20T09:06:51Z</time>
      </trkpt>
      <trkpt lat="43.80629" lon="5.32255">
        <ele>430</ele>
        <time>2014-05-20T09:06:56Z</time>
      </trkpt>
      <trkpt lat="43.8063" lon="5.3225">
        <ele>430</ele>
        <time>2014-05-20T09:07:00Z</time>
      </trkpt>
      <trkpt lat="43.80634" lon="5.32245">
        <ele>430</ele>
        <time>2014-05-20T09:07:05Z</time>
      </trkpt>
      <trkpt lat="43.80637" lon="5.32243">
        <ele>429</ele>
        <time>2014-05-20T09:07:08Z</time>
      </trkpt>
      <trkpt lat="43.80641" lon="5.32242">
        <ele>429</ele>
        <time>2014-05-20T09:07:11Z</time>
      </trkpt>
      <trkpt lat="43.80652" lon="5.32244">
        <ele>427</ele>
        <time>2014-05-20T09:07:19Z</time>
      </trkpt>
      <trkpt lat="43.80663" lon="5.32258">
        <ele>424</ele>
        <time>2014-05-20T09:07:31Z</time>
      </trkpt>
      <trkpt lat="43.80667" lon="5.32263">
        <ele>425</ele>
        <time>2014-05-20T09:07:35Z</time>
      </trkpt>
      <trkpt lat="43.80671" lon="5.32271">
        <ele>420</ele>
        <time>2014-05-20T09:07:41Z</time>
      </trkpt>
      <trkpt lat="43.80674" lon="5.32274">
        <ele>420</ele>
        <time>2014-05-20T09:07:44Z</time>
      </trkpt>
      <trkpt lat="43.8068" lon="5.32279">
        <ele>419</ele>
        <time>2014-05-20T09:07:50Z</time>
      </trkpt>
      <trkpt lat="43.80686" lon="5.32279">
        <ele>419</ele>
        <time>2014-05-20T09:07:55Z</time>
      </trkpt>
      <trkpt lat="43.80691" lon="5.3228">
        <ele>419</ele>
        <time>2014-05-20T09:07:59Z</time>
      </trkpt>
      <trkpt lat="43.80696" lon="5.3228">
        <ele>419</ele>
        <time>2014-05-20T09:08:03Z</time>
      </trkpt>
      <trkpt lat="43.80698" lon="5.32279">
        <ele>419</ele>
        <time>2014-05-20T09:08:05Z</time>
      </trkpt>
      <trkpt lat="43.80698" lon="5.32278">
        <ele>419</ele>
        <time>2014-05-20T09:08:06Z</time>
      </trkpt>
      <trkpt lat="43.807" lon="5.32272">
        <ele>418</ele>
        <time>2014-05-20T09:08:11Z</time>
      </trkpt>
      <trkpt lat="43.80701" lon="5.32265">
        <ele>418</ele>
        <time>2014-05-20T09:08:16Z</time>
      </trkpt>
      <trkpt lat="43.80701" lon="5.32261">
        <ele>419</ele>
        <time>2014-05-20T09:08:19Z</time>
      </trkpt>
      <trkpt lat="43.80702" lon="5.32257">
        <ele>418</ele>
        <time>2014-05-20T09:08:22Z</time>
      </trkpt>
      <trkpt lat="43.80702" lon="5.32249">
        <ele>420</ele>
        <time>2014-05-20T09:08:27Z</time>
      </trkpt>
      <trkpt lat="43.80705" lon="5.32234">
        <ele>419</ele>
        <time>2014-05-20T09:08:38Z</time>
      </trkpt>
      <trkpt lat="43.80706" lon="5.32231">
        <ele>419</ele>
        <time>2014-05-20T09:08:40Z</time>
      </trkpt>
      <trkpt lat="43.80706" lon="5.3223">
        <ele>419</ele>
        <time>2014-05-20T09:08:41Z</time>
      </trkpt>
      <trkpt lat="43.80707" lon="5.32228">
        <ele>419</ele>
        <time>2014-05-20T09:08:43Z</time>
      </trkpt>
      <trkpt lat="43.8071" lon="5.32223">
        <ele>419</ele>
        <time>2014-05-20T09:08:47Z</time>
      </trkpt>
      <trkpt lat="43.80712" lon="5.32222">
        <ele>419</ele>
        <time>2014-05-20T09:08:49Z</time>
      </trkpt>
      <trkpt lat="43.80713" lon="5.32221">
        <ele>419</ele>
        <time>2014-05-20T09:08:50Z</time>
      </trkpt>
      <trkpt lat="43.80714" lon="5.32219">
        <ele>419</ele>
        <time>2014-05-20T09:08:52Z</time>
      </trkpt>
      <trkpt lat="43.80716" lon="5.32218">
        <ele>419</ele>
        <time>2014-05-20T09:08:54Z</time>
      </trkpt>
      <trkpt lat="43.80728" lon="5.32212">
        <ele>419</ele>
        <time>2014-05-20T09:09:05Z</time>
      </trkpt>
      <trkpt lat="43.80733" lon="5.32209">
        <ele>418</ele>
        <time>2014-05-20T09:09:09Z</time>
      </trkpt>
      <trkpt lat="43.80735" lon="5.32209">
        <ele>418</ele>
        <time>2014-05-20T09:09:11Z</time>
      </trkpt>
      <trkpt lat="43.80737" lon="5.32207">
        <ele>418</ele>
        <time>2014-05-20T09:09:13Z</time>
      </trkpt>
      <trkpt lat="43.80751" lon="5.32202">
        <ele>411</ele>
        <time>2014-05-20T09:09:24Z</time>
      </trkpt>
      <trkpt lat="43.80754" lon="5.32199">
        <ele>411</ele>
        <time>2014-05-20T09:09:27Z</time>
      </trkpt>
      <trkpt lat="43.80771" lon="5.32189">
        <ele>411</ele>
        <time>2014-05-20T09:09:42Z</time>
      </trkpt>
      <trkpt lat="43.80774" lon="5.32185">
        <ele>411</ele>
        <time>2014-05-20T09:09:46Z</time>
      </trkpt>
      <trkpt lat="43.80778" lon="5.32179">
        <ele>411</ele>
        <time>2014-05-20T09:09:52Z</time>
      </trkpt>
      <trkpt lat="43.80784" lon="5.32174">
        <ele>410</ele>
        <time>2014-05-20T09:09:57Z</time>
      </trkpt>
      <trkpt lat="43.80787" lon="5.3217">
        <ele>410</ele>
        <time>2014-05-20T09:10:01Z</time>
      </trkpt>
      <trkpt lat="43.80789" lon="5.32167">
        <ele>410</ele>
        <time>2014-05-20T09:10:03Z</time>
      </trkpt>
      <trkpt lat="43.80796" lon="5.32159">
        <ele>410</ele>
        <time>2014-05-20T09:10:11Z</time>
      </trkpt>
      <trkpt lat="43.80799" lon="5.32154">
        <ele>410</ele>
        <time>2014-05-20T09:10:15Z</time>
      </trkpt>
      <trkpt lat="43.80803" lon="5.3215">
        <ele>410</ele>
        <time>2014-05-20T09:10:19Z</time>
      </trkpt>
      <trkpt lat="43.80805" lon="5.32148">
        <ele>410</ele>
        <time>2014-05-20T09:10:21Z</time>
      </trkpt>
      <trkpt lat="43.80807" lon="5.32145">
        <ele>410</ele>
        <time>2014-05-20T09:10:23Z</time>
      </trkpt>
      <trkpt lat="43.80811" lon="5.32139">
        <ele>410</ele>
        <time>2014-05-20T09:10:28Z</time>
      </trkpt>
      <trkpt lat="43.80814" lon="5.3213">
        <ele>410</ele>
        <time>2014-05-20T09:10:35Z</time>
      </trkpt>
      <trkpt lat="43.80819" lon="5.32119">
        <ele>410</ele>
        <time>2014-05-20T09:10:43Z</time>
      </trkpt>
      <trkpt lat="43.80822" lon="5.32118">
        <ele>410</ele>
        <time>2014-05-20T09:10:49Z</time>
      </trkpt>
      <trkpt lat="43.80825" lon="5.32115">
        <ele>410</ele>
        <time>2014-05-20T09:10:54Z</time>
      </trkpt>
      <trkpt lat="43.80827" lon="5.32109">
        <ele>410</ele>
        <time>2014-05-20T09:10:59Z</time>
      </trkpt>
      <trkpt lat="43.80829" lon="5.32108">
        <ele>410</ele>
        <time>2014-05-20T09:11:02Z</time>
      </trkpt>
      <trkpt lat="43.8083" lon="5.32103">
        <ele>410</ele>
        <time>2014-05-20T09:11:07Z</time>
      </trkpt>
      <trkpt lat="43.80831" lon="5.32102">
        <ele>410</ele>
        <time>2014-05-20T09:11:09Z</time>
      </trkpt>
      <trkpt lat="43.80831" lon="5.32102">
        <ele>410</ele>
        <time>2014-05-20T09:11:11Z</time>
      </trkpt>
      <trkpt lat="43.80831" lon="5.32103">
        <ele>410</ele>
        <time>2014-05-20T09:11:14Z</time>
      </trkpt>
      <trkpt lat="43.80832" lon="5.32103">
        <ele>410</ele>
        <time>2014-05-20T09:11:18Z</time>
      </trkpt>
      <trkpt lat="43.80833" lon="5.321">
        <ele>409</ele>
        <time>2014-05-20T09:11:22Z</time>
      </trkpt>
      <trkpt lat="43.80834" lon="5.321">
        <ele>407</ele>
        <time>2014-05-20T09:11:23Z</time>
      </trkpt>
      <trkpt lat="43.80836" lon="5.32098">
        <ele>408</ele>
        <time>2014-05-20T09:11:26Z</time>
      </trkpt>
      <trkpt lat="43.80838" lon="5.32097">
        <ele>408</ele>
        <time>2014-05-20T09:11:28Z</time>
      </trkpt>
      <trkpt lat="43.80844" lon="5.32093">
        <ele>408</ele>
        <time>2014-05-20T09:11:34Z</time>
      </trkpt>
      <trkpt lat="43.80852" lon="5.3209">
        <ele>408</ele>
        <time>2014-05-20T09:11:41Z</time>
      </trkpt>
      <trkpt lat="43.80858" lon="5.3209">
        <ele>408</ele>
        <time>2014-05-20T09:11:46Z</time>
      </trkpt>
      <trkpt lat="43.80866" lon="5.32088">
        <ele>408</ele>
        <time>2014-05-20T09:11:54Z</time>
      </trkpt>
      <trkpt lat="43.80873" lon="5.32089">
        <ele>408</ele>
        <time>2014-05-20T09:12:01Z</time>
      </trkpt>
      <trkpt lat="43.80878" lon="5.32091">
        <ele>408</ele>
        <time>2014-05-20T09:12:05Z</time>
      </trkpt>
      <trkpt lat="43.8088" lon="5.32093">
        <ele>408</ele>
        <time>2014-05-20T09:12:07Z</time>
      </trkpt>
      <trkpt lat="43.80883" lon="5.32095">
        <ele>408</ele>
        <time>2014-05-20T09:12:10Z</time>
      </trkpt>
      <trkpt lat="43.80889" lon="5.321">
        <ele>409</ele>
        <time>2014-05-20T09:12:17Z</time>
      </trkpt>
      <trkpt lat="43.80898" lon="5.32106">
        <ele>409</ele>
        <time>2014-05-20T09:12:26Z</time>
      </trkpt>
      <trkpt lat="43.809" lon="5.32108">
        <ele>409</ele>
        <time>2014-05-20T09:12:28Z</time>
      </trkpt>
      <trkpt lat="43.80902" lon="5.32108">
        <ele>409</ele>
        <time>2014-05-20T09:12:30Z</time>
      </trkpt>
      <trkpt lat="43.80904" lon="5.3211">
        <ele>409</ele>
        <time>2014-05-20T09:12:32Z</time>
      </trkpt>
      <trkpt lat="43.80907" lon="5.32112">
        <ele>408</ele>
        <time>2014-05-20T09:12:35Z</time>
      </trkpt>
      <trkpt lat="43.80914" lon="5.32119">
        <ele>408</ele>
        <time>2014-05-20T09:12:42Z</time>
      </trkpt>
      <trkpt lat="43.80917" lon="5.32127">
        <ele>410</ele>
        <time>2014-05-20T09:12:47Z</time>
      </trkpt>
      <trkpt lat="43.80922" lon="5.32134">
        <ele>409</ele>
        <time>2014-05-20T09:12:53Z</time>
      </trkpt>
      <trkpt lat="43.80925" lon="5.32137">
        <ele>409</ele>
        <time>2014-05-20T09:12:56Z</time>
      </trkpt>
      <trkpt lat="43.80933" lon="5.32156">
        <ele>408</ele>
        <time>2014-05-20T09:13:10Z</time>
      </trkpt>
      <trkpt lat="43.80937" lon="5.32161">
        <ele>408</ele>
        <time>2014-05-20T09:13:15Z</time>
      </trkpt>
      <trkpt lat="43.80939" lon="5.32161">
        <ele>408</ele>
        <time>2014-05-20T09:13:17Z</time>
      </trkpt>
      <trkpt lat="43.8094" lon="5.3216">
        <ele>408</ele>
        <time>2014-05-20T09:13:18Z</time>
      </trkpt>
      <trkpt lat="43.8094" lon="5.32158">
        <ele>408</ele>
        <time>2014-05-20T09:13:20Z</time>
      </trkpt>
      <trkpt lat="43.80939" lon="5.32156">
        <ele>408</ele>
        <time>2014-05-20T09:13:23Z</time>
      </trkpt>
      <trkpt lat="43.80937" lon="5.32146">
        <ele>409</ele>
        <time>2014-05-20T09:13:32Z</time>
      </trkpt>
      <trkpt lat="43.80936" lon="5.32142">
        <ele>409</ele>
        <time>2014-05-20T09:13:35Z</time>
      </trkpt>
      <trkpt lat="43.80933" lon="5.32127">
        <ele>410</ele>
        <time>2014-05-20T09:13:45Z</time>
      </trkpt>
      <trkpt lat="43.80933" lon="5.32114">
        <ele>411</ele>
        <time>2014-05-20T09:13:55Z</time>
      </trkpt>
      <trkpt lat="43.80933" lon="5.32112">
        <ele>411</ele>
        <time>2014-05-20T09:13:59Z</time>
      </trkpt>
      <trkpt lat="43.80933" lon="5.32112">
        <ele>411</ele>
        <time>2014-05-20T09:14:03Z</time>
      </trkpt>
      <trkpt lat="43.80931" lon="5.32115">
        <ele>411</ele>
        <time>2014-05-20T09:14:12Z</time>
      </trkpt>
      <trkpt lat="43.80929" lon="5.32116">
        <ele>411</ele>
        <time>2014-05-20T09:14:20Z</time>
      </trkpt>
      <trkpt lat="43.80927" lon="5.32118">
        <ele>411</ele>
        <time>2014-05-20T09:14:28Z</time>
      </trkpt>
      <trkpt lat="43.80929" lon="5.32117">
        <ele>411</ele>
        <time>2014-05-20T09:14:33Z</time>
      </trkpt>
      <trkpt lat="43.80929" lon="5.32116">
        <ele>411</ele>
        <time>2014-05-20T09:14:35Z</time>
      </trkpt>
      <trkpt lat="43.80929" lon="5.32117">
        <ele>411</ele>
        <time>2014-05-20T09:14:36Z</time>
      </trkpt>
      <trkpt lat="43.80929" lon="5.32116">
        <ele>411</ele>
        <time>2014-05-20T09:14:38Z</time>
      </trkpt>
      <trkpt lat="43.8093" lon="5.32116">
        <ele>411</ele>
        <time>2014-05-20T09:14:41Z</time>
      </trkpt>
      <trkpt lat="43.80931" lon="5.32115">
        <ele>411</ele>
        <time>2014-05-20T09:14:47Z</time>
      </trkpt>
      <trkpt lat="43.80931" lon="5.32114">
        <ele>411</ele>
        <time>2014-05-20T09:14:50Z</time>
      </trkpt>
      <trkpt lat="43.8093" lon="5.32113">
        <ele>411</ele>
        <time>2014-05-20T09:14:53Z</time>
      </trkpt>
      <trkpt lat="43.80931" lon="5.32114">
        <ele>411</ele>
        <time>2014-05-20T09:14:58Z</time>
      </trkpt>
      <trkpt lat="43.80931" lon="5.32114">
        <ele>411</ele>
        <time>2014-05-20T09:15:05Z</time>
      </trkpt>
      <trkpt lat="43.80933" lon="5.32113">
        <ele>411</ele>
        <time>2014-05-20T09:15:12Z</time>
      </trkpt>
      <trkpt lat="43.80934" lon="5.32112">
        <ele>411</ele>
        <time>2014-05-20T09:15:17Z</time>
      </trkpt>
      <trkpt lat="43.80933" lon="5.32112">
        <ele>411</ele>
        <time>2014-05-20T09:15:19Z</time>
      </trkpt>
      <trkpt lat="43.80933" lon="5.32112">
        <ele>411</ele>
        <time>2014-05-20T09:15:21Z</time>
      </trkpt>
      <trkpt lat="43.80934" lon="5.32113">
        <ele>411</ele>
        <time>2014-05-20T09:15:30Z</time>
      </trkpt>
      <trkpt lat="43.80937" lon="5.32112">
        <ele>411</ele>
        <time>2014-05-20T09:15:44Z</time>
      </trkpt>
      <trkpt lat="43.80937" lon="5.32112">
        <ele>411</ele>
        <time>2014-05-20T09:15:47Z</time>
      </trkpt>
      <trkpt lat="43.80938" lon="5.32111">
        <ele>411</ele>
        <time>2014-05-20T09:15:58Z</time>
      </trkpt>
      <trkpt lat="43.80937" lon="5.32111">
        <ele>411</ele>
        <time>2014-05-20T09:16:06Z</time>
      </trkpt>
      <trkpt lat="43.80936" lon="5.32111">
        <ele>411</ele>
        <time>2014-05-20T09:16:13Z</time>
      </trkpt>
      <trkpt lat="43.80936" lon="5.32111">
        <ele>411</ele>
        <time>2014-05-20T09:16:16Z</time>
      </trkpt>
      <trkpt lat="43.80935" lon="5.32111">
        <ele>411</ele>
        <time>2014-05-20T09:16:17Z</time>
      </trkpt>
      <trkpt lat="43.80935" lon="5.32112">
        <ele>411</ele>
        <time>2014-05-20T09:16:19Z</time>
      </trkpt>
      <trkpt lat="43.80935" lon="5.32112">
        <ele>411</ele>
        <time>2014-05-20T09:16:24Z</time>
      </trkpt>
      <trkpt lat="43.80936" lon="5.32112">
        <ele>411</ele>
        <time>2014-05-20T09:16:33Z</time>
      </trkpt>
      <trkpt lat="43.80937" lon="5.32111">
        <ele>411</ele>
        <time>2014-05-20T09:16:39Z</time>
      </trkpt>
      <trkpt lat="43.80937" lon="5.32111">
        <ele>411</ele>
        <time>2014-05-20T09:16:41Z</time>
      </trkpt>
      <trkpt lat="43.80937" lon="5.32111">
        <ele>411</ele>
        <time>2014-05-20T09:16:49Z</time>
      </trkpt>
      <trkpt lat="43.80937" lon="5.3211">
        <ele>411</ele>
        <time>2014-05-20T09:16:52Z</time>
      </trkpt>
      <trkpt lat="43.80937" lon="5.3211">
        <ele>411</ele>
        <time>2014-05-20T09:16:55Z</time>
      </trkpt>
      <trkpt lat="43.80937" lon="5.32109">
        <ele>411</ele>
        <time>2014-05-20T09:16:56Z</time>
      </trkpt>
      <trkpt lat="43.80936" lon="5.3211">
        <ele>411</ele>
        <time>2014-05-20T09:17:02Z</time>
      </trkpt>
      <trkpt lat="43.80937" lon="5.32111">
        <ele>411</ele>
        <time>2014-05-20T09:17:07Z</time>
      </trkpt>
      <trkpt lat="43.80937" lon="5.32111">
        <ele>411</ele>
        <time>2014-05-20T09:17:12Z</time>
      </trkpt>
      <trkpt lat="43.80938" lon="5.32111">
        <ele>411</ele>
        <time>2014-05-20T09:17:22Z</time>
      </trkpt>
      <trkpt lat="43.80939" lon="5.32111">
        <ele>411</ele>
        <time>2014-05-20T09:17:27Z</time>
      </trkpt>
      <trkpt lat="43.80943" lon="5.32111">
        <ele>411</ele>
        <time>2014-05-20T09:17:33Z</time>
      </trkpt>
      <trkpt lat="43.80943" lon="5.32111">
        <ele>411</ele>
        <time>2014-05-20T09:17:34Z</time>
      </trkpt>
      <trkpt lat="43.80943" lon="5.32111">
        <ele>411</ele>
        <time>2014-05-20T09:17:36Z</time>
      </trkpt>
      <trkpt lat="43.80943" lon="5.32111">
        <ele>411</ele>
        <time>2014-05-20T09:17:39Z</time>
      </trkpt>
      <trkpt lat="43.80943" lon="5.32111">
        <ele>411</ele>
        <time>2014-05-20T09:17:41Z</time>
      </trkpt>
      <trkpt lat="43.80944" lon="5.32112">
        <ele>411</ele>
        <time>2014-05-20T09:17:44Z</time>
      </trkpt>
      <trkpt lat="43.80944" lon="5.32111">
        <ele>411</ele>
        <time>2014-05-20T09:17:45Z</time>
      </trkpt>
      <trkpt lat="43.80944" lon="5.3211">
        <ele>411</ele>
        <time>2014-05-20T09:17:49Z</time>
      </trkpt>
      <trkpt lat="43.80944" lon="5.3211">
        <ele>411</ele>
        <time>2014-05-20T09:17:56Z</time>
      </trkpt>
      <trkpt lat="43.80943" lon="5.3211">
        <ele>411</ele>
        <time>2014-05-20T09:18:01Z</time>
      </trkpt>
      <trkpt lat="43.8094" lon="5.32112">
        <ele>411</ele>
        <time>2014-05-20T09:18:12Z</time>
      </trkpt>
      <trkpt lat="43.80939" lon="5.32113">
        <ele>411</ele>
        <time>2014-05-20T09:18:19Z</time>
      </trkpt>
      <trkpt lat="43.80938" lon="5.32112">
        <ele>411</ele>
        <time>2014-05-20T09:18:34Z</time>
      </trkpt>
      <trkpt lat="43.80936" lon="5.32113">
        <ele>411</ele>
        <time>2014-05-20T09:18:39Z</time>
      </trkpt>
      <trkpt lat="43.80936" lon="5.32112">
        <ele>411</ele>
        <time>2014-05-20T09:18:43Z</time>
      </trkpt>
      <trkpt lat="43.80934" lon="5.32114">
        <ele>411</ele>
        <time>2014-05-20T09:18:57Z</time>
      </trkpt>
      <trkpt lat="43.80932" lon="5.32112">
        <ele>411</ele>
        <time>2014-05-20T09:19:11Z</time>
      </trkpt>
      <trkpt lat="43.80932" lon="5.32113">
        <ele>411</ele>
        <time>2014-05-20T09:19:13Z</time>
      </trkpt>
      <trkpt lat="43.80931" lon="5.3211">
        <ele>411</ele>
        <time>2014-05-20T09:19:17Z</time>
      </trkpt>
      <trkpt lat="43.80931" lon="5.32111">
        <ele>411</ele>
        <time>2014-05-20T09:19:19Z</time>
      </trkpt>
      <trkpt lat="43.80932" lon="5.32112">
        <ele>411</ele>
        <time>2014-05-20T09:19:30Z</time>
      </trkpt>
      <trkpt lat="43.80932" lon="5.32111">
        <ele>411</ele>
        <time>2014-05-20T09:19:35Z</time>
      </trkpt>
      <trkpt lat="43.80931" lon="5.32113">
        <ele>411</ele>
        <time>2014-05-20T09:19:39Z</time>
      </trkpt>
      <trkpt lat="43.80931" lon="5.32115">
        <ele>411</ele>
        <time>2014-05-20T09:19:41Z</time>
      </trkpt>
      <trkpt lat="43.80931" lon="5.32115">
        <ele>411</ele>
        <time>2014-05-20T09:19:48Z</time>
      </trkpt>
      <trkpt lat="43.80935" lon="5.32114">
        <ele>411</ele>
        <time>2014-05-20T09:19:59Z</time>
      </trkpt>
      <trkpt lat="43.80935" lon="5.32113">
        <ele>411</ele>
        <time>2014-05-20T09:20:00Z</time>
      </trkpt>
      <trkpt lat="43.80936" lon="5.32114">
        <ele>411</ele>
        <time>2014-05-20T09:20:05Z</time>
      </trkpt>
      <trkpt lat="43.80936" lon="5.32113">
        <ele>411</ele>
        <time>2014-05-20T09:20:08Z</time>
      </trkpt>
      <trkpt lat="43.80936" lon="5.32112">
        <ele>411</ele>
        <time>2014-05-20T09:20:11Z</time>
      </trkpt>
      <trkpt lat="43.80936" lon="5.32113">
        <ele>411</ele>
        <time>2014-05-20T09:20:16Z</time>
      </trkpt>
      <trkpt lat="43.80936" lon="5.32113">
        <ele>411</ele>
        <time>2014-05-20T09:20:18Z</time>
      </trkpt>
      <trkpt lat="43.80935" lon="5.32113">
        <ele>411</ele>
        <time>2014-05-20T09:20:21Z</time>
      </trkpt>
      <trkpt lat="43.80934" lon="5.32116">
        <ele>411</ele>
        <time>2014-05-20T09:20:34Z</time>
      </trkpt>
      <trkpt lat="43.80939" lon="5.32113">
        <ele>411</ele>
        <time>2014-05-20T09:20:51Z</time>
      </trkpt>
      <trkpt lat="43.80946" lon="5.32105">
        <ele>411</ele>
        <time>2014-05-20T09:21:01Z</time>
      </trkpt>
      <trkpt lat="43.80951" lon="5.32102">
        <ele>412</ele>
        <time>2014-05-20T09:21:06Z</time>
      </trkpt>
      <trkpt lat="43.80955" lon="5.32096">
        <ele>412</ele>
        <time>2014-05-20T09:21:13Z</time>
      </trkpt>
      <trkpt lat="43.80958" lon="5.3209">
        <ele>412</ele>
        <time>2014-05-20T09:21:18Z</time>
      </trkpt>
      <trkpt lat="43.80961" lon="5.32085">
        <ele>412</ele>
        <time>2014-05-20T09:21:24Z</time>
      </trkpt>
      <trkpt lat="43.80963" lon="5.3208">
        <ele>419</ele>
        <time>2014-05-20T09:21:28Z</time>
      </trkpt>
      <trkpt lat="43.80964" lon="5.32078">
        <ele>419</ele>
        <time>2014-05-20T09:21:30Z</time>
      </trkpt>
      <trkpt lat="43.8097" lon="5.32067">
        <ele>419</ele>
        <time>2014-05-20T09:21:38Z</time>
      </trkpt>
      <trkpt lat="43.80972" lon="5.32064">
        <ele>420</ele>
        <time>2014-05-20T09:21:41Z</time>
      </trkpt>
      <trkpt lat="43.80978" lon="5.3206">
        <ele>420</ele>
        <time>2014-05-20T09:21:45Z</time>
      </trkpt>
      <trkpt lat="43.80981" lon="5.32059">
        <ele>420</ele>
        <time>2014-05-20T09:21:47Z</time>
      </trkpt>
      <trkpt lat="43.8099" lon="5.32055">
        <ele>420</ele>
        <time>2014-05-20T09:21:54Z</time>
      </trkpt>
      <trkpt lat="43.81" lon="5.32052">
        <ele>423</ele>
        <time>2014-05-20T09:22:03Z</time>
      </trkpt>
      <trkpt lat="43.81003" lon="5.3205">
        <ele>423</ele>
        <time>2014-05-20T09:22:05Z</time>
      </trkpt>
      <trkpt lat="43.81005" lon="5.3205">
        <ele>423</ele>
        <time>2014-05-20T09:22:07Z</time>
      </trkpt>
      <trkpt lat="43.81008" lon="5.32049">
        <ele>423</ele>
        <time>2014-05-20T09:22:09Z</time>
      </trkpt>
      <trkpt lat="43.81016" lon="5.32054">
        <ele>423</ele>
        <time>2014-05-20T09:22:16Z</time>
      </trkpt>
      <trkpt lat="43.81022" lon="5.32055">
        <ele>423</ele>
        <time>2014-05-20T09:22:20Z</time>
      </trkpt>
      <trkpt lat="43.81028" lon="5.32057">
        <ele>423</ele>
        <time>2014-05-20T09:22:24Z</time>
      </trkpt>
      <trkpt lat="43.81033" lon="5.32062">
        <ele>423</ele>
        <time>2014-05-20T09:22:28Z</time>
      </trkpt>
      <trkpt lat="43.81036" lon="5.32063">
        <ele>423</ele>
        <time>2014-05-20T09:22:30Z</time>
      </trkpt>
      <trkpt lat="43.8104" lon="5.32066">
        <ele>423</ele>
        <time>2014-05-20T09:22:33Z</time>
      </trkpt>
      <trkpt lat="43.81043" lon="5.32067">
        <ele>423</ele>
        <time>2014-05-20T09:22:35Z</time>
      </trkpt>
      <trkpt lat="43.81045" lon="5.3207">
        <ele>423</ele>
        <time>2014-05-20T09:22:37Z</time>
      </trkpt>
      <trkpt lat="43.81047" lon="5.32073">
        <ele>423</ele>
        <time>2014-05-20T09:22:39Z</time>
      </trkpt>
      <trkpt lat="43.81048" lon="5.32074">
        <ele>423</ele>
        <time>2014-05-20T09:22:40Z</time>
      </trkpt>
      <trkpt lat="43.8105" lon="5.32075">
        <ele>423</ele>
        <time>2014-05-20T09:22:42Z</time>
      </trkpt>
      <trkpt lat="43.81053" lon="5.32078">
        <ele>423</ele>
        <time>2014-05-20T09:22:45Z</time>
      </trkpt>
      <trkpt lat="43.81063" lon="5.32083">
        <ele>422</ele>
        <time>2014-05-20T09:22:54Z</time>
      </trkpt>
      <trkpt lat="43.81065" lon="5.32085">
        <ele>417</ele>
        <time>2014-05-20T09:22:57Z</time>
      </trkpt>
      <trkpt lat="43.81071" lon="5.32087">
        <ele>417</ele>
        <time>2014-05-20T09:23:02Z</time>
      </trkpt>
      <trkpt lat="43.81074" lon="5.32087">
        <ele>418</ele>
        <time>2014-05-20T09:23:04Z</time>
      </trkpt>
      <trkpt lat="43.81078" lon="5.32087">
        <ele>418</ele>
        <time>2014-05-20T09:23:07Z</time>
      </trkpt>
      <trkpt lat="43.81082" lon="5.32089">
        <ele>419</ele>
        <time>2014-05-20T09:23:10Z</time>
      </trkpt>
      <trkpt lat="43.81091" lon="5.32089">
        <ele>418</ele>
        <time>2014-05-20T09:23:17Z</time>
      </trkpt>
      <trkpt lat="43.81099" lon="5.3209">
        <ele>418</ele>
        <time>2014-05-20T09:23:23Z</time>
      </trkpt>
      <trkpt lat="43.81105" lon="5.3209">
        <ele>417</ele>
        <time>2014-05-20T09:23:28Z</time>
      </trkpt>
      <trkpt lat="43.81107" lon="5.32089">
        <ele>417</ele>
        <time>2014-05-20T09:23:30Z</time>
      </trkpt>
      <trkpt lat="43.81109" lon="5.32088">
        <ele>417</ele>
        <time>2014-05-20T09:23:32Z</time>
      </trkpt>
      <trkpt lat="43.81113" lon="5.32087">
        <ele>417</ele>
        <time>2014-05-20T09:23:35Z</time>
      </trkpt>
      <trkpt lat="43.81115" lon="5.32085">
        <ele>417</ele>
        <time>2014-05-20T09:23:38Z</time>
      </trkpt>
      <trkpt lat="43.81119" lon="5.32084">
        <ele>417</ele>
        <time>2014-05-20T09:23:42Z</time>
      </trkpt>
      <trkpt lat="43.81123" lon="5.3208">
        <ele>425</ele>
        <time>2014-05-20T09:23:47Z</time>
      </trkpt>
      <trkpt lat="43.8113" lon="5.32076">
        <ele>426</ele>
        <time>2014-05-20T09:23:53Z</time>
      </trkpt>
      <trkpt lat="43.8114" lon="5.32072">
        <ele>426</ele>
        <time>2014-05-20T09:24:02Z</time>
      </trkpt>
      <trkpt lat="43.81142" lon="5.32072">
        <ele>426</ele>
        <time>2014-05-20T09:24:04Z</time>
      </trkpt>
      <trkpt lat="43.81144" lon="5.32072">
        <ele>426</ele>
        <time>2014-05-20T09:24:06Z</time>
      </trkpt>
      <trkpt lat="43.81147" lon="5.32071">
        <ele>425</ele>
        <time>2014-05-20T09:24:09Z</time>
      </trkpt>
      <trkpt lat="43.81152" lon="5.32069">
        <ele>425</ele>
        <time>2014-05-20T09:24:13Z</time>
      </trkpt>
      <trkpt lat="43.81156" lon="5.32067">
        <ele>425</ele>
        <time>2014-05-20T09:24:17Z</time>
      </trkpt>
      <trkpt lat="43.81165" lon="5.32061">
        <ele>426</ele>
        <time>2014-05-20T09:24:24Z</time>
      </trkpt>
      <trkpt lat="43.8117" lon="5.3206">
        <ele>427</ele>
        <time>2014-05-20T09:24:28Z</time>
      </trkpt>
      <trkpt lat="43.81174" lon="5.32058">
        <ele>427</ele>
        <time>2014-05-20T09:24:31Z</time>
      </trkpt>
      <trkpt lat="43.81176" lon="5.32054">
        <ele>428</ele>
        <time>2014-05-20T09:24:34Z</time>
      </trkpt>
      <trkpt lat="43.81178" lon="5.32051">
        <ele>428</ele>
        <time>2014-05-20T09:24:37Z</time>
      </trkpt>
      <trkpt lat="43.8118" lon="5.32047">
        <ele>428</ele>
        <time>2014-05-20T09:24:40Z</time>
      </trkpt>
      <trkpt lat="43.81181" lon="5.32044">
        <ele>428</ele>
        <time>2014-05-20T09:24:42Z</time>
      </trkpt>
      <trkpt lat="43.81182" lon="5.32042">
        <ele>429</ele>
        <time>2014-05-20T09:24:44Z</time>
      </trkpt>
      <trkpt lat="43.81185" lon="5.32036">
        <ele>429</ele>
        <time>2014-05-20T09:24:49Z</time>
      </trkpt>
      <trkpt lat="43.81187" lon="5.3203">
        <ele>430</ele>
        <time>2014-05-20T09:24:53Z</time>
      </trkpt>
      <trkpt lat="43.81188" lon="5.32028">
        <ele>430</ele>
        <time>2014-05-20T09:24:55Z</time>
      </trkpt>
      <trkpt lat="43.81189" lon="5.32026">
        <ele>430</ele>
        <time>2014-05-20T09:24:57Z</time>
      </trkpt>
      <trkpt lat="43.81191" lon="5.32023">
        <ele>430</ele>
        <time>2014-05-20T09:25:00Z</time>
      </trkpt>
      <trkpt lat="43.81199" lon="5.32017">
        <ele>430</ele>
        <time>2014-05-20T09:25:08Z</time>
      </trkpt>
      <trkpt lat="43.81201" lon="5.32016">
        <ele>430</ele>
        <time>2014-05-20T09:25:11Z</time>
      </trkpt>
      <trkpt lat="43.81202" lon="5.32015">
        <ele>430</ele>
        <time>2014-05-20T09:25:13Z</time>
      </trkpt>
      <trkpt lat="43.81207" lon="5.32012">
        <ele>430</ele>
        <time>2014-05-20T09:25:18Z</time>
      </trkpt>
      <trkpt lat="43.8121" lon="5.32011">
        <ele>430</ele>
        <time>2014-05-20T09:25:20Z</time>
      </trkpt>
      <trkpt lat="43.81219" lon="5.3201">
        <ele>430</ele>
        <time>2014-05-20T09:25:29Z</time>
      </trkpt>
      <trkpt lat="43.81227" lon="5.32006">
        <ele>431</ele>
        <time>2014-05-20T09:25:37Z</time>
      </trkpt>
      <trkpt lat="43.8123" lon="5.32005">
        <ele>431</ele>
        <time>2014-05-20T09:25:40Z</time>
      </trkpt>
      <trkpt lat="43.81236" lon="5.32">
        <ele>431</ele>
        <time>2014-05-20T09:25:47Z</time>
      </trkpt>
      <trkpt lat="43.8124" lon="5.31998">
        <ele>434</ele>
        <time>2014-05-20T09:25:50Z</time>
      </trkpt>
      <trkpt lat="43.81241" lon="5.31997">
        <ele>434</ele>
        <time>2014-05-20T09:25:51Z</time>
      </trkpt>
      <trkpt lat="43.81244" lon="5.31995">
        <ele>434</ele>
        <time>2014-05-20T09:25:55Z</time>
      </trkpt>
      <trkpt lat="43.81252" lon="5.31989">
        <ele>434</ele>
        <time>2014-05-20T09:26:03Z</time>
      </trkpt>
      <trkpt lat="43.81259" lon="5.3198">
        <ele>435</ele>
        <time>2014-05-20T09:26:12Z</time>
      </trkpt>
      <trkpt lat="43.81264" lon="5.31977">
        <ele>435</ele>
        <time>2014-05-20T09:26:16Z</time>
      </trkpt>
      <trkpt lat="43.81266" lon="5.31975">
        <ele>435</ele>
        <time>2014-05-20T09:26:18Z</time>
      </trkpt>
      <trkpt lat="43.81267" lon="5.31973">
        <ele>435</ele>
        <time>2014-05-20T09:26:20Z</time>
      </trkpt>
      <trkpt lat="43.8127" lon="5.31969">
        <ele>435</ele>
        <time>2014-05-20T09:26:24Z</time>
      </trkpt>
      <trkpt lat="43.81274" lon="5.31968">
        <ele>436</ele>
        <time>2014-05-20T09:26:28Z</time>
      </trkpt>
      <trkpt lat="43.81276" lon="5.31967">
        <ele>436</ele>
        <time>2014-05-20T09:26:30Z</time>
      </trkpt>
      <trkpt lat="43.81282" lon="5.31964">
        <ele>436</ele>
        <time>2014-05-20T09:26:35Z</time>
      </trkpt>
      <trkpt lat="43.81286" lon="5.3196">
        <ele>436</ele>
        <time>2014-05-20T09:26:40Z</time>
      </trkpt>
      <trkpt lat="43.81288" lon="5.31958">
        <ele>436</ele>
        <time>2014-05-20T09:26:42Z</time>
      </trkpt>
      <trkpt lat="43.81296" lon="5.31954">
        <ele>436</ele>
        <time>2014-05-20T09:26:48Z</time>
      </trkpt>
      <trkpt lat="43.81298" lon="5.31951">
        <ele>436</ele>
        <time>2014-05-20T09:26:52Z</time>
      </trkpt>
      <trkpt lat="43.813" lon="5.31949">
        <ele>436</ele>
        <time>2014-05-20T09:26:54Z</time>
      </trkpt>
      <trkpt lat="43.81302" lon="5.31947">
        <ele>437</ele>
        <time>2014-05-20T09:26:56Z</time>
      </trkpt>
      <trkpt lat="43.81305" lon="5.31942">
        <ele>437</ele>
        <time>2014-05-20T09:26:59Z</time>
      </trkpt>
      <trkpt lat="43.81311" lon="5.31938">
        <ele>437</ele>
        <time>2014-05-20T09:27:03Z</time>
      </trkpt>
      <trkpt lat="43.81316" lon="5.31935">
        <ele>437</ele>
        <time>2014-05-20T09:27:07Z</time>
      </trkpt>
      <trkpt lat="43.81323" lon="5.3193">
        <ele>438</ele>
        <time>2014-05-20T09:27:12Z</time>
      </trkpt>
      <trkpt lat="43.81325" lon="5.31928">
        <ele>438</ele>
        <time>2014-05-20T09:27:14Z</time>
      </trkpt>
      <trkpt lat="43.81331" lon="5.31923">
        <ele>439</ele>
        <time>2014-05-20T09:27:20Z</time>
      </trkpt>
      <trkpt lat="43.81335" lon="5.3192">
        <ele>439</ele>
        <time>2014-05-20T09:27:25Z</time>
      </trkpt>
      <trkpt lat="43.81337" lon="5.31921">
        <ele>439</ele>
        <time>2014-05-20T09:27:27Z</time>
      </trkpt>
      <trkpt lat="43.81338" lon="5.3192">
        <ele>439</ele>
        <time>2014-05-20T09:27:28Z</time>
      </trkpt>
      <trkpt lat="43.81341" lon="5.31917">
        <ele>439</ele>
        <time>2014-05-20T09:27:33Z</time>
      </trkpt>
      <trkpt lat="43.81343" lon="5.31914">
        <ele>440</ele>
        <time>2014-05-20T09:27:36Z</time>
      </trkpt>
      <trkpt lat="43.81347" lon="5.31911">
        <ele>440</ele>
        <time>2014-05-20T09:27:40Z</time>
      </trkpt>
      <trkpt lat="43.81349" lon="5.31909">
        <ele>440</ele>
        <time>2014-05-20T09:27:43Z</time>
      </trkpt>
      <trkpt lat="43.81352" lon="5.31907">
        <ele>440</ele>
        <time>2014-05-20T09:27:45Z</time>
      </trkpt>
      <trkpt lat="43.81358" lon="5.31905">
        <ele>440</ele>
        <time>2014-05-20T09:27:51Z</time>
      </trkpt>
      <trkpt lat="43.81363" lon="5.31904">
        <ele>440</ele>
        <time>2014-05-20T09:27:55Z</time>
      </trkpt>
      <trkpt lat="43.81366" lon="5.31903">
        <ele>440</ele>
        <time>2014-05-20T09:27:58Z</time>
      </trkpt>
      <trkpt lat="43.81369" lon="5.31902">
        <ele>440</ele>
        <time>2014-05-20T09:28:01Z</time>
      </trkpt>
      <trkpt lat="43.81371" lon="5.31901">
        <ele>440</ele>
        <time>2014-05-20T09:28:03Z</time>
      </trkpt>
      <trkpt lat="43.81376" lon="5.31899">
        <ele>440</ele>
        <time>2014-05-20T09:28:07Z</time>
      </trkpt>
      <trkpt lat="43.81378" lon="5.31897">
        <ele>440</ele>
        <time>2014-05-20T09:28:09Z</time>
      </trkpt>
      <trkpt lat="43.81382" lon="5.31896">
        <ele>440</ele>
        <time>2014-05-20T09:28:13Z</time>
      </trkpt>
      <trkpt lat="43.81392" lon="5.31891">
        <ele>439</ele>
        <time>2014-05-20T09:28:22Z</time>
      </trkpt>
      <trkpt lat="43.814" lon="5.31885">
        <ele>439</ele>
        <time>2014-05-20T09:28:30Z</time>
      </trkpt>
      <trkpt lat="43.81405" lon="5.31881">
        <ele>439</ele>
        <time>2014-05-20T09:28:35Z</time>
      </trkpt>
      <trkpt lat="43.81407" lon="5.3188">
        <ele>439</ele>
        <time>2014-05-20T09:28:37Z</time>
      </trkpt>
      <trkpt lat="43.81412" lon="5.31874">
        <ele>439</ele>
        <time>2014-05-20T09:28:44Z</time>
      </trkpt>
      <trkpt lat="43.81423" lon="5.31867">
        <ele>438</ele>
        <time>2014-05-20T09:28:53Z</time>
      </trkpt>
      <trkpt lat="43.81428" lon="5.31865">
        <ele>437</ele>
        <time>2014-05-20T09:28:57Z</time>
      </trkpt>
      <trkpt lat="43.81434" lon="5.31861">
        <ele>437</ele>
        <time>2014-05-20T09:29:02Z</time>
      </trkpt>
      <trkpt lat="43.81437" lon="5.31859">
        <ele>437</ele>
        <time>2014-05-20T09:29:04Z</time>
      </trkpt>
      <trkpt lat="43.81445" lon="5.31854">
        <ele>437</ele>
        <time>2014-05-20T09:29:09Z</time>
      </trkpt>
      <trkpt lat="43.81446" lon="5.31853">
        <ele>437</ele>
        <time>2014-05-20T09:29:10Z</time>
      </trkpt>
      <trkpt lat="43.81451" lon="5.31853">
        <ele>437</ele>
        <time>2014-05-20T09:29:13Z</time>
      </trkpt>
      <trkpt lat="43.81452" lon="5.31852">
        <ele>437</ele>
        <time>2014-05-20T09:29:14Z</time>
      </trkpt>
      <trkpt lat="43.81457" lon="5.31851">
        <ele>437</ele>
        <time>2014-05-20T09:29:19Z</time>
      </trkpt>
      <trkpt lat="43.81464" lon="5.31849">
        <ele>437</ele>
        <time>2014-05-20T09:29:25Z</time>
      </trkpt>
      <trkpt lat="43.81468" lon="5.31849">
        <ele>437</ele>
        <time>2014-05-20T09:29:29Z</time>
      </trkpt>
      <trkpt lat="43.8147" lon="5.31849">
        <ele>437</ele>
        <time>2014-05-20T09:29:31Z</time>
      </trkpt>
      <trkpt lat="43.81475" lon="5.31851">
        <ele>437</ele>
        <time>2014-05-20T09:29:38Z</time>
      </trkpt>
      <trkpt lat="43.81476" lon="5.3185">
        <ele>437</ele>
        <time>2014-05-20T09:29:40Z</time>
      </trkpt>
      <trkpt lat="43.81478" lon="5.3185">
        <ele>437</ele>
        <time>2014-05-20T09:29:42Z</time>
      </trkpt>
      <trkpt lat="43.81482" lon="5.31853">
        <ele>437</ele>
        <time>2014-05-20T09:29:52Z</time>
      </trkpt>
      <trkpt lat="43.81484" lon="5.31852">
        <ele>437</ele>
        <time>2014-05-20T09:30:00Z</time>
      </trkpt>
      <trkpt lat="43.81485" lon="5.31852">
        <ele>437</ele>
        <time>2014-05-20T09:30:04Z</time>
      </trkpt>
      <trkpt lat="43.81486" lon="5.31851">
        <ele>437</ele>
        <time>2014-05-20T09:30:14Z</time>
      </trkpt>
      <trkpt lat="43.81486" lon="5.3185">
        <ele>437</ele>
        <time>2014-05-20T09:30:16Z</time>
      </trkpt>
      <trkpt lat="43.81485" lon="5.3185">
        <ele>437</ele>
        <time>2014-05-20T09:30:19Z</time>
      </trkpt>
      <trkpt lat="43.81485" lon="5.31851">
        <ele>437</ele>
        <time>2014-05-20T09:30:23Z</time>
      </trkpt>
      <trkpt lat="43.81484" lon="5.3185">
        <ele>437</ele>
        <time>2014-05-20T09:30:26Z</time>
      </trkpt>
      <trkpt lat="43.81482" lon="5.31849">
        <ele>437</ele>
        <time>2014-05-20T09:30:28Z</time>
      </trkpt>
      <trkpt lat="43.81481" lon="5.31847">
        <ele>437</ele>
        <time>2014-05-20T09:30:30Z</time>
      </trkpt>
      <trkpt lat="43.81478" lon="5.31846">
        <ele>437</ele>
        <time>2014-05-20T09:30:34Z</time>
      </trkpt>
      <trkpt lat="43.81477" lon="5.31845">
        <ele>437</ele>
        <time>2014-05-20T09:30:36Z</time>
      </trkpt>
      <trkpt lat="43.81478" lon="5.31839">
        <ele>437</ele>
        <time>2014-05-20T09:30:44Z</time>
      </trkpt>
      <trkpt lat="43.81479" lon="5.31837">
        <ele>437</ele>
        <time>2014-05-20T09:30:46Z</time>
      </trkpt>
      <trkpt lat="43.81481" lon="5.31835">
        <ele>437</ele>
        <time>2014-05-20T09:30:49Z</time>
      </trkpt>
      <trkpt lat="43.81483" lon="5.31834">
        <ele>437</ele>
        <time>2014-05-20T09:30:51Z</time>
      </trkpt>
      <trkpt lat="43.81484" lon="5.3183">
        <ele>436</ele>
        <time>2014-05-20T09:30:55Z</time>
      </trkpt>
      <trkpt lat="43.81486" lon="5.31828">
        <ele>436</ele>
        <time>2014-05-20T09:30:57Z</time>
      </trkpt>
      <trkpt lat="43.8149" lon="5.31824">
        <ele>436</ele>
        <time>2014-05-20T09:31:01Z</time>
      </trkpt>
      <trkpt lat="43.81492" lon="5.31822">
        <ele>436</ele>
        <time>2014-05-20T09:31:03Z</time>
      </trkpt>
      <trkpt lat="43.81494" lon="5.31818">
        <ele>436</ele>
        <time>2014-05-20T09:31:08Z</time>
      </trkpt>
      <trkpt lat="43.815" lon="5.31811">
        <ele>436</ele>
        <time>2014-05-20T09:31:15Z</time>
      </trkpt>
      <trkpt lat="43.81506" lon="5.31805">
        <ele>433</ele>
        <time>2014-05-20T09:31:22Z</time>
      </trkpt>
      <trkpt lat="43.81507" lon="5.31803">
        <ele>433</ele>
        <time>2014-05-20T09:31:24Z</time>
      </trkpt>
      <trkpt lat="43.8151" lon="5.318">
        <ele>433</ele>
        <time>2014-05-20T09:31:27Z</time>
      </trkpt>
      <trkpt lat="43.81511" lon="5.31797">
        <ele>432</ele>
        <time>2014-05-20T09:31:29Z</time>
      </trkpt>
      <trkpt lat="43.81513" lon="5.31796">
        <ele>432</ele>
        <time>2014-05-20T09:31:31Z</time>
      </trkpt>
      <trkpt lat="43.81516" lon="5.31791">
        <ele>432</ele>
        <time>2014-05-20T09:31:35Z</time>
      </trkpt>
      <trkpt lat="43.8152" lon="5.31788">
        <ele>432</ele>
        <time>2014-05-20T09:31:38Z</time>
      </trkpt>
      <trkpt lat="43.81527" lon="5.3178">
        <ele>432</ele>
        <time>2014-05-20T09:31:45Z</time>
      </trkpt>
      <trkpt lat="43.81533" lon="5.31772">
        <ele>431</ele>
        <time>2014-05-20T09:31:52Z</time>
      </trkpt>
      <trkpt lat="43.81537" lon="5.31763">
        <ele>431</ele>
        <time>2014-05-20T09:31:58Z</time>
      </trkpt>
      <trkpt lat="43.81544" lon="5.31754">
        <ele>431</ele>
        <time>2014-05-20T09:32:06Z</time>
      </trkpt>
      <trkpt lat="43.81552" lon="5.31741">
        <ele>429</ele>
        <time>2014-05-20T09:32:17Z</time>
      </trkpt>
      <trkpt lat="43.81554" lon="5.31736">
        <ele>429</ele>
        <time>2014-05-20T09:32:21Z</time>
      </trkpt>
      <trkpt lat="43.81558" lon="5.31731">
        <ele>428</ele>
        <time>2014-05-20T09:32:26Z</time>
      </trkpt>
      <trkpt lat="43.81561" lon="5.31723">
        <ele>428</ele>
        <time>2014-05-20T09:32:30Z</time>
      </trkpt>
      <trkpt lat="43.81564" lon="5.31718">
        <ele>428</ele>
        <time>2014-05-20T09:32:34Z</time>
      </trkpt>
      <trkpt lat="43.81567" lon="5.31708">
        <ele>428</ele>
        <time>2014-05-20T09:32:42Z</time>
      </trkpt>
      <trkpt lat="43.81568" lon="5.31707">
        <ele>428</ele>
        <time>2014-05-20T09:32:43Z</time>
      </trkpt>
      <trkpt lat="43.81571" lon="5.317">
        <ele>428</ele>
        <time>2014-05-20T09:32:48Z</time>
      </trkpt>
      <trkpt lat="43.81581" lon="5.31682">
        <ele>427</ele>
        <time>2014-05-20T09:33:02Z</time>
      </trkpt>
      <trkpt lat="43.81586" lon="5.31673">
        <ele>424</ele>
        <time>2014-05-20T09:33:09Z</time>
      </trkpt>
      <trkpt lat="43.81589" lon="5.3167">
        <ele>424</ele>
        <time>2014-05-20T09:33:12Z</time>
      </trkpt>
      <trkpt lat="43.81593" lon="5.31662">
        <ele>423</ele>
        <time>2014-05-20T09:33:17Z</time>
      </trkpt>
      <trkpt lat="43.81595" lon="5.31655">
        <ele>422</ele>
        <time>2014-05-20T09:33:23Z</time>
      </trkpt>
      <trkpt lat="43.81596" lon="5.3165">
        <ele>421</ele>
        <time>2014-05-20T09:33:26Z</time>
      </trkpt>
      <trkpt lat="43.81597" lon="5.31645">
        <ele>421</ele>
        <time>2014-05-20T09:33:35Z</time>
      </trkpt>
      <trkpt lat="43.81598" lon="5.31645">
        <ele>421</ele>
        <time>2014-05-20T09:33:40Z</time>
      </trkpt>
      <trkpt lat="43.81598" lon="5.31642">
        <ele>420</ele>
        <time>2014-05-20T09:33:45Z</time>
      </trkpt>
      <trkpt lat="43.81599" lon="5.31642">
        <ele>420</ele>
        <time>2014-05-20T09:33:46Z</time>
      </trkpt>
      <trkpt lat="43.81601" lon="5.31635">
        <ele>420</ele>
        <time>2014-05-20T09:33:52Z</time>
      </trkpt>
      <trkpt lat="43.81602" lon="5.31632">
        <ele>420</ele>
        <time>2014-05-20T09:33:55Z</time>
      </trkpt>
      <trkpt lat="43.81604" lon="5.31625">
        <ele>419</ele>
        <time>2014-05-20T09:34:01Z</time>
      </trkpt>
      <trkpt lat="43.81608" lon="5.31618">
        <ele>419</ele>
        <time>2014-05-20T09:34:09Z</time>
      </trkpt>
      <trkpt lat="43.81608" lon="5.31615">
        <ele>419</ele>
        <time>2014-05-20T09:34:11Z</time>
      </trkpt>
      <trkpt lat="43.81609" lon="5.31613">
        <ele>419</ele>
        <time>2014-05-20T09:34:13Z</time>
      </trkpt>
      <trkpt lat="43.81611" lon="5.3161">
        <ele>419</ele>
        <time>2014-05-20T09:34:16Z</time>
      </trkpt>
      <trkpt lat="43.81612" lon="5.31608">
        <ele>419</ele>
        <time>2014-05-20T09:34:18Z</time>
      </trkpt>
      <trkpt lat="43.81613" lon="5.31607">
        <ele>419</ele>
        <time>2014-05-20T09:34:19Z</time>
      </trkpt>
      <trkpt lat="43.81614" lon="5.31605">
        <ele>419</ele>
        <time>2014-05-20T09:34:21Z</time>
      </trkpt>
      <trkpt lat="43.81617" lon="5.31604">
        <ele>418</ele>
        <time>2014-05-20T09:34:24Z</time>
      </trkpt>
      <trkpt lat="43.81619" lon="5.31601">
        <ele>418</ele>
        <time>2014-05-20T09:34:29Z</time>
      </trkpt>
      <trkpt lat="43.81619" lon="5.31599">
        <ele>418</ele>
        <time>2014-05-20T09:34:32Z</time>
      </trkpt>
      <trkpt lat="43.81621" lon="5.31596">
        <ele>418</ele>
        <time>2014-05-20T09:34:36Z</time>
      </trkpt>
      <trkpt lat="43.81621" lon="5.31593">
        <ele>418</ele>
        <time>2014-05-20T09:34:38Z</time>
      </trkpt>
      <trkpt lat="43.81624" lon="5.31589">
        <ele>417</ele>
        <time>2014-05-20T09:34:43Z</time>
      </trkpt>
      <trkpt lat="43.81625" lon="5.31588">
        <ele>417</ele>
        <time>2014-05-20T09:34:44Z</time>
      </trkpt>
      <trkpt lat="43.81627" lon="5.31586">
        <ele>417</ele>
        <time>2014-05-20T09:34:46Z</time>
      </trkpt>
      <trkpt lat="43.8163" lon="5.31579">
        <ele>416</ele>
        <time>2014-05-20T09:34:55Z</time>
      </trkpt>
      <trkpt lat="43.81633" lon="5.31577">
        <ele>415</ele>
        <time>2014-05-20T09:34:58Z</time>
      </trkpt>
      <trkpt lat="43.81634" lon="5.31575">
        <ele>415</ele>
        <time>2014-05-20T09:35:01Z</time>
      </trkpt>
      <trkpt lat="43.81634" lon="5.31573">
        <ele>415</ele>
        <time>2014-05-20T09:35:04Z</time>
      </trkpt>
      <trkpt lat="43.81641" lon="5.31566">
        <ele>415</ele>
        <time>2014-05-20T09:35:14Z</time>
      </trkpt>
      <trkpt lat="43.81642" lon="5.31564">
        <ele>414</ele>
        <time>2014-05-20T09:35:16Z</time>
      </trkpt>
      <trkpt lat="43.81645" lon="5.31562">
        <ele>414</ele>
        <time>2014-05-20T09:35:19Z</time>
      </trkpt>
      <trkpt lat="43.81646" lon="5.31559">
        <ele>414</ele>
        <time>2014-05-20T09:35:21Z</time>
      </trkpt>
      <trkpt lat="43.81649" lon="5.31558">
        <ele>414</ele>
        <time>2014-05-20T09:35:25Z</time>
      </trkpt>
      <trkpt lat="43.8165" lon="5.31557">
        <ele>414</ele>
        <time>2014-05-20T09:35:26Z</time>
      </trkpt>
      <trkpt lat="43.81652" lon="5.31556">
        <ele>414</ele>
        <time>2014-05-20T09:35:28Z</time>
      </trkpt>
      <trkpt lat="43.81661" lon="5.31543">
        <ele>414</ele>
        <time>2014-05-20T09:35:41Z</time>
      </trkpt>
      <trkpt lat="43.81665" lon="5.31541">
        <ele>414</ele>
        <time>2014-05-20T09:35:45Z</time>
      </trkpt>
      <trkpt lat="43.81668" lon="5.3154">
        <ele>408</ele>
        <time>2014-05-20T09:35:49Z</time>
      </trkpt>
      <trkpt lat="43.81669" lon="5.31539">
        <ele>408</ele>
        <time>2014-05-20T09:35:51Z</time>
      </trkpt>
      <trkpt lat="43.81672" lon="5.3154">
        <ele>408</ele>
        <time>2014-05-20T09:35:54Z</time>
      </trkpt>
      <trkpt lat="43.81675" lon="5.31539">
        <ele>408</ele>
        <time>2014-05-20T09:35:58Z</time>
      </trkpt>
      <trkpt lat="43.81678" lon="5.31538">
        <ele>408</ele>
        <time>2014-05-20T09:36:01Z</time>
      </trkpt>
      <trkpt lat="43.8168" lon="5.31534">
        <ele>408</ele>
        <time>2014-05-20T09:36:06Z</time>
      </trkpt>
      <trkpt lat="43.81679" lon="5.31531">
        <ele>408</ele>
        <time>2014-05-20T09:36:11Z</time>
      </trkpt>
      <trkpt lat="43.81679" lon="5.31529">
        <ele>408</ele>
        <time>2014-05-20T09:36:13Z</time>
      </trkpt>
      <trkpt lat="43.81678" lon="5.31526">
        <ele>408</ele>
        <time>2014-05-20T09:36:16Z</time>
      </trkpt>
      <trkpt lat="43.81679" lon="5.31523">
        <ele>408</ele>
        <time>2014-05-20T09:36:19Z</time>
      </trkpt>
      <trkpt lat="43.81679" lon="5.31522">
        <ele>408</ele>
        <time>2014-05-20T09:36:20Z</time>
      </trkpt>
      <trkpt lat="43.81679" lon="5.3152">
        <ele>408</ele>
        <time>2014-05-20T09:36:23Z</time>
      </trkpt>
      <trkpt lat="43.81683" lon="5.31516">
        <ele>408</ele>
        <time>2014-05-20T09:36:28Z</time>
      </trkpt>
      <trkpt lat="43.81685" lon="5.31512">
        <ele>408</ele>
        <time>2014-05-20T09:36:31Z</time>
      </trkpt>
      <trkpt lat="43.81691" lon="5.31506">
        <ele>408</ele>
        <time>2014-05-20T09:36:37Z</time>
      </trkpt>
      <trkpt lat="43.81693" lon="5.31504">
        <ele>408</ele>
        <time>2014-05-20T09:36:39Z</time>
      </trkpt>
      <trkpt lat="43.81697" lon="5.31503">
        <ele>408</ele>
        <time>2014-05-20T09:36:42Z</time>
      </trkpt>
      <trkpt lat="43.817" lon="5.31501">
        <ele>407</ele>
        <time>2014-05-20T09:36:45Z</time>
      </trkpt>
      <trkpt lat="43.81704" lon="5.31494">
        <ele>405</ele>
        <time>2014-05-20T09:36:52Z</time>
      </trkpt>
      <trkpt lat="43.81708" lon="5.3149">
        <ele>404</ele>
        <time>2014-05-20T09:36:56Z</time>
      </trkpt>
      <trkpt lat="43.81709" lon="5.31488">
        <ele>404</ele>
        <time>2014-05-20T09:36:58Z</time>
      </trkpt>
      <trkpt lat="43.8171" lon="5.31487">
        <ele>404</ele>
        <time>2014-05-20T09:37:00Z</time>
      </trkpt>
      <trkpt lat="43.81711" lon="5.31484">
        <ele>404</ele>
        <time>2014-05-20T09:37:03Z</time>
      </trkpt>
      <trkpt lat="43.81711" lon="5.31483">
        <ele>404</ele>
        <time>2014-05-20T09:37:04Z</time>
      </trkpt>
      <trkpt lat="43.81713" lon="5.31474">
        <ele>404</ele>
        <time>2014-05-20T09:37:12Z</time>
      </trkpt>
      <trkpt lat="43.81713" lon="5.31473">
        <ele>403</ele>
        <time>2014-05-20T09:37:13Z</time>
      </trkpt>
      <trkpt lat="43.81713" lon="5.31472">
        <ele>403</ele>
        <time>2014-05-20T09:37:15Z</time>
      </trkpt>
      <trkpt lat="43.81714" lon="5.31469">
        <ele>403</ele>
        <time>2014-05-20T09:37:17Z</time>
      </trkpt>
      <trkpt lat="43.81714" lon="5.31465">
        <ele>403</ele>
        <time>2014-05-20T09:37:20Z</time>
      </trkpt>
      <trkpt lat="43.81714" lon="5.31462">
        <ele>403</ele>
        <time>2014-05-20T09:37:22Z</time>
      </trkpt>
      <trkpt lat="43.81715" lon="5.31461">
        <ele>403</ele>
        <time>2014-05-20T09:37:23Z</time>
      </trkpt>
      <trkpt lat="43.81716" lon="5.31459">
        <ele>403</ele>
        <time>2014-05-20T09:37:25Z</time>
      </trkpt>
      <trkpt lat="43.81717" lon="5.31457">
        <ele>403</ele>
        <time>2014-05-20T09:37:26Z</time>
      </trkpt>
      <trkpt lat="43.81718" lon="5.31456">
        <ele>403</ele>
        <time>2014-05-20T09:37:28Z</time>
      </trkpt>
      <trkpt lat="43.81719" lon="5.31455">
        <ele>402</ele>
        <time>2014-05-20T09:37:30Z</time>
      </trkpt>
      <trkpt lat="43.81722" lon="5.31451">
        <ele>402</ele>
        <time>2014-05-20T09:37:33Z</time>
      </trkpt>
      <trkpt lat="43.81723" lon="5.3145">
        <ele>402</ele>
        <time>2014-05-20T09:37:35Z</time>
      </trkpt>
      <trkpt lat="43.81724" lon="5.31448">
        <ele>402</ele>
        <time>2014-05-20T09:37:37Z</time>
      </trkpt>
      <trkpt lat="43.81728" lon="5.31447">
        <ele>401</ele>
        <time>2014-05-20T09:37:42Z</time>
      </trkpt>
      <trkpt lat="43.81728" lon="5.31446">
        <ele>401</ele>
        <time>2014-05-20T09:37:43Z</time>
      </trkpt>
      <trkpt lat="43.81729" lon="5.31445">
        <ele>401</ele>
        <time>2014-05-20T09:37:44Z</time>
      </trkpt>
      <trkpt lat="43.8173" lon="5.31443">
        <ele>401</ele>
        <time>2014-05-20T09:37:47Z</time>
      </trkpt>
      <trkpt lat="43.81733" lon="5.31439">
        <ele>400</ele>
        <time>2014-05-20T09:37:51Z</time>
      </trkpt>
      <trkpt lat="43.81739" lon="5.31435">
        <ele>398</ele>
        <time>2014-05-20T09:37:56Z</time>
      </trkpt>
      <trkpt lat="43.81741" lon="5.31433">
        <ele>398</ele>
        <time>2014-05-20T09:37:58Z</time>
      </trkpt>
      <trkpt lat="43.81744" lon="5.31428">
        <ele>396</ele>
        <time>2014-05-20T09:38:02Z</time>
      </trkpt>
      <trkpt lat="43.81745" lon="5.31425">
        <ele>395</ele>
        <time>2014-05-20T09:38:04Z</time>
      </trkpt>
      <trkpt lat="43.81746" lon="5.31422">
        <ele>394</ele>
        <time>2014-05-20T09:38:06Z</time>
      </trkpt>
      <trkpt lat="43.81749" lon="5.3142">
        <ele>393</ele>
        <time>2014-05-20T09:38:08Z</time>
      </trkpt>
      <trkpt lat="43.81749" lon="5.31418">
        <ele>392</ele>
        <time>2014-05-20T09:38:10Z</time>
      </trkpt>
      <trkpt lat="43.81751" lon="5.31416">
        <ele>391</ele>
        <time>2014-05-20T09:38:12Z</time>
      </trkpt>
      <trkpt lat="43.81753" lon="5.31416">
        <ele>391</ele>
        <time>2014-05-20T09:38:14Z</time>
      </trkpt>
      <trkpt lat="43.81754" lon="5.31415">
        <ele>391</ele>
        <time>2014-05-20T09:38:15Z</time>
      </trkpt>
      <trkpt lat="43.81755" lon="5.31409">
        <ele>390</ele>
        <time>2014-05-20T09:38:18Z</time>
      </trkpt>
      <trkpt lat="43.81757" lon="5.31407">
        <ele>390</ele>
        <time>2014-05-20T09:38:20Z</time>
      </trkpt>
      <trkpt lat="43.81761" lon="5.31404">
        <ele>390</ele>
        <time>2014-05-20T09:38:23Z</time>
      </trkpt>
      <trkpt lat="43.81761" lon="5.31399">
        <ele>390</ele>
        <time>2014-05-20T09:38:26Z</time>
      </trkpt>
      <trkpt lat="43.81764" lon="5.31391">
        <ele>389</ele>
        <time>2014-05-20T09:38:31Z</time>
      </trkpt>
      <trkpt lat="43.81765" lon="5.31389">
        <ele>389</ele>
        <time>2014-05-20T09:38:33Z</time>
      </trkpt>
      <trkpt lat="43.81766" lon="5.31386">
        <ele>389</ele>
        <time>2014-05-20T09:38:35Z</time>
      </trkpt>
      <trkpt lat="43.81766" lon="5.31384">
        <ele>389</ele>
        <time>2014-05-20T09:38:36Z</time>
      </trkpt>
      <trkpt lat="43.81767" lon="5.31381">
        <ele>388</ele>
        <time>2014-05-20T09:38:38Z</time>
      </trkpt>
      <trkpt lat="43.81768" lon="5.31378">
        <ele>388</ele>
        <time>2014-05-20T09:38:40Z</time>
      </trkpt>
      <trkpt lat="43.8177" lon="5.31376">
        <ele>388</ele>
        <time>2014-05-20T09:38:43Z</time>
      </trkpt>
      <trkpt lat="43.81771" lon="5.31373">
        <ele>388</ele>
        <time>2014-05-20T09:38:46Z</time>
      </trkpt>
      <trkpt lat="43.81772" lon="5.31372">
        <ele>388</ele>
        <time>2014-05-20T09:38:47Z</time>
      </trkpt>
      <trkpt lat="43.81775" lon="5.31371">
        <ele>388</ele>
        <time>2014-05-20T09:38:49Z</time>
      </trkpt>
      <trkpt lat="43.8178" lon="5.31367">
        <ele>388</ele>
        <time>2014-05-20T09:38:54Z</time>
      </trkpt>
      <trkpt lat="43.81781" lon="5.31365">
        <ele>387</ele>
        <time>2014-05-20T09:38:56Z</time>
      </trkpt>
      <trkpt lat="43.81783" lon="5.31363">
        <ele>387</ele>
        <time>2014-05-20T09:38:58Z</time>
      </trkpt>
      <trkpt lat="43.81785" lon="5.3136">
        <ele>387</ele>
        <time>2014-05-20T09:39:01Z</time>
      </trkpt>
      <trkpt lat="43.81788" lon="5.31355">
        <ele>387</ele>
        <time>2014-05-20T09:39:05Z</time>
      </trkpt>
      <trkpt lat="43.81789" lon="5.31354">
        <ele>387</ele>
        <time>2014-05-20T09:39:06Z</time>
      </trkpt>
      <trkpt lat="43.81793" lon="5.31349">
        <ele>387</ele>
        <time>2014-05-20T09:39:11Z</time>
      </trkpt>
      <trkpt lat="43.81797" lon="5.31345">
        <ele>386</ele>
        <time>2014-05-20T09:39:15Z</time>
      </trkpt>
      <trkpt lat="43.81799" lon="5.31343">
        <ele>386</ele>
        <time>2014-05-20T09:39:17Z</time>
      </trkpt>
      <trkpt lat="43.81799" lon="5.31341">
        <ele>386</ele>
        <time>2014-05-20T09:39:19Z</time>
      </trkpt>
      <trkpt lat="43.81801" lon="5.31338">
        <ele>386</ele>
        <time>2014-05-20T09:39:21Z</time>
      </trkpt>
      <trkpt lat="43.81803" lon="5.31332">
        <ele>376</ele>
        <time>2014-05-20T09:39:26Z</time>
      </trkpt>
      <trkpt lat="43.81804" lon="5.31327">
        <ele>376</ele>
        <time>2014-05-20T09:39:29Z</time>
      </trkpt>
      <trkpt lat="43.81805" lon="5.31324">
        <ele>376</ele>
        <time>2014-05-20T09:39:31Z</time>
      </trkpt>
      <trkpt lat="43.81806" lon="5.31322">
        <ele>376</ele>
        <time>2014-05-20T09:39:33Z</time>
      </trkpt>
      <trkpt lat="43.81808" lon="5.3132">
        <ele>376</ele>
        <time>2014-05-20T09:39:35Z</time>
      </trkpt>
      <trkpt lat="43.81812" lon="5.31312">
        <ele>376</ele>
        <time>2014-05-20T09:39:40Z</time>
      </trkpt>
      <trkpt lat="43.81814" lon="5.31309">
        <ele>375</ele>
        <time>2014-05-20T09:39:43Z</time>
      </trkpt>
      <trkpt lat="43.81814" lon="5.31307">
        <ele>375</ele>
        <time>2014-05-20T09:39:44Z</time>
      </trkpt>
      <trkpt lat="43.81815" lon="5.313">
        <ele>374</ele>
        <time>2014-05-20T09:39:49Z</time>
      </trkpt>
      <trkpt lat="43.81817" lon="5.31295">
        <ele>374</ele>
        <time>2014-05-20T09:39:52Z</time>
      </trkpt>
      <trkpt lat="43.81819" lon="5.31292">
        <ele>373</ele>
        <time>2014-05-20T09:39:54Z</time>
      </trkpt>
      <trkpt lat="43.8182" lon="5.31289">
        <ele>373</ele>
        <time>2014-05-20T09:39:56Z</time>
      </trkpt>
      <trkpt lat="43.81823" lon="5.31279">
        <ele>371</ele>
        <time>2014-05-20T09:40:01Z</time>
      </trkpt>
      <trkpt lat="43.81824" lon="5.31275">
        <ele>371</ele>
        <time>2014-05-20T09:40:03Z</time>
      </trkpt>
      <trkpt lat="43.81825" lon="5.31273">
        <ele>370</ele>
        <time>2014-05-20T09:40:04Z</time>
      </trkpt>
      <trkpt lat="43.81828" lon="5.31269">
        <ele>369</ele>
        <time>2014-05-20T09:40:09Z</time>
      </trkpt>
      <trkpt lat="43.81827" lon="5.31267">
        <ele>369</ele>
        <time>2014-05-20T09:40:14Z</time>
      </trkpt>
      <trkpt lat="43.81827" lon="5.31267">
        <ele>369</ele>
        <time>2014-05-20T09:40:17Z</time>
      </trkpt>
      <trkpt lat="43.81827" lon="5.31266">
        <ele>369</ele>
        <time>2014-05-20T09:40:19Z</time>
      </trkpt>
      <trkpt lat="43.8183" lon="5.31258">
        <ele>367</ele>
        <time>2014-05-20T09:40:28Z</time>
      </trkpt>
      <trkpt lat="43.81831" lon="5.31257">
        <ele>366</ele>
        <time>2014-05-20T09:40:29Z</time>
      </trkpt>
      <trkpt lat="43.81832" lon="5.31254">
        <ele>365</ele>
        <time>2014-05-20T09:40:31Z</time>
      </trkpt>
      <trkpt lat="43.81834" lon="5.31251">
        <ele>365</ele>
        <time>2014-05-20T09:40:33Z</time>
      </trkpt>
      <trkpt lat="43.81835" lon="5.31249">
        <ele>364</ele>
        <time>2014-05-20T09:40:35Z</time>
      </trkpt>
      <trkpt lat="43.81838" lon="5.31246">
        <ele>365</ele>
        <time>2014-05-20T09:40:38Z</time>
      </trkpt>
      <trkpt lat="43.81839" lon="5.31244">
        <ele>365</ele>
        <time>2014-05-20T09:40:40Z</time>
      </trkpt>
      <trkpt lat="43.81841" lon="5.3124">
        <ele>366</ele>
        <time>2014-05-20T09:40:43Z</time>
      </trkpt>
      <trkpt lat="43.81842" lon="5.31237">
        <ele>366</ele>
        <time>2014-05-20T09:40:45Z</time>
      </trkpt>
      <trkpt lat="43.81842" lon="5.31236">
        <ele>366</ele>
        <time>2014-05-20T09:40:46Z</time>
      </trkpt>
      <trkpt lat="43.81845" lon="5.31233">
        <ele>366</ele>
        <time>2014-05-20T09:40:49Z</time>
      </trkpt>
      <trkpt lat="43.81846" lon="5.3123">
        <ele>366</ele>
        <time>2014-05-20T09:40:51Z</time>
      </trkpt>
      <trkpt lat="43.81848" lon="5.31225">
        <ele>366</ele>
        <time>2014-05-20T09:40:54Z</time>
      </trkpt>
      <trkpt lat="43.81858" lon="5.31214">
        <ele>366</ele>
        <time>2014-05-20T09:41:05Z</time>
      </trkpt>
      <trkpt lat="43.8186" lon="5.31209">
        <ele>366</ele>
        <time>2014-05-20T09:41:08Z</time>
      </trkpt>
      <trkpt lat="43.81862" lon="5.31204">
        <ele>366</ele>
        <time>2014-05-20T09:41:11Z</time>
      </trkpt>
      <trkpt lat="43.81863" lon="5.312">
        <ele>365</ele>
        <time>2014-05-20T09:41:13Z</time>
      </trkpt>
      <trkpt lat="43.81866" lon="5.31197">
        <ele>365</ele>
        <time>2014-05-20T09:41:16Z</time>
      </trkpt>
      <trkpt lat="43.81867" lon="5.31194">
        <ele>365</ele>
        <time>2014-05-20T09:41:18Z</time>
      </trkpt>
      <trkpt lat="43.81868" lon="5.31193">
        <ele>365</ele>
        <time>2014-05-20T09:41:19Z</time>
      </trkpt>
      <trkpt lat="43.81872" lon="5.31191">
        <ele>365</ele>
        <time>2014-05-20T09:41:22Z</time>
      </trkpt>
      <trkpt lat="43.81873" lon="5.31188">
        <ele>365</ele>
        <time>2014-05-20T09:41:24Z</time>
      </trkpt>
      <trkpt lat="43.81874" lon="5.31187">
        <ele>365</ele>
        <time>2014-05-20T09:41:25Z</time>
      </trkpt>
      <trkpt lat="43.81876" lon="5.31183">
        <ele>365</ele>
        <time>2014-05-20T09:41:28Z</time>
      </trkpt>
      <trkpt lat="43.81877" lon="5.3118">
        <ele>365</ele>
        <time>2014-05-20T09:41:30Z</time>
      </trkpt>
      <trkpt lat="43.81877" lon="5.31178">
        <ele>365</ele>
        <time>2014-05-20T09:41:31Z</time>
      </trkpt>
      <trkpt lat="43.81884" lon="5.31173">
        <ele>365</ele>
        <time>2014-05-20T09:41:36Z</time>
      </trkpt>
      <trkpt lat="43.81886" lon="5.3117">
        <ele>365</ele>
        <time>2014-05-20T09:41:38Z</time>
      </trkpt>
      <trkpt lat="43.81887" lon="5.3117">
        <ele>365</ele>
        <time>2014-05-20T09:41:39Z</time>
      </trkpt>
      <trkpt lat="43.8189" lon="5.31164">
        <ele>358</ele>
        <time>2014-05-20T09:41:43Z</time>
      </trkpt>
      <trkpt lat="43.81892" lon="5.31158">
        <ele>358</ele>
        <time>2014-05-20T09:41:46Z</time>
      </trkpt>
      <trkpt lat="43.81893" lon="5.31157">
        <ele>358</ele>
        <time>2014-05-20T09:41:47Z</time>
      </trkpt>
      <trkpt lat="43.81906" lon="5.3114">
        <ele>358</ele>
        <time>2014-05-20T09:42:01Z</time>
      </trkpt>
      <trkpt lat="43.81913" lon="5.3113">
        <ele>356</ele>
        <time>2014-05-20T09:42:12Z</time>
      </trkpt>
      <trkpt lat="43.81914" lon="5.31127">
        <ele>356</ele>
        <time>2014-05-20T09:42:14Z</time>
      </trkpt>
      <trkpt lat="43.81919" lon="5.31119">
        <ele>363</ele>
        <time>2014-05-20T09:42:21Z</time>
      </trkpt>
      <trkpt lat="43.81924" lon="5.31109">
        <ele>361</ele>
        <time>2014-05-20T09:42:30Z</time>
      </trkpt>
      <trkpt lat="43.81926" lon="5.31102">
        <ele>359</ele>
        <time>2014-05-20T09:42:35Z</time>
      </trkpt>
      <trkpt lat="43.81929" lon="5.31097">
        <ele>358</ele>
        <time>2014-05-20T09:42:39Z</time>
      </trkpt>
      <trkpt lat="43.81936" lon="5.31077">
        <ele>351</ele>
        <time>2014-05-20T09:42:53Z</time>
      </trkpt>
      <trkpt lat="43.81937" lon="5.31075">
        <ele>351</ele>
        <time>2014-05-20T09:42:55Z</time>
      </trkpt>
      <trkpt lat="43.81936" lon="5.31073">
        <ele>351</ele>
        <time>2014-05-20T09:43:01Z</time>
      </trkpt>
      <trkpt lat="43.81937" lon="5.31071">
        <ele>351</ele>
        <time>2014-05-20T09:43:05Z</time>
      </trkpt>
      <trkpt lat="43.81938" lon="5.3107">
        <ele>351</ele>
        <time>2014-05-20T09:43:08Z</time>
      </trkpt>
      <trkpt lat="43.81939" lon="5.31068">
        <ele>352</ele>
        <time>2014-05-20T09:43:10Z</time>
      </trkpt>
      <trkpt lat="43.81941" lon="5.31066">
        <ele>352</ele>
        <time>2014-05-20T09:43:12Z</time>
      </trkpt>
      <trkpt lat="43.81943" lon="5.31061">
        <ele>352</ele>
        <time>2014-05-20T09:43:16Z</time>
      </trkpt>
      <trkpt lat="43.81945" lon="5.31058">
        <ele>352</ele>
        <time>2014-05-20T09:43:18Z</time>
      </trkpt>
      <trkpt lat="43.81947" lon="5.31054">
        <ele>352</ele>
        <time>2014-05-20T09:43:21Z</time>
      </trkpt>
      <trkpt lat="43.81949" lon="5.31053">
        <ele>353</ele>
        <time>2014-05-20T09:43:23Z</time>
      </trkpt>
      <trkpt lat="43.8195" lon="5.3105">
        <ele>353</ele>
        <time>2014-05-20T09:43:25Z</time>
      </trkpt>
      <trkpt lat="43.81953" lon="5.31046">
        <ele>353</ele>
        <time>2014-05-20T09:43:29Z</time>
      </trkpt>
      <trkpt lat="43.81954" lon="5.31045">
        <ele>353</ele>
        <time>2014-05-20T09:43:31Z</time>
      </trkpt>
      <trkpt lat="43.81955" lon="5.31046">
        <ele>353</ele>
        <time>2014-05-20T09:43:34Z</time>
      </trkpt>
      <trkpt lat="43.81956" lon="5.31046">
        <ele>353</ele>
        <time>2014-05-20T09:43:37Z</time>
      </trkpt>
      <trkpt lat="43.81956" lon="5.31045">
        <ele>353</ele>
        <time>2014-05-20T09:43:43Z</time>
      </trkpt>
      <trkpt lat="43.81956" lon="5.31046">
        <ele>353</ele>
        <time>2014-05-20T09:43:45Z</time>
      </trkpt>
      <trkpt lat="43.81956" lon="5.31045">
        <ele>353</ele>
        <time>2014-05-20T09:43:47Z</time>
      </trkpt>
      <trkpt lat="43.81958" lon="5.31046">
        <ele>353</ele>
        <time>2014-05-20T09:44:02Z</time>
      </trkpt>
      <trkpt lat="43.81959" lon="5.31046">
        <ele>353</ele>
        <time>2014-05-20T09:44:10Z</time>
      </trkpt>
      <trkpt lat="43.8196" lon="5.31044">
        <ele>353</ele>
        <time>2014-05-20T09:44:15Z</time>
      </trkpt>
      <trkpt lat="43.81965" lon="5.31034">
        <ele>353</ele>
        <time>2014-05-20T09:44:27Z</time>
      </trkpt>
      <trkpt lat="43.81966" lon="5.31033">
        <ele>353</ele>
        <time>2014-05-20T09:44:29Z</time>
      </trkpt>
      <trkpt lat="43.81972" lon="5.3102">
        <ele>352</ele>
        <time>2014-05-20T09:44:41Z</time>
      </trkpt>
      <trkpt lat="43.81972" lon="5.3102">
        <ele>352</ele>
        <time>2014-05-20T09:44:45Z</time>
      </trkpt>
      <trkpt lat="43.81971" lon="5.31021">
        <ele>352</ele>
        <time>2014-05-20T09:44:50Z</time>
      </trkpt>
      <trkpt lat="43.8197" lon="5.3102">
        <ele>352</ele>
        <time>2014-05-20T09:44:58Z</time>
      </trkpt>
      <trkpt lat="43.8197" lon="5.31018">
        <ele>352</ele>
        <time>2014-05-20T09:45:00Z</time>
      </trkpt>
      <trkpt lat="43.81972" lon="5.31016">
        <ele>352</ele>
        <time>2014-05-20T09:45:03Z</time>
      </trkpt>
      <trkpt lat="43.81978" lon="5.31012">
        <ele>352</ele>
        <time>2014-05-20T09:45:09Z</time>
      </trkpt>
      <trkpt lat="43.81983" lon="5.31005">
        <ele>352</ele>
        <time>2014-05-20T09:45:15Z</time>
      </trkpt>
      <trkpt lat="43.81983" lon="5.31004">
        <ele>352</ele>
        <time>2014-05-20T09:45:16Z</time>
      </trkpt>
      <trkpt lat="43.81991" lon="5.30994">
        <ele>349</ele>
        <time>2014-05-20T09:45:24Z</time>
      </trkpt>
      <trkpt lat="43.81998" lon="5.30987">
        <ele>348</ele>
        <time>2014-05-20T09:45:30Z</time>
      </trkpt>
      <trkpt lat="43.82" lon="5.30983">
        <ele>348</ele>
        <time>2014-05-20T09:45:33Z</time>
      </trkpt>
      <trkpt lat="43.82004" lon="5.30978">
        <ele>348</ele>
        <time>2014-05-20T09:45:37Z</time>
      </trkpt>
      <trkpt lat="43.82005" lon="5.30975">
        <ele>348</ele>
        <time>2014-05-20T09:45:39Z</time>
      </trkpt>
      <trkpt lat="43.82012" lon="5.30967">
        <ele>347</ele>
        <time>2014-05-20T09:45:46Z</time>
      </trkpt>
      <trkpt lat="43.82016" lon="5.30964">
        <ele>347</ele>
        <time>2014-05-20T09:45:50Z</time>
      </trkpt>
      <trkpt lat="43.82021" lon="5.30958">
        <ele>346</ele>
        <time>2014-05-20T09:45:56Z</time>
      </trkpt>
      <trkpt lat="43.82024" lon="5.30953">
        <ele>346</ele>
        <time>2014-05-20T09:46:00Z</time>
      </trkpt>
      <trkpt lat="43.82031" lon="5.30945">
        <ele>345</ele>
        <time>2014-05-20T09:46:07Z</time>
      </trkpt>
      <trkpt lat="43.82034" lon="5.30942">
        <ele>345</ele>
        <time>2014-05-20T09:46:10Z</time>
      </trkpt>
      <trkpt lat="43.82037" lon="5.30937">
        <ele>345</ele>
        <time>2014-05-20T09:46:14Z</time>
      </trkpt>
      <trkpt lat="43.82038" lon="5.30934">
        <ele>345</ele>
        <time>2014-05-20T09:46:16Z</time>
      </trkpt>
      <trkpt lat="43.8204" lon="5.30931">
        <ele>345</ele>
        <time>2014-05-20T09:46:19Z</time>
      </trkpt>
      <trkpt lat="43.8204" lon="5.30929">
        <ele>345</ele>
        <time>2014-05-20T09:46:20Z</time>
      </trkpt>
      <trkpt lat="43.82043" lon="5.30927">
        <ele>345</ele>
        <time>2014-05-20T09:46:23Z</time>
      </trkpt>
      <trkpt lat="43.82049" lon="5.30924">
        <ele>345</ele>
        <time>2014-05-20T09:46:28Z</time>
      </trkpt>
      <trkpt lat="43.82056" lon="5.30916">
        <ele>339</ele>
        <time>2014-05-20T09:46:35Z</time>
      </trkpt>
      <trkpt lat="43.82061" lon="5.30908">
        <ele>339</ele>
        <time>2014-05-20T09:46:41Z</time>
      </trkpt>
      <trkpt lat="43.82063" lon="5.30906">
        <ele>339</ele>
        <time>2014-05-20T09:46:43Z</time>
      </trkpt>
      <trkpt lat="43.82067" lon="5.309">
        <ele>339</ele>
        <time>2014-05-20T09:46:48Z</time>
      </trkpt>
      <trkpt lat="43.82071" lon="5.30897">
        <ele>338</ele>
        <time>2014-05-20T09:46:52Z</time>
      </trkpt>
      <trkpt lat="43.82074" lon="5.30893">
        <ele>338</ele>
        <time>2014-05-20T09:46:55Z</time>
      </trkpt>
      <trkpt lat="43.82079" lon="5.30887">
        <ele>338</ele>
        <time>2014-05-20T09:47:01Z</time>
      </trkpt>
      <trkpt lat="43.82083" lon="5.30884">
        <ele>337</ele>
        <time>2014-05-20T09:47:05Z</time>
      </trkpt>
      <trkpt lat="43.82086" lon="5.30883">
        <ele>339</ele>
        <time>2014-05-20T09:47:08Z</time>
      </trkpt>
      <trkpt lat="43.82099" lon="5.30886">
        <ele>340</ele>
        <time>2014-05-20T09:47:20Z</time>
      </trkpt>
      <trkpt lat="43.82104" lon="5.30885">
        <ele>340</ele>
        <time>2014-05-20T09:47:27Z</time>
      </trkpt>
      <trkpt lat="43.82106" lon="5.30885">
        <ele>340</ele>
        <time>2014-05-20T09:47:29Z</time>
      </trkpt>
      <trkpt lat="43.82109" lon="5.30883">
        <ele>340</ele>
        <time>2014-05-20T09:47:31Z</time>
      </trkpt>
      <trkpt lat="43.82112" lon="5.30884">
        <ele>340</ele>
        <time>2014-05-20T09:47:36Z</time>
      </trkpt>
      <trkpt lat="43.82115" lon="5.30884">
        <ele>340</ele>
        <time>2014-05-20T09:47:38Z</time>
      </trkpt>
      <trkpt lat="43.82115" lon="5.30883">
        <ele>340</ele>
        <time>2014-05-20T09:47:39Z</time>
      </trkpt>
      <trkpt lat="43.82118" lon="5.30878">
        <ele>340</ele>
        <time>2014-05-20T09:47:43Z</time>
      </trkpt>
      <trkpt lat="43.82122" lon="5.30874">
        <ele>340</ele>
        <time>2014-05-20T09:47:47Z</time>
      </trkpt>
      <trkpt lat="43.82123" lon="5.30871">
        <ele>340</ele>
        <time>2014-05-20T09:47:49Z</time>
      </trkpt>
      <trkpt lat="43.82125" lon="5.30869">
        <ele>340</ele>
        <time>2014-05-20T09:47:51Z</time>
      </trkpt>
      <trkpt lat="43.8213" lon="5.3086">
        <ele>340</ele>
        <time>2014-05-20T09:47:56Z</time>
      </trkpt>
      <trkpt lat="43.82131" lon="5.30857">
        <ele>340</ele>
        <time>2014-05-20T09:47:58Z</time>
      </trkpt>
      <trkpt lat="43.82132" lon="5.30854">
        <ele>340</ele>
        <time>2014-05-20T09:48:00Z</time>
      </trkpt>
      <trkpt lat="43.82133" lon="5.30851">
        <ele>340</ele>
        <time>2014-05-20T09:48:02Z</time>
      </trkpt>
      <trkpt lat="43.82134" lon="5.30844">
        <ele>340</ele>
        <time>2014-05-20T09:48:07Z</time>
      </trkpt>
      <trkpt lat="43.82136" lon="5.30839">
        <ele>340</ele>
        <time>2014-05-20T09:48:10Z</time>
      </trkpt>
      <trkpt lat="43.82139" lon="5.30833">
        <ele>337</ele>
        <time>2014-05-20T09:48:15Z</time>
      </trkpt>
      <trkpt lat="43.82142" lon="5.30829">
        <ele>337</ele>
        <time>2014-05-20T09:48:18Z</time>
      </trkpt>
      <trkpt lat="43.82144" lon="5.30825">
        <ele>338</ele>
        <time>2014-05-20T09:48:23Z</time>
      </trkpt>
      <trkpt lat="43.82149" lon="5.30819">
        <ele>338</ele>
        <time>2014-05-20T09:48:30Z</time>
      </trkpt>
      <trkpt lat="43.82152" lon="5.30811">
        <ele>338</ele>
        <time>2014-05-20T09:48:37Z</time>
      </trkpt>
      <trkpt lat="43.82153" lon="5.30807">
        <ele>337</ele>
        <time>2014-05-20T09:48:40Z</time>
      </trkpt>
      <trkpt lat="43.82159" lon="5.30796">
        <ele>337</ele>
        <time>2014-05-20T09:48:49Z</time>
      </trkpt>
      <trkpt lat="43.82159" lon="5.30794">
        <ele>337</ele>
        <time>2014-05-20T09:48:51Z</time>
      </trkpt>
      <trkpt lat="43.82161" lon="5.30792">
        <ele>337</ele>
        <time>2014-05-20T09:48:54Z</time>
      </trkpt>
      <trkpt lat="43.82167" lon="5.3079">
        <ele>353</ele>
        <time>2014-05-20T09:49:04Z</time>
      </trkpt>
      <trkpt lat="43.82168" lon="5.30792">
        <ele>353</ele>
        <time>2014-05-20T09:49:06Z</time>
      </trkpt>
      <trkpt lat="43.82168" lon="5.30784">
        <ele>353</ele>
        <time>2014-05-20T09:49:11Z</time>
      </trkpt>
      <trkpt lat="43.82178" lon="5.30768">
        <ele>351</ele>
        <time>2014-05-20T09:49:35Z</time>
      </trkpt>
      <trkpt lat="43.822" lon="5.30751">
        <ele>356</ele>
        <time>2014-05-20T09:50:36Z</time>
      </trkpt>
      <trkpt lat="43.822" lon="5.30752">
        <ele>356</ele>
        <time>2014-05-20T09:50:39Z</time>
      </trkpt>
      <trkpt lat="43.822" lon="5.3075">
        <ele>356</ele>
        <time>2014-05-20T09:50:43Z</time>
      </trkpt>
      <trkpt lat="43.82202" lon="5.30751">
        <ele>357</ele>
        <time>2014-05-20T09:50:47Z</time>
      </trkpt>
      <trkpt lat="43.82202" lon="5.30751">
        <ele>357</ele>
        <time>2014-05-20T09:50:52Z</time>
      </trkpt>
      <trkpt lat="43.82202" lon="5.30752">
        <ele>357</ele>
        <time>2014-05-20T09:50:54Z</time>
      </trkpt>
      <trkpt lat="43.82202" lon="5.30753">
        <ele>357</ele>
        <time>2014-05-20T09:50:55Z</time>
      </trkpt>
      <trkpt lat="43.82204" lon="5.30752">
        <ele>357</ele>
        <time>2014-05-20T09:50:58Z</time>
      </trkpt>
      <trkpt lat="43.82208" lon="5.30746">
        <ele>354</ele>
        <time>2014-05-20T09:51:06Z</time>
      </trkpt>
      <trkpt lat="43.82209" lon="5.30746">
        <ele>354</ele>
        <time>2014-05-20T09:51:07Z</time>
      </trkpt>
      <trkpt lat="43.8221" lon="5.30745">
        <ele>355</ele>
        <time>2014-05-20T09:51:09Z</time>
      </trkpt>
      <trkpt lat="43.82211" lon="5.30743">
        <ele>355</ele>
        <time>2014-05-20T09:51:17Z</time>
      </trkpt>
      <trkpt lat="43.82211" lon="5.30741">
        <ele>355</ele>
        <time>2014-05-20T09:51:22Z</time>
      </trkpt>
      <trkpt lat="43.82211" lon="5.30738">
        <ele>355</ele>
        <time>2014-05-20T09:51:29Z</time>
      </trkpt>
      <trkpt lat="43.82212" lon="5.30738">
        <ele>355</ele>
        <time>2014-05-20T09:51:31Z</time>
      </trkpt>
      <trkpt lat="43.82211" lon="5.30737">
        <ele>355</ele>
        <time>2014-05-20T09:51:36Z</time>
      </trkpt>
      <trkpt lat="43.82211" lon="5.30737">
        <ele>355</ele>
        <time>2014-05-20T09:51:42Z</time>
      </trkpt>
      <trkpt lat="43.82212" lon="5.30736">
        <ele>355</ele>
        <time>2014-05-20T09:51:46Z</time>
      </trkpt>
      <trkpt lat="43.82211" lon="5.30736">
        <ele>355</ele>
        <time>2014-05-20T09:51:49Z</time>
      </trkpt>
      <trkpt lat="43.82211" lon="5.30737">
        <ele>355</ele>
        <time>2014-05-20T09:51:53Z</time>
      </trkpt>
      <trkpt lat="43.8221" lon="5.30737">
        <ele>355</ele>
        <time>2014-05-20T09:51:57Z</time>
      </trkpt>
      <trkpt lat="43.82207" lon="5.30737">
        <ele>354</ele>
        <time>2014-05-20T09:52:00Z</time>
      </trkpt>
      <trkpt lat="43.82207" lon="5.30737">
        <ele>354</ele>
        <time>2014-05-20T09:52:07Z</time>
      </trkpt>
      <trkpt lat="43.82208" lon="5.30737">
        <ele>354</ele>
        <time>2014-05-20T09:52:12Z</time>
      </trkpt>
      <trkpt lat="43.82208" lon="5.30735">
        <ele>354</ele>
        <time>2014-05-20T09:52:15Z</time>
      </trkpt>
      <trkpt lat="43.82208" lon="5.30732">
        <ele>354</ele>
        <time>2014-05-20T09:52:17Z</time>
      </trkpt>
      <trkpt lat="43.82209" lon="5.30731">
        <ele>354</ele>
        <time>2014-05-20T09:52:20Z</time>
      </trkpt>
      <trkpt lat="43.82209" lon="5.30732">
        <ele>354</ele>
        <time>2014-05-20T09:52:22Z</time>
      </trkpt>
      <trkpt lat="43.82211" lon="5.30732">
        <ele>354</ele>
        <time>2014-05-20T09:52:28Z</time>
      </trkpt>
      <trkpt lat="43.82211" lon="5.30733">
        <ele>355</ele>
        <time>2014-05-20T09:52:30Z</time>
      </trkpt>
      <trkpt lat="43.8221" lon="5.30733">
        <ele>354</ele>
        <time>2014-05-20T09:52:35Z</time>
      </trkpt>
      <trkpt lat="43.8221" lon="5.30732">
        <ele>354</ele>
        <time>2014-05-20T09:52:37Z</time>
      </trkpt>
      <trkpt lat="43.82211" lon="5.3073">
        <ele>355</ele>
        <time>2014-05-20T09:52:43Z</time>
      </trkpt>
      <trkpt lat="43.82212" lon="5.30731">
        <ele>355</ele>
        <time>2014-05-20T09:52:46Z</time>
      </trkpt>
      <trkpt lat="43.8221" lon="5.30731">
        <ele>354</ele>
        <time>2014-05-20T09:52:50Z</time>
      </trkpt>
      <trkpt lat="43.8221" lon="5.30733">
        <ele>354</ele>
        <time>2014-05-20T09:52:54Z</time>
      </trkpt>
      <trkpt lat="43.82208" lon="5.30735">
        <ele>354</ele>
        <time>2014-05-20T09:52:58Z</time>
      </trkpt>
      <trkpt lat="43.82205" lon="5.30736">
        <ele>353</ele>
        <time>2014-05-20T09:53:06Z</time>
      </trkpt>
      <trkpt lat="43.82205" lon="5.30736">
        <ele>353</ele>
        <time>2014-05-20T09:53:08Z</time>
      </trkpt>
      <trkpt lat="43.82206" lon="5.30735">
        <ele>353</ele>
        <time>2014-05-20T09:53:12Z</time>
      </trkpt>
      <trkpt lat="43.82207" lon="5.30735">
        <ele>354</ele>
        <time>2014-05-20T09:53:19Z</time>
      </trkpt>
      <trkpt lat="43.82207" lon="5.30735">
        <ele>354</ele>
        <time>2014-05-20T09:53:21Z</time>
      </trkpt>
      <trkpt lat="43.82207" lon="5.30734">
        <ele>354</ele>
        <time>2014-05-20T09:53:22Z</time>
      </trkpt>
      <trkpt lat="43.82206" lon="5.30734">
        <ele>353</ele>
        <time>2014-05-20T09:53:23Z</time>
      </trkpt>
      <trkpt lat="43.82208" lon="5.30732">
        <ele>354</ele>
        <time>2014-05-20T09:53:28Z</time>
      </trkpt>
      <trkpt lat="43.82208" lon="5.30732">
        <ele>354</ele>
        <time>2014-05-20T09:53:30Z</time>
      </trkpt>
      <trkpt lat="43.8221" lon="5.30731">
        <ele>354</ele>
        <time>2014-05-20T09:53:33Z</time>
      </trkpt>
      <trkpt lat="43.8221" lon="5.3073">
        <ele>354</ele>
        <time>2014-05-20T09:53:35Z</time>
      </trkpt>
      <trkpt lat="43.8221" lon="5.3073">
        <ele>354</ele>
        <time>2014-05-20T09:53:38Z</time>
      </trkpt>
      <trkpt lat="43.82212" lon="5.30728">
        <ele>355</ele>
        <time>2014-05-20T09:53:44Z</time>
      </trkpt>
      <trkpt lat="43.82211" lon="5.30728">
        <ele>354</ele>
        <time>2014-05-20T09:53:47Z</time>
      </trkpt>
      <trkpt lat="43.82213" lon="5.30725">
        <ele>355</ele>
        <time>2014-05-20T09:53:52Z</time>
      </trkpt>
      <trkpt lat="43.82214" lon="5.30726">
        <ele>355</ele>
        <time>2014-05-20T09:53:54Z</time>
      </trkpt>
      <trkpt lat="43.82238" lon="5.30722">
        <ele>359</ele>
        <time>2014-05-20T09:54:19Z</time>
      </trkpt>
      <trkpt lat="43.82238" lon="5.30727">
        <ele>360</ele>
        <time>2014-05-20T09:54:25Z</time>
      </trkpt>
      <trkpt lat="43.82238" lon="5.30726">
        <ele>360</ele>
        <time>2014-05-20T09:54:29Z</time>
      </trkpt>
      <trkpt lat="43.82237" lon="5.30726">
        <ele>360</ele>
        <time>2014-05-20T09:54:33Z</time>
      </trkpt>
      <trkpt lat="43.82237" lon="5.30727">
        <ele>360</ele>
        <time>2014-05-20T09:54:35Z</time>
      </trkpt>
      <trkpt lat="43.82238" lon="5.3073">
        <ele>361</ele>
        <time>2014-05-20T09:54:38Z</time>
      </trkpt>
      <trkpt lat="43.82238" lon="5.30733">
        <ele>362</ele>
        <time>2014-05-20T09:54:41Z</time>
      </trkpt>
      <trkpt lat="43.82238" lon="5.30736">
        <ele>362</ele>
        <time>2014-05-20T09:54:44Z</time>
      </trkpt>
      <trkpt lat="43.82239" lon="5.30737">
        <ele>363</ele>
        <time>2014-05-20T09:54:46Z</time>
      </trkpt>
      <trkpt lat="43.82238" lon="5.30745">
        <ele>365</ele>
        <time>2014-05-20T09:54:53Z</time>
      </trkpt>
      <trkpt lat="43.82238" lon="5.30747">
        <ele>365</ele>
        <time>2014-05-20T09:54:55Z</time>
      </trkpt>
      <trkpt lat="43.8224" lon="5.30749">
        <ele>366</ele>
        <time>2014-05-20T09:54:57Z</time>
      </trkpt>
      <trkpt lat="43.82243" lon="5.3075">
        <ele>368</ele>
        <time>2014-05-20T09:54:59Z</time>
      </trkpt>
      <trkpt lat="43.82243" lon="5.3075">
        <ele>370</ele>
        <time>2014-05-20T09:55:00Z</time>
      </trkpt>
      <trkpt lat="43.82239" lon="5.3075">
        <ele>368</ele>
        <time>2014-05-20T09:55:02Z</time>
      </trkpt>
      <trkpt lat="43.82237" lon="5.30751">
        <ele>367</ele>
        <time>2014-05-20T09:55:04Z</time>
      </trkpt>
      <trkpt lat="43.82236" lon="5.30751">
        <ele>367</ele>
        <time>2014-05-20T09:55:05Z</time>
      </trkpt>
      <trkpt lat="43.82237" lon="5.30759">
        <ele>367</ele>
        <time>2014-05-20T09:55:14Z</time>
      </trkpt>
      <trkpt lat="43.82236" lon="5.30758">
        <ele>367</ele>
        <time>2014-05-20T09:55:17Z</time>
      </trkpt>
      <trkpt lat="43.82236" lon="5.30756">
        <ele>367</ele>
        <time>2014-05-20T09:55:19Z</time>
      </trkpt>
      <trkpt lat="43.82235" lon="5.30755">
        <ele>367</ele>
        <time>2014-05-20T09:55:20Z</time>
      </trkpt>
      <trkpt lat="43.82234" lon="5.30754">
        <ele>366</ele>
        <time>2014-05-20T09:55:21Z</time>
      </trkpt>
      <trkpt lat="43.82231" lon="5.30754">
        <ele>366</ele>
        <time>2014-05-20T09:55:25Z</time>
      </trkpt>
      <trkpt lat="43.82231" lon="5.30754">
        <ele>366</ele>
        <time>2014-05-20T09:55:26Z</time>
      </trkpt>
      <trkpt lat="43.82233" lon="5.30751">
        <ele>366</ele>
        <time>2014-05-20T09:55:31Z</time>
      </trkpt>
      <trkpt lat="43.82233" lon="5.30749">
        <ele>363</ele>
        <time>2014-05-20T09:55:37Z</time>
      </trkpt>
      <trkpt lat="43.82233" lon="5.30748">
        <ele>363</ele>
        <time>2014-05-20T09:55:40Z</time>
      </trkpt>
      <trkpt lat="43.82235" lon="5.30749">
        <ele>364</ele>
        <time>2014-05-20T09:55:43Z</time>
      </trkpt>
      <trkpt lat="43.82238" lon="5.30749">
        <ele>365</ele>
        <time>2014-05-20T09:55:49Z</time>
      </trkpt>
      <trkpt lat="43.82239" lon="5.30748">
        <ele>366</ele>
        <time>2014-05-20T09:55:51Z</time>
      </trkpt>
      <trkpt lat="43.82239" lon="5.30749">
        <ele>366</ele>
        <time>2014-05-20T09:55:52Z</time>
      </trkpt>
      <trkpt lat="43.8224" lon="5.30749">
        <ele>366</ele>
        <time>2014-05-20T09:56:04Z</time>
      </trkpt>
      <trkpt lat="43.82242" lon="5.30749">
        <ele>367</ele>
        <time>2014-05-20T09:56:08Z</time>
      </trkpt>
      <trkpt lat="43.82246" lon="5.30751">
        <ele>371</ele>
        <time>2014-05-20T09:56:14Z</time>
      </trkpt>
      <trkpt lat="43.8225" lon="5.30752">
        <ele>372</ele>
        <time>2014-05-20T09:56:21Z</time>
      </trkpt>
      <trkpt lat="43.82251" lon="5.30753">
        <ele>374</ele>
        <time>2014-05-20T09:56:24Z</time>
      </trkpt>
      <trkpt lat="43.82252" lon="5.30754">
        <ele>374</ele>
        <time>2014-05-20T09:56:30Z</time>
      </trkpt>
      <trkpt lat="43.82253" lon="5.30755">
        <ele>374</ele>
        <time>2014-05-20T09:56:35Z</time>
      </trkpt>
      <trkpt lat="43.82254" lon="5.30754">
        <ele>374</ele>
        <time>2014-05-20T09:56:38Z</time>
      </trkpt>
      <trkpt lat="43.82253" lon="5.30751">
        <ele>374</ele>
        <time>2014-05-20T09:56:42Z</time>
      </trkpt>
      <trkpt lat="43.82249" lon="5.30749">
        <ele>372</ele>
        <time>2014-05-20T09:56:47Z</time>
      </trkpt>
      <trkpt lat="43.82253" lon="5.30745">
        <ele>371</ele>
        <time>2014-05-20T09:56:53Z</time>
      </trkpt>
      <trkpt lat="43.82254" lon="5.30746">
        <ele>372</ele>
        <time>2014-05-20T09:56:56Z</time>
      </trkpt>
      <trkpt lat="43.82253" lon="5.30748">
        <ele>372</ele>
        <time>2014-05-20T09:56:58Z</time>
      </trkpt>
      <trkpt lat="43.8225" lon="5.30747">
        <ele>372</ele>
        <time>2014-05-20T09:57:01Z</time>
      </trkpt>
      <trkpt lat="43.82249" lon="5.30748">
        <ele>371</ele>
        <time>2014-05-20T09:57:04Z</time>
      </trkpt>
      <trkpt lat="43.82251" lon="5.30796">
        <ele>379</ele>
        <time>2014-05-20T09:57:25Z</time>
      </trkpt>
      <trkpt lat="43.82252" lon="5.30798">
        <ele>379</ele>
        <time>2014-05-20T09:57:29Z</time>
      </trkpt>
      <trkpt lat="43.82258" lon="5.30784">
        <ele>378</ele>
        <time>2014-05-20T09:57:37Z</time>
      </trkpt>
      <trkpt lat="43.82261" lon="5.30774">
        <ele>377</ele>
        <time>2014-05-20T09:57:43Z</time>
      </trkpt>
      <trkpt lat="43.82264" lon="5.30767">
        <ele>377</ele>
        <time>2014-05-20T09:57:48Z</time>
      </trkpt>
      <trkpt lat="43.82265" lon="5.30764">
        <ele>376</ele>
        <time>2014-05-20T09:57:51Z</time>
      </trkpt>
      <trkpt lat="43.82267" lon="5.30761">
        <ele>376</ele>
        <time>2014-05-20T09:57:53Z</time>
      </trkpt>
      <trkpt lat="43.82268" lon="5.30759">
        <ele>376</ele>
        <time>2014-05-20T09:57:55Z</time>
      </trkpt>
      <trkpt lat="43.82269" lon="5.30757">
        <ele>376</ele>
        <time>2014-05-20T09:58:00Z</time>
      </trkpt>
      <trkpt lat="43.82272" lon="5.3076">
        <ele>377</ele>
        <time>2014-05-20T09:58:09Z</time>
      </trkpt>
      <trkpt lat="43.8227" lon="5.30762">
        <ele>377</ele>
        <time>2014-05-20T09:58:11Z</time>
      </trkpt>
      <trkpt lat="43.82269" lon="5.30761">
        <ele>376</ele>
        <time>2014-05-20T09:58:13Z</time>
      </trkpt>
      <trkpt lat="43.8227" lon="5.30758">
        <ele>376</ele>
        <time>2014-05-20T09:58:16Z</time>
      </trkpt>
      <trkpt lat="43.82272" lon="5.30776">
        <ele>378</ele>
        <time>2014-05-20T09:58:34Z</time>
      </trkpt>
      <trkpt lat="43.82272" lon="5.30781">
        <ele>378</ele>
        <time>2014-05-20T09:58:36Z</time>
      </trkpt>
      <trkpt lat="43.82272" lon="5.30783">
        <ele>378</ele>
        <time>2014-05-20T09:58:37Z</time>
      </trkpt>
      <trkpt lat="43.82269" lon="5.3079">
        <ele>379</ele>
        <time>2014-05-20T09:58:40Z</time>
      </trkpt>
      <trkpt lat="43.82266" lon="5.30799">
        <ele>379</ele>
        <time>2014-05-20T09:58:45Z</time>
      </trkpt>
      <trkpt lat="43.82265" lon="5.30803">
        <ele>380</ele>
        <time>2014-05-20T09:58:47Z</time>
      </trkpt>
      <trkpt lat="43.82266" lon="5.30805">
        <ele>380</ele>
        <time>2014-05-20T09:58:48Z</time>
      </trkpt>
      <trkpt lat="43.82269" lon="5.30807">
        <ele>380</ele>
        <time>2014-05-20T09:58:52Z</time>
      </trkpt>
      <trkpt lat="43.82269" lon="5.30808">
        <ele>380</ele>
        <time>2014-05-20T09:58:54Z</time>
      </trkpt>
      <trkpt lat="43.82268" lon="5.30807">
        <ele>380</ele>
        <time>2014-05-20T09:58:58Z</time>
      </trkpt>
      <trkpt lat="43.82267" lon="5.30808">
        <ele>380</ele>
        <time>2014-05-20T09:59:00Z</time>
      </trkpt>
      <trkpt lat="43.82269" lon="5.30805">
        <ele>380</ele>
        <time>2014-05-20T09:59:04Z</time>
      </trkpt>
      <trkpt lat="43.82272" lon="5.30803">
        <ele>380</ele>
        <time>2014-05-20T09:59:12Z</time>
      </trkpt>
      <trkpt lat="43.82286" lon="5.30805">
        <ele>380</ele>
        <time>2014-05-20T09:59:47Z</time>
      </trkpt>
      <trkpt lat="43.82285" lon="5.30806">
        <ele>380</ele>
        <time>2014-05-20T09:59:51Z</time>
      </trkpt>
      <trkpt lat="43.82286" lon="5.30808">
        <ele>380</ele>
        <time>2014-05-20T09:59:54Z</time>
      </trkpt>
      <trkpt lat="43.82286" lon="5.30807">
        <ele>380</ele>
        <time>2014-05-20T09:59:56Z</time>
      </trkpt>
      <trkpt lat="43.82286" lon="5.30808">
        <ele>380</ele>
        <time>2014-05-20T09:59:57Z</time>
      </trkpt>
      <trkpt lat="43.82286" lon="5.3081">
        <ele>380</ele>
        <time>2014-05-20T09:59:59Z</time>
      </trkpt>
      <trkpt lat="43.82286" lon="5.30817">
        <ele>381</ele>
        <time>2014-05-20T10:00:08Z</time>
      </trkpt>
      <trkpt lat="43.82286" lon="5.30815">
        <ele>381</ele>
        <time>2014-05-20T10:00:16Z</time>
      </trkpt>
      <trkpt lat="43.82286" lon="5.30816">
        <ele>381</ele>
        <time>2014-05-20T10:00:22Z</time>
      </trkpt>
      <trkpt lat="43.82287" lon="5.30815">
        <ele>381</ele>
        <time>2014-05-20T10:00:23Z</time>
      </trkpt>
      <trkpt lat="43.82288" lon="5.30816">
        <ele>381</ele>
        <time>2014-05-20T10:00:26Z</time>
      </trkpt>
      <trkpt lat="43.82286" lon="5.30814">
        <ele>381</ele>
        <time>2014-05-20T10:00:29Z</time>
      </trkpt>
      <trkpt lat="43.82287" lon="5.30811">
        <ele>380</ele>
        <time>2014-05-20T10:00:32Z</time>
      </trkpt>
      <trkpt lat="43.823" lon="5.30804">
        <ele>380</ele>
        <time>2014-05-20T10:00:43Z</time>
      </trkpt>
      <trkpt lat="43.823" lon="5.30801">
        <ele>380</ele>
        <time>2014-05-20T10:00:47Z</time>
      </trkpt>
      <trkpt lat="43.823" lon="5.308">
        <ele>380</ele>
        <time>2014-05-20T10:00:51Z</time>
      </trkpt>
      <trkpt lat="43.82301" lon="5.308">
        <ele>380</ele>
        <time>2014-05-20T10:00:56Z</time>
      </trkpt>
      <trkpt lat="43.82305" lon="5.30804">
        <ele>381</ele>
        <time>2014-05-20T10:01:01Z</time>
      </trkpt>
      <trkpt lat="43.82307" lon="5.30806">
        <ele>381</ele>
        <time>2014-05-20T10:01:03Z</time>
      </trkpt>
      <trkpt lat="43.82308" lon="5.3081">
        <ele>381</ele>
        <time>2014-05-20T10:01:07Z</time>
      </trkpt>
      <trkpt lat="43.82309" lon="5.30811">
        <ele>381</ele>
        <time>2014-05-20T10:01:08Z</time>
      </trkpt>
      <trkpt lat="43.82309" lon="5.30813">
        <ele>382</ele>
        <time>2014-05-20T10:01:10Z</time>
      </trkpt>
      <trkpt lat="43.82311" lon="5.30815">
        <ele>382</ele>
        <time>2014-05-20T10:01:12Z</time>
      </trkpt>
      <trkpt lat="43.82314" lon="5.30816">
        <ele>382</ele>
        <time>2014-05-20T10:01:14Z</time>
      </trkpt>
      <trkpt lat="43.82317" lon="5.30821">
        <ele>383</ele>
        <time>2014-05-20T10:01:18Z</time>
      </trkpt>
      <trkpt lat="43.8232" lon="5.30823">
        <ele>384</ele>
        <time>2014-05-20T10:01:20Z</time>
      </trkpt>
      <trkpt lat="43.82322" lon="5.30827">
        <ele>384</ele>
        <time>2014-05-20T10:01:25Z</time>
      </trkpt>
      <trkpt lat="43.82326" lon="5.30829">
        <ele>385</ele>
        <time>2014-05-20T10:01:29Z</time>
      </trkpt>
      <trkpt lat="43.8233" lon="5.30836">
        <ele>388</ele>
        <time>2014-05-20T10:01:36Z</time>
      </trkpt>
      <trkpt lat="43.8233" lon="5.30838">
        <ele>388</ele>
        <time>2014-05-20T10:01:39Z</time>
      </trkpt>
      <trkpt lat="43.82332" lon="5.30842">
        <ele>389</ele>
        <time>2014-05-20T10:01:42Z</time>
      </trkpt>
      <trkpt lat="43.82333" lon="5.30847">
        <ele>389</ele>
        <time>2014-05-20T10:01:46Z</time>
      </trkpt>
      <trkpt lat="43.82336" lon="5.30853">
        <ele>385</ele>
        <time>2014-05-20T10:01:52Z</time>
      </trkpt>
      <trkpt lat="43.82339" lon="5.30854">
        <ele>384</ele>
        <time>2014-05-20T10:01:55Z</time>
      </trkpt>
      <trkpt lat="43.82343" lon="5.30856">
        <ele>384</ele>
        <time>2014-05-20T10:02:00Z</time>
      </trkpt>
      <trkpt lat="43.82346" lon="5.30853">
        <ele>384</ele>
        <time>2014-05-20T10:02:18Z</time>
      </trkpt>
      <trkpt lat="43.82345" lon="5.30853">
        <ele>384</ele>
        <time>2014-05-20T10:02:23Z</time>
      </trkpt>
      <trkpt lat="43.82346" lon="5.30852">
        <ele>384</ele>
        <time>2014-05-20T10:02:29Z</time>
      </trkpt>
      <trkpt lat="43.82346" lon="5.30853">
        <ele>384</ele>
        <time>2014-05-20T10:02:35Z</time>
      </trkpt>
      <trkpt lat="43.82346" lon="5.30852">
        <ele>384</ele>
        <time>2014-05-20T10:02:39Z</time>
      </trkpt>
      <trkpt lat="43.82345" lon="5.30853">
        <ele>384</ele>
        <time>2014-05-20T10:02:46Z</time>
      </trkpt>
      <trkpt lat="43.82344" lon="5.30853">
        <ele>384</ele>
        <time>2014-05-20T10:02:51Z</time>
      </trkpt>
      <trkpt lat="43.82344" lon="5.30854">
        <ele>384</ele>
        <time>2014-05-20T10:02:54Z</time>
      </trkpt>
      <trkpt lat="43.82345" lon="5.30854">
        <ele>384</ele>
        <time>2014-05-20T10:03:02Z</time>
      </trkpt>
      <trkpt lat="43.82344" lon="5.30853">
        <ele>384</ele>
        <time>2014-05-20T10:03:08Z</time>
      </trkpt>
      <trkpt lat="43.82345" lon="5.30852">
        <ele>384</ele>
        <time>2014-05-20T10:03:15Z</time>
      </trkpt>
      <trkpt lat="43.82345" lon="5.30851">
        <ele>384</ele>
        <time>2014-05-20T10:03:17Z</time>
      </trkpt>
      <trkpt lat="43.82345" lon="5.3085">
        <ele>384</ele>
        <time>2014-05-20T10:03:23Z</time>
      </trkpt>
      <trkpt lat="43.82345" lon="5.30853">
        <ele>384</ele>
        <time>2014-05-20T10:03:48Z</time>
      </trkpt>
      <trkpt lat="43.82345" lon="5.30852">
        <ele>384</ele>
        <time>2014-05-20T10:04:02Z</time>
      </trkpt>
      <trkpt lat="43.82345" lon="5.30851">
        <ele>384</ele>
        <time>2014-05-20T10:04:06Z</time>
      </trkpt>
      <trkpt lat="43.82346" lon="5.30852">
        <ele>384</ele>
        <time>2014-05-20T10:04:16Z</time>
      </trkpt>
      <trkpt lat="43.82345" lon="5.30851">
        <ele>384</ele>
        <time>2014-05-20T10:04:22Z</time>
      </trkpt>
      <trkpt lat="43.82345" lon="5.30851">
        <ele>384</ele>
        <time>2014-05-20T10:04:29Z</time>
      </trkpt>
      <trkpt lat="43.82343" lon="5.30853">
        <ele>384</ele>
        <time>2014-05-20T10:04:38Z</time>
      </trkpt>
      <trkpt lat="43.82342" lon="5.30853">
        <ele>384</ele>
        <time>2014-05-20T10:04:43Z</time>
      </trkpt>
      <trkpt lat="43.82341" lon="5.30853">
        <ele>384</ele>
        <time>2014-05-20T10:04:47Z</time>
      </trkpt>
      <trkpt lat="43.82341" lon="5.30854">
        <ele>384</ele>
        <time>2014-05-20T10:04:48Z</time>
      </trkpt>
      <trkpt lat="43.82338" lon="5.30855">
        <ele>384</ele>
        <time>2014-05-20T10:04:53Z</time>
      </trkpt>
      <trkpt lat="43.82337" lon="5.30855">
        <ele>384</ele>
        <time>2014-05-20T10:04:59Z</time>
      </trkpt>
      <trkpt lat="43.82335" lon="5.30854">
        <ele>385</ele>
        <time>2014-05-20T10:05:04Z</time>
      </trkpt>
      <trkpt lat="43.82334" lon="5.30851">
        <ele>385</ele>
        <time>2014-05-20T10:05:07Z</time>
      </trkpt>
      <trkpt lat="43.82332" lon="5.3085">
        <ele>389</ele>
        <time>2014-05-20T10:05:09Z</time>
      </trkpt>
      <trkpt lat="43.8233" lon="5.30849">
        <ele>389</ele>
        <time>2014-05-20T10:05:13Z</time>
      </trkpt>
      <trkpt lat="43.82328" lon="5.30846">
        <ele>389</ele>
        <time>2014-05-20T10:05:16Z</time>
      </trkpt>
      <trkpt lat="43.82327" lon="5.30846">
        <ele>389</ele>
        <time>2014-05-20T10:05:17Z</time>
      </trkpt>
      <trkpt lat="43.82326" lon="5.30847">
        <ele>389</ele>
        <time>2014-05-20T10:05:19Z</time>
      </trkpt>
      <trkpt lat="43.82326" lon="5.30848">
        <ele>389</ele>
        <time>2014-05-20T10:05:22Z</time>
      </trkpt>
      <trkpt lat="43.82324" lon="5.30848">
        <ele>389</ele>
        <time>2014-05-20T10:05:24Z</time>
      </trkpt>
      <trkpt lat="43.82322" lon="5.30848">
        <ele>389</ele>
        <time>2014-05-20T10:05:29Z</time>
      </trkpt>
      <trkpt lat="43.82322" lon="5.30849">
        <ele>389</ele>
        <time>2014-05-20T10:05:31Z</time>
      </trkpt>
      <trkpt lat="43.82321" lon="5.30849">
        <ele>389</ele>
        <time>2014-05-20T10:05:34Z</time>
      </trkpt>
      <trkpt lat="43.8232" lon="5.30849">
        <ele>389</ele>
        <time>2014-05-20T10:05:35Z</time>
      </trkpt>
      <trkpt lat="43.82319" lon="5.30849">
        <ele>389</ele>
        <time>2014-05-20T10:05:38Z</time>
      </trkpt>
      <trkpt lat="43.82319" lon="5.30848">
        <ele>389</ele>
        <time>2014-05-20T10:05:39Z</time>
      </trkpt>
      <trkpt lat="43.82318" lon="5.30845">
        <ele>389</ele>
        <time>2014-05-20T10:05:42Z</time>
      </trkpt>
      <trkpt lat="43.82317" lon="5.30847">
        <ele>389</ele>
        <time>2014-05-20T10:05:45Z</time>
      </trkpt>
      <trkpt lat="43.82316" lon="5.30847">
        <ele>389</ele>
        <time>2014-05-20T10:05:47Z</time>
      </trkpt>
      <trkpt lat="43.82313" lon="5.30852">
        <ele>389</ele>
        <time>2014-05-20T10:05:59Z</time>
      </trkpt>
      <trkpt lat="43.82306" lon="5.30858">
        <ele>389</ele>
        <time>2014-05-20T10:06:10Z</time>
      </trkpt>
      <trkpt lat="43.82304" lon="5.30859">
        <ele>389</ele>
        <time>2014-05-20T10:06:13Z</time>
      </trkpt>
      <trkpt lat="43.82304" lon="5.30859">
        <ele>389</ele>
        <time>2014-05-20T10:06:15Z</time>
      </trkpt>
      <trkpt lat="43.82303" lon="5.30859">
        <ele>389</ele>
        <time>2014-05-20T10:06:18Z</time>
      </trkpt>
      <trkpt lat="43.82305" lon="5.30858">
        <ele>389</ele>
        <time>2014-05-20T10:06:21Z</time>
      </trkpt>
      <trkpt lat="43.82309" lon="5.30855">
        <ele>389</ele>
        <time>2014-05-20T10:06:29Z</time>
      </trkpt>
      <trkpt lat="43.82308" lon="5.30855">
        <ele>389</ele>
        <time>2014-05-20T10:06:32Z</time>
      </trkpt>
      <trkpt lat="43.82311" lon="5.30855">
        <ele>389</ele>
        <time>2014-05-20T10:06:39Z</time>
      </trkpt>
      <trkpt lat="43.82311" lon="5.30856">
        <ele>389</ele>
        <time>2014-05-20T10:06:40Z</time>
      </trkpt>
      <trkpt lat="43.82311" lon="5.30856">
        <ele>389</ele>
        <time>2014-05-20T10:06:43Z</time>
      </trkpt>
      <trkpt lat="43.82311" lon="5.30857">
        <ele>389</ele>
        <time>2014-05-20T10:06:45Z</time>
      </trkpt>
      <trkpt lat="43.82311" lon="5.30857">
        <ele>389</ele>
        <time>2014-05-20T10:06:47Z</time>
      </trkpt>
      <trkpt lat="43.82312" lon="5.30856">
        <ele>389</ele>
        <time>2014-05-20T10:06:51Z</time>
      </trkpt>
      <trkpt lat="43.82314" lon="5.30855">
        <ele>389</ele>
        <time>2014-05-20T10:06:55Z</time>
      </trkpt>
      <trkpt lat="43.82314" lon="5.30854">
        <ele>389</ele>
        <time>2014-05-20T10:06:58Z</time>
      </trkpt>
      <trkpt lat="43.82313" lon="5.30855">
        <ele>389</ele>
        <time>2014-05-20T10:07:13Z</time>
      </trkpt>
      <trkpt lat="43.82312" lon="5.30854">
        <ele>389</ele>
        <time>2014-05-20T10:07:18Z</time>
      </trkpt>
      <trkpt lat="43.82312" lon="5.30852">
        <ele>389</ele>
        <time>2014-05-20T10:07:26Z</time>
      </trkpt>
      <trkpt lat="43.82312" lon="5.30853">
        <ele>389</ele>
        <time>2014-05-20T10:07:35Z</time>
      </trkpt>
      <trkpt lat="43.82311" lon="5.30853">
        <ele>389</ele>
        <time>2014-05-20T10:07:37Z</time>
      </trkpt>
      <trkpt lat="43.82312" lon="5.30853">
        <ele>389</ele>
        <time>2014-05-20T10:07:45Z</time>
      </trkpt>
      <trkpt lat="43.82313" lon="5.30853">
        <ele>389</ele>
        <time>2014-05-20T10:07:49Z</time>
      </trkpt>
      <trkpt lat="43.82313" lon="5.30854">
        <ele>389</ele>
        <time>2014-05-20T10:07:51Z</time>
      </trkpt>
      <trkpt lat="43.82316" lon="5.30855">
        <ele>389</ele>
        <time>2014-05-20T10:07:54Z</time>
      </trkpt>
      <trkpt lat="43.82318" lon="5.30856">
        <ele>389</ele>
        <time>2014-05-20T10:07:58Z</time>
      </trkpt>
      <trkpt lat="43.82318" lon="5.30856">
        <ele>389</ele>
        <time>2014-05-20T10:08:00Z</time>
      </trkpt>
      <trkpt lat="43.82318" lon="5.30856">
        <ele>389</ele>
        <time>2014-05-20T10:08:06Z</time>
      </trkpt>
      <trkpt lat="43.82317" lon="5.30856">
        <ele>389</ele>
        <time>2014-05-20T10:08:09Z</time>
      </trkpt>
      <trkpt lat="43.82316" lon="5.30856">
        <ele>389</ele>
        <time>2014-05-20T10:08:12Z</time>
      </trkpt>
      <trkpt lat="43.82317" lon="5.30856">
        <ele>389</ele>
        <time>2014-05-20T10:08:17Z</time>
      </trkpt>
      <trkpt lat="43.82316" lon="5.30856">
        <ele>389</ele>
        <time>2014-05-20T10:08:19Z</time>
      </trkpt>
      <trkpt lat="43.82318" lon="5.30865">
        <ele>390</ele>
        <time>2014-05-20T10:08:40Z</time>
      </trkpt>
      <trkpt lat="43.82319" lon="5.30864">
        <ele>390</ele>
        <time>2014-05-20T10:08:41Z</time>
      </trkpt>
      <trkpt lat="43.82319" lon="5.30865">
        <ele>390</ele>
        <time>2014-05-20T10:08:49Z</time>
      </trkpt>
      <trkpt lat="43.82319" lon="5.30865">
        <ele>390</ele>
        <time>2014-05-20T10:08:50Z</time>
      </trkpt>
      <trkpt lat="43.82318" lon="5.30865">
        <ele>390</ele>
        <time>2014-05-20T10:08:56Z</time>
      </trkpt>
      <trkpt lat="43.82318" lon="5.30864">
        <ele>390</ele>
        <time>2014-05-20T10:08:57Z</time>
      </trkpt>
      <trkpt lat="43.82318" lon="5.30865">
        <ele>390</ele>
        <time>2014-05-20T10:09:00Z</time>
      </trkpt>
      <trkpt lat="43.82318" lon="5.30866">
        <ele>390</ele>
        <time>2014-05-20T10:09:02Z</time>
      </trkpt>
      <trkpt lat="43.82322" lon="5.30872">
        <ele>391</ele>
        <time>2014-05-20T10:09:10Z</time>
      </trkpt>
      <trkpt lat="43.82324" lon="5.30873">
        <ele>391</ele>
        <time>2014-05-20T10:09:12Z</time>
      </trkpt>
      <trkpt lat="43.82325" lon="5.30874">
        <ele>391</ele>
        <time>2014-05-20T10:09:13Z</time>
      </trkpt>
      <trkpt lat="43.82326" lon="5.30877">
        <ele>391</ele>
        <time>2014-05-20T10:09:17Z</time>
      </trkpt>
      <trkpt lat="43.82325" lon="5.3088">
        <ele>392</ele>
        <time>2014-05-20T10:09:19Z</time>
      </trkpt>
      <trkpt lat="43.82326" lon="5.30883">
        <ele>392</ele>
        <time>2014-05-20T10:09:23Z</time>
      </trkpt>
      <trkpt lat="43.82329" lon="5.30886">
        <ele>393</ele>
        <time>2014-05-20T10:09:28Z</time>
      </trkpt>
      <trkpt lat="43.82328" lon="5.30889">
        <ele>393</ele>
        <time>2014-05-20T10:09:31Z</time>
      </trkpt>
      <trkpt lat="43.82328" lon="5.30889">
        <ele>393</ele>
        <time>2014-05-20T10:09:33Z</time>
      </trkpt>
      <trkpt lat="43.8233" lon="5.30891">
        <ele>393</ele>
        <time>2014-05-20T10:09:40Z</time>
      </trkpt>
      <trkpt lat="43.82329" lon="5.30891">
        <ele>393</ele>
        <time>2014-05-20T10:09:42Z</time>
      </trkpt>
      <trkpt lat="43.8233" lon="5.30893">
        <ele>394</ele>
        <time>2014-05-20T10:09:45Z</time>
      </trkpt>
      <trkpt lat="43.82329" lon="5.30895">
        <ele>394</ele>
        <time>2014-05-20T10:09:47Z</time>
      </trkpt>
      <trkpt lat="43.82326" lon="5.30896">
        <ele>394</ele>
        <time>2014-05-20T10:09:50Z</time>
      </trkpt>
      <trkpt lat="43.82324" lon="5.30897">
        <ele>394</ele>
        <time>2014-05-20T10:09:51Z</time>
      </trkpt>
      <trkpt lat="43.82323" lon="5.30898">
        <ele>394</ele>
        <time>2014-05-20T10:09:52Z</time>
      </trkpt>
      <trkpt lat="43.82321" lon="5.309">
        <ele>394</ele>
        <time>2014-05-20T10:09:54Z</time>
      </trkpt>
      <trkpt lat="43.82319" lon="5.30903">
        <ele>394</ele>
        <time>2014-05-20T10:09:56Z</time>
      </trkpt>
      <trkpt lat="43.82321" lon="5.30913">
        <ele>396</ele>
        <time>2014-05-20T10:10:05Z</time>
      </trkpt>
      <trkpt lat="43.82323" lon="5.30915">
        <ele>397</ele>
        <time>2014-05-20T10:10:07Z</time>
      </trkpt>
      <trkpt lat="43.82323" lon="5.30917">
        <ele>398</ele>
        <time>2014-05-20T10:10:09Z</time>
      </trkpt>
      <trkpt lat="43.82322" lon="5.30918">
        <ele>398</ele>
        <time>2014-05-20T10:10:11Z</time>
      </trkpt>
      <trkpt lat="43.82322" lon="5.30917">
        <ele>398</ele>
        <time>2014-05-20T10:10:14Z</time>
      </trkpt>
      <trkpt lat="43.82323" lon="5.3092">
        <ele>398</ele>
        <time>2014-05-20T10:10:17Z</time>
      </trkpt>
      <trkpt lat="43.82323" lon="5.30925">
        <ele>398</ele>
        <time>2014-05-20T10:10:20Z</time>
      </trkpt>
      <trkpt lat="43.82324" lon="5.30929">
        <ele>398</ele>
        <time>2014-05-20T10:10:22Z</time>
      </trkpt>
      <trkpt lat="43.82325" lon="5.30933">
        <ele>397</ele>
        <time>2014-05-20T10:10:24Z</time>
      </trkpt>
      <trkpt lat="43.8233" lon="5.30939">
        <ele>397</ele>
        <time>2014-05-20T10:10:29Z</time>
      </trkpt>
      <trkpt lat="43.8233" lon="5.30942">
        <ele>397</ele>
        <time>2014-05-20T10:10:31Z</time>
      </trkpt>
      <trkpt lat="43.82331" lon="5.30944">
        <ele>397</ele>
        <time>2014-05-20T10:10:33Z</time>
      </trkpt>
      <trkpt lat="43.8233" lon="5.3095">
        <ele>397</ele>
        <time>2014-05-20T10:10:37Z</time>
      </trkpt>
      <trkpt lat="43.82331" lon="5.30953">
        <ele>397</ele>
        <time>2014-05-20T10:10:39Z</time>
      </trkpt>
      <trkpt lat="43.82331" lon="5.30961">
        <ele>397</ele>
        <time>2014-05-20T10:10:46Z</time>
      </trkpt>
      <trkpt lat="43.8233" lon="5.30967">
        <ele>398</ele>
        <time>2014-05-20T10:10:51Z</time>
      </trkpt>
      <trkpt lat="43.8233" lon="5.3097">
        <ele>398</ele>
        <time>2014-05-20T10:10:53Z</time>
      </trkpt>
      <trkpt lat="43.8233" lon="5.30971">
        <ele>398</ele>
        <time>2014-05-20T10:10:54Z</time>
      </trkpt>
      <trkpt lat="43.8233" lon="5.30974">
        <ele>398</ele>
        <time>2014-05-20T10:10:57Z</time>
      </trkpt>
      <trkpt lat="43.8233" lon="5.30979">
        <ele>399</ele>
        <time>2014-05-20T10:11:00Z</time>
      </trkpt>
      <trkpt lat="43.82329" lon="5.30982">
        <ele>400</ele>
        <time>2014-05-20T10:11:02Z</time>
      </trkpt>
      <trkpt lat="43.82331" lon="5.30987">
        <ele>401</ele>
        <time>2014-05-20T10:11:06Z</time>
      </trkpt>
      <trkpt lat="43.82333" lon="5.3099">
        <ele>402</ele>
        <time>2014-05-20T10:11:09Z</time>
      </trkpt>
      <trkpt lat="43.82334" lon="5.30998">
        <ele>404</ele>
        <time>2014-05-20T10:11:14Z</time>
      </trkpt>
      <trkpt lat="43.82335" lon="5.31002">
        <ele>405</ele>
        <time>2014-05-20T10:11:17Z</time>
      </trkpt>
      <trkpt lat="43.82337" lon="5.31006">
        <ele>404</ele>
        <time>2014-05-20T10:11:20Z</time>
      </trkpt>
      <trkpt lat="43.82343" lon="5.31021">
        <ele>401</ele>
        <time>2014-05-20T10:11:29Z</time>
      </trkpt>
      <trkpt lat="43.82344" lon="5.31023">
        <ele>401</ele>
        <time>2014-05-20T10:11:30Z</time>
      </trkpt>
      <trkpt lat="43.82345" lon="5.31028">
        <ele>401</ele>
        <time>2014-05-20T10:11:33Z</time>
      </trkpt>
      <trkpt lat="43.82346" lon="5.31029">
        <ele>400</ele>
        <time>2014-05-20T10:11:35Z</time>
      </trkpt>
      <trkpt lat="43.82345" lon="5.31036">
        <ele>400</ele>
        <time>2014-05-20T10:11:40Z</time>
      </trkpt>
      <trkpt lat="43.82343" lon="5.31043">
        <ele>400</ele>
        <time>2014-05-20T10:11:45Z</time>
      </trkpt>
      <trkpt lat="43.82344" lon="5.31052">
        <ele>401</ele>
        <time>2014-05-20T10:11:50Z</time>
      </trkpt>
      <trkpt lat="43.82334" lon="5.31067">
        <ele>402</ele>
        <time>2014-05-20T10:11:58Z</time>
      </trkpt>
      <trkpt lat="43.82331" lon="5.31084">
        <ele>404</ele>
        <time>2014-05-20T10:12:08Z</time>
      </trkpt>
      <trkpt lat="43.82332" lon="5.31088">
        <ele>403</ele>
        <time>2014-05-20T10:12:11Z</time>
      </trkpt>
      <trkpt lat="43.82334" lon="5.31097">
        <ele>404</ele>
        <time>2014-05-20T10:12:17Z</time>
      </trkpt>
      <trkpt lat="43.82335" lon="5.31099">
        <ele>404</ele>
        <time>2014-05-20T10:12:19Z</time>
      </trkpt>
      <trkpt lat="43.82336" lon="5.31104">
        <ele>403</ele>
        <time>2014-05-20T10:12:22Z</time>
      </trkpt>
      <trkpt lat="43.82339" lon="5.31113">
        <ele>403</ele>
        <time>2014-05-20T10:12:28Z</time>
      </trkpt>
      <trkpt lat="43.82343" lon="5.31134">
        <ele>402</ele>
        <time>2014-05-20T10:12:40Z</time>
      </trkpt>
      <trkpt lat="43.82344" lon="5.31141">
        <ele>401</ele>
        <time>2014-05-20T10:12:44Z</time>
      </trkpt>
      <trkpt lat="43.82345" lon="5.3115">
        <ele>401</ele>
        <time>2014-05-20T10:12:49Z</time>
      </trkpt>
      <trkpt lat="43.82349" lon="5.31182">
        <ele>403</ele>
        <time>2014-05-20T10:13:07Z</time>
      </trkpt>
      <trkpt lat="43.82351" lon="5.31212">
        <ele>404</ele>
        <time>2014-05-20T10:13:24Z</time>
      </trkpt>
      <trkpt lat="43.82351" lon="5.3123">
        <ele>403</ele>
        <time>2014-05-20T10:13:34Z</time>
      </trkpt>
      <trkpt lat="43.82351" lon="5.31232">
        <ele>403</ele>
        <time>2014-05-20T10:13:35Z</time>
      </trkpt>
      <trkpt lat="43.8235" lon="5.31234">
        <ele>403</ele>
        <time>2014-05-20T10:13:42Z</time>
      </trkpt>
      <trkpt lat="43.82348" lon="5.31254">
        <ele>404</ele>
        <time>2014-05-20T10:13:54Z</time>
      </trkpt>
      <trkpt lat="43.82347" lon="5.31259">
        <ele>404</ele>
        <time>2014-05-20T10:13:57Z</time>
      </trkpt>
      <trkpt lat="43.82347" lon="5.31262">
        <ele>404</ele>
        <time>2014-05-20T10:13:59Z</time>
      </trkpt>
      <trkpt lat="43.82345" lon="5.31273">
        <ele>406</ele>
        <time>2014-05-20T10:14:06Z</time>
      </trkpt>
      <trkpt lat="43.82341" lon="5.31287">
        <ele>407</ele>
        <time>2014-05-20T10:14:15Z</time>
      </trkpt>
      <trkpt lat="43.82337" lon="5.31305">
        <ele>407</ele>
        <time>2014-05-20T10:14:25Z</time>
      </trkpt>
      <trkpt lat="43.82334" lon="5.31313">
        <ele>406</ele>
        <time>2014-05-20T10:14:30Z</time>
      </trkpt>
      <trkpt lat="43.82332" lon="5.31325">
        <ele>398</ele>
        <time>2014-05-20T10:14:37Z</time>
      </trkpt>
      <trkpt lat="43.8233" lon="5.31342">
        <ele>400</ele>
        <time>2014-05-20T10:14:47Z</time>
      </trkpt>
      <trkpt lat="43.8233" lon="5.31359">
        <ele>399</ele>
        <time>2014-05-20T10:14:58Z</time>
      </trkpt>
      <trkpt lat="43.8233" lon="5.31363">
        <ele>399</ele>
        <time>2014-05-20T10:15:01Z</time>
      </trkpt>
      <trkpt lat="43.82328" lon="5.31367">
        <ele>399</ele>
        <time>2014-05-20T10:15:04Z</time>
      </trkpt>
      <trkpt lat="43.82328" lon="5.31375">
        <ele>399</ele>
        <time>2014-05-20T10:15:09Z</time>
      </trkpt>
      <trkpt lat="43.82327" lon="5.31383">
        <ele>400</ele>
        <time>2014-05-20T10:15:13Z</time>
      </trkpt>
      <trkpt lat="43.82324" lon="5.31407">
        <ele>404</ele>
        <time>2014-05-20T10:15:27Z</time>
      </trkpt>
      <trkpt lat="43.82324" lon="5.31423">
        <ele>408</ele>
        <time>2014-05-20T10:15:38Z</time>
      </trkpt>
      <trkpt lat="43.82324" lon="5.31436">
        <ele>406</ele>
        <time>2014-05-20T10:15:46Z</time>
      </trkpt>
      <trkpt lat="43.82325" lon="5.31444">
        <ele>406</ele>
        <time>2014-05-20T10:15:51Z</time>
      </trkpt>
      <trkpt lat="43.82326" lon="5.31447">
        <ele>406</ele>
        <time>2014-05-20T10:15:53Z</time>
      </trkpt>
      <trkpt lat="43.82327" lon="5.31449">
        <ele>406</ele>
        <time>2014-05-20T10:15:54Z</time>
      </trkpt>
      <trkpt lat="43.82327" lon="5.3145">
        <ele>406</ele>
        <time>2014-05-20T10:15:55Z</time>
      </trkpt>
      <trkpt lat="43.82325" lon="5.31459">
        <ele>406</ele>
        <time>2014-05-20T10:16:00Z</time>
      </trkpt>
      <trkpt lat="43.82326" lon="5.31476">
        <ele>408</ele>
        <time>2014-05-20T10:16:10Z</time>
      </trkpt>
      <trkpt lat="43.82327" lon="5.31491">
        <ele>410</ele>
        <time>2014-05-20T10:16:20Z</time>
      </trkpt>
      <trkpt lat="43.82329" lon="5.31494">
        <ele>411</ele>
        <time>2014-05-20T10:16:22Z</time>
      </trkpt>
      <trkpt lat="43.8233" lon="5.31497">
        <ele>412</ele>
        <time>2014-05-20T10:16:24Z</time>
      </trkpt>
      <trkpt lat="43.82328" lon="5.31502">
        <ele>413</ele>
        <time>2014-05-20T10:16:27Z</time>
      </trkpt>
      <trkpt lat="43.82329" lon="5.31512">
        <ele>413</ele>
        <time>2014-05-20T10:16:33Z</time>
      </trkpt>
      <trkpt lat="43.82328" lon="5.31516">
        <ele>412</ele>
        <time>2014-05-20T10:16:35Z</time>
      </trkpt>
      <trkpt lat="43.82329" lon="5.31525">
        <ele>412</ele>
        <time>2014-05-20T10:16:41Z</time>
      </trkpt>
      <trkpt lat="43.82328" lon="5.31529">
        <ele>412</ele>
        <time>2014-05-20T10:16:43Z</time>
      </trkpt>
      <trkpt lat="43.8233" lon="5.31549">
        <ele>413</ele>
        <time>2014-05-20T10:16:57Z</time>
      </trkpt>
      <trkpt lat="43.82329" lon="5.31562">
        <ele>414</ele>
        <time>2014-05-20T10:17:05Z</time>
      </trkpt>
      <trkpt lat="43.82328" lon="5.31566">
        <ele>415</ele>
        <time>2014-05-20T10:17:08Z</time>
      </trkpt>
      <trkpt lat="43.82326" lon="5.31569">
        <ele>415</ele>
        <time>2014-05-20T10:17:10Z</time>
      </trkpt>
      <trkpt lat="43.82325" lon="5.31574">
        <ele>416</ele>
        <time>2014-05-20T10:17:13Z</time>
      </trkpt>
      <trkpt lat="43.82325" lon="5.3158">
        <ele>416</ele>
        <time>2014-05-20T10:17:17Z</time>
      </trkpt>
      <trkpt lat="43.82316" lon="5.31605">
        <ele>419</ele>
        <time>2014-05-20T10:17:35Z</time>
      </trkpt>
      <trkpt lat="43.82314" lon="5.31612">
        <ele>420</ele>
        <time>2014-05-20T10:17:40Z</time>
      </trkpt>
      <trkpt lat="43.82308" lon="5.31622">
        <ele>420</ele>
        <time>2014-05-20T10:17:47Z</time>
      </trkpt>
      <trkpt lat="43.823" lon="5.31633">
        <ele>421</ele>
        <time>2014-05-20T10:17:56Z</time>
      </trkpt>
      <trkpt lat="43.82284" lon="5.31648">
        <ele>420</ele>
        <time>2014-05-20T10:18:13Z</time>
      </trkpt>
      <trkpt lat="43.82282" lon="5.31648">
        <ele>420</ele>
        <time>2014-05-20T10:18:16Z</time>
      </trkpt>
      <trkpt lat="43.82276" lon="5.31655">
        <ele>420</ele>
        <time>2014-05-20T10:18:25Z</time>
      </trkpt>
      <trkpt lat="43.82272" lon="5.31659">
        <ele>420</ele>
        <time>2014-05-20T10:18:30Z</time>
      </trkpt>
      <trkpt lat="43.82267" lon="5.31665">
        <ele>421</ele>
        <time>2014-05-20T10:18:38Z</time>
      </trkpt>
      <trkpt lat="43.82265" lon="5.31669">
        <ele>425</ele>
        <time>2014-05-20T10:18:42Z</time>
      </trkpt>
      <trkpt lat="43.82256" lon="5.31679">
        <ele>424</ele>
        <time>2014-05-20T10:18:55Z</time>
      </trkpt>
      <trkpt lat="43.82255" lon="5.31681">
        <ele>425</ele>
        <time>2014-05-20T10:18:58Z</time>
      </trkpt>
      <trkpt lat="43.82253" lon="5.31686">
        <ele>425</ele>
        <time>2014-05-20T10:19:03Z</time>
      </trkpt>
      <trkpt lat="43.82251" lon="5.31695">
        <ele>427</ele>
        <time>2014-05-20T10:19:10Z</time>
      </trkpt>
      <trkpt lat="43.82253" lon="5.31702">
        <ele>427</ele>
        <time>2014-05-20T10:19:16Z</time>
      </trkpt>
      <trkpt lat="43.82253" lon="5.31708">
        <ele>428</ele>
        <time>2014-05-20T10:19:20Z</time>
      </trkpt>
      <trkpt lat="43.82253" lon="5.31711">
        <ele>428</ele>
        <time>2014-05-20T10:19:23Z</time>
      </trkpt>
      <trkpt lat="43.82252" lon="5.31715">
        <ele>428</ele>
        <time>2014-05-20T10:19:26Z</time>
      </trkpt>
      <trkpt lat="43.82252" lon="5.31725">
        <ele>429</ele>
        <time>2014-05-20T10:19:35Z</time>
      </trkpt>
      <trkpt lat="43.82253" lon="5.31735">
        <ele>429</ele>
        <time>2014-05-20T10:19:44Z</time>
      </trkpt>
      <trkpt lat="43.82253" lon="5.31741">
        <ele>430</ele>
        <time>2014-05-20T10:19:48Z</time>
      </trkpt>
      <trkpt lat="43.8225" lon="5.31747">
        <ele>430</ele>
        <time>2014-05-20T10:19:52Z</time>
      </trkpt>
      <trkpt lat="43.82251" lon="5.31753">
        <ele>431</ele>
        <time>2014-05-20T10:19:58Z</time>
      </trkpt>
      <trkpt lat="43.8225" lon="5.31754">
        <ele>430</ele>
        <time>2014-05-20T10:20:00Z</time>
      </trkpt>
      <trkpt lat="43.82251" lon="5.31755">
        <ele>431</ele>
        <time>2014-05-20T10:20:04Z</time>
      </trkpt>
      <trkpt lat="43.82251" lon="5.31755">
        <ele>431</ele>
        <time>2014-05-20T10:20:05Z</time>
      </trkpt>
      <trkpt lat="43.82252" lon="5.31757">
        <ele>431</ele>
        <time>2014-05-20T10:20:11Z</time>
      </trkpt>
      <trkpt lat="43.82254" lon="5.31757">
        <ele>431</ele>
        <time>2014-05-20T10:20:13Z</time>
      </trkpt>
      <trkpt lat="43.82252" lon="5.31756">
        <ele>431</ele>
        <time>2014-05-20T10:20:15Z</time>
      </trkpt>
      <trkpt lat="43.82253" lon="5.31758">
        <ele>432</ele>
        <time>2014-05-20T10:20:19Z</time>
      </trkpt>
      <trkpt lat="43.82254" lon="5.3176">
        <ele>432</ele>
        <time>2014-05-20T10:20:21Z</time>
      </trkpt>
      <trkpt lat="43.82255" lon="5.3176">
        <ele>432</ele>
        <time>2014-05-20T10:20:25Z</time>
      </trkpt>
      <trkpt lat="43.82257" lon="5.31765">
        <ele>432</ele>
        <time>2014-05-20T10:20:30Z</time>
      </trkpt>
      <trkpt lat="43.82256" lon="5.31782">
        <ele>434</ele>
        <time>2014-05-20T10:20:42Z</time>
      </trkpt>
      <trkpt lat="43.82256" lon="5.31794">
        <ele>434</ele>
        <time>2014-05-20T10:20:50Z</time>
      </trkpt>
      <trkpt lat="43.82255" lon="5.318">
        <ele>434</ele>
        <time>2014-05-20T10:20:54Z</time>
      </trkpt>
      <trkpt lat="43.82254" lon="5.31804">
        <ele>435</ele>
        <time>2014-05-20T10:20:57Z</time>
      </trkpt>
      <trkpt lat="43.82254" lon="5.31818">
        <ele>435</ele>
        <time>2014-05-20T10:21:06Z</time>
      </trkpt>
      <trkpt lat="43.82255" lon="5.31825">
        <ele>435</ele>
        <time>2014-05-20T10:21:11Z</time>
      </trkpt>
      <trkpt lat="43.82255" lon="5.31828">
        <ele>435</ele>
        <time>2014-05-20T10:21:13Z</time>
      </trkpt>
      <trkpt lat="43.82256" lon="5.31834">
        <ele>435</ele>
        <time>2014-05-20T10:21:17Z</time>
      </trkpt>
      <trkpt lat="43.82257" lon="5.31838">
        <ele>436</ele>
        <time>2014-05-20T10:21:20Z</time>
      </trkpt>
      <trkpt lat="43.82257" lon="5.31842">
        <ele>436</ele>
        <time>2014-05-20T10:21:22Z</time>
      </trkpt>
      <trkpt lat="43.8226" lon="5.31848">
        <ele>436</ele>
        <time>2014-05-20T10:21:27Z</time>
      </trkpt>
      <trkpt lat="43.82264" lon="5.31866">
        <ele>437</ele>
        <time>2014-05-20T10:21:40Z</time>
      </trkpt>
      <trkpt lat="43.82266" lon="5.31875">
        <ele>437</ele>
        <time>2014-05-20T10:21:46Z</time>
      </trkpt>
      <trkpt lat="43.82268" lon="5.31889">
        <ele>437</ele>
        <time>2014-05-20T10:21:56Z</time>
      </trkpt>
      <trkpt lat="43.82267" lon="5.31892">
        <ele>437</ele>
        <time>2014-05-20T10:21:58Z</time>
      </trkpt>
      <trkpt lat="43.82265" lon="5.31895">
        <ele>437</ele>
        <time>2014-05-20T10:22:01Z</time>
      </trkpt>
      <trkpt lat="43.82263" lon="5.31898">
        <ele>437</ele>
        <time>2014-05-20T10:22:05Z</time>
      </trkpt>
      <trkpt lat="43.8226" lon="5.319">
        <ele>437</ele>
        <time>2014-05-20T10:22:09Z</time>
      </trkpt>
      <trkpt lat="43.82258" lon="5.31902">
        <ele>437</ele>
        <time>2014-05-20T10:22:11Z</time>
      </trkpt>
      <trkpt lat="43.82255" lon="5.31905">
        <ele>438</ele>
        <time>2014-05-20T10:22:14Z</time>
      </trkpt>
      <trkpt lat="43.82252" lon="5.31909">
        <ele>438</ele>
        <time>2014-05-20T10:22:18Z</time>
      </trkpt>
      <trkpt lat="43.82247" lon="5.31917">
        <ele>438</ele>
        <time>2014-05-20T10:22:25Z</time>
      </trkpt>
      <trkpt lat="43.8224" lon="5.31924">
        <ele>439</ele>
        <time>2014-05-20T10:22:31Z</time>
      </trkpt>
      <trkpt lat="43.82238" lon="5.31928">
        <ele>439</ele>
        <time>2014-05-20T10:22:34Z</time>
      </trkpt>
      <trkpt lat="43.82236" lon="5.31932">
        <ele>440</ele>
        <time>2014-05-20T10:22:37Z</time>
      </trkpt>
      <trkpt lat="43.82232" lon="5.31943">
        <ele>440</ele>
        <time>2014-05-20T10:22:45Z</time>
      </trkpt>
      <trkpt lat="43.8223" lon="5.3195">
        <ele>440</ele>
        <time>2014-05-20T10:22:51Z</time>
      </trkpt>
      <trkpt lat="43.8223" lon="5.31956">
        <ele>441</ele>
        <time>2014-05-20T10:22:54Z</time>
      </trkpt>
      <trkpt lat="43.8223" lon="5.31961">
        <ele>441</ele>
        <time>2014-05-20T10:22:58Z</time>
      </trkpt>
      <trkpt lat="43.82229" lon="5.31965">
        <ele>441</ele>
        <time>2014-05-20T10:23:02Z</time>
      </trkpt>
      <trkpt lat="43.82229" lon="5.31969">
        <ele>441</ele>
        <time>2014-05-20T10:23:05Z</time>
      </trkpt>
      <trkpt lat="43.82229" lon="5.31976">
        <ele>441</ele>
        <time>2014-05-20T10:23:10Z</time>
      </trkpt>
      <trkpt lat="43.82227" lon="5.31987">
        <ele>442</ele>
        <time>2014-05-20T10:23:18Z</time>
      </trkpt>
      <trkpt lat="43.82228" lon="5.31994">
        <ele>442</ele>
        <time>2014-05-20T10:23:23Z</time>
      </trkpt>
      <trkpt lat="43.82227" lon="5.32007">
        <ele>444</ele>
        <time>2014-05-20T10:23:32Z</time>
      </trkpt>
      <trkpt lat="43.82225" lon="5.3202">
        <ele>444</ele>
        <time>2014-05-20T10:23:40Z</time>
      </trkpt>
      <trkpt lat="43.82222" lon="5.3203">
        <ele>444</ele>
        <time>2014-05-20T10:23:47Z</time>
      </trkpt>
      <trkpt lat="43.82219" lon="5.32038">
        <ele>445</ele>
        <time>2014-05-20T10:23:52Z</time>
      </trkpt>
      <trkpt lat="43.82218" lon="5.32043">
        <ele>445</ele>
        <time>2014-05-20T10:23:55Z</time>
      </trkpt>
      <trkpt lat="43.82217" lon="5.3205">
        <ele>445</ele>
        <time>2014-05-20T10:23:59Z</time>
      </trkpt>
      <trkpt lat="43.82217" lon="5.32059">
        <ele>445</ele>
        <time>2014-05-20T10:24:06Z</time>
      </trkpt>
      <trkpt lat="43.82216" lon="5.32066">
        <ele>445</ele>
        <time>2014-05-20T10:24:11Z</time>
      </trkpt>
      <trkpt lat="43.82213" lon="5.32079">
        <ele>445</ele>
        <time>2014-05-20T10:24:19Z</time>
      </trkpt>
      <trkpt lat="43.82212" lon="5.32084">
        <ele>447</ele>
        <time>2014-05-20T10:24:22Z</time>
      </trkpt>
      <trkpt lat="43.8221" lon="5.3209">
        <ele>447</ele>
        <time>2014-05-20T10:24:26Z</time>
      </trkpt>
      <trkpt lat="43.8221" lon="5.32093">
        <ele>447</ele>
        <time>2014-05-20T10:24:28Z</time>
      </trkpt>
      <trkpt lat="43.8221" lon="5.321">
        <ele>447</ele>
        <time>2014-05-20T10:24:33Z</time>
      </trkpt>
      <trkpt lat="43.82209" lon="5.32106">
        <ele>448</ele>
        <time>2014-05-20T10:24:37Z</time>
      </trkpt>
      <trkpt lat="43.82208" lon="5.3211">
        <ele>448</ele>
        <time>2014-05-20T10:24:40Z</time>
      </trkpt>
      <trkpt lat="43.82206" lon="5.32118">
        <ele>448</ele>
        <time>2014-05-20T10:24:45Z</time>
      </trkpt>
      <trkpt lat="43.82204" lon="5.32124">
        <ele>448</ele>
        <time>2014-05-20T10:24:49Z</time>
      </trkpt>
      <trkpt lat="43.82203" lon="5.32132">
        <ele>448</ele>
        <time>2014-05-20T10:24:54Z</time>
      </trkpt>
      <trkpt lat="43.82201" lon="5.32137">
        <ele>448</ele>
        <time>2014-05-20T10:24:58Z</time>
      </trkpt>
      <trkpt lat="43.822" lon="5.32155">
        <ele>449</ele>
        <time>2014-05-20T10:25:10Z</time>
      </trkpt>
      <trkpt lat="43.82199" lon="5.3216">
        <ele>449</ele>
        <time>2014-05-20T10:25:14Z</time>
      </trkpt>
      <trkpt lat="43.82197" lon="5.32169">
        <ele>451</ele>
        <time>2014-05-20T10:25:20Z</time>
      </trkpt>
      <trkpt lat="43.82196" lon="5.32175">
        <ele>451</ele>
        <time>2014-05-20T10:25:24Z</time>
      </trkpt>
      <trkpt lat="43.82193" lon="5.32185">
        <ele>451</ele>
        <time>2014-05-20T10:25:31Z</time>
      </trkpt>
      <trkpt lat="43.82191" lon="5.32194">
        <ele>452</ele>
        <time>2014-05-20T10:25:37Z</time>
      </trkpt>
      <trkpt lat="43.8219" lon="5.32198">
        <ele>452</ele>
        <time>2014-05-20T10:25:40Z</time>
      </trkpt>
      <trkpt lat="43.82189" lon="5.32206">
        <ele>452</ele>
        <time>2014-05-20T10:25:47Z</time>
      </trkpt>
      <trkpt lat="43.82189" lon="5.32208">
        <ele>452</ele>
        <time>2014-05-20T10:25:48Z</time>
      </trkpt>
      <trkpt lat="43.82187" lon="5.32218">
        <ele>452</ele>
        <time>2014-05-20T10:25:55Z</time>
      </trkpt>
      <trkpt lat="43.82187" lon="5.32225">
        <ele>453</ele>
        <time>2014-05-20T10:26:00Z</time>
      </trkpt>
      <trkpt lat="43.82187" lon="5.32234">
        <ele>453</ele>
        <time>2014-05-20T10:26:07Z</time>
      </trkpt>
      <trkpt lat="43.82187" lon="5.3224">
        <ele>453</ele>
        <time>2014-05-20T10:26:11Z</time>
      </trkpt>
      <trkpt lat="43.82188" lon="5.32248">
        <ele>453</ele>
        <time>2014-05-20T10:26:17Z</time>
      </trkpt>
      <trkpt lat="43.82188" lon="5.32251">
        <ele>455</ele>
        <time>2014-05-20T10:26:19Z</time>
      </trkpt>
      <trkpt lat="43.82185" lon="5.32276">
        <ele>456</ele>
        <time>2014-05-20T10:26:35Z</time>
      </trkpt>
      <trkpt lat="43.82185" lon="5.32282">
        <ele>456</ele>
        <time>2014-05-20T10:26:39Z</time>
      </trkpt>
      <trkpt lat="43.82186" lon="5.3229">
        <ele>456</ele>
        <time>2014-05-20T10:26:45Z</time>
      </trkpt>
      <trkpt lat="43.82186" lon="5.32301">
        <ele>457</ele>
        <time>2014-05-20T10:26:52Z</time>
      </trkpt>
      <trkpt lat="43.82188" lon="5.32307">
        <ele>457</ele>
        <time>2014-05-20T10:26:55Z</time>
      </trkpt>
      <trkpt lat="43.82189" lon="5.3231">
        <ele>457</ele>
        <time>2014-05-20T10:26:57Z</time>
      </trkpt>
      <trkpt lat="43.8219" lon="5.32316">
        <ele>457</ele>
        <time>2014-05-20T10:27:01Z</time>
      </trkpt>
      <trkpt lat="43.82189" lon="5.32319">
        <ele>457</ele>
        <time>2014-05-20T10:27:03Z</time>
      </trkpt>
      <trkpt lat="43.82187" lon="5.32323">
        <ele>458</ele>
        <time>2014-05-20T10:27:06Z</time>
      </trkpt>
      <trkpt lat="43.82187" lon="5.32326">
        <ele>458</ele>
        <time>2014-05-20T10:27:08Z</time>
      </trkpt>
      <trkpt lat="43.82188" lon="5.32332">
        <ele>458</ele>
        <time>2014-05-20T10:27:12Z</time>
      </trkpt>
      <trkpt lat="43.82187" lon="5.32338">
        <ele>460</ele>
        <time>2014-05-20T10:27:16Z</time>
      </trkpt>
      <trkpt lat="43.82186" lon="5.32342">
        <ele>460</ele>
        <time>2014-05-20T10:27:19Z</time>
      </trkpt>
      <trkpt lat="43.82186" lon="5.32347">
        <ele>460</ele>
        <time>2014-05-20T10:27:22Z</time>
      </trkpt>
      <trkpt lat="43.82186" lon="5.32349">
        <ele>460</ele>
        <time>2014-05-20T10:27:24Z</time>
      </trkpt>
      <trkpt lat="43.82187" lon="5.32352">
        <ele>460</ele>
        <time>2014-05-20T10:27:26Z</time>
      </trkpt>
      <trkpt lat="43.82187" lon="5.3236">
        <ele>460</ele>
        <time>2014-05-20T10:27:31Z</time>
      </trkpt>
      <trkpt lat="43.8219" lon="5.32373">
        <ele>460</ele>
        <time>2014-05-20T10:27:39Z</time>
      </trkpt>
      <trkpt lat="43.8219" lon="5.32381">
        <ele>460</ele>
        <time>2014-05-20T10:27:44Z</time>
      </trkpt>
      <trkpt lat="43.82192" lon="5.32386">
        <ele>460</ele>
        <time>2014-05-20T10:27:47Z</time>
      </trkpt>
      <trkpt lat="43.82195" lon="5.32393">
        <ele>460</ele>
        <time>2014-05-20T10:27:52Z</time>
      </trkpt>
      <trkpt lat="43.82197" lon="5.324">
        <ele>460</ele>
        <time>2014-05-20T10:27:56Z</time>
      </trkpt>
      <trkpt lat="43.82201" lon="5.32408">
        <ele>460</ele>
        <time>2014-05-20T10:28:02Z</time>
      </trkpt>
      <trkpt lat="43.82204" lon="5.32422">
        <ele>461</ele>
        <time>2014-05-20T10:28:10Z</time>
      </trkpt>
      <trkpt lat="43.82204" lon="5.32429">
        <ele>461</ele>
        <time>2014-05-20T10:28:14Z</time>
      </trkpt>
      <trkpt lat="43.82203" lon="5.32435">
        <ele>461</ele>
        <time>2014-05-20T10:28:18Z</time>
      </trkpt>
      <trkpt lat="43.82203" lon="5.32437">
        <ele>461</ele>
        <time>2014-05-20T10:28:21Z</time>
      </trkpt>
      <trkpt lat="43.82202" lon="5.32442">
        <ele>461</ele>
        <time>2014-05-20T10:28:26Z</time>
      </trkpt>
      <trkpt lat="43.82203" lon="5.32451">
        <ele>461</ele>
        <time>2014-05-20T10:28:32Z</time>
      </trkpt>
      <trkpt lat="43.82203" lon="5.32459">
        <ele>461</ele>
        <time>2014-05-20T10:28:37Z</time>
      </trkpt>
      <trkpt lat="43.82204" lon="5.32461">
        <ele>461</ele>
        <time>2014-05-20T10:28:39Z</time>
      </trkpt>
      <trkpt lat="43.82203" lon="5.32464">
        <ele>461</ele>
        <time>2014-05-20T10:28:41Z</time>
      </trkpt>
      <trkpt lat="43.82204" lon="5.32471">
        <ele>461</ele>
        <time>2014-05-20T10:28:46Z</time>
      </trkpt>
      <trkpt lat="43.82204" lon="5.3248">
        <ele>461</ele>
        <time>2014-05-20T10:28:52Z</time>
      </trkpt>
      <trkpt lat="43.82205" lon="5.32485">
        <ele>461</ele>
        <time>2014-05-20T10:28:56Z</time>
      </trkpt>
      <trkpt lat="43.82204" lon="5.32491">
        <ele>461</ele>
        <time>2014-05-20T10:29:00Z</time>
      </trkpt>
      <trkpt lat="43.82202" lon="5.32501">
        <ele>463</ele>
        <time>2014-05-20T10:29:07Z</time>
      </trkpt>
      <trkpt lat="43.82199" lon="5.32508">
        <ele>463</ele>
        <time>2014-05-20T10:29:12Z</time>
      </trkpt>
      <trkpt lat="43.82187" lon="5.32532">
        <ele>463</ele>
        <time>2014-05-20T10:29:31Z</time>
      </trkpt>
      <trkpt lat="43.82186" lon="5.32537">
        <ele>463</ele>
        <time>2014-05-20T10:29:39Z</time>
      </trkpt>
      <trkpt lat="43.82185" lon="5.32539">
        <ele>463</ele>
        <time>2014-05-20T10:29:41Z</time>
      </trkpt>
      <trkpt lat="43.82184" lon="5.32542">
        <ele>463</ele>
        <time>2014-05-20T10:29:43Z</time>
      </trkpt>
      <trkpt lat="43.82182" lon="5.32545">
        <ele>464</ele>
        <time>2014-05-20T10:29:46Z</time>
      </trkpt>
      <trkpt lat="43.8218" lon="5.32547">
        <ele>464</ele>
        <time>2014-05-20T10:29:48Z</time>
      </trkpt>
      <trkpt lat="43.82177" lon="5.32551">
        <ele>464</ele>
        <time>2014-05-20T10:29:51Z</time>
      </trkpt>
      <trkpt lat="43.82176" lon="5.32557">
        <ele>464</ele>
        <time>2014-05-20T10:29:56Z</time>
      </trkpt>
      <trkpt lat="43.82175" lon="5.32562">
        <ele>464</ele>
        <time>2014-05-20T10:30:00Z</time>
      </trkpt>
      <trkpt lat="43.82174" lon="5.32568">
        <ele>465</ele>
        <time>2014-05-20T10:30:04Z</time>
      </trkpt>
      <trkpt lat="43.82173" lon="5.32572">
        <ele>465</ele>
        <time>2014-05-20T10:30:07Z</time>
      </trkpt>
      <trkpt lat="43.82172" lon="5.32577">
        <ele>465</ele>
        <time>2014-05-20T10:30:10Z</time>
      </trkpt>
      <trkpt lat="43.82172" lon="5.32591">
        <ele>466</ele>
        <time>2014-05-20T10:30:18Z</time>
      </trkpt>
      <trkpt lat="43.8217" lon="5.32598">
        <ele>466</ele>
        <time>2014-05-20T10:30:22Z</time>
      </trkpt>
      <trkpt lat="43.82166" lon="5.32611">
        <ele>466</ele>
        <time>2014-05-20T10:30:30Z</time>
      </trkpt>
      <trkpt lat="43.82165" lon="5.32615">
        <ele>466</ele>
        <time>2014-05-20T10:30:33Z</time>
      </trkpt>
      <trkpt lat="43.82162" lon="5.32625">
        <ele>466</ele>
        <time>2014-05-20T10:30:40Z</time>
      </trkpt>
      <trkpt lat="43.82156" lon="5.3264">
        <ele>466</ele>
        <time>2014-05-20T10:30:49Z</time>
      </trkpt>
      <trkpt lat="43.82153" lon="5.32651">
        <ele>466</ele>
        <time>2014-05-20T10:30:56Z</time>
      </trkpt>
      <trkpt lat="43.8215" lon="5.32655">
        <ele>466</ele>
        <time>2014-05-20T10:30:59Z</time>
      </trkpt>
      <trkpt lat="43.82148" lon="5.32659">
        <ele>466</ele>
        <time>2014-05-20T10:31:02Z</time>
      </trkpt>
      <trkpt lat="43.82144" lon="5.32662">
        <ele>466</ele>
        <time>2014-05-20T10:31:05Z</time>
      </trkpt>
      <trkpt lat="43.82141" lon="5.3267">
        <ele>467</ele>
        <time>2014-05-20T10:31:10Z</time>
      </trkpt>
      <trkpt lat="43.82137" lon="5.32677">
        <ele>467</ele>
        <time>2014-05-20T10:31:15Z</time>
      </trkpt>
      <trkpt lat="43.8213" lon="5.32692">
        <ele>467</ele>
        <time>2014-05-20T10:31:25Z</time>
      </trkpt>
      <trkpt lat="43.82127" lon="5.32698">
        <ele>467</ele>
        <time>2014-05-20T10:31:29Z</time>
      </trkpt>
      <trkpt lat="43.82128" lon="5.32701">
        <ele>467</ele>
        <time>2014-05-20T10:31:31Z</time>
      </trkpt>
      <trkpt lat="43.82127" lon="5.32702">
        <ele>467</ele>
        <time>2014-05-20T10:31:32Z</time>
      </trkpt>
      <trkpt lat="43.82121" lon="5.32716">
        <ele>467</ele>
        <time>2014-05-20T10:31:42Z</time>
      </trkpt>
      <trkpt lat="43.8212" lon="5.3272">
        <ele>467</ele>
        <time>2014-05-20T10:31:45Z</time>
      </trkpt>
      <trkpt lat="43.82119" lon="5.32721">
        <ele>467</ele>
        <time>2014-05-20T10:31:46Z</time>
      </trkpt>
      <trkpt lat="43.82116" lon="5.32728">
        <ele>467</ele>
        <time>2014-05-20T10:31:52Z</time>
      </trkpt>
      <trkpt lat="43.82109" lon="5.32739">
        <ele>467</ele>
        <time>2014-05-20T10:32:00Z</time>
      </trkpt>
      <trkpt lat="43.82105" lon="5.32748">
        <ele>467</ele>
        <time>2014-05-20T10:32:06Z</time>
      </trkpt>
      <trkpt lat="43.821" lon="5.32756">
        <ele>468</ele>
        <time>2014-05-20T10:32:13Z</time>
      </trkpt>
      <trkpt lat="43.82095" lon="5.32766">
        <ele>469</ele>
        <time>2014-05-20T10:32:20Z</time>
      </trkpt>
      <trkpt lat="43.82093" lon="5.32769">
        <ele>469</ele>
        <time>2014-05-20T10:32:23Z</time>
      </trkpt>
      <trkpt lat="43.8209" lon="5.32775">
        <ele>469</ele>
        <time>2014-05-20T10:32:27Z</time>
      </trkpt>
      <trkpt lat="43.82087" lon="5.32778">
        <ele>469</ele>
        <time>2014-05-20T10:32:30Z</time>
      </trkpt>
      <trkpt lat="43.82083" lon="5.32783">
        <ele>468</ele>
        <time>2014-05-20T10:32:34Z</time>
      </trkpt>
      <trkpt lat="43.8208" lon="5.32789">
        <ele>468</ele>
        <time>2014-05-20T10:32:38Z</time>
      </trkpt>
      <trkpt lat="43.82076" lon="5.32793">
        <ele>468</ele>
        <time>2014-05-20T10:32:42Z</time>
      </trkpt>
      <trkpt lat="43.82073" lon="5.32802">
        <ele>468</ele>
        <time>2014-05-20T10:32:48Z</time>
      </trkpt>
      <trkpt lat="43.82069" lon="5.32808">
        <ele>468</ele>
        <time>2014-05-20T10:32:53Z</time>
      </trkpt>
      <trkpt lat="43.82068" lon="5.32811">
        <ele>468</ele>
        <time>2014-05-20T10:32:55Z</time>
      </trkpt>
      <trkpt lat="43.82065" lon="5.32813">
        <ele>468</ele>
        <time>2014-05-20T10:32:57Z</time>
      </trkpt>
      <trkpt lat="43.82064" lon="5.32817">
        <ele>468</ele>
        <time>2014-05-20T10:33:00Z</time>
      </trkpt>
      <trkpt lat="43.82061" lon="5.32821">
        <ele>468</ele>
        <time>2014-05-20T10:33:03Z</time>
      </trkpt>
      <trkpt lat="43.82059" lon="5.32827">
        <ele>468</ele>
        <time>2014-05-20T10:33:07Z</time>
      </trkpt>
      <trkpt lat="43.82058" lon="5.3283">
        <ele>468</ele>
        <time>2014-05-20T10:33:09Z</time>
      </trkpt>
      <trkpt lat="43.82054" lon="5.32835">
        <ele>469</ele>
        <time>2014-05-20T10:33:13Z</time>
      </trkpt>
      <trkpt lat="43.82052" lon="5.32845">
        <ele>469</ele>
        <time>2014-05-20T10:33:19Z</time>
      </trkpt>
      <trkpt lat="43.8205" lon="5.3285">
        <ele>469</ele>
        <time>2014-05-20T10:33:22Z</time>
      </trkpt>
      <trkpt lat="43.82047" lon="5.32854">
        <ele>469</ele>
        <time>2014-05-20T10:33:25Z</time>
      </trkpt>
      <trkpt lat="43.82042" lon="5.32863">
        <ele>468</ele>
        <time>2014-05-20T10:33:31Z</time>
      </trkpt>
      <trkpt lat="43.8204" lon="5.32866">
        <ele>468</ele>
        <time>2014-05-20T10:33:33Z</time>
      </trkpt>
      <trkpt lat="43.82038" lon="5.32871">
        <ele>468</ele>
        <time>2014-05-20T10:33:37Z</time>
      </trkpt>
      <trkpt lat="43.82031" lon="5.32883">
        <ele>468</ele>
        <time>2014-05-20T10:33:46Z</time>
      </trkpt>
      <trkpt lat="43.82029" lon="5.32888">
        <ele>468</ele>
        <time>2014-05-20T10:33:49Z</time>
      </trkpt>
      <trkpt lat="43.82027" lon="5.32891">
        <ele>468</ele>
        <time>2014-05-20T10:33:51Z</time>
      </trkpt>
      <trkpt lat="43.82026" lon="5.32896">
        <ele>468</ele>
        <time>2014-05-20T10:33:54Z</time>
      </trkpt>
      <trkpt lat="43.82025" lon="5.329">
        <ele>468</ele>
        <time>2014-05-20T10:33:57Z</time>
      </trkpt>
      <trkpt lat="43.82023" lon="5.32904">
        <ele>468</ele>
        <time>2014-05-20T10:34:00Z</time>
      </trkpt>
      <trkpt lat="43.8202" lon="5.32911">
        <ele>468</ele>
        <time>2014-05-20T10:34:06Z</time>
      </trkpt>
      <trkpt lat="43.82017" lon="5.32913">
        <ele>468</ele>
        <time>2014-05-20T10:34:08Z</time>
      </trkpt>
      <trkpt lat="43.82013" lon="5.32923">
        <ele>468</ele>
        <time>2014-05-20T10:34:15Z</time>
      </trkpt>
      <trkpt lat="43.82011" lon="5.32927">
        <ele>468</ele>
        <time>2014-05-20T10:34:18Z</time>
      </trkpt>
      <trkpt lat="43.82009" lon="5.32931">
        <ele>468</ele>
        <time>2014-05-20T10:34:21Z</time>
      </trkpt>
      <trkpt lat="43.82007" lon="5.32935">
        <ele>468</ele>
        <time>2014-05-20T10:34:24Z</time>
      </trkpt>
      <trkpt lat="43.82004" lon="5.32936">
        <ele>468</ele>
        <time>2014-05-20T10:34:26Z</time>
      </trkpt>
      <trkpt lat="43.82003" lon="5.32937">
        <ele>468</ele>
        <time>2014-05-20T10:34:27Z</time>
      </trkpt>
      <trkpt lat="43.82" lon="5.32941">
        <ele>468</ele>
        <time>2014-05-20T10:34:30Z</time>
      </trkpt>
      <trkpt lat="43.81997" lon="5.32948">
        <ele>465</ele>
        <time>2014-05-20T10:34:35Z</time>
      </trkpt>
      <trkpt lat="43.81996" lon="5.3295">
        <ele>465</ele>
        <time>2014-05-20T10:34:37Z</time>
      </trkpt>
      <trkpt lat="43.81995" lon="5.32952">
        <ele>465</ele>
        <time>2014-05-20T10:34:38Z</time>
      </trkpt>
      <trkpt lat="43.81991" lon="5.3296">
        <ele>465</ele>
        <time>2014-05-20T10:34:45Z</time>
      </trkpt>
      <trkpt lat="43.8199" lon="5.32963">
        <ele>465</ele>
        <time>2014-05-20T10:34:47Z</time>
      </trkpt>
      <trkpt lat="43.81988" lon="5.32965">
        <ele>465</ele>
        <time>2014-05-20T10:34:49Z</time>
      </trkpt>
      <trkpt lat="43.81984" lon="5.3297">
        <ele>465</ele>
        <time>2014-05-20T10:34:54Z</time>
      </trkpt>
      <trkpt lat="43.81977" lon="5.32979">
        <ele>465</ele>
        <time>2014-05-20T10:35:02Z</time>
      </trkpt>
      <trkpt lat="43.81972" lon="5.32984">
        <ele>465</ele>
        <time>2014-05-20T10:35:08Z</time>
      </trkpt>
      <trkpt lat="43.8197" lon="5.32986">
        <ele>465</ele>
        <time>2014-05-20T10:35:11Z</time>
      </trkpt>
      <trkpt lat="43.81964" lon="5.32997">
        <ele>465</ele>
        <time>2014-05-20T10:35:20Z</time>
      </trkpt>
      <trkpt lat="43.81962" lon="5.32999">
        <ele>464</ele>
        <time>2014-05-20T10:35:22Z</time>
      </trkpt>
      <trkpt lat="43.81962" lon="5.33">
        <ele>464</ele>
        <time>2014-05-20T10:35:23Z</time>
      </trkpt>
      <trkpt lat="43.81949" lon="5.33017">
        <ele>464</ele>
        <time>2014-05-20T10:35:38Z</time>
      </trkpt>
      <trkpt lat="43.81948" lon="5.33019">
        <ele>464</ele>
        <time>2014-05-20T10:35:40Z</time>
      </trkpt>
      <trkpt lat="43.81947" lon="5.33021">
        <ele>464</ele>
        <time>2014-05-20T10:35:42Z</time>
      </trkpt>
      <trkpt lat="43.81943" lon="5.33028">
        <ele>464</ele>
        <time>2014-05-20T10:35:47Z</time>
      </trkpt>
      <trkpt lat="43.81941" lon="5.3303">
        <ele>464</ele>
        <time>2014-05-20T10:35:49Z</time>
      </trkpt>
      <trkpt lat="43.81937" lon="5.33039">
        <ele>464</ele>
        <time>2014-05-20T10:35:55Z</time>
      </trkpt>
      <trkpt lat="43.81931" lon="5.33057">
        <ele>464</ele>
        <time>2014-05-20T10:36:08Z</time>
      </trkpt>
      <trkpt lat="43.81928" lon="5.33064">
        <ele>463</ele>
        <time>2014-05-20T10:36:13Z</time>
      </trkpt>
      <trkpt lat="43.81924" lon="5.33073">
        <ele>463</ele>
        <time>2014-05-20T10:36:19Z</time>
      </trkpt>
      <trkpt lat="43.81921" lon="5.33078">
        <ele>463</ele>
        <time>2014-05-20T10:36:23Z</time>
      </trkpt>
      <trkpt lat="43.81921" lon="5.33082">
        <ele>462</ele>
        <time>2014-05-20T10:36:25Z</time>
      </trkpt>
      <trkpt lat="43.81915" lon="5.33097">
        <ele>459</ele>
        <time>2014-05-20T10:36:35Z</time>
      </trkpt>
      <trkpt lat="43.81912" lon="5.33106">
        <ele>457</ele>
        <time>2014-05-20T10:36:42Z</time>
      </trkpt>
      <trkpt lat="43.81911" lon="5.33111">
        <ele>457</ele>
        <time>2014-05-20T10:36:46Z</time>
      </trkpt>
      <trkpt lat="43.81909" lon="5.33119">
        <ele>456</ele>
        <time>2014-05-20T10:36:53Z</time>
      </trkpt>
      <trkpt lat="43.81908" lon="5.33124">
        <ele>456</ele>
        <time>2014-05-20T10:36:57Z</time>
      </trkpt>
      <trkpt lat="43.81906" lon="5.33126">
        <ele>455</ele>
        <time>2014-05-20T10:37:00Z</time>
      </trkpt>
      <trkpt lat="43.81904" lon="5.33135">
        <ele>455</ele>
        <time>2014-05-20T10:37:07Z</time>
      </trkpt>
      <trkpt lat="43.81899" lon="5.33144">
        <ele>455</ele>
        <time>2014-05-20T10:37:14Z</time>
      </trkpt>
      <trkpt lat="43.81898" lon="5.33151">
        <ele>455</ele>
        <time>2014-05-20T10:37:22Z</time>
      </trkpt>
      <trkpt lat="43.81894" lon="5.33163">
        <ele>454</ele>
        <time>2014-05-20T10:37:33Z</time>
      </trkpt>
      <trkpt lat="43.81893" lon="5.33167">
        <ele>450</ele>
        <time>2014-05-20T10:37:37Z</time>
      </trkpt>
      <trkpt lat="43.81892" lon="5.3317">
        <ele>450</ele>
        <time>2014-05-20T10:37:40Z</time>
      </trkpt>
      <trkpt lat="43.81891" lon="5.33173">
        <ele>449</ele>
        <time>2014-05-20T10:37:43Z</time>
      </trkpt>
      <trkpt lat="43.8189" lon="5.33177">
        <ele>449</ele>
        <time>2014-05-20T10:37:46Z</time>
      </trkpt>
      <trkpt lat="43.81889" lon="5.33183">
        <ele>448</ele>
        <time>2014-05-20T10:37:52Z</time>
      </trkpt>
      <trkpt lat="43.81887" lon="5.33185">
        <ele>448</ele>
        <time>2014-05-20T10:37:54Z</time>
      </trkpt>
      <trkpt lat="43.81887" lon="5.33188">
        <ele>448</ele>
        <time>2014-05-20T10:37:56Z</time>
      </trkpt>
      <trkpt lat="43.81886" lon="5.33189">
        <ele>448</ele>
        <time>2014-05-20T10:37:57Z</time>
      </trkpt>
      <trkpt lat="43.81885" lon="5.33193">
        <ele>447</ele>
        <time>2014-05-20T10:38:01Z</time>
      </trkpt>
      <trkpt lat="43.81882" lon="5.332">
        <ele>447</ele>
        <time>2014-05-20T10:38:06Z</time>
      </trkpt>
      <trkpt lat="43.81881" lon="5.33205">
        <ele>446</ele>
        <time>2014-05-20T10:38:10Z</time>
      </trkpt>
      <trkpt lat="43.81878" lon="5.33211">
        <ele>446</ele>
        <time>2014-05-20T10:38:14Z</time>
      </trkpt>
      <trkpt lat="43.81877" lon="5.33214">
        <ele>445</ele>
        <time>2014-05-20T10:38:16Z</time>
      </trkpt>
      <trkpt lat="43.81876" lon="5.33217">
        <ele>445</ele>
        <time>2014-05-20T10:38:18Z</time>
      </trkpt>
      <trkpt lat="43.81874" lon="5.33219">
        <ele>445</ele>
        <time>2014-05-20T10:38:20Z</time>
      </trkpt>
      <trkpt lat="43.81867" lon="5.33231">
        <ele>444</ele>
        <time>2014-05-20T10:38:28Z</time>
      </trkpt>
      <trkpt lat="43.81866" lon="5.33235">
        <ele>443</ele>
        <time>2014-05-20T10:38:31Z</time>
      </trkpt>
      <trkpt lat="43.81866" lon="5.33241">
        <ele>443</ele>
        <time>2014-05-20T10:38:36Z</time>
      </trkpt>
      <trkpt lat="43.81865" lon="5.33244">
        <ele>443</ele>
        <time>2014-05-20T10:38:38Z</time>
      </trkpt>
      <trkpt lat="43.81861" lon="5.33251">
        <ele>434</ele>
        <time>2014-05-20T10:38:44Z</time>
      </trkpt>
      <trkpt lat="43.81858" lon="5.33254">
        <ele>434</ele>
        <time>2014-05-20T10:38:50Z</time>
      </trkpt>
      <trkpt lat="43.81857" lon="5.33257">
        <ele>434</ele>
        <time>2014-05-20T10:38:54Z</time>
      </trkpt>
      <trkpt lat="43.81857" lon="5.33259">
        <ele>434</ele>
        <time>2014-05-20T10:38:57Z</time>
      </trkpt>
      <trkpt lat="43.81857" lon="5.33262">
        <ele>434</ele>
        <time>2014-05-20T10:39:00Z</time>
      </trkpt>
      <trkpt lat="43.81857" lon="5.33265">
        <ele>433</ele>
        <time>2014-05-20T10:39:02Z</time>
      </trkpt>
      <trkpt lat="43.81855" lon="5.33272">
        <ele>433</ele>
        <time>2014-05-20T10:39:08Z</time>
      </trkpt>
      <trkpt lat="43.81852" lon="5.3328">
        <ele>432</ele>
        <time>2014-05-20T10:39:15Z</time>
      </trkpt>
      <trkpt lat="43.81852" lon="5.33285">
        <ele>431</ele>
        <time>2014-05-20T10:39:20Z</time>
      </trkpt>
      <trkpt lat="43.81851" lon="5.33291">
        <ele>431</ele>
        <time>2014-05-20T10:39:26Z</time>
      </trkpt>
      <trkpt lat="43.81848" lon="5.33297">
        <ele>430</ele>
        <time>2014-05-20T10:39:31Z</time>
      </trkpt>
      <trkpt lat="43.81844" lon="5.333">
        <ele>429</ele>
        <time>2014-05-20T10:39:36Z</time>
      </trkpt>
      <trkpt lat="43.81843" lon="5.33304">
        <ele>429</ele>
        <time>2014-05-20T10:39:39Z</time>
      </trkpt>
      <trkpt lat="43.81844" lon="5.33308">
        <ele>428</ele>
        <time>2014-05-20T10:39:44Z</time>
      </trkpt>
      <trkpt lat="43.81846" lon="5.3331">
        <ele>428</ele>
        <time>2014-05-20T10:39:49Z</time>
      </trkpt>
      <trkpt lat="43.81847" lon="5.33311">
        <ele>428</ele>
        <time>2014-05-20T10:39:55Z</time>
      </trkpt>
      <trkpt lat="43.81847" lon="5.33311">
        <ele>428</ele>
        <time>2014-05-20T10:39:56Z</time>
      </trkpt>
      <trkpt lat="43.81847" lon="5.33312">
        <ele>428</ele>
        <time>2014-05-20T10:39:58Z</time>
      </trkpt>
      <trkpt lat="43.81847" lon="5.33314">
        <ele>427</ele>
        <time>2014-05-20T10:40:02Z</time>
      </trkpt>
      <trkpt lat="43.81849" lon="5.33315">
        <ele>427</ele>
        <time>2014-05-20T10:40:05Z</time>
      </trkpt>
      <trkpt lat="43.8185" lon="5.33316">
        <ele>428</ele>
        <time>2014-05-20T10:40:09Z</time>
      </trkpt>
      <trkpt lat="43.81851" lon="5.33317">
        <ele>427</ele>
        <time>2014-05-20T10:40:11Z</time>
      </trkpt>
      <trkpt lat="43.8185" lon="5.33318">
        <ele>427</ele>
        <time>2014-05-20T10:40:13Z</time>
      </trkpt>
      <trkpt lat="43.81849" lon="5.3332">
        <ele>427</ele>
        <time>2014-05-20T10:40:15Z</time>
      </trkpt>
      <trkpt lat="43.81849" lon="5.33324">
        <ele>426</ele>
        <time>2014-05-20T10:40:20Z</time>
      </trkpt>
      <trkpt lat="43.81851" lon="5.33332">
        <ele>426</ele>
        <time>2014-05-20T10:40:38Z</time>
      </trkpt>
      <trkpt lat="43.81849" lon="5.3333">
        <ele>426</ele>
        <time>2014-05-20T10:40:42Z</time>
      </trkpt>
      <trkpt lat="43.81848" lon="5.33329">
        <ele>426</ele>
        <time>2014-05-20T10:40:44Z</time>
      </trkpt>
      <trkpt lat="43.81848" lon="5.33329">
        <ele>426</ele>
        <time>2014-05-20T10:40:47Z</time>
      </trkpt>
      <trkpt lat="43.81848" lon="5.3333">
        <ele>426</ele>
        <time>2014-05-20T10:40:49Z</time>
      </trkpt>
      <trkpt lat="43.81848" lon="5.33332">
        <ele>426</ele>
        <time>2014-05-20T10:40:52Z</time>
      </trkpt>
      <trkpt lat="43.81854" lon="5.3334">
        <ele>422</ele>
        <time>2014-05-20T10:41:01Z</time>
      </trkpt>
      <trkpt lat="43.81855" lon="5.33341">
        <ele>422</ele>
        <time>2014-05-20T10:41:03Z</time>
      </trkpt>
      <trkpt lat="43.81857" lon="5.33343">
        <ele>422</ele>
        <time>2014-05-20T10:41:06Z</time>
      </trkpt>
      <trkpt lat="43.81862" lon="5.33352">
        <ele>422</ele>
        <time>2014-05-20T10:41:13Z</time>
      </trkpt>
      <trkpt lat="43.81863" lon="5.33358">
        <ele>422</ele>
        <time>2014-05-20T10:41:16Z</time>
      </trkpt>
      <trkpt lat="43.81865" lon="5.33361">
        <ele>422</ele>
        <time>2014-05-20T10:41:18Z</time>
      </trkpt>
      <trkpt lat="43.81865" lon="5.33365">
        <ele>422</ele>
        <time>2014-05-20T10:41:20Z</time>
      </trkpt>
      <trkpt lat="43.81864" lon="5.33372">
        <ele>422</ele>
        <time>2014-05-20T10:41:24Z</time>
      </trkpt>
      <trkpt lat="43.81862" lon="5.33378">
        <ele>422</ele>
        <time>2014-05-20T10:41:28Z</time>
      </trkpt>
      <trkpt lat="43.8186" lon="5.33381">
        <ele>422</ele>
        <time>2014-05-20T10:41:31Z</time>
      </trkpt>
      <trkpt lat="43.8186" lon="5.33385">
        <ele>421</ele>
        <time>2014-05-20T10:41:34Z</time>
      </trkpt>
      <trkpt lat="43.81859" lon="5.33388">
        <ele>421</ele>
        <time>2014-05-20T10:41:36Z</time>
      </trkpt>
      <trkpt lat="43.81856" lon="5.33392">
        <ele>421</ele>
        <time>2014-05-20T10:41:39Z</time>
      </trkpt>
      <trkpt lat="43.81852" lon="5.33399">
        <ele>420</ele>
        <time>2014-05-20T10:41:44Z</time>
      </trkpt>
      <trkpt lat="43.8185" lon="5.334">
        <ele>420</ele>
        <time>2014-05-20T10:41:45Z</time>
      </trkpt>
      <trkpt lat="43.81849" lon="5.33403">
        <ele>420</ele>
        <time>2014-05-20T10:41:47Z</time>
      </trkpt>
      <trkpt lat="43.81845" lon="5.33415">
        <ele>418</ele>
        <time>2014-05-20T10:41:55Z</time>
      </trkpt>
      <trkpt lat="43.81845" lon="5.3342">
        <ele>419</ele>
        <time>2014-05-20T10:41:58Z</time>
      </trkpt>
      <trkpt lat="43.81842" lon="5.33423">
        <ele>418</ele>
        <time>2014-05-20T10:42:01Z</time>
      </trkpt>
      <trkpt lat="43.81836" lon="5.33429">
        <ele>419</ele>
        <time>2014-05-20T10:42:08Z</time>
      </trkpt>
      <trkpt lat="43.81832" lon="5.33434">
        <ele>414</ele>
        <time>2014-05-20T10:42:12Z</time>
      </trkpt>
      <trkpt lat="43.8183" lon="5.33438">
        <ele>414</ele>
        <time>2014-05-20T10:42:15Z</time>
      </trkpt>
      <trkpt lat="43.81826" lon="5.33445">
        <ele>414</ele>
        <time>2014-05-20T10:42:20Z</time>
      </trkpt>
      <trkpt lat="43.81822" lon="5.3345">
        <ele>414</ele>
        <time>2014-05-20T10:42:24Z</time>
      </trkpt>
      <trkpt lat="43.81817" lon="5.33463">
        <ele>415</ele>
        <time>2014-05-20T10:42:32Z</time>
      </trkpt>
      <trkpt lat="43.81814" lon="5.33468">
        <ele>415</ele>
        <time>2014-05-20T10:42:36Z</time>
      </trkpt>
      <trkpt lat="43.81813" lon="5.3347">
        <ele>415</ele>
        <time>2014-05-20T10:42:37Z</time>
      </trkpt>
      <trkpt lat="43.81814" lon="5.33472">
        <ele>415</ele>
        <time>2014-05-20T10:42:40Z</time>
      </trkpt>
      <trkpt lat="43.81813" lon="5.33476">
        <ele>415</ele>
        <time>2014-05-20T10:42:44Z</time>
      </trkpt>
      <trkpt lat="43.81812" lon="5.33478">
        <ele>415</ele>
        <time>2014-05-20T10:42:46Z</time>
      </trkpt>
      <trkpt lat="43.81811" lon="5.33479">
        <ele>415</ele>
        <time>2014-05-20T10:42:47Z</time>
      </trkpt>
      <trkpt lat="43.8181" lon="5.33481">
        <ele>415</ele>
        <time>2014-05-20T10:42:49Z</time>
      </trkpt>
      <trkpt lat="43.81809" lon="5.33483">
        <ele>415</ele>
        <time>2014-05-20T10:42:51Z</time>
      </trkpt>
      <trkpt lat="43.81808" lon="5.33494">
        <ele>415</ele>
        <time>2014-05-20T10:43:00Z</time>
      </trkpt>
      <trkpt lat="43.81809" lon="5.33501">
        <ele>417</ele>
        <time>2014-05-20T10:43:05Z</time>
      </trkpt>
      <trkpt lat="43.81809" lon="5.33505">
        <ele>417</ele>
        <time>2014-05-20T10:43:08Z</time>
      </trkpt>
      <trkpt lat="43.81806" lon="5.33515">
        <ele>417</ele>
        <time>2014-05-20T10:43:17Z</time>
      </trkpt>
      <trkpt lat="43.81804" lon="5.33525">
        <ele>417</ele>
        <time>2014-05-20T10:43:25Z</time>
      </trkpt>
      <trkpt lat="43.81806" lon="5.33539">
        <ele>418</ele>
        <time>2014-05-20T10:43:36Z</time>
      </trkpt>
      <trkpt lat="43.81805" lon="5.33552">
        <ele>418</ele>
        <time>2014-05-20T10:43:43Z</time>
      </trkpt>
      <trkpt lat="43.81806" lon="5.33556">
        <ele>419</ele>
        <time>2014-05-20T10:43:46Z</time>
      </trkpt>
      <trkpt lat="43.81805" lon="5.33559">
        <ele>419</ele>
        <time>2014-05-20T10:43:48Z</time>
      </trkpt>
      <trkpt lat="43.81806" lon="5.33561">
        <ele>419</ele>
        <time>2014-05-20T10:43:49Z</time>
      </trkpt>
      <trkpt lat="43.81805" lon="5.33574">
        <ele>419</ele>
        <time>2014-05-20T10:43:56Z</time>
      </trkpt>
      <trkpt lat="43.81805" lon="5.33589">
        <ele>422</ele>
        <time>2014-05-20T10:44:07Z</time>
      </trkpt>
      <trkpt lat="43.81806" lon="5.33598">
        <ele>422</ele>
        <time>2014-05-20T10:44:14Z</time>
      </trkpt>
      <trkpt lat="43.81806" lon="5.33609">
        <ele>421</ele>
        <time>2014-05-20T10:44:21Z</time>
      </trkpt>
      <trkpt lat="43.81809" lon="5.33618">
        <ele>421</ele>
        <time>2014-05-20T10:44:28Z</time>
      </trkpt>
      <trkpt lat="43.81809" lon="5.33625">
        <ele>421</ele>
        <time>2014-05-20T10:44:33Z</time>
      </trkpt>
      <trkpt lat="43.8181" lon="5.3363">
        <ele>421</ele>
        <time>2014-05-20T10:44:37Z</time>
      </trkpt>
      <trkpt lat="43.8181" lon="5.33633">
        <ele>421</ele>
        <time>2014-05-20T10:44:39Z</time>
      </trkpt>
      <trkpt lat="43.8181" lon="5.33638">
        <ele>421</ele>
        <time>2014-05-20T10:44:42Z</time>
      </trkpt>
      <trkpt lat="43.81812" lon="5.33642">
        <ele>421</ele>
        <time>2014-05-20T10:44:45Z</time>
      </trkpt>
      <trkpt lat="43.81813" lon="5.33647">
        <ele>422</ele>
        <time>2014-05-20T10:44:49Z</time>
      </trkpt>
      <trkpt lat="43.81814" lon="5.33659">
        <ele>422</ele>
        <time>2014-05-20T10:44:56Z</time>
      </trkpt>
      <trkpt lat="43.81816" lon="5.33667">
        <ele>422</ele>
        <time>2014-05-20T10:45:01Z</time>
      </trkpt>
      <trkpt lat="43.81816" lon="5.33674">
        <ele>422</ele>
        <time>2014-05-20T10:45:06Z</time>
      </trkpt>
      <trkpt lat="43.81816" lon="5.33677">
        <ele>422</ele>
        <time>2014-05-20T10:45:08Z</time>
      </trkpt>
      <trkpt lat="43.81813" lon="5.33683">
        <ele>421</ele>
        <time>2014-05-20T10:45:12Z</time>
      </trkpt>
      <trkpt lat="43.81811" lon="5.33691">
        <ele>421</ele>
        <time>2014-05-20T10:45:17Z</time>
      </trkpt>
      <trkpt lat="43.81811" lon="5.33694">
        <ele>421</ele>
        <time>2014-05-20T10:45:19Z</time>
      </trkpt>
      <trkpt lat="43.81812" lon="5.33696">
        <ele>421</ele>
        <time>2014-05-20T10:45:22Z</time>
      </trkpt>
      <trkpt lat="43.81812" lon="5.33701">
        <ele>421</ele>
        <time>2014-05-20T10:45:32Z</time>
      </trkpt>
      <trkpt lat="43.81817" lon="5.33712">
        <ele>421</ele>
        <time>2014-05-20T10:45:42Z</time>
      </trkpt>
      <trkpt lat="43.81819" lon="5.33716">
        <ele>421</ele>
        <time>2014-05-20T10:45:45Z</time>
      </trkpt>
      <trkpt lat="43.81821" lon="5.33721">
        <ele>421</ele>
        <time>2014-05-20T10:45:49Z</time>
      </trkpt>
      <trkpt lat="43.81824" lon="5.33725">
        <ele>421</ele>
        <time>2014-05-20T10:45:52Z</time>
      </trkpt>
      <trkpt lat="43.81827" lon="5.33732">
        <ele>422</ele>
        <time>2014-05-20T10:45:57Z</time>
      </trkpt>
      <trkpt lat="43.81828" lon="5.33744">
        <ele>422</ele>
        <time>2014-05-20T10:46:05Z</time>
      </trkpt>
      <trkpt lat="43.81828" lon="5.33754">
        <ele>422</ele>
        <time>2014-05-20T10:46:11Z</time>
      </trkpt>
      <trkpt lat="43.81827" lon="5.33759">
        <ele>422</ele>
        <time>2014-05-20T10:46:14Z</time>
      </trkpt>
      <trkpt lat="43.81827" lon="5.33764">
        <ele>422</ele>
        <time>2014-05-20T10:46:17Z</time>
      </trkpt>
      <trkpt lat="43.81825" lon="5.33767">
        <ele>422</ele>
        <time>2014-05-20T10:46:19Z</time>
      </trkpt>
      <trkpt lat="43.81825" lon="5.33768">
        <ele>421</ele>
        <time>2014-05-20T10:46:20Z</time>
      </trkpt>
      <trkpt lat="43.81825" lon="5.3377">
        <ele>421</ele>
        <time>2014-05-20T10:46:21Z</time>
      </trkpt>
      <trkpt lat="43.81825" lon="5.33774">
        <ele>421</ele>
        <time>2014-05-20T10:46:24Z</time>
      </trkpt>
      <trkpt lat="43.81822" lon="5.33792">
        <ele>421</ele>
        <time>2014-05-20T10:46:35Z</time>
      </trkpt>
      <trkpt lat="43.81818" lon="5.33802">
        <ele>421</ele>
        <time>2014-05-20T10:46:42Z</time>
      </trkpt>
      <trkpt lat="43.81817" lon="5.33805">
        <ele>421</ele>
        <time>2014-05-20T10:46:44Z</time>
      </trkpt>
      <trkpt lat="43.81817" lon="5.33807">
        <ele>421</ele>
        <time>2014-05-20T10:46:45Z</time>
      </trkpt>
      <trkpt lat="43.81814" lon="5.33813">
        <ele>422</ele>
        <time>2014-05-20T10:46:49Z</time>
      </trkpt>
      <trkpt lat="43.81812" lon="5.33822">
        <ele>422</ele>
        <time>2014-05-20T10:46:55Z</time>
      </trkpt>
      <trkpt lat="43.81808" lon="5.33831">
        <ele>422</ele>
        <time>2014-05-20T10:47:00Z</time>
      </trkpt>
      <trkpt lat="43.81808" lon="5.33836">
        <ele>423</ele>
        <time>2014-05-20T10:47:03Z</time>
      </trkpt>
      <trkpt lat="43.81808" lon="5.33839">
        <ele>423</ele>
        <time>2014-05-20T10:47:05Z</time>
      </trkpt>
      <trkpt lat="43.81807" lon="5.33845">
        <ele>423</ele>
        <time>2014-05-20T10:47:09Z</time>
      </trkpt>
      <trkpt lat="43.81806" lon="5.33853">
        <ele>423</ele>
        <time>2014-05-20T10:47:14Z</time>
      </trkpt>
      <trkpt lat="43.81805" lon="5.33856">
        <ele>423</ele>
        <time>2014-05-20T10:47:16Z</time>
      </trkpt>
      <trkpt lat="43.81801" lon="5.33868">
        <ele>423</ele>
        <time>2014-05-20T10:47:24Z</time>
      </trkpt>
      <trkpt lat="43.81798" lon="5.33874">
        <ele>422</ele>
        <time>2014-05-20T10:47:28Z</time>
      </trkpt>
      <trkpt lat="43.81795" lon="5.33881">
        <ele>422</ele>
        <time>2014-05-20T10:47:33Z</time>
      </trkpt>
      <trkpt lat="43.81792" lon="5.33886">
        <ele>422</ele>
        <time>2014-05-20T10:47:37Z</time>
      </trkpt>
      <trkpt lat="43.8179" lon="5.33889">
        <ele>422</ele>
        <time>2014-05-20T10:47:40Z</time>
      </trkpt>
      <trkpt lat="43.81789" lon="5.33892">
        <ele>422</ele>
        <time>2014-05-20T10:47:42Z</time>
      </trkpt>
      <trkpt lat="43.81785" lon="5.33901">
        <ele>422</ele>
        <time>2014-05-20T10:47:49Z</time>
      </trkpt>
      <trkpt lat="43.81782" lon="5.33905">
        <ele>422</ele>
        <time>2014-05-20T10:47:53Z</time>
      </trkpt>
      <trkpt lat="43.81776" lon="5.33911">
        <ele>421</ele>
        <time>2014-05-20T10:48:00Z</time>
      </trkpt>
      <trkpt lat="43.81773" lon="5.33916">
        <ele>421</ele>
        <time>2014-05-20T10:48:04Z</time>
      </trkpt>
      <trkpt lat="43.8177" lon="5.33919">
        <ele>423</ele>
        <time>2014-05-20T10:48:07Z</time>
      </trkpt>
      <trkpt lat="43.81766" lon="5.33925">
        <ele>422</ele>
        <time>2014-05-20T10:48:10Z</time>
      </trkpt>
      <trkpt lat="43.81765" lon="5.33926">
        <ele>422</ele>
        <time>2014-05-20T10:48:11Z</time>
      </trkpt>
      <trkpt lat="43.81757" lon="5.33934">
        <ele>422</ele>
        <time>2014-05-20T10:48:21Z</time>
      </trkpt>
      <trkpt lat="43.81757" lon="5.33934">
        <ele>422</ele>
        <time>2014-05-20T10:48:22Z</time>
      </trkpt>
      <trkpt lat="43.81754" lon="5.33936">
        <ele>422</ele>
        <time>2014-05-20T10:48:27Z</time>
      </trkpt>
      <trkpt lat="43.81751" lon="5.33934">
        <ele>422</ele>
        <time>2014-05-20T10:48:48Z</time>
      </trkpt>
      <trkpt lat="43.8175" lon="5.33934">
        <ele>422</ele>
        <time>2014-05-20T10:48:51Z</time>
      </trkpt>
      <trkpt lat="43.81746" lon="5.3394">
        <ele>416</ele>
        <time>2014-05-20T10:48:58Z</time>
      </trkpt>
      <trkpt lat="43.81743" lon="5.33944">
        <ele>416</ele>
        <time>2014-05-20T10:49:02Z</time>
      </trkpt>
      <trkpt lat="43.81741" lon="5.33946">
        <ele>416</ele>
        <time>2014-05-20T10:49:04Z</time>
      </trkpt>
      <trkpt lat="43.81734" lon="5.33954">
        <ele>416</ele>
        <time>2014-05-20T10:49:11Z</time>
      </trkpt>
      <trkpt lat="43.81729" lon="5.33959">
        <ele>416</ele>
        <time>2014-05-20T10:49:16Z</time>
      </trkpt>
      <trkpt lat="43.81726" lon="5.33961">
        <ele>416</ele>
        <time>2014-05-20T10:49:19Z</time>
      </trkpt>
      <trkpt lat="43.81723" lon="5.33965">
        <ele>416</ele>
        <time>2014-05-20T10:49:22Z</time>
      </trkpt>
      <trkpt lat="43.81718" lon="5.33972">
        <ele>416</ele>
        <time>2014-05-20T10:49:28Z</time>
      </trkpt>
      <trkpt lat="43.81715" lon="5.33979">
        <ele>416</ele>
        <time>2014-05-20T10:49:32Z</time>
      </trkpt>
      <trkpt lat="43.81712" lon="5.33985">
        <ele>416</ele>
        <time>2014-05-20T10:49:37Z</time>
      </trkpt>
      <trkpt lat="43.81713" lon="5.33988">
        <ele>416</ele>
        <time>2014-05-20T10:49:39Z</time>
      </trkpt>
      <trkpt lat="43.81712" lon="5.3399">
        <ele>416</ele>
        <time>2014-05-20T10:49:42Z</time>
      </trkpt>
      <trkpt lat="43.81714" lon="5.34007">
        <ele>418</ele>
        <time>2014-05-20T10:49:56Z</time>
      </trkpt>
      <trkpt lat="43.81715" lon="5.34011">
        <ele>418</ele>
        <time>2014-05-20T10:49:59Z</time>
      </trkpt>
      <trkpt lat="43.81715" lon="5.34017">
        <ele>418</ele>
        <time>2014-05-20T10:50:03Z</time>
      </trkpt>
      <trkpt lat="43.81716" lon="5.34021">
        <ele>418</ele>
        <time>2014-05-20T10:50:06Z</time>
      </trkpt>
      <trkpt lat="43.81716" lon="5.34023">
        <ele>418</ele>
        <time>2014-05-20T10:50:08Z</time>
      </trkpt>
      <trkpt lat="43.81716" lon="5.34026">
        <ele>418</ele>
        <time>2014-05-20T10:50:10Z</time>
      </trkpt>
      <trkpt lat="43.81717" lon="5.3403">
        <ele>418</ele>
        <time>2014-05-20T10:50:13Z</time>
      </trkpt>
      <trkpt lat="43.81719" lon="5.34035">
        <ele>418</ele>
        <time>2014-05-20T10:50:17Z</time>
      </trkpt>
      <trkpt lat="43.81717" lon="5.34045">
        <ele>418</ele>
        <time>2014-05-20T10:50:25Z</time>
      </trkpt>
      <trkpt lat="43.81718" lon="5.34052">
        <ele>419</ele>
        <time>2014-05-20T10:50:30Z</time>
      </trkpt>
      <trkpt lat="43.81718" lon="5.34055">
        <ele>419</ele>
        <time>2014-05-20T10:50:32Z</time>
      </trkpt>
      <trkpt lat="43.81718" lon="5.34061">
        <ele>419</ele>
        <time>2014-05-20T10:50:36Z</time>
      </trkpt>
      <trkpt lat="43.81718" lon="5.34065">
        <ele>419</ele>
        <time>2014-05-20T10:50:39Z</time>
      </trkpt>
      <trkpt lat="43.81718" lon="5.34067">
        <ele>419</ele>
        <time>2014-05-20T10:50:40Z</time>
      </trkpt>
      <trkpt lat="43.81718" lon="5.34073">
        <ele>419</ele>
        <time>2014-05-20T10:50:44Z</time>
      </trkpt>
      <trkpt lat="43.81719" lon="5.34077">
        <ele>419</ele>
        <time>2014-05-20T10:50:47Z</time>
      </trkpt>
      <trkpt lat="43.81721" lon="5.34081">
        <ele>419</ele>
        <time>2014-05-20T10:50:50Z</time>
      </trkpt>
      <trkpt lat="43.81721" lon="5.34085">
        <ele>419</ele>
        <time>2014-05-20T10:50:53Z</time>
      </trkpt>
      <trkpt lat="43.81721" lon="5.34089">
        <ele>419</ele>
        <time>2014-05-20T10:50:56Z</time>
      </trkpt>
      <trkpt lat="43.81723" lon="5.34093">
        <ele>419</ele>
        <time>2014-05-20T10:51:00Z</time>
      </trkpt>
      <trkpt lat="43.81722" lon="5.34096">
        <ele>419</ele>
        <time>2014-05-20T10:51:04Z</time>
      </trkpt>
      <trkpt lat="43.81723" lon="5.34105">
        <ele>419</ele>
        <time>2014-05-20T10:51:11Z</time>
      </trkpt>
      <trkpt lat="43.81724" lon="5.3411">
        <ele>419</ele>
        <time>2014-05-20T10:51:15Z</time>
      </trkpt>
      <trkpt lat="43.81726" lon="5.34117">
        <ele>419</ele>
        <time>2014-05-20T10:51:21Z</time>
      </trkpt>
      <trkpt lat="43.81727" lon="5.34125">
        <ele>419</ele>
        <time>2014-05-20T10:51:27Z</time>
      </trkpt>
      <trkpt lat="43.81726" lon="5.34129">
        <ele>419</ele>
        <time>2014-05-20T10:51:30Z</time>
      </trkpt>
      <trkpt lat="43.81727" lon="5.34134">
        <ele>419</ele>
        <time>2014-05-20T10:51:34Z</time>
      </trkpt>
      <trkpt lat="43.81728" lon="5.34145">
        <ele>419</ele>
        <time>2014-05-20T10:51:41Z</time>
      </trkpt>
      <trkpt lat="43.81727" lon="5.34161">
        <ele>419</ele>
        <time>2014-05-20T10:51:52Z</time>
      </trkpt>
      <trkpt lat="43.81727" lon="5.34166">
        <ele>419</ele>
        <time>2014-05-20T10:51:57Z</time>
      </trkpt>
      <trkpt lat="43.81727" lon="5.34171">
        <ele>417</ele>
        <time>2014-05-20T10:52:00Z</time>
      </trkpt>
      <trkpt lat="43.81729" lon="5.34178">
        <ele>417</ele>
        <time>2014-05-20T10:52:05Z</time>
      </trkpt>
      <trkpt lat="43.81729" lon="5.34186">
        <ele>417</ele>
        <time>2014-05-20T10:52:10Z</time>
      </trkpt>
      <trkpt lat="43.81731" lon="5.34192">
        <ele>416</ele>
        <time>2014-05-20T10:52:15Z</time>
      </trkpt>
      <trkpt lat="43.81731" lon="5.34197">
        <ele>416</ele>
        <time>2014-05-20T10:52:19Z</time>
      </trkpt>
      <trkpt lat="43.81731" lon="5.34199">
        <ele>416</ele>
        <time>2014-05-20T10:52:20Z</time>
      </trkpt>
      <trkpt lat="43.81732" lon="5.34207">
        <ele>416</ele>
        <time>2014-05-20T10:52:26Z</time>
      </trkpt>
      <trkpt lat="43.81733" lon="5.3421">
        <ele>415</ele>
        <time>2014-05-20T10:52:29Z</time>
      </trkpt>
      <trkpt lat="43.81732" lon="5.34217">
        <ele>415</ele>
        <time>2014-05-20T10:52:34Z</time>
      </trkpt>
      <trkpt lat="43.81732" lon="5.34221">
        <ele>415</ele>
        <time>2014-05-20T10:52:37Z</time>
      </trkpt>
      <trkpt lat="43.81732" lon="5.34223">
        <ele>415</ele>
        <time>2014-05-20T10:52:39Z</time>
      </trkpt>
      <trkpt lat="43.81733" lon="5.34225">
        <ele>415</ele>
        <time>2014-05-20T10:52:41Z</time>
      </trkpt>
      <trkpt lat="43.81733" lon="5.34227">
        <ele>415</ele>
        <time>2014-05-20T10:52:42Z</time>
      </trkpt>
      <trkpt lat="43.81733" lon="5.34232">
        <ele>414</ele>
        <time>2014-05-20T10:52:46Z</time>
      </trkpt>
      <trkpt lat="43.81733" lon="5.34242">
        <ele>414</ele>
        <time>2014-05-20T10:52:54Z</time>
      </trkpt>
      <trkpt lat="43.81733" lon="5.34246">
        <ele>414</ele>
        <time>2014-05-20T10:52:57Z</time>
      </trkpt>
      <trkpt lat="43.81731" lon="5.34261">
        <ele>409</ele>
        <time>2014-05-20T10:53:10Z</time>
      </trkpt>
      <trkpt lat="43.81732" lon="5.34264">
        <ele>408</ele>
        <time>2014-05-20T10:53:13Z</time>
      </trkpt>
      <trkpt lat="43.81733" lon="5.34268">
        <ele>408</ele>
        <time>2014-05-20T10:53:16Z</time>
      </trkpt>
      <trkpt lat="43.81732" lon="5.34272">
        <ele>408</ele>
        <time>2014-05-20T10:53:20Z</time>
      </trkpt>
      <trkpt lat="43.81733" lon="5.34277">
        <ele>407</ele>
        <time>2014-05-20T10:53:26Z</time>
      </trkpt>
      <trkpt lat="43.81734" lon="5.34284">
        <ele>407</ele>
        <time>2014-05-20T10:53:32Z</time>
      </trkpt>
      <trkpt lat="43.81733" lon="5.34287">
        <ele>406</ele>
        <time>2014-05-20T10:53:35Z</time>
      </trkpt>
      <trkpt lat="43.81734" lon="5.34288">
        <ele>406</ele>
        <time>2014-05-20T10:53:37Z</time>
      </trkpt>
      <trkpt lat="43.81733" lon="5.3429">
        <ele>406</ele>
        <time>2014-05-20T10:53:40Z</time>
      </trkpt>
      <trkpt lat="43.81735" lon="5.34292">
        <ele>406</ele>
        <time>2014-05-20T10:53:44Z</time>
      </trkpt>
      <trkpt lat="43.81737" lon="5.34296">
        <ele>406</ele>
        <time>2014-05-20T10:53:49Z</time>
      </trkpt>
      <trkpt lat="43.81737" lon="5.34298">
        <ele>405</ele>
        <time>2014-05-20T10:53:51Z</time>
      </trkpt>
      <trkpt lat="43.81738" lon="5.34302">
        <ele>405</ele>
        <time>2014-05-20T10:53:57Z</time>
      </trkpt>
      <trkpt lat="43.81738" lon="5.34304">
        <ele>405</ele>
        <time>2014-05-20T10:54:00Z</time>
      </trkpt>
      <trkpt lat="43.81737" lon="5.34304">
        <ele>405</ele>
        <time>2014-05-20T10:54:03Z</time>
      </trkpt>
      <trkpt lat="43.81738" lon="5.34324">
        <ele>403</ele>
        <time>2014-05-20T10:54:12Z</time>
      </trkpt>
      <trkpt lat="43.81738" lon="5.34326">
        <ele>403</ele>
        <time>2014-05-20T10:54:17Z</time>
      </trkpt>
      <trkpt lat="43.8174" lon="5.34323">
        <ele>403</ele>
        <time>2014-05-20T10:54:22Z</time>
      </trkpt>
      <trkpt lat="43.81739" lon="5.34325">
        <ele>403</ele>
        <time>2014-05-20T10:54:28Z</time>
      </trkpt>
      <trkpt lat="43.81739" lon="5.34329">
        <ele>403</ele>
        <time>2014-05-20T10:54:32Z</time>
      </trkpt>
      <trkpt lat="43.81738" lon="5.34331">
        <ele>403</ele>
        <time>2014-05-20T10:54:35Z</time>
      </trkpt>
      <trkpt lat="43.81736" lon="5.34332">
        <ele>403</ele>
        <time>2014-05-20T10:54:38Z</time>
      </trkpt>
      <trkpt lat="43.81735" lon="5.34331">
        <ele>403</ele>
        <time>2014-05-20T10:54:46Z</time>
      </trkpt>
      <trkpt lat="43.81733" lon="5.34331">
        <ele>403</ele>
        <time>2014-05-20T10:54:54Z</time>
      </trkpt>
      <trkpt lat="43.81731" lon="5.34328">
        <ele>403</ele>
        <time>2014-05-20T10:55:01Z</time>
      </trkpt>
      <trkpt lat="43.81729" lon="5.34328">
        <ele>403</ele>
        <time>2014-05-20T10:55:04Z</time>
      </trkpt>
      <trkpt lat="43.81728" lon="5.3433">
        <ele>403</ele>
        <time>2014-05-20T10:55:06Z</time>
      </trkpt>
      <trkpt lat="43.81727" lon="5.34332">
        <ele>403</ele>
        <time>2014-05-20T10:55:08Z</time>
      </trkpt>
      <trkpt lat="43.81726" lon="5.34334">
        <ele>393</ele>
        <time>2014-05-20T10:55:10Z</time>
      </trkpt>
      <trkpt lat="43.81721" lon="5.34341">
        <ele>391</ele>
        <time>2014-05-20T10:55:17Z</time>
      </trkpt>
      <trkpt lat="43.81719" lon="5.34345">
        <ele>390</ele>
        <time>2014-05-20T10:55:22Z</time>
      </trkpt>
      <trkpt lat="43.81714" lon="5.34348">
        <ele>389</ele>
        <time>2014-05-20T10:55:28Z</time>
      </trkpt>
      <trkpt lat="43.81711" lon="5.3435">
        <ele>389</ele>
        <time>2014-05-20T10:55:31Z</time>
      </trkpt>
      <trkpt lat="43.81709" lon="5.34352">
        <ele>388</ele>
        <time>2014-05-20T10:55:34Z</time>
      </trkpt>
      <trkpt lat="43.81704" lon="5.34354">
        <ele>388</ele>
        <time>2014-05-20T10:55:41Z</time>
      </trkpt>
      <trkpt lat="43.81701" lon="5.34357">
        <ele>387</ele>
        <time>2014-05-20T10:55:46Z</time>
      </trkpt>
      <trkpt lat="43.817" lon="5.34359">
        <ele>387</ele>
        <time>2014-05-20T10:55:56Z</time>
      </trkpt>
      <trkpt lat="43.81701" lon="5.3436">
        <ele>387</ele>
        <time>2014-05-20T10:56:11Z</time>
      </trkpt>
      <trkpt lat="43.817" lon="5.3436">
        <ele>387</ele>
        <time>2014-05-20T10:56:17Z</time>
      </trkpt>
      <trkpt lat="43.81701" lon="5.34359">
        <ele>387</ele>
        <time>2014-05-20T10:56:28Z</time>
      </trkpt>
      <trkpt lat="43.81702" lon="5.34361">
        <ele>387</ele>
        <time>2014-05-20T10:56:42Z</time>
      </trkpt>
      <trkpt lat="43.81703" lon="5.34361">
        <ele>387</ele>
        <time>2014-05-20T10:56:55Z</time>
      </trkpt>
      <trkpt lat="43.81702" lon="5.3436">
        <ele>387</ele>
        <time>2014-05-20T10:57:21Z</time>
      </trkpt>
      <trkpt lat="43.81704" lon="5.34363">
        <ele>387</ele>
        <time>2014-05-20T10:57:45Z</time>
      </trkpt>
      <trkpt lat="43.81705" lon="5.34364">
        <ele>387</ele>
        <time>2014-05-20T10:58:02Z</time>
      </trkpt>
      <trkpt lat="43.81706" lon="5.34361">
        <ele>387</ele>
        <time>2014-05-20T10:58:10Z</time>
      </trkpt>
      <trkpt lat="43.81707" lon="5.34358">
        <ele>388</ele>
        <time>2014-05-20T10:58:13Z</time>
      </trkpt>
      <trkpt lat="43.81707" lon="5.34357">
        <ele>388</ele>
        <time>2014-05-20T10:58:14Z</time>
      </trkpt>
      <trkpt lat="43.81707" lon="5.34355">
        <ele>388</ele>
        <time>2014-05-20T10:58:17Z</time>
      </trkpt>
      <trkpt lat="43.81706" lon="5.34354">
        <ele>388</ele>
        <time>2014-05-20T10:58:18Z</time>
      </trkpt>
      <trkpt lat="43.81705" lon="5.34352">
        <ele>388</ele>
        <time>2014-05-20T10:58:22Z</time>
      </trkpt>
      <trkpt lat="43.817" lon="5.3435">
        <ele>388</ele>
        <time>2014-05-20T10:58:30Z</time>
      </trkpt>
      <trkpt lat="43.81698" lon="5.34351">
        <ele>388</ele>
        <time>2014-05-20T10:58:33Z</time>
      </trkpt>
      <trkpt lat="43.81697" lon="5.34352">
        <ele>388</ele>
        <time>2014-05-20T10:58:36Z</time>
      </trkpt>
      <trkpt lat="43.81697" lon="5.34349">
        <ele>388</ele>
        <time>2014-05-20T10:58:43Z</time>
      </trkpt>
      <trkpt lat="43.81696" lon="5.34347">
        <ele>389</ele>
        <time>2014-05-20T10:58:49Z</time>
      </trkpt>
      <trkpt lat="43.81695" lon="5.34346">
        <ele>389</ele>
        <time>2014-05-20T10:58:56Z</time>
      </trkpt>
      <trkpt lat="43.81695" lon="5.34346">
        <ele>389</ele>
        <time>2014-05-20T10:58:59Z</time>
      </trkpt>
      <trkpt lat="43.81694" lon="5.34346">
        <ele>389</ele>
        <time>2014-05-20T10:59:01Z</time>
      </trkpt>
      <trkpt lat="43.81694" lon="5.34347">
        <ele>389</ele>
        <time>2014-05-20T10:59:04Z</time>
      </trkpt>
      <trkpt lat="43.81694" lon="5.34348">
        <ele>388</ele>
        <time>2014-05-20T10:59:09Z</time>
      </trkpt>
      <trkpt lat="43.81692" lon="5.34349">
        <ele>388</ele>
        <time>2014-05-20T10:59:18Z</time>
      </trkpt>
      <trkpt lat="43.81693" lon="5.34349">
        <ele>388</ele>
        <time>2014-05-20T10:59:20Z</time>
      </trkpt>
      <trkpt lat="43.81693" lon="5.34351">
        <ele>388</ele>
        <time>2014-05-20T10:59:26Z</time>
      </trkpt>
      <trkpt lat="43.81695" lon="5.34352">
        <ele>388</ele>
        <time>2014-05-20T10:59:33Z</time>
      </trkpt>
      <trkpt lat="43.81696" lon="5.34353">
        <ele>388</ele>
        <time>2014-05-20T10:59:40Z</time>
      </trkpt>
      <trkpt lat="43.81697" lon="5.34352">
        <ele>388</ele>
        <time>2014-05-20T10:59:43Z</time>
      </trkpt>
      <trkpt lat="43.81696" lon="5.34351">
        <ele>388</ele>
        <time>2014-05-20T10:59:48Z</time>
      </trkpt>
      <trkpt lat="43.81697" lon="5.34351">
        <ele>388</ele>
        <time>2014-05-20T10:59:51Z</time>
      </trkpt>
      <trkpt lat="43.81697" lon="5.3435">
        <ele>388</ele>
        <time>2014-05-20T10:59:59Z</time>
      </trkpt>
      <trkpt lat="43.81697" lon="5.3435">
        <ele>388</ele>
        <time>2014-05-20T11:00:04Z</time>
      </trkpt>
      <trkpt lat="43.81696" lon="5.34351">
        <ele>388</ele>
        <time>2014-05-20T11:00:09Z</time>
      </trkpt>
      <trkpt lat="43.81691" lon="5.34349">
        <ele>388</ele>
        <time>2014-05-20T11:00:16Z</time>
      </trkpt>
      <trkpt lat="43.81691" lon="5.34347">
        <ele>389</ele>
        <time>2014-05-20T11:00:20Z</time>
      </trkpt>
      <trkpt lat="43.81691" lon="5.34346">
        <ele>389</ele>
        <time>2014-05-20T11:00:21Z</time>
      </trkpt>
      <trkpt lat="43.81686" lon="5.34344">
        <ele>389</ele>
        <time>2014-05-20T11:00:29Z</time>
      </trkpt>
      <trkpt lat="43.81685" lon="5.34344">
        <ele>389</ele>
        <time>2014-05-20T11:00:31Z</time>
      </trkpt>
      <trkpt lat="43.81685" lon="5.34345">
        <ele>389</ele>
        <time>2014-05-20T11:00:33Z</time>
      </trkpt>
      <trkpt lat="43.81685" lon="5.34344">
        <ele>389</ele>
        <time>2014-05-20T11:00:35Z</time>
      </trkpt>
      <trkpt lat="43.81685" lon="5.34343">
        <ele>389</ele>
        <time>2014-05-20T11:00:37Z</time>
      </trkpt>
      <trkpt lat="43.81684" lon="5.34343">
        <ele>390</ele>
        <time>2014-05-20T11:00:39Z</time>
      </trkpt>
      <trkpt lat="43.81683" lon="5.34345">
        <ele>389</ele>
        <time>2014-05-20T11:00:44Z</time>
      </trkpt>
      <trkpt lat="43.81682" lon="5.34347">
        <ele>389</ele>
        <time>2014-05-20T11:00:47Z</time>
      </trkpt>
      <trkpt lat="43.81682" lon="5.34348">
        <ele>389</ele>
        <time>2014-05-20T11:00:49Z</time>
      </trkpt>
      <trkpt lat="43.81682" lon="5.34349">
        <ele>389</ele>
        <time>2014-05-20T11:00:51Z</time>
      </trkpt>
      <trkpt lat="43.81682" lon="5.34352">
        <ele>388</ele>
        <time>2014-05-20T11:00:55Z</time>
      </trkpt>
      <trkpt lat="43.81681" lon="5.34356">
        <ele>387</ele>
        <time>2014-05-20T11:00:59Z</time>
      </trkpt>
      <trkpt lat="43.81679" lon="5.34359">
        <ele>387</ele>
        <time>2014-05-20T11:01:07Z</time>
      </trkpt>
      <trkpt lat="43.81678" lon="5.34364">
        <ele>386</ele>
        <time>2014-05-20T11:01:12Z</time>
      </trkpt>
      <trkpt lat="43.81678" lon="5.34367">
        <ele>385</ele>
        <time>2014-05-20T11:01:15Z</time>
      </trkpt>
      <trkpt lat="43.81679" lon="5.34369">
        <ele>384</ele>
        <time>2014-05-20T11:01:19Z</time>
      </trkpt>
      <trkpt lat="43.81682" lon="5.3437">
        <ele>384</ele>
        <time>2014-05-20T11:01:26Z</time>
      </trkpt>
      <trkpt lat="43.81683" lon="5.3437">
        <ele>384</ele>
        <time>2014-05-20T11:01:27Z</time>
      </trkpt>
      <trkpt lat="43.81683" lon="5.34371">
        <ele>384</ele>
        <time>2014-05-20T11:01:28Z</time>
      </trkpt>
      <trkpt lat="43.81684" lon="5.34371">
        <ele>384</ele>
        <time>2014-05-20T11:01:29Z</time>
      </trkpt>
      <trkpt lat="43.81684" lon="5.3437">
        <ele>384</ele>
        <time>2014-05-20T11:01:30Z</time>
      </trkpt>
      <trkpt lat="43.81685" lon="5.3437">
        <ele>384</ele>
        <time>2014-05-20T11:01:32Z</time>
      </trkpt>
      <trkpt lat="43.81685" lon="5.34372">
        <ele>384</ele>
        <time>2014-05-20T11:01:35Z</time>
      </trkpt>
      <trkpt lat="43.81684" lon="5.34374">
        <ele>383</ele>
        <time>2014-05-20T11:01:38Z</time>
      </trkpt>
      <trkpt lat="43.81684" lon="5.34377">
        <ele>382</ele>
        <time>2014-05-20T11:01:41Z</time>
      </trkpt>
      <trkpt lat="43.81684" lon="5.34379">
        <ele>382</ele>
        <time>2014-05-20T11:01:43Z</time>
      </trkpt>
      <trkpt lat="43.81685" lon="5.3438">
        <ele>382</ele>
        <time>2014-05-20T11:01:45Z</time>
      </trkpt>
      <trkpt lat="43.81686" lon="5.34381">
        <ele>382</ele>
        <time>2014-05-20T11:01:47Z</time>
      </trkpt>
      <trkpt lat="43.81685" lon="5.34385">
        <ele>380</ele>
        <time>2014-05-20T11:01:51Z</time>
      </trkpt>
      <trkpt lat="43.81686" lon="5.34388">
        <ele>380</ele>
        <time>2014-05-20T11:01:54Z</time>
      </trkpt>
      <trkpt lat="43.81688" lon="5.34392">
        <ele>379</ele>
        <time>2014-05-20T11:01:59Z</time>
      </trkpt>
      <trkpt lat="43.81688" lon="5.34393">
        <ele>379</ele>
        <time>2014-05-20T11:02:00Z</time>
      </trkpt>
      <trkpt lat="43.81687" lon="5.34396">
        <ele>378</ele>
        <time>2014-05-20T11:02:02Z</time>
      </trkpt>
      <trkpt lat="43.81685" lon="5.34399">
        <ele>376</ele>
        <time>2014-05-20T11:02:06Z</time>
      </trkpt>
      <trkpt lat="43.81681" lon="5.34404">
        <ele>374</ele>
        <time>2014-05-20T11:02:12Z</time>
      </trkpt>
      <trkpt lat="43.81679" lon="5.34405">
        <ele>373</ele>
        <time>2014-05-20T11:02:15Z</time>
      </trkpt>
      <trkpt lat="43.81678" lon="5.34407">
        <ele>372</ele>
        <time>2014-05-20T11:02:18Z</time>
      </trkpt>
      <trkpt lat="43.81675" lon="5.34409">
        <ele>369</ele>
        <time>2014-05-20T11:02:21Z</time>
      </trkpt>
      <trkpt lat="43.81675" lon="5.3441">
        <ele>369</ele>
        <time>2014-05-20T11:02:22Z</time>
      </trkpt>
      <trkpt lat="43.81675" lon="5.34412">
        <ele>368</ele>
        <time>2014-05-20T11:02:24Z</time>
      </trkpt>
      <trkpt lat="43.81675" lon="5.34415">
        <ele>367</ele>
        <time>2014-05-20T11:02:26Z</time>
      </trkpt>
      <trkpt lat="43.81672" lon="5.34419">
        <ele>360</ele>
        <time>2014-05-20T11:02:30Z</time>
      </trkpt>
      <trkpt lat="43.81671" lon="5.3442">
        <ele>360</ele>
        <time>2014-05-20T11:02:31Z</time>
      </trkpt>
      <trkpt lat="43.81672" lon="5.34424">
        <ele>360</ele>
        <time>2014-05-20T11:02:35Z</time>
      </trkpt>
      <trkpt lat="43.81673" lon="5.34427">
        <ele>360</ele>
        <time>2014-05-20T11:02:39Z</time>
      </trkpt>
      <trkpt lat="43.81672" lon="5.34427">
        <ele>360</ele>
        <time>2014-05-20T11:02:41Z</time>
      </trkpt>
      <trkpt lat="43.81673" lon="5.34428">
        <ele>360</ele>
        <time>2014-05-20T11:02:42Z</time>
      </trkpt>
      <trkpt lat="43.81673" lon="5.34431">
        <ele>360</ele>
        <time>2014-05-20T11:02:46Z</time>
      </trkpt>
      <trkpt lat="43.81674" lon="5.34432">
        <ele>360</ele>
        <time>2014-05-20T11:02:49Z</time>
      </trkpt>
      <trkpt lat="43.81674" lon="5.34435">
        <ele>360</ele>
        <time>2014-05-20T11:02:52Z</time>
      </trkpt>
      <trkpt lat="43.81673" lon="5.34437">
        <ele>360</ele>
        <time>2014-05-20T11:02:54Z</time>
      </trkpt>
      <trkpt lat="43.81675" lon="5.34442">
        <ele>359</ele>
        <time>2014-05-20T11:02:59Z</time>
      </trkpt>
      <trkpt lat="43.81676" lon="5.34446">
        <ele>359</ele>
        <time>2014-05-20T11:03:02Z</time>
      </trkpt>
      <trkpt lat="43.81678" lon="5.3445">
        <ele>359</ele>
        <time>2014-05-20T11:03:05Z</time>
      </trkpt>
      <trkpt lat="43.81681" lon="5.34454">
        <ele>358</ele>
        <time>2014-05-20T11:03:09Z</time>
      </trkpt>
      <trkpt lat="43.81681" lon="5.34456">
        <ele>358</ele>
        <time>2014-05-20T11:03:11Z</time>
      </trkpt>
      <trkpt lat="43.81682" lon="5.34458">
        <ele>358</ele>
        <time>2014-05-20T11:03:14Z</time>
      </trkpt>
      <trkpt lat="43.81682" lon="5.3446">
        <ele>358</ele>
        <time>2014-05-20T11:03:15Z</time>
      </trkpt>
      <trkpt lat="43.81683" lon="5.34465">
        <ele>357</ele>
        <time>2014-05-20T11:03:19Z</time>
      </trkpt>
      <trkpt lat="43.81683" lon="5.3447">
        <ele>356</ele>
        <time>2014-05-20T11:03:23Z</time>
      </trkpt>
      <trkpt lat="43.81682" lon="5.34475">
        <ele>355</ele>
        <time>2014-05-20T11:03:30Z</time>
      </trkpt>
      <trkpt lat="43.81679" lon="5.34478">
        <ele>353</ele>
        <time>2014-05-20T11:03:50Z</time>
      </trkpt>
      <trkpt lat="43.81678" lon="5.34478">
        <ele>353</ele>
        <time>2014-05-20T11:03:54Z</time>
      </trkpt>
      <trkpt lat="43.81678" lon="5.3448">
        <ele>353</ele>
        <time>2014-05-20T11:04:07Z</time>
      </trkpt>
      <trkpt lat="43.81676" lon="5.3448">
        <ele>352</ele>
        <time>2014-05-20T11:04:17Z</time>
      </trkpt>
      <trkpt lat="43.81673" lon="5.3448">
        <ele>352</ele>
        <time>2014-05-20T11:04:29Z</time>
      </trkpt>
      <trkpt lat="43.81672" lon="5.34481">
        <ele>352</ele>
        <time>2014-05-20T11:04:35Z</time>
      </trkpt>
      <trkpt lat="43.81671" lon="5.34483">
        <ele>351</ele>
        <time>2014-05-20T11:04:41Z</time>
      </trkpt>
      <trkpt lat="43.81671" lon="5.34488">
        <ele>349</ele>
        <time>2014-05-20T11:04:45Z</time>
      </trkpt>
      <trkpt lat="43.81675" lon="5.34496">
        <ele>347</ele>
        <time>2014-05-20T11:04:51Z</time>
      </trkpt>
      <trkpt lat="43.81678" lon="5.34499">
        <ele>348</ele>
        <time>2014-05-20T11:04:54Z</time>
      </trkpt>
      <trkpt lat="43.81679" lon="5.34502">
        <ele>343</ele>
        <time>2014-05-20T11:04:56Z</time>
      </trkpt>
      <trkpt lat="43.81682" lon="5.34504">
        <ele>343</ele>
        <time>2014-05-20T11:04:59Z</time>
      </trkpt>
      <trkpt lat="43.81687" lon="5.34507">
        <ele>344</ele>
        <time>2014-05-20T11:05:03Z</time>
      </trkpt>
      <trkpt lat="43.8169" lon="5.34512">
        <ele>344</ele>
        <time>2014-05-20T11:05:07Z</time>
      </trkpt>
      <trkpt lat="43.8169" lon="5.34512">
        <ele>344</ele>
        <time>2014-05-20T11:05:08Z</time>
      </trkpt>
      <trkpt lat="43.81692" lon="5.34513">
        <ele>344</ele>
        <time>2014-05-20T11:05:11Z</time>
      </trkpt>
      <trkpt lat="43.81694" lon="5.34515">
        <ele>344</ele>
        <time>2014-05-20T11:05:14Z</time>
      </trkpt>
      <trkpt lat="43.81696" lon="5.34517">
        <ele>345</ele>
        <time>2014-05-20T11:05:16Z</time>
      </trkpt>
      <trkpt lat="43.81701" lon="5.34523">
        <ele>345</ele>
        <time>2014-05-20T11:05:22Z</time>
      </trkpt>
      <trkpt lat="43.81704" lon="5.3453">
        <ele>345</ele>
        <time>2014-05-20T11:05:27Z</time>
      </trkpt>
      <trkpt lat="43.81709" lon="5.34537">
        <ele>345</ele>
        <time>2014-05-20T11:05:33Z</time>
      </trkpt>
      <trkpt lat="43.81712" lon="5.34546">
        <ele>344</ele>
        <time>2014-05-20T11:05:39Z</time>
      </trkpt>
      <trkpt lat="43.81716" lon="5.34556">
        <ele>344</ele>
        <time>2014-05-20T11:05:47Z</time>
      </trkpt>
      <trkpt lat="43.81718" lon="5.34558">
        <ele>344</ele>
        <time>2014-05-20T11:05:49Z</time>
      </trkpt>
      <trkpt lat="43.81719" lon="5.34559">
        <ele>344</ele>
        <time>2014-05-20T11:05:51Z</time>
      </trkpt>
      <trkpt lat="43.8172" lon="5.34561">
        <ele>344</ele>
        <time>2014-05-20T11:05:53Z</time>
      </trkpt>
      <trkpt lat="43.81723" lon="5.34563">
        <ele>344</ele>
        <time>2014-05-20T11:05:56Z</time>
      </trkpt>
      <trkpt lat="43.81725" lon="5.34564">
        <ele>344</ele>
        <time>2014-05-20T11:05:58Z</time>
      </trkpt>
      <trkpt lat="43.81727" lon="5.34566">
        <ele>344</ele>
        <time>2014-05-20T11:06:01Z</time>
      </trkpt>
      <trkpt lat="43.81732" lon="5.34572">
        <ele>344</ele>
        <time>2014-05-20T11:06:07Z</time>
      </trkpt>
      <trkpt lat="43.81733" lon="5.34578">
        <ele>344</ele>
        <time>2014-05-20T11:06:10Z</time>
      </trkpt>
      <trkpt lat="43.81736" lon="5.34584">
        <ele>340</ele>
        <time>2014-05-20T11:06:14Z</time>
      </trkpt>
      <trkpt lat="43.81738" lon="5.34592">
        <ele>340</ele>
        <time>2014-05-20T11:06:18Z</time>
      </trkpt>
      <trkpt lat="43.81743" lon="5.34608">
        <ele>338</ele>
        <time>2014-05-20T11:06:27Z</time>
      </trkpt>
      <trkpt lat="43.81746" lon="5.34617">
        <ele>338</ele>
        <time>2014-05-20T11:06:32Z</time>
      </trkpt>
      <trkpt lat="43.81749" lon="5.34623">
        <ele>337</ele>
        <time>2014-05-20T11:06:36Z</time>
      </trkpt>
      <trkpt lat="43.8175" lon="5.3463">
        <ele>344</ele>
        <time>2014-05-20T11:06:40Z</time>
      </trkpt>
      <trkpt lat="43.81753" lon="5.34637">
        <ele>343</ele>
        <time>2014-05-20T11:06:45Z</time>
      </trkpt>
      <trkpt lat="43.81754" lon="5.34643">
        <ele>342</ele>
        <time>2014-05-20T11:06:50Z</time>
      </trkpt>
      <trkpt lat="43.81756" lon="5.34646">
        <ele>342</ele>
        <time>2014-05-20T11:06:53Z</time>
      </trkpt>
      <trkpt lat="43.81756" lon="5.3465">
        <ele>341</ele>
        <time>2014-05-20T11:06:55Z</time>
      </trkpt>
      <trkpt lat="43.81758" lon="5.34658">
        <ele>340</ele>
        <time>2014-05-20T11:07:00Z</time>
      </trkpt>
      <trkpt lat="43.81758" lon="5.34666">
        <ele>339</ele>
        <time>2014-05-20T11:07:04Z</time>
      </trkpt>
      <trkpt lat="43.8176" lon="5.34673">
        <ele>338</ele>
        <time>2014-05-20T11:07:08Z</time>
      </trkpt>
      <trkpt lat="43.81761" lon="5.34693">
        <ele>338</ele>
        <time>2014-05-20T11:07:18Z</time>
      </trkpt>
      <trkpt lat="43.81762" lon="5.34698">
        <ele>338</ele>
        <time>2014-05-20T11:07:21Z</time>
      </trkpt>
      <trkpt lat="43.81761" lon="5.34702">
        <ele>338</ele>
        <time>2014-05-20T11:07:23Z</time>
      </trkpt>
      <trkpt lat="43.81761" lon="5.34709">
        <ele>338</ele>
        <time>2014-05-20T11:07:27Z</time>
      </trkpt>
      <trkpt lat="43.81758" lon="5.34717">
        <ele>337</ele>
        <time>2014-05-20T11:07:32Z</time>
      </trkpt>
      <trkpt lat="43.81753" lon="5.34729">
        <ele>336</ele>
        <time>2014-05-20T11:07:40Z</time>
      </trkpt>
      <trkpt lat="43.81749" lon="5.34737">
        <ele>329</ele>
        <time>2014-05-20T11:07:46Z</time>
      </trkpt>
      <trkpt lat="43.81742" lon="5.3476">
        <ele>326</ele>
        <time>2014-05-20T11:08:00Z</time>
      </trkpt>
      <trkpt lat="43.81739" lon="5.34773">
        <ele>323</ele>
        <time>2014-05-20T11:08:07Z</time>
      </trkpt>
      <trkpt lat="43.81736" lon="5.3479">
        <ele>321</ele>
        <time>2014-05-20T11:08:17Z</time>
      </trkpt>
      <trkpt lat="43.81736" lon="5.34795">
        <ele>321</ele>
        <time>2014-05-20T11:08:20Z</time>
      </trkpt>
      <trkpt lat="43.81737" lon="5.34798">
        <ele>320</ele>
        <time>2014-05-20T11:08:22Z</time>
      </trkpt>
      <trkpt lat="43.81737" lon="5.34809">
        <ele>320</ele>
        <time>2014-05-20T11:08:30Z</time>
      </trkpt>
      <trkpt lat="43.81737" lon="5.34816">
        <ele>320</ele>
        <time>2014-05-20T11:08:36Z</time>
      </trkpt>
      <trkpt lat="43.81737" lon="5.34827">
        <ele>320</ele>
        <time>2014-05-20T11:08:43Z</time>
      </trkpt>
      <trkpt lat="43.81737" lon="5.34832">
        <ele>320</ele>
        <time>2014-05-20T11:08:46Z</time>
      </trkpt>
      <trkpt lat="43.81738" lon="5.34835">
        <ele>318</ele>
        <time>2014-05-20T11:08:48Z</time>
      </trkpt>
      <trkpt lat="43.81737" lon="5.34853">
        <ele>317</ele>
        <time>2014-05-20T11:08:59Z</time>
      </trkpt>
      <trkpt lat="43.81738" lon="5.34865">
        <ele>316</ele>
        <time>2014-05-20T11:09:05Z</time>
      </trkpt>
      <trkpt lat="43.8174" lon="5.34878">
        <ele>316</ele>
        <time>2014-05-20T11:09:13Z</time>
      </trkpt>
      <trkpt lat="43.81742" lon="5.34881">
        <ele>316</ele>
        <time>2014-05-20T11:09:15Z</time>
      </trkpt>
      <trkpt lat="43.81745" lon="5.34892">
        <ele>315</ele>
        <time>2014-05-20T11:09:22Z</time>
      </trkpt>
      <trkpt lat="43.81748" lon="5.34897">
        <ele>315</ele>
        <time>2014-05-20T11:09:25Z</time>
      </trkpt>
      <trkpt lat="43.81749" lon="5.349">
        <ele>315</ele>
        <time>2014-05-20T11:09:27Z</time>
      </trkpt>
      <trkpt lat="43.81751" lon="5.34903">
        <ele>318</ele>
        <time>2014-05-20T11:09:29Z</time>
      </trkpt>
      <trkpt lat="43.81752" lon="5.34906">
        <ele>317</ele>
        <time>2014-05-20T11:09:31Z</time>
      </trkpt>
      <trkpt lat="43.81752" lon="5.34909">
        <ele>316</ele>
        <time>2014-05-20T11:09:34Z</time>
      </trkpt>
      <trkpt lat="43.81753" lon="5.34912">
        <ele>316</ele>
        <time>2014-05-20T11:09:37Z</time>
      </trkpt>
      <trkpt lat="43.81756" lon="5.34916">
        <ele>316</ele>
        <time>2014-05-20T11:09:40Z</time>
      </trkpt>
      <trkpt lat="43.81757" lon="5.34918">
        <ele>315</ele>
        <time>2014-05-20T11:09:41Z</time>
      </trkpt>
      <trkpt lat="43.81764" lon="5.34927">
        <ele>316</ele>
        <time>2014-05-20T11:09:49Z</time>
      </trkpt>
      <trkpt lat="43.81768" lon="5.34931">
        <ele>316</ele>
        <time>2014-05-20T11:09:53Z</time>
      </trkpt>
      <trkpt lat="43.8177" lon="5.34932">
        <ele>316</ele>
        <time>2014-05-20T11:09:55Z</time>
      </trkpt>
      <trkpt lat="43.81773" lon="5.34937">
        <ele>316</ele>
        <time>2014-05-20T11:09:59Z</time>
      </trkpt>
      <trkpt lat="43.81777" lon="5.34942">
        <ele>317</ele>
        <time>2014-05-20T11:10:03Z</time>
      </trkpt>
      <trkpt lat="43.81782" lon="5.34952">
        <ele>317</ele>
        <time>2014-05-20T11:10:08Z</time>
      </trkpt>
      <trkpt lat="43.81783" lon="5.34956">
        <ele>317</ele>
        <time>2014-05-20T11:10:10Z</time>
      </trkpt>
      <trkpt lat="43.81788" lon="5.34969">
        <ele>317</ele>
        <time>2014-05-20T11:10:19Z</time>
      </trkpt>
      <trkpt lat="43.81792" lon="5.34975">
        <ele>317</ele>
        <time>2014-05-20T11:10:24Z</time>
      </trkpt>
      <trkpt lat="43.818" lon="5.35">
        <ele>317</ele>
        <time>2014-05-20T11:10:39Z</time>
      </trkpt>
      <trkpt lat="43.81803" lon="5.35006">
        <ele>316</ele>
        <time>2014-05-20T11:10:43Z</time>
      </trkpt>
      <trkpt lat="43.81804" lon="5.35007">
        <ele>316</ele>
        <time>2014-05-20T11:10:44Z</time>
      </trkpt>
      <trkpt lat="43.81808" lon="5.3502">
        <ele>316</ele>
        <time>2014-05-20T11:10:52Z</time>
      </trkpt>
      <trkpt lat="43.81811" lon="5.35028">
        <ele>316</ele>
        <time>2014-05-20T11:10:57Z</time>
      </trkpt>
      <trkpt lat="43.81814" lon="5.35035">
        <ele>316</ele>
        <time>2014-05-20T11:11:02Z</time>
      </trkpt>
      <trkpt lat="43.81814" lon="5.35041">
        <ele>316</ele>
        <time>2014-05-20T11:11:06Z</time>
      </trkpt>
      <trkpt lat="43.81815" lon="5.35043">
        <ele>316</ele>
        <time>2014-05-20T11:11:08Z</time>
      </trkpt>
      <trkpt lat="43.81821" lon="5.3506">
        <ele>316</ele>
        <time>2014-05-20T11:11:20Z</time>
      </trkpt>
      <trkpt lat="43.81829" lon="5.35084">
        <ele>315</ele>
        <time>2014-05-20T11:11:35Z</time>
      </trkpt>
      <trkpt lat="43.81831" lon="5.35093">
        <ele>316</ele>
        <time>2014-05-20T11:11:41Z</time>
      </trkpt>
      <trkpt lat="43.81835" lon="5.35105">
        <ele>316</ele>
        <time>2014-05-20T11:11:50Z</time>
      </trkpt>
      <trkpt lat="43.81839" lon="5.35124">
        <ele>317</ele>
        <time>2014-05-20T11:12:01Z</time>
      </trkpt>
      <trkpt lat="43.81841" lon="5.35131">
        <ele>317</ele>
        <time>2014-05-20T11:12:06Z</time>
      </trkpt>
      <trkpt lat="43.81843" lon="5.3514">
        <ele>317</ele>
        <time>2014-05-20T11:12:12Z</time>
      </trkpt>
      <trkpt lat="43.81844" lon="5.35145">
        <ele>317</ele>
        <time>2014-05-20T11:12:15Z</time>
      </trkpt>
      <trkpt lat="43.81845" lon="5.3515">
        <ele>317</ele>
        <time>2014-05-20T11:12:18Z</time>
      </trkpt>
      <trkpt lat="43.81844" lon="5.35157">
        <ele>317</ele>
        <time>2014-05-20T11:12:23Z</time>
      </trkpt>
      <trkpt lat="43.81845" lon="5.35161">
        <ele>317</ele>
        <time>2014-05-20T11:12:27Z</time>
      </trkpt>
      <trkpt lat="43.81848" lon="5.35171">
        <ele>318</ele>
        <time>2014-05-20T11:12:35Z</time>
      </trkpt>
      <trkpt lat="43.81848" lon="5.35182">
        <ele>319</ele>
        <time>2014-05-20T11:12:42Z</time>
      </trkpt>
      <trkpt lat="43.81849" lon="5.35196">
        <ele>320</ele>
        <time>2014-05-20T11:12:50Z</time>
      </trkpt>
      <trkpt lat="43.81857" lon="5.3522">
        <ele>320</ele>
        <time>2014-05-20T11:13:05Z</time>
      </trkpt>
      <trkpt lat="43.81859" lon="5.35229">
        <ele>321</ele>
        <time>2014-05-20T11:13:10Z</time>
      </trkpt>
      <trkpt lat="43.8186" lon="5.35232">
        <ele>321</ele>
        <time>2014-05-20T11:13:12Z</time>
      </trkpt>
      <trkpt lat="43.81862" lon="5.35236">
        <ele>321</ele>
        <time>2014-05-20T11:13:15Z</time>
      </trkpt>
      <trkpt lat="43.81865" lon="5.3524">
        <ele>321</ele>
        <time>2014-05-20T11:13:18Z</time>
      </trkpt>
      <trkpt lat="43.81867" lon="5.35243">
        <ele>321</ele>
        <time>2014-05-20T11:13:20Z</time>
      </trkpt>
      <trkpt lat="43.81868" lon="5.35247">
        <ele>321</ele>
        <time>2014-05-20T11:13:23Z</time>
      </trkpt>
      <trkpt lat="43.8187" lon="5.35249">
        <ele>321</ele>
        <time>2014-05-20T11:13:25Z</time>
      </trkpt>
      <trkpt lat="43.81871" lon="5.35254">
        <ele>323</ele>
        <time>2014-05-20T11:13:28Z</time>
      </trkpt>
      <trkpt lat="43.81872" lon="5.35257">
        <ele>324</ele>
        <time>2014-05-20T11:13:30Z</time>
      </trkpt>
      <trkpt lat="43.81875" lon="5.35262">
        <ele>324</ele>
        <time>2014-05-20T11:13:34Z</time>
      </trkpt>
      <trkpt lat="43.81878" lon="5.35274">
        <ele>324</ele>
        <time>2014-05-20T11:13:42Z</time>
      </trkpt>
      <trkpt lat="43.81878" lon="5.35275">
        <ele>324</ele>
        <time>2014-05-20T11:13:43Z</time>
      </trkpt>
      <trkpt lat="43.81879" lon="5.35278">
        <ele>324</ele>
        <time>2014-05-20T11:13:45Z</time>
      </trkpt>
      <trkpt lat="43.81881" lon="5.35282">
        <ele>324</ele>
        <time>2014-05-20T11:13:48Z</time>
      </trkpt>
      <trkpt lat="43.81883" lon="5.35293">
        <ele>325</ele>
        <time>2014-05-20T11:13:55Z</time>
      </trkpt>
      <trkpt lat="43.81884" lon="5.35296">
        <ele>325</ele>
        <time>2014-05-20T11:13:57Z</time>
      </trkpt>
      <trkpt lat="43.81886" lon="5.35301">
        <ele>325</ele>
        <time>2014-05-20T11:14:00Z</time>
      </trkpt>
      <trkpt lat="43.81888" lon="5.35307">
        <ele>325</ele>
        <time>2014-05-20T11:14:03Z</time>
      </trkpt>
      <trkpt lat="43.8189" lon="5.35311">
        <ele>325</ele>
        <time>2014-05-20T11:14:06Z</time>
      </trkpt>
      <trkpt lat="43.81891" lon="5.35316">
        <ele>325</ele>
        <time>2014-05-20T11:14:10Z</time>
      </trkpt>
      <trkpt lat="43.81895" lon="5.35321">
        <ele>325</ele>
        <time>2014-05-20T11:14:14Z</time>
      </trkpt>
      <trkpt lat="43.81896" lon="5.35324">
        <ele>325</ele>
        <time>2014-05-20T11:14:17Z</time>
      </trkpt>
      <trkpt lat="43.81904" lon="5.35332">
        <ele>326</ele>
        <time>2014-05-20T11:14:25Z</time>
      </trkpt>
      <trkpt lat="43.81908" lon="5.35337">
        <ele>327</ele>
        <time>2014-05-20T11:14:30Z</time>
      </trkpt>
      <trkpt lat="43.81913" lon="5.35341">
        <ele>327</ele>
        <time>2014-05-20T11:14:36Z</time>
      </trkpt>
      <trkpt lat="43.81917" lon="5.35342">
        <ele>327</ele>
        <time>2014-05-20T11:14:41Z</time>
      </trkpt>
      <trkpt lat="43.81919" lon="5.35343">
        <ele>327</ele>
        <time>2014-05-20T11:14:44Z</time>
      </trkpt>
      <trkpt lat="43.8192" lon="5.35342">
        <ele>327</ele>
        <time>2014-05-20T11:14:46Z</time>
      </trkpt>
      <trkpt lat="43.81921" lon="5.35341">
        <ele>327</ele>
        <time>2014-05-20T11:14:47Z</time>
      </trkpt>
      <trkpt lat="43.81928" lon="5.3534">
        <ele>327</ele>
        <time>2014-05-20T11:14:53Z</time>
      </trkpt>
      <trkpt lat="43.81938" lon="5.35335">
        <ele>327</ele>
        <time>2014-05-20T11:15:02Z</time>
      </trkpt>
      <trkpt lat="43.81944" lon="5.35334">
        <ele>328</ele>
        <time>2014-05-20T11:15:10Z</time>
      </trkpt>
      <trkpt lat="43.81949" lon="5.35333">
        <ele>329</ele>
        <time>2014-05-20T11:15:15Z</time>
      </trkpt>
      <trkpt lat="43.81951" lon="5.35332">
        <ele>330</ele>
        <time>2014-05-20T11:15:17Z</time>
      </trkpt>
      <trkpt lat="43.81955" lon="5.3533">
        <ele>330</ele>
        <time>2014-05-20T11:15:21Z</time>
      </trkpt>
      <trkpt lat="43.81962" lon="5.3533">
        <ele>330</ele>
        <time>2014-05-20T11:15:26Z</time>
      </trkpt>
      <trkpt lat="43.81973" lon="5.35326">
        <ele>331</ele>
        <time>2014-05-20T11:15:35Z</time>
      </trkpt>
      <trkpt lat="43.81978" lon="5.35324">
        <ele>332</ele>
        <time>2014-05-20T11:15:39Z</time>
      </trkpt>
      <trkpt lat="43.81983" lon="5.35323">
        <ele>332</ele>
        <time>2014-05-20T11:15:43Z</time>
      </trkpt>
      <trkpt lat="43.81986" lon="5.35322">
        <ele>332</ele>
        <time>2014-05-20T11:15:45Z</time>
      </trkpt>
      <trkpt lat="43.81989" lon="5.35323">
        <ele>332</ele>
        <time>2014-05-20T11:15:48Z</time>
      </trkpt>
      <trkpt lat="43.81995" lon="5.35325">
        <ele>333</ele>
        <time>2014-05-20T11:15:55Z</time>
      </trkpt>
      <trkpt lat="43.82001" lon="5.35328">
        <ele>336</ele>
        <time>2014-05-20T11:16:09Z</time>
      </trkpt>
      <trkpt lat="43.82003" lon="5.35327">
        <ele>337</ele>
        <time>2014-05-20T11:16:15Z</time>
      </trkpt>
      <trkpt lat="43.82005" lon="5.35328">
        <ele>337</ele>
        <time>2014-05-20T11:16:23Z</time>
      </trkpt>
      <trkpt lat="43.82004" lon="5.35329">
        <ele>336</ele>
        <time>2014-05-20T11:16:34Z</time>
      </trkpt>
      <trkpt lat="43.82001" lon="5.3533">
        <ele>335</ele>
        <time>2014-05-20T11:16:40Z</time>
      </trkpt>
      <trkpt lat="43.82001" lon="5.35331">
        <ele>335</ele>
        <time>2014-05-20T11:16:42Z</time>
      </trkpt>
      <trkpt lat="43.82001" lon="5.35331">
        <ele>335</ele>
        <time>2014-05-20T11:16:43Z</time>
      </trkpt>
      <trkpt lat="43.82004" lon="5.35332">
        <ele>336</ele>
        <time>2014-05-20T11:16:45Z</time>
      </trkpt>
      <trkpt lat="43.82006" lon="5.35334">
        <ele>335</ele>
        <time>2014-05-20T11:16:48Z</time>
      </trkpt>
      <trkpt lat="43.82009" lon="5.35335">
        <ele>335</ele>
        <time>2014-05-20T11:16:52Z</time>
      </trkpt>
      <trkpt lat="43.82022" lon="5.35348">
        <ele>337</ele>
        <time>2014-05-20T11:17:07Z</time>
      </trkpt>
      <trkpt lat="43.82027" lon="5.35356">
        <ele>338</ele>
        <time>2014-05-20T11:17:15Z</time>
      </trkpt>
      <trkpt lat="43.82035" lon="5.35365">
        <ele>338</ele>
        <time>2014-05-20T11:17:24Z</time>
      </trkpt>
      <trkpt lat="43.82039" lon="5.35371">
        <ele>338</ele>
        <time>2014-05-20T11:17:30Z</time>
      </trkpt>
      <trkpt lat="43.82041" lon="5.35373">
        <ele>339</ele>
        <time>2014-05-20T11:17:32Z</time>
      </trkpt>
      <trkpt lat="43.82043" lon="5.35375">
        <ele>339</ele>
        <time>2014-05-20T11:17:34Z</time>
      </trkpt>
      <trkpt lat="43.82046" lon="5.3538">
        <ele>339</ele>
        <time>2014-05-20T11:17:38Z</time>
      </trkpt>
      <trkpt lat="43.82048" lon="5.35384">
        <ele>339</ele>
        <time>2014-05-20T11:17:41Z</time>
      </trkpt>
      <trkpt lat="43.82049" lon="5.35384">
        <ele>339</ele>
        <time>2014-05-20T11:17:42Z</time>
      </trkpt>
      <trkpt lat="43.82052" lon="5.35388">
        <ele>339</ele>
        <time>2014-05-20T11:17:46Z</time>
      </trkpt>
      <trkpt lat="43.82056" lon="5.35392">
        <ele>339</ele>
        <time>2014-05-20T11:17:50Z</time>
      </trkpt>
      <trkpt lat="43.82062" lon="5.35398">
        <ele>340</ele>
        <time>2014-05-20T11:17:56Z</time>
      </trkpt>
      <trkpt lat="43.82064" lon="5.35403">
        <ele>340</ele>
        <time>2014-05-20T11:18:00Z</time>
      </trkpt>
      <trkpt lat="43.82067" lon="5.35407">
        <ele>340</ele>
        <time>2014-05-20T11:18:03Z</time>
      </trkpt>
      <trkpt lat="43.8207" lon="5.35413">
        <ele>341</ele>
        <time>2014-05-20T11:18:07Z</time>
      </trkpt>
      <trkpt lat="43.82075" lon="5.35421">
        <ele>340</ele>
        <time>2014-05-20T11:18:13Z</time>
      </trkpt>
      <trkpt lat="43.82076" lon="5.35424">
        <ele>340</ele>
        <time>2014-05-20T11:18:15Z</time>
      </trkpt>
      <trkpt lat="43.82082" lon="5.35435">
        <ele>339</ele>
        <time>2014-05-20T11:18:24Z</time>
      </trkpt>
      <trkpt lat="43.82083" lon="5.35439">
        <ele>338</ele>
        <time>2014-05-20T11:18:27Z</time>
      </trkpt>
      <trkpt lat="43.82087" lon="5.35452">
        <ele>349</ele>
        <time>2014-05-20T11:18:35Z</time>
      </trkpt>
      <trkpt lat="43.82089" lon="5.35463">
        <ele>349</ele>
        <time>2014-05-20T11:18:43Z</time>
      </trkpt>
      <trkpt lat="43.8209" lon="5.35465">
        <ele>349</ele>
        <time>2014-05-20T11:18:45Z</time>
      </trkpt>
      <trkpt lat="43.82091" lon="5.35471">
        <ele>348</ele>
        <time>2014-05-20T11:18:49Z</time>
      </trkpt>
      <trkpt lat="43.82095" lon="5.35483">
        <ele>348</ele>
        <time>2014-05-20T11:18:57Z</time>
      </trkpt>
      <trkpt lat="43.82098" lon="5.35488">
        <ele>347</ele>
        <time>2014-05-20T11:19:01Z</time>
      </trkpt>
      <trkpt lat="43.82102" lon="5.35498">
        <ele>347</ele>
        <time>2014-05-20T11:19:07Z</time>
      </trkpt>
      <trkpt lat="43.82104" lon="5.35506">
        <ele>346</ele>
        <time>2014-05-20T11:19:12Z</time>
      </trkpt>
      <trkpt lat="43.82105" lon="5.35509">
        <ele>346</ele>
        <time>2014-05-20T11:19:14Z</time>
      </trkpt>
      <trkpt lat="43.82106" lon="5.35515">
        <ele>346</ele>
        <time>2014-05-20T11:19:18Z</time>
      </trkpt>
      <trkpt lat="43.82107" lon="5.35518">
        <ele>346</ele>
        <time>2014-05-20T11:19:20Z</time>
      </trkpt>
      <trkpt lat="43.8211" lon="5.35526">
        <ele>347</ele>
        <time>2014-05-20T11:19:25Z</time>
      </trkpt>
      <trkpt lat="43.82111" lon="5.35527">
        <ele>347</ele>
        <time>2014-05-20T11:19:26Z</time>
      </trkpt>
      <trkpt lat="43.82113" lon="5.35529">
        <ele>347</ele>
        <time>2014-05-20T11:19:28Z</time>
      </trkpt>
      <trkpt lat="43.82114" lon="5.35532">
        <ele>347</ele>
        <time>2014-05-20T11:19:30Z</time>
      </trkpt>
      <trkpt lat="43.82117" lon="5.35535">
        <ele>348</ele>
        <time>2014-05-20T11:19:34Z</time>
      </trkpt>
      <trkpt lat="43.8212" lon="5.35538">
        <ele>348</ele>
        <time>2014-05-20T11:19:37Z</time>
      </trkpt>
      <trkpt lat="43.82127" lon="5.35544">
        <ele>348</ele>
        <time>2014-05-20T11:19:44Z</time>
      </trkpt>
      <trkpt lat="43.82135" lon="5.35555">
        <ele>349</ele>
        <time>2014-05-20T11:19:53Z</time>
      </trkpt>
      <trkpt lat="43.8214" lon="5.35562">
        <ele>350</ele>
        <time>2014-05-20T11:19:58Z</time>
      </trkpt>
      <trkpt lat="43.82142" lon="5.35568">
        <ele>350</ele>
        <time>2014-05-20T11:20:03Z</time>
      </trkpt>
      <trkpt lat="43.82143" lon="5.35583">
        <ele>350</ele>
        <time>2014-05-20T11:20:14Z</time>
      </trkpt>
      <trkpt lat="43.82146" lon="5.35593">
        <ele>347</ele>
        <time>2014-05-20T11:20:21Z</time>
      </trkpt>
      <trkpt lat="43.82147" lon="5.35601">
        <ele>346</ele>
        <time>2014-05-20T11:20:27Z</time>
      </trkpt>
      <trkpt lat="43.82148" lon="5.35606">
        <ele>346</ele>
        <time>2014-05-20T11:20:31Z</time>
      </trkpt>
      <trkpt lat="43.82148" lon="5.35607">
        <ele>346</ele>
        <time>2014-05-20T11:20:32Z</time>
      </trkpt>
      <trkpt lat="43.8215" lon="5.35617">
        <ele>345</ele>
        <time>2014-05-20T11:20:39Z</time>
      </trkpt>
      <trkpt lat="43.82149" lon="5.35622">
        <ele>345</ele>
        <time>2014-05-20T11:20:43Z</time>
      </trkpt>
      <trkpt lat="43.82151" lon="5.35634">
        <ele>344</ele>
        <time>2014-05-20T11:20:50Z</time>
      </trkpt>
      <trkpt lat="43.82151" lon="5.35644">
        <ele>344</ele>
        <time>2014-05-20T11:20:57Z</time>
      </trkpt>
      <trkpt lat="43.82151" lon="5.35646">
        <ele>344</ele>
        <time>2014-05-20T11:21:03Z</time>
      </trkpt>
      <trkpt lat="43.82149" lon="5.35648">
        <ele>344</ele>
        <time>2014-05-20T11:21:08Z</time>
      </trkpt>
      <trkpt lat="43.82149" lon="5.35649">
        <ele>344</ele>
        <time>2014-05-20T11:21:10Z</time>
      </trkpt>
      <trkpt lat="43.82149" lon="5.35654">
        <ele>344</ele>
        <time>2014-05-20T11:21:15Z</time>
      </trkpt>
      <trkpt lat="43.82151" lon="5.35661">
        <ele>345</ele>
        <time>2014-05-20T11:21:20Z</time>
      </trkpt>
      <trkpt lat="43.82151" lon="5.35664">
        <ele>345</ele>
        <time>2014-05-20T11:21:22Z</time>
      </trkpt>
      <trkpt lat="43.82153" lon="5.35666">
        <ele>345</ele>
        <time>2014-05-20T11:21:24Z</time>
      </trkpt>
      <trkpt lat="43.82155" lon="5.35679">
        <ele>342</ele>
        <time>2014-05-20T11:21:34Z</time>
      </trkpt>
      <trkpt lat="43.82157" lon="5.35685">
        <ele>341</ele>
        <time>2014-05-20T11:21:39Z</time>
      </trkpt>
      <trkpt lat="43.82157" lon="5.35693">
        <ele>340</ele>
        <time>2014-05-20T11:21:44Z</time>
      </trkpt>
      <trkpt lat="43.82159" lon="5.35699">
        <ele>340</ele>
        <time>2014-05-20T11:21:48Z</time>
      </trkpt>
      <trkpt lat="43.82167" lon="5.35716">
        <ele>350</ele>
        <time>2014-05-20T11:22:01Z</time>
      </trkpt>
      <trkpt lat="43.82169" lon="5.3572">
        <ele>349</ele>
        <time>2014-05-20T11:22:04Z</time>
      </trkpt>
      <trkpt lat="43.8217" lon="5.35726">
        <ele>348</ele>
        <time>2014-05-20T11:22:08Z</time>
      </trkpt>
      <trkpt lat="43.82175" lon="5.35739">
        <ele>346</ele>
        <time>2014-05-20T11:22:16Z</time>
      </trkpt>
      <trkpt lat="43.82177" lon="5.35743">
        <ele>346</ele>
        <time>2014-05-20T11:22:20Z</time>
      </trkpt>
      <trkpt lat="43.82172" lon="5.35757">
        <ele>343</ele>
        <time>2014-05-20T11:22:31Z</time>
      </trkpt>
      <trkpt lat="43.82168" lon="5.35765">
        <ele>344</ele>
        <time>2014-05-20T11:22:37Z</time>
      </trkpt>
      <trkpt lat="43.82168" lon="5.35776">
        <ele>345</ele>
        <time>2014-05-20T11:22:46Z</time>
      </trkpt>
      <trkpt lat="43.82166" lon="5.35789">
        <ele>336</ele>
        <time>2014-05-20T11:22:56Z</time>
      </trkpt>
      <trkpt lat="43.82167" lon="5.35798">
        <ele>344</ele>
        <time>2014-05-20T11:23:01Z</time>
      </trkpt>
      <trkpt lat="43.82166" lon="5.35806">
        <ele>335</ele>
        <time>2014-05-20T11:23:05Z</time>
      </trkpt>
      <trkpt lat="43.82165" lon="5.35808">
        <ele>335</ele>
        <time>2014-05-20T11:23:07Z</time>
      </trkpt>
      <trkpt lat="43.82162" lon="5.35814">
        <ele>335</ele>
        <time>2014-05-20T11:23:11Z</time>
      </trkpt>
      <trkpt lat="43.82161" lon="5.35817">
        <ele>335</ele>
        <time>2014-05-20T11:23:13Z</time>
      </trkpt>
      <trkpt lat="43.82161" lon="5.35823">
        <ele>335</ele>
        <time>2014-05-20T11:23:17Z</time>
      </trkpt>
      <trkpt lat="43.82159" lon="5.35827">
        <ele>335</ele>
        <time>2014-05-20T11:23:20Z</time>
      </trkpt>
      <trkpt lat="43.82157" lon="5.35828">
        <ele>335</ele>
        <time>2014-05-20T11:23:22Z</time>
      </trkpt>
      <trkpt lat="43.82155" lon="5.35827">
        <ele>335</ele>
        <time>2014-05-20T11:23:25Z</time>
      </trkpt>
      <trkpt lat="43.82153" lon="5.35828">
        <ele>335</ele>
        <time>2014-05-20T11:23:27Z</time>
      </trkpt>
      <trkpt lat="43.8215" lon="5.35832">
        <ele>335</ele>
        <time>2014-05-20T11:23:33Z</time>
      </trkpt>
      <trkpt lat="43.82145" lon="5.35834">
        <ele>336</ele>
        <time>2014-05-20T11:23:44Z</time>
      </trkpt>
      <trkpt lat="43.82143" lon="5.35837">
        <ele>336</ele>
        <time>2014-05-20T11:23:47Z</time>
      </trkpt>
      <trkpt lat="43.82142" lon="5.3584">
        <ele>336</ele>
        <time>2014-05-20T11:23:52Z</time>
      </trkpt>
      <trkpt lat="43.82142" lon="5.35842">
        <ele>336</ele>
        <time>2014-05-20T11:23:55Z</time>
      </trkpt>
      <trkpt lat="43.82141" lon="5.35842">
        <ele>336</ele>
        <time>2014-05-20T11:23:58Z</time>
      </trkpt>
      <trkpt lat="43.8214" lon="5.35843">
        <ele>336</ele>
        <time>2014-05-20T11:23:59Z</time>
      </trkpt>
      <trkpt lat="43.8214" lon="5.35843">
        <ele>336</ele>
        <time>2014-05-20T11:24:00Z</time>
      </trkpt>
      <trkpt lat="43.82139" lon="5.35842">
        <ele>336</ele>
        <time>2014-05-20T11:24:04Z</time>
      </trkpt>
      <trkpt lat="43.8214" lon="5.35841">
        <ele>336</ele>
        <time>2014-05-20T11:24:05Z</time>
      </trkpt>
      <trkpt lat="43.8214" lon="5.3584">
        <ele>336</ele>
        <time>2014-05-20T11:24:08Z</time>
      </trkpt>
      <trkpt lat="43.82139" lon="5.35839">
        <ele>336</ele>
        <time>2014-05-20T11:24:13Z</time>
      </trkpt>
      <trkpt lat="43.82139" lon="5.35838">
        <ele>336</ele>
        <time>2014-05-20T11:24:19Z</time>
      </trkpt>
      <trkpt lat="43.8214" lon="5.35839">
        <ele>336</ele>
        <time>2014-05-20T11:24:21Z</time>
      </trkpt>
      <trkpt lat="43.82139" lon="5.35841">
        <ele>336</ele>
        <time>2014-05-20T11:24:26Z</time>
      </trkpt>
      <trkpt lat="43.82139" lon="5.35841">
        <ele>336</ele>
        <time>2014-05-20T11:24:28Z</time>
      </trkpt>
      <trkpt lat="43.8214" lon="5.35841">
        <ele>336</ele>
        <time>2014-05-20T11:24:33Z</time>
      </trkpt>
      <trkpt lat="43.82142" lon="5.3584">
        <ele>336</ele>
        <time>2014-05-20T11:24:37Z</time>
      </trkpt>
      <trkpt lat="43.82145" lon="5.35842">
        <ele>336</ele>
        <time>2014-05-20T11:24:42Z</time>
      </trkpt>
      <trkpt lat="43.82145" lon="5.35841">
        <ele>336</ele>
        <time>2014-05-20T11:24:44Z</time>
      </trkpt>
      <trkpt lat="43.82145" lon="5.35841">
        <ele>336</ele>
        <time>2014-05-20T11:24:45Z</time>
      </trkpt>
      <trkpt lat="43.82145" lon="5.35841">
        <ele>336</ele>
        <time>2014-05-20T11:24:56Z</time>
      </trkpt>
      <trkpt lat="43.82147" lon="5.35842">
        <ele>336</ele>
        <time>2014-05-20T11:25:01Z</time>
      </trkpt>
      <trkpt lat="43.82146" lon="5.35841">
        <ele>336</ele>
        <time>2014-05-20T11:25:06Z</time>
      </trkpt>
      <trkpt lat="43.82146" lon="5.35841">
        <ele>336</ele>
        <time>2014-05-20T11:25:08Z</time>
      </trkpt>
      <trkpt lat="43.82145" lon="5.3584">
        <ele>336</ele>
        <time>2014-05-20T11:25:13Z</time>
      </trkpt>
      <trkpt lat="43.82144" lon="5.35839">
        <ele>336</ele>
        <time>2014-05-20T11:25:16Z</time>
      </trkpt>
      <trkpt lat="43.82144" lon="5.35837">
        <ele>336</ele>
        <time>2014-05-20T11:25:21Z</time>
      </trkpt>
      <trkpt lat="43.82143" lon="5.35837">
        <ele>336</ele>
        <time>2014-05-20T11:25:23Z</time>
      </trkpt>
      <trkpt lat="43.82143" lon="5.35837">
        <ele>336</ele>
        <time>2014-05-20T11:25:25Z</time>
      </trkpt>
      <trkpt lat="43.82143" lon="5.35836">
        <ele>336</ele>
        <time>2014-05-20T11:25:28Z</time>
      </trkpt>
      <trkpt lat="43.82142" lon="5.35836">
        <ele>336</ele>
        <time>2014-05-20T11:25:31Z</time>
      </trkpt>
      <trkpt lat="43.82143" lon="5.35836">
        <ele>336</ele>
        <time>2014-05-20T11:25:32Z</time>
      </trkpt>
      <trkpt lat="43.82142" lon="5.35836">
        <ele>336</ele>
        <time>2014-05-20T11:25:35Z</time>
      </trkpt>
      <trkpt lat="43.82141" lon="5.35836">
        <ele>336</ele>
        <time>2014-05-20T11:25:36Z</time>
      </trkpt>
      <trkpt lat="43.82139" lon="5.35839">
        <ele>336</ele>
        <time>2014-05-20T11:25:41Z</time>
      </trkpt>
      <trkpt lat="43.82134" lon="5.35841">
        <ele>336</ele>
        <time>2014-05-20T11:25:49Z</time>
      </trkpt>
      <trkpt lat="43.82131" lon="5.35843">
        <ele>336</ele>
        <time>2014-05-20T11:25:53Z</time>
      </trkpt>
      <trkpt lat="43.82131" lon="5.35844">
        <ele>336</ele>
        <time>2014-05-20T11:25:54Z</time>
      </trkpt>
      <trkpt lat="43.8213" lon="5.35845">
        <ele>336</ele>
        <time>2014-05-20T11:25:57Z</time>
      </trkpt>
      <trkpt lat="43.82131" lon="5.35845">
        <ele>336</ele>
        <time>2014-05-20T11:25:58Z</time>
      </trkpt>
      <trkpt lat="43.8213" lon="5.35844">
        <ele>336</ele>
        <time>2014-05-20T11:26:04Z</time>
      </trkpt>
      <trkpt lat="43.82131" lon="5.35844">
        <ele>336</ele>
        <time>2014-05-20T11:26:09Z</time>
      </trkpt>
      <trkpt lat="43.82132" lon="5.35844">
        <ele>336</ele>
        <time>2014-05-20T11:26:10Z</time>
      </trkpt>
      <trkpt lat="43.82129" lon="5.35842">
        <ele>336</ele>
        <time>2014-05-20T11:26:15Z</time>
      </trkpt>
      <trkpt lat="43.82129" lon="5.35841">
        <ele>336</ele>
        <time>2014-05-20T11:26:16Z</time>
      </trkpt>
      <trkpt lat="43.8213" lon="5.35841">
        <ele>336</ele>
        <time>2014-05-20T11:26:18Z</time>
      </trkpt>
      <trkpt lat="43.8213" lon="5.35839">
        <ele>336</ele>
        <time>2014-05-20T11:26:20Z</time>
      </trkpt>
      <trkpt lat="43.8213" lon="5.35839">
        <ele>336</ele>
        <time>2014-05-20T11:26:22Z</time>
      </trkpt>
      <trkpt lat="43.82131" lon="5.35839">
        <ele>336</ele>
        <time>2014-05-20T11:26:26Z</time>
      </trkpt>
      <trkpt lat="43.8213" lon="5.35839">
        <ele>336</ele>
        <time>2014-05-20T11:26:31Z</time>
      </trkpt>
      <trkpt lat="43.8213" lon="5.35841">
        <ele>336</ele>
        <time>2014-05-20T11:26:33Z</time>
      </trkpt>
      <trkpt lat="43.8213" lon="5.35843">
        <ele>336</ele>
        <time>2014-05-20T11:26:36Z</time>
      </trkpt>
      <trkpt lat="43.82129" lon="5.35843">
        <ele>336</ele>
        <time>2014-05-20T11:26:40Z</time>
      </trkpt>
      <trkpt lat="43.82126" lon="5.35842">
        <ele>336</ele>
        <time>2014-05-20T11:26:44Z</time>
      </trkpt>
      <trkpt lat="43.82123" lon="5.35842">
        <ele>336</ele>
        <time>2014-05-20T11:26:47Z</time>
      </trkpt>
      <trkpt lat="43.82122" lon="5.35843">
        <ele>336</ele>
        <time>2014-05-20T11:26:49Z</time>
      </trkpt>
      <trkpt lat="43.82122" lon="5.35844">
        <ele>336</ele>
        <time>2014-05-20T11:26:53Z</time>
      </trkpt>
      <trkpt lat="43.82122" lon="5.35846">
        <ele>336</ele>
        <time>2014-05-20T11:27:00Z</time>
      </trkpt>
      <trkpt lat="43.82121" lon="5.35846">
        <ele>336</ele>
        <time>2014-05-20T11:27:05Z</time>
      </trkpt>
      <trkpt lat="43.82122" lon="5.35846">
        <ele>336</ele>
        <time>2014-05-20T11:27:06Z</time>
      </trkpt>
      <trkpt lat="43.82121" lon="5.35846">
        <ele>336</ele>
        <time>2014-05-20T11:27:10Z</time>
      </trkpt>
      <trkpt lat="43.8212" lon="5.35848">
        <ele>336</ele>
        <time>2014-05-20T11:27:13Z</time>
      </trkpt>
      <trkpt lat="43.82118" lon="5.35849">
        <ele>336</ele>
        <time>2014-05-20T11:27:19Z</time>
      </trkpt>
      <trkpt lat="43.82119" lon="5.35851">
        <ele>336</ele>
        <time>2014-05-20T11:27:24Z</time>
      </trkpt>
      <trkpt lat="43.82119" lon="5.35851">
        <ele>336</ele>
        <time>2014-05-20T11:27:26Z</time>
      </trkpt>
      <trkpt lat="43.82119" lon="5.35852">
        <ele>336</ele>
        <time>2014-05-20T11:27:28Z</time>
      </trkpt>
      <trkpt lat="43.82119" lon="5.35852">
        <ele>336</ele>
        <time>2014-05-20T11:27:31Z</time>
      </trkpt>
      <trkpt lat="43.82119" lon="5.35853">
        <ele>336</ele>
        <time>2014-05-20T11:27:32Z</time>
      </trkpt>
      <trkpt lat="43.8212" lon="5.35853">
        <ele>336</ele>
        <time>2014-05-20T11:27:34Z</time>
      </trkpt>
      <trkpt lat="43.82125" lon="5.35853">
        <ele>336</ele>
        <time>2014-05-20T11:27:44Z</time>
      </trkpt>
      <trkpt lat="43.82132" lon="5.35853">
        <ele>336</ele>
        <time>2014-05-20T11:27:48Z</time>
      </trkpt>
      <trkpt lat="43.82134" lon="5.35852">
        <ele>336</ele>
        <time>2014-05-20T11:27:51Z</time>
      </trkpt>
      <trkpt lat="43.82135" lon="5.35851">
        <ele>336</ele>
        <time>2014-05-20T11:27:55Z</time>
      </trkpt>
      <trkpt lat="43.82148" lon="5.35849">
        <ele>336</ele>
        <time>2014-05-20T11:28:24Z</time>
      </trkpt>
      <trkpt lat="43.82151" lon="5.35848">
        <ele>336</ele>
        <time>2014-05-20T11:28:37Z</time>
      </trkpt>
      <trkpt lat="43.82151" lon="5.35848">
        <ele>336</ele>
        <time>2014-05-20T11:28:39Z</time>
      </trkpt>
      <trkpt lat="43.82151" lon="5.35848">
        <ele>336</ele>
        <time>2014-05-20T11:28:40Z</time>
      </trkpt>
      <trkpt lat="43.82149" lon="5.35848">
        <ele>336</ele>
        <time>2014-05-20T11:28:43Z</time>
      </trkpt>
      <trkpt lat="43.82143" lon="5.35847">
        <ele>336</ele>
        <time>2014-05-20T11:28:50Z</time>
      </trkpt>
      <trkpt lat="43.82145" lon="5.35848">
        <ele>336</ele>
        <time>2014-05-20T11:29:02Z</time>
      </trkpt>
      <trkpt lat="43.82133" lon="5.35844">
        <ele>336</ele>
        <time>2014-05-20T11:29:12Z</time>
      </trkpt>
      <trkpt lat="43.82133" lon="5.35844">
        <ele>336</ele>
        <time>2014-05-20T11:29:15Z</time>
      </trkpt>
      <trkpt lat="43.82133" lon="5.35843">
        <ele>336</ele>
        <time>2014-05-20T11:29:17Z</time>
      </trkpt>
      <trkpt lat="43.82132" lon="5.35843">
        <ele>336</ele>
        <time>2014-05-20T11:29:21Z</time>
      </trkpt>
      <trkpt lat="43.8213" lon="5.35842">
        <ele>336</ele>
        <time>2014-05-20T11:29:27Z</time>
      </trkpt>
      <trkpt lat="43.8213" lon="5.35841">
        <ele>336</ele>
        <time>2014-05-20T11:29:34Z</time>
      </trkpt>
      <trkpt lat="43.82124" lon="5.3584">
        <ele>336</ele>
        <time>2014-05-20T11:29:43Z</time>
      </trkpt>
      <trkpt lat="43.82125" lon="5.3584">
        <ele>336</ele>
        <time>2014-05-20T11:29:46Z</time>
      </trkpt>
      <trkpt lat="43.82126" lon="5.35841">
        <ele>336</ele>
        <time>2014-05-20T11:29:51Z</time>
      </trkpt>
      <trkpt lat="43.82128" lon="5.35842">
        <ele>336</ele>
        <time>2014-05-20T11:29:54Z</time>
      </trkpt>
      <trkpt lat="43.82129" lon="5.35843">
        <ele>336</ele>
        <time>2014-05-20T11:29:56Z</time>
      </trkpt>
      <trkpt lat="43.82128" lon="5.35843">
        <ele>336</ele>
        <time>2014-05-20T11:30:00Z</time>
      </trkpt>
      <trkpt lat="43.82132" lon="5.35845">
        <ele>336</ele>
        <time>2014-05-20T11:30:17Z</time>
      </trkpt>
      <trkpt lat="43.82141" lon="5.35848">
        <ele>336</ele>
        <time>2014-05-20T11:30:33Z</time>
      </trkpt>
      <trkpt lat="43.82142" lon="5.35849">
        <ele>336</ele>
        <time>2014-05-20T11:30:35Z</time>
      </trkpt>
      <trkpt lat="43.82141" lon="5.35849">
        <ele>336</ele>
        <time>2014-05-20T11:30:40Z</time>
      </trkpt>
      <trkpt lat="43.82141" lon="5.35849">
        <ele>336</ele>
        <time>2014-05-20T11:30:41Z</time>
      </trkpt>
      <trkpt lat="43.82144" lon="5.3585">
        <ele>336</ele>
        <time>2014-05-20T11:30:50Z</time>
      </trkpt>
      <trkpt lat="43.82145" lon="5.3585">
        <ele>336</ele>
        <time>2014-05-20T11:30:52Z</time>
      </trkpt>
      <trkpt lat="43.82145" lon="5.3585">
        <ele>336</ele>
        <time>2014-05-20T11:30:53Z</time>
      </trkpt>
      <trkpt lat="43.82146" lon="5.3585">
        <ele>336</ele>
        <time>2014-05-20T11:30:56Z</time>
      </trkpt>
      <trkpt lat="43.82143" lon="5.35849">
        <ele>336</ele>
        <time>2014-05-20T11:31:12Z</time>
      </trkpt>
      <trkpt lat="43.82139" lon="5.35846">
        <ele>336</ele>
        <time>2014-05-20T11:31:28Z</time>
      </trkpt>
      <trkpt lat="43.82134" lon="5.35844">
        <ele>336</ele>
        <time>2014-05-20T11:31:41Z</time>
      </trkpt>
      <trkpt lat="43.82135" lon="5.35845">
        <ele>336</ele>
        <time>2014-05-20T11:31:45Z</time>
      </trkpt>
      <trkpt lat="43.82134" lon="5.35845">
        <ele>336</ele>
        <time>2014-05-20T11:31:51Z</time>
      </trkpt>
      <trkpt lat="43.82132" lon="5.35844">
        <ele>336</ele>
        <time>2014-05-20T11:31:55Z</time>
      </trkpt>
      <trkpt lat="43.82132" lon="5.35844">
        <ele>336</ele>
        <time>2014-05-20T11:31:57Z</time>
      </trkpt>
      <trkpt lat="43.82135" lon="5.35846">
        <ele>336</ele>
        <time>2014-05-20T11:32:04Z</time>
      </trkpt>
      <trkpt lat="43.82134" lon="5.35847">
        <ele>336</ele>
        <time>2014-05-20T11:32:09Z</time>
      </trkpt>
      <trkpt lat="43.82134" lon="5.35847">
        <ele>336</ele>
        <time>2014-05-20T11:32:15Z</time>
      </trkpt>
      <trkpt lat="43.82135" lon="5.35848">
        <ele>336</ele>
        <time>2014-05-20T11:32:30Z</time>
      </trkpt>
      <trkpt lat="43.82142" lon="5.35851">
        <ele>336</ele>
        <time>2014-05-20T11:32:46Z</time>
      </trkpt>
      <trkpt lat="43.82142" lon="5.35852">
        <ele>336</ele>
        <time>2014-05-20T11:32:49Z</time>
      </trkpt>
      <trkpt lat="43.82141" lon="5.35852">
        <ele>336</ele>
        <time>2014-05-20T11:32:54Z</time>
      </trkpt>
      <trkpt lat="43.82139" lon="5.35854">
        <ele>336</ele>
        <time>2014-05-20T11:33:04Z</time>
      </trkpt>
      <trkpt lat="43.82128" lon="5.3584">
        <ele>336</ele>
        <time>2014-05-20T11:33:32Z</time>
      </trkpt>
      <trkpt lat="43.82131" lon="5.35833">
        <ele>334</ele>
        <time>2014-05-20T11:33:43Z</time>
      </trkpt>
      <trkpt lat="43.82133" lon="5.35835">
        <ele>336</ele>
        <time>2014-05-20T11:33:45Z</time>
      </trkpt>
      <trkpt lat="43.82133" lon="5.35836">
        <ele>336</ele>
        <time>2014-05-20T11:33:47Z</time>
      </trkpt>
      <trkpt lat="43.82133" lon="5.35837">
        <ele>336</ele>
        <time>2014-05-20T11:33:48Z</time>
      </trkpt>
      <trkpt lat="43.8213" lon="5.35836">
        <ele>336</ele>
        <time>2014-05-20T11:33:51Z</time>
      </trkpt>
      <trkpt lat="43.82132" lon="5.35837">
        <ele>336</ele>
        <time>2014-05-20T11:33:54Z</time>
      </trkpt>
      <trkpt lat="43.82133" lon="5.35841">
        <ele>336</ele>
        <time>2014-05-20T11:34:02Z</time>
      </trkpt>
      <trkpt lat="43.82134" lon="5.35842">
        <ele>336</ele>
        <time>2014-05-20T11:34:04Z</time>
      </trkpt>
      <trkpt lat="43.82134" lon="5.35843">
        <ele>336</ele>
        <time>2014-05-20T11:34:06Z</time>
      </trkpt>
      <trkpt lat="43.82134" lon="5.35844">
        <ele>336</ele>
        <time>2014-05-20T11:34:08Z</time>
      </trkpt>
      <trkpt lat="43.82126" lon="5.35847">
        <ele>336</ele>
        <time>2014-05-20T11:34:18Z</time>
      </trkpt>
      <trkpt lat="43.82126" lon="5.35851">
        <ele>336</ele>
        <time>2014-05-20T11:34:35Z</time>
      </trkpt>
      <trkpt lat="43.8213" lon="5.3585">
        <ele>336</ele>
        <time>2014-05-20T11:34:39Z</time>
      </trkpt>
      <trkpt lat="43.82133" lon="5.3585">
        <ele>336</ele>
        <time>2014-05-20T11:34:44Z</time>
      </trkpt>
      <trkpt lat="43.82132" lon="5.35849">
        <ele>336</ele>
        <time>2014-05-20T11:34:47Z</time>
      </trkpt>
      <trkpt lat="43.82133" lon="5.35849">
        <ele>336</ele>
        <time>2014-05-20T11:34:51Z</time>
      </trkpt>
      <trkpt lat="43.82133" lon="5.35848">
        <ele>336</ele>
        <time>2014-05-20T11:34:53Z</time>
      </trkpt>
      <trkpt lat="43.8213" lon="5.35855">
        <ele>336</ele>
        <time>2014-05-20T11:34:59Z</time>
      </trkpt>
      <trkpt lat="43.82129" lon="5.35859">
        <ele>336</ele>
        <time>2014-05-20T11:35:10Z</time>
      </trkpt>
      <trkpt lat="43.82126" lon="5.35854">
        <ele>336</ele>
        <time>2014-05-20T11:35:23Z</time>
      </trkpt>
      <trkpt lat="43.82126" lon="5.35853">
        <ele>336</ele>
        <time>2014-05-20T11:35:24Z</time>
      </trkpt>
      <trkpt lat="43.82128" lon="5.35851">
        <ele>336</ele>
        <time>2014-05-20T11:35:44Z</time>
      </trkpt>
      <trkpt lat="43.82131" lon="5.35865">
        <ele>336</ele>
        <time>2014-05-20T11:36:39Z</time>
      </trkpt>
      <trkpt lat="43.82133" lon="5.35866">
        <ele>336</ele>
        <time>2014-05-20T11:36:40Z</time>
      </trkpt>
      <trkpt lat="43.82135" lon="5.35865">
        <ele>336</ele>
        <time>2014-05-20T11:36:41Z</time>
      </trkpt>
      <trkpt lat="43.82134" lon="5.35864">
        <ele>336</ele>
        <time>2014-05-20T11:36:45Z</time>
      </trkpt>
      <trkpt lat="43.82134" lon="5.35864">
        <ele>336</ele>
        <time>2014-05-20T11:36:46Z</time>
      </trkpt>
      <trkpt lat="43.82134" lon="5.35864">
        <ele>336</ele>
        <time>2014-05-20T11:36:49Z</time>
      </trkpt>
      <trkpt lat="43.82133" lon="5.35864">
        <ele>336</ele>
        <time>2014-05-20T11:36:51Z</time>
      </trkpt>
      <trkpt lat="43.82134" lon="5.35863">
        <ele>336</ele>
        <time>2014-05-20T11:36:54Z</time>
      </trkpt>
      <trkpt lat="43.82137" lon="5.35862">
        <ele>336</ele>
        <time>2014-05-20T11:36:58Z</time>
      </trkpt>
      <trkpt lat="43.82139" lon="5.35863">
        <ele>336</ele>
        <time>2014-05-20T11:37:02Z</time>
      </trkpt>
      <trkpt lat="43.82143" lon="5.35862">
        <ele>336</ele>
        <time>2014-05-20T11:37:07Z</time>
      </trkpt>
      <trkpt lat="43.82143" lon="5.3586">
        <ele>336</ele>
        <time>2014-05-20T11:37:12Z</time>
      </trkpt>
      <trkpt lat="43.82142" lon="5.3586">
        <ele>336</ele>
        <time>2014-05-20T11:37:16Z</time>
      </trkpt>
      <trkpt lat="43.82141" lon="5.35858">
        <ele>336</ele>
        <time>2014-05-20T11:37:20Z</time>
      </trkpt>
      <trkpt lat="43.82143" lon="5.35857">
        <ele>336</ele>
        <time>2014-05-20T11:37:23Z</time>
      </trkpt>
      <trkpt lat="43.82128" lon="5.35852">
        <ele>336</ele>
        <time>2014-05-20T11:37:39Z</time>
      </trkpt>
      <trkpt lat="43.82128" lon="5.35845">
        <ele>336</ele>
        <time>2014-05-20T11:37:48Z</time>
      </trkpt>
      <trkpt lat="43.82128" lon="5.35846">
        <ele>336</ele>
        <time>2014-05-20T11:37:49Z</time>
      </trkpt>
      <trkpt lat="43.82123" lon="5.35847">
        <ele>336</ele>
        <time>2014-05-20T11:38:02Z</time>
      </trkpt>
      <trkpt lat="43.82125" lon="5.35848">
        <ele>336</ele>
        <time>2014-05-20T11:38:10Z</time>
      </trkpt>
      <trkpt lat="43.8213" lon="5.35849">
        <ele>336</ele>
        <time>2014-05-20T11:38:20Z</time>
      </trkpt>
      <trkpt lat="43.82132" lon="5.3585">
        <ele>336</ele>
        <time>2014-05-20T11:38:24Z</time>
      </trkpt>
      <trkpt lat="43.82133" lon="5.3585">
        <ele>336</ele>
        <time>2014-05-20T11:38:31Z</time>
      </trkpt>
      <trkpt lat="43.82134" lon="5.3585">
        <ele>336</ele>
        <time>2014-05-20T11:38:32Z</time>
      </trkpt>
      <trkpt lat="43.82135" lon="5.35849">
        <ele>336</ele>
        <time>2014-05-20T11:38:35Z</time>
      </trkpt>
      <trkpt lat="43.82135" lon="5.3585">
        <ele>336</ele>
        <time>2014-05-20T11:38:39Z</time>
      </trkpt>
      <trkpt lat="43.82136" lon="5.3585">
        <ele>336</ele>
        <time>2014-05-20T11:38:42Z</time>
      </trkpt>
      <trkpt lat="43.82137" lon="5.35851">
        <ele>336</ele>
        <time>2014-05-20T11:38:49Z</time>
      </trkpt>
      <trkpt lat="43.82135" lon="5.35851">
        <ele>336</ele>
        <time>2014-05-20T11:38:52Z</time>
      </trkpt>
      <trkpt lat="43.82134" lon="5.35851">
        <ele>336</ele>
        <time>2014-05-20T11:39:02Z</time>
      </trkpt>
      <trkpt lat="43.82133" lon="5.35851">
        <ele>336</ele>
        <time>2014-05-20T11:39:04Z</time>
      </trkpt>
      <trkpt lat="43.82131" lon="5.35851">
        <ele>336</ele>
        <time>2014-05-20T11:39:08Z</time>
      </trkpt>
      <trkpt lat="43.82132" lon="5.35851">
        <ele>336</ele>
        <time>2014-05-20T11:39:11Z</time>
      </trkpt>
      <trkpt lat="43.82134" lon="5.3585">
        <ele>336</ele>
        <time>2014-05-20T11:39:18Z</time>
      </trkpt>
      <trkpt lat="43.82131" lon="5.35849">
        <ele>336</ele>
        <time>2014-05-20T11:39:24Z</time>
      </trkpt>
      <trkpt lat="43.82132" lon="5.35849">
        <ele>336</ele>
        <time>2014-05-20T11:39:26Z</time>
      </trkpt>
      <trkpt lat="43.82131" lon="5.3585">
        <ele>336</ele>
        <time>2014-05-20T11:39:29Z</time>
      </trkpt>
      <trkpt lat="43.82131" lon="5.3585">
        <ele>336</ele>
        <time>2014-05-20T11:39:31Z</time>
      </trkpt>
      <trkpt lat="43.82133" lon="5.3585">
        <ele>336</ele>
        <time>2014-05-20T11:39:34Z</time>
      </trkpt>
      <trkpt lat="43.82132" lon="5.35849">
        <ele>336</ele>
        <time>2014-05-20T11:39:36Z</time>
      </trkpt>
      <trkpt lat="43.82133" lon="5.35849">
        <ele>336</ele>
        <time>2014-05-20T11:39:40Z</time>
      </trkpt>
      <trkpt lat="43.82132" lon="5.35849">
        <ele>336</ele>
        <time>2014-05-20T11:39:42Z</time>
      </trkpt>
      <trkpt lat="43.82131" lon="5.35849">
        <ele>336</ele>
        <time>2014-05-20T11:39:44Z</time>
      </trkpt>
      <trkpt lat="43.82131" lon="5.35849">
        <ele>336</ele>
        <time>2014-05-20T11:39:46Z</time>
      </trkpt>
      <trkpt lat="43.8213" lon="5.35848">
        <ele>336</ele>
        <time>2014-05-20T11:39:48Z</time>
      </trkpt>
      <trkpt lat="43.8213" lon="5.35848">
        <ele>336</ele>
        <time>2014-05-20T11:39:53Z</time>
      </trkpt>
      <trkpt lat="43.8213" lon="5.35849">
        <ele>336</ele>
        <time>2014-05-20T11:39:56Z</time>
      </trkpt>
      <trkpt lat="43.82129" lon="5.35848">
        <ele>336</ele>
        <time>2014-05-20T11:40:03Z</time>
      </trkpt>
      <trkpt lat="43.82129" lon="5.35848">
        <ele>336</ele>
        <time>2014-05-20T11:40:04Z</time>
      </trkpt>
      <trkpt lat="43.82132" lon="5.35848">
        <ele>336</ele>
        <time>2014-05-20T11:40:10Z</time>
      </trkpt>
      <trkpt lat="43.82132" lon="5.35849">
        <ele>336</ele>
        <time>2014-05-20T11:40:11Z</time>
      </trkpt>
      <trkpt lat="43.82133" lon="5.3585">
        <ele>336</ele>
        <time>2014-05-20T11:40:15Z</time>
      </trkpt>
      <trkpt lat="43.82132" lon="5.35851">
        <ele>336</ele>
        <time>2014-05-20T11:40:18Z</time>
      </trkpt>
      <trkpt lat="43.82133" lon="5.35851">
        <ele>336</ele>
        <time>2014-05-20T11:40:20Z</time>
      </trkpt>
      <trkpt lat="43.82136" lon="5.3585">
        <ele>336</ele>
        <time>2014-05-20T11:40:25Z</time>
      </trkpt>
      <trkpt lat="43.82135" lon="5.35849">
        <ele>336</ele>
        <time>2014-05-20T11:40:29Z</time>
      </trkpt>
      <trkpt lat="43.82135" lon="5.35848">
        <ele>336</ele>
        <time>2014-05-20T11:40:38Z</time>
      </trkpt>
      <trkpt lat="43.82136" lon="5.35847">
        <ele>336</ele>
        <time>2014-05-20T11:40:41Z</time>
      </trkpt>
      <trkpt lat="43.82136" lon="5.35848">
        <ele>336</ele>
        <time>2014-05-20T11:40:43Z</time>
      </trkpt>
      <trkpt lat="43.82134" lon="5.35848">
        <ele>336</ele>
        <time>2014-05-20T11:40:47Z</time>
      </trkpt>
      <trkpt lat="43.82132" lon="5.35849">
        <ele>336</ele>
        <time>2014-05-20T11:40:49Z</time>
      </trkpt>
      <trkpt lat="43.82134" lon="5.35847">
        <ele>336</ele>
        <time>2014-05-20T11:40:54Z</time>
      </trkpt>
      <trkpt lat="43.82135" lon="5.35848">
        <ele>336</ele>
        <time>2014-05-20T11:40:58Z</time>
      </trkpt>
      <trkpt lat="43.82137" lon="5.35849">
        <ele>336</ele>
        <time>2014-05-20T11:41:05Z</time>
      </trkpt>
      <trkpt lat="43.82138" lon="5.35849">
        <ele>336</ele>
        <time>2014-05-20T11:41:09Z</time>
      </trkpt>
      <trkpt lat="43.82139" lon="5.35849">
        <ele>336</ele>
        <time>2014-05-20T11:41:12Z</time>
      </trkpt>
      <trkpt lat="43.82139" lon="5.35849">
        <ele>336</ele>
        <time>2014-05-20T11:41:13Z</time>
      </trkpt>
      <trkpt lat="43.82138" lon="5.35849">
        <ele>336</ele>
        <time>2014-05-20T11:41:15Z</time>
      </trkpt>
      <trkpt lat="43.82136" lon="5.35849">
        <ele>336</ele>
        <time>2014-05-20T11:41:18Z</time>
      </trkpt>
      <trkpt lat="43.82134" lon="5.35848">
        <ele>336</ele>
        <time>2014-05-20T11:41:22Z</time>
      </trkpt>
      <trkpt lat="43.82134" lon="5.35847">
        <ele>336</ele>
        <time>2014-05-20T11:41:24Z</time>
      </trkpt>
      <trkpt lat="43.82133" lon="5.35847">
        <ele>336</ele>
        <time>2014-05-20T11:41:26Z</time>
      </trkpt>
      <trkpt lat="43.82133" lon="5.35846">
        <ele>336</ele>
        <time>2014-05-20T11:41:29Z</time>
      </trkpt>
      <trkpt lat="43.82134" lon="5.35846">
        <ele>336</ele>
        <time>2014-05-20T11:41:33Z</time>
      </trkpt>
      <trkpt lat="43.82135" lon="5.35846">
        <ele>336</ele>
        <time>2014-05-20T11:41:35Z</time>
      </trkpt>
      <trkpt lat="43.82135" lon="5.35845">
        <ele>336</ele>
        <time>2014-05-20T11:41:38Z</time>
      </trkpt>
      <trkpt lat="43.82136" lon="5.35845">
        <ele>336</ele>
        <time>2014-05-20T11:41:43Z</time>
      </trkpt>
      <trkpt lat="43.82136" lon="5.35845">
        <ele>336</ele>
        <time>2014-05-20T11:41:45Z</time>
      </trkpt>
      <trkpt lat="43.82135" lon="5.35844">
        <ele>336</ele>
        <time>2014-05-20T11:41:47Z</time>
      </trkpt>
      <trkpt lat="43.82135" lon="5.35844">
        <ele>336</ele>
        <time>2014-05-20T11:41:51Z</time>
      </trkpt>
      <trkpt lat="43.8214" lon="5.35846">
        <ele>336</ele>
        <time>2014-05-20T11:41:58Z</time>
      </trkpt>
      <trkpt lat="43.82142" lon="5.35846">
        <ele>336</ele>
        <time>2014-05-20T11:42:06Z</time>
      </trkpt>
      <trkpt lat="43.8214" lon="5.35845">
        <ele>336</ele>
        <time>2014-05-20T11:42:16Z</time>
      </trkpt>
      <trkpt lat="43.8214" lon="5.35846">
        <ele>336</ele>
        <time>2014-05-20T11:42:23Z</time>
      </trkpt>
      <trkpt lat="43.82138" lon="5.35845">
        <ele>336</ele>
        <time>2014-05-20T11:42:29Z</time>
      </trkpt>
      <trkpt lat="43.82132" lon="5.35843">
        <ele>336</ele>
        <time>2014-05-20T11:42:37Z</time>
      </trkpt>
      <trkpt lat="43.82131" lon="5.35842">
        <ele>336</ele>
        <time>2014-05-20T11:42:40Z</time>
      </trkpt>
      <trkpt lat="43.82133" lon="5.35842">
        <ele>336</ele>
        <time>2014-05-20T11:42:46Z</time>
      </trkpt>
      <trkpt lat="43.82133" lon="5.35842">
        <ele>336</ele>
        <time>2014-05-20T11:42:51Z</time>
      </trkpt>
      <trkpt lat="43.82134" lon="5.35844">
        <ele>336</ele>
        <time>2014-05-20T11:43:01Z</time>
      </trkpt>
      <trkpt lat="43.82134" lon="5.35844">
        <ele>336</ele>
        <time>2014-05-20T11:43:05Z</time>
      </trkpt>
      <trkpt lat="43.82134" lon="5.35845">
        <ele>336</ele>
        <time>2014-05-20T11:43:07Z</time>
      </trkpt>
      <trkpt lat="43.82137" lon="5.35845">
        <ele>336</ele>
        <time>2014-05-20T11:43:15Z</time>
      </trkpt>
      <trkpt lat="43.82139" lon="5.35847">
        <ele>336</ele>
        <time>2014-05-20T11:43:20Z</time>
      </trkpt>
      <trkpt lat="43.8214" lon="5.35846">
        <ele>336</ele>
        <time>2014-05-20T11:43:25Z</time>
      </trkpt>
      <trkpt lat="43.82139" lon="5.35846">
        <ele>336</ele>
        <time>2014-05-20T11:43:28Z</time>
      </trkpt>
      <trkpt lat="43.82139" lon="5.35846">
        <ele>336</ele>
        <time>2014-05-20T11:43:33Z</time>
      </trkpt>
      <trkpt lat="43.82137" lon="5.35845">
        <ele>336</ele>
        <time>2014-05-20T11:43:40Z</time>
      </trkpt>
      <trkpt lat="43.82137" lon="5.35845">
        <ele>336</ele>
        <time>2014-05-20T11:43:44Z</time>
      </trkpt>
      <trkpt lat="43.82136" lon="5.35845">
        <ele>336</ele>
        <time>2014-05-20T11:43:47Z</time>
      </trkpt>
      <trkpt lat="43.82135" lon="5.35845">
        <ele>336</ele>
        <time>2014-05-20T11:43:50Z</time>
      </trkpt>
      <trkpt lat="43.82134" lon="5.35845">
        <ele>336</ele>
        <time>2014-05-20T11:43:53Z</time>
      </trkpt>
      <trkpt lat="43.82134" lon="5.35846">
        <ele>336</ele>
        <time>2014-05-20T11:44:02Z</time>
      </trkpt>
      <trkpt lat="43.82134" lon="5.35846">
        <ele>336</ele>
        <time>2014-05-20T11:44:03Z</time>
      </trkpt>
      <trkpt lat="43.82132" lon="5.35844">
        <ele>336</ele>
        <time>2014-05-20T11:44:10Z</time>
      </trkpt>
      <trkpt lat="43.82132" lon="5.35846">
        <ele>336</ele>
        <time>2014-05-20T11:44:16Z</time>
      </trkpt>
      <trkpt lat="43.8213" lon="5.35845">
        <ele>336</ele>
        <time>2014-05-20T11:44:21Z</time>
      </trkpt>
      <trkpt lat="43.8213" lon="5.35845">
        <ele>336</ele>
        <time>2014-05-20T11:44:25Z</time>
      </trkpt>
      <trkpt lat="43.82131" lon="5.35846">
        <ele>336</ele>
        <time>2014-05-20T11:44:31Z</time>
      </trkpt>
      <trkpt lat="43.82132" lon="5.35845">
        <ele>336</ele>
        <time>2014-05-20T11:44:47Z</time>
      </trkpt>
      <trkpt lat="43.82135" lon="5.35845">
        <ele>336</ele>
        <time>2014-05-20T11:44:58Z</time>
      </trkpt>
      <trkpt lat="43.82136" lon="5.35845">
        <ele>336</ele>
        <time>2014-05-20T11:45:05Z</time>
      </trkpt>
      <trkpt lat="43.82137" lon="5.35845">
        <ele>336</ele>
        <time>2014-05-20T11:45:08Z</time>
      </trkpt>
      <trkpt lat="43.82137" lon="5.35844">
        <ele>336</ele>
        <time>2014-05-20T11:45:14Z</time>
      </trkpt>
      <trkpt lat="43.82138" lon="5.35844">
        <ele>336</ele>
        <time>2014-05-20T11:45:21Z</time>
      </trkpt>
      <trkpt lat="43.82138" lon="5.35844">
        <ele>336</ele>
        <time>2014-05-20T11:45:26Z</time>
      </trkpt>
      <trkpt lat="43.82139" lon="5.35844">
        <ele>336</ele>
        <time>2014-05-20T11:45:31Z</time>
      </trkpt>
      <trkpt lat="43.8214" lon="5.35847">
        <ele>336</ele>
        <time>2014-05-20T11:45:33Z</time>
      </trkpt>
      <trkpt lat="43.82141" lon="5.35847">
        <ele>336</ele>
        <time>2014-05-20T11:45:34Z</time>
      </trkpt>
      <trkpt lat="43.82141" lon="5.35847">
        <ele>336</ele>
        <time>2014-05-20T11:45:36Z</time>
      </trkpt>
      <trkpt lat="43.82141" lon="5.35849">
        <ele>336</ele>
        <time>2014-05-20T11:45:41Z</time>
      </trkpt>
      <trkpt lat="43.82138" lon="5.35848">
        <ele>336</ele>
        <time>2014-05-20T11:45:48Z</time>
      </trkpt>
      <trkpt lat="43.82137" lon="5.35846">
        <ele>336</ele>
        <time>2014-05-20T11:45:53Z</time>
      </trkpt>
      <trkpt lat="43.82136" lon="5.35846">
        <ele>336</ele>
        <time>2014-05-20T11:45:57Z</time>
      </trkpt>
      <trkpt lat="43.82136" lon="5.35846">
        <ele>336</ele>
        <time>2014-05-20T11:46:00Z</time>
      </trkpt>
      <trkpt lat="43.82137" lon="5.35847">
        <ele>336</ele>
        <time>2014-05-20T11:46:03Z</time>
      </trkpt>
      <trkpt lat="43.82136" lon="5.35847">
        <ele>336</ele>
        <time>2014-05-20T11:46:05Z</time>
      </trkpt>
      <trkpt lat="43.82136" lon="5.35847">
        <ele>336</ele>
        <time>2014-05-20T11:46:07Z</time>
      </trkpt>
      <trkpt lat="43.82135" lon="5.35847">
        <ele>336</ele>
        <time>2014-05-20T11:46:08Z</time>
      </trkpt>
      <trkpt lat="43.82136" lon="5.35849">
        <ele>336</ele>
        <time>2014-05-20T11:46:12Z</time>
      </trkpt>
      <trkpt lat="43.82136" lon="5.35848">
        <ele>336</ele>
        <time>2014-05-20T11:46:14Z</time>
      </trkpt>
      <trkpt lat="43.82133" lon="5.35849">
        <ele>336</ele>
        <time>2014-05-20T11:46:22Z</time>
      </trkpt>
      <trkpt lat="43.82134" lon="5.35852">
        <ele>336</ele>
        <time>2014-05-20T11:46:28Z</time>
      </trkpt>
      <trkpt lat="43.82132" lon="5.35852">
        <ele>336</ele>
        <time>2014-05-20T11:46:34Z</time>
      </trkpt>
      <trkpt lat="43.8213" lon="5.3585">
        <ele>336</ele>
        <time>2014-05-20T11:46:40Z</time>
      </trkpt>
      <trkpt lat="43.82129" lon="5.35847">
        <ele>336</ele>
        <time>2014-05-20T11:46:47Z</time>
      </trkpt>
      <trkpt lat="43.8213" lon="5.35847">
        <ele>336</ele>
        <time>2014-05-20T11:46:49Z</time>
      </trkpt>
      <trkpt lat="43.82129" lon="5.35847">
        <ele>336</ele>
        <time>2014-05-20T11:46:54Z</time>
      </trkpt>
      <trkpt lat="43.8213" lon="5.35846">
        <ele>336</ele>
        <time>2014-05-20T11:46:57Z</time>
      </trkpt>
      <trkpt lat="43.82129" lon="5.35845">
        <ele>336</ele>
        <time>2014-05-20T11:47:00Z</time>
      </trkpt>
      <trkpt lat="43.82131" lon="5.35843">
        <ele>336</ele>
        <time>2014-05-20T11:47:04Z</time>
      </trkpt>
      <trkpt lat="43.82133" lon="5.35842">
        <ele>336</ele>
        <time>2014-05-20T11:47:11Z</time>
      </trkpt>
      <trkpt lat="43.82134" lon="5.35842">
        <ele>336</ele>
        <time>2014-05-20T11:47:14Z</time>
      </trkpt>
      <trkpt lat="43.82133" lon="5.35842">
        <ele>336</ele>
        <time>2014-05-20T11:47:15Z</time>
      </trkpt>
      <trkpt lat="43.82134" lon="5.35842">
        <ele>336</ele>
        <time>2014-05-20T11:47:21Z</time>
      </trkpt>
      <trkpt lat="43.82133" lon="5.35841">
        <ele>336</ele>
        <time>2014-05-20T11:47:23Z</time>
      </trkpt>
      <trkpt lat="43.82134" lon="5.35842">
        <ele>336</ele>
        <time>2014-05-20T11:47:26Z</time>
      </trkpt>
      <trkpt lat="43.82133" lon="5.35842">
        <ele>336</ele>
        <time>2014-05-20T11:47:28Z</time>
      </trkpt>
      <trkpt lat="43.82132" lon="5.35841">
        <ele>336</ele>
        <time>2014-05-20T11:47:30Z</time>
      </trkpt>
      <trkpt lat="43.82131" lon="5.35841">
        <ele>336</ele>
        <time>2014-05-20T11:47:34Z</time>
      </trkpt>
      <trkpt lat="43.82132" lon="5.35842">
        <ele>336</ele>
        <time>2014-05-20T11:47:39Z</time>
      </trkpt>
      <trkpt lat="43.8213" lon="5.35842">
        <ele>336</ele>
        <time>2014-05-20T11:47:50Z</time>
      </trkpt>
      <trkpt lat="43.82129" lon="5.35841">
        <ele>336</ele>
        <time>2014-05-20T11:47:53Z</time>
      </trkpt>
      <trkpt lat="43.82129" lon="5.35842">
        <ele>336</ele>
        <time>2014-05-20T11:47:56Z</time>
      </trkpt>
      <trkpt lat="43.82127" lon="5.35842">
        <ele>336</ele>
        <time>2014-05-20T11:48:02Z</time>
      </trkpt>
      <trkpt lat="43.82126" lon="5.35842">
        <ele>336</ele>
        <time>2014-05-20T11:48:04Z</time>
      </trkpt>
      <trkpt lat="43.82138" lon="5.35855">
        <ele>336</ele>
        <time>2014-05-20T11:48:17Z</time>
      </trkpt>
      <trkpt lat="43.82142" lon="5.35856">
        <ele>336</ele>
        <time>2014-05-20T11:48:29Z</time>
      </trkpt>
      <trkpt lat="43.82142" lon="5.35856">
        <ele>336</ele>
        <time>2014-05-20T11:48:31Z</time>
      </trkpt>
      <trkpt lat="43.82142" lon="5.35852">
        <ele>336</ele>
        <time>2014-05-20T11:48:38Z</time>
      </trkpt>
      <trkpt lat="43.82141" lon="5.35852">
        <ele>336</ele>
        <time>2014-05-20T11:48:40Z</time>
      </trkpt>
      <trkpt lat="43.82141" lon="5.3585">
        <ele>336</ele>
        <time>2014-05-20T11:48:43Z</time>
      </trkpt>
      <trkpt lat="43.82141" lon="5.3585">
        <ele>336</ele>
        <time>2014-05-20T11:48:45Z</time>
      </trkpt>
      <trkpt lat="43.82141" lon="5.35849">
        <ele>336</ele>
        <time>2014-05-20T11:48:47Z</time>
      </trkpt>
      <trkpt lat="43.82139" lon="5.35848">
        <ele>336</ele>
        <time>2014-05-20T11:48:50Z</time>
      </trkpt>
      <trkpt lat="43.82139" lon="5.35847">
        <ele>336</ele>
        <time>2014-05-20T11:48:52Z</time>
      </trkpt>
      <trkpt lat="43.82136" lon="5.35846">
        <ele>336</ele>
        <time>2014-05-20T11:48:56Z</time>
      </trkpt>
      <trkpt lat="43.82137" lon="5.35845">
        <ele>336</ele>
        <time>2014-05-20T11:48:58Z</time>
      </trkpt>
      <trkpt lat="43.82136" lon="5.35845">
        <ele>336</ele>
        <time>2014-05-20T11:49:02Z</time>
      </trkpt>
      <trkpt lat="43.82135" lon="5.35845">
        <ele>336</ele>
        <time>2014-05-20T11:49:05Z</time>
      </trkpt>
      <trkpt lat="43.82135" lon="5.35845">
        <ele>336</ele>
        <time>2014-05-20T11:49:08Z</time>
      </trkpt>
      <trkpt lat="43.82133" lon="5.35847">
        <ele>336</ele>
        <time>2014-05-20T11:49:12Z</time>
      </trkpt>
      <trkpt lat="43.82133" lon="5.35848">
        <ele>336</ele>
        <time>2014-05-20T11:49:14Z</time>
      </trkpt>
      <trkpt lat="43.82133" lon="5.35847">
        <ele>336</ele>
        <time>2014-05-20T11:49:15Z</time>
      </trkpt>
      <trkpt lat="43.82135" lon="5.35848">
        <ele>336</ele>
        <time>2014-05-20T11:49:19Z</time>
      </trkpt>
      <trkpt lat="43.82135" lon="5.35848">
        <ele>336</ele>
        <time>2014-05-20T11:49:21Z</time>
      </trkpt>
      <trkpt lat="43.82136" lon="5.35849">
        <ele>336</ele>
        <time>2014-05-20T11:49:23Z</time>
      </trkpt>
      <trkpt lat="43.82137" lon="5.35849">
        <ele>336</ele>
        <time>2014-05-20T11:49:30Z</time>
      </trkpt>
      <trkpt lat="43.82139" lon="5.3585">
        <ele>336</ele>
        <time>2014-05-20T11:49:33Z</time>
      </trkpt>
      <trkpt lat="43.82138" lon="5.3585">
        <ele>336</ele>
        <time>2014-05-20T11:49:38Z</time>
      </trkpt>
      <trkpt lat="43.82137" lon="5.35849">
        <ele>336</ele>
        <time>2014-05-20T11:49:44Z</time>
      </trkpt>
      <trkpt lat="43.82133" lon="5.35846">
        <ele>336</ele>
        <time>2014-05-20T11:50:05Z</time>
      </trkpt>
      <trkpt lat="43.82133" lon="5.35846">
        <ele>336</ele>
        <time>2014-05-20T11:50:10Z</time>
      </trkpt>
      <trkpt lat="43.82134" lon="5.35846">
        <ele>336</ele>
        <time>2014-05-20T11:50:12Z</time>
      </trkpt>
      <trkpt lat="43.82136" lon="5.35847">
        <ele>336</ele>
        <time>2014-05-20T11:50:19Z</time>
      </trkpt>
      <trkpt lat="43.82136" lon="5.35846">
        <ele>336</ele>
        <time>2014-05-20T11:50:25Z</time>
      </trkpt>
      <trkpt lat="43.82136" lon="5.35845">
        <ele>336</ele>
        <time>2014-05-20T11:50:29Z</time>
      </trkpt>
      <trkpt lat="43.82134" lon="5.35847">
        <ele>336</ele>
        <time>2014-05-20T11:50:37Z</time>
      </trkpt>
      <trkpt lat="43.82134" lon="5.35848">
        <ele>336</ele>
        <time>2014-05-20T11:50:41Z</time>
      </trkpt>
      <trkpt lat="43.82133" lon="5.35848">
        <ele>336</ele>
        <time>2014-05-20T11:50:45Z</time>
      </trkpt>
      <trkpt lat="43.8213" lon="5.35852">
        <ele>336</ele>
        <time>2014-05-20T11:51:01Z</time>
      </trkpt>
      <trkpt lat="43.82129" lon="5.35852">
        <ele>336</ele>
        <time>2014-05-20T11:51:05Z</time>
      </trkpt>
      <trkpt lat="43.82131" lon="5.35853">
        <ele>336</ele>
        <time>2014-05-20T11:51:21Z</time>
      </trkpt>
      <trkpt lat="43.82131" lon="5.35853">
        <ele>336</ele>
        <time>2014-05-20T11:51:24Z</time>
      </trkpt>
      <trkpt lat="43.82136" lon="5.35854">
        <ele>336</ele>
        <time>2014-05-20T11:51:37Z</time>
      </trkpt>
      <trkpt lat="43.82139" lon="5.35855">
        <ele>336</ele>
        <time>2014-05-20T11:51:49Z</time>
      </trkpt>
      <trkpt lat="43.82139" lon="5.35855">
        <ele>336</ele>
        <time>2014-05-20T11:51:51Z</time>
      </trkpt>
      <trkpt lat="43.82139" lon="5.35856">
        <ele>336</ele>
        <time>2014-05-20T11:51:56Z</time>
      </trkpt>
      <trkpt lat="43.82139" lon="5.35856">
        <ele>336</ele>
        <time>2014-05-20T11:52:02Z</time>
      </trkpt>
      <trkpt lat="43.8214" lon="5.35856">
        <ele>336</ele>
        <time>2014-05-20T11:52:04Z</time>
      </trkpt>
      <trkpt lat="43.82137" lon="5.35855">
        <ele>336</ele>
        <time>2014-05-20T11:52:15Z</time>
      </trkpt>
      <trkpt lat="43.82138" lon="5.35854">
        <ele>336</ele>
        <time>2014-05-20T11:52:21Z</time>
      </trkpt>
      <trkpt lat="43.82139" lon="5.35855">
        <ele>336</ele>
        <time>2014-05-20T11:52:25Z</time>
      </trkpt>
      <trkpt lat="43.82141" lon="5.35854">
        <ele>336</ele>
        <time>2014-05-20T11:52:31Z</time>
      </trkpt>
      <trkpt lat="43.82136" lon="5.35852">
        <ele>336</ele>
        <time>2014-05-20T11:52:43Z</time>
      </trkpt>
      <trkpt lat="43.82135" lon="5.35852">
        <ele>336</ele>
        <time>2014-05-20T11:52:46Z</time>
      </trkpt>
      <trkpt lat="43.82136" lon="5.35852">
        <ele>336</ele>
        <time>2014-05-20T11:52:49Z</time>
      </trkpt>
      <trkpt lat="43.82135" lon="5.35851">
        <ele>336</ele>
        <time>2014-05-20T11:52:52Z</time>
      </trkpt>
      <trkpt lat="43.82136" lon="5.35851">
        <ele>336</ele>
        <time>2014-05-20T11:52:54Z</time>
      </trkpt>
      <trkpt lat="43.82133" lon="5.3585">
        <ele>336</ele>
        <time>2014-05-20T11:53:12Z</time>
      </trkpt>
      <trkpt lat="43.82132" lon="5.35849">
        <ele>336</ele>
        <time>2014-05-20T11:53:21Z</time>
      </trkpt>
      <trkpt lat="43.82131" lon="5.35849">
        <ele>336</ele>
        <time>2014-05-20T11:53:30Z</time>
      </trkpt>
      <trkpt lat="43.8213" lon="5.35848">
        <ele>336</ele>
        <time>2014-05-20T11:53:34Z</time>
      </trkpt>
      <trkpt lat="43.82132" lon="5.35848">
        <ele>336</ele>
        <time>2014-05-20T11:53:40Z</time>
      </trkpt>
      <trkpt lat="43.8213" lon="5.35846">
        <ele>336</ele>
        <time>2014-05-20T11:53:55Z</time>
      </trkpt>
      <trkpt lat="43.8213" lon="5.35846">
        <ele>336</ele>
        <time>2014-05-20T11:53:57Z</time>
      </trkpt>
      <trkpt lat="43.8213" lon="5.35845">
        <ele>336</ele>
        <time>2014-05-20T11:53:59Z</time>
      </trkpt>
      <trkpt lat="43.8213" lon="5.35846">
        <ele>336</ele>
        <time>2014-05-20T11:54:04Z</time>
      </trkpt>
      <trkpt lat="43.8213" lon="5.35845">
        <ele>336</ele>
        <time>2014-05-20T11:54:06Z</time>
      </trkpt>
      <trkpt lat="43.82128" lon="5.35843">
        <ele>336</ele>
        <time>2014-05-20T11:54:11Z</time>
      </trkpt>
      <trkpt lat="43.82128" lon="5.35844">
        <ele>336</ele>
        <time>2014-05-20T11:54:20Z</time>
      </trkpt>
      <trkpt lat="43.82128" lon="5.35844">
        <ele>336</ele>
        <time>2014-05-20T11:54:23Z</time>
      </trkpt>
      <trkpt lat="43.82128" lon="5.35844">
        <ele>336</ele>
        <time>2014-05-20T11:54:26Z</time>
      </trkpt>
      <trkpt lat="43.82128" lon="5.35844">
        <ele>336</ele>
        <time>2014-05-20T11:54:31Z</time>
      </trkpt>
      <trkpt lat="43.82128" lon="5.35844">
        <ele>336</ele>
        <time>2014-05-20T11:54:33Z</time>
      </trkpt>
      <trkpt lat="43.82129" lon="5.35845">
        <ele>336</ele>
        <time>2014-05-20T11:54:44Z</time>
      </trkpt>
      <trkpt lat="43.82129" lon="5.35844">
        <ele>336</ele>
        <time>2014-05-20T11:54:49Z</time>
      </trkpt>
      <trkpt lat="43.82129" lon="5.35845">
        <ele>336</ele>
        <time>2014-05-20T11:54:56Z</time>
      </trkpt>
      <trkpt lat="43.8213" lon="5.35846">
        <ele>336</ele>
        <time>2014-05-20T11:55:00Z</time>
      </trkpt>
      <trkpt lat="43.82131" lon="5.35847">
        <ele>336</ele>
        <time>2014-05-20T11:55:05Z</time>
      </trkpt>
      <trkpt lat="43.82133" lon="5.35847">
        <ele>336</ele>
        <time>2014-05-20T11:55:14Z</time>
      </trkpt>
      <trkpt lat="43.82133" lon="5.35847">
        <ele>336</ele>
        <time>2014-05-20T11:55:15Z</time>
      </trkpt>
      <trkpt lat="43.82133" lon="5.35847">
        <ele>336</ele>
        <time>2014-05-20T11:55:18Z</time>
      </trkpt>
      <trkpt lat="43.82133" lon="5.35846">
        <ele>336</ele>
        <time>2014-05-20T11:55:23Z</time>
      </trkpt>
      <trkpt lat="43.82133" lon="5.35846">
        <ele>336</ele>
        <time>2014-05-20T11:55:26Z</time>
      </trkpt>
      <trkpt lat="43.82134" lon="5.35846">
        <ele>336</ele>
        <time>2014-05-20T11:55:28Z</time>
      </trkpt>
      <trkpt lat="43.82134" lon="5.35845">
        <ele>336</ele>
        <time>2014-05-20T11:55:32Z</time>
      </trkpt>
      <trkpt lat="43.82133" lon="5.35846">
        <ele>336</ele>
        <time>2014-05-20T11:55:37Z</time>
      </trkpt>
      <trkpt lat="43.82133" lon="5.35845">
        <ele>336</ele>
        <time>2014-05-20T11:55:40Z</time>
      </trkpt>
      <trkpt lat="43.82134" lon="5.35845">
        <ele>336</ele>
        <time>2014-05-20T11:55:45Z</time>
      </trkpt>
      <trkpt lat="43.82133" lon="5.35845">
        <ele>336</ele>
        <time>2014-05-20T11:55:48Z</time>
      </trkpt>
      <trkpt lat="43.82132" lon="5.35845">
        <ele>336</ele>
        <time>2014-05-20T11:55:58Z</time>
      </trkpt>
      <trkpt lat="43.8213" lon="5.35845">
        <ele>336</ele>
        <time>2014-05-20T11:56:08Z</time>
      </trkpt>
      <trkpt lat="43.82129" lon="5.35845">
        <ele>336</ele>
        <time>2014-05-20T11:56:12Z</time>
      </trkpt>
      <trkpt lat="43.82123" lon="5.35855">
        <ele>336</ele>
        <time>2014-05-20T11:56:23Z</time>
      </trkpt>
      <trkpt lat="43.82121" lon="5.35861">
        <ele>336</ele>
        <time>2014-05-20T11:56:29Z</time>
      </trkpt>
      <trkpt lat="43.82119" lon="5.35863">
        <ele>336</ele>
        <time>2014-05-20T11:56:32Z</time>
      </trkpt>
      <trkpt lat="43.82117" lon="5.35864">
        <ele>336</ele>
        <time>2014-05-20T11:56:34Z</time>
      </trkpt>
      <trkpt lat="43.82116" lon="5.35864">
        <ele>336</ele>
        <time>2014-05-20T11:56:35Z</time>
      </trkpt>
      <trkpt lat="43.82114" lon="5.35863">
        <ele>336</ele>
        <time>2014-05-20T11:56:37Z</time>
      </trkpt>
      <trkpt lat="43.82112" lon="5.35861">
        <ele>336</ele>
        <time>2014-05-20T11:56:40Z</time>
      </trkpt>
      <trkpt lat="43.82111" lon="5.35861">
        <ele>336</ele>
        <time>2014-05-20T11:56:42Z</time>
      </trkpt>
      <trkpt lat="43.82108" lon="5.35857">
        <ele>336</ele>
        <time>2014-05-20T11:56:47Z</time>
      </trkpt>
      <trkpt lat="43.82106" lon="5.35856">
        <ele>336</ele>
        <time>2014-05-20T11:56:49Z</time>
      </trkpt>
      <trkpt lat="43.82102" lon="5.35853">
        <ele>335</ele>
        <time>2014-05-20T11:56:55Z</time>
      </trkpt>
      <trkpt lat="43.82099" lon="5.35852">
        <ele>335</ele>
        <time>2014-05-20T11:56:57Z</time>
      </trkpt>
      <trkpt lat="43.82097" lon="5.35852">
        <ele>335</ele>
        <time>2014-05-20T11:56:59Z</time>
      </trkpt>
      <trkpt lat="43.82096" lon="5.35854">
        <ele>335</ele>
        <time>2014-05-20T11:57:02Z</time>
      </trkpt>
      <trkpt lat="43.82095" lon="5.35857">
        <ele>335</ele>
        <time>2014-05-20T11:57:07Z</time>
      </trkpt>
      <trkpt lat="43.82095" lon="5.3586">
        <ele>335</ele>
        <time>2014-05-20T11:57:09Z</time>
      </trkpt>
      <trkpt lat="43.82095" lon="5.35862">
        <ele>336</ele>
        <time>2014-05-20T11:57:11Z</time>
      </trkpt>
      <trkpt lat="43.82093" lon="5.35868">
        <ele>336</ele>
        <time>2014-05-20T11:57:16Z</time>
      </trkpt>
      <trkpt lat="43.82092" lon="5.35882">
        <ele>336</ele>
        <time>2014-05-20T11:57:25Z</time>
      </trkpt>
      <trkpt lat="43.82091" lon="5.35888">
        <ele>337</ele>
        <time>2014-05-20T11:57:29Z</time>
      </trkpt>
      <trkpt lat="43.82091" lon="5.35895">
        <ele>337</ele>
        <time>2014-05-20T11:57:34Z</time>
      </trkpt>
      <trkpt lat="43.82091" lon="5.35898">
        <ele>337</ele>
        <time>2014-05-20T11:57:36Z</time>
      </trkpt>
      <trkpt lat="43.8209" lon="5.35906">
        <ele>338</ele>
        <time>2014-05-20T11:57:42Z</time>
      </trkpt>
      <trkpt lat="43.8209" lon="5.35912">
        <ele>338</ele>
        <time>2014-05-20T11:57:46Z</time>
      </trkpt>
      <trkpt lat="43.82092" lon="5.35919">
        <ele>340</ele>
        <time>2014-05-20T11:57:51Z</time>
      </trkpt>
      <trkpt lat="43.82091" lon="5.35926">
        <ele>340</ele>
        <time>2014-05-20T11:57:56Z</time>
      </trkpt>
      <trkpt lat="43.82092" lon="5.35939">
        <ele>341</ele>
        <time>2014-05-20T11:58:06Z</time>
      </trkpt>
      <trkpt lat="43.82091" lon="5.35947">
        <ele>341</ele>
        <time>2014-05-20T11:58:12Z</time>
      </trkpt>
      <trkpt lat="43.82089" lon="5.35951">
        <ele>341</ele>
        <time>2014-05-20T11:58:16Z</time>
      </trkpt>
      <trkpt lat="43.8209" lon="5.35957">
        <ele>342</ele>
        <time>2014-05-20T11:58:21Z</time>
      </trkpt>
      <trkpt lat="43.8209" lon="5.35959">
        <ele>342</ele>
        <time>2014-05-20T11:58:23Z</time>
      </trkpt>
      <trkpt lat="43.82089" lon="5.35963">
        <ele>342</ele>
        <time>2014-05-20T11:58:27Z</time>
      </trkpt>
      <trkpt lat="43.8209" lon="5.35968">
        <ele>343</ele>
        <time>2014-05-20T11:58:31Z</time>
      </trkpt>
      <trkpt lat="43.82089" lon="5.35973">
        <ele>343</ele>
        <time>2014-05-20T11:58:35Z</time>
      </trkpt>
      <trkpt lat="43.82088" lon="5.35977">
        <ele>344</ele>
        <time>2014-05-20T11:58:39Z</time>
      </trkpt>
      <trkpt lat="43.82087" lon="5.35978">
        <ele>344</ele>
        <time>2014-05-20T11:58:40Z</time>
      </trkpt>
      <trkpt lat="43.82081" lon="5.35981">
        <ele>350</ele>
        <time>2014-05-20T11:58:47Z</time>
      </trkpt>
      <trkpt lat="43.82079" lon="5.3598">
        <ele>350</ele>
        <time>2014-05-20T11:58:50Z</time>
      </trkpt>
      <trkpt lat="43.82077" lon="5.3598">
        <ele>350</ele>
        <time>2014-05-20T11:58:53Z</time>
      </trkpt>
      <trkpt lat="43.82075" lon="5.35979">
        <ele>350</ele>
        <time>2014-05-20T11:58:56Z</time>
      </trkpt>
      <trkpt lat="43.82073" lon="5.35978">
        <ele>351</ele>
        <time>2014-05-20T11:59:00Z</time>
      </trkpt>
      <trkpt lat="43.82063" lon="5.35971">
        <ele>351</ele>
        <time>2014-05-20T11:59:15Z</time>
      </trkpt>
      <trkpt lat="43.82062" lon="5.3597">
        <ele>351</ele>
        <time>2014-05-20T11:59:16Z</time>
      </trkpt>
      <trkpt lat="43.82058" lon="5.35968">
        <ele>351</ele>
        <time>2014-05-20T11:59:20Z</time>
      </trkpt>
      <trkpt lat="43.82056" lon="5.35968">
        <ele>351</ele>
        <time>2014-05-20T11:59:22Z</time>
      </trkpt>
      <trkpt lat="43.82055" lon="5.35969">
        <ele>352</ele>
        <time>2014-05-20T11:59:25Z</time>
      </trkpt>
      <trkpt lat="43.82056" lon="5.35974">
        <ele>352</ele>
        <time>2014-05-20T11:59:34Z</time>
      </trkpt>
      <trkpt lat="43.82056" lon="5.35976">
        <ele>352</ele>
        <time>2014-05-20T11:59:38Z</time>
      </trkpt>
      <trkpt lat="43.8206" lon="5.35982">
        <ele>352</ele>
        <time>2014-05-20T11:59:45Z</time>
      </trkpt>
      <trkpt lat="43.82067" lon="5.3599">
        <ele>351</ele>
        <time>2014-05-20T11:59:55Z</time>
      </trkpt>
      <trkpt lat="43.82069" lon="5.35994">
        <ele>351</ele>
        <time>2014-05-20T11:59:58Z</time>
      </trkpt>
      <trkpt lat="43.82073" lon="5.35999">
        <ele>350</ele>
        <time>2014-05-20T12:00:03Z</time>
      </trkpt>
      <trkpt lat="43.8208" lon="5.36009">
        <ele>354</ele>
        <time>2014-05-20T12:00:12Z</time>
      </trkpt>
      <trkpt lat="43.82082" lon="5.36013">
        <ele>355</ele>
        <time>2014-05-20T12:00:15Z</time>
      </trkpt>
      <trkpt lat="43.82085" lon="5.36015">
        <ele>349</ele>
        <time>2014-05-20T12:00:18Z</time>
      </trkpt>
      <trkpt lat="43.82089" lon="5.3602">
        <ele>349</ele>
        <time>2014-05-20T12:00:22Z</time>
      </trkpt>
      <trkpt lat="43.82089" lon="5.36023">
        <ele>349</ele>
        <time>2014-05-20T12:00:24Z</time>
      </trkpt>
      <trkpt lat="43.82089" lon="5.36027">
        <ele>349</ele>
        <time>2014-05-20T12:00:27Z</time>
      </trkpt>
      <trkpt lat="43.8209" lon="5.36033">
        <ele>350</ele>
        <time>2014-05-20T12:00:31Z</time>
      </trkpt>
      <trkpt lat="43.8209" lon="5.36041">
        <ele>350</ele>
        <time>2014-05-20T12:00:36Z</time>
      </trkpt>
      <trkpt lat="43.82092" lon="5.36046">
        <ele>351</ele>
        <time>2014-05-20T12:00:40Z</time>
      </trkpt>
      <trkpt lat="43.82093" lon="5.3605">
        <ele>351</ele>
        <time>2014-05-20T12:00:43Z</time>
      </trkpt>
      <trkpt lat="43.82093" lon="5.36052">
        <ele>351</ele>
        <time>2014-05-20T12:00:45Z</time>
      </trkpt>
      <trkpt lat="43.82095" lon="5.36061">
        <ele>353</ele>
        <time>2014-05-20T12:00:52Z</time>
      </trkpt>
      <trkpt lat="43.82098" lon="5.3607">
        <ele>354</ele>
        <time>2014-05-20T12:00:59Z</time>
      </trkpt>
      <trkpt lat="43.82101" lon="5.36075">
        <ele>354</ele>
        <time>2014-05-20T12:01:03Z</time>
      </trkpt>
      <trkpt lat="43.82103" lon="5.36083">
        <ele>354</ele>
        <time>2014-05-20T12:01:08Z</time>
      </trkpt>
      <trkpt lat="43.82104" lon="5.36088">
        <ele>357</ele>
        <time>2014-05-20T12:01:12Z</time>
      </trkpt>
      <trkpt lat="43.82106" lon="5.36091">
        <ele>357</ele>
        <time>2014-05-20T12:01:17Z</time>
      </trkpt>
      <trkpt lat="43.82106" lon="5.36093">
        <ele>357</ele>
        <time>2014-05-20T12:01:20Z</time>
      </trkpt>
      <trkpt lat="43.82109" lon="5.36097">
        <ele>356</ele>
        <time>2014-05-20T12:01:26Z</time>
      </trkpt>
      <trkpt lat="43.8211" lon="5.36101">
        <ele>356</ele>
        <time>2014-05-20T12:01:30Z</time>
      </trkpt>
      <trkpt lat="43.82111" lon="5.36108">
        <ele>356</ele>
        <time>2014-05-20T12:01:35Z</time>
      </trkpt>
      <trkpt lat="43.82113" lon="5.36114">
        <ele>356</ele>
        <time>2014-05-20T12:01:40Z</time>
      </trkpt>
      <trkpt lat="43.82118" lon="5.3613">
        <ele>356</ele>
        <time>2014-05-20T12:01:52Z</time>
      </trkpt>
      <trkpt lat="43.8212" lon="5.36135">
        <ele>356</ele>
        <time>2014-05-20T12:01:56Z</time>
      </trkpt>
      <trkpt lat="43.82124" lon="5.36142">
        <ele>355</ele>
        <time>2014-05-20T12:02:02Z</time>
      </trkpt>
      <trkpt lat="43.82127" lon="5.36152">
        <ele>355</ele>
        <time>2014-05-20T12:02:09Z</time>
      </trkpt>
      <trkpt lat="43.82129" lon="5.36154">
        <ele>355</ele>
        <time>2014-05-20T12:02:11Z</time>
      </trkpt>
      <trkpt lat="43.82132" lon="5.3616">
        <ele>355</ele>
        <time>2014-05-20T12:02:19Z</time>
      </trkpt>
      <trkpt lat="43.82132" lon="5.36165">
        <ele>354</ele>
        <time>2014-05-20T12:02:23Z</time>
      </trkpt>
      <trkpt lat="43.82139" lon="5.36175">
        <ele>358</ele>
        <time>2014-05-20T12:02:31Z</time>
      </trkpt>
      <trkpt lat="43.82142" lon="5.36182">
        <ele>358</ele>
        <time>2014-05-20T12:02:37Z</time>
      </trkpt>
      <trkpt lat="43.82146" lon="5.36198">
        <ele>359</ele>
        <time>2014-05-20T12:02:46Z</time>
      </trkpt>
      <trkpt lat="43.82146" lon="5.36204">
        <ele>360</ele>
        <time>2014-05-20T12:02:49Z</time>
      </trkpt>
      <trkpt lat="43.82146" lon="5.36208">
        <ele>360</ele>
        <time>2014-05-20T12:02:51Z</time>
      </trkpt>
      <trkpt lat="43.82148" lon="5.36212">
        <ele>360</ele>
        <time>2014-05-20T12:02:53Z</time>
      </trkpt>
      <trkpt lat="43.8215" lon="5.36221">
        <ele>360</ele>
        <time>2014-05-20T12:02:58Z</time>
      </trkpt>
      <trkpt lat="43.82155" lon="5.36229">
        <ele>360</ele>
        <time>2014-05-20T12:03:05Z</time>
      </trkpt>
      <trkpt lat="43.82156" lon="5.36232">
        <ele>360</ele>
        <time>2014-05-20T12:03:07Z</time>
      </trkpt>
      <trkpt lat="43.82156" lon="5.36234">
        <ele>360</ele>
        <time>2014-05-20T12:03:08Z</time>
      </trkpt>
      <trkpt lat="43.82159" lon="5.36238">
        <ele>359</ele>
        <time>2014-05-20T12:03:12Z</time>
      </trkpt>
      <trkpt lat="43.8216" lon="5.3624">
        <ele>358</ele>
        <time>2014-05-20T12:03:14Z</time>
      </trkpt>
      <trkpt lat="43.82161" lon="5.36241">
        <ele>358</ele>
        <time>2014-05-20T12:03:15Z</time>
      </trkpt>
      <trkpt lat="43.82162" lon="5.36244">
        <ele>358</ele>
        <time>2014-05-20T12:03:17Z</time>
      </trkpt>
      <trkpt lat="43.82164" lon="5.36246">
        <ele>357</ele>
        <time>2014-05-20T12:03:19Z</time>
      </trkpt>
      <trkpt lat="43.82167" lon="5.36249">
        <ele>356</ele>
        <time>2014-05-20T12:03:22Z</time>
      </trkpt>
      <trkpt lat="43.82171" lon="5.36253">
        <ele>356</ele>
        <time>2014-05-20T12:03:26Z</time>
      </trkpt>
      <trkpt lat="43.82172" lon="5.36259">
        <ele>356</ele>
        <time>2014-05-20T12:03:30Z</time>
      </trkpt>
      <trkpt lat="43.82173" lon="5.36262">
        <ele>355</ele>
        <time>2014-05-20T12:03:32Z</time>
      </trkpt>
      <trkpt lat="43.82172" lon="5.36267">
        <ele>355</ele>
        <time>2014-05-20T12:03:35Z</time>
      </trkpt>
      <trkpt lat="43.82173" lon="5.3628">
        <ele>356</ele>
        <time>2014-05-20T12:03:44Z</time>
      </trkpt>
      <trkpt lat="43.82173" lon="5.36282">
        <ele>356</ele>
        <time>2014-05-20T12:03:45Z</time>
      </trkpt>
      <trkpt lat="43.82173" lon="5.36285">
        <ele>356</ele>
        <time>2014-05-20T12:03:47Z</time>
      </trkpt>
      <trkpt lat="43.82176" lon="5.36291">
        <ele>356</ele>
        <time>2014-05-20T12:03:52Z</time>
      </trkpt>
      <trkpt lat="43.82176" lon="5.36294">
        <ele>356</ele>
        <time>2014-05-20T12:03:54Z</time>
      </trkpt>
      <trkpt lat="43.82176" lon="5.36301">
        <ele>356</ele>
        <time>2014-05-20T12:03:59Z</time>
      </trkpt>
      <trkpt lat="43.82176" lon="5.36306">
        <ele>357</ele>
        <time>2014-05-20T12:04:02Z</time>
      </trkpt>
      <trkpt lat="43.82177" lon="5.36311">
        <ele>357</ele>
        <time>2014-05-20T12:04:05Z</time>
      </trkpt>
      <trkpt lat="43.82178" lon="5.36317">
        <ele>358</ele>
        <time>2014-05-20T12:04:09Z</time>
      </trkpt>
      <trkpt lat="43.82178" lon="5.3632">
        <ele>358</ele>
        <time>2014-05-20T12:04:11Z</time>
      </trkpt>
      <trkpt lat="43.82179" lon="5.36338">
        <ele>360</ele>
        <time>2014-05-20T12:04:21Z</time>
      </trkpt>
      <trkpt lat="43.8218" lon="5.36341">
        <ele>360</ele>
        <time>2014-05-20T12:04:23Z</time>
      </trkpt>
      <trkpt lat="43.82181" lon="5.36344">
        <ele>360</ele>
        <time>2014-05-20T12:04:25Z</time>
      </trkpt>
      <trkpt lat="43.8218" lon="5.36347">
        <ele>359</ele>
        <time>2014-05-20T12:04:27Z</time>
      </trkpt>
      <trkpt lat="43.82181" lon="5.3635">
        <ele>359</ele>
        <time>2014-05-20T12:04:29Z</time>
      </trkpt>
      <trkpt lat="43.8218" lon="5.36361">
        <ele>359</ele>
        <time>2014-05-20T12:04:35Z</time>
      </trkpt>
      <trkpt lat="43.82179" lon="5.36364">
        <ele>359</ele>
        <time>2014-05-20T12:04:37Z</time>
      </trkpt>
      <trkpt lat="43.82179" lon="5.36369">
        <ele>359</ele>
        <time>2014-05-20T12:04:40Z</time>
      </trkpt>
      <trkpt lat="43.82177" lon="5.36375">
        <ele>359</ele>
        <time>2014-05-20T12:04:43Z</time>
      </trkpt>
      <trkpt lat="43.82177" lon="5.36381">
        <ele>359</ele>
        <time>2014-05-20T12:04:47Z</time>
      </trkpt>
      <trkpt lat="43.82178" lon="5.36386">
        <ele>359</ele>
        <time>2014-05-20T12:04:51Z</time>
      </trkpt>
      <trkpt lat="43.8218" lon="5.36388">
        <ele>359</ele>
        <time>2014-05-20T12:04:54Z</time>
      </trkpt>
      <trkpt lat="43.82179" lon="5.36392">
        <ele>360</ele>
        <time>2014-05-20T12:04:58Z</time>
      </trkpt>
      <trkpt lat="43.8218" lon="5.36395">
        <ele>360</ele>
        <time>2014-05-20T12:05:01Z</time>
      </trkpt>
      <trkpt lat="43.82181" lon="5.36401">
        <ele>360</ele>
        <time>2014-05-20T12:05:05Z</time>
      </trkpt>
      <trkpt lat="43.82182" lon="5.36402">
        <ele>360</ele>
        <time>2014-05-20T12:05:06Z</time>
      </trkpt>
      <trkpt lat="43.82182" lon="5.36406">
        <ele>360</ele>
        <time>2014-05-20T12:05:08Z</time>
      </trkpt>
      <trkpt lat="43.82184" lon="5.36415">
        <ele>360</ele>
        <time>2014-05-20T12:05:15Z</time>
      </trkpt>
      <trkpt lat="43.82184" lon="5.36418">
        <ele>362</ele>
        <time>2014-05-20T12:05:17Z</time>
      </trkpt>
      <trkpt lat="43.82186" lon="5.36421">
        <ele>362</ele>
        <time>2014-05-20T12:05:20Z</time>
      </trkpt>
      <trkpt lat="43.82186" lon="5.36423">
        <ele>362</ele>
        <time>2014-05-20T12:05:22Z</time>
      </trkpt>
      <trkpt lat="43.82189" lon="5.3643">
        <ele>362</ele>
        <time>2014-05-20T12:05:29Z</time>
      </trkpt>
      <trkpt lat="43.82192" lon="5.36435">
        <ele>362</ele>
        <time>2014-05-20T12:05:33Z</time>
      </trkpt>
      <trkpt lat="43.82194" lon="5.36441">
        <ele>362</ele>
        <time>2014-05-20T12:05:38Z</time>
      </trkpt>
      <trkpt lat="43.82197" lon="5.36444">
        <ele>363</ele>
        <time>2014-05-20T12:05:42Z</time>
      </trkpt>
      <trkpt lat="43.82198" lon="5.36448">
        <ele>363</ele>
        <time>2014-05-20T12:05:45Z</time>
      </trkpt>
      <trkpt lat="43.82198" lon="5.36449">
        <ele>363</ele>
        <time>2014-05-20T12:05:46Z</time>
      </trkpt>
      <trkpt lat="43.82198" lon="5.36458">
        <ele>363</ele>
        <time>2014-05-20T12:05:52Z</time>
      </trkpt>
      <trkpt lat="43.82201" lon="5.36465">
        <ele>363</ele>
        <time>2014-05-20T12:05:57Z</time>
      </trkpt>
      <trkpt lat="43.822" lon="5.36466">
        <ele>363</ele>
        <time>2014-05-20T12:05:58Z</time>
      </trkpt>
      <trkpt lat="43.82202" lon="5.36473">
        <ele>363</ele>
        <time>2014-05-20T12:06:03Z</time>
      </trkpt>
      <trkpt lat="43.82201" lon="5.36481">
        <ele>364</ele>
        <time>2014-05-20T12:06:14Z</time>
      </trkpt>
      <trkpt lat="43.82199" lon="5.36483">
        <ele>364</ele>
        <time>2014-05-20T12:06:18Z</time>
      </trkpt>
      <trkpt lat="43.822" lon="5.36483">
        <ele>364</ele>
        <time>2014-05-20T12:06:22Z</time>
      </trkpt>
      <trkpt lat="43.822" lon="5.36484">
        <ele>364</ele>
        <time>2014-05-20T12:06:26Z</time>
      </trkpt>
      <trkpt lat="43.82201" lon="5.36484">
        <ele>364</ele>
        <time>2014-05-20T12:06:29Z</time>
      </trkpt>
      <trkpt lat="43.82201" lon="5.36486">
        <ele>364</ele>
        <time>2014-05-20T12:06:32Z</time>
      </trkpt>
      <trkpt lat="43.82201" lon="5.36492">
        <ele>364</ele>
        <time>2014-05-20T12:06:37Z</time>
      </trkpt>
      <trkpt lat="43.82201" lon="5.36495">
        <ele>364</ele>
        <time>2014-05-20T12:06:39Z</time>
      </trkpt>
      <trkpt lat="43.82203" lon="5.36498">
        <ele>364</ele>
        <time>2014-05-20T12:06:42Z</time>
      </trkpt>
      <trkpt lat="43.82204" lon="5.36508">
        <ele>369</ele>
        <time>2014-05-20T12:06:50Z</time>
      </trkpt>
      <trkpt lat="43.82205" lon="5.36513">
        <ele>369</ele>
        <time>2014-05-20T12:06:54Z</time>
      </trkpt>
      <trkpt lat="43.82205" lon="5.36521">
        <ele>369</ele>
        <time>2014-05-20T12:06:59Z</time>
      </trkpt>
      <trkpt lat="43.82207" lon="5.36524">
        <ele>369</ele>
        <time>2014-05-20T12:07:02Z</time>
      </trkpt>
      <trkpt lat="43.82207" lon="5.36528">
        <ele>369</ele>
        <time>2014-05-20T12:07:05Z</time>
      </trkpt>
      <trkpt lat="43.82211" lon="5.36536">
        <ele>369</ele>
        <time>2014-05-20T12:07:13Z</time>
      </trkpt>
      <trkpt lat="43.8221" lon="5.36541">
        <ele>369</ele>
        <time>2014-05-20T12:07:16Z</time>
      </trkpt>
      <trkpt lat="43.82211" lon="5.36543">
        <ele>369</ele>
        <time>2014-05-20T12:07:18Z</time>
      </trkpt>
      <trkpt lat="43.82211" lon="5.36557">
        <ele>370</ele>
        <time>2014-05-20T12:07:28Z</time>
      </trkpt>
      <trkpt lat="43.82211" lon="5.36562">
        <ele>370</ele>
        <time>2014-05-20T12:07:31Z</time>
      </trkpt>
      <trkpt lat="43.82211" lon="5.36565">
        <ele>370</ele>
        <time>2014-05-20T12:07:33Z</time>
      </trkpt>
      <trkpt lat="43.82212" lon="5.36568">
        <ele>370</ele>
        <time>2014-05-20T12:07:36Z</time>
      </trkpt>
      <trkpt lat="43.82216" lon="5.36573">
        <ele>370</ele>
        <time>2014-05-20T12:07:40Z</time>
      </trkpt>
      <trkpt lat="43.82219" lon="5.36576">
        <ele>369</ele>
        <time>2014-05-20T12:07:44Z</time>
      </trkpt>
      <trkpt lat="43.82222" lon="5.3658">
        <ele>369</ele>
        <time>2014-05-20T12:07:47Z</time>
      </trkpt>
      <trkpt lat="43.82223" lon="5.36585">
        <ele>372</ele>
        <time>2014-05-20T12:07:50Z</time>
      </trkpt>
      <trkpt lat="43.82225" lon="5.36593">
        <ele>372</ele>
        <time>2014-05-20T12:07:55Z</time>
      </trkpt>
      <trkpt lat="43.82226" lon="5.36596">
        <ele>371</ele>
        <time>2014-05-20T12:07:57Z</time>
      </trkpt>
      <trkpt lat="43.82226" lon="5.36601">
        <ele>372</ele>
        <time>2014-05-20T12:08:00Z</time>
      </trkpt>
      <trkpt lat="43.82227" lon="5.36611">
        <ele>372</ele>
        <time>2014-05-20T12:08:06Z</time>
      </trkpt>
      <trkpt lat="43.8223" lon="5.36621">
        <ele>372</ele>
        <time>2014-05-20T12:08:13Z</time>
      </trkpt>
      <trkpt lat="43.8223" lon="5.36624">
        <ele>372</ele>
        <time>2014-05-20T12:08:15Z</time>
      </trkpt>
      <trkpt lat="43.82228" lon="5.36628">
        <ele>373</ele>
        <time>2014-05-20T12:08:18Z</time>
      </trkpt>
      <trkpt lat="43.82228" lon="5.36633">
        <ele>373</ele>
        <time>2014-05-20T12:08:22Z</time>
      </trkpt>
      <trkpt lat="43.8223" lon="5.36637">
        <ele>372</ele>
        <time>2014-05-20T12:08:25Z</time>
      </trkpt>
      <trkpt lat="43.8223" lon="5.36638">
        <ele>372</ele>
        <time>2014-05-20T12:08:26Z</time>
      </trkpt>
      <trkpt lat="43.82231" lon="5.36639">
        <ele>372</ele>
        <time>2014-05-20T12:08:27Z</time>
      </trkpt>
      <trkpt lat="43.82232" lon="5.3664">
        <ele>372</ele>
        <time>2014-05-20T12:08:28Z</time>
      </trkpt>
      <trkpt lat="43.82233" lon="5.36646">
        <ele>371</ele>
        <time>2014-05-20T12:08:32Z</time>
      </trkpt>
      <trkpt lat="43.82235" lon="5.36649">
        <ele>371</ele>
        <time>2014-05-20T12:08:35Z</time>
      </trkpt>
      <trkpt lat="43.82238" lon="5.36653">
        <ele>370</ele>
        <time>2014-05-20T12:08:38Z</time>
      </trkpt>
      <trkpt lat="43.8224" lon="5.36657">
        <ele>369</ele>
        <time>2014-05-20T12:08:41Z</time>
      </trkpt>
      <trkpt lat="43.82241" lon="5.36662">
        <ele>368</ele>
        <time>2014-05-20T12:08:44Z</time>
      </trkpt>
      <trkpt lat="43.82242" lon="5.36664">
        <ele>367</ele>
        <time>2014-05-20T12:08:46Z</time>
      </trkpt>
      <trkpt lat="43.82242" lon="5.36667">
        <ele>368</ele>
        <time>2014-05-20T12:08:48Z</time>
      </trkpt>
      <trkpt lat="43.82243" lon="5.36671">
        <ele>368</ele>
        <time>2014-05-20T12:08:51Z</time>
      </trkpt>
      <trkpt lat="43.82243" lon="5.36676">
        <ele>370</ele>
        <time>2014-05-20T12:08:55Z</time>
      </trkpt>
      <trkpt lat="43.82245" lon="5.36676">
        <ele>369</ele>
        <time>2014-05-20T12:08:56Z</time>
      </trkpt>
      <trkpt lat="43.82247" lon="5.36678">
        <ele>369</ele>
        <time>2014-05-20T12:08:58Z</time>
      </trkpt>
      <trkpt lat="43.82249" lon="5.36678">
        <ele>369</ele>
        <time>2014-05-20T12:09:00Z</time>
      </trkpt>
      <trkpt lat="43.8225" lon="5.36683">
        <ele>371</ele>
        <time>2014-05-20T12:09:05Z</time>
      </trkpt>
      <trkpt lat="43.8225" lon="5.36684">
        <ele>371</ele>
        <time>2014-05-20T12:09:06Z</time>
      </trkpt>
      <trkpt lat="43.82252" lon="5.36688">
        <ele>370</ele>
        <time>2014-05-20T12:09:11Z</time>
      </trkpt>
      <trkpt lat="43.82253" lon="5.36689">
        <ele>370</ele>
        <time>2014-05-20T12:09:12Z</time>
      </trkpt>
      <trkpt lat="43.82253" lon="5.36693">
        <ele>370</ele>
        <time>2014-05-20T12:09:15Z</time>
      </trkpt>
      <trkpt lat="43.82256" lon="5.36698">
        <ele>371</ele>
        <time>2014-05-20T12:09:19Z</time>
      </trkpt>
      <trkpt lat="43.82256" lon="5.367">
        <ele>371</ele>
        <time>2014-05-20T12:09:20Z</time>
      </trkpt>
      <trkpt lat="43.82257" lon="5.36704">
        <ele>371</ele>
        <time>2014-05-20T12:09:23Z</time>
      </trkpt>
      <trkpt lat="43.8226" lon="5.36717">
        <ele>371</ele>
        <time>2014-05-20T12:09:31Z</time>
      </trkpt>
      <trkpt lat="43.8226" lon="5.36721">
        <ele>371</ele>
        <time>2014-05-20T12:09:34Z</time>
      </trkpt>
      <trkpt lat="43.82262" lon="5.36726">
        <ele>371</ele>
        <time>2014-05-20T12:09:38Z</time>
      </trkpt>
      <trkpt lat="43.82266" lon="5.36733">
        <ele>371</ele>
        <time>2014-05-20T12:09:44Z</time>
      </trkpt>
      <trkpt lat="43.82268" lon="5.36741">
        <ele>371</ele>
        <time>2014-05-20T12:09:50Z</time>
      </trkpt>
      <trkpt lat="43.82271" lon="5.36744">
        <ele>371</ele>
        <time>2014-05-20T12:09:55Z</time>
      </trkpt>
      <trkpt lat="43.82272" lon="5.36745">
        <ele>371</ele>
        <time>2014-05-20T12:09:56Z</time>
      </trkpt>
      <trkpt lat="43.82277" lon="5.36761">
        <ele>373</ele>
        <time>2014-05-20T12:10:08Z</time>
      </trkpt>
      <trkpt lat="43.82279" lon="5.36764">
        <ele>374</ele>
        <time>2014-05-20T12:10:11Z</time>
      </trkpt>
      <trkpt lat="43.82282" lon="5.36768">
        <ele>374</ele>
        <time>2014-05-20T12:10:15Z</time>
      </trkpt>
      <trkpt lat="43.82283" lon="5.36771">
        <ele>374</ele>
        <time>2014-05-20T12:10:17Z</time>
      </trkpt>
      <trkpt lat="43.82284" lon="5.36778">
        <ele>375</ele>
        <time>2014-05-20T12:10:22Z</time>
      </trkpt>
      <trkpt lat="43.82283" lon="5.36785">
        <ele>375</ele>
        <time>2014-05-20T12:10:27Z</time>
      </trkpt>
      <trkpt lat="43.82281" lon="5.3679">
        <ele>374</ele>
        <time>2014-05-20T12:10:31Z</time>
      </trkpt>
      <trkpt lat="43.82282" lon="5.36792">
        <ele>374</ele>
        <time>2014-05-20T12:10:36Z</time>
      </trkpt>
      <trkpt lat="43.82282" lon="5.36793">
        <ele>374</ele>
        <time>2014-05-20T12:10:39Z</time>
      </trkpt>
      <trkpt lat="43.82284" lon="5.36793">
        <ele>375</ele>
        <time>2014-05-20T12:10:47Z</time>
      </trkpt>
      <trkpt lat="43.82284" lon="5.36793">
        <ele>375</ele>
        <time>2014-05-20T12:10:52Z</time>
      </trkpt>
      <trkpt lat="43.82283" lon="5.36795">
        <ele>375</ele>
        <time>2014-05-20T12:10:57Z</time>
      </trkpt>
      <trkpt lat="43.82284" lon="5.36794">
        <ele>375</ele>
        <time>2014-05-20T12:10:59Z</time>
      </trkpt>
      <trkpt lat="43.82285" lon="5.36795">
        <ele>375</ele>
        <time>2014-05-20T12:11:02Z</time>
      </trkpt>
      <trkpt lat="43.82284" lon="5.36798">
        <ele>375</ele>
        <time>2014-05-20T12:11:05Z</time>
      </trkpt>
      <trkpt lat="43.82286" lon="5.36805">
        <ele>375</ele>
        <time>2014-05-20T12:11:10Z</time>
      </trkpt>
      <trkpt lat="43.82287" lon="5.3681">
        <ele>375</ele>
        <time>2014-05-20T12:11:14Z</time>
      </trkpt>
      <trkpt lat="43.82286" lon="5.36814">
        <ele>374</ele>
        <time>2014-05-20T12:11:17Z</time>
      </trkpt>
      <trkpt lat="43.82287" lon="5.36819">
        <ele>374</ele>
        <time>2014-05-20T12:11:21Z</time>
      </trkpt>
      <trkpt lat="43.82287" lon="5.36832">
        <ele>374</ele>
        <time>2014-05-20T12:11:29Z</time>
      </trkpt>
      <trkpt lat="43.82286" lon="5.36834">
        <ele>372</ele>
        <time>2014-05-20T12:11:30Z</time>
      </trkpt>
      <trkpt lat="43.82285" lon="5.36842">
        <ele>372</ele>
        <time>2014-05-20T12:11:34Z</time>
      </trkpt>
      <trkpt lat="43.82284" lon="5.36849">
        <ele>371</ele>
        <time>2014-05-20T12:11:38Z</time>
      </trkpt>
      <trkpt lat="43.82285" lon="5.36857">
        <ele>371</ele>
        <time>2014-05-20T12:11:42Z</time>
      </trkpt>
      <trkpt lat="43.82283" lon="5.36869">
        <ele>371</ele>
        <time>2014-05-20T12:11:50Z</time>
      </trkpt>
      <trkpt lat="43.82286" lon="5.36872">
        <ele>371</ele>
        <time>2014-05-20T12:11:53Z</time>
      </trkpt>
      <trkpt lat="43.82286" lon="5.36875">
        <ele>371</ele>
        <time>2014-05-20T12:11:56Z</time>
      </trkpt>
      <trkpt lat="43.82286" lon="5.36883">
        <ele>371</ele>
        <time>2014-05-20T12:12:02Z</time>
      </trkpt>
      <trkpt lat="43.82287" lon="5.36884">
        <ele>371</ele>
        <time>2014-05-20T12:12:03Z</time>
      </trkpt>
      <trkpt lat="43.82286" lon="5.36889">
        <ele>371</ele>
        <time>2014-05-20T12:12:07Z</time>
      </trkpt>
      <trkpt lat="43.82284" lon="5.36893">
        <ele>371</ele>
        <time>2014-05-20T12:12:10Z</time>
      </trkpt>
      <trkpt lat="43.82284" lon="5.36895">
        <ele>371</ele>
        <time>2014-05-20T12:12:11Z</time>
      </trkpt>
      <trkpt lat="43.82284" lon="5.36898">
        <ele>371</ele>
        <time>2014-05-20T12:12:14Z</time>
      </trkpt>
      <trkpt lat="43.82285" lon="5.369">
        <ele>371</ele>
        <time>2014-05-20T12:12:17Z</time>
      </trkpt>
      <trkpt lat="43.82286" lon="5.36902">
        <ele>371</ele>
        <time>2014-05-20T12:12:22Z</time>
      </trkpt>
      <trkpt lat="43.82287" lon="5.36901">
        <ele>371</ele>
        <time>2014-05-20T12:12:24Z</time>
      </trkpt>
      <trkpt lat="43.82288" lon="5.36902">
        <ele>371</ele>
        <time>2014-05-20T12:12:25Z</time>
      </trkpt>
      <trkpt lat="43.82287" lon="5.36905">
        <ele>371</ele>
        <time>2014-05-20T12:12:29Z</time>
      </trkpt>
      <trkpt lat="43.82284" lon="5.36911">
        <ele>370</ele>
        <time>2014-05-20T12:12:34Z</time>
      </trkpt>
      <trkpt lat="43.82284" lon="5.36914">
        <ele>370</ele>
        <time>2014-05-20T12:12:36Z</time>
      </trkpt>
      <trkpt lat="43.82283" lon="5.3692">
        <ele>369</ele>
        <time>2014-05-20T12:12:39Z</time>
      </trkpt>
      <trkpt lat="43.82281" lon="5.36927">
        <ele>369</ele>
        <time>2014-05-20T12:12:43Z</time>
      </trkpt>
      <trkpt lat="43.82278" lon="5.3693">
        <ele>369</ele>
        <time>2014-05-20T12:12:45Z</time>
      </trkpt>
      <trkpt lat="43.82274" lon="5.36941">
        <ele>369</ele>
        <time>2014-05-20T12:12:51Z</time>
      </trkpt>
      <trkpt lat="43.82274" lon="5.36945">
        <ele>369</ele>
        <time>2014-05-20T12:12:54Z</time>
      </trkpt>
      <trkpt lat="43.82275" lon="5.36949">
        <ele>369</ele>
        <time>2014-05-20T12:12:57Z</time>
      </trkpt>
      <trkpt lat="43.82274" lon="5.36955">
        <ele>369</ele>
        <time>2014-05-20T12:13:01Z</time>
      </trkpt>
      <trkpt lat="43.82274" lon="5.3696">
        <ele>369</ele>
        <time>2014-05-20T12:13:04Z</time>
      </trkpt>
      <trkpt lat="43.82273" lon="5.36971">
        <ele>369</ele>
        <time>2014-05-20T12:13:10Z</time>
      </trkpt>
      <trkpt lat="43.82271" lon="5.36976">
        <ele>369</ele>
        <time>2014-05-20T12:13:13Z</time>
      </trkpt>
      <trkpt lat="43.82271" lon="5.3698">
        <ele>369</ele>
        <time>2014-05-20T12:13:15Z</time>
      </trkpt>
      <trkpt lat="43.82271" lon="5.36983">
        <ele>369</ele>
        <time>2014-05-20T12:13:17Z</time>
      </trkpt>
      <trkpt lat="43.82276" lon="5.3699">
        <ele>369</ele>
        <time>2014-05-20T12:13:24Z</time>
      </trkpt>
      <trkpt lat="43.82277" lon="5.36995">
        <ele>369</ele>
        <time>2014-05-20T12:13:27Z</time>
      </trkpt>
      <trkpt lat="43.82279" lon="5.36998">
        <ele>369</ele>
        <time>2014-05-20T12:13:30Z</time>
      </trkpt>
      <trkpt lat="43.8228" lon="5.37001">
        <ele>370</ele>
        <time>2014-05-20T12:13:32Z</time>
      </trkpt>
      <trkpt lat="43.82281" lon="5.37007">
        <ele>370</ele>
        <time>2014-05-20T12:13:36Z</time>
      </trkpt>
      <trkpt lat="43.82282" lon="5.37009">
        <ele>371</ele>
        <time>2014-05-20T12:13:37Z</time>
      </trkpt>
      <trkpt lat="43.82285" lon="5.37012">
        <ele>371</ele>
        <time>2014-05-20T12:13:41Z</time>
      </trkpt>
      <trkpt lat="43.82287" lon="5.37018">
        <ele>371</ele>
        <time>2014-05-20T12:13:45Z</time>
      </trkpt>
      <trkpt lat="43.82288" lon="5.37019">
        <ele>371</ele>
        <time>2014-05-20T12:13:46Z</time>
      </trkpt>
      <trkpt lat="43.82289" lon="5.37021">
        <ele>371</ele>
        <time>2014-05-20T12:13:48Z</time>
      </trkpt>
      <trkpt lat="43.82292" lon="5.37024">
        <ele>371</ele>
        <time>2014-05-20T12:13:51Z</time>
      </trkpt>
      <trkpt lat="43.82292" lon="5.3703">
        <ele>371</ele>
        <time>2014-05-20T12:13:54Z</time>
      </trkpt>
      <trkpt lat="43.82294" lon="5.37037">
        <ele>371</ele>
        <time>2014-05-20T12:13:58Z</time>
      </trkpt>
      <trkpt lat="43.82296" lon="5.3704">
        <ele>371</ele>
        <time>2014-05-20T12:14:01Z</time>
      </trkpt>
      <trkpt lat="43.82297" lon="5.37047">
        <ele>371</ele>
        <time>2014-05-20T12:14:05Z</time>
      </trkpt>
      <trkpt lat="43.82298" lon="5.37049">
        <ele>371</ele>
        <time>2014-05-20T12:14:07Z</time>
      </trkpt>
      <trkpt lat="43.82301" lon="5.37055">
        <ele>372</ele>
        <time>2014-05-20T12:14:11Z</time>
      </trkpt>
      <trkpt lat="43.82308" lon="5.37064">
        <ele>371</ele>
        <time>2014-05-20T12:14:19Z</time>
      </trkpt>
      <trkpt lat="43.8231" lon="5.37067">
        <ele>371</ele>
        <time>2014-05-20T12:14:21Z</time>
      </trkpt>
      <trkpt lat="43.82313" lon="5.3707">
        <ele>371</ele>
        <time>2014-05-20T12:14:24Z</time>
      </trkpt>
      <trkpt lat="43.82315" lon="5.37073">
        <ele>371</ele>
        <time>2014-05-20T12:14:26Z</time>
      </trkpt>
      <trkpt lat="43.82316" lon="5.37081">
        <ele>371</ele>
        <time>2014-05-20T12:14:31Z</time>
      </trkpt>
      <trkpt lat="43.82318" lon="5.37088">
        <ele>373</ele>
        <time>2014-05-20T12:14:36Z</time>
      </trkpt>
      <trkpt lat="43.82319" lon="5.37099">
        <ele>374</ele>
        <time>2014-05-20T12:14:43Z</time>
      </trkpt>
      <trkpt lat="43.82318" lon="5.37109">
        <ele>375</ele>
        <time>2014-05-20T12:14:51Z</time>
      </trkpt>
      <trkpt lat="43.82319" lon="5.37113">
        <ele>375</ele>
        <time>2014-05-20T12:14:54Z</time>
      </trkpt>
      <trkpt lat="43.8232" lon="5.37117">
        <ele>376</ele>
        <time>2014-05-20T12:14:58Z</time>
      </trkpt>
      <trkpt lat="43.82319" lon="5.37122">
        <ele>376</ele>
        <time>2014-05-20T12:15:02Z</time>
      </trkpt>
      <trkpt lat="43.82317" lon="5.37125">
        <ele>376</ele>
        <time>2014-05-20T12:15:05Z</time>
      </trkpt>
      <trkpt lat="43.82315" lon="5.37126">
        <ele>376</ele>
        <time>2014-05-20T12:15:07Z</time>
      </trkpt>
      <trkpt lat="43.82314" lon="5.37128">
        <ele>377</ele>
        <time>2014-05-20T12:15:09Z</time>
      </trkpt>
      <trkpt lat="43.82313" lon="5.37133">
        <ele>377</ele>
        <time>2014-05-20T12:15:13Z</time>
      </trkpt>
      <trkpt lat="43.82311" lon="5.37138">
        <ele>377</ele>
        <time>2014-05-20T12:15:17Z</time>
      </trkpt>
      <trkpt lat="43.82308" lon="5.37141">
        <ele>377</ele>
        <time>2014-05-20T12:15:19Z</time>
      </trkpt>
      <trkpt lat="43.82306" lon="5.37146">
        <ele>377</ele>
        <time>2014-05-20T12:15:23Z</time>
      </trkpt>
      <trkpt lat="43.82305" lon="5.3715">
        <ele>378</ele>
        <time>2014-05-20T12:15:25Z</time>
      </trkpt>
      <trkpt lat="43.82305" lon="5.37156">
        <ele>378</ele>
        <time>2014-05-20T12:15:30Z</time>
      </trkpt>
      <trkpt lat="43.82303" lon="5.37164">
        <ele>378</ele>
        <time>2014-05-20T12:15:36Z</time>
      </trkpt>
      <trkpt lat="43.82303" lon="5.37166">
        <ele>378</ele>
        <time>2014-05-20T12:15:38Z</time>
      </trkpt>
      <trkpt lat="43.82304" lon="5.37169">
        <ele>379</ele>
        <time>2014-05-20T12:15:40Z</time>
      </trkpt>
      <trkpt lat="43.82304" lon="5.3717">
        <ele>379</ele>
        <time>2014-05-20T12:15:41Z</time>
      </trkpt>
      <trkpt lat="43.82302" lon="5.37175">
        <ele>380</ele>
        <time>2014-05-20T12:15:44Z</time>
      </trkpt>
      <trkpt lat="43.82299" lon="5.37182">
        <ele>380</ele>
        <time>2014-05-20T12:15:49Z</time>
      </trkpt>
      <trkpt lat="43.82298" lon="5.37188">
        <ele>380</ele>
        <time>2014-05-20T12:15:55Z</time>
      </trkpt>
      <trkpt lat="43.82299" lon="5.37191">
        <ele>380</ele>
        <time>2014-05-20T12:15:58Z</time>
      </trkpt>
      <trkpt lat="43.823" lon="5.37194">
        <ele>380</ele>
        <time>2014-05-20T12:16:00Z</time>
      </trkpt>
      <trkpt lat="43.823" lon="5.37195">
        <ele>380</ele>
        <time>2014-05-20T12:16:01Z</time>
      </trkpt>
      <trkpt lat="43.823" lon="5.37201">
        <ele>380</ele>
        <time>2014-05-20T12:16:04Z</time>
      </trkpt>
      <trkpt lat="43.82301" lon="5.37211">
        <ele>380</ele>
        <time>2014-05-20T12:16:10Z</time>
      </trkpt>
      <trkpt lat="43.82303" lon="5.37217">
        <ele>380</ele>
        <time>2014-05-20T12:16:15Z</time>
      </trkpt>
      <trkpt lat="43.82305" lon="5.37218">
        <ele>380</ele>
        <time>2014-05-20T12:16:17Z</time>
      </trkpt>
      <trkpt lat="43.82306" lon="5.3722">
        <ele>380</ele>
        <time>2014-05-20T12:16:18Z</time>
      </trkpt>
      <trkpt lat="43.82307" lon="5.37234">
        <ele>379</ele>
        <time>2014-05-20T12:16:27Z</time>
      </trkpt>
      <trkpt lat="43.82307" lon="5.37236">
        <ele>379</ele>
        <time>2014-05-20T12:16:30Z</time>
      </trkpt>
      <trkpt lat="43.82308" lon="5.37238">
        <ele>379</ele>
        <time>2014-05-20T12:16:33Z</time>
      </trkpt>
      <trkpt lat="43.82306" lon="5.37242">
        <ele>379</ele>
        <time>2014-05-20T12:16:40Z</time>
      </trkpt>
      <trkpt lat="43.82305" lon="5.3724">
        <ele>379</ele>
        <time>2014-05-20T12:16:47Z</time>
      </trkpt>
      <trkpt lat="43.82302" lon="5.37237">
        <ele>380</ele>
        <time>2014-05-20T12:16:54Z</time>
      </trkpt>
      <trkpt lat="43.82301" lon="5.37237">
        <ele>380</ele>
        <time>2014-05-20T12:16:55Z</time>
      </trkpt>
      <trkpt lat="43.823" lon="5.37238">
        <ele>380</ele>
        <time>2014-05-20T12:16:58Z</time>
      </trkpt>
      <trkpt lat="43.82295" lon="5.37247">
        <ele>380</ele>
        <time>2014-05-20T12:17:07Z</time>
      </trkpt>
      <trkpt lat="43.82294" lon="5.37248">
        <ele>381</ele>
        <time>2014-05-20T12:17:09Z</time>
      </trkpt>
      <trkpt lat="43.82293" lon="5.3725">
        <ele>381</ele>
        <time>2014-05-20T12:17:10Z</time>
      </trkpt>
      <trkpt lat="43.82292" lon="5.3725">
        <ele>380</ele>
        <time>2014-05-20T12:17:12Z</time>
      </trkpt>
      <trkpt lat="43.82289" lon="5.37253">
        <ele>381</ele>
        <time>2014-05-20T12:17:17Z</time>
      </trkpt>
      <trkpt lat="43.82281" lon="5.37262">
        <ele>381</ele>
        <time>2014-05-20T12:17:27Z</time>
      </trkpt>
      <trkpt lat="43.82279" lon="5.37277">
        <ele>381</ele>
        <time>2014-05-20T12:17:43Z</time>
      </trkpt>
      <trkpt lat="43.82277" lon="5.37278">
        <ele>381</ele>
        <time>2014-05-20T12:17:46Z</time>
      </trkpt>
      <trkpt lat="43.82269" lon="5.37284">
        <ele>381</ele>
        <time>2014-05-20T12:17:56Z</time>
      </trkpt>
      <trkpt lat="43.82267" lon="5.37286">
        <ele>381</ele>
        <time>2014-05-20T12:17:59Z</time>
      </trkpt>
      <trkpt lat="43.82266" lon="5.37285">
        <ele>381</ele>
        <time>2014-05-20T12:18:01Z</time>
      </trkpt>
      <trkpt lat="43.82265" lon="5.37287">
        <ele>381</ele>
        <time>2014-05-20T12:18:03Z</time>
      </trkpt>
      <trkpt lat="43.82262" lon="5.37288">
        <ele>381</ele>
        <time>2014-05-20T12:18:06Z</time>
      </trkpt>
      <trkpt lat="43.82259" lon="5.37291">
        <ele>381</ele>
        <time>2014-05-20T12:18:09Z</time>
      </trkpt>
      <trkpt lat="43.82254" lon="5.37299">
        <ele>381</ele>
        <time>2014-05-20T12:18:16Z</time>
      </trkpt>
      <trkpt lat="43.82253" lon="5.37303">
        <ele>380</ele>
        <time>2014-05-20T12:18:20Z</time>
      </trkpt>
      <trkpt lat="43.82251" lon="5.37304">
        <ele>380</ele>
        <time>2014-05-20T12:18:22Z</time>
      </trkpt>
      <trkpt lat="43.8225" lon="5.37307">
        <ele>392</ele>
        <time>2014-05-20T12:18:25Z</time>
      </trkpt>
      <trkpt lat="43.8225" lon="5.37309">
        <ele>380</ele>
        <time>2014-05-20T12:18:27Z</time>
      </trkpt>
      <trkpt lat="43.82253" lon="5.3731">
        <ele>380</ele>
        <time>2014-05-20T12:18:30Z</time>
      </trkpt>
      <trkpt lat="43.82253" lon="5.37312">
        <ele>380</ele>
        <time>2014-05-20T12:18:33Z</time>
      </trkpt>
      <trkpt lat="43.82253" lon="5.37313">
        <ele>380</ele>
        <time>2014-05-20T12:18:34Z</time>
      </trkpt>
      <trkpt lat="43.82254" lon="5.37315">
        <ele>380</ele>
        <time>2014-05-20T12:18:38Z</time>
      </trkpt>
      <trkpt lat="43.82254" lon="5.3732">
        <ele>379</ele>
        <time>2014-05-20T12:18:42Z</time>
      </trkpt>
      <trkpt lat="43.82252" lon="5.37322">
        <ele>379</ele>
        <time>2014-05-20T12:18:44Z</time>
      </trkpt>
      <trkpt lat="43.82251" lon="5.37325">
        <ele>379</ele>
        <time>2014-05-20T12:18:50Z</time>
      </trkpt>
      <trkpt lat="43.82245" lon="5.37331">
        <ele>383</ele>
        <time>2014-05-20T12:18:56Z</time>
      </trkpt>
      <trkpt lat="43.82243" lon="5.37331">
        <ele>385</ele>
        <time>2014-05-20T12:18:58Z</time>
      </trkpt>
      <trkpt lat="43.82238" lon="5.37333">
        <ele>387</ele>
        <time>2014-05-20T12:19:07Z</time>
      </trkpt>
      <trkpt lat="43.82236" lon="5.37333">
        <ele>388</ele>
        <time>2014-05-20T12:19:11Z</time>
      </trkpt>
      <trkpt lat="43.82232" lon="5.37337">
        <ele>388</ele>
        <time>2014-05-20T12:19:19Z</time>
      </trkpt>
      <trkpt lat="43.8223" lon="5.3734">
        <ele>389</ele>
        <time>2014-05-20T12:19:22Z</time>
      </trkpt>
      <trkpt lat="43.8223" lon="5.37341">
        <ele>389</ele>
        <time>2014-05-20T12:19:23Z</time>
      </trkpt>
      <trkpt lat="43.82225" lon="5.37351">
        <ele>392</ele>
        <time>2014-05-20T12:19:30Z</time>
      </trkpt>
      <trkpt lat="43.82221" lon="5.37365">
        <ele>393</ele>
        <time>2014-05-20T12:19:38Z</time>
      </trkpt>
      <trkpt lat="43.82218" lon="5.37376">
        <ele>393</ele>
        <time>2014-05-20T12:19:43Z</time>
      </trkpt>
      <trkpt lat="43.82218" lon="5.3738">
        <ele>393</ele>
        <time>2014-05-20T12:19:45Z</time>
      </trkpt>
      <trkpt lat="43.82217" lon="5.37382">
        <ele>393</ele>
        <time>2014-05-20T12:19:46Z</time>
      </trkpt>
      <trkpt lat="43.82215" lon="5.37387">
        <ele>394</ele>
        <time>2014-05-20T12:19:48Z</time>
      </trkpt>
      <trkpt lat="43.82214" lon="5.37391">
        <ele>394</ele>
        <time>2014-05-20T12:19:50Z</time>
      </trkpt>
      <trkpt lat="43.82213" lon="5.37395">
        <ele>394</ele>
        <time>2014-05-20T12:19:52Z</time>
      </trkpt>
      <trkpt lat="43.82214" lon="5.37398">
        <ele>393</ele>
        <time>2014-05-20T12:19:56Z</time>
      </trkpt>
      <trkpt lat="43.82212" lon="5.37402">
        <ele>394</ele>
        <time>2014-05-20T12:19:58Z</time>
      </trkpt>
      <trkpt lat="43.82211" lon="5.37405">
        <ele>394</ele>
        <time>2014-05-20T12:20:00Z</time>
      </trkpt>
      <trkpt lat="43.8221" lon="5.37409">
        <ele>394</ele>
        <time>2014-05-20T12:20:02Z</time>
      </trkpt>
      <trkpt lat="43.8221" lon="5.3742">
        <ele>392</ele>
        <time>2014-05-20T12:20:10Z</time>
      </trkpt>
      <trkpt lat="43.82211" lon="5.37426">
        <ele>392</ele>
        <time>2014-05-20T12:20:13Z</time>
      </trkpt>
      <trkpt lat="43.82212" lon="5.37429">
        <ele>391</ele>
        <time>2014-05-20T12:20:16Z</time>
      </trkpt>
      <trkpt lat="43.8221" lon="5.37438">
        <ele>392</ele>
        <time>2014-05-20T12:20:22Z</time>
      </trkpt>
      <trkpt lat="43.82208" lon="5.37444">
        <ele>392</ele>
        <time>2014-05-20T12:20:27Z</time>
      </trkpt>
      <trkpt lat="43.82208" lon="5.37445">
        <ele>392</ele>
        <time>2014-05-20T12:20:28Z</time>
      </trkpt>
      <trkpt lat="43.82204" lon="5.3745">
        <ele>392</ele>
        <time>2014-05-20T12:20:32Z</time>
      </trkpt>
      <trkpt lat="43.822" lon="5.37455">
        <ele>392</ele>
        <time>2014-05-20T12:20:37Z</time>
      </trkpt>
      <trkpt lat="43.82199" lon="5.37457">
        <ele>392</ele>
        <time>2014-05-20T12:20:39Z</time>
      </trkpt>
      <trkpt lat="43.82198" lon="5.37457">
        <ele>392</ele>
        <time>2014-05-20T12:20:40Z</time>
      </trkpt>
      <trkpt lat="43.82195" lon="5.37462">
        <ele>392</ele>
        <time>2014-05-20T12:20:44Z</time>
      </trkpt>
      <trkpt lat="43.82187" lon="5.37476">
        <ele>391</ele>
        <time>2014-05-20T12:20:56Z</time>
      </trkpt>
      <trkpt lat="43.82182" lon="5.37487">
        <ele>390</ele>
        <time>2014-05-20T12:21:02Z</time>
      </trkpt>
      <trkpt lat="43.82178" lon="5.37495">
        <ele>389</ele>
        <time>2014-05-20T12:21:06Z</time>
      </trkpt>
      <trkpt lat="43.82173" lon="5.37509">
        <ele>390</ele>
        <time>2014-05-20T12:21:14Z</time>
      </trkpt>
      <trkpt lat="43.82162" lon="5.37533">
        <ele>393</ele>
        <time>2014-05-20T12:21:26Z</time>
      </trkpt>
      <trkpt lat="43.82159" lon="5.37538">
        <ele>393</ele>
        <time>2014-05-20T12:21:30Z</time>
      </trkpt>
      <trkpt lat="43.82153" lon="5.37547">
        <ele>393</ele>
        <time>2014-05-20T12:21:38Z</time>
      </trkpt>
      <trkpt lat="43.8215" lon="5.37551">
        <ele>393</ele>
        <time>2014-05-20T12:21:42Z</time>
      </trkpt>
      <trkpt lat="43.82147" lon="5.37555">
        <ele>393</ele>
        <time>2014-05-20T12:21:46Z</time>
      </trkpt>
      <trkpt lat="43.82142" lon="5.3757">
        <ele>392</ele>
        <time>2014-05-20T12:21:56Z</time>
      </trkpt>
      <trkpt lat="43.82141" lon="5.37575">
        <ele>392</ele>
        <time>2014-05-20T12:22:00Z</time>
      </trkpt>
      <trkpt lat="43.82139" lon="5.37579">
        <ele>392</ele>
        <time>2014-05-20T12:22:02Z</time>
      </trkpt>
      <trkpt lat="43.82141" lon="5.37592">
        <ele>391</ele>
        <time>2014-05-20T12:22:12Z</time>
      </trkpt>
      <trkpt lat="43.82142" lon="5.37595">
        <ele>391</ele>
        <time>2014-05-20T12:22:14Z</time>
      </trkpt>
      <trkpt lat="43.82143" lon="5.37596">
        <ele>391</ele>
        <time>2014-05-20T12:22:15Z</time>
      </trkpt>
      <trkpt lat="43.82143" lon="5.37601">
        <ele>391</ele>
        <time>2014-05-20T12:22:18Z</time>
      </trkpt>
      <trkpt lat="43.82142" lon="5.37604">
        <ele>391</ele>
        <time>2014-05-20T12:22:20Z</time>
      </trkpt>
      <trkpt lat="43.82142" lon="5.3761">
        <ele>392</ele>
        <time>2014-05-20T12:22:25Z</time>
      </trkpt>
      <trkpt lat="43.82141" lon="5.37624">
        <ele>393</ele>
        <time>2014-05-20T12:22:34Z</time>
      </trkpt>
      <trkpt lat="43.82139" lon="5.37636">
        <ele>393</ele>
        <time>2014-05-20T12:22:42Z</time>
      </trkpt>
      <trkpt lat="43.8213" lon="5.37658">
        <ele>394</ele>
        <time>2014-05-20T12:22:56Z</time>
      </trkpt>
      <trkpt lat="43.82125" lon="5.37669">
        <ele>397</ele>
        <time>2014-05-20T12:23:04Z</time>
      </trkpt>
      <trkpt lat="43.82122" lon="5.3768">
        <ele>397</ele>
        <time>2014-05-20T12:23:14Z</time>
      </trkpt>
      <trkpt lat="43.82111" lon="5.37705">
        <ele>398</ele>
        <time>2014-05-20T12:23:26Z</time>
      </trkpt>
      <trkpt lat="43.82109" lon="5.37707">
        <ele>398</ele>
        <time>2014-05-20T12:23:28Z</time>
      </trkpt>
      <trkpt lat="43.82105" lon="5.37725">
        <ele>398</ele>
        <time>2014-05-20T12:23:41Z</time>
      </trkpt>
      <trkpt lat="43.82101" lon="5.37731">
        <ele>398</ele>
        <time>2014-05-20T12:23:46Z</time>
      </trkpt>
      <trkpt lat="43.82101" lon="5.37734">
        <ele>398</ele>
        <time>2014-05-20T12:23:48Z</time>
      </trkpt>
      <trkpt lat="43.82099" lon="5.37738">
        <ele>398</ele>
        <time>2014-05-20T12:23:51Z</time>
      </trkpt>
      <trkpt lat="43.82098" lon="5.37746">
        <ele>398</ele>
        <time>2014-05-20T12:23:57Z</time>
      </trkpt>
      <trkpt lat="43.82099" lon="5.37749">
        <ele>398</ele>
        <time>2014-05-20T12:24:00Z</time>
      </trkpt>
      <trkpt lat="43.82098" lon="5.37754">
        <ele>398</ele>
        <time>2014-05-20T12:24:03Z</time>
      </trkpt>
      <trkpt lat="43.82099" lon="5.37758">
        <ele>398</ele>
        <time>2014-05-20T12:24:06Z</time>
      </trkpt>
      <trkpt lat="43.82099" lon="5.37766">
        <ele>398</ele>
        <time>2014-05-20T12:24:12Z</time>
      </trkpt>
      <trkpt lat="43.821" lon="5.37769">
        <ele>398</ele>
        <time>2014-05-20T12:24:16Z</time>
      </trkpt>
      <trkpt lat="43.821" lon="5.37772">
        <ele>398</ele>
        <time>2014-05-20T12:24:18Z</time>
      </trkpt>
      <trkpt lat="43.82099" lon="5.37776">
        <ele>398</ele>
        <time>2014-05-20T12:24:20Z</time>
      </trkpt>
      <trkpt lat="43.82098" lon="5.37778">
        <ele>398</ele>
        <time>2014-05-20T12:24:21Z</time>
      </trkpt>
      <trkpt lat="43.82095" lon="5.37786">
        <ele>398</ele>
        <time>2014-05-20T12:24:25Z</time>
      </trkpt>
      <trkpt lat="43.82093" lon="5.37791">
        <ele>398</ele>
        <time>2014-05-20T12:24:28Z</time>
      </trkpt>
      <trkpt lat="43.82091" lon="5.37796">
        <ele>397</ele>
        <time>2014-05-20T12:24:31Z</time>
      </trkpt>
      <trkpt lat="43.82087" lon="5.37809">
        <ele>397</ele>
        <time>2014-05-20T12:24:39Z</time>
      </trkpt>
      <trkpt lat="43.82086" lon="5.37812">
        <ele>397</ele>
        <time>2014-05-20T12:24:41Z</time>
      </trkpt>
      <trkpt lat="43.82086" lon="5.37819">
        <ele>396</ele>
        <time>2014-05-20T12:24:45Z</time>
      </trkpt>
      <trkpt lat="43.82083" lon="5.3783">
        <ele>398</ele>
        <time>2014-05-20T12:24:52Z</time>
      </trkpt>
      <trkpt lat="43.82082" lon="5.37837">
        <ele>398</ele>
        <time>2014-05-20T12:24:57Z</time>
      </trkpt>
      <trkpt lat="43.82081" lon="5.37843">
        <ele>402</ele>
        <time>2014-05-20T12:25:00Z</time>
      </trkpt>
      <trkpt lat="43.82082" lon="5.37855">
        <ele>406</ele>
        <time>2014-05-20T12:25:08Z</time>
      </trkpt>
      <trkpt lat="43.82082" lon="5.37861">
        <ele>407</ele>
        <time>2014-05-20T12:25:12Z</time>
      </trkpt>
      <trkpt lat="43.82082" lon="5.37865">
        <ele>408</ele>
        <time>2014-05-20T12:25:14Z</time>
      </trkpt>
      <trkpt lat="43.82081" lon="5.37868">
        <ele>408</ele>
        <time>2014-05-20T12:25:16Z</time>
      </trkpt>
      <trkpt lat="43.82082" lon="5.37871">
        <ele>409</ele>
        <time>2014-05-20T12:25:18Z</time>
      </trkpt>
      <trkpt lat="43.82081" lon="5.37877">
        <ele>409</ele>
        <time>2014-05-20T12:25:21Z</time>
      </trkpt>
      <trkpt lat="43.82082" lon="5.37884">
        <ele>409</ele>
        <time>2014-05-20T12:25:26Z</time>
      </trkpt>
      <trkpt lat="43.82083" lon="5.3789">
        <ele>409</ele>
        <time>2014-05-20T12:25:30Z</time>
      </trkpt>
      <trkpt lat="43.82082" lon="5.37896">
        <ele>408</ele>
        <time>2014-05-20T12:25:33Z</time>
      </trkpt>
      <trkpt lat="43.82083" lon="5.37901">
        <ele>407</ele>
        <time>2014-05-20T12:25:36Z</time>
      </trkpt>
      <trkpt lat="43.82084" lon="5.37903">
        <ele>402</ele>
        <time>2014-05-20T12:25:38Z</time>
      </trkpt>
      <trkpt lat="43.82085" lon="5.37913">
        <ele>402</ele>
        <time>2014-05-20T12:25:44Z</time>
      </trkpt>
      <trkpt lat="43.82086" lon="5.37916">
        <ele>402</ele>
        <time>2014-05-20T12:25:46Z</time>
      </trkpt>
      <trkpt lat="43.82085" lon="5.37926">
        <ele>403</ele>
        <time>2014-05-20T12:25:52Z</time>
      </trkpt>
      <trkpt lat="43.82086" lon="5.37931">
        <ele>404</ele>
        <time>2014-05-20T12:25:56Z</time>
      </trkpt>
      <trkpt lat="43.82085" lon="5.37938">
        <ele>405</ele>
        <time>2014-05-20T12:26:01Z</time>
      </trkpt>
      <trkpt lat="43.82086" lon="5.37946">
        <ele>405</ele>
        <time>2014-05-20T12:26:06Z</time>
      </trkpt>
      <trkpt lat="43.82085" lon="5.37949">
        <ele>405</ele>
        <time>2014-05-20T12:26:08Z</time>
      </trkpt>
      <trkpt lat="43.82086" lon="5.37964">
        <ele>405</ele>
        <time>2014-05-20T12:26:18Z</time>
      </trkpt>
      <trkpt lat="43.82086" lon="5.37966">
        <ele>405</ele>
        <time>2014-05-20T12:26:20Z</time>
      </trkpt>
      <trkpt lat="43.82085" lon="5.37973">
        <ele>405</ele>
        <time>2014-05-20T12:26:25Z</time>
      </trkpt>
      <trkpt lat="43.82082" lon="5.37982">
        <ele>407</ele>
        <time>2014-05-20T12:26:32Z</time>
      </trkpt>
      <trkpt lat="43.82081" lon="5.37989">
        <ele>406</ele>
        <time>2014-05-20T12:26:37Z</time>
      </trkpt>
      <trkpt lat="43.82078" lon="5.37996">
        <ele>405</ele>
        <time>2014-05-20T12:26:43Z</time>
      </trkpt>
      <trkpt lat="43.82076" lon="5.38001">
        <ele>405</ele>
        <time>2014-05-20T12:26:46Z</time>
      </trkpt>
      <trkpt lat="43.8207" lon="5.38011">
        <ele>407</ele>
        <time>2014-05-20T12:26:53Z</time>
      </trkpt>
      <trkpt lat="43.82068" lon="5.38012">
        <ele>407</ele>
        <time>2014-05-20T12:26:54Z</time>
      </trkpt>
      <trkpt lat="43.82066" lon="5.38013">
        <ele>408</ele>
        <time>2014-05-20T12:26:56Z</time>
      </trkpt>
      <trkpt lat="43.82064" lon="5.38014">
        <ele>408</ele>
        <time>2014-05-20T12:26:58Z</time>
      </trkpt>
      <trkpt lat="43.82052" lon="5.38025">
        <ele>410</ele>
        <time>2014-05-20T12:27:09Z</time>
      </trkpt>
      <trkpt lat="43.82048" lon="5.3803">
        <ele>410</ele>
        <time>2014-05-20T12:27:13Z</time>
      </trkpt>
      <trkpt lat="43.82046" lon="5.38032">
        <ele>410</ele>
        <time>2014-05-20T12:27:15Z</time>
      </trkpt>
      <trkpt lat="43.82045" lon="5.38037">
        <ele>411</ele>
        <time>2014-05-20T12:27:19Z</time>
      </trkpt>
      <trkpt lat="43.82043" lon="5.38043">
        <ele>411</ele>
        <time>2014-05-20T12:27:24Z</time>
      </trkpt>
      <trkpt lat="43.82042" lon="5.38053">
        <ele>411</ele>
        <time>2014-05-20T12:27:31Z</time>
      </trkpt>
      <trkpt lat="43.82042" lon="5.3806">
        <ele>410</ele>
        <time>2014-05-20T12:27:37Z</time>
      </trkpt>
      <trkpt lat="43.82042" lon="5.38065">
        <ele>410</ele>
        <time>2014-05-20T12:27:40Z</time>
      </trkpt>
      <trkpt lat="43.82038" lon="5.38078">
        <ele>411</ele>
        <time>2014-05-20T12:27:47Z</time>
      </trkpt>
      <trkpt lat="43.82038" lon="5.38082">
        <ele>411</ele>
        <time>2014-05-20T12:27:50Z</time>
      </trkpt>
      <trkpt lat="43.82039" lon="5.38084">
        <ele>409</ele>
        <time>2014-05-20T12:27:52Z</time>
      </trkpt>
      <trkpt lat="43.82039" lon="5.3809">
        <ele>409</ele>
        <time>2014-05-20T12:27:56Z</time>
      </trkpt>
      <trkpt lat="43.82038" lon="5.38094">
        <ele>409</ele>
        <time>2014-05-20T12:27:58Z</time>
      </trkpt>
      <trkpt lat="43.82039" lon="5.38095">
        <ele>409</ele>
        <time>2014-05-20T12:27:59Z</time>
      </trkpt>
      <trkpt lat="43.8204" lon="5.38106">
        <ele>409</ele>
        <time>2014-05-20T12:28:08Z</time>
      </trkpt>
      <trkpt lat="43.8204" lon="5.38109">
        <ele>408</ele>
        <time>2014-05-20T12:28:10Z</time>
      </trkpt>
      <trkpt lat="43.82041" lon="5.38114">
        <ele>408</ele>
        <time>2014-05-20T12:28:13Z</time>
      </trkpt>
      <trkpt lat="43.82043" lon="5.38118">
        <ele>408</ele>
        <time>2014-05-20T12:28:17Z</time>
      </trkpt>
      <trkpt lat="43.82044" lon="5.38122">
        <ele>408</ele>
        <time>2014-05-20T12:28:20Z</time>
      </trkpt>
      <trkpt lat="43.82044" lon="5.38124">
        <ele>408</ele>
        <time>2014-05-20T12:28:21Z</time>
      </trkpt>
      <trkpt lat="43.82043" lon="5.38129">
        <ele>408</ele>
        <time>2014-05-20T12:28:24Z</time>
      </trkpt>
      <trkpt lat="43.82043" lon="5.38135">
        <ele>408</ele>
        <time>2014-05-20T12:28:28Z</time>
      </trkpt>
      <trkpt lat="43.82045" lon="5.38147">
        <ele>407</ele>
        <time>2014-05-20T12:28:35Z</time>
      </trkpt>
      <trkpt lat="43.82045" lon="5.3815">
        <ele>407</ele>
        <time>2014-05-20T12:28:37Z</time>
      </trkpt>
      <trkpt lat="43.82044" lon="5.38155">
        <ele>407</ele>
        <time>2014-05-20T12:28:39Z</time>
      </trkpt>
      <trkpt lat="43.82044" lon="5.38163">
        <ele>407</ele>
        <time>2014-05-20T12:28:44Z</time>
      </trkpt>
      <trkpt lat="43.82046" lon="5.38166">
        <ele>407</ele>
        <time>2014-05-20T12:28:47Z</time>
      </trkpt>
      <trkpt lat="43.82046" lon="5.38174">
        <ele>410</ele>
        <time>2014-05-20T12:28:51Z</time>
      </trkpt>
      <trkpt lat="43.82047" lon="5.38181">
        <ele>411</ele>
        <time>2014-05-20T12:28:55Z</time>
      </trkpt>
      <trkpt lat="43.82053" lon="5.38196">
        <ele>411</ele>
        <time>2014-05-20T12:29:04Z</time>
      </trkpt>
      <trkpt lat="43.82055" lon="5.38201">
        <ele>411</ele>
        <time>2014-05-20T12:29:08Z</time>
      </trkpt>
      <trkpt lat="43.82057" lon="5.38203">
        <ele>411</ele>
        <time>2014-05-20T12:29:10Z</time>
      </trkpt>
      <trkpt lat="43.82057" lon="5.38205">
        <ele>412</ele>
        <time>2014-05-20T12:29:11Z</time>
      </trkpt>
      <trkpt lat="43.82057" lon="5.3821">
        <ele>412</ele>
        <time>2014-05-20T12:29:14Z</time>
      </trkpt>
      <trkpt lat="43.82061" lon="5.38222">
        <ele>412</ele>
        <time>2014-05-20T12:29:22Z</time>
      </trkpt>
      <trkpt lat="43.82062" lon="5.38229">
        <ele>413</ele>
        <time>2014-05-20T12:29:26Z</time>
      </trkpt>
      <trkpt lat="43.82066" lon="5.38235">
        <ele>412</ele>
        <time>2014-05-20T12:29:32Z</time>
      </trkpt>
      <trkpt lat="43.82068" lon="5.38241">
        <ele>412</ele>
        <time>2014-05-20T12:29:36Z</time>
      </trkpt>
      <trkpt lat="43.82071" lon="5.38245">
        <ele>412</ele>
        <time>2014-05-20T12:29:39Z</time>
      </trkpt>
      <trkpt lat="43.82071" lon="5.38248">
        <ele>412</ele>
        <time>2014-05-20T12:29:41Z</time>
      </trkpt>
      <trkpt lat="43.82074" lon="5.38252">
        <ele>418</ele>
        <time>2014-05-20T12:29:45Z</time>
      </trkpt>
      <trkpt lat="43.82076" lon="5.38255">
        <ele>417</ele>
        <time>2014-05-20T12:29:48Z</time>
      </trkpt>
      <trkpt lat="43.8208" lon="5.38258">
        <ele>417</ele>
        <time>2014-05-20T12:29:51Z</time>
      </trkpt>
      <trkpt lat="43.82082" lon="5.38258">
        <ele>417</ele>
        <time>2014-05-20T12:29:52Z</time>
      </trkpt>
      <trkpt lat="43.82087" lon="5.38264">
        <ele>413</ele>
        <time>2014-05-20T12:29:58Z</time>
      </trkpt>
      <trkpt lat="43.82098" lon="5.38271">
        <ele>414</ele>
        <time>2014-05-20T12:30:09Z</time>
      </trkpt>
      <trkpt lat="43.821" lon="5.38273">
        <ele>415</ele>
        <time>2014-05-20T12:30:12Z</time>
      </trkpt>
      <trkpt lat="43.82106" lon="5.38277">
        <ele>415</ele>
        <time>2014-05-20T12:30:18Z</time>
      </trkpt>
      <trkpt lat="43.82109" lon="5.38281">
        <ele>415</ele>
        <time>2014-05-20T12:30:22Z</time>
      </trkpt>
      <trkpt lat="43.82111" lon="5.38282">
        <ele>415</ele>
        <time>2014-05-20T12:30:24Z</time>
      </trkpt>
      <trkpt lat="43.8212" lon="5.38289">
        <ele>416</ele>
        <time>2014-05-20T12:30:32Z</time>
      </trkpt>
      <trkpt lat="43.82123" lon="5.38291">
        <ele>416</ele>
        <time>2014-05-20T12:30:35Z</time>
      </trkpt>
      <trkpt lat="43.82126" lon="5.38295">
        <ele>416</ele>
        <time>2014-05-20T12:30:40Z</time>
      </trkpt>
      <trkpt lat="43.8213" lon="5.38298">
        <ele>416</ele>
        <time>2014-05-20T12:30:44Z</time>
      </trkpt>
      <trkpt lat="43.82133" lon="5.383">
        <ele>416</ele>
        <time>2014-05-20T12:30:48Z</time>
      </trkpt>
      <trkpt lat="43.82137" lon="5.38305">
        <ele>416</ele>
        <time>2014-05-20T12:30:53Z</time>
      </trkpt>
      <trkpt lat="43.8214" lon="5.38305">
        <ele>416</ele>
        <time>2014-05-20T12:30:55Z</time>
      </trkpt>
      <trkpt lat="43.82143" lon="5.38307">
        <ele>416</ele>
        <time>2014-05-20T12:30:58Z</time>
      </trkpt>
      <trkpt lat="43.82145" lon="5.38308">
        <ele>415</ele>
        <time>2014-05-20T12:31:00Z</time>
      </trkpt>
      <trkpt lat="43.82148" lon="5.38311">
        <ele>415</ele>
        <time>2014-05-20T12:31:03Z</time>
      </trkpt>
      <trkpt lat="43.82151" lon="5.38313">
        <ele>415</ele>
        <time>2014-05-20T12:31:06Z</time>
      </trkpt>
      <trkpt lat="43.82154" lon="5.38313">
        <ele>415</ele>
        <time>2014-05-20T12:31:08Z</time>
      </trkpt>
      <trkpt lat="43.82157" lon="5.38316">
        <ele>415</ele>
        <time>2014-05-20T12:31:11Z</time>
      </trkpt>
      <trkpt lat="43.82161" lon="5.38317">
        <ele>415</ele>
        <time>2014-05-20T12:31:17Z</time>
      </trkpt>
      <trkpt lat="43.82163" lon="5.38319">
        <ele>415</ele>
        <time>2014-05-20T12:31:19Z</time>
      </trkpt>
      <trkpt lat="43.82166" lon="5.38323">
        <ele>415</ele>
        <time>2014-05-20T12:31:23Z</time>
      </trkpt>
      <trkpt lat="43.82174" lon="5.38327">
        <ele>417</ele>
        <time>2014-05-20T12:31:30Z</time>
      </trkpt>
      <trkpt lat="43.82177" lon="5.38332">
        <ele>417</ele>
        <time>2014-05-20T12:31:34Z</time>
      </trkpt>
      <trkpt lat="43.82182" lon="5.38337">
        <ele>417</ele>
        <time>2014-05-20T12:31:38Z</time>
      </trkpt>
      <trkpt lat="43.82185" lon="5.38341">
        <ele>418</ele>
        <time>2014-05-20T12:31:41Z</time>
      </trkpt>
      <trkpt lat="43.82188" lon="5.38347">
        <ele>419</ele>
        <time>2014-05-20T12:31:46Z</time>
      </trkpt>
      <trkpt lat="43.8219" lon="5.38352">
        <ele>419</ele>
        <time>2014-05-20T12:31:49Z</time>
      </trkpt>
      <trkpt lat="43.8219" lon="5.38357">
        <ele>419</ele>
        <time>2014-05-20T12:31:52Z</time>
      </trkpt>
      <trkpt lat="43.82192" lon="5.38359">
        <ele>419</ele>
        <time>2014-05-20T12:31:54Z</time>
      </trkpt>
      <trkpt lat="43.82192" lon="5.38364">
        <ele>420</ele>
        <time>2014-05-20T12:31:57Z</time>
      </trkpt>
      <trkpt lat="43.82192" lon="5.38367">
        <ele>420</ele>
        <time>2014-05-20T12:31:59Z</time>
      </trkpt>
      <trkpt lat="43.82192" lon="5.38371">
        <ele>420</ele>
        <time>2014-05-20T12:32:02Z</time>
      </trkpt>
      <trkpt lat="43.82193" lon="5.38375">
        <ele>420</ele>
        <time>2014-05-20T12:32:05Z</time>
      </trkpt>
      <trkpt lat="43.82193" lon="5.3838">
        <ele>420</ele>
        <time>2014-05-20T12:32:08Z</time>
      </trkpt>
      <trkpt lat="43.82193" lon="5.38384">
        <ele>420</ele>
        <time>2014-05-20T12:32:11Z</time>
      </trkpt>
      <trkpt lat="43.82194" lon="5.38407">
        <ele>421</ele>
        <time>2014-05-20T12:32:27Z</time>
      </trkpt>
      <trkpt lat="43.82193" lon="5.38414">
        <ele>421</ele>
        <time>2014-05-20T12:32:31Z</time>
      </trkpt>
      <trkpt lat="43.82194" lon="5.38417">
        <ele>419</ele>
        <time>2014-05-20T12:32:34Z</time>
      </trkpt>
      <trkpt lat="43.82195" lon="5.38421">
        <ele>419</ele>
        <time>2014-05-20T12:32:37Z</time>
      </trkpt>
      <trkpt lat="43.82194" lon="5.38428">
        <ele>419</ele>
        <time>2014-05-20T12:32:41Z</time>
      </trkpt>
      <trkpt lat="43.82194" lon="5.38437">
        <ele>419</ele>
        <time>2014-05-20T12:32:46Z</time>
      </trkpt>
      <trkpt lat="43.82194" lon="5.38439">
        <ele>418</ele>
        <time>2014-05-20T12:32:47Z</time>
      </trkpt>
      <trkpt lat="43.82194" lon="5.38442">
        <ele>418</ele>
        <time>2014-05-20T12:32:49Z</time>
      </trkpt>
      <trkpt lat="43.82194" lon="5.38443">
        <ele>418</ele>
        <time>2014-05-20T12:32:50Z</time>
      </trkpt>
      <trkpt lat="43.82194" lon="5.38448">
        <ele>418</ele>
        <time>2014-05-20T12:32:53Z</time>
      </trkpt>
      <trkpt lat="43.82195" lon="5.38457">
        <ele>418</ele>
        <time>2014-05-20T12:32:59Z</time>
      </trkpt>
      <trkpt lat="43.82196" lon="5.38464">
        <ele>417</ele>
        <time>2014-05-20T12:33:03Z</time>
      </trkpt>
      <trkpt lat="43.82195" lon="5.38472">
        <ele>417</ele>
        <time>2014-05-20T12:33:07Z</time>
      </trkpt>
      <trkpt lat="43.82197" lon="5.38477">
        <ele>417</ele>
        <time>2014-05-20T12:33:10Z</time>
      </trkpt>
      <trkpt lat="43.822" lon="5.38484">
        <ele>417</ele>
        <time>2014-05-20T12:33:15Z</time>
      </trkpt>
      <trkpt lat="43.82203" lon="5.38489">
        <ele>416</ele>
        <time>2014-05-20T12:33:19Z</time>
      </trkpt>
      <trkpt lat="43.82205" lon="5.38493">
        <ele>416</ele>
        <time>2014-05-20T12:33:21Z</time>
      </trkpt>
      <trkpt lat="43.82208" lon="5.38498">
        <ele>416</ele>
        <time>2014-05-20T12:33:25Z</time>
      </trkpt>
      <trkpt lat="43.82212" lon="5.38502">
        <ele>415</ele>
        <time>2014-05-20T12:33:29Z</time>
      </trkpt>
      <trkpt lat="43.82214" lon="5.38506">
        <ele>415</ele>
        <time>2014-05-20T12:33:32Z</time>
      </trkpt>
      <trkpt lat="43.82217" lon="5.3851">
        <ele>414</ele>
        <time>2014-05-20T12:33:35Z</time>
      </trkpt>
      <trkpt lat="43.82221" lon="5.38518">
        <ele>414</ele>
        <time>2014-05-20T12:33:42Z</time>
      </trkpt>
      <trkpt lat="43.82223" lon="5.38519">
        <ele>414</ele>
        <time>2014-05-20T12:33:44Z</time>
      </trkpt>
      <trkpt lat="43.82224" lon="5.38521">
        <ele>414</ele>
        <time>2014-05-20T12:33:47Z</time>
      </trkpt>
      <trkpt lat="43.82229" lon="5.38525">
        <ele>414</ele>
        <time>2014-05-20T12:33:53Z</time>
      </trkpt>
      <trkpt lat="43.8223" lon="5.38527">
        <ele>414</ele>
        <time>2014-05-20T12:33:55Z</time>
      </trkpt>
      <trkpt lat="43.82233" lon="5.38531">
        <ele>414</ele>
        <time>2014-05-20T12:34:00Z</time>
      </trkpt>
      <trkpt lat="43.82236" lon="5.38531">
        <ele>414</ele>
        <time>2014-05-20T12:34:03Z</time>
      </trkpt>
      <trkpt lat="43.82239" lon="5.38534">
        <ele>414</ele>
        <time>2014-05-20T12:34:07Z</time>
      </trkpt>
      <trkpt lat="43.82242" lon="5.38534">
        <ele>414</ele>
        <time>2014-05-20T12:34:10Z</time>
      </trkpt>
      <trkpt lat="43.82243" lon="5.38534">
        <ele>414</ele>
        <time>2014-05-20T12:34:11Z</time>
      </trkpt>
      <trkpt lat="43.82245" lon="5.38536">
        <ele>414</ele>
        <time>2014-05-20T12:34:14Z</time>
      </trkpt>
      <trkpt lat="43.82255" lon="5.38538">
        <ele>422</ele>
        <time>2014-05-20T12:34:23Z</time>
      </trkpt>
      <trkpt lat="43.82259" lon="5.38537">
        <ele>422</ele>
        <time>2014-05-20T12:34:27Z</time>
      </trkpt>
      <trkpt lat="43.8226" lon="5.38537">
        <ele>422</ele>
        <time>2014-05-20T12:34:29Z</time>
      </trkpt>
      <trkpt lat="43.82264" lon="5.38537">
        <ele>423</ele>
        <time>2014-05-20T12:34:32Z</time>
      </trkpt>
      <trkpt lat="43.82266" lon="5.38535">
        <ele>423</ele>
        <time>2014-05-20T12:34:34Z</time>
      </trkpt>
      <trkpt lat="43.82274" lon="5.38536">
        <ele>424</ele>
        <time>2014-05-20T12:34:42Z</time>
      </trkpt>
      <trkpt lat="43.82277" lon="5.38535">
        <ele>425</ele>
        <time>2014-05-20T12:34:46Z</time>
      </trkpt>
      <trkpt lat="43.82279" lon="5.38535">
        <ele>425</ele>
        <time>2014-05-20T12:34:48Z</time>
      </trkpt>
      <trkpt lat="43.82282" lon="5.38533">
        <ele>426</ele>
        <time>2014-05-20T12:34:52Z</time>
      </trkpt>
      <trkpt lat="43.82284" lon="5.38533">
        <ele>426</ele>
        <time>2014-05-20T12:34:55Z</time>
      </trkpt>
      <trkpt lat="43.8229" lon="5.38535">
        <ele>427</ele>
        <time>2014-05-20T12:35:05Z</time>
      </trkpt>
      <trkpt lat="43.82298" lon="5.38533">
        <ele>429</ele>
        <time>2014-05-20T12:35:22Z</time>
      </trkpt>
      <trkpt lat="43.82298" lon="5.38533">
        <ele>429</ele>
        <time>2014-05-20T12:35:26Z</time>
      </trkpt>
      <trkpt lat="43.82298" lon="5.38536">
        <ele>429</ele>
        <time>2014-05-20T12:35:35Z</time>
      </trkpt>
      <trkpt lat="43.82297" lon="5.38538">
        <ele>429</ele>
        <time>2014-05-20T12:35:43Z</time>
      </trkpt>
      <trkpt lat="43.82297" lon="5.38542">
        <ele>428</ele>
        <time>2014-05-20T12:36:02Z</time>
      </trkpt>
      <trkpt lat="43.82296" lon="5.3854">
        <ele>428</ele>
        <time>2014-05-20T12:36:11Z</time>
      </trkpt>
      <trkpt lat="43.82295" lon="5.38538">
        <ele>428</ele>
        <time>2014-05-20T12:36:22Z</time>
      </trkpt>
      <trkpt lat="43.82295" lon="5.38537">
        <ele>428</ele>
        <time>2014-05-20T12:36:26Z</time>
      </trkpt>
      <trkpt lat="43.82292" lon="5.38538">
        <ele>428</ele>
        <time>2014-05-20T12:36:39Z</time>
      </trkpt>
      <trkpt lat="43.82291" lon="5.38537">
        <ele>427</ele>
        <time>2014-05-20T12:36:46Z</time>
      </trkpt>
      <trkpt lat="43.82291" lon="5.38537">
        <ele>427</ele>
        <time>2014-05-20T12:36:59Z</time>
      </trkpt>
      <trkpt lat="43.82292" lon="5.38537">
        <ele>428</ele>
        <time>2014-05-20T12:37:04Z</time>
      </trkpt>
      <trkpt lat="43.82292" lon="5.38536">
        <ele>428</ele>
        <time>2014-05-20T12:37:08Z</time>
      </trkpt>
      <trkpt lat="43.82292" lon="5.38531">
        <ele>428</ele>
        <time>2014-05-20T12:37:15Z</time>
      </trkpt>
      <trkpt lat="43.82292" lon="5.38531">
        <ele>428</ele>
        <time>2014-05-20T12:37:16Z</time>
      </trkpt>
      <trkpt lat="43.82287" lon="5.3853">
        <ele>427</ele>
        <time>2014-05-20T12:37:22Z</time>
      </trkpt>
      <trkpt lat="43.82287" lon="5.38529">
        <ele>427</ele>
        <time>2014-05-20T12:37:23Z</time>
      </trkpt>
      <trkpt lat="43.82284" lon="5.38528">
        <ele>426</ele>
        <time>2014-05-20T12:37:28Z</time>
      </trkpt>
      <trkpt lat="43.82283" lon="5.38528">
        <ele>426</ele>
        <time>2014-05-20T12:37:30Z</time>
      </trkpt>
      <trkpt lat="43.8228" lon="5.38528">
        <ele>425</ele>
        <time>2014-05-20T12:37:36Z</time>
      </trkpt>
      <trkpt lat="43.82282" lon="5.3853">
        <ele>426</ele>
        <time>2014-05-20T12:37:41Z</time>
      </trkpt>
      <trkpt lat="43.82284" lon="5.38531">
        <ele>426</ele>
        <time>2014-05-20T12:37:44Z</time>
      </trkpt>
      <trkpt lat="43.82288" lon="5.38531">
        <ele>427</ele>
        <time>2014-05-20T12:37:49Z</time>
      </trkpt>
      <trkpt lat="43.82288" lon="5.38534">
        <ele>427</ele>
        <time>2014-05-20T12:37:53Z</time>
      </trkpt>
      <trkpt lat="43.82289" lon="5.38535">
        <ele>427</ele>
        <time>2014-05-20T12:37:55Z</time>
      </trkpt>
      <trkpt lat="43.8229" lon="5.38537">
        <ele>427</ele>
        <time>2014-05-20T12:38:02Z</time>
      </trkpt>
      <trkpt lat="43.82291" lon="5.38538">
        <ele>427</ele>
        <time>2014-05-20T12:38:09Z</time>
      </trkpt>
      <trkpt lat="43.82293" lon="5.38536">
        <ele>428</ele>
        <time>2014-05-20T12:38:12Z</time>
      </trkpt>
      <trkpt lat="43.82295" lon="5.38535">
        <ele>428</ele>
        <time>2014-05-20T12:38:13Z</time>
      </trkpt>
      <trkpt lat="43.82302" lon="5.38534">
        <ele>430</ele>
        <time>2014-05-20T12:38:24Z</time>
      </trkpt>
      <trkpt lat="43.82298" lon="5.38536">
        <ele>429</ele>
        <time>2014-05-20T12:38:30Z</time>
      </trkpt>
      <trkpt lat="43.82301" lon="5.38534">
        <ele>430</ele>
        <time>2014-05-20T12:38:34Z</time>
      </trkpt>
      <trkpt lat="43.82303" lon="5.38537">
        <ele>430</ele>
        <time>2014-05-20T12:38:44Z</time>
      </trkpt>
      <trkpt lat="43.82302" lon="5.38538">
        <ele>429</ele>
        <time>2014-05-20T12:38:45Z</time>
      </trkpt>
      <trkpt lat="43.82298" lon="5.38539">
        <ele>429</ele>
        <time>2014-05-20T12:38:49Z</time>
      </trkpt>
      <trkpt lat="43.82298" lon="5.38539">
        <ele>429</ele>
        <time>2014-05-20T12:38:50Z</time>
      </trkpt>
      <trkpt lat="43.82296" lon="5.38541">
        <ele>428</ele>
        <time>2014-05-20T12:38:52Z</time>
      </trkpt>
      <trkpt lat="43.82294" lon="5.38541">
        <ele>428</ele>
        <time>2014-05-20T12:38:56Z</time>
      </trkpt>
      <trkpt lat="43.82293" lon="5.38541">
        <ele>428</ele>
        <time>2014-05-20T12:38:57Z</time>
      </trkpt>
      <trkpt lat="43.82293" lon="5.3854">
        <ele>428</ele>
        <time>2014-05-20T12:38:58Z</time>
      </trkpt>
      <trkpt lat="43.82294" lon="5.38541">
        <ele>428</ele>
        <time>2014-05-20T12:39:01Z</time>
      </trkpt>
      <trkpt lat="43.82294" lon="5.3854">
        <ele>428</ele>
        <time>2014-05-20T12:39:03Z</time>
      </trkpt>
      <trkpt lat="43.82291" lon="5.38541">
        <ele>427</ele>
        <time>2014-05-20T12:39:08Z</time>
      </trkpt>
      <trkpt lat="43.82295" lon="5.38536">
        <ele>428</ele>
        <time>2014-05-20T12:39:16Z</time>
      </trkpt>
      <trkpt lat="43.82295" lon="5.38534">
        <ele>428</ele>
        <time>2014-05-20T12:39:17Z</time>
      </trkpt>
      <trkpt lat="43.82295" lon="5.38533">
        <ele>428</ele>
        <time>2014-05-20T12:39:18Z</time>
      </trkpt>
      <trkpt lat="43.82292" lon="5.38531">
        <ele>428</ele>
        <time>2014-05-20T12:39:20Z</time>
      </trkpt>
      <trkpt lat="43.82288" lon="5.38531">
        <ele>427</ele>
        <time>2014-05-20T12:39:24Z</time>
      </trkpt>
      <trkpt lat="43.82287" lon="5.3853">
        <ele>427</ele>
        <time>2014-05-20T12:39:25Z</time>
      </trkpt>
      <trkpt lat="43.82289" lon="5.38527">
        <ele>428</ele>
        <time>2014-05-20T12:39:34Z</time>
      </trkpt>
      <trkpt lat="43.82288" lon="5.38529">
        <ele>427</ele>
        <time>2014-05-20T12:39:37Z</time>
      </trkpt>
      <trkpt lat="43.82288" lon="5.3853">
        <ele>427</ele>
        <time>2014-05-20T12:39:38Z</time>
      </trkpt>
      <trkpt lat="43.82288" lon="5.3853">
        <ele>427</ele>
        <time>2014-05-20T12:39:40Z</time>
      </trkpt>
      <trkpt lat="43.82289" lon="5.38532">
        <ele>427</ele>
        <time>2014-05-20T12:39:43Z</time>
      </trkpt>
      <trkpt lat="43.82289" lon="5.38532">
        <ele>427</ele>
        <time>2014-05-20T12:39:44Z</time>
      </trkpt>
      <trkpt lat="43.82293" lon="5.38534">
        <ele>428</ele>
        <time>2014-05-20T12:39:52Z</time>
      </trkpt>
      <trkpt lat="43.82296" lon="5.38533">
        <ele>429</ele>
        <time>2014-05-20T12:39:58Z</time>
      </trkpt>
      <trkpt lat="43.82298" lon="5.38532">
        <ele>429</ele>
        <time>2014-05-20T12:40:01Z</time>
      </trkpt>
      <trkpt lat="43.82301" lon="5.3853">
        <ele>430</ele>
        <time>2014-05-20T12:40:06Z</time>
      </trkpt>
      <trkpt lat="43.823" lon="5.38531">
        <ele>430</ele>
        <time>2014-05-20T12:40:17Z</time>
      </trkpt>
      <trkpt lat="43.82302" lon="5.3853">
        <ele>430</ele>
        <time>2014-05-20T12:40:26Z</time>
      </trkpt>
      <trkpt lat="43.82299" lon="5.38534">
        <ele>429</ele>
        <time>2014-05-20T12:40:39Z</time>
      </trkpt>
      <trkpt lat="43.823" lon="5.38533">
        <ele>429</ele>
        <time>2014-05-20T12:40:52Z</time>
      </trkpt>
      <trkpt lat="43.82301" lon="5.38532">
        <ele>430</ele>
        <time>2014-05-20T12:41:02Z</time>
      </trkpt>
      <trkpt lat="43.82313" lon="5.38523">
        <ele>434</ele>
        <time>2014-05-20T12:41:24Z</time>
      </trkpt>
      <trkpt lat="43.82314" lon="5.38523">
        <ele>435</ele>
        <time>2014-05-20T12:41:27Z</time>
      </trkpt>
      <trkpt lat="43.82314" lon="5.38522">
        <ele>435</ele>
        <time>2014-05-20T12:41:29Z</time>
      </trkpt>
      <trkpt lat="43.82312" lon="5.38523">
        <ele>434</ele>
        <time>2014-05-20T12:41:32Z</time>
      </trkpt>
      <trkpt lat="43.82311" lon="5.38525">
        <ele>433</ele>
        <time>2014-05-20T12:41:35Z</time>
      </trkpt>
      <trkpt lat="43.82311" lon="5.38524">
        <ele>433</ele>
        <time>2014-05-20T12:41:37Z</time>
      </trkpt>
      <trkpt lat="43.82311" lon="5.38525">
        <ele>433</ele>
        <time>2014-05-20T12:41:40Z</time>
      </trkpt>
      <trkpt lat="43.82306" lon="5.38527">
        <ele>432</ele>
        <time>2014-05-20T12:41:55Z</time>
      </trkpt>
      <trkpt lat="43.82302" lon="5.38531">
        <ele>430</ele>
        <time>2014-05-20T12:42:01Z</time>
      </trkpt>
      <trkpt lat="43.823" lon="5.38532">
        <ele>430</ele>
        <time>2014-05-20T12:42:04Z</time>
      </trkpt>
      <trkpt lat="43.82296" lon="5.38532">
        <ele>429</ele>
        <time>2014-05-20T12:42:09Z</time>
      </trkpt>
      <trkpt lat="43.82295" lon="5.38534">
        <ele>428</ele>
        <time>2014-05-20T12:42:11Z</time>
      </trkpt>
      <trkpt lat="43.82294" lon="5.38541">
        <ele>428</ele>
        <time>2014-05-20T12:42:35Z</time>
      </trkpt>
      <trkpt lat="43.82294" lon="5.3854">
        <ele>428</ele>
        <time>2014-05-20T12:42:37Z</time>
      </trkpt>
      <trkpt lat="43.82294" lon="5.3854">
        <ele>428</ele>
        <time>2014-05-20T12:42:38Z</time>
      </trkpt>
      <trkpt lat="43.82293" lon="5.3854">
        <ele>428</ele>
        <time>2014-05-20T12:42:39Z</time>
      </trkpt>
      <trkpt lat="43.82299" lon="5.38523">
        <ele>430</ele>
        <time>2014-05-20T12:42:46Z</time>
      </trkpt>
      <trkpt lat="43.82303" lon="5.38516">
        <ele>432</ele>
        <time>2014-05-20T12:42:58Z</time>
      </trkpt>
      <trkpt lat="43.82302" lon="5.3852">
        <ele>432</ele>
        <time>2014-05-20T12:43:02Z</time>
      </trkpt>
      <trkpt lat="43.82301" lon="5.38521">
        <ele>431</ele>
        <time>2014-05-20T12:43:04Z</time>
      </trkpt>
      <trkpt lat="43.82299" lon="5.38526">
        <ele>430</ele>
        <time>2014-05-20T12:43:10Z</time>
      </trkpt>
      <trkpt lat="43.82297" lon="5.38528">
        <ele>429</ele>
        <time>2014-05-20T12:43:14Z</time>
      </trkpt>
      <trkpt lat="43.82292" lon="5.38529">
        <ele>428</ele>
        <time>2014-05-20T12:43:23Z</time>
      </trkpt>
      <trkpt lat="43.82291" lon="5.3853">
        <ele>428</ele>
        <time>2014-05-20T12:43:27Z</time>
      </trkpt>
      <trkpt lat="43.82289" lon="5.38529">
        <ele>427</ele>
        <time>2014-05-20T12:43:31Z</time>
      </trkpt>
      <trkpt lat="43.82286" lon="5.38525">
        <ele>427</ele>
        <time>2014-05-20T12:43:37Z</time>
      </trkpt>
      <trkpt lat="43.82284" lon="5.38524">
        <ele>426</ele>
        <time>2014-05-20T12:43:40Z</time>
      </trkpt>
      <trkpt lat="43.82283" lon="5.38522">
        <ele>426</ele>
        <time>2014-05-20T12:43:53Z</time>
      </trkpt>
      <trkpt lat="43.82282" lon="5.38522">
        <ele>426</ele>
        <time>2014-05-20T12:43:58Z</time>
      </trkpt>
      <trkpt lat="43.82281" lon="5.38522">
        <ele>426</ele>
        <time>2014-05-20T12:44:00Z</time>
      </trkpt>
      <trkpt lat="43.82281" lon="5.38523">
        <ele>426</ele>
        <time>2014-05-20T12:44:05Z</time>
      </trkpt>
      <trkpt lat="43.82282" lon="5.38523">
        <ele>426</ele>
        <time>2014-05-20T12:44:08Z</time>
      </trkpt>
      <trkpt lat="43.82283" lon="5.38522">
        <ele>426</ele>
        <time>2014-05-20T12:44:12Z</time>
      </trkpt>
      <trkpt lat="43.82284" lon="5.38522">
        <ele>427</ele>
        <time>2014-05-20T12:44:14Z</time>
      </trkpt>
      <trkpt lat="43.82286" lon="5.38523">
        <ele>427</ele>
        <time>2014-05-20T12:44:16Z</time>
      </trkpt>
      <trkpt lat="43.82287" lon="5.38525">
        <ele>427</ele>
        <time>2014-05-20T12:44:19Z</time>
      </trkpt>
      <trkpt lat="43.82287" lon="5.38528">
        <ele>427</ele>
        <time>2014-05-20T12:44:25Z</time>
      </trkpt>
      <trkpt lat="43.82288" lon="5.38531">
        <ele>427</ele>
        <time>2014-05-20T12:44:31Z</time>
      </trkpt>
      <trkpt lat="43.82286" lon="5.38535">
        <ele>427</ele>
        <time>2014-05-20T12:44:48Z</time>
      </trkpt>
      <trkpt lat="43.82285" lon="5.38535">
        <ele>426</ele>
        <time>2014-05-20T12:44:55Z</time>
      </trkpt>
      <trkpt lat="43.82285" lon="5.38535">
        <ele>426</ele>
        <time>2014-05-20T12:44:59Z</time>
      </trkpt>
      <trkpt lat="43.82285" lon="5.38536">
        <ele>426</ele>
        <time>2014-05-20T12:45:07Z</time>
      </trkpt>
      <trkpt lat="43.82285" lon="5.38535">
        <ele>426</ele>
        <time>2014-05-20T12:45:09Z</time>
      </trkpt>
      <trkpt lat="43.82285" lon="5.38534">
        <ele>426</ele>
        <time>2014-05-20T12:45:12Z</time>
      </trkpt>
      <trkpt lat="43.82287" lon="5.38534">
        <ele>427</ele>
        <time>2014-05-20T12:45:23Z</time>
      </trkpt>
      <trkpt lat="43.82288" lon="5.38533">
        <ele>427</ele>
        <time>2014-05-20T12:45:29Z</time>
      </trkpt>
      <trkpt lat="43.8229" lon="5.38527">
        <ele>428</ele>
        <time>2014-05-20T12:45:43Z</time>
      </trkpt>
      <trkpt lat="43.82293" lon="5.38531">
        <ele>428</ele>
        <time>2014-05-20T12:46:09Z</time>
      </trkpt>
      <trkpt lat="43.82294" lon="5.38531">
        <ele>428</ele>
        <time>2014-05-20T12:46:14Z</time>
      </trkpt>
      <trkpt lat="43.82293" lon="5.38529">
        <ele>428</ele>
        <time>2014-05-20T12:46:23Z</time>
      </trkpt>
      <trkpt lat="43.82294" lon="5.3853">
        <ele>428</ele>
        <time>2014-05-20T12:46:28Z</time>
      </trkpt>
      <trkpt lat="43.82293" lon="5.38532">
        <ele>428</ele>
        <time>2014-05-20T12:46:45Z</time>
      </trkpt>
      <trkpt lat="43.82291" lon="5.38533">
        <ele>428</ele>
        <time>2014-05-20T12:46:55Z</time>
      </trkpt>
      <trkpt lat="43.82291" lon="5.38535">
        <ele>427</ele>
        <time>2014-05-20T12:47:03Z</time>
      </trkpt>
      <trkpt lat="43.82291" lon="5.38536">
        <ele>427</ele>
        <time>2014-05-20T12:47:22Z</time>
      </trkpt>
      <trkpt lat="43.82291" lon="5.38536">
        <ele>428</ele>
        <time>2014-05-20T12:47:23Z</time>
      </trkpt>
      <trkpt lat="43.8229" lon="5.38539">
        <ele>427</ele>
        <time>2014-05-20T12:47:33Z</time>
      </trkpt>
      <trkpt lat="43.82291" lon="5.3854">
        <ele>427</ele>
        <time>2014-05-20T12:47:35Z</time>
      </trkpt>
      <trkpt lat="43.8229" lon="5.38541">
        <ele>427</ele>
        <time>2014-05-20T12:47:37Z</time>
      </trkpt>
      <trkpt lat="43.82288" lon="5.38542">
        <ele>427</ele>
        <time>2014-05-20T12:47:39Z</time>
      </trkpt>
      <trkpt lat="43.82288" lon="5.38542">
        <ele>427</ele>
        <time>2014-05-20T12:47:41Z</time>
      </trkpt>
      <trkpt lat="43.82288" lon="5.38542">
        <ele>427</ele>
        <time>2014-05-20T12:47:42Z</time>
      </trkpt>
      <trkpt lat="43.82289" lon="5.38542">
        <ele>427</ele>
        <time>2014-05-20T12:47:46Z</time>
      </trkpt>
      <trkpt lat="43.82289" lon="5.38542">
        <ele>427</ele>
        <time>2014-05-20T12:47:50Z</time>
      </trkpt>
      <trkpt lat="43.82289" lon="5.38542">
        <ele>427</ele>
        <time>2014-05-20T12:47:51Z</time>
      </trkpt>
      <trkpt lat="43.8229" lon="5.38541">
        <ele>427</ele>
        <time>2014-05-20T12:47:58Z</time>
      </trkpt>
      <trkpt lat="43.82292" lon="5.38541">
        <ele>427</ele>
        <time>2014-05-20T12:48:18Z</time>
      </trkpt>
      <trkpt lat="43.82293" lon="5.38542">
        <ele>427</ele>
        <time>2014-05-20T12:48:20Z</time>
      </trkpt>
      <trkpt lat="43.82293" lon="5.38541">
        <ele>428</ele>
        <time>2014-05-20T12:48:23Z</time>
      </trkpt>
      <trkpt lat="43.82291" lon="5.38539">
        <ele>427</ele>
        <time>2014-05-20T12:48:29Z</time>
      </trkpt>
      <trkpt lat="43.82292" lon="5.3854">
        <ele>427</ele>
        <time>2014-05-20T12:48:32Z</time>
      </trkpt>
      <trkpt lat="43.82293" lon="5.38541">
        <ele>428</ele>
        <time>2014-05-20T12:48:35Z</time>
      </trkpt>
      <trkpt lat="43.82293" lon="5.38541">
        <ele>427</ele>
        <time>2014-05-20T12:48:36Z</time>
      </trkpt>
      <trkpt lat="43.82292" lon="5.38541">
        <ele>427</ele>
        <time>2014-05-20T12:48:37Z</time>
      </trkpt>
      <trkpt lat="43.82291" lon="5.38537">
        <ele>427</ele>
        <time>2014-05-20T12:48:48Z</time>
      </trkpt>
      <trkpt lat="43.82291" lon="5.38535">
        <ele>428</ele>
        <time>2014-05-20T12:48:54Z</time>
      </trkpt>
      <trkpt lat="43.82287" lon="5.38529">
        <ele>427</ele>
        <time>2014-05-20T12:49:11Z</time>
      </trkpt>
      <trkpt lat="43.82286" lon="5.38527">
        <ele>427</ele>
        <time>2014-05-20T12:49:27Z</time>
      </trkpt>
      <trkpt lat="43.82286" lon="5.38528">
        <ele>427</ele>
        <time>2014-05-20T12:49:30Z</time>
      </trkpt>
      <trkpt lat="43.82287" lon="5.3853">
        <ele>427</ele>
        <time>2014-05-20T12:49:38Z</time>
      </trkpt>
      <trkpt lat="43.82284" lon="5.38527">
        <ele>426</ele>
        <time>2014-05-20T12:49:51Z</time>
      </trkpt>
      <trkpt lat="43.82283" lon="5.38528">
        <ele>426</ele>
        <time>2014-05-20T12:49:56Z</time>
      </trkpt>
      <trkpt lat="43.82284" lon="5.38529">
        <ele>426</ele>
        <time>2014-05-20T12:50:00Z</time>
      </trkpt>
      <trkpt lat="43.82284" lon="5.38529">
        <ele>426</ele>
        <time>2014-05-20T12:50:04Z</time>
      </trkpt>
      <trkpt lat="43.82283" lon="5.38526">
        <ele>426</ele>
        <time>2014-05-20T12:50:19Z</time>
      </trkpt>
      <trkpt lat="43.82283" lon="5.38529">
        <ele>426</ele>
        <time>2014-05-20T12:50:29Z</time>
      </trkpt>
      <trkpt lat="43.82282" lon="5.38528">
        <ele>426</ele>
        <time>2014-05-20T12:50:40Z</time>
      </trkpt>
      <trkpt lat="43.82283" lon="5.38526">
        <ele>426</ele>
        <time>2014-05-20T12:50:44Z</time>
      </trkpt>
      <trkpt lat="43.82285" lon="5.38524">
        <ele>427</ele>
        <time>2014-05-20T12:50:49Z</time>
      </trkpt>
      <trkpt lat="43.82286" lon="5.38524">
        <ele>427</ele>
        <time>2014-05-20T12:50:52Z</time>
      </trkpt>
      <trkpt lat="43.82287" lon="5.38522">
        <ele>427</ele>
        <time>2014-05-20T12:50:53Z</time>
      </trkpt>
      <trkpt lat="43.82287" lon="5.3852">
        <ele>427</ele>
        <time>2014-05-20T12:50:57Z</time>
      </trkpt>
      <trkpt lat="43.82288" lon="5.38522">
        <ele>427</ele>
        <time>2014-05-20T12:51:00Z</time>
      </trkpt>
      <trkpt lat="43.82289" lon="5.38525">
        <ele>427</ele>
        <time>2014-05-20T12:51:09Z</time>
      </trkpt>
      <trkpt lat="43.82288" lon="5.38527">
        <ele>427</ele>
        <time>2014-05-20T12:51:18Z</time>
      </trkpt>
      <trkpt lat="43.82287" lon="5.38529">
        <ele>427</ele>
        <time>2014-05-20T12:51:27Z</time>
      </trkpt>
      <trkpt lat="43.82287" lon="5.3853">
        <ele>427</ele>
        <time>2014-05-20T12:51:31Z</time>
      </trkpt>
      <trkpt lat="43.82286" lon="5.38533">
        <ele>427</ele>
        <time>2014-05-20T12:51:42Z</time>
      </trkpt>
      <trkpt lat="43.82285" lon="5.38533">
        <ele>426</ele>
        <time>2014-05-20T12:51:45Z</time>
      </trkpt>
      <trkpt lat="43.82282" lon="5.38531">
        <ele>426</ele>
        <time>2014-05-20T12:51:55Z</time>
      </trkpt>
      <trkpt lat="43.82282" lon="5.38528">
        <ele>426</ele>
        <time>2014-05-20T12:52:09Z</time>
      </trkpt>
      <trkpt lat="43.82284" lon="5.38526">
        <ele>426</ele>
        <time>2014-05-20T12:52:14Z</time>
      </trkpt>
      <trkpt lat="43.82284" lon="5.38526">
        <ele>426</ele>
        <time>2014-05-20T12:52:15Z</time>
      </trkpt>
      <trkpt lat="43.8228" lon="5.38528">
        <ele>426</ele>
        <time>2014-05-20T12:52:21Z</time>
      </trkpt>
      <trkpt lat="43.82281" lon="5.38528">
        <ele>426</ele>
        <time>2014-05-20T12:52:29Z</time>
      </trkpt>
      <trkpt lat="43.82283" lon="5.38528">
        <ele>426</ele>
        <time>2014-05-20T12:52:43Z</time>
      </trkpt>
      <trkpt lat="43.82283" lon="5.38529">
        <ele>426</ele>
        <time>2014-05-20T12:52:44Z</time>
      </trkpt>
      <trkpt lat="43.82282" lon="5.38531">
        <ele>426</ele>
        <time>2014-05-20T12:52:48Z</time>
      </trkpt>
      <trkpt lat="43.82282" lon="5.38533">
        <ele>426</ele>
        <time>2014-05-20T12:52:52Z</time>
      </trkpt>
      <trkpt lat="43.82278" lon="5.38534">
        <ele>425</ele>
        <time>2014-05-20T12:53:00Z</time>
      </trkpt>
      <trkpt lat="43.82274" lon="5.38535">
        <ele>424</ele>
        <time>2014-05-20T12:53:09Z</time>
      </trkpt>
      <trkpt lat="43.82267" lon="5.38535">
        <ele>423</ele>
        <time>2014-05-20T12:53:18Z</time>
      </trkpt>
      <trkpt lat="43.82266" lon="5.38536">
        <ele>423</ele>
        <time>2014-05-20T12:53:20Z</time>
      </trkpt>
      <trkpt lat="43.82261" lon="5.38535">
        <ele>422</ele>
        <time>2014-05-20T12:53:30Z</time>
      </trkpt>
      <trkpt lat="43.82258" lon="5.38539">
        <ele>422</ele>
        <time>2014-05-20T12:53:40Z</time>
      </trkpt>
      <trkpt lat="43.82257" lon="5.38539">
        <ele>422</ele>
        <time>2014-05-20T12:53:42Z</time>
      </trkpt>
      <trkpt lat="43.82249" lon="5.38538">
        <ele>414</ele>
        <time>2014-05-20T12:53:52Z</time>
      </trkpt>
      <trkpt lat="43.82248" lon="5.38537">
        <ele>414</ele>
        <time>2014-05-20T12:53:54Z</time>
      </trkpt>
      <trkpt lat="43.82245" lon="5.38536">
        <ele>414</ele>
        <time>2014-05-20T12:53:58Z</time>
      </trkpt>
      <trkpt lat="43.8224" lon="5.38533">
        <ele>414</ele>
        <time>2014-05-20T12:54:05Z</time>
      </trkpt>
      <trkpt lat="43.82234" lon="5.38533">
        <ele>414</ele>
        <time>2014-05-20T12:54:10Z</time>
      </trkpt>
      <trkpt lat="43.82232" lon="5.38533">
        <ele>414</ele>
        <time>2014-05-20T12:54:11Z</time>
      </trkpt>
      <trkpt lat="43.82231" lon="5.38533">
        <ele>414</ele>
        <time>2014-05-20T12:54:12Z</time>
      </trkpt>
      <trkpt lat="43.82223" lon="5.3853">
        <ele>414</ele>
        <time>2014-05-20T12:54:19Z</time>
      </trkpt>
      <trkpt lat="43.82218" lon="5.38526">
        <ele>415</ele>
        <time>2014-05-20T12:54:23Z</time>
      </trkpt>
      <trkpt lat="43.82211" lon="5.38522">
        <ele>415</ele>
        <time>2014-05-20T12:54:29Z</time>
      </trkpt>
      <trkpt lat="43.82201" lon="5.38518">
        <ele>415</ele>
        <time>2014-05-20T12:54:38Z</time>
      </trkpt>
      <trkpt lat="43.82197" lon="5.38516">
        <ele>415</ele>
        <time>2014-05-20T12:54:43Z</time>
      </trkpt>
      <trkpt lat="43.82195" lon="5.38514">
        <ele>415</ele>
        <time>2014-05-20T12:54:46Z</time>
      </trkpt>
      <trkpt lat="43.82195" lon="5.38513">
        <ele>415</ele>
        <time>2014-05-20T12:54:47Z</time>
      </trkpt>
      <trkpt lat="43.82193" lon="5.38514">
        <ele>415</ele>
        <time>2014-05-20T12:54:50Z</time>
      </trkpt>
      <trkpt lat="43.82193" lon="5.38513">
        <ele>415</ele>
        <time>2014-05-20T12:54:53Z</time>
      </trkpt>
      <trkpt lat="43.82193" lon="5.38513">
        <ele>415</ele>
        <time>2014-05-20T12:54:54Z</time>
      </trkpt>
      <trkpt lat="43.82194" lon="5.38514">
        <ele>415</ele>
        <time>2014-05-20T12:54:59Z</time>
      </trkpt>
      <trkpt lat="43.82198" lon="5.38515">
        <ele>415</ele>
        <time>2014-05-20T12:55:01Z</time>
      </trkpt>
      <trkpt lat="43.822" lon="5.38515">
        <ele>415</ele>
        <time>2014-05-20T12:55:02Z</time>
      </trkpt>
      <trkpt lat="43.82207" lon="5.38515">
        <ele>415</ele>
        <time>2014-05-20T12:55:04Z</time>
      </trkpt>
      <trkpt lat="43.82223" lon="5.38515">
        <ele>414</ele>
        <time>2014-05-20T12:55:09Z</time>
      </trkpt>
      <trkpt lat="43.82229" lon="5.38516">
        <ele>414</ele>
        <time>2014-05-20T12:55:11Z</time>
      </trkpt>
      <trkpt lat="43.82238" lon="5.38514">
        <ele>414</ele>
        <time>2014-05-20T12:55:14Z</time>
      </trkpt>
      <trkpt lat="43.82241" lon="5.38515">
        <ele>413</ele>
        <time>2014-05-20T12:55:16Z</time>
      </trkpt>
      <trkpt lat="43.82245" lon="5.38516">
        <ele>413</ele>
        <time>2014-05-20T12:55:18Z</time>
      </trkpt>
      <trkpt lat="43.82253" lon="5.38515">
        <ele>419</ele>
        <time>2014-05-20T12:55:21Z</time>
      </trkpt>
      <trkpt lat="43.82257" lon="5.38515">
        <ele>419</ele>
        <time>2014-05-20T12:55:23Z</time>
      </trkpt>
      <trkpt lat="43.82265" lon="5.38519">
        <ele>422</ele>
        <time>2014-05-20T12:55:27Z</time>
      </trkpt>
      <trkpt lat="43.82278" lon="5.3852">
        <ele>425</ele>
        <time>2014-05-20T12:55:32Z</time>
      </trkpt>
      <trkpt lat="43.82283" lon="5.38521">
        <ele>426</ele>
        <time>2014-05-20T12:55:34Z</time>
      </trkpt>
      <trkpt lat="43.82285" lon="5.38526">
        <ele>427</ele>
        <time>2014-05-20T12:55:37Z</time>
      </trkpt>
      <trkpt lat="43.82286" lon="5.38526">
        <ele>427</ele>
        <time>2014-05-20T12:55:38Z</time>
      </trkpt>
      <trkpt lat="43.82287" lon="5.38524">
        <ele>427</ele>
        <time>2014-05-20T12:55:40Z</time>
      </trkpt>
      <trkpt lat="43.82286" lon="5.38523">
        <ele>427</ele>
        <time>2014-05-20T12:55:41Z</time>
      </trkpt>
      <trkpt lat="43.82285" lon="5.38523">
        <ele>427</ele>
        <time>2014-05-20T12:55:42Z</time>
      </trkpt>
      <trkpt lat="43.82281" lon="5.38526">
        <ele>426</ele>
        <time>2014-05-20T12:55:44Z</time>
      </trkpt>
      <trkpt lat="43.8228" lon="5.38527">
        <ele>425</ele>
        <time>2014-05-20T12:55:45Z</time>
      </trkpt>
      <trkpt lat="43.82278" lon="5.38529">
        <ele>425</ele>
        <time>2014-05-20T12:55:46Z</time>
      </trkpt>
      <trkpt lat="43.82272" lon="5.38532">
        <ele>424</ele>
        <time>2014-05-20T12:55:49Z</time>
      </trkpt>
      <trkpt lat="43.82269" lon="5.38533">
        <ele>423</ele>
        <time>2014-05-20T12:55:51Z</time>
      </trkpt>
      <trkpt lat="43.82267" lon="5.38534">
        <ele>423</ele>
        <time>2014-05-20T12:55:52Z</time>
      </trkpt>
      <trkpt lat="43.82262" lon="5.38535">
        <ele>422</ele>
        <time>2014-05-20T12:55:54Z</time>
      </trkpt>
      <trkpt lat="43.82256" lon="5.38533">
        <ele>422</ele>
        <time>2014-05-20T12:55:58Z</time>
      </trkpt>
      <trkpt lat="43.82253" lon="5.38531">
        <ele>421</ele>
        <time>2014-05-20T12:56:00Z</time>
      </trkpt>
      <trkpt lat="43.82251" lon="5.3853">
        <ele>421</ele>
        <time>2014-05-20T12:56:01Z</time>
      </trkpt>
      <trkpt lat="43.82246" lon="5.3853">
        <ele>414</ele>
        <time>2014-05-20T12:56:03Z</time>
      </trkpt>
      <trkpt lat="43.82236" lon="5.3853">
        <ele>414</ele>
        <time>2014-05-20T12:56:07Z</time>
      </trkpt>
      <trkpt lat="43.82228" lon="5.38528">
        <ele>414</ele>
        <time>2014-05-20T12:56:10Z</time>
      </trkpt>
      <trkpt lat="43.82215" lon="5.38523">
        <ele>415</ele>
        <time>2014-05-20T12:56:17Z</time>
      </trkpt>
      <trkpt lat="43.82203" lon="5.38521">
        <ele>415</ele>
        <time>2014-05-20T12:56:24Z</time>
      </trkpt>
      <trkpt lat="43.82195" lon="5.38522">
        <ele>415</ele>
        <time>2014-05-20T12:56:29Z</time>
      </trkpt>
      <trkpt lat="43.82193" lon="5.38523">
        <ele>415</ele>
        <time>2014-05-20T12:56:31Z</time>
      </trkpt>
      <trkpt lat="43.8219" lon="5.38525">
        <ele>416</ele>
        <time>2014-05-20T12:56:34Z</time>
      </trkpt>
      <trkpt lat="43.82188" lon="5.38527">
        <ele>416</ele>
        <time>2014-05-20T12:56:36Z</time>
      </trkpt>
      <trkpt lat="43.82186" lon="5.38529">
        <ele>416</ele>
        <time>2014-05-20T12:56:39Z</time>
      </trkpt>
      <trkpt lat="43.82186" lon="5.38528">
        <ele>416</ele>
        <time>2014-05-20T12:56:40Z</time>
      </trkpt>
      <trkpt lat="43.82187" lon="5.38527">
        <ele>416</ele>
        <time>2014-05-20T12:56:43Z</time>
      </trkpt>
      <trkpt lat="43.8218" lon="5.3853">
        <ele>416</ele>
        <time>2014-05-20T12:56:57Z</time>
      </trkpt>
      <trkpt lat="43.82178" lon="5.38532">
        <ele>416</ele>
        <time>2014-05-20T12:57:02Z</time>
      </trkpt>
      <trkpt lat="43.82178" lon="5.38532">
        <ele>416</ele>
        <time>2014-05-20T12:57:06Z</time>
      </trkpt>
      <trkpt lat="43.82177" lon="5.38535">
        <ele>416</ele>
        <time>2014-05-20T12:57:12Z</time>
      </trkpt>
      <trkpt lat="43.82177" lon="5.38541">
        <ele>416</ele>
        <time>2014-05-20T12:57:22Z</time>
      </trkpt>
      <trkpt lat="43.82178" lon="5.38542">
        <ele>416</ele>
        <time>2014-05-20T12:57:26Z</time>
      </trkpt>
      <trkpt lat="43.82177" lon="5.38548">
        <ele>416</ele>
        <time>2014-05-20T12:57:30Z</time>
      </trkpt>
      <trkpt lat="43.82177" lon="5.3855">
        <ele>416</ele>
        <time>2014-05-20T12:57:32Z</time>
      </trkpt>
      <trkpt lat="43.82177" lon="5.38553">
        <ele>416</ele>
        <time>2014-05-20T12:57:34Z</time>
      </trkpt>
      <trkpt lat="43.82175" lon="5.3856">
        <ele>417</ele>
        <time>2014-05-20T12:57:41Z</time>
      </trkpt>
      <trkpt lat="43.82174" lon="5.38561">
        <ele>417</ele>
        <time>2014-05-20T12:57:42Z</time>
      </trkpt>
      <trkpt lat="43.82174" lon="5.38564">
        <ele>417</ele>
        <time>2014-05-20T12:57:44Z</time>
      </trkpt>
      <trkpt lat="43.82173" lon="5.3857">
        <ele>417</ele>
        <time>2014-05-20T12:57:48Z</time>
      </trkpt>
      <trkpt lat="43.82172" lon="5.38577">
        <ele>418</ele>
        <time>2014-05-20T12:57:52Z</time>
      </trkpt>
      <trkpt lat="43.82173" lon="5.38583">
        <ele>418</ele>
        <time>2014-05-20T12:57:56Z</time>
      </trkpt>
      <trkpt lat="43.82173" lon="5.38584">
        <ele>420</ele>
        <time>2014-05-20T12:57:57Z</time>
      </trkpt>
      <trkpt lat="43.82173" lon="5.38585">
        <ele>420</ele>
        <time>2014-05-20T12:57:58Z</time>
      </trkpt>
      <trkpt lat="43.82172" lon="5.38592">
        <ele>420</ele>
        <time>2014-05-20T12:58:02Z</time>
      </trkpt>
      <trkpt lat="43.82172" lon="5.38596">
        <ele>420</ele>
        <time>2014-05-20T12:58:05Z</time>
      </trkpt>
      <trkpt lat="43.82173" lon="5.38597">
        <ele>420</ele>
        <time>2014-05-20T12:58:07Z</time>
      </trkpt>
      <trkpt lat="43.82173" lon="5.386">
        <ele>421</ele>
        <time>2014-05-20T12:58:09Z</time>
      </trkpt>
      <trkpt lat="43.82175" lon="5.38603">
        <ele>421</ele>
        <time>2014-05-20T12:58:13Z</time>
      </trkpt>
      <trkpt lat="43.82177" lon="5.38616">
        <ele>422</ele>
        <time>2014-05-20T12:58:21Z</time>
      </trkpt>
      <trkpt lat="43.82183" lon="5.38629">
        <ele>424</ele>
        <time>2014-05-20T12:58:32Z</time>
      </trkpt>
      <trkpt lat="43.82185" lon="5.38631">
        <ele>424</ele>
        <time>2014-05-20T12:58:34Z</time>
      </trkpt>
      <trkpt lat="43.82188" lon="5.3864">
        <ele>425</ele>
        <time>2014-05-20T12:58:40Z</time>
      </trkpt>
      <trkpt lat="43.82189" lon="5.38646">
        <ele>426</ele>
        <time>2014-05-20T12:58:44Z</time>
      </trkpt>
      <trkpt lat="43.8219" lon="5.38649">
        <ele>426</ele>
        <time>2014-05-20T12:58:46Z</time>
      </trkpt>
      <trkpt lat="43.82191" lon="5.38651">
        <ele>426</ele>
        <time>2014-05-20T12:58:48Z</time>
      </trkpt>
      <trkpt lat="43.82192" lon="5.38655">
        <ele>426</ele>
        <time>2014-05-20T12:58:51Z</time>
      </trkpt>
      <trkpt lat="43.82194" lon="5.38657">
        <ele>426</ele>
        <time>2014-05-20T12:58:53Z</time>
      </trkpt>
      <trkpt lat="43.82194" lon="5.38658">
        <ele>426</ele>
        <time>2014-05-20T12:58:54Z</time>
      </trkpt>
      <trkpt lat="43.82196" lon="5.38659">
        <ele>425</ele>
        <time>2014-05-20T12:58:56Z</time>
      </trkpt>
      <trkpt lat="43.82197" lon="5.3866">
        <ele>425</ele>
        <time>2014-05-20T12:58:57Z</time>
      </trkpt>
      <trkpt lat="43.822" lon="5.38664">
        <ele>425</ele>
        <time>2014-05-20T12:59:01Z</time>
      </trkpt>
      <trkpt lat="43.82202" lon="5.38665">
        <ele>425</ele>
        <time>2014-05-20T12:59:03Z</time>
      </trkpt>
      <trkpt lat="43.82203" lon="5.38667">
        <ele>432</ele>
        <time>2014-05-20T12:59:05Z</time>
      </trkpt>
      <trkpt lat="43.82205" lon="5.38674">
        <ele>432</ele>
        <time>2014-05-20T12:59:09Z</time>
      </trkpt>
      <trkpt lat="43.82206" lon="5.38685">
        <ele>432</ele>
        <time>2014-05-20T12:59:16Z</time>
      </trkpt>
      <trkpt lat="43.82207" lon="5.38689">
        <ele>432</ele>
        <time>2014-05-20T12:59:19Z</time>
      </trkpt>
      <trkpt lat="43.82208" lon="5.38691">
        <ele>432</ele>
        <time>2014-05-20T12:59:21Z</time>
      </trkpt>
      <trkpt lat="43.82211" lon="5.38693">
        <ele>432</ele>
        <time>2014-05-20T12:59:24Z</time>
      </trkpt>
      <trkpt lat="43.82213" lon="5.38695">
        <ele>432</ele>
        <time>2014-05-20T12:59:26Z</time>
      </trkpt>
      <trkpt lat="43.82214" lon="5.38695">
        <ele>432</ele>
        <time>2014-05-20T12:59:27Z</time>
      </trkpt>
      <trkpt lat="43.82214" lon="5.38696">
        <ele>432</ele>
        <time>2014-05-20T12:59:28Z</time>
      </trkpt>
      <trkpt lat="43.82216" lon="5.38698">
        <ele>431</ele>
        <time>2014-05-20T12:59:30Z</time>
      </trkpt>
      <trkpt lat="43.82216" lon="5.387">
        <ele>432</ele>
        <time>2014-05-20T12:59:31Z</time>
      </trkpt>
      <trkpt lat="43.82217" lon="5.38702">
        <ele>432</ele>
        <time>2014-05-20T12:59:33Z</time>
      </trkpt>
      <trkpt lat="43.82219" lon="5.3871">
        <ele>432</ele>
        <time>2014-05-20T12:59:37Z</time>
      </trkpt>
      <trkpt lat="43.8222" lon="5.38712">
        <ele>432</ele>
        <time>2014-05-20T12:59:39Z</time>
      </trkpt>
      <trkpt lat="43.82221" lon="5.38715">
        <ele>432</ele>
        <time>2014-05-20T12:59:41Z</time>
      </trkpt>
      <trkpt lat="43.82222" lon="5.38717">
        <ele>432</ele>
        <time>2014-05-20T12:59:42Z</time>
      </trkpt>
      <trkpt lat="43.82225" lon="5.38729">
        <ele>431</ele>
        <time>2014-05-20T12:59:51Z</time>
      </trkpt>
      <trkpt lat="43.82227" lon="5.38731">
        <ele>431</ele>
        <time>2014-05-20T12:59:54Z</time>
      </trkpt>
      <trkpt lat="43.82229" lon="5.38738">
        <ele>430</ele>
        <time>2014-05-20T12:59:59Z</time>
      </trkpt>
      <trkpt lat="43.82229" lon="5.38742">
        <ele>430</ele>
        <time>2014-05-20T13:00:01Z</time>
      </trkpt>
      <trkpt lat="43.82232" lon="5.38746">
        <ele>428</ele>
        <time>2014-05-20T13:00:05Z</time>
      </trkpt>
      <trkpt lat="43.82232" lon="5.38748">
        <ele>428</ele>
        <time>2014-05-20T13:00:06Z</time>
      </trkpt>
      <trkpt lat="43.82235" lon="5.38755">
        <ele>434</ele>
        <time>2014-05-20T13:00:11Z</time>
      </trkpt>
      <trkpt lat="43.82238" lon="5.38759">
        <ele>433</ele>
        <time>2014-05-20T13:00:16Z</time>
      </trkpt>
      <trkpt lat="43.8224" lon="5.38766">
        <ele>435</ele>
        <time>2014-05-20T13:00:21Z</time>
      </trkpt>
      <trkpt lat="43.82241" lon="5.3877">
        <ele>436</ele>
        <time>2014-05-20T13:00:23Z</time>
      </trkpt>
      <trkpt lat="43.82242" lon="5.3877">
        <ele>436</ele>
        <time>2014-05-20T13:00:24Z</time>
      </trkpt>
      <trkpt lat="43.82245" lon="5.38787">
        <ele>440</ele>
        <time>2014-05-20T13:00:34Z</time>
      </trkpt>
      <trkpt lat="43.82247" lon="5.38793">
        <ele>440</ele>
        <time>2014-05-20T13:00:38Z</time>
      </trkpt>
      <trkpt lat="43.82248" lon="5.38798">
        <ele>440</ele>
        <time>2014-05-20T13:00:41Z</time>
      </trkpt>
      <trkpt lat="43.82249" lon="5.38802">
        <ele>440</ele>
        <time>2014-05-20T13:00:44Z</time>
      </trkpt>
      <trkpt lat="43.82252" lon="5.38805">
        <ele>429</ele>
        <time>2014-05-20T13:00:47Z</time>
      </trkpt>
      <trkpt lat="43.82253" lon="5.38809">
        <ele>429</ele>
        <time>2014-05-20T13:00:50Z</time>
      </trkpt>
      <trkpt lat="43.82254" lon="5.3881">
        <ele>429</ele>
        <time>2014-05-20T13:00:51Z</time>
      </trkpt>
      <trkpt lat="43.82254" lon="5.38814">
        <ele>430</ele>
        <time>2014-05-20T13:00:53Z</time>
      </trkpt>
      <trkpt lat="43.82255" lon="5.38816">
        <ele>430</ele>
        <time>2014-05-20T13:00:55Z</time>
      </trkpt>
      <trkpt lat="43.82257" lon="5.38818">
        <ele>430</ele>
        <time>2014-05-20T13:00:57Z</time>
      </trkpt>
      <trkpt lat="43.82257" lon="5.38821">
        <ele>431</ele>
        <time>2014-05-20T13:01:00Z</time>
      </trkpt>
      <trkpt lat="43.82258" lon="5.38826">
        <ele>431</ele>
        <time>2014-05-20T13:01:10Z</time>
      </trkpt>
      <trkpt lat="43.82259" lon="5.3883">
        <ele>432</ele>
        <time>2014-05-20T13:01:22Z</time>
      </trkpt>
      <trkpt lat="43.82261" lon="5.38828">
        <ele>431</ele>
        <time>2014-05-20T13:01:30Z</time>
      </trkpt>
      <trkpt lat="43.82261" lon="5.38827">
        <ele>431</ele>
        <time>2014-05-20T13:01:33Z</time>
      </trkpt>
      <trkpt lat="43.82261" lon="5.38826">
        <ele>431</ele>
        <time>2014-05-20T13:01:35Z</time>
      </trkpt>
      <trkpt lat="43.82261" lon="5.38826">
        <ele>431</ele>
        <time>2014-05-20T13:01:36Z</time>
      </trkpt>
      <trkpt lat="43.82263" lon="5.38824">
        <ele>431</ele>
        <time>2014-05-20T13:01:40Z</time>
      </trkpt>
      <trkpt lat="43.82264" lon="5.38825">
        <ele>430</ele>
        <time>2014-05-20T13:01:42Z</time>
      </trkpt>
      <trkpt lat="43.82265" lon="5.38825">
        <ele>430</ele>
        <time>2014-05-20T13:01:44Z</time>
      </trkpt>
      <trkpt lat="43.82266" lon="5.38822">
        <ele>430</ele>
        <time>2014-05-20T13:01:47Z</time>
      </trkpt>
      <trkpt lat="43.82269" lon="5.3882">
        <ele>429</ele>
        <time>2014-05-20T13:01:52Z</time>
      </trkpt>
      <trkpt lat="43.82272" lon="5.38816">
        <ele>429</ele>
        <time>2014-05-20T13:01:57Z</time>
      </trkpt>
      <trkpt lat="43.82271" lon="5.38815">
        <ele>429</ele>
        <time>2014-05-20T13:01:58Z</time>
      </trkpt>
      <trkpt lat="43.8228" lon="5.3881">
        <ele>428</ele>
        <time>2014-05-20T13:02:05Z</time>
      </trkpt>
      <trkpt lat="43.82284" lon="5.38806">
        <ele>428</ele>
        <time>2014-05-20T13:02:08Z</time>
      </trkpt>
      <trkpt lat="43.82291" lon="5.38802">
        <ele>427</ele>
        <time>2014-05-20T13:02:14Z</time>
      </trkpt>
      <trkpt lat="43.82295" lon="5.38801">
        <ele>427</ele>
        <time>2014-05-20T13:02:18Z</time>
      </trkpt>
      <trkpt lat="43.82299" lon="5.38799">
        <ele>427</ele>
        <time>2014-05-20T13:02:26Z</time>
      </trkpt>
      <trkpt lat="43.82301" lon="5.38797">
        <ele>427</ele>
        <time>2014-05-20T13:02:28Z</time>
      </trkpt>
      <trkpt lat="43.82302" lon="5.38797">
        <ele>427</ele>
        <time>2014-05-20T13:02:29Z</time>
      </trkpt>
      <trkpt lat="43.82308" lon="5.38795">
        <ele>427</ele>
        <time>2014-05-20T13:02:33Z</time>
      </trkpt>
      <trkpt lat="43.82312" lon="5.38796">
        <ele>427</ele>
        <time>2014-05-20T13:02:40Z</time>
      </trkpt>
      <trkpt lat="43.8231" lon="5.38799">
        <ele>427</ele>
        <time>2014-05-20T13:02:45Z</time>
      </trkpt>
      <trkpt lat="43.82311" lon="5.388">
        <ele>427</ele>
        <time>2014-05-20T13:02:47Z</time>
      </trkpt>
      <trkpt lat="43.82315" lon="5.38801">
        <ele>427</ele>
        <time>2014-05-20T13:02:51Z</time>
      </trkpt>
      <trkpt lat="43.82317" lon="5.38801">
        <ele>427</ele>
        <time>2014-05-20T13:02:52Z</time>
      </trkpt>
      <trkpt lat="43.82318" lon="5.38802">
        <ele>427</ele>
        <time>2014-05-20T13:02:54Z</time>
      </trkpt>
      <trkpt lat="43.82319" lon="5.38802">
        <ele>427</ele>
        <time>2014-05-20T13:02:57Z</time>
      </trkpt>
      <trkpt lat="43.82319" lon="5.38803">
        <ele>427</ele>
        <time>2014-05-20T13:02:58Z</time>
      </trkpt>
      <trkpt lat="43.82319" lon="5.38803">
        <ele>427</ele>
        <time>2014-05-20T13:03:00Z</time>
      </trkpt>
      <trkpt lat="43.8232" lon="5.38802">
        <ele>427</ele>
        <time>2014-05-20T13:03:01Z</time>
      </trkpt>
      <trkpt lat="43.82321" lon="5.38801">
        <ele>427</ele>
        <time>2014-05-20T13:03:04Z</time>
      </trkpt>
      <trkpt lat="43.82325" lon="5.3881">
        <ele>427</ele>
        <time>2014-05-20T13:03:14Z</time>
      </trkpt>
      <trkpt lat="43.8233" lon="5.38811">
        <ele>427</ele>
        <time>2014-05-20T13:03:18Z</time>
      </trkpt>
      <trkpt lat="43.82332" lon="5.38809">
        <ele>427</ele>
        <time>2014-05-20T13:03:22Z</time>
      </trkpt>
      <trkpt lat="43.82333" lon="5.38809">
        <ele>427</ele>
        <time>2014-05-20T13:03:23Z</time>
      </trkpt>
      <trkpt lat="43.82334" lon="5.38809">
        <ele>435</ele>
        <time>2014-05-20T13:03:25Z</time>
      </trkpt>
      <trkpt lat="43.82334" lon="5.38811">
        <ele>435</ele>
        <time>2014-05-20T13:03:26Z</time>
      </trkpt>
      <trkpt lat="43.82334" lon="5.38813">
        <ele>434</ele>
        <time>2014-05-20T13:03:30Z</time>
      </trkpt>
      <trkpt lat="43.82337" lon="5.38813">
        <ele>435</ele>
        <time>2014-05-20T13:03:32Z</time>
      </trkpt>
      <trkpt lat="43.82346" lon="5.38804">
        <ele>437</ele>
        <time>2014-05-20T13:03:40Z</time>
      </trkpt>
      <trkpt lat="43.82355" lon="5.38792">
        <ele>439</ele>
        <time>2014-05-20T13:03:58Z</time>
      </trkpt>
      <trkpt lat="43.82351" lon="5.38797">
        <ele>439</ele>
        <time>2014-05-20T13:03:59Z</time>
      </trkpt>
      <trkpt lat="43.82351" lon="5.38798">
        <ele>438</ele>
        <time>2014-05-20T13:04:00Z</time>
      </trkpt>
      <trkpt lat="43.82351" lon="5.38801">
        <ele>438</ele>
        <time>2014-05-20T13:04:07Z</time>
      </trkpt>
      <trkpt lat="43.82352" lon="5.38799">
        <ele>439</ele>
        <time>2014-05-20T13:04:11Z</time>
      </trkpt>
      <trkpt lat="43.82353" lon="5.38799">
        <ele>439</ele>
        <time>2014-05-20T13:04:12Z</time>
      </trkpt>
      <trkpt lat="43.82354" lon="5.38807">
        <ele>438</ele>
        <time>2014-05-20T13:04:19Z</time>
      </trkpt>
      <trkpt lat="43.82358" lon="5.38812">
        <ele>438</ele>
        <time>2014-05-20T13:04:26Z</time>
      </trkpt>
      <trkpt lat="43.8236" lon="5.38811">
        <ele>439</ele>
        <time>2014-05-20T13:04:28Z</time>
      </trkpt>
      <trkpt lat="43.82365" lon="5.38806">
        <ele>440</ele>
        <time>2014-05-20T13:04:34Z</time>
      </trkpt>
      <trkpt lat="43.824" lon="5.38788">
        <ele>448</ele>
        <time>2014-05-20T13:04:57Z</time>
      </trkpt>
      <trkpt lat="43.82396" lon="5.38795">
        <ele>447</ele>
        <time>2014-05-20T13:05:00Z</time>
      </trkpt>
      <trkpt lat="43.82393" lon="5.38798">
        <ele>446</ele>
        <time>2014-05-20T13:05:02Z</time>
      </trkpt>
      <trkpt lat="43.82389" lon="5.38804">
        <ele>445</ele>
        <time>2014-05-20T13:05:07Z</time>
      </trkpt>
      <trkpt lat="43.82391" lon="5.38805">
        <ele>445</ele>
        <time>2014-05-20T13:05:10Z</time>
      </trkpt>
      <trkpt lat="43.8239" lon="5.38806">
        <ele>445</ele>
        <time>2014-05-20T13:05:11Z</time>
      </trkpt>
      <trkpt lat="43.82389" lon="5.38808">
        <ele>445</ele>
        <time>2014-05-20T13:05:13Z</time>
      </trkpt>
      <trkpt lat="43.82388" lon="5.38809">
        <ele>444</ele>
        <time>2014-05-20T13:05:15Z</time>
      </trkpt>
      <trkpt lat="43.82385" lon="5.38814">
        <ele>444</ele>
        <time>2014-05-20T13:05:20Z</time>
      </trkpt>
      <trkpt lat="43.82384" lon="5.38818">
        <ele>443</ele>
        <time>2014-05-20T13:05:22Z</time>
      </trkpt>
      <trkpt lat="43.82378" lon="5.38822">
        <ele>442</ele>
        <time>2014-05-20T13:05:27Z</time>
      </trkpt>
      <trkpt lat="43.82378" lon="5.38824">
        <ele>442</ele>
        <time>2014-05-20T13:05:30Z</time>
      </trkpt>
      <trkpt lat="43.82377" lon="5.38823">
        <ele>442</ele>
        <time>2014-05-20T13:05:32Z</time>
      </trkpt>
      <trkpt lat="43.82378" lon="5.38824">
        <ele>442</ele>
        <time>2014-05-20T13:05:33Z</time>
      </trkpt>
      <trkpt lat="43.8238" lon="5.38823">
        <ele>442</ele>
        <time>2014-05-20T13:05:36Z</time>
      </trkpt>
      <trkpt lat="43.82382" lon="5.38821">
        <ele>443</ele>
        <time>2014-05-20T13:05:39Z</time>
      </trkpt>
      <trkpt lat="43.82385" lon="5.3882">
        <ele>443</ele>
        <time>2014-05-20T13:05:42Z</time>
      </trkpt>
      <trkpt lat="43.82387" lon="5.38818">
        <ele>444</ele>
        <time>2014-05-20T13:05:45Z</time>
      </trkpt>
      <trkpt lat="43.82388" lon="5.38817">
        <ele>444</ele>
        <time>2014-05-20T13:05:47Z</time>
      </trkpt>
      <trkpt lat="43.82388" lon="5.38818">
        <ele>444</ele>
        <time>2014-05-20T13:05:49Z</time>
      </trkpt>
      <trkpt lat="43.82387" lon="5.38819">
        <ele>444</ele>
        <time>2014-05-20T13:05:51Z</time>
      </trkpt>
      <trkpt lat="43.82381" lon="5.38824">
        <ele>442</ele>
        <time>2014-05-20T13:05:59Z</time>
      </trkpt>
      <trkpt lat="43.8238" lon="5.38823">
        <ele>442</ele>
        <time>2014-05-20T13:06:00Z</time>
      </trkpt>
      <trkpt lat="43.82381" lon="5.38823">
        <ele>442</ele>
        <time>2014-05-20T13:06:03Z</time>
      </trkpt>
      <trkpt lat="43.8238" lon="5.38823">
        <ele>442</ele>
        <time>2014-05-20T13:06:04Z</time>
      </trkpt>
      <trkpt lat="43.82381" lon="5.38822">
        <ele>442</ele>
        <time>2014-05-20T13:06:07Z</time>
      </trkpt>
      <trkpt lat="43.8238" lon="5.38821">
        <ele>442</ele>
        <time>2014-05-20T13:06:08Z</time>
      </trkpt>
      <trkpt lat="43.82375" lon="5.38823">
        <ele>441</ele>
        <time>2014-05-20T13:06:12Z</time>
      </trkpt>
      <trkpt lat="43.82371" lon="5.38824">
        <ele>440</ele>
        <time>2014-05-20T13:06:15Z</time>
      </trkpt>
      <trkpt lat="43.8237" lon="5.38823">
        <ele>440</ele>
        <time>2014-05-20T13:06:16Z</time>
      </trkpt>
      <trkpt lat="43.82371" lon="5.38822">
        <ele>440</ele>
        <time>2014-05-20T13:06:17Z</time>
      </trkpt>
      <trkpt lat="43.82272" lon="5.389">
        <ele>438</ele>
        <time>2014-05-20T13:06:48Z</time>
      </trkpt>
      <trkpt lat="43.82303" lon="5.38884">
        <ele>436</ele>
        <time>2014-05-20T13:06:53Z</time>
      </trkpt>
      <trkpt lat="43.82323" lon="5.38873">
        <ele>434</ele>
        <time>2014-05-20T13:06:57Z</time>
      </trkpt>
      <trkpt lat="43.82328" lon="5.3887">
        <ele>434</ele>
        <time>2014-05-20T13:06:58Z</time>
      </trkpt>
      <trkpt lat="43.82336" lon="5.38867">
        <ele>433</ele>
        <time>2014-05-20T13:07:00Z</time>
      </trkpt>
      <trkpt lat="43.82347" lon="5.38864">
        <ele>434</ele>
        <time>2014-05-20T13:07:03Z</time>
      </trkpt>
      <trkpt lat="43.82356" lon="5.38861">
        <ele>434</ele>
        <time>2014-05-20T13:07:06Z</time>
      </trkpt>
      <trkpt lat="43.8237" lon="5.38859">
        <ele>435</ele>
        <time>2014-05-20T13:07:12Z</time>
      </trkpt>
      <trkpt lat="43.82376" lon="5.3886">
        <ele>436</ele>
        <time>2014-05-20T13:07:16Z</time>
      </trkpt>
      <trkpt lat="43.82379" lon="5.38862">
        <ele>436</ele>
        <time>2014-05-20T13:07:19Z</time>
      </trkpt>
      <trkpt lat="43.82383" lon="5.38864">
        <ele>436</ele>
        <time>2014-05-20T13:07:22Z</time>
      </trkpt>
      <trkpt lat="43.82384" lon="5.38867">
        <ele>436</ele>
        <time>2014-05-20T13:07:24Z</time>
      </trkpt>
      <trkpt lat="43.82386" lon="5.3887">
        <ele>436</ele>
        <time>2014-05-20T13:07:27Z</time>
      </trkpt>
      <trkpt lat="43.82387" lon="5.38871">
        <ele>436</ele>
        <time>2014-05-20T13:07:28Z</time>
      </trkpt>
      <trkpt lat="43.82388" lon="5.38873">
        <ele>436</ele>
        <time>2014-05-20T13:07:30Z</time>
      </trkpt>
      <trkpt lat="43.82391" lon="5.38874">
        <ele>436</ele>
        <time>2014-05-20T13:07:32Z</time>
      </trkpt>
      <trkpt lat="43.82392" lon="5.38875">
        <ele>436</ele>
        <time>2014-05-20T13:07:33Z</time>
      </trkpt>
      <trkpt lat="43.82393" lon="5.38876">
        <ele>436</ele>
        <time>2014-05-20T13:07:34Z</time>
      </trkpt>
      <trkpt lat="43.82393" lon="5.38877">
        <ele>436</ele>
        <time>2014-05-20T13:07:35Z</time>
      </trkpt>
      <trkpt lat="43.82395" lon="5.38878">
        <ele>436</ele>
        <time>2014-05-20T13:07:37Z</time>
      </trkpt>
      <trkpt lat="43.82397" lon="5.38882">
        <ele>436</ele>
        <time>2014-05-20T13:07:40Z</time>
      </trkpt>
      <trkpt lat="43.824" lon="5.38885">
        <ele>436</ele>
        <time>2014-05-20T13:07:44Z</time>
      </trkpt>
      <trkpt lat="43.82402" lon="5.38887">
        <ele>435</ele>
        <time>2014-05-20T13:07:46Z</time>
      </trkpt>
      <trkpt lat="43.82403" lon="5.38889">
        <ele>435</ele>
        <time>2014-05-20T13:07:48Z</time>
      </trkpt>
      <trkpt lat="43.82405" lon="5.38893">
        <ele>435</ele>
        <time>2014-05-20T13:07:51Z</time>
      </trkpt>
      <trkpt lat="43.82407" lon="5.38897">
        <ele>434</ele>
        <time>2014-05-20T13:07:54Z</time>
      </trkpt>
      <trkpt lat="43.82407" lon="5.38899">
        <ele>434</ele>
        <time>2014-05-20T13:07:55Z</time>
      </trkpt>
      <trkpt lat="43.82406" lon="5.38902">
        <ele>434</ele>
        <time>2014-05-20T13:07:57Z</time>
      </trkpt>
      <trkpt lat="43.82407" lon="5.38904">
        <ele>433</ele>
        <time>2014-05-20T13:07:59Z</time>
      </trkpt>
      <trkpt lat="43.8241" lon="5.38906">
        <ele>433</ele>
        <time>2014-05-20T13:08:05Z</time>
      </trkpt>
      <trkpt lat="43.82409" lon="5.38908">
        <ele>433</ele>
        <time>2014-05-20T13:08:07Z</time>
      </trkpt>
      <trkpt lat="43.82409" lon="5.3891">
        <ele>432</ele>
        <time>2014-05-20T13:08:09Z</time>
      </trkpt>
      <trkpt lat="43.82412" lon="5.38911">
        <ele>432</ele>
        <time>2014-05-20T13:08:15Z</time>
      </trkpt>
      <trkpt lat="43.82412" lon="5.38913">
        <ele>431</ele>
        <time>2014-05-20T13:08:18Z</time>
      </trkpt>
      <trkpt lat="43.82414" lon="5.38915">
        <ele>431</ele>
        <time>2014-05-20T13:08:23Z</time>
      </trkpt>
      <trkpt lat="43.82416" lon="5.38914">
        <ele>431</ele>
        <time>2014-05-20T13:08:24Z</time>
      </trkpt>
      <trkpt lat="43.82422" lon="5.3891">
        <ele>437</ele>
        <time>2014-05-20T13:08:28Z</time>
      </trkpt>
      <trkpt lat="43.82424" lon="5.3891">
        <ele>437</ele>
        <time>2014-05-20T13:08:31Z</time>
      </trkpt>
      <trkpt lat="43.82423" lon="5.38912">
        <ele>436</ele>
        <time>2014-05-20T13:08:34Z</time>
      </trkpt>
      <trkpt lat="43.82423" lon="5.38913">
        <ele>436</ele>
        <time>2014-05-20T13:08:36Z</time>
      </trkpt>
      <trkpt lat="43.82426" lon="5.38915">
        <ele>437</ele>
        <time>2014-05-20T13:08:40Z</time>
      </trkpt>
      <trkpt lat="43.82427" lon="5.38918">
        <ele>435</ele>
        <time>2014-05-20T13:08:45Z</time>
      </trkpt>
      <trkpt lat="43.82427" lon="5.38917">
        <ele>435</ele>
        <time>2014-05-20T13:08:46Z</time>
      </trkpt>
      <trkpt lat="43.82428" lon="5.38918">
        <ele>435</ele>
        <time>2014-05-20T13:08:48Z</time>
      </trkpt>
      <trkpt lat="43.82512" lon="5.38998">
        <ele>447</ele>
        <time>2014-05-20T13:10:57Z</time>
      </trkpt>
      <trkpt lat="43.82644" lon="5.39078">
        <ele>458</ele>
        <time>2014-05-20T13:13:41Z</time>
      </trkpt>
      <trkpt lat="43.82657" lon="5.39083">
        <ele>457</ele>
        <time>2014-05-20T13:13:49Z</time>
      </trkpt>
      <trkpt lat="43.82667" lon="5.3908">
        <ele>457</ele>
        <time>2014-05-20T13:13:57Z</time>
      </trkpt>
      <trkpt lat="43.82672" lon="5.39084">
        <ele>457</ele>
        <time>2014-05-20T13:14:11Z</time>
      </trkpt>
      <trkpt lat="43.82669" lon="5.39089">
        <ele>458</ele>
        <time>2014-05-20T13:14:25Z</time>
      </trkpt>
      <trkpt lat="43.82664" lon="5.39086">
        <ele>457</ele>
        <time>2014-05-20T13:14:28Z</time>
      </trkpt>
      <trkpt lat="43.82663" lon="5.39084">
        <ele>457</ele>
        <time>2014-05-20T13:14:29Z</time>
      </trkpt>
      <trkpt lat="43.82663" lon="5.39083">
        <ele>456</ele>
        <time>2014-05-20T13:14:30Z</time>
      </trkpt>
      <trkpt lat="43.82697" lon="5.39096">
        <ele>463</ele>
        <time>2014-05-20T13:15:31Z</time>
      </trkpt>
      <trkpt lat="43.82756" lon="5.39102">
        <ele>457</ele>
        <time>2014-05-20T13:16:33Z</time>
      </trkpt>
      <trkpt lat="43.82759" lon="5.39108">
        <ele>458</ele>
        <time>2014-05-20T13:16:43Z</time>
      </trkpt>
      <trkpt lat="43.82758" lon="5.39108">
        <ele>458</ele>
        <time>2014-05-20T13:16:45Z</time>
      </trkpt>
      <trkpt lat="43.82759" lon="5.39112">
        <ele>459</ele>
        <time>2014-05-20T13:16:50Z</time>
      </trkpt>
      <trkpt lat="43.8276" lon="5.39113">
        <ele>459</ele>
        <time>2014-05-20T13:16:52Z</time>
      </trkpt>
      <trkpt lat="43.82761" lon="5.39115">
        <ele>460</ele>
        <time>2014-05-20T13:16:56Z</time>
      </trkpt>
      <trkpt lat="43.82768" lon="5.39116">
        <ele>460</ele>
        <time>2014-05-20T13:17:04Z</time>
      </trkpt>
      <trkpt lat="43.82771" lon="5.39117">
        <ele>460</ele>
        <time>2014-05-20T13:17:08Z</time>
      </trkpt>
      <trkpt lat="43.82773" lon="5.39117">
        <ele>460</ele>
        <time>2014-05-20T13:17:11Z</time>
      </trkpt>
      <trkpt lat="43.82774" lon="5.39116">
        <ele>460</ele>
        <time>2014-05-20T13:17:12Z</time>
      </trkpt>
      <trkpt lat="43.82776" lon="5.39112">
        <ele>459</ele>
        <time>2014-05-20T13:17:14Z</time>
      </trkpt>
      <trkpt lat="43.82778" lon="5.3911">
        <ele>459</ele>
        <time>2014-05-20T13:17:16Z</time>
      </trkpt>
      <trkpt lat="43.82785" lon="5.39106">
        <ele>459</ele>
        <time>2014-05-20T13:17:21Z</time>
      </trkpt>
      <trkpt lat="43.8279" lon="5.39106">
        <ele>459</ele>
        <time>2014-05-20T13:17:24Z</time>
      </trkpt>
      <trkpt lat="43.82791" lon="5.39105">
        <ele>459</ele>
        <time>2014-05-20T13:17:25Z</time>
      </trkpt>
      <trkpt lat="43.82794" lon="5.39106">
        <ele>459</ele>
        <time>2014-05-20T13:17:27Z</time>
      </trkpt>
      <trkpt lat="43.82798" lon="5.39106">
        <ele>459</ele>
        <time>2014-05-20T13:17:29Z</time>
      </trkpt>
      <trkpt lat="43.82862" lon="5.39175">
        <ele>460</ele>
        <time>2014-05-20T13:18:42Z</time>
      </trkpt>
      <trkpt lat="43.82861" lon="5.39182">
        <ele>460</ele>
        <time>2014-05-20T13:18:45Z</time>
      </trkpt>
      <trkpt lat="43.82862" lon="5.39187">
        <ele>461</ele>
        <time>2014-05-20T13:18:49Z</time>
      </trkpt>
      <trkpt lat="43.82864" lon="5.3919">
        <ele>461</ele>
        <time>2014-05-20T13:18:51Z</time>
      </trkpt>
      <trkpt lat="43.82867" lon="5.39192">
        <ele>462</ele>
        <time>2014-05-20T13:18:53Z</time>
      </trkpt>
      <trkpt lat="43.82869" lon="5.39197">
        <ele>462</ele>
        <time>2014-05-20T13:18:56Z</time>
      </trkpt>
      <trkpt lat="43.82873" lon="5.39201">
        <ele>462</ele>
        <time>2014-05-20T13:19:01Z</time>
      </trkpt>
      <trkpt lat="43.82873" lon="5.39205">
        <ele>462</ele>
        <time>2014-05-20T13:19:04Z</time>
      </trkpt>
      <trkpt lat="43.82872" lon="5.39206">
        <ele>462</ele>
        <time>2014-05-20T13:19:05Z</time>
      </trkpt>
      <trkpt lat="43.82927" lon="5.39314">
        <ele>468</ele>
        <time>2014-05-20T13:20:42Z</time>
      </trkpt>
      <trkpt lat="43.82931" lon="5.39315">
        <ele>468</ele>
        <time>2014-05-20T13:20:44Z</time>
      </trkpt>
      <trkpt lat="43.82932" lon="5.39315">
        <ele>468</ele>
        <time>2014-05-20T13:20:45Z</time>
      </trkpt>
      <trkpt lat="43.82941" lon="5.39311">
        <ele>469</ele>
        <time>2014-05-20T13:20:50Z</time>
      </trkpt>
      <trkpt lat="43.82944" lon="5.3931">
        <ele>469</ele>
        <time>2014-05-20T13:20:52Z</time>
      </trkpt>
      <trkpt lat="43.82945" lon="5.39311">
        <ele>469</ele>
        <time>2014-05-20T13:20:53Z</time>
      </trkpt>
      <trkpt lat="43.82947" lon="5.39312">
        <ele>469</ele>
        <time>2014-05-20T13:20:55Z</time>
      </trkpt>
      <trkpt lat="43.8295" lon="5.39313">
        <ele>469</ele>
        <time>2014-05-20T13:20:57Z</time>
      </trkpt>
      <trkpt lat="43.82951" lon="5.39314">
        <ele>469</ele>
        <time>2014-05-20T13:20:58Z</time>
      </trkpt>
      <trkpt lat="43.82953" lon="5.39316">
        <ele>469</ele>
        <time>2014-05-20T13:21:00Z</time>
      </trkpt>
      <trkpt lat="43.82984" lon="5.39425">
        <ele>472</ele>
        <time>2014-05-20T13:22:28Z</time>
      </trkpt>
      <trkpt lat="43.83003" lon="5.39426">
        <ele>464</ele>
        <time>2014-05-20T13:22:37Z</time>
      </trkpt>
      <trkpt lat="43.83011" lon="5.39425">
        <ele>465</ele>
        <time>2014-05-20T13:22:41Z</time>
      </trkpt>
      <trkpt lat="43.83014" lon="5.39424">
        <ele>466</ele>
        <time>2014-05-20T13:22:42Z</time>
      </trkpt>
      <trkpt lat="43.8302" lon="5.39423">
        <ele>467</ele>
        <time>2014-05-20T13:22:44Z</time>
      </trkpt>
      <trkpt lat="43.83022" lon="5.39424">
        <ele>467</ele>
        <time>2014-05-20T13:22:45Z</time>
      </trkpt>
      <trkpt lat="43.83025" lon="5.3943">
        <ele>468</ele>
        <time>2014-05-20T13:22:49Z</time>
      </trkpt>
      <trkpt lat="43.83027" lon="5.39431">
        <ele>469</ele>
        <time>2014-05-20T13:22:51Z</time>
      </trkpt>
      <trkpt lat="43.83027" lon="5.39431">
        <ele>469</ele>
        <time>2014-05-20T13:22:52Z</time>
      </trkpt>
      <trkpt lat="43.83029" lon="5.39433">
        <ele>469</ele>
        <time>2014-05-20T13:22:54Z</time>
      </trkpt>
      <trkpt lat="43.83033" lon="5.39441">
        <ele>470</ele>
        <time>2014-05-20T13:22:58Z</time>
      </trkpt>
      <trkpt lat="43.83038" lon="5.39445">
        <ele>470</ele>
        <time>2014-05-20T13:23:01Z</time>
      </trkpt>
      <trkpt lat="43.83039" lon="5.39449">
        <ele>471</ele>
        <time>2014-05-20T13:23:03Z</time>
      </trkpt>
      <trkpt lat="43.83039" lon="5.39454">
        <ele>471</ele>
        <time>2014-05-20T13:23:06Z</time>
      </trkpt>
      <trkpt lat="43.83189" lon="5.39747">
        <ele>475</ele>
        <time>2014-05-20T13:28:02Z</time>
      </trkpt>
      <trkpt lat="43.83195" lon="5.39749">
        <ele>474</ele>
        <time>2014-05-20T13:28:08Z</time>
      </trkpt>
      <trkpt lat="43.83196" lon="5.3975">
        <ele>474</ele>
        <time>2014-05-20T13:28:09Z</time>
      </trkpt>
      <trkpt lat="43.83196" lon="5.39751">
        <ele>476</ele>
        <time>2014-05-20T13:28:11Z</time>
      </trkpt>
      <trkpt lat="43.83196" lon="5.39753">
        <ele>476</ele>
        <time>2014-05-20T13:28:13Z</time>
      </trkpt>
      <trkpt lat="43.83195" lon="5.39758">
        <ele>477</ele>
        <time>2014-05-20T13:28:15Z</time>
      </trkpt>
      <trkpt lat="43.83191" lon="5.39765">
        <ele>477</ele>
        <time>2014-05-20T13:28:19Z</time>
      </trkpt>
      <trkpt lat="43.83192" lon="5.39768">
        <ele>477</ele>
        <time>2014-05-20T13:28:22Z</time>
      </trkpt>
      <trkpt lat="43.83193" lon="5.39769">
        <ele>477</ele>
        <time>2014-05-20T13:28:24Z</time>
      </trkpt>
      <trkpt lat="43.83194" lon="5.3977">
        <ele>477</ele>
        <time>2014-05-20T13:28:25Z</time>
      </trkpt>
      <trkpt lat="43.8325" lon="5.39895">
        <ele>479</ele>
        <time>2014-05-20T13:30:13Z</time>
      </trkpt>
      <trkpt lat="43.83251" lon="5.39897">
        <ele>479</ele>
        <time>2014-05-20T13:30:15Z</time>
      </trkpt>
      <trkpt lat="43.83252" lon="5.399">
        <ele>479</ele>
        <time>2014-05-20T13:30:17Z</time>
      </trkpt>
      <trkpt lat="43.83259" lon="5.39906">
        <ele>479</ele>
        <time>2014-05-20T13:30:25Z</time>
      </trkpt>
      <trkpt lat="43.83265" lon="5.39904">
        <ele>479</ele>
        <time>2014-05-20T13:30:34Z</time>
      </trkpt>
      <trkpt lat="43.83265" lon="5.39904">
        <ele>479</ele>
        <time>2014-05-20T13:30:35Z</time>
      </trkpt>
      <trkpt lat="43.83266" lon="5.39905">
        <ele>479</ele>
        <time>2014-05-20T13:30:38Z</time>
      </trkpt>
      <trkpt lat="43.83271" lon="5.39904">
        <ele>479</ele>
        <time>2014-05-20T13:31:02Z</time>
      </trkpt>
      <trkpt lat="43.83268" lon="5.39905">
        <ele>479</ele>
        <time>2014-05-20T13:31:07Z</time>
      </trkpt>
      <trkpt lat="43.83264" lon="5.39907">
        <ele>479</ele>
        <time>2014-05-20T13:31:16Z</time>
      </trkpt>
      <trkpt lat="43.83262" lon="5.39907">
        <ele>479</ele>
        <time>2014-05-20T13:31:20Z</time>
      </trkpt>
      <trkpt lat="43.83257" lon="5.3991">
        <ele>479</ele>
        <time>2014-05-20T13:31:36Z</time>
      </trkpt>
      <trkpt lat="43.83255" lon="5.39911">
        <ele>479</ele>
        <time>2014-05-20T13:31:40Z</time>
      </trkpt>
      <trkpt lat="43.83255" lon="5.39912">
        <ele>479</ele>
        <time>2014-05-20T13:31:41Z</time>
      </trkpt>
      <trkpt lat="43.83254" lon="5.39914">
        <ele>479</ele>
        <time>2014-05-20T13:31:51Z</time>
      </trkpt>
      <trkpt lat="43.83254" lon="5.39914">
        <ele>479</ele>
        <time>2014-05-20T13:31:54Z</time>
      </trkpt>
      <trkpt lat="43.83254" lon="5.39914">
        <ele>479</ele>
        <time>2014-05-20T13:32:10Z</time>
      </trkpt>
      <trkpt lat="43.83252" lon="5.39911">
        <ele>479</ele>
        <time>2014-05-20T13:32:17Z</time>
      </trkpt>
      <trkpt lat="43.83248" lon="5.39906">
        <ele>482</ele>
        <time>2014-05-20T13:32:25Z</time>
      </trkpt>
      <trkpt lat="43.83246" lon="5.39902">
        <ele>482</ele>
        <time>2014-05-20T13:32:30Z</time>
      </trkpt>
      <trkpt lat="43.83244" lon="5.399">
        <ele>483</ele>
        <time>2014-05-20T13:32:34Z</time>
      </trkpt>
      <trkpt lat="43.83244" lon="5.39899">
        <ele>483</ele>
        <time>2014-05-20T13:32:35Z</time>
      </trkpt>
      <trkpt lat="43.83241" lon="5.39896">
        <ele>483</ele>
        <time>2014-05-20T13:32:39Z</time>
      </trkpt>
      <trkpt lat="43.8324" lon="5.39893">
        <ele>484</ele>
        <time>2014-05-20T13:32:42Z</time>
      </trkpt>
      <trkpt lat="43.83239" lon="5.39889">
        <ele>484</ele>
        <time>2014-05-20T13:32:46Z</time>
      </trkpt>
      <trkpt lat="43.83237" lon="5.39888">
        <ele>484</ele>
        <time>2014-05-20T13:32:48Z</time>
      </trkpt>
      <trkpt lat="43.83236" lon="5.39885">
        <ele>484</ele>
        <time>2014-05-20T13:32:52Z</time>
      </trkpt>
      <trkpt lat="43.83233" lon="5.39883">
        <ele>484</ele>
        <time>2014-05-20T13:32:56Z</time>
      </trkpt>
      <trkpt lat="43.83232" lon="5.39881">
        <ele>484</ele>
        <time>2014-05-20T13:32:58Z</time>
      </trkpt>
      <trkpt lat="43.8323" lon="5.39878">
        <ele>484</ele>
        <time>2014-05-20T13:33:01Z</time>
      </trkpt>
      <trkpt lat="43.83228" lon="5.39872">
        <ele>484</ele>
        <time>2014-05-20T13:33:06Z</time>
      </trkpt>
      <trkpt lat="43.83227" lon="5.39863">
        <ele>483</ele>
        <time>2014-05-20T13:33:12Z</time>
      </trkpt>
      <trkpt lat="43.83227" lon="5.39859">
        <ele>483</ele>
        <time>2014-05-20T13:33:15Z</time>
      </trkpt>
      <trkpt lat="43.83225" lon="5.39853">
        <ele>483</ele>
        <time>2014-05-20T13:33:20Z</time>
      </trkpt>
      <trkpt lat="43.83222" lon="5.3985">
        <ele>483</ele>
        <time>2014-05-20T13:33:24Z</time>
      </trkpt>
      <trkpt lat="43.83221" lon="5.39849">
        <ele>483</ele>
        <time>2014-05-20T13:33:26Z</time>
      </trkpt>
      <trkpt lat="43.8322" lon="5.39847">
        <ele>483</ele>
        <time>2014-05-20T13:33:28Z</time>
      </trkpt>
      <trkpt lat="43.8322" lon="5.39844">
        <ele>483</ele>
        <time>2014-05-20T13:33:31Z</time>
      </trkpt>
      <trkpt lat="43.8322" lon="5.39843">
        <ele>483</ele>
        <time>2014-05-20T13:33:32Z</time>
      </trkpt>
      <trkpt lat="43.83218" lon="5.39841">
        <ele>483</ele>
        <time>2014-05-20T13:33:35Z</time>
      </trkpt>
      <trkpt lat="43.83217" lon="5.39837">
        <ele>483</ele>
        <time>2014-05-20T13:33:40Z</time>
      </trkpt>
      <trkpt lat="43.83215" lon="5.39835">
        <ele>483</ele>
        <time>2014-05-20T13:33:43Z</time>
      </trkpt>
      <trkpt lat="43.83213" lon="5.39834">
        <ele>484</ele>
        <time>2014-05-20T13:33:45Z</time>
      </trkpt>
      <trkpt lat="43.83211" lon="5.39831">
        <ele>478</ele>
        <time>2014-05-20T13:33:48Z</time>
      </trkpt>
      <trkpt lat="43.83208" lon="5.39829">
        <ele>478</ele>
        <time>2014-05-20T13:33:51Z</time>
      </trkpt>
      <trkpt lat="43.83205" lon="5.39826">
        <ele>479</ele>
        <time>2014-05-20T13:33:54Z</time>
      </trkpt>
      <trkpt lat="43.83202" lon="5.39824">
        <ele>479</ele>
        <time>2014-05-20T13:33:58Z</time>
      </trkpt>
      <trkpt lat="43.832" lon="5.39822">
        <ele>479</ele>
        <time>2014-05-20T13:34:00Z</time>
      </trkpt>
      <trkpt lat="43.83198" lon="5.39818">
        <ele>479</ele>
        <time>2014-05-20T13:34:03Z</time>
      </trkpt>
      <trkpt lat="43.83197" lon="5.39814">
        <ele>479</ele>
        <time>2014-05-20T13:34:06Z</time>
      </trkpt>
      <trkpt lat="43.83195" lon="5.39812">
        <ele>479</ele>
        <time>2014-05-20T13:34:08Z</time>
      </trkpt>
      <trkpt lat="43.83195" lon="5.3981">
        <ele>479</ele>
        <time>2014-05-20T13:34:10Z</time>
      </trkpt>
      <trkpt lat="43.83196" lon="5.39809">
        <ele>479</ele>
        <time>2014-05-20T13:34:11Z</time>
      </trkpt>
      <trkpt lat="43.83196" lon="5.39807">
        <ele>479</ele>
        <time>2014-05-20T13:34:13Z</time>
      </trkpt>
      <trkpt lat="43.83196" lon="5.39806">
        <ele>479</ele>
        <time>2014-05-20T13:34:15Z</time>
      </trkpt>
      <trkpt lat="43.83194" lon="5.39805">
        <ele>479</ele>
        <time>2014-05-20T13:34:21Z</time>
      </trkpt>
      <trkpt lat="43.83191" lon="5.39804">
        <ele>479</ele>
        <time>2014-05-20T13:34:27Z</time>
      </trkpt>
      <trkpt lat="43.83189" lon="5.39806">
        <ele>480</ele>
        <time>2014-05-20T13:34:36Z</time>
      </trkpt>
      <trkpt lat="43.83188" lon="5.39806">
        <ele>480</ele>
        <time>2014-05-20T13:34:46Z</time>
      </trkpt>
      <trkpt lat="43.8319" lon="5.39808">
        <ele>480</ele>
        <time>2014-05-20T13:35:04Z</time>
      </trkpt>
      <trkpt lat="43.83189" lon="5.39811">
        <ele>480</ele>
        <time>2014-05-20T13:35:09Z</time>
      </trkpt>
      <trkpt lat="43.83189" lon="5.39811">
        <ele>480</ele>
        <time>2014-05-20T13:35:10Z</time>
      </trkpt>
      <trkpt lat="43.83186" lon="5.3981">
        <ele>480</ele>
        <time>2014-05-20T13:35:15Z</time>
      </trkpt>
      <trkpt lat="43.83182" lon="5.39807">
        <ele>480</ele>
        <time>2014-05-20T13:35:20Z</time>
      </trkpt>
      <trkpt lat="43.83178" lon="5.39806">
        <ele>481</ele>
        <time>2014-05-20T13:35:25Z</time>
      </trkpt>
      <trkpt lat="43.83174" lon="5.39808">
        <ele>481</ele>
        <time>2014-05-20T13:35:29Z</time>
      </trkpt>
      <trkpt lat="43.83172" lon="5.39807">
        <ele>481</ele>
        <time>2014-05-20T13:35:31Z</time>
      </trkpt>
      <trkpt lat="43.83164" lon="5.39808">
        <ele>489</ele>
        <time>2014-05-20T13:35:39Z</time>
      </trkpt>
      <trkpt lat="43.83159" lon="5.3981">
        <ele>489</ele>
        <time>2014-05-20T13:35:44Z</time>
      </trkpt>
      <trkpt lat="43.83154" lon="5.39809">
        <ele>489</ele>
        <time>2014-05-20T13:35:48Z</time>
      </trkpt>
      <trkpt lat="43.83153" lon="5.39809">
        <ele>489</ele>
        <time>2014-05-20T13:35:49Z</time>
      </trkpt>
      <trkpt lat="43.83147" lon="5.39812">
        <ele>490</ele>
        <time>2014-05-20T13:35:55Z</time>
      </trkpt>
      <trkpt lat="43.83145" lon="5.39812">
        <ele>490</ele>
        <time>2014-05-20T13:35:57Z</time>
      </trkpt>
      <trkpt lat="43.83142" lon="5.39813">
        <ele>490</ele>
        <time>2014-05-20T13:36:00Z</time>
      </trkpt>
      <trkpt lat="43.83139" lon="5.39814">
        <ele>490</ele>
        <time>2014-05-20T13:36:02Z</time>
      </trkpt>
      <trkpt lat="43.83137" lon="5.39815">
        <ele>490</ele>
        <time>2014-05-20T13:36:05Z</time>
      </trkpt>
      <trkpt lat="43.83133" lon="5.39816">
        <ele>491</ele>
        <time>2014-05-20T13:36:09Z</time>
      </trkpt>
      <trkpt lat="43.83128" lon="5.39819">
        <ele>491</ele>
        <time>2014-05-20T13:36:14Z</time>
      </trkpt>
      <trkpt lat="43.83125" lon="5.39825">
        <ele>491</ele>
        <time>2014-05-20T13:36:19Z</time>
      </trkpt>
      <trkpt lat="43.83121" lon="5.39829">
        <ele>492</ele>
        <time>2014-05-20T13:36:24Z</time>
      </trkpt>
      <trkpt lat="43.83118" lon="5.39833">
        <ele>492</ele>
        <time>2014-05-20T13:36:28Z</time>
      </trkpt>
      <trkpt lat="43.83115" lon="5.39836">
        <ele>498</ele>
        <time>2014-05-20T13:36:31Z</time>
      </trkpt>
      <trkpt lat="43.83113" lon="5.3984">
        <ele>499</ele>
        <time>2014-05-20T13:36:35Z</time>
      </trkpt>
      <trkpt lat="43.83109" lon="5.39841">
        <ele>499</ele>
        <time>2014-05-20T13:36:38Z</time>
      </trkpt>
      <trkpt lat="43.83105" lon="5.39844">
        <ele>499</ele>
        <time>2014-05-20T13:36:42Z</time>
      </trkpt>
      <trkpt lat="43.83102" lon="5.39845">
        <ele>499</ele>
        <time>2014-05-20T13:36:44Z</time>
      </trkpt>
      <trkpt lat="43.83098" lon="5.39847">
        <ele>499</ele>
        <time>2014-05-20T13:36:49Z</time>
      </trkpt>
      <trkpt lat="43.83096" lon="5.39849">
        <ele>499</ele>
        <time>2014-05-20T13:36:52Z</time>
      </trkpt>
      <trkpt lat="43.83092" lon="5.3985">
        <ele>499</ele>
        <time>2014-05-20T13:36:57Z</time>
      </trkpt>
      <trkpt lat="43.83086" lon="5.39854">
        <ele>499</ele>
        <time>2014-05-20T13:37:03Z</time>
      </trkpt>
      <trkpt lat="43.83085" lon="5.39854">
        <ele>500</ele>
        <time>2014-05-20T13:37:04Z</time>
      </trkpt>
      <trkpt lat="43.83081" lon="5.39857">
        <ele>504</ele>
        <time>2014-05-20T13:37:08Z</time>
      </trkpt>
      <trkpt lat="43.83068" lon="5.39865">
        <ele>506</ele>
        <time>2014-05-20T13:37:20Z</time>
      </trkpt>
      <trkpt lat="43.83064" lon="5.39867">
        <ele>506</ele>
        <time>2014-05-20T13:37:24Z</time>
      </trkpt>
      <trkpt lat="43.8306" lon="5.39871">
        <ele>507</ele>
        <time>2014-05-20T13:37:31Z</time>
      </trkpt>
      <trkpt lat="43.83058" lon="5.39874">
        <ele>507</ele>
        <time>2014-05-20T13:37:34Z</time>
      </trkpt>
      <trkpt lat="43.83055" lon="5.39877">
        <ele>507</ele>
        <time>2014-05-20T13:37:38Z</time>
      </trkpt>
      <trkpt lat="43.83053" lon="5.39882">
        <ele>508</ele>
        <time>2014-05-20T13:37:42Z</time>
      </trkpt>
      <trkpt lat="43.83049" lon="5.39888">
        <ele>508</ele>
        <time>2014-05-20T13:37:48Z</time>
      </trkpt>
      <trkpt lat="43.83048" lon="5.3989">
        <ele>508</ele>
        <time>2014-05-20T13:37:50Z</time>
      </trkpt>
      <trkpt lat="43.83045" lon="5.39891">
        <ele>508</ele>
        <time>2014-05-20T13:37:52Z</time>
      </trkpt>
      <trkpt lat="43.83044" lon="5.39892">
        <ele>508</ele>
        <time>2014-05-20T13:37:53Z</time>
      </trkpt>
      <trkpt lat="43.83043" lon="5.39891">
        <ele>508</ele>
        <time>2014-05-20T13:37:54Z</time>
      </trkpt>
      <trkpt lat="43.83034" lon="5.39891">
        <ele>509</ele>
        <time>2014-05-20T13:38:00Z</time>
      </trkpt>
      <trkpt lat="43.83028" lon="5.39894">
        <ele>509</ele>
        <time>2014-05-20T13:38:05Z</time>
      </trkpt>
      <trkpt lat="43.83028" lon="5.39895">
        <ele>509</ele>
        <time>2014-05-20T13:38:06Z</time>
      </trkpt>
      <trkpt lat="43.83026" lon="5.39897">
        <ele>509</ele>
        <time>2014-05-20T13:38:08Z</time>
      </trkpt>
      <trkpt lat="43.83023" lon="5.399">
        <ele>509</ele>
        <time>2014-05-20T13:38:11Z</time>
      </trkpt>
      <trkpt lat="43.8302" lon="5.39902">
        <ele>509</ele>
        <time>2014-05-20T13:38:14Z</time>
      </trkpt>
      <trkpt lat="43.83016" lon="5.39905">
        <ele>510</ele>
        <time>2014-05-20T13:38:18Z</time>
      </trkpt>
      <trkpt lat="43.83012" lon="5.3991">
        <ele>510</ele>
        <time>2014-05-20T13:38:23Z</time>
      </trkpt>
      <trkpt lat="43.83008" lon="5.39913">
        <ele>510</ele>
        <time>2014-05-20T13:38:28Z</time>
      </trkpt>
      <trkpt lat="43.83007" lon="5.39915">
        <ele>510</ele>
        <time>2014-05-20T13:38:30Z</time>
      </trkpt>
      <trkpt lat="43.83006" lon="5.39918">
        <ele>513</ele>
        <time>2014-05-20T13:38:32Z</time>
      </trkpt>
      <trkpt lat="43.83001" lon="5.39922">
        <ele>513</ele>
        <time>2014-05-20T13:38:38Z</time>
      </trkpt>
      <trkpt lat="43.82997" lon="5.39927">
        <ele>515</ele>
        <time>2014-05-20T13:38:44Z</time>
      </trkpt>
      <trkpt lat="43.82995" lon="5.39929">
        <ele>516</ele>
        <time>2014-05-20T13:38:47Z</time>
      </trkpt>
      <trkpt lat="43.82994" lon="5.3993">
        <ele>516</ele>
        <time>2014-05-20T13:38:48Z</time>
      </trkpt>
      <trkpt lat="43.8298" lon="5.39943">
        <ele>519</ele>
        <time>2014-05-20T13:39:04Z</time>
      </trkpt>
      <trkpt lat="43.82977" lon="5.39945">
        <ele>520</ele>
        <time>2014-05-20T13:39:07Z</time>
      </trkpt>
      <trkpt lat="43.82975" lon="5.39947">
        <ele>520</ele>
        <time>2014-05-20T13:39:09Z</time>
      </trkpt>
      <trkpt lat="43.82971" lon="5.39951">
        <ele>521</ele>
        <time>2014-05-20T13:39:14Z</time>
      </trkpt>
      <trkpt lat="43.82968" lon="5.39956">
        <ele>521</ele>
        <time>2014-05-20T13:39:20Z</time>
      </trkpt>
      <trkpt lat="43.82968" lon="5.39958">
        <ele>521</ele>
        <time>2014-05-20T13:39:22Z</time>
      </trkpt>
      <trkpt lat="43.82967" lon="5.39962">
        <ele>521</ele>
        <time>2014-05-20T13:39:27Z</time>
      </trkpt>
      <trkpt lat="43.82963" lon="5.39966">
        <ele>522</ele>
        <time>2014-05-20T13:39:37Z</time>
      </trkpt>
      <trkpt lat="43.8296" lon="5.39966">
        <ele>522</ele>
        <time>2014-05-20T13:39:42Z</time>
      </trkpt>
      <trkpt lat="43.82959" lon="5.39969">
        <ele>522</ele>
        <time>2014-05-20T13:39:45Z</time>
      </trkpt>
      <trkpt lat="43.82958" lon="5.39974">
        <ele>522</ele>
        <time>2014-05-20T13:39:49Z</time>
      </trkpt>
      <trkpt lat="43.82956" lon="5.39976">
        <ele>522</ele>
        <time>2014-05-20T13:39:52Z</time>
      </trkpt>
      <trkpt lat="43.82955" lon="5.39977">
        <ele>522</ele>
        <time>2014-05-20T13:39:53Z</time>
      </trkpt>
      <trkpt lat="43.82952" lon="5.39981">
        <ele>522</ele>
        <time>2014-05-20T13:39:57Z</time>
      </trkpt>
      <trkpt lat="43.82951" lon="5.39986">
        <ele>522</ele>
        <time>2014-05-20T13:40:00Z</time>
      </trkpt>
      <trkpt lat="43.82951" lon="5.39991">
        <ele>522</ele>
        <time>2014-05-20T13:40:04Z</time>
      </trkpt>
      <trkpt lat="43.82948" lon="5.40006">
        <ele>528</ele>
        <time>2014-05-20T13:40:15Z</time>
      </trkpt>
      <trkpt lat="43.82946" lon="5.4001">
        <ele>528</ele>
        <time>2014-05-20T13:40:18Z</time>
      </trkpt>
      <trkpt lat="43.82944" lon="5.40011">
        <ele>528</ele>
        <time>2014-05-20T13:40:21Z</time>
      </trkpt>
      <trkpt lat="43.82943" lon="5.40014">
        <ele>528</ele>
        <time>2014-05-20T13:40:25Z</time>
      </trkpt>
      <trkpt lat="43.82943" lon="5.40015">
        <ele>528</ele>
        <time>2014-05-20T13:40:28Z</time>
      </trkpt>
      <trkpt lat="43.82942" lon="5.40015">
        <ele>528</ele>
        <time>2014-05-20T13:40:30Z</time>
      </trkpt>
      <trkpt lat="43.82941" lon="5.40016">
        <ele>528</ele>
        <time>2014-05-20T13:40:32Z</time>
      </trkpt>
      <trkpt lat="43.82941" lon="5.40017">
        <ele>528</ele>
        <time>2014-05-20T13:40:34Z</time>
      </trkpt>
      <trkpt lat="43.82942" lon="5.40018">
        <ele>529</ele>
        <time>2014-05-20T13:40:37Z</time>
      </trkpt>
      <trkpt lat="43.82945" lon="5.40023">
        <ele>529</ele>
        <time>2014-05-20T13:40:51Z</time>
      </trkpt>
      <trkpt lat="43.82946" lon="5.40024">
        <ele>530</ele>
        <time>2014-05-20T13:40:54Z</time>
      </trkpt>
      <trkpt lat="43.82946" lon="5.40023">
        <ele>529</ele>
        <time>2014-05-20T13:40:57Z</time>
      </trkpt>
      <trkpt lat="43.82945" lon="5.40026">
        <ele>530</ele>
        <time>2014-05-20T13:41:04Z</time>
      </trkpt>
      <trkpt lat="43.82941" lon="5.40027">
        <ele>529</ele>
        <time>2014-05-20T13:41:08Z</time>
      </trkpt>
      <trkpt lat="43.82939" lon="5.40028">
        <ele>529</ele>
        <time>2014-05-20T13:41:10Z</time>
      </trkpt>
      <trkpt lat="43.82939" lon="5.40028">
        <ele>529</ele>
        <time>2014-05-20T13:41:11Z</time>
      </trkpt>
      <trkpt lat="43.82938" lon="5.40032">
        <ele>530</ele>
        <time>2014-05-20T13:41:14Z</time>
      </trkpt>
      <trkpt lat="43.82937" lon="5.40035">
        <ele>530</ele>
        <time>2014-05-20T13:41:17Z</time>
      </trkpt>
      <trkpt lat="43.82936" lon="5.4004">
        <ele>530</ele>
        <time>2014-05-20T13:41:21Z</time>
      </trkpt>
      <trkpt lat="43.82933" lon="5.40043">
        <ele>531</ele>
        <time>2014-05-20T13:41:26Z</time>
      </trkpt>
      <trkpt lat="43.82932" lon="5.40046">
        <ele>531</ele>
        <time>2014-05-20T13:41:29Z</time>
      </trkpt>
      <trkpt lat="43.82929" lon="5.40061">
        <ele>532</ele>
        <time>2014-05-20T13:41:41Z</time>
      </trkpt>
      <trkpt lat="43.82926" lon="5.40065">
        <ele>532</ele>
        <time>2014-05-20T13:41:45Z</time>
      </trkpt>
      <trkpt lat="43.82926" lon="5.4007">
        <ele>532</ele>
        <time>2014-05-20T13:41:49Z</time>
      </trkpt>
      <trkpt lat="43.82924" lon="5.40072">
        <ele>532</ele>
        <time>2014-05-20T13:41:52Z</time>
      </trkpt>
      <trkpt lat="43.82924" lon="5.40077">
        <ele>532</ele>
        <time>2014-05-20T13:41:55Z</time>
      </trkpt>
      <trkpt lat="43.82925" lon="5.40079">
        <ele>532</ele>
        <time>2014-05-20T13:41:57Z</time>
      </trkpt>
      <trkpt lat="43.82926" lon="5.4008">
        <ele>532</ele>
        <time>2014-05-20T13:41:58Z</time>
      </trkpt>
      <trkpt lat="43.82926" lon="5.40084">
        <ele>536</ele>
        <time>2014-05-20T13:42:01Z</time>
      </trkpt>
      <trkpt lat="43.82926" lon="5.40085">
        <ele>536</ele>
        <time>2014-05-20T13:42:02Z</time>
      </trkpt>
      <trkpt lat="43.82925" lon="5.40088">
        <ele>536</ele>
        <time>2014-05-20T13:42:06Z</time>
      </trkpt>
      <trkpt lat="43.82922" lon="5.40091">
        <ele>536</ele>
        <time>2014-05-20T13:42:11Z</time>
      </trkpt>
      <trkpt lat="43.82923" lon="5.40098">
        <ele>538</ele>
        <time>2014-05-20T13:42:16Z</time>
      </trkpt>
      <trkpt lat="43.82922" lon="5.40105">
        <ele>540</ele>
        <time>2014-05-20T13:42:21Z</time>
      </trkpt>
      <trkpt lat="43.8292" lon="5.40108">
        <ele>540</ele>
        <time>2014-05-20T13:42:25Z</time>
      </trkpt>
      <trkpt lat="43.82919" lon="5.4011">
        <ele>540</ele>
        <time>2014-05-20T13:42:28Z</time>
      </trkpt>
      <trkpt lat="43.82918" lon="5.4011">
        <ele>541</ele>
        <time>2014-05-20T13:42:29Z</time>
      </trkpt>
      <trkpt lat="43.82915" lon="5.40111">
        <ele>536</ele>
        <time>2014-05-20T13:42:31Z</time>
      </trkpt>
      <trkpt lat="43.82912" lon="5.40114">
        <ele>536</ele>
        <time>2014-05-20T13:42:34Z</time>
      </trkpt>
      <trkpt lat="43.82911" lon="5.40117">
        <ele>536</ele>
        <time>2014-05-20T13:42:36Z</time>
      </trkpt>
      <trkpt lat="43.8291" lon="5.40123">
        <ele>537</ele>
        <time>2014-05-20T13:42:39Z</time>
      </trkpt>
      <trkpt lat="43.82909" lon="5.40125">
        <ele>537</ele>
        <time>2014-05-20T13:42:41Z</time>
      </trkpt>
      <trkpt lat="43.82909" lon="5.40126">
        <ele>537</ele>
        <time>2014-05-20T13:42:42Z</time>
      </trkpt>
      <trkpt lat="43.82908" lon="5.40132">
        <ele>538</ele>
        <time>2014-05-20T13:42:46Z</time>
      </trkpt>
      <trkpt lat="43.82907" lon="5.40134">
        <ele>538</ele>
        <time>2014-05-20T13:42:48Z</time>
      </trkpt>
      <trkpt lat="43.82904" lon="5.40138">
        <ele>538</ele>
        <time>2014-05-20T13:42:53Z</time>
      </trkpt>
      <trkpt lat="43.82903" lon="5.40141">
        <ele>538</ele>
        <time>2014-05-20T13:42:56Z</time>
      </trkpt>
      <trkpt lat="43.82903" lon="5.40142">
        <ele>538</ele>
        <time>2014-05-20T13:42:57Z</time>
      </trkpt>
      <trkpt lat="43.82903" lon="5.40144">
        <ele>539</ele>
        <time>2014-05-20T13:43:00Z</time>
      </trkpt>
      <trkpt lat="43.82903" lon="5.40147">
        <ele>539</ele>
        <time>2014-05-20T13:43:02Z</time>
      </trkpt>
      <trkpt lat="43.82902" lon="5.40147">
        <ele>539</ele>
        <time>2014-05-20T13:43:03Z</time>
      </trkpt>
      <trkpt lat="43.829" lon="5.40149">
        <ele>539</ele>
        <time>2014-05-20T13:43:05Z</time>
      </trkpt>
      <trkpt lat="43.829" lon="5.4015">
        <ele>539</ele>
        <time>2014-05-20T13:43:06Z</time>
      </trkpt>
      <trkpt lat="43.82897" lon="5.40155">
        <ele>539</ele>
        <time>2014-05-20T13:43:10Z</time>
      </trkpt>
      <trkpt lat="43.82895" lon="5.40159">
        <ele>539</ele>
        <time>2014-05-20T13:43:14Z</time>
      </trkpt>
      <trkpt lat="43.82892" lon="5.40163">
        <ele>539</ele>
        <time>2014-05-20T13:43:19Z</time>
      </trkpt>
      <trkpt lat="43.82891" lon="5.40167">
        <ele>539</ele>
        <time>2014-05-20T13:43:22Z</time>
      </trkpt>
      <trkpt lat="43.82891" lon="5.40172">
        <ele>545</ele>
        <time>2014-05-20T13:43:26Z</time>
      </trkpt>
      <trkpt lat="43.8289" lon="5.40176">
        <ele>545</ele>
        <time>2014-05-20T13:43:32Z</time>
      </trkpt>
      <trkpt lat="43.82889" lon="5.40179">
        <ele>546</ele>
        <time>2014-05-20T13:43:35Z</time>
      </trkpt>
      <trkpt lat="43.82885" lon="5.40182">
        <ele>546</ele>
        <time>2014-05-20T13:43:39Z</time>
      </trkpt>
      <trkpt lat="43.82883" lon="5.40185">
        <ele>546</ele>
        <time>2014-05-20T13:43:42Z</time>
      </trkpt>
      <trkpt lat="43.82879" lon="5.40187">
        <ele>546</ele>
        <time>2014-05-20T13:43:46Z</time>
      </trkpt>
      <trkpt lat="43.82878" lon="5.40188">
        <ele>546</ele>
        <time>2014-05-20T13:43:48Z</time>
      </trkpt>
      <trkpt lat="43.82875" lon="5.4019">
        <ele>546</ele>
        <time>2014-05-20T13:43:51Z</time>
      </trkpt>
      <trkpt lat="43.82872" lon="5.40193">
        <ele>546</ele>
        <time>2014-05-20T13:43:54Z</time>
      </trkpt>
      <trkpt lat="43.82868" lon="5.40195">
        <ele>546</ele>
        <time>2014-05-20T13:43:57Z</time>
      </trkpt>
      <trkpt lat="43.82861" lon="5.40199">
        <ele>545</ele>
        <time>2014-05-20T13:44:03Z</time>
      </trkpt>
      <trkpt lat="43.8286" lon="5.402">
        <ele>546</ele>
        <time>2014-05-20T13:44:04Z</time>
      </trkpt>
      <trkpt lat="43.8286" lon="5.40203">
        <ele>546</ele>
        <time>2014-05-20T13:44:06Z</time>
      </trkpt>
      <trkpt lat="43.82859" lon="5.40204">
        <ele>546</ele>
        <time>2014-05-20T13:44:08Z</time>
      </trkpt>
      <trkpt lat="43.82858" lon="5.40205">
        <ele>546</ele>
        <time>2014-05-20T13:44:10Z</time>
      </trkpt>
      <trkpt lat="43.8285" lon="5.40214">
        <ele>547</ele>
        <time>2014-05-20T13:44:22Z</time>
      </trkpt>
      <trkpt lat="43.82849" lon="5.40218">
        <ele>547</ele>
        <time>2014-05-20T13:44:25Z</time>
      </trkpt>
      <trkpt lat="43.82848" lon="5.40229">
        <ele>548</ele>
        <time>2014-05-20T13:44:33Z</time>
      </trkpt>
      <trkpt lat="43.82848" lon="5.40234">
        <ele>548</ele>
        <time>2014-05-20T13:44:36Z</time>
      </trkpt>
      <trkpt lat="43.82849" lon="5.40239">
        <ele>549</ele>
        <time>2014-05-20T13:44:39Z</time>
      </trkpt>
      <trkpt lat="43.82848" lon="5.40242">
        <ele>549</ele>
        <time>2014-05-20T13:44:41Z</time>
      </trkpt>
      <trkpt lat="43.82847" lon="5.40244">
        <ele>549</ele>
        <time>2014-05-20T13:44:43Z</time>
      </trkpt>
      <trkpt lat="43.82846" lon="5.40246">
        <ele>549</ele>
        <time>2014-05-20T13:44:45Z</time>
      </trkpt>
      <trkpt lat="43.82846" lon="5.40253">
        <ele>555</ele>
        <time>2014-05-20T13:44:50Z</time>
      </trkpt>
      <trkpt lat="43.82847" lon="5.40256">
        <ele>555</ele>
        <time>2014-05-20T13:44:52Z</time>
      </trkpt>
      <trkpt lat="43.82848" lon="5.40256">
        <ele>556</ele>
        <time>2014-05-20T13:44:53Z</time>
      </trkpt>
      <trkpt lat="43.82848" lon="5.40258">
        <ele>556</ele>
        <time>2014-05-20T13:44:55Z</time>
      </trkpt>
      <trkpt lat="43.82847" lon="5.40268">
        <ele>557</ele>
        <time>2014-05-20T13:45:03Z</time>
      </trkpt>
      <trkpt lat="43.82848" lon="5.40273">
        <ele>558</ele>
        <time>2014-05-20T13:45:07Z</time>
      </trkpt>
      <trkpt lat="43.82847" lon="5.40276">
        <ele>559</ele>
        <time>2014-05-20T13:45:10Z</time>
      </trkpt>
      <trkpt lat="43.82846" lon="5.40277">
        <ele>559</ele>
        <time>2014-05-20T13:45:11Z</time>
      </trkpt>
      <trkpt lat="43.82846" lon="5.40278">
        <ele>559</ele>
        <time>2014-05-20T13:45:12Z</time>
      </trkpt>
      <trkpt lat="43.82846" lon="5.40284">
        <ele>560</ele>
        <time>2014-05-20T13:45:19Z</time>
      </trkpt>
      <trkpt lat="43.82846" lon="5.40287">
        <ele>560</ele>
        <time>2014-05-20T13:45:24Z</time>
      </trkpt>
      <trkpt lat="43.82846" lon="5.40288">
        <ele>560</ele>
        <time>2014-05-20T13:45:27Z</time>
      </trkpt>
      <trkpt lat="43.82846" lon="5.40289">
        <ele>561</ele>
        <time>2014-05-20T13:45:30Z</time>
      </trkpt>
      <trkpt lat="43.82844" lon="5.40289">
        <ele>560</ele>
        <time>2014-05-20T13:45:37Z</time>
      </trkpt>
      <trkpt lat="43.82845" lon="5.40288">
        <ele>560</ele>
        <time>2014-05-20T13:45:39Z</time>
      </trkpt>
      <trkpt lat="43.82844" lon="5.40287">
        <ele>560</ele>
        <time>2014-05-20T13:45:45Z</time>
      </trkpt>
      <trkpt lat="43.82844" lon="5.40286">
        <ele>560</ele>
        <time>2014-05-20T13:45:48Z</time>
      </trkpt>
      <trkpt lat="43.82843" lon="5.40285">
        <ele>560</ele>
        <time>2014-05-20T13:45:55Z</time>
      </trkpt>
      <trkpt lat="43.82843" lon="5.40286">
        <ele>560</ele>
        <time>2014-05-20T13:46:00Z</time>
      </trkpt>
      <trkpt lat="43.82841" lon="5.40285">
        <ele>560</ele>
        <time>2014-05-20T13:46:04Z</time>
      </trkpt>
      <trkpt lat="43.8284" lon="5.40285">
        <ele>560</ele>
        <time>2014-05-20T13:46:05Z</time>
      </trkpt>
      <trkpt lat="43.82841" lon="5.40288">
        <ele>560</ele>
        <time>2014-05-20T13:46:09Z</time>
      </trkpt>
      <trkpt lat="43.82841" lon="5.40289">
        <ele>560</ele>
        <time>2014-05-20T13:46:10Z</time>
      </trkpt>
      <trkpt lat="43.8284" lon="5.40288">
        <ele>560</ele>
        <time>2014-05-20T13:46:11Z</time>
      </trkpt>
      <trkpt lat="43.8284" lon="5.40289">
        <ele>560</ele>
        <time>2014-05-20T13:46:13Z</time>
      </trkpt>
      <trkpt lat="43.82839" lon="5.4029">
        <ele>560</ele>
        <time>2014-05-20T13:46:15Z</time>
      </trkpt>
      <trkpt lat="43.8284" lon="5.40289">
        <ele>560</ele>
        <time>2014-05-20T13:46:22Z</time>
      </trkpt>
      <trkpt lat="43.82843" lon="5.40288">
        <ele>560</ele>
        <time>2014-05-20T13:46:27Z</time>
      </trkpt>
      <trkpt lat="43.82844" lon="5.40289">
        <ele>561</ele>
        <time>2014-05-20T13:46:31Z</time>
      </trkpt>
      <trkpt lat="43.82845" lon="5.40291">
        <ele>561</ele>
        <time>2014-05-20T13:46:34Z</time>
      </trkpt>
      <trkpt lat="43.82842" lon="5.40294">
        <ele>561</ele>
        <time>2014-05-20T13:46:42Z</time>
      </trkpt>
      <trkpt lat="43.82841" lon="5.40297">
        <ele>562</ele>
        <time>2014-05-20T13:46:45Z</time>
      </trkpt>
      <trkpt lat="43.82838" lon="5.403">
        <ele>562</ele>
        <time>2014-05-20T13:46:51Z</time>
      </trkpt>
      <trkpt lat="43.82837" lon="5.40302">
        <ele>562</ele>
        <time>2014-05-20T13:46:54Z</time>
      </trkpt>
      <trkpt lat="43.82836" lon="5.40305">
        <ele>563</ele>
        <time>2014-05-20T13:46:58Z</time>
      </trkpt>
      <trkpt lat="43.82836" lon="5.40306">
        <ele>563</ele>
        <time>2014-05-20T13:47:01Z</time>
      </trkpt>
      <trkpt lat="43.82837" lon="5.40304">
        <ele>563</ele>
        <time>2014-05-20T13:47:06Z</time>
      </trkpt>
      <trkpt lat="43.82838" lon="5.40304">
        <ele>563</ele>
        <time>2014-05-20T13:47:08Z</time>
      </trkpt>
      <trkpt lat="43.82839" lon="5.40305">
        <ele>563</ele>
        <time>2014-05-20T13:47:10Z</time>
      </trkpt>
      <trkpt lat="43.82839" lon="5.40305">
        <ele>563</ele>
        <time>2014-05-20T13:47:11Z</time>
      </trkpt>
      <trkpt lat="43.82836" lon="5.40306">
        <ele>563</ele>
        <time>2014-05-20T13:47:15Z</time>
      </trkpt>
      <trkpt lat="43.82835" lon="5.40307">
        <ele>563</ele>
        <time>2014-05-20T13:47:17Z</time>
      </trkpt>
      <trkpt lat="43.82836" lon="5.40308">
        <ele>563</ele>
        <time>2014-05-20T13:47:20Z</time>
      </trkpt>
      <trkpt lat="43.82835" lon="5.40313">
        <ele>564</ele>
        <time>2014-05-20T13:47:24Z</time>
      </trkpt>
      <trkpt lat="43.82835" lon="5.40315">
        <ele>564</ele>
        <time>2014-05-20T13:47:27Z</time>
      </trkpt>
      <trkpt lat="43.82835" lon="5.40315">
        <ele>564</ele>
        <time>2014-05-20T13:47:29Z</time>
      </trkpt>
      <trkpt lat="43.82836" lon="5.40316">
        <ele>564</ele>
        <time>2014-05-20T13:47:32Z</time>
      </trkpt>
      <trkpt lat="43.82835" lon="5.40318">
        <ele>565</ele>
        <time>2014-05-20T13:47:36Z</time>
      </trkpt>
      <trkpt lat="43.82834" lon="5.4032">
        <ele>565</ele>
        <time>2014-05-20T13:47:39Z</time>
      </trkpt>
      <trkpt lat="43.82832" lon="5.4032">
        <ele>562</ele>
        <time>2014-05-20T13:47:41Z</time>
      </trkpt>
      <trkpt lat="43.82833" lon="5.40321">
        <ele>563</ele>
        <time>2014-05-20T13:47:46Z</time>
      </trkpt>
      <trkpt lat="43.82834" lon="5.40323">
        <ele>566</ele>
        <time>2014-05-20T13:47:48Z</time>
      </trkpt>
      <trkpt lat="43.82835" lon="5.40323">
        <ele>566</ele>
        <time>2014-05-20T13:47:50Z</time>
      </trkpt>
      <trkpt lat="43.82833" lon="5.40323">
        <ele>563</ele>
        <time>2014-05-20T13:47:53Z</time>
      </trkpt>
      <trkpt lat="43.8283" lon="5.40324">
        <ele>563</ele>
        <time>2014-05-20T13:47:55Z</time>
      </trkpt>
      <trkpt lat="43.82832" lon="5.40326">
        <ele>564</ele>
        <time>2014-05-20T13:47:58Z</time>
      </trkpt>
      <trkpt lat="43.82804" lon="5.4034">
        <ele>566</ele>
        <time>2014-05-20T13:48:42Z</time>
      </trkpt>
      <trkpt lat="43.82801" lon="5.40342">
        <ele>566</ele>
        <time>2014-05-20T13:48:46Z</time>
      </trkpt>
      <trkpt lat="43.82797" lon="5.40346">
        <ele>566</ele>
        <time>2014-05-20T13:48:51Z</time>
      </trkpt>
      <trkpt lat="43.82794" lon="5.40351">
        <ele>566</ele>
        <time>2014-05-20T13:48:55Z</time>
      </trkpt>
      <trkpt lat="43.82792" lon="5.40353">
        <ele>566</ele>
        <time>2014-05-20T13:48:58Z</time>
      </trkpt>
      <trkpt lat="43.8279" lon="5.4036">
        <ele>566</ele>
        <time>2014-05-20T13:49:04Z</time>
      </trkpt>
      <trkpt lat="43.8279" lon="5.40366">
        <ele>566</ele>
        <time>2014-05-20T13:49:09Z</time>
      </trkpt>
      <trkpt lat="43.8279" lon="5.40371">
        <ele>567</ele>
        <time>2014-05-20T13:49:13Z</time>
      </trkpt>
      <trkpt lat="43.8279" lon="5.40374">
        <ele>567</ele>
        <time>2014-05-20T13:49:15Z</time>
      </trkpt>
      <trkpt lat="43.8279" lon="5.40376">
        <ele>567</ele>
        <time>2014-05-20T13:49:17Z</time>
      </trkpt>
      <trkpt lat="43.82792" lon="5.40379">
        <ele>568</ele>
        <time>2014-05-20T13:49:21Z</time>
      </trkpt>
      <trkpt lat="43.82792" lon="5.40381">
        <ele>568</ele>
        <time>2014-05-20T13:49:23Z</time>
      </trkpt>
      <trkpt lat="43.8279" lon="5.40381">
        <ele>568</ele>
        <time>2014-05-20T13:49:26Z</time>
      </trkpt>
      <trkpt lat="43.82789" lon="5.4038">
        <ele>567</ele>
        <time>2014-05-20T13:49:29Z</time>
      </trkpt>
      <trkpt lat="43.82787" lon="5.40379">
        <ele>567</ele>
        <time>2014-05-20T13:49:31Z</time>
      </trkpt>
      <trkpt lat="43.82787" lon="5.4038">
        <ele>567</ele>
        <time>2014-05-20T13:49:32Z</time>
      </trkpt>
      <trkpt lat="43.82787" lon="5.40383">
        <ele>568</ele>
        <time>2014-05-20T13:49:34Z</time>
      </trkpt>
      <trkpt lat="43.82786" lon="5.40386">
        <ele>568</ele>
        <time>2014-05-20T13:49:37Z</time>
      </trkpt>
      <trkpt lat="43.82783" lon="5.40383">
        <ele>567</ele>
        <time>2014-05-20T13:49:44Z</time>
      </trkpt>
      <trkpt lat="43.82782" lon="5.40381">
        <ele>567</ele>
        <time>2014-05-20T13:49:46Z</time>
      </trkpt>
      <trkpt lat="43.82782" lon="5.40379">
        <ele>567</ele>
        <time>2014-05-20T13:49:50Z</time>
      </trkpt>
      <trkpt lat="43.82781" lon="5.40378">
        <ele>567</ele>
        <time>2014-05-20T13:49:53Z</time>
      </trkpt>
      <trkpt lat="43.82779" lon="5.40378">
        <ele>567</ele>
        <time>2014-05-20T13:50:01Z</time>
      </trkpt>
      <trkpt lat="43.82779" lon="5.40379">
        <ele>567</ele>
        <time>2014-05-20T13:50:03Z</time>
      </trkpt>
      <trkpt lat="43.82778" lon="5.40378">
        <ele>567</ele>
        <time>2014-05-20T13:50:04Z</time>
      </trkpt>
      <trkpt lat="43.82777" lon="5.40379">
        <ele>567</ele>
        <time>2014-05-20T13:50:05Z</time>
      </trkpt>
      <trkpt lat="43.82776" lon="5.4038">
        <ele>567</ele>
        <time>2014-05-20T13:50:09Z</time>
      </trkpt>
      <trkpt lat="43.82776" lon="5.40381">
        <ele>567</ele>
        <time>2014-05-20T13:50:11Z</time>
      </trkpt>
      <trkpt lat="43.82779" lon="5.40381">
        <ele>567</ele>
        <time>2014-05-20T13:50:17Z</time>
      </trkpt>
      <trkpt lat="43.82779" lon="5.40381">
        <ele>567</ele>
        <time>2014-05-20T13:50:19Z</time>
      </trkpt>
      <trkpt lat="43.82781" lon="5.40383">
        <ele>567</ele>
        <time>2014-05-20T13:50:25Z</time>
      </trkpt>
      <trkpt lat="43.82781" lon="5.40382">
        <ele>567</ele>
        <time>2014-05-20T13:50:32Z</time>
      </trkpt>
      <trkpt lat="43.8278" lon="5.40382">
        <ele>567</ele>
        <time>2014-05-20T13:50:33Z</time>
      </trkpt>
      <trkpt lat="43.82781" lon="5.40383">
        <ele>567</ele>
        <time>2014-05-20T13:50:36Z</time>
      </trkpt>
      <trkpt lat="43.82781" lon="5.40384">
        <ele>567</ele>
        <time>2014-05-20T13:50:39Z</time>
      </trkpt>
      <trkpt lat="43.82779" lon="5.40381">
        <ele>567</ele>
        <time>2014-05-20T13:50:50Z</time>
      </trkpt>
      <trkpt lat="43.82777" lon="5.40381">
        <ele>567</ele>
        <time>2014-05-20T13:50:52Z</time>
      </trkpt>
      <trkpt lat="43.82777" lon="5.4038">
        <ele>567</ele>
        <time>2014-05-20T13:50:55Z</time>
      </trkpt>
      <trkpt lat="43.82778" lon="5.40379">
        <ele>567</ele>
        <time>2014-05-20T13:50:58Z</time>
      </trkpt>
      <trkpt lat="43.8278" lon="5.4038">
        <ele>567</ele>
        <time>2014-05-20T13:51:02Z</time>
      </trkpt>
      <trkpt lat="43.82785" lon="5.40381">
        <ele>567</ele>
        <time>2014-05-20T13:51:07Z</time>
      </trkpt>
      <trkpt lat="43.82786" lon="5.40382">
        <ele>567</ele>
        <time>2014-05-20T13:51:09Z</time>
      </trkpt>
      <trkpt lat="43.82789" lon="5.40381">
        <ele>568</ele>
        <time>2014-05-20T13:51:12Z</time>
      </trkpt>
      <trkpt lat="43.8279" lon="5.40381">
        <ele>568</ele>
        <time>2014-05-20T13:51:13Z</time>
      </trkpt>
      <trkpt lat="43.82791" lon="5.40383">
        <ele>568</ele>
        <time>2014-05-20T13:51:15Z</time>
      </trkpt>
      <trkpt lat="43.82792" lon="5.40384">
        <ele>568</ele>
        <time>2014-05-20T13:51:16Z</time>
      </trkpt>
      <trkpt lat="43.82793" lon="5.40387">
        <ele>568</ele>
        <time>2014-05-20T13:51:19Z</time>
      </trkpt>
      <trkpt lat="43.82794" lon="5.40388">
        <ele>568</ele>
        <time>2014-05-20T13:51:22Z</time>
      </trkpt>
      <trkpt lat="43.82794" lon="5.40388">
        <ele>568</ele>
        <time>2014-05-20T13:51:24Z</time>
      </trkpt>
      <trkpt lat="43.82795" lon="5.40389">
        <ele>568</ele>
        <time>2014-05-20T13:51:27Z</time>
      </trkpt>
      <trkpt lat="43.82796" lon="5.40391">
        <ele>569</ele>
        <time>2014-05-20T13:51:31Z</time>
      </trkpt>
      <trkpt lat="43.82797" lon="5.40391">
        <ele>569</ele>
        <time>2014-05-20T13:51:35Z</time>
      </trkpt>
      <trkpt lat="43.82799" lon="5.40393">
        <ele>569</ele>
        <time>2014-05-20T13:51:40Z</time>
      </trkpt>
      <trkpt lat="43.82801" lon="5.40393">
        <ele>569</ele>
        <time>2014-05-20T13:51:48Z</time>
      </trkpt>
      <trkpt lat="43.82801" lon="5.40391">
        <ele>569</ele>
        <time>2014-05-20T13:51:57Z</time>
      </trkpt>
      <trkpt lat="43.82802" lon="5.40393">
        <ele>569</ele>
        <time>2014-05-20T13:52:05Z</time>
      </trkpt>
      <trkpt lat="43.82803" lon="5.40395">
        <ele>569</ele>
        <time>2014-05-20T13:52:11Z</time>
      </trkpt>
      <trkpt lat="43.82803" lon="5.40394">
        <ele>569</ele>
        <time>2014-05-20T13:52:12Z</time>
      </trkpt>
      <trkpt lat="43.82802" lon="5.40392">
        <ele>569</ele>
        <time>2014-05-20T13:52:16Z</time>
      </trkpt>
      <trkpt lat="43.828" lon="5.40391">
        <ele>569</ele>
        <time>2014-05-20T13:52:18Z</time>
      </trkpt>
      <trkpt lat="43.82795" lon="5.40392">
        <ele>569</ele>
        <time>2014-05-20T13:52:24Z</time>
      </trkpt>
      <trkpt lat="43.82794" lon="5.40392">
        <ele>569</ele>
        <time>2014-05-20T13:52:25Z</time>
      </trkpt>
      <trkpt lat="43.82793" lon="5.40392">
        <ele>568</ele>
        <time>2014-05-20T13:52:28Z</time>
      </trkpt>
      <trkpt lat="43.82794" lon="5.40391">
        <ele>568</ele>
        <time>2014-05-20T13:52:30Z</time>
      </trkpt>
      <trkpt lat="43.82793" lon="5.40392">
        <ele>568</ele>
        <time>2014-05-20T13:52:32Z</time>
      </trkpt>
      <trkpt lat="43.82794" lon="5.4039">
        <ele>568</ele>
        <time>2014-05-20T13:52:40Z</time>
      </trkpt>
      <trkpt lat="43.82797" lon="5.40391">
        <ele>569</ele>
        <time>2014-05-20T13:52:45Z</time>
      </trkpt>
      <trkpt lat="43.82798" lon="5.40393">
        <ele>569</ele>
        <time>2014-05-20T13:52:52Z</time>
      </trkpt>
      <trkpt lat="43.82799" lon="5.40393">
        <ele>569</ele>
        <time>2014-05-20T13:52:57Z</time>
      </trkpt>
      <trkpt lat="43.82799" lon="5.40392">
        <ele>569</ele>
        <time>2014-05-20T13:53:00Z</time>
      </trkpt>
      <trkpt lat="43.828" lon="5.40395">
        <ele>569</ele>
        <time>2014-05-20T13:53:06Z</time>
      </trkpt>
      <trkpt lat="43.828" lon="5.40394">
        <ele>569</ele>
        <time>2014-05-20T13:53:10Z</time>
      </trkpt>
      <trkpt lat="43.82801" lon="5.40394">
        <ele>569</ele>
        <time>2014-05-20T13:53:13Z</time>
      </trkpt>
      <trkpt lat="43.82802" lon="5.40394">
        <ele>569</ele>
        <time>2014-05-20T13:53:14Z</time>
      </trkpt>
      <trkpt lat="43.82801" lon="5.40392">
        <ele>569</ele>
        <time>2014-05-20T13:53:23Z</time>
      </trkpt>
      <trkpt lat="43.82802" lon="5.40394">
        <ele>569</ele>
        <time>2014-05-20T13:53:29Z</time>
      </trkpt>
      <trkpt lat="43.82803" lon="5.40396">
        <ele>569</ele>
        <time>2014-05-20T13:53:37Z</time>
      </trkpt>
      <trkpt lat="43.82804" lon="5.40397">
        <ele>569</ele>
        <time>2014-05-20T13:53:40Z</time>
      </trkpt>
      <trkpt lat="43.82804" lon="5.40397">
        <ele>569</ele>
        <time>2014-05-20T13:53:42Z</time>
      </trkpt>
      <trkpt lat="43.82803" lon="5.40398">
        <ele>569</ele>
        <time>2014-05-20T13:53:50Z</time>
      </trkpt>
      <trkpt lat="43.82804" lon="5.40399">
        <ele>570</ele>
        <time>2014-05-20T13:53:52Z</time>
      </trkpt>
      <trkpt lat="43.82805" lon="5.40399">
        <ele>570</ele>
        <time>2014-05-20T13:53:56Z</time>
      </trkpt>
      <trkpt lat="43.82804" lon="5.40398">
        <ele>570</ele>
        <time>2014-05-20T13:53:58Z</time>
      </trkpt>
      <trkpt lat="43.82805" lon="5.40398">
        <ele>570</ele>
        <time>2014-05-20T13:54:04Z</time>
      </trkpt>
      <trkpt lat="43.82806" lon="5.404">
        <ele>570</ele>
        <time>2014-05-20T13:54:07Z</time>
      </trkpt>
      <trkpt lat="43.82806" lon="5.40398">
        <ele>570</ele>
        <time>2014-05-20T13:54:10Z</time>
      </trkpt>
      <trkpt lat="43.82806" lon="5.40395">
        <ele>569</ele>
        <time>2014-05-20T13:54:12Z</time>
      </trkpt>
      <trkpt lat="43.82805" lon="5.40393">
        <ele>569</ele>
        <time>2014-05-20T13:54:14Z</time>
      </trkpt>
      <trkpt lat="43.82802" lon="5.40391">
        <ele>569</ele>
        <time>2014-05-20T13:54:18Z</time>
      </trkpt>
      <trkpt lat="43.828" lon="5.4039">
        <ele>569</ele>
        <time>2014-05-20T13:54:20Z</time>
      </trkpt>
      <trkpt lat="43.82797" lon="5.4039">
        <ele>569</ele>
        <time>2014-05-20T13:54:25Z</time>
      </trkpt>
      <trkpt lat="43.82795" lon="5.40389">
        <ele>568</ele>
        <time>2014-05-20T13:54:29Z</time>
      </trkpt>
      <trkpt lat="43.8279" lon="5.4039">
        <ele>568</ele>
        <time>2014-05-20T13:54:36Z</time>
      </trkpt>
      <trkpt lat="43.82788" lon="5.40392">
        <ele>568</ele>
        <time>2014-05-20T13:54:46Z</time>
      </trkpt>
      <trkpt lat="43.82786" lon="5.40391">
        <ele>568</ele>
        <time>2014-05-20T13:54:52Z</time>
      </trkpt>
      <trkpt lat="43.82787" lon="5.40391">
        <ele>568</ele>
        <time>2014-05-20T13:54:59Z</time>
      </trkpt>
      <trkpt lat="43.82785" lon="5.40393">
        <ele>568</ele>
        <time>2014-05-20T13:55:07Z</time>
      </trkpt>
      <trkpt lat="43.82784" lon="5.40393">
        <ele>568</ele>
        <time>2014-05-20T13:55:09Z</time>
      </trkpt>
      <trkpt lat="43.82784" lon="5.40392">
        <ele>568</ele>
        <time>2014-05-20T13:55:10Z</time>
      </trkpt>
      <trkpt lat="43.82783" lon="5.40391">
        <ele>568</ele>
        <time>2014-05-20T13:55:11Z</time>
      </trkpt>
      <trkpt lat="43.82782" lon="5.40391">
        <ele>568</ele>
        <time>2014-05-20T13:55:18Z</time>
      </trkpt>
      <trkpt lat="43.82779" lon="5.4039">
        <ele>568</ele>
        <time>2014-05-20T13:55:25Z</time>
      </trkpt>
      <trkpt lat="43.82776" lon="5.40386">
        <ele>567</ele>
        <time>2014-05-20T13:55:33Z</time>
      </trkpt>
      <trkpt lat="43.82777" lon="5.40385">
        <ele>567</ele>
        <time>2014-05-20T13:55:38Z</time>
      </trkpt>
      <trkpt lat="43.82783" lon="5.40387">
        <ele>568</ele>
        <time>2014-05-20T13:55:51Z</time>
      </trkpt>
      <trkpt lat="43.82785" lon="5.40388">
        <ele>568</ele>
        <time>2014-05-20T13:55:54Z</time>
      </trkpt>
      <trkpt lat="43.82787" lon="5.40388">
        <ele>568</ele>
        <time>2014-05-20T13:55:56Z</time>
      </trkpt>
      <trkpt lat="43.82789" lon="5.40391">
        <ele>568</ele>
        <time>2014-05-20T13:55:59Z</time>
      </trkpt>
      <trkpt lat="43.82791" lon="5.40392">
        <ele>568</ele>
        <time>2014-05-20T13:56:01Z</time>
      </trkpt>
      <trkpt lat="43.82791" lon="5.40392">
        <ele>568</ele>
        <time>2014-05-20T13:56:02Z</time>
      </trkpt>
      <trkpt lat="43.82788" lon="5.4039">
        <ele>568</ele>
        <time>2014-05-20T13:56:16Z</time>
      </trkpt>
      <trkpt lat="43.82784" lon="5.40389">
        <ele>568</ele>
        <time>2014-05-20T13:56:27Z</time>
      </trkpt>
      <trkpt lat="43.82783" lon="5.40387">
        <ele>568</ele>
        <time>2014-05-20T13:56:30Z</time>
      </trkpt>
      <trkpt lat="43.82782" lon="5.40387">
        <ele>568</ele>
        <time>2014-05-20T13:56:35Z</time>
      </trkpt>
      <trkpt lat="43.82783" lon="5.40389">
        <ele>568</ele>
        <time>2014-05-20T13:56:44Z</time>
      </trkpt>
      <trkpt lat="43.82781" lon="5.4039">
        <ele>568</ele>
        <time>2014-05-20T13:56:50Z</time>
      </trkpt>
      <trkpt lat="43.8278" lon="5.40389">
        <ele>568</ele>
        <time>2014-05-20T13:56:54Z</time>
      </trkpt>
      <trkpt lat="43.8278" lon="5.40391">
        <ele>568</ele>
        <time>2014-05-20T13:56:56Z</time>
      </trkpt>
      <trkpt lat="43.82778" lon="5.4039">
        <ele>568</ele>
        <time>2014-05-20T13:57:04Z</time>
      </trkpt>
      <trkpt lat="43.82778" lon="5.40389">
        <ele>568</ele>
        <time>2014-05-20T13:57:07Z</time>
      </trkpt>
      <trkpt lat="43.82781" lon="5.4039">
        <ele>568</ele>
        <time>2014-05-20T13:57:13Z</time>
      </trkpt>
      <trkpt lat="43.82782" lon="5.40392">
        <ele>568</ele>
        <time>2014-05-20T13:57:16Z</time>
      </trkpt>
      <trkpt lat="43.82784" lon="5.40391">
        <ele>568</ele>
        <time>2014-05-20T13:57:30Z</time>
      </trkpt>
      <trkpt lat="43.82784" lon="5.40391">
        <ele>568</ele>
        <time>2014-05-20T13:57:31Z</time>
      </trkpt>
      <trkpt lat="43.82781" lon="5.40391">
        <ele>568</ele>
        <time>2014-05-20T13:57:35Z</time>
      </trkpt>
      <trkpt lat="43.8278" lon="5.40392">
        <ele>568</ele>
        <time>2014-05-20T13:57:37Z</time>
      </trkpt>
      <trkpt lat="43.8278" lon="5.40392">
        <ele>568</ele>
        <time>2014-05-20T13:57:40Z</time>
      </trkpt>
      <trkpt lat="43.82779" lon="5.40391">
        <ele>568</ele>
        <time>2014-05-20T13:57:42Z</time>
      </trkpt>
      <trkpt lat="43.8278" lon="5.40392">
        <ele>568</ele>
        <time>2014-05-20T13:57:46Z</time>
      </trkpt>
      <trkpt lat="43.8278" lon="5.40391">
        <ele>568</ele>
        <time>2014-05-20T13:57:48Z</time>
      </trkpt>
      <trkpt lat="43.82779" lon="5.40392">
        <ele>568</ele>
        <time>2014-05-20T13:57:52Z</time>
      </trkpt>
      <trkpt lat="43.82777" lon="5.40395">
        <ele>568</ele>
        <time>2014-05-20T13:57:55Z</time>
      </trkpt>
      <trkpt lat="43.82774" lon="5.40397">
        <ele>568</ele>
        <time>2014-05-20T13:57:59Z</time>
      </trkpt>
      <trkpt lat="43.8277" lon="5.40404">
        <ele>568</ele>
        <time>2014-05-20T13:58:06Z</time>
      </trkpt>
      <trkpt lat="43.82769" lon="5.40408">
        <ele>569</ele>
        <time>2014-05-20T13:58:09Z</time>
      </trkpt>
      <trkpt lat="43.82767" lon="5.40412">
        <ele>569</ele>
        <time>2014-05-20T13:58:13Z</time>
      </trkpt>
      <trkpt lat="43.8276" lon="5.40421">
        <ele>572</ele>
        <time>2014-05-20T13:58:22Z</time>
      </trkpt>
      <trkpt lat="43.82758" lon="5.40423">
        <ele>572</ele>
        <time>2014-05-20T13:58:24Z</time>
      </trkpt>
      <trkpt lat="43.82753" lon="5.40429">
        <ele>573</ele>
        <time>2014-05-20T13:58:31Z</time>
      </trkpt>
      <trkpt lat="43.82748" lon="5.40436">
        <ele>572</ele>
        <time>2014-05-20T13:58:39Z</time>
      </trkpt>
      <trkpt lat="43.82745" lon="5.40438">
        <ele>572</ele>
        <time>2014-05-20T13:58:43Z</time>
      </trkpt>
      <trkpt lat="43.82743" lon="5.40439">
        <ele>572</ele>
        <time>2014-05-20T13:58:45Z</time>
      </trkpt>
      <trkpt lat="43.8274" lon="5.4044">
        <ele>572</ele>
        <time>2014-05-20T13:58:49Z</time>
      </trkpt>
      <trkpt lat="43.8274" lon="5.4044">
        <ele>572</ele>
        <time>2014-05-20T13:58:50Z</time>
      </trkpt>
      <trkpt lat="43.82728" lon="5.40449">
        <ele>572</ele>
        <time>2014-05-20T13:59:04Z</time>
      </trkpt>
      <trkpt lat="43.82725" lon="5.40452">
        <ele>573</ele>
        <time>2014-05-20T13:59:07Z</time>
      </trkpt>
      <trkpt lat="43.82722" lon="5.40455">
        <ele>573</ele>
        <time>2014-05-20T13:59:10Z</time>
      </trkpt>
      <trkpt lat="43.82721" lon="5.40456">
        <ele>573</ele>
        <time>2014-05-20T13:59:12Z</time>
      </trkpt>
      <trkpt lat="43.8272" lon="5.4046">
        <ele>573</ele>
        <time>2014-05-20T13:59:15Z</time>
      </trkpt>
      <trkpt lat="43.82717" lon="5.40462">
        <ele>573</ele>
        <time>2014-05-20T13:59:18Z</time>
      </trkpt>
      <trkpt lat="43.82715" lon="5.40466">
        <ele>573</ele>
        <time>2014-05-20T13:59:21Z</time>
      </trkpt>
      <trkpt lat="43.82714" lon="5.40467">
        <ele>573</ele>
        <time>2014-05-20T13:59:22Z</time>
      </trkpt>
      <trkpt lat="43.82712" lon="5.4047">
        <ele>573</ele>
        <time>2014-05-20T13:59:25Z</time>
      </trkpt>
      <trkpt lat="43.82709" lon="5.40471">
        <ele>573</ele>
        <time>2014-05-20T13:59:27Z</time>
      </trkpt>
      <trkpt lat="43.82705" lon="5.40477">
        <ele>574</ele>
        <time>2014-05-20T13:59:33Z</time>
      </trkpt>
      <trkpt lat="43.82703" lon="5.40479">
        <ele>574</ele>
        <time>2014-05-20T13:59:35Z</time>
      </trkpt>
      <trkpt lat="43.82696" lon="5.40486">
        <ele>574</ele>
        <time>2014-05-20T13:59:43Z</time>
      </trkpt>
      <trkpt lat="43.82693" lon="5.40489">
        <ele>574</ele>
        <time>2014-05-20T13:59:47Z</time>
      </trkpt>
      <trkpt lat="43.82689" lon="5.40493">
        <ele>574</ele>
        <time>2014-05-20T13:59:51Z</time>
      </trkpt>
      <trkpt lat="43.82688" lon="5.40493">
        <ele>574</ele>
        <time>2014-05-20T13:59:52Z</time>
      </trkpt>
      <trkpt lat="43.82687" lon="5.40495">
        <ele>574</ele>
        <time>2014-05-20T13:59:54Z</time>
      </trkpt>
      <trkpt lat="43.82683" lon="5.40498">
        <ele>575</ele>
        <time>2014-05-20T13:59:58Z</time>
      </trkpt>
      <trkpt lat="43.82676" lon="5.40505">
        <ele>579</ele>
        <time>2014-05-20T14:00:06Z</time>
      </trkpt>
      <trkpt lat="43.82673" lon="5.40508">
        <ele>578</ele>
        <time>2014-05-20T14:00:09Z</time>
      </trkpt>
      <trkpt lat="43.8267" lon="5.40513">
        <ele>579</ele>
        <time>2014-05-20T14:00:13Z</time>
      </trkpt>
      <trkpt lat="43.82665" lon="5.40516">
        <ele>579</ele>
        <time>2014-05-20T14:00:18Z</time>
      </trkpt>
      <trkpt lat="43.82659" lon="5.40523">
        <ele>581</ele>
        <time>2014-05-20T14:00:26Z</time>
      </trkpt>
      <trkpt lat="43.82656" lon="5.40524">
        <ele>581</ele>
        <time>2014-05-20T14:00:29Z</time>
      </trkpt>
      <trkpt lat="43.82656" lon="5.40524">
        <ele>581</ele>
        <time>2014-05-20T14:00:30Z</time>
      </trkpt>
      <trkpt lat="43.82654" lon="5.40526">
        <ele>581</ele>
        <time>2014-05-20T14:00:32Z</time>
      </trkpt>
      <trkpt lat="43.82654" lon="5.40528">
        <ele>581</ele>
        <time>2014-05-20T14:00:33Z</time>
      </trkpt>
      <trkpt lat="43.82654" lon="5.40532">
        <ele>582</ele>
        <time>2014-05-20T14:00:36Z</time>
      </trkpt>
      <trkpt lat="43.8265" lon="5.40546">
        <ele>583</ele>
        <time>2014-05-20T14:00:47Z</time>
      </trkpt>
      <trkpt lat="43.82648" lon="5.40551">
        <ele>583</ele>
        <time>2014-05-20T14:00:51Z</time>
      </trkpt>
      <trkpt lat="43.82647" lon="5.40554">
        <ele>584</ele>
        <time>2014-05-20T14:00:53Z</time>
      </trkpt>
      <trkpt lat="43.82645" lon="5.40557">
        <ele>584</ele>
        <time>2014-05-20T14:00:56Z</time>
      </trkpt>
      <trkpt lat="43.82643" lon="5.40559">
        <ele>584</ele>
        <time>2014-05-20T14:00:58Z</time>
      </trkpt>
      <trkpt lat="43.82642" lon="5.40562">
        <ele>584</ele>
        <time>2014-05-20T14:01:00Z</time>
      </trkpt>
      <trkpt lat="43.82639" lon="5.40565">
        <ele>584</ele>
        <time>2014-05-20T14:01:04Z</time>
      </trkpt>
      <trkpt lat="43.82636" lon="5.40574">
        <ele>585</ele>
        <time>2014-05-20T14:01:10Z</time>
      </trkpt>
      <trkpt lat="43.82633" lon="5.40581">
        <ele>585</ele>
        <time>2014-05-20T14:01:15Z</time>
      </trkpt>
      <trkpt lat="43.82629" lon="5.40595">
        <ele>590</ele>
        <time>2014-05-20T14:01:24Z</time>
      </trkpt>
      <trkpt lat="43.8263" lon="5.406">
        <ele>590</ele>
        <time>2014-05-20T14:01:27Z</time>
      </trkpt>
      <trkpt lat="43.82633" lon="5.40606">
        <ele>590</ele>
        <time>2014-05-20T14:01:31Z</time>
      </trkpt>
      <trkpt lat="43.82633" lon="5.4061">
        <ele>590</ele>
        <time>2014-05-20T14:01:34Z</time>
      </trkpt>
      <trkpt lat="43.8263" lon="5.40617">
        <ele>590</ele>
        <time>2014-05-20T14:01:40Z</time>
      </trkpt>
      <trkpt lat="43.82629" lon="5.40625">
        <ele>591</ele>
        <time>2014-05-20T14:01:45Z</time>
      </trkpt>
      <trkpt lat="43.82629" lon="5.4063">
        <ele>591</ele>
        <time>2014-05-20T14:01:49Z</time>
      </trkpt>
      <trkpt lat="43.82628" lon="5.40635">
        <ele>591</ele>
        <time>2014-05-20T14:01:52Z</time>
      </trkpt>
      <trkpt lat="43.82626" lon="5.40636">
        <ele>591</ele>
        <time>2014-05-20T14:01:54Z</time>
      </trkpt>
      <trkpt lat="43.82625" lon="5.4064">
        <ele>591</ele>
        <time>2014-05-20T14:01:57Z</time>
      </trkpt>
      <trkpt lat="43.82625" lon="5.40645">
        <ele>591</ele>
        <time>2014-05-20T14:02:01Z</time>
      </trkpt>
      <trkpt lat="43.82624" lon="5.40653">
        <ele>592</ele>
        <time>2014-05-20T14:02:06Z</time>
      </trkpt>
      <trkpt lat="43.82623" lon="5.40656">
        <ele>592</ele>
        <time>2014-05-20T14:02:08Z</time>
      </trkpt>
      <trkpt lat="43.82622" lon="5.40658">
        <ele>592</ele>
        <time>2014-05-20T14:02:10Z</time>
      </trkpt>
      <trkpt lat="43.82621" lon="5.40661">
        <ele>592</ele>
        <time>2014-05-20T14:02:12Z</time>
      </trkpt>
      <trkpt lat="43.82621" lon="5.40664">
        <ele>592</ele>
        <time>2014-05-20T14:02:14Z</time>
      </trkpt>
      <trkpt lat="43.82621" lon="5.40674">
        <ele>596</ele>
        <time>2014-05-20T14:02:20Z</time>
      </trkpt>
      <trkpt lat="43.82619" lon="5.4068">
        <ele>596</ele>
        <time>2014-05-20T14:02:25Z</time>
      </trkpt>
      <trkpt lat="43.82618" lon="5.40686">
        <ele>597</ele>
        <time>2014-05-20T14:02:29Z</time>
      </trkpt>
      <trkpt lat="43.82618" lon="5.40687">
        <ele>597</ele>
        <time>2014-05-20T14:02:30Z</time>
      </trkpt>
      <trkpt lat="43.82618" lon="5.4069">
        <ele>597</ele>
        <time>2014-05-20T14:02:32Z</time>
      </trkpt>
      <trkpt lat="43.82619" lon="5.40694">
        <ele>597</ele>
        <time>2014-05-20T14:02:35Z</time>
      </trkpt>
      <trkpt lat="43.82618" lon="5.40697">
        <ele>597</ele>
        <time>2014-05-20T14:02:37Z</time>
      </trkpt>
      <trkpt lat="43.82619" lon="5.407">
        <ele>597</ele>
        <time>2014-05-20T14:02:39Z</time>
      </trkpt>
      <trkpt lat="43.82618" lon="5.40707">
        <ele>598</ele>
        <time>2014-05-20T14:02:44Z</time>
      </trkpt>
      <trkpt lat="43.8262" lon="5.40713">
        <ele>598</ele>
        <time>2014-05-20T14:02:48Z</time>
      </trkpt>
      <trkpt lat="43.82619" lon="5.40717">
        <ele>598</ele>
        <time>2014-05-20T14:02:51Z</time>
      </trkpt>
      <trkpt lat="43.82619" lon="5.40721">
        <ele>598</ele>
        <time>2014-05-20T14:02:54Z</time>
      </trkpt>
      <trkpt lat="43.82618" lon="5.40724">
        <ele>598</ele>
        <time>2014-05-20T14:02:57Z</time>
      </trkpt>
      <trkpt lat="43.82617" lon="5.4073">
        <ele>599</ele>
        <time>2014-05-20T14:03:01Z</time>
      </trkpt>
      <trkpt lat="43.82616" lon="5.40732">
        <ele>599</ele>
        <time>2014-05-20T14:03:03Z</time>
      </trkpt>
      <trkpt lat="43.82617" lon="5.40739">
        <ele>599</ele>
        <time>2014-05-20T14:03:08Z</time>
      </trkpt>
      <trkpt lat="43.82618" lon="5.40753">
        <ele>603</ele>
        <time>2014-05-20T14:03:18Z</time>
      </trkpt>
      <trkpt lat="43.82617" lon="5.40756">
        <ele>603</ele>
        <time>2014-05-20T14:03:27Z</time>
      </trkpt>
      <trkpt lat="43.82617" lon="5.40762">
        <ele>603</ele>
        <time>2014-05-20T14:03:31Z</time>
      </trkpt>
      <trkpt lat="43.82618" lon="5.40764">
        <ele>603</ele>
        <time>2014-05-20T14:03:33Z</time>
      </trkpt>
      <trkpt lat="43.82618" lon="5.40765">
        <ele>603</ele>
        <time>2014-05-20T14:03:34Z</time>
      </trkpt>
      <trkpt lat="43.82618" lon="5.40772">
        <ele>603</ele>
        <time>2014-05-20T14:03:40Z</time>
      </trkpt>
      <trkpt lat="43.8262" lon="5.40777">
        <ele>604</ele>
        <time>2014-05-20T14:03:45Z</time>
      </trkpt>
      <trkpt lat="43.82619" lon="5.40779">
        <ele>604</ele>
        <time>2014-05-20T14:03:47Z</time>
      </trkpt>
      <trkpt lat="43.82621" lon="5.40784">
        <ele>604</ele>
        <time>2014-05-20T14:03:51Z</time>
      </trkpt>
      <trkpt lat="43.82621" lon="5.40789">
        <ele>604</ele>
        <time>2014-05-20T14:03:54Z</time>
      </trkpt>
      <trkpt lat="43.82621" lon="5.40798">
        <ele>604</ele>
        <time>2014-05-20T14:04:00Z</time>
      </trkpt>
      <trkpt lat="43.82621" lon="5.40799">
        <ele>604</ele>
        <time>2014-05-20T14:04:01Z</time>
      </trkpt>
      <trkpt lat="43.82621" lon="5.40806">
        <ele>604</ele>
        <time>2014-05-20T14:04:06Z</time>
      </trkpt>
      <trkpt lat="43.8262" lon="5.4081">
        <ele>605</ele>
        <time>2014-05-20T14:04:08Z</time>
      </trkpt>
      <trkpt lat="43.82622" lon="5.40818">
        <ele>605</ele>
        <time>2014-05-20T14:04:14Z</time>
      </trkpt>
      <trkpt lat="43.82622" lon="5.40824">
        <ele>605</ele>
        <time>2014-05-20T14:04:18Z</time>
      </trkpt>
      <trkpt lat="43.82623" lon="5.4083">
        <ele>605</ele>
        <time>2014-05-20T14:04:22Z</time>
      </trkpt>
      <trkpt lat="43.82622" lon="5.40833">
        <ele>605</ele>
        <time>2014-05-20T14:04:24Z</time>
      </trkpt>
      <trkpt lat="43.82622" lon="5.40837">
        <ele>609</ele>
        <time>2014-05-20T14:04:27Z</time>
      </trkpt>
      <trkpt lat="43.82623" lon="5.40841">
        <ele>609</ele>
        <time>2014-05-20T14:04:29Z</time>
      </trkpt>
      <trkpt lat="43.82624" lon="5.40846">
        <ele>609</ele>
        <time>2014-05-20T14:04:32Z</time>
      </trkpt>
      <trkpt lat="43.82624" lon="5.40862">
        <ele>609</ele>
        <time>2014-05-20T14:04:42Z</time>
      </trkpt>
      <trkpt lat="43.82623" lon="5.40866">
        <ele>610</ele>
        <time>2014-05-20T14:04:45Z</time>
      </trkpt>
      <trkpt lat="43.82623" lon="5.40869">
        <ele>610</ele>
        <time>2014-05-20T14:04:47Z</time>
      </trkpt>
      <trkpt lat="43.82622" lon="5.40875">
        <ele>610</ele>
        <time>2014-05-20T14:04:52Z</time>
      </trkpt>
      <trkpt lat="43.8262" lon="5.40885">
        <ele>610</ele>
        <time>2014-05-20T14:04:59Z</time>
      </trkpt>
      <trkpt lat="43.8262" lon="5.40892">
        <ele>611</ele>
        <time>2014-05-20T14:05:04Z</time>
      </trkpt>
      <trkpt lat="43.8262" lon="5.40898">
        <ele>611</ele>
        <time>2014-05-20T14:05:08Z</time>
      </trkpt>
      <trkpt lat="43.82618" lon="5.40906">
        <ele>611</ele>
        <time>2014-05-20T14:05:13Z</time>
      </trkpt>
      <trkpt lat="43.82618" lon="5.40912">
        <ele>611</ele>
        <time>2014-05-20T14:05:17Z</time>
      </trkpt>
      <trkpt lat="43.82618" lon="5.40916">
        <ele>612</ele>
        <time>2014-05-20T14:05:20Z</time>
      </trkpt>
      <trkpt lat="43.82614" lon="5.40927">
        <ele>615</ele>
        <time>2014-05-20T14:05:27Z</time>
      </trkpt>
      <trkpt lat="43.82611" lon="5.40941">
        <ele>616</ele>
        <time>2014-05-20T14:05:37Z</time>
      </trkpt>
      <trkpt lat="43.82608" lon="5.40948">
        <ele>616</ele>
        <time>2014-05-20T14:05:42Z</time>
      </trkpt>
      <trkpt lat="43.82604" lon="5.40958">
        <ele>616</ele>
        <time>2014-05-20T14:05:49Z</time>
      </trkpt>
      <trkpt lat="43.82601" lon="5.40964">
        <ele>617</ele>
        <time>2014-05-20T14:05:53Z</time>
      </trkpt>
      <trkpt lat="43.82601" lon="5.40968">
        <ele>617</ele>
        <time>2014-05-20T14:05:56Z</time>
      </trkpt>
      <trkpt lat="43.82595" lon="5.40984">
        <ele>618</ele>
        <time>2014-05-20T14:06:08Z</time>
      </trkpt>
      <trkpt lat="43.82592" lon="5.40988">
        <ele>619</ele>
        <time>2014-05-20T14:06:11Z</time>
      </trkpt>
      <trkpt lat="43.82588" lon="5.40998">
        <ele>620</ele>
        <time>2014-05-20T14:06:19Z</time>
      </trkpt>
      <trkpt lat="43.8258" lon="5.41009">
        <ele>623</ele>
        <time>2014-05-20T14:06:29Z</time>
      </trkpt>
      <trkpt lat="43.82575" lon="5.41013">
        <ele>624</ele>
        <time>2014-05-20T14:06:34Z</time>
      </trkpt>
      <trkpt lat="43.82571" lon="5.41015">
        <ele>624</ele>
        <time>2014-05-20T14:06:37Z</time>
      </trkpt>
      <trkpt lat="43.82566" lon="5.41018">
        <ele>625</ele>
        <time>2014-05-20T14:06:42Z</time>
      </trkpt>
      <trkpt lat="43.8256" lon="5.4102">
        <ele>625</ele>
        <time>2014-05-20T14:06:47Z</time>
      </trkpt>
      <trkpt lat="43.82554" lon="5.41022">
        <ele>626</ele>
        <time>2014-05-20T14:06:52Z</time>
      </trkpt>
      <trkpt lat="43.82551" lon="5.41023">
        <ele>626</ele>
        <time>2014-05-20T14:06:55Z</time>
      </trkpt>
      <trkpt lat="43.82544" lon="5.41023">
        <ele>627</ele>
        <time>2014-05-20T14:07:00Z</time>
      </trkpt>
      <trkpt lat="43.82541" lon="5.41024">
        <ele>627</ele>
        <time>2014-05-20T14:07:03Z</time>
      </trkpt>
      <trkpt lat="43.82534" lon="5.41026">
        <ele>627</ele>
        <time>2014-05-20T14:07:08Z</time>
      </trkpt>
      <trkpt lat="43.82531" lon="5.41028">
        <ele>627</ele>
        <time>2014-05-20T14:07:11Z</time>
      </trkpt>
      <trkpt lat="43.82525" lon="5.41029">
        <ele>628</ele>
        <time>2014-05-20T14:07:17Z</time>
      </trkpt>
      <trkpt lat="43.82519" lon="5.41034">
        <ele>628</ele>
        <time>2014-05-20T14:07:25Z</time>
      </trkpt>
      <trkpt lat="43.82517" lon="5.41036">
        <ele>628</ele>
        <time>2014-05-20T14:07:28Z</time>
      </trkpt>
      <trkpt lat="43.82513" lon="5.41039">
        <ele>628</ele>
        <time>2014-05-20T14:07:32Z</time>
      </trkpt>
      <trkpt lat="43.82509" lon="5.41043">
        <ele>629</ele>
        <time>2014-05-20T14:07:37Z</time>
      </trkpt>
      <trkpt lat="43.82507" lon="5.41049">
        <ele>629</ele>
        <time>2014-05-20T14:07:42Z</time>
      </trkpt>
      <trkpt lat="43.82504" lon="5.41056">
        <ele>630</ele>
        <time>2014-05-20T14:07:48Z</time>
      </trkpt>
      <trkpt lat="43.82497" lon="5.41064">
        <ele>636</ele>
        <time>2014-05-20T14:07:56Z</time>
      </trkpt>
      <trkpt lat="43.82495" lon="5.41065">
        <ele>636</ele>
        <time>2014-05-20T14:07:58Z</time>
      </trkpt>
      <trkpt lat="43.82495" lon="5.41066">
        <ele>636</ele>
        <time>2014-05-20T14:07:59Z</time>
      </trkpt>
      <trkpt lat="43.82495" lon="5.41066">
        <ele>636</ele>
        <time>2014-05-20T14:08:00Z</time>
      </trkpt>
      <trkpt lat="43.82492" lon="5.41069">
        <ele>636</ele>
        <time>2014-05-20T14:08:06Z</time>
      </trkpt>
      <trkpt lat="43.82492" lon="5.41071">
        <ele>636</ele>
        <time>2014-05-20T14:08:07Z</time>
      </trkpt>
      <trkpt lat="43.8249" lon="5.41072">
        <ele>636</ele>
        <time>2014-05-20T14:08:09Z</time>
      </trkpt>
      <trkpt lat="43.82487" lon="5.41076">
        <ele>636</ele>
        <time>2014-05-20T14:08:13Z</time>
      </trkpt>
      <trkpt lat="43.82486" lon="5.41077">
        <ele>636</ele>
        <time>2014-05-20T14:08:14Z</time>
      </trkpt>
      <trkpt lat="43.82485" lon="5.41079">
        <ele>636</ele>
        <time>2014-05-20T14:08:16Z</time>
      </trkpt>
      <trkpt lat="43.82483" lon="5.4108">
        <ele>637</ele>
        <time>2014-05-20T14:08:18Z</time>
      </trkpt>
      <trkpt lat="43.82483" lon="5.41083">
        <ele>637</ele>
        <time>2014-05-20T14:08:20Z</time>
      </trkpt>
      <trkpt lat="43.82483" lon="5.41085">
        <ele>638</ele>
        <time>2014-05-20T14:08:22Z</time>
      </trkpt>
      <trkpt lat="43.8248" lon="5.41086">
        <ele>639</ele>
        <time>2014-05-20T14:08:24Z</time>
      </trkpt>
      <trkpt lat="43.82479" lon="5.41087">
        <ele>639</ele>
        <time>2014-05-20T14:08:25Z</time>
      </trkpt>
      <trkpt lat="43.82478" lon="5.41094">
        <ele>639</ele>
        <time>2014-05-20T14:08:30Z</time>
      </trkpt>
      <trkpt lat="43.82473" lon="5.41099">
        <ele>640</ele>
        <time>2014-05-20T14:08:35Z</time>
      </trkpt>
      <trkpt lat="43.82471" lon="5.41102">
        <ele>641</ele>
        <time>2014-05-20T14:08:38Z</time>
      </trkpt>
      <trkpt lat="43.82468" lon="5.41104">
        <ele>641</ele>
        <time>2014-05-20T14:08:41Z</time>
      </trkpt>
      <trkpt lat="43.82465" lon="5.41105">
        <ele>641</ele>
        <time>2014-05-20T14:08:43Z</time>
      </trkpt>
      <trkpt lat="43.82462" lon="5.41108">
        <ele>642</ele>
        <time>2014-05-20T14:08:46Z</time>
      </trkpt>
      <trkpt lat="43.82459" lon="5.41112">
        <ele>642</ele>
        <time>2014-05-20T14:08:50Z</time>
      </trkpt>
      <trkpt lat="43.82457" lon="5.41113">
        <ele>642</ele>
        <time>2014-05-20T14:08:52Z</time>
      </trkpt>
      <trkpt lat="43.82456" lon="5.41115">
        <ele>642</ele>
        <time>2014-05-20T14:08:54Z</time>
      </trkpt>
      <trkpt lat="43.82453" lon="5.41118">
        <ele>642</ele>
        <time>2014-05-20T14:08:57Z</time>
      </trkpt>
      <trkpt lat="43.82451" lon="5.41119">
        <ele>643</ele>
        <time>2014-05-20T14:08:59Z</time>
      </trkpt>
      <trkpt lat="43.82446" lon="5.41122">
        <ele>643</ele>
        <time>2014-05-20T14:09:04Z</time>
      </trkpt>
      <trkpt lat="43.82443" lon="5.41124">
        <ele>643</ele>
        <time>2014-05-20T14:09:07Z</time>
      </trkpt>
      <trkpt lat="43.8244" lon="5.41125">
        <ele>643</ele>
        <time>2014-05-20T14:09:10Z</time>
      </trkpt>
      <trkpt lat="43.82439" lon="5.41127">
        <ele>644</ele>
        <time>2014-05-20T14:09:12Z</time>
      </trkpt>
      <trkpt lat="43.82436" lon="5.41129">
        <ele>644</ele>
        <time>2014-05-20T14:09:15Z</time>
      </trkpt>
      <trkpt lat="43.82432" lon="5.41132">
        <ele>644</ele>
        <time>2014-05-20T14:09:20Z</time>
      </trkpt>
      <trkpt lat="43.82427" lon="5.41134">
        <ele>644</ele>
        <time>2014-05-20T14:09:24Z</time>
      </trkpt>
      <trkpt lat="43.82422" lon="5.41134">
        <ele>645</ele>
        <time>2014-05-20T14:09:28Z</time>
      </trkpt>
      <trkpt lat="43.82417" lon="5.41137">
        <ele>645</ele>
        <time>2014-05-20T14:09:32Z</time>
      </trkpt>
      <trkpt lat="43.82412" lon="5.41137">
        <ele>650</ele>
        <time>2014-05-20T14:09:37Z</time>
      </trkpt>
      <trkpt lat="43.8241" lon="5.41139">
        <ele>650</ele>
        <time>2014-05-20T14:09:39Z</time>
      </trkpt>
      <trkpt lat="43.82403" lon="5.4114">
        <ele>650</ele>
        <time>2014-05-20T14:09:47Z</time>
      </trkpt>
      <trkpt lat="43.82401" lon="5.4114">
        <ele>650</ele>
        <time>2014-05-20T14:09:51Z</time>
      </trkpt>
      <trkpt lat="43.82402" lon="5.4114">
        <ele>650</ele>
        <time>2014-05-20T14:09:52Z</time>
      </trkpt>
      <trkpt lat="43.82401" lon="5.41138">
        <ele>650</ele>
        <time>2014-05-20T14:09:54Z</time>
      </trkpt>
      <trkpt lat="43.82401" lon="5.41138">
        <ele>650</ele>
        <time>2014-05-20T14:09:56Z</time>
      </trkpt>
      <trkpt lat="43.824" lon="5.41138">
        <ele>650</ele>
        <time>2014-05-20T14:09:59Z</time>
      </trkpt>
      <trkpt lat="43.82394" lon="5.4114">
        <ele>650</ele>
        <time>2014-05-20T14:10:08Z</time>
      </trkpt>
      <trkpt lat="43.82392" lon="5.41141">
        <ele>650</ele>
        <time>2014-05-20T14:10:10Z</time>
      </trkpt>
      <trkpt lat="43.8239" lon="5.41141">
        <ele>650</ele>
        <time>2014-05-20T14:10:13Z</time>
      </trkpt>
      <trkpt lat="43.82389" lon="5.41142">
        <ele>650</ele>
        <time>2014-05-20T14:10:15Z</time>
      </trkpt>
      <trkpt lat="43.82387" lon="5.41143">
        <ele>650</ele>
        <time>2014-05-20T14:10:18Z</time>
      </trkpt>
      <trkpt lat="43.82384" lon="5.41144">
        <ele>650</ele>
        <time>2014-05-20T14:10:21Z</time>
      </trkpt>
      <trkpt lat="43.8238" lon="5.41145">
        <ele>650</ele>
        <time>2014-05-20T14:10:28Z</time>
      </trkpt>
      <trkpt lat="43.82375" lon="5.41145">
        <ele>650</ele>
        <time>2014-05-20T14:10:33Z</time>
      </trkpt>
      <trkpt lat="43.82374" lon="5.41146">
        <ele>650</ele>
        <time>2014-05-20T14:10:35Z</time>
      </trkpt>
      <trkpt lat="43.82372" lon="5.41147">
        <ele>650</ele>
        <time>2014-05-20T14:10:37Z</time>
      </trkpt>
      <trkpt lat="43.82369" lon="5.41148">
        <ele>650</ele>
        <time>2014-05-20T14:10:40Z</time>
      </trkpt>
      <trkpt lat="43.82367" lon="5.41149">
        <ele>650</ele>
        <time>2014-05-20T14:10:42Z</time>
      </trkpt>
      <trkpt lat="43.82362" lon="5.4115">
        <ele>650</ele>
        <time>2014-05-20T14:10:46Z</time>
      </trkpt>
      <trkpt lat="43.82357" lon="5.4115">
        <ele>650</ele>
        <time>2014-05-20T14:10:50Z</time>
      </trkpt>
      <trkpt lat="43.82349" lon="5.41152">
        <ele>649</ele>
        <time>2014-05-20T14:10:58Z</time>
      </trkpt>
      <trkpt lat="43.82339" lon="5.41151">
        <ele>649</ele>
        <time>2014-05-20T14:11:06Z</time>
      </trkpt>
      <trkpt lat="43.82338" lon="5.41151">
        <ele>649</ele>
        <time>2014-05-20T14:11:07Z</time>
      </trkpt>
      <trkpt lat="43.82327" lon="5.41151">
        <ele>650</ele>
        <time>2014-05-20T14:11:16Z</time>
      </trkpt>
      <trkpt lat="43.82323" lon="5.41151">
        <ele>650</ele>
        <time>2014-05-20T14:11:19Z</time>
      </trkpt>
      <trkpt lat="43.82316" lon="5.4115">
        <ele>650</ele>
        <time>2014-05-20T14:11:24Z</time>
      </trkpt>
      <trkpt lat="43.82313" lon="5.41151">
        <ele>650</ele>
        <time>2014-05-20T14:11:26Z</time>
      </trkpt>
      <trkpt lat="43.82312" lon="5.41152">
        <ele>650</ele>
        <time>2014-05-20T14:11:27Z</time>
      </trkpt>
      <trkpt lat="43.82304" lon="5.41152">
        <ele>651</ele>
        <time>2014-05-20T14:11:33Z</time>
      </trkpt>
      <trkpt lat="43.82304" lon="5.41153">
        <ele>651</ele>
        <time>2014-05-20T14:11:34Z</time>
      </trkpt>
      <trkpt lat="43.82302" lon="5.41153">
        <ele>651</ele>
        <time>2014-05-20T14:11:35Z</time>
      </trkpt>
      <trkpt lat="43.82301" lon="5.41152">
        <ele>651</ele>
        <time>2014-05-20T14:11:36Z</time>
      </trkpt>
      <trkpt lat="43.82291" lon="5.41153">
        <ele>650</ele>
        <time>2014-05-20T14:11:46Z</time>
      </trkpt>
      <trkpt lat="43.8229" lon="5.41154">
        <ele>650</ele>
        <time>2014-05-20T14:11:48Z</time>
      </trkpt>
      <trkpt lat="43.82285" lon="5.41153">
        <ele>650</ele>
        <time>2014-05-20T14:11:52Z</time>
      </trkpt>
      <trkpt lat="43.82271" lon="5.4115">
        <ele>649</ele>
        <time>2014-05-20T14:12:04Z</time>
      </trkpt>
      <trkpt lat="43.82264" lon="5.41149">
        <ele>649</ele>
        <time>2014-05-20T14:12:10Z</time>
      </trkpt>
      <trkpt lat="43.82259" lon="5.41147">
        <ele>649</ele>
        <time>2014-05-20T14:12:15Z</time>
      </trkpt>
      <trkpt lat="43.82254" lon="5.41144">
        <ele>649</ele>
        <time>2014-05-20T14:12:20Z</time>
      </trkpt>
      <trkpt lat="43.82243" lon="5.41141">
        <ele>649</ele>
        <time>2014-05-20T14:12:29Z</time>
      </trkpt>
      <trkpt lat="43.82233" lon="5.41137">
        <ele>650</ele>
        <time>2014-05-20T14:12:38Z</time>
      </trkpt>
      <trkpt lat="43.82229" lon="5.41136">
        <ele>650</ele>
        <time>2014-05-20T14:12:42Z</time>
      </trkpt>
      <trkpt lat="43.82227" lon="5.41135">
        <ele>650</ele>
        <time>2014-05-20T14:12:44Z</time>
      </trkpt>
      <trkpt lat="43.82221" lon="5.4113">
        <ele>651</ele>
        <time>2014-05-20T14:12:51Z</time>
      </trkpt>
      <trkpt lat="43.82219" lon="5.4113">
        <ele>651</ele>
        <time>2014-05-20T14:12:53Z</time>
      </trkpt>
      <trkpt lat="43.82217" lon="5.41128">
        <ele>651</ele>
        <time>2014-05-20T14:12:57Z</time>
      </trkpt>
      <trkpt lat="43.82216" lon="5.41127">
        <ele>651</ele>
        <time>2014-05-20T14:12:58Z</time>
      </trkpt>
      <trkpt lat="43.8221" lon="5.41123">
        <ele>651</ele>
        <time>2014-05-20T14:13:04Z</time>
      </trkpt>
      <trkpt lat="43.82205" lon="5.41117">
        <ele>652</ele>
        <time>2014-05-20T14:13:11Z</time>
      </trkpt>
      <trkpt lat="43.82199" lon="5.41111">
        <ele>652</ele>
        <time>2014-05-20T14:13:18Z</time>
      </trkpt>
      <trkpt lat="43.82192" lon="5.41107">
        <ele>653</ele>
        <time>2014-05-20T14:13:27Z</time>
      </trkpt>
      <trkpt lat="43.8219" lon="5.41104">
        <ele>653</ele>
        <time>2014-05-20T14:13:30Z</time>
      </trkpt>
      <trkpt lat="43.8219" lon="5.41103">
        <ele>653</ele>
        <time>2014-05-20T14:13:32Z</time>
      </trkpt>
      <trkpt lat="43.82189" lon="5.41102">
        <ele>653</ele>
        <time>2014-05-20T14:13:34Z</time>
      </trkpt>
      <trkpt lat="43.82185" lon="5.41099">
        <ele>654</ele>
        <time>2014-05-20T14:13:39Z</time>
      </trkpt>
      <trkpt lat="43.82184" lon="5.41099">
        <ele>654</ele>
        <time>2014-05-20T14:13:40Z</time>
      </trkpt>
      <trkpt lat="43.82179" lon="5.41096">
        <ele>655</ele>
        <time>2014-05-20T14:13:45Z</time>
      </trkpt>
      <trkpt lat="43.82178" lon="5.41094">
        <ele>655</ele>
        <time>2014-05-20T14:13:46Z</time>
      </trkpt>
      <trkpt lat="43.82171" lon="5.4109">
        <ele>656</ele>
        <time>2014-05-20T14:13:52Z</time>
      </trkpt>
      <trkpt lat="43.82168" lon="5.41087">
        <ele>657</ele>
        <time>2014-05-20T14:13:55Z</time>
      </trkpt>
      <trkpt lat="43.82159" lon="5.41081">
        <ele>661</ele>
        <time>2014-05-20T14:14:00Z</time>
      </trkpt>
      <trkpt lat="43.82151" lon="5.41074">
        <ele>663</ele>
        <time>2014-05-20T14:14:06Z</time>
      </trkpt>
      <trkpt lat="43.82148" lon="5.41073">
        <ele>663</ele>
        <time>2014-05-20T14:14:08Z</time>
      </trkpt>
      <trkpt lat="43.82146" lon="5.41073">
        <ele>664</ele>
        <time>2014-05-20T14:14:10Z</time>
      </trkpt>
      <trkpt lat="43.82141" lon="5.4107">
        <ele>664</ele>
        <time>2014-05-20T14:14:16Z</time>
      </trkpt>
      <trkpt lat="43.82138" lon="5.41069">
        <ele>665</ele>
        <time>2014-05-20T14:14:19Z</time>
      </trkpt>
      <trkpt lat="43.82135" lon="5.41065">
        <ele>665</ele>
        <time>2014-05-20T14:14:23Z</time>
      </trkpt>
      <trkpt lat="43.82133" lon="5.41064">
        <ele>665</ele>
        <time>2014-05-20T14:14:25Z</time>
      </trkpt>
      <trkpt lat="43.82128" lon="5.41059">
        <ele>666</ele>
        <time>2014-05-20T14:14:30Z</time>
      </trkpt>
      <trkpt lat="43.82126" lon="5.41058">
        <ele>666</ele>
        <time>2014-05-20T14:14:32Z</time>
      </trkpt>
      <trkpt lat="43.82124" lon="5.41055">
        <ele>666</ele>
        <time>2014-05-20T14:14:34Z</time>
      </trkpt>
      <trkpt lat="43.8212" lon="5.41051">
        <ele>667</ele>
        <time>2014-05-20T14:14:40Z</time>
      </trkpt>
      <trkpt lat="43.82118" lon="5.41049">
        <ele>667</ele>
        <time>2014-05-20T14:14:42Z</time>
      </trkpt>
      <trkpt lat="43.82115" lon="5.41048">
        <ele>667</ele>
        <time>2014-05-20T14:14:45Z</time>
      </trkpt>
      <trkpt lat="43.82113" lon="5.41046">
        <ele>667</ele>
        <time>2014-05-20T14:14:48Z</time>
      </trkpt>
      <trkpt lat="43.8211" lon="5.41045">
        <ele>667</ele>
        <time>2014-05-20T14:14:53Z</time>
      </trkpt>
      <trkpt lat="43.82108" lon="5.41043">
        <ele>667</ele>
        <time>2014-05-20T14:14:56Z</time>
      </trkpt>
      <trkpt lat="43.82105" lon="5.4104">
        <ele>667</ele>
        <time>2014-05-20T14:15:00Z</time>
      </trkpt>
      <trkpt lat="43.82102" lon="5.41035">
        <ele>668</ele>
        <time>2014-05-20T14:15:06Z</time>
      </trkpt>
      <trkpt lat="43.821" lon="5.41033">
        <ele>668</ele>
        <time>2014-05-20T14:15:09Z</time>
      </trkpt>
      <trkpt lat="43.82099" lon="5.41031">
        <ele>668</ele>
        <time>2014-05-20T14:15:11Z</time>
      </trkpt>
      <trkpt lat="43.82093" lon="5.41024">
        <ele>668</ele>
        <time>2014-05-20T14:15:18Z</time>
      </trkpt>
      <trkpt lat="43.82089" lon="5.4102">
        <ele>669</ele>
        <time>2014-05-20T14:15:23Z</time>
      </trkpt>
      <trkpt lat="43.82085" lon="5.41015">
        <ele>669</ele>
        <time>2014-05-20T14:15:28Z</time>
      </trkpt>
      <trkpt lat="43.82081" lon="5.41012">
        <ele>674</ele>
        <time>2014-05-20T14:15:34Z</time>
      </trkpt>
      <trkpt lat="43.8208" lon="5.4101">
        <ele>674</ele>
        <time>2014-05-20T14:15:37Z</time>
      </trkpt>
      <trkpt lat="43.82079" lon="5.41009">
        <ele>674</ele>
        <time>2014-05-20T14:15:40Z</time>
      </trkpt>
      <trkpt lat="43.82078" lon="5.41009">
        <ele>674</ele>
        <time>2014-05-20T14:15:45Z</time>
      </trkpt>
      <trkpt lat="43.82077" lon="5.41009">
        <ele>674</ele>
        <time>2014-05-20T14:15:47Z</time>
      </trkpt>
      <trkpt lat="43.82078" lon="5.41012">
        <ele>674</ele>
        <time>2014-05-20T14:15:50Z</time>
      </trkpt>
      <trkpt lat="43.8208" lon="5.41014">
        <ele>675</ele>
        <time>2014-05-20T14:15:53Z</time>
      </trkpt>
      <trkpt lat="43.8208" lon="5.41015">
        <ele>675</ele>
        <time>2014-05-20T14:15:55Z</time>
      </trkpt>
      <trkpt lat="43.82078" lon="5.41016">
        <ele>675</ele>
        <time>2014-05-20T14:15:57Z</time>
      </trkpt>
      <trkpt lat="43.8207" lon="5.41015">
        <ele>676</ele>
        <time>2014-05-20T14:16:07Z</time>
      </trkpt>
      <trkpt lat="43.82068" lon="5.4101">
        <ele>676</ele>
        <time>2014-05-20T14:16:14Z</time>
      </trkpt>
      <trkpt lat="43.82068" lon="5.41006">
        <ele>676</ele>
        <time>2014-05-20T14:16:20Z</time>
      </trkpt>
      <trkpt lat="43.82067" lon="5.41003">
        <ele>676</ele>
        <time>2014-05-20T14:16:25Z</time>
      </trkpt>
      <trkpt lat="43.82064" lon="5.41">
        <ele>676</ele>
        <time>2014-05-20T14:16:30Z</time>
      </trkpt>
      <trkpt lat="43.82063" lon="5.40998">
        <ele>675</ele>
        <time>2014-05-20T14:16:33Z</time>
      </trkpt>
      <trkpt lat="43.8206" lon="5.40995">
        <ele>676</ele>
        <time>2014-05-20T14:16:38Z</time>
      </trkpt>
      <trkpt lat="43.82057" lon="5.40991">
        <ele>676</ele>
        <time>2014-05-20T14:16:42Z</time>
      </trkpt>
      <trkpt lat="43.82057" lon="5.40989">
        <ele>677</ele>
        <time>2014-05-20T14:16:44Z</time>
      </trkpt>
      <trkpt lat="43.82057" lon="5.40988">
        <ele>677</ele>
        <time>2014-05-20T14:16:46Z</time>
      </trkpt>
      <trkpt lat="43.82057" lon="5.40985">
        <ele>677</ele>
        <time>2014-05-20T14:16:50Z</time>
      </trkpt>
      <trkpt lat="43.82056" lon="5.40981">
        <ele>677</ele>
        <time>2014-05-20T14:17:01Z</time>
      </trkpt>
      <trkpt lat="43.82057" lon="5.4098">
        <ele>677</ele>
        <time>2014-05-20T14:17:04Z</time>
      </trkpt>
      <trkpt lat="43.82058" lon="5.40981">
        <ele>677</ele>
        <time>2014-05-20T14:17:06Z</time>
      </trkpt>
      <trkpt lat="43.82056" lon="5.40979">
        <ele>677</ele>
        <time>2014-05-20T14:17:11Z</time>
      </trkpt>
      <trkpt lat="43.82055" lon="5.40978">
        <ele>677</ele>
        <time>2014-05-20T14:17:13Z</time>
      </trkpt>
      <trkpt lat="43.82051" lon="5.40974">
        <ele>678</ele>
        <time>2014-05-20T14:17:24Z</time>
      </trkpt>
      <trkpt lat="43.82058" lon="5.40975">
        <ele>677</ele>
        <time>2014-05-20T14:17:35Z</time>
      </trkpt>
      <trkpt lat="43.82062" lon="5.40977">
        <ele>676</ele>
        <time>2014-05-20T14:17:42Z</time>
      </trkpt>
      <trkpt lat="43.82062" lon="5.40977">
        <ele>676</ele>
        <time>2014-05-20T14:17:45Z</time>
      </trkpt>
      <trkpt lat="43.82061" lon="5.40978">
        <ele>676</ele>
        <time>2014-05-20T14:17:48Z</time>
      </trkpt>
      <trkpt lat="43.82056" lon="5.40978">
        <ele>677</ele>
        <time>2014-05-20T14:18:00Z</time>
      </trkpt>
      <trkpt lat="43.82054" lon="5.40975">
        <ele>677</ele>
        <time>2014-05-20T14:18:12Z</time>
      </trkpt>
      <trkpt lat="43.82049" lon="5.40971">
        <ele>678</ele>
        <time>2014-05-20T14:18:24Z</time>
      </trkpt>
      <trkpt lat="43.82048" lon="5.4097">
        <ele>678</ele>
        <time>2014-05-20T14:18:29Z</time>
      </trkpt>
      <trkpt lat="43.82047" lon="5.40969">
        <ele>678</ele>
        <time>2014-05-20T14:18:31Z</time>
      </trkpt>
      <trkpt lat="43.82044" lon="5.40967">
        <ele>678</ele>
        <time>2014-05-20T14:18:34Z</time>
      </trkpt>
      <trkpt lat="43.82043" lon="5.40964">
        <ele>679</ele>
        <time>2014-05-20T14:18:39Z</time>
      </trkpt>
      <trkpt lat="43.82042" lon="5.40963">
        <ele>679</ele>
        <time>2014-05-20T14:18:41Z</time>
      </trkpt>
      <trkpt lat="43.82039" lon="5.4096">
        <ele>679</ele>
        <time>2014-05-20T14:18:45Z</time>
      </trkpt>
      <trkpt lat="43.82035" lon="5.40956">
        <ele>679</ele>
        <time>2014-05-20T14:18:52Z</time>
      </trkpt>
      <trkpt lat="43.82033" lon="5.40953">
        <ele>679</ele>
        <time>2014-05-20T14:18:55Z</time>
      </trkpt>
      <trkpt lat="43.82033" lon="5.40952">
        <ele>679</ele>
        <time>2014-05-20T14:18:57Z</time>
      </trkpt>
      <trkpt lat="43.82031" lon="5.40949">
        <ele>679</ele>
        <time>2014-05-20T14:19:01Z</time>
      </trkpt>
      <trkpt lat="43.82034" lon="5.40944">
        <ele>679</ele>
        <time>2014-05-20T14:19:08Z</time>
      </trkpt>
      <trkpt lat="43.82033" lon="5.4094">
        <ele>679</ele>
        <time>2014-05-20T14:19:12Z</time>
      </trkpt>
      <trkpt lat="43.82028" lon="5.40932">
        <ele>680</ele>
        <time>2014-05-20T14:19:21Z</time>
      </trkpt>
      <trkpt lat="43.82024" lon="5.40928">
        <ele>680</ele>
        <time>2014-05-20T14:19:25Z</time>
      </trkpt>
      <trkpt lat="43.82023" lon="5.40926">
        <ele>680</ele>
        <time>2014-05-20T14:19:27Z</time>
      </trkpt>
      <trkpt lat="43.82022" lon="5.40923">
        <ele>681</ele>
        <time>2014-05-20T14:19:30Z</time>
      </trkpt>
      <trkpt lat="43.82021" lon="5.4092">
        <ele>681</ele>
        <time>2014-05-20T14:19:33Z</time>
      </trkpt>
      <trkpt lat="43.82021" lon="5.40919">
        <ele>681</ele>
        <time>2014-05-20T14:19:34Z</time>
      </trkpt>
      <trkpt lat="43.82021" lon="5.40918">
        <ele>681</ele>
        <time>2014-05-20T14:19:36Z</time>
      </trkpt>
      <trkpt lat="43.8202" lon="5.40916">
        <ele>678</ele>
        <time>2014-05-20T14:19:38Z</time>
      </trkpt>
      <trkpt lat="43.82019" lon="5.40911">
        <ele>678</ele>
        <time>2014-05-20T14:19:42Z</time>
      </trkpt>
      <trkpt lat="43.82012" lon="5.40904">
        <ele>678</ele>
        <time>2014-05-20T14:19:47Z</time>
      </trkpt>
      <trkpt lat="43.82008" lon="5.40899">
        <ele>678</ele>
        <time>2014-05-20T14:19:51Z</time>
      </trkpt>
      <trkpt lat="43.82004" lon="5.40895">
        <ele>678</ele>
        <time>2014-05-20T14:19:54Z</time>
      </trkpt>
      <trkpt lat="43.82001" lon="5.40892">
        <ele>677</ele>
        <time>2014-05-20T14:19:56Z</time>
      </trkpt>
      <trkpt lat="43.81998" lon="5.40888">
        <ele>692</ele>
        <time>2014-05-20T14:19:59Z</time>
      </trkpt>
      <trkpt lat="43.81997" lon="5.40882">
        <ele>693</ele>
        <time>2014-05-20T14:20:04Z</time>
      </trkpt>
      <trkpt lat="43.81996" lon="5.40882">
        <ele>693</ele>
        <time>2014-05-20T14:20:05Z</time>
      </trkpt>
      <trkpt lat="43.81995" lon="5.40879">
        <ele>693</ele>
        <time>2014-05-20T14:20:07Z</time>
      </trkpt>
      <trkpt lat="43.81994" lon="5.40875">
        <ele>692</ele>
        <time>2014-05-20T14:20:11Z</time>
      </trkpt>
      <trkpt lat="43.81993" lon="5.40871">
        <ele>692</ele>
        <time>2014-05-20T14:20:14Z</time>
      </trkpt>
      <trkpt lat="43.81991" lon="5.40869">
        <ele>692</ele>
        <time>2014-05-20T14:20:16Z</time>
      </trkpt>
      <trkpt lat="43.81988" lon="5.40861">
        <ele>691</ele>
        <time>2014-05-20T14:20:21Z</time>
      </trkpt>
      <trkpt lat="43.81986" lon="5.40858">
        <ele>691</ele>
        <time>2014-05-20T14:20:23Z</time>
      </trkpt>
      <trkpt lat="43.81983" lon="5.4085">
        <ele>690</ele>
        <time>2014-05-20T14:20:29Z</time>
      </trkpt>
      <trkpt lat="43.8198" lon="5.40846">
        <ele>690</ele>
        <time>2014-05-20T14:20:32Z</time>
      </trkpt>
      <trkpt lat="43.81979" lon="5.40842">
        <ele>690</ele>
        <time>2014-05-20T14:20:35Z</time>
      </trkpt>
      <trkpt lat="43.81977" lon="5.40836">
        <ele>690</ele>
        <time>2014-05-20T14:20:39Z</time>
      </trkpt>
      <trkpt lat="43.81971" lon="5.40827">
        <ele>685</ele>
        <time>2014-05-20T14:20:45Z</time>
      </trkpt>
      <trkpt lat="43.81969" lon="5.40824">
        <ele>686</ele>
        <time>2014-05-20T14:20:47Z</time>
      </trkpt>
      <trkpt lat="43.81967" lon="5.4082">
        <ele>686</ele>
        <time>2014-05-20T14:20:50Z</time>
      </trkpt>
      <trkpt lat="43.81966" lon="5.40815">
        <ele>686</ele>
        <time>2014-05-20T14:20:54Z</time>
      </trkpt>
      <trkpt lat="43.81965" lon="5.40811">
        <ele>686</ele>
        <time>2014-05-20T14:20:58Z</time>
      </trkpt>
      <trkpt lat="43.81964" lon="5.40807">
        <ele>686</ele>
        <time>2014-05-20T14:21:01Z</time>
      </trkpt>
      <trkpt lat="43.81963" lon="5.40804">
        <ele>687</ele>
        <time>2014-05-20T14:21:03Z</time>
      </trkpt>
      <trkpt lat="43.81961" lon="5.40797">
        <ele>686</ele>
        <time>2014-05-20T14:21:09Z</time>
      </trkpt>
      <trkpt lat="43.8196" lon="5.40795">
        <ele>686</ele>
        <time>2014-05-20T14:21:10Z</time>
      </trkpt>
      <trkpt lat="43.81961" lon="5.40793">
        <ele>686</ele>
        <time>2014-05-20T14:21:12Z</time>
      </trkpt>
      <trkpt lat="43.81962" lon="5.40791">
        <ele>685</ele>
        <time>2014-05-20T14:21:14Z</time>
      </trkpt>
      <trkpt lat="43.81962" lon="5.40788">
        <ele>685</ele>
        <time>2014-05-20T14:21:16Z</time>
      </trkpt>
      <trkpt lat="43.81959" lon="5.40782">
        <ele>685</ele>
        <time>2014-05-20T14:21:21Z</time>
      </trkpt>
      <trkpt lat="43.81957" lon="5.40775">
        <ele>685</ele>
        <time>2014-05-20T14:21:27Z</time>
      </trkpt>
      <trkpt lat="43.81955" lon="5.40772">
        <ele>685</ele>
        <time>2014-05-20T14:21:29Z</time>
      </trkpt>
      <trkpt lat="43.81954" lon="5.40769">
        <ele>685</ele>
        <time>2014-05-20T14:21:32Z</time>
      </trkpt>
      <trkpt lat="43.8195" lon="5.40761">
        <ele>685</ele>
        <time>2014-05-20T14:21:38Z</time>
      </trkpt>
      <trkpt lat="43.81945" lon="5.40752">
        <ele>686</ele>
        <time>2014-05-20T14:21:45Z</time>
      </trkpt>
      <trkpt lat="43.81939" lon="5.40745">
        <ele>676</ele>
        <time>2014-05-20T14:21:53Z</time>
      </trkpt>
      <trkpt lat="43.81937" lon="5.40743">
        <ele>677</ele>
        <time>2014-05-20T14:21:55Z</time>
      </trkpt>
      <trkpt lat="43.81934" lon="5.40742">
        <ele>678</ele>
        <time>2014-05-20T14:21:59Z</time>
      </trkpt>
      <trkpt lat="43.81929" lon="5.40739">
        <ele>679</ele>
        <time>2014-05-20T14:22:05Z</time>
      </trkpt>
      <trkpt lat="43.81928" lon="5.40737">
        <ele>679</ele>
        <time>2014-05-20T14:22:06Z</time>
      </trkpt>
      <trkpt lat="43.81925" lon="5.40735">
        <ele>679</ele>
        <time>2014-05-20T14:22:09Z</time>
      </trkpt>
      <trkpt lat="43.81921" lon="5.4073">
        <ele>677</ele>
        <time>2014-05-20T14:22:17Z</time>
      </trkpt>
      <trkpt lat="43.81919" lon="5.40727">
        <ele>676</ele>
        <time>2014-05-20T14:22:23Z</time>
      </trkpt>
      <trkpt lat="43.81917" lon="5.40723">
        <ele>674</ele>
        <time>2014-05-20T14:22:30Z</time>
      </trkpt>
      <trkpt lat="43.81918" lon="5.40723">
        <ele>674</ele>
        <time>2014-05-20T14:22:36Z</time>
      </trkpt>
      <trkpt lat="43.81918" lon="5.40722">
        <ele>674</ele>
        <time>2014-05-20T14:22:38Z</time>
      </trkpt>
      <trkpt lat="43.81917" lon="5.40722">
        <ele>674</ele>
        <time>2014-05-20T14:22:41Z</time>
      </trkpt>
      <trkpt lat="43.81918" lon="5.40722">
        <ele>674</ele>
        <time>2014-05-20T14:22:42Z</time>
      </trkpt>
      <trkpt lat="43.81917" lon="5.40721">
        <ele>674</ele>
        <time>2014-05-20T14:22:56Z</time>
      </trkpt>
      <trkpt lat="43.81917" lon="5.40721">
        <ele>685</ele>
        <time>2014-05-20T14:23:01Z</time>
      </trkpt>
      <trkpt lat="43.81916" lon="5.4072">
        <ele>685</ele>
        <time>2014-05-20T14:23:08Z</time>
      </trkpt>
      <trkpt lat="43.81918" lon="5.40719">
        <ele>673</ele>
        <time>2014-05-20T14:23:15Z</time>
      </trkpt>
      <trkpt lat="43.81916" lon="5.40721">
        <ele>685</ele>
        <time>2014-05-20T14:23:24Z</time>
      </trkpt>
      <trkpt lat="43.81914" lon="5.4072">
        <ele>685</ele>
        <time>2014-05-20T14:23:28Z</time>
      </trkpt>
      <trkpt lat="43.81913" lon="5.40719">
        <ele>685</ele>
        <time>2014-05-20T14:23:30Z</time>
      </trkpt>
      <trkpt lat="43.81911" lon="5.40718">
        <ele>684</ele>
        <time>2014-05-20T14:23:32Z</time>
      </trkpt>
      <trkpt lat="43.81908" lon="5.40719">
        <ele>685</ele>
        <time>2014-05-20T14:23:36Z</time>
      </trkpt>
      <trkpt lat="43.81869" lon="5.4073">
        <ele>689</ele>
        <time>2014-05-20T14:24:55Z</time>
      </trkpt>
      <trkpt lat="43.81864" lon="5.40729">
        <ele>689</ele>
        <time>2014-05-20T14:24:59Z</time>
      </trkpt>
      <trkpt lat="43.81863" lon="5.4073">
        <ele>689</ele>
        <time>2014-05-20T14:25:01Z</time>
      </trkpt>
      <trkpt lat="43.81863" lon="5.4073">
        <ele>689</ele>
        <time>2014-05-20T14:25:03Z</time>
      </trkpt>
      <trkpt lat="43.81859" lon="5.40728">
        <ele>689</ele>
        <time>2014-05-20T14:25:06Z</time>
      </trkpt>
      <trkpt lat="43.81851" lon="5.40727">
        <ele>690</ele>
        <time>2014-05-20T14:25:12Z</time>
      </trkpt>
      <trkpt lat="43.81845" lon="5.40728">
        <ele>691</ele>
        <time>2014-05-20T14:25:17Z</time>
      </trkpt>
      <trkpt lat="43.81843" lon="5.4073">
        <ele>692</ele>
        <time>2014-05-20T14:25:19Z</time>
      </trkpt>
      <trkpt lat="43.81841" lon="5.40731">
        <ele>692</ele>
        <time>2014-05-20T14:25:21Z</time>
      </trkpt>
      <trkpt lat="43.8184" lon="5.40737">
        <ele>694</ele>
        <time>2014-05-20T14:25:26Z</time>
      </trkpt>
      <trkpt lat="43.81837" lon="5.40739">
        <ele>695</ele>
        <time>2014-05-20T14:25:29Z</time>
      </trkpt>
      <trkpt lat="43.81829" lon="5.40742">
        <ele>701</ele>
        <time>2014-05-20T14:25:37Z</time>
      </trkpt>
      <trkpt lat="43.81825" lon="5.40744">
        <ele>702</ele>
        <time>2014-05-20T14:25:41Z</time>
      </trkpt>
      <trkpt lat="43.81814" lon="5.40744">
        <ele>703</ele>
        <time>2014-05-20T14:25:49Z</time>
      </trkpt>
      <trkpt lat="43.81802" lon="5.40742">
        <ele>704</ele>
        <time>2014-05-20T14:26:03Z</time>
      </trkpt>
      <trkpt lat="43.81799" lon="5.40742">
        <ele>705</ele>
        <time>2014-05-20T14:26:05Z</time>
      </trkpt>
      <trkpt lat="43.81797" lon="5.40741">
        <ele>705</ele>
        <time>2014-05-20T14:26:07Z</time>
      </trkpt>
      <trkpt lat="43.81795" lon="5.4074">
        <ele>705</ele>
        <time>2014-05-20T14:26:09Z</time>
      </trkpt>
      <trkpt lat="43.81788" lon="5.40739">
        <ele>706</ele>
        <time>2014-05-20T14:26:16Z</time>
      </trkpt>
      <trkpt lat="43.81778" lon="5.40736">
        <ele>707</ele>
        <time>2014-05-20T14:26:23Z</time>
      </trkpt>
      <trkpt lat="43.81775" lon="5.40735">
        <ele>707</ele>
        <time>2014-05-20T14:26:26Z</time>
      </trkpt>
      <trkpt lat="43.81777" lon="5.40736">
        <ele>707</ele>
        <time>2014-05-20T14:26:28Z</time>
      </trkpt>
      <trkpt lat="43.81783" lon="5.40735">
        <ele>706</ele>
        <time>2014-05-20T14:26:31Z</time>
      </trkpt>
      <trkpt lat="43.81784" lon="5.40736">
        <ele>706</ele>
        <time>2014-05-20T14:26:32Z</time>
      </trkpt>
      <trkpt lat="43.81785" lon="5.40737">
        <ele>706</ele>
        <time>2014-05-20T14:26:33Z</time>
      </trkpt>
      <trkpt lat="43.81786" lon="5.40741">
        <ele>706</ele>
        <time>2014-05-20T14:26:36Z</time>
      </trkpt>
      <trkpt lat="43.81784" lon="5.40744">
        <ele>706</ele>
        <time>2014-05-20T14:26:39Z</time>
      </trkpt>
      <trkpt lat="43.81784" lon="5.40747">
        <ele>706</ele>
        <time>2014-05-20T14:26:41Z</time>
      </trkpt>
      <trkpt lat="43.81781" lon="5.40753">
        <ele>709</ele>
        <time>2014-05-20T14:26:46Z</time>
      </trkpt>
      <trkpt lat="43.81781" lon="5.40755">
        <ele>709</ele>
        <time>2014-05-20T14:26:47Z</time>
      </trkpt>
      <trkpt lat="43.81777" lon="5.40757">
        <ele>709</ele>
        <time>2014-05-20T14:26:50Z</time>
      </trkpt>
      <trkpt lat="43.81773" lon="5.40764">
        <ele>709</ele>
        <time>2014-05-20T14:26:56Z</time>
      </trkpt>
      <trkpt lat="43.81772" lon="5.40767">
        <ele>709</ele>
        <time>2014-05-20T14:26:59Z</time>
      </trkpt>
      <trkpt lat="43.8177" lon="5.40772">
        <ele>709</ele>
        <time>2014-05-20T14:27:04Z</time>
      </trkpt>
      <trkpt lat="43.8177" lon="5.40774">
        <ele>709</ele>
        <time>2014-05-20T14:27:05Z</time>
      </trkpt>
      <trkpt lat="43.81765" lon="5.40785">
        <ele>710</ele>
        <time>2014-05-20T14:27:15Z</time>
      </trkpt>
      <trkpt lat="43.81765" lon="5.40788">
        <ele>710</ele>
        <time>2014-05-20T14:27:17Z</time>
      </trkpt>
      <trkpt lat="43.81763" lon="5.4079">
        <ele>710</ele>
        <time>2014-05-20T14:27:20Z</time>
      </trkpt>
      <trkpt lat="43.81756" lon="5.40796">
        <ele>709</ele>
        <time>2014-05-20T14:27:28Z</time>
      </trkpt>
      <trkpt lat="43.8175" lon="5.40798">
        <ele>713</ele>
        <time>2014-05-20T14:27:33Z</time>
      </trkpt>
      <trkpt lat="43.81745" lon="5.40802">
        <ele>713</ele>
        <time>2014-05-20T14:27:39Z</time>
      </trkpt>
      <trkpt lat="43.81743" lon="5.40802">
        <ele>713</ele>
        <time>2014-05-20T14:27:40Z</time>
      </trkpt>
      <trkpt lat="43.8174" lon="5.40806">
        <ele>713</ele>
        <time>2014-05-20T14:27:44Z</time>
      </trkpt>
      <trkpt lat="43.81737" lon="5.40808">
        <ele>713</ele>
        <time>2014-05-20T14:27:47Z</time>
      </trkpt>
      <trkpt lat="43.81732" lon="5.4081">
        <ele>713</ele>
        <time>2014-05-20T14:27:51Z</time>
      </trkpt>
      <trkpt lat="43.81731" lon="5.40812">
        <ele>713</ele>
        <time>2014-05-20T14:27:53Z</time>
      </trkpt>
      <trkpt lat="43.81722" lon="5.40817">
        <ele>714</ele>
        <time>2014-05-20T14:28:02Z</time>
      </trkpt>
      <trkpt lat="43.81721" lon="5.4082">
        <ele>714</ele>
        <time>2014-05-20T14:28:05Z</time>
      </trkpt>
      <trkpt lat="43.8172" lon="5.40821">
        <ele>714</ele>
        <time>2014-05-20T14:28:06Z</time>
      </trkpt>
      <trkpt lat="43.81719" lon="5.40823">
        <ele>714</ele>
        <time>2014-05-20T14:28:08Z</time>
      </trkpt>
      <trkpt lat="43.81718" lon="5.40825">
        <ele>714</ele>
        <time>2014-05-20T14:28:10Z</time>
      </trkpt>
      <trkpt lat="43.81714" lon="5.40828">
        <ele>715</ele>
        <time>2014-05-20T14:28:14Z</time>
      </trkpt>
      <trkpt lat="43.81712" lon="5.40833">
        <ele>715</ele>
        <time>2014-05-20T14:28:18Z</time>
      </trkpt>
      <trkpt lat="43.81709" lon="5.40834">
        <ele>713</ele>
        <time>2014-05-20T14:28:20Z</time>
      </trkpt>
      <trkpt lat="43.81708" lon="5.40838">
        <ele>714</ele>
        <time>2014-05-20T14:28:24Z</time>
      </trkpt>
      <trkpt lat="43.81707" lon="5.40839">
        <ele>714</ele>
        <time>2014-05-20T14:28:25Z</time>
      </trkpt>
      <trkpt lat="43.81704" lon="5.40843">
        <ele>714</ele>
        <time>2014-05-20T14:28:29Z</time>
      </trkpt>
      <trkpt lat="43.81703" lon="5.40845">
        <ele>714</ele>
        <time>2014-05-20T14:28:31Z</time>
      </trkpt>
      <trkpt lat="43.81699" lon="5.40847">
        <ele>714</ele>
        <time>2014-05-20T14:28:35Z</time>
      </trkpt>
      <trkpt lat="43.81696" lon="5.40847">
        <ele>714</ele>
        <time>2014-05-20T14:28:38Z</time>
      </trkpt>
      <trkpt lat="43.81694" lon="5.40849">
        <ele>714</ele>
        <time>2014-05-20T14:28:41Z</time>
      </trkpt>
      <trkpt lat="43.81692" lon="5.40849">
        <ele>715</ele>
        <time>2014-05-20T14:28:45Z</time>
      </trkpt>
      <trkpt lat="43.81689" lon="5.4085">
        <ele>715</ele>
        <time>2014-05-20T14:28:48Z</time>
      </trkpt>
      <trkpt lat="43.81687" lon="5.40853">
        <ele>715</ele>
        <time>2014-05-20T14:28:51Z</time>
      </trkpt>
      <trkpt lat="43.81683" lon="5.40858">
        <ele>715</ele>
        <time>2014-05-20T14:28:56Z</time>
      </trkpt>
      <trkpt lat="43.81682" lon="5.40858">
        <ele>715</ele>
        <time>2014-05-20T14:28:57Z</time>
      </trkpt>
      <trkpt lat="43.8168" lon="5.40862">
        <ele>715</ele>
        <time>2014-05-20T14:29:01Z</time>
      </trkpt>
      <trkpt lat="43.81678" lon="5.40863">
        <ele>715</ele>
        <time>2014-05-20T14:29:03Z</time>
      </trkpt>
      <trkpt lat="43.81672" lon="5.40865">
        <ele>715</ele>
        <time>2014-05-20T14:29:08Z</time>
      </trkpt>
      <trkpt lat="43.81669" lon="5.40866">
        <ele>715</ele>
        <time>2014-05-20T14:29:11Z</time>
      </trkpt>
      <trkpt lat="43.81666" lon="5.40868">
        <ele>721</ele>
        <time>2014-05-20T14:29:14Z</time>
      </trkpt>
      <trkpt lat="43.81663" lon="5.40869">
        <ele>721</ele>
        <time>2014-05-20T14:29:17Z</time>
      </trkpt>
      <trkpt lat="43.81662" lon="5.40869">
        <ele>721</ele>
        <time>2014-05-20T14:29:18Z</time>
      </trkpt>
      <trkpt lat="43.81658" lon="5.40872">
        <ele>721</ele>
        <time>2014-05-20T14:29:23Z</time>
      </trkpt>
      <trkpt lat="43.81652" lon="5.40877">
        <ele>721</ele>
        <time>2014-05-20T14:29:30Z</time>
      </trkpt>
      <trkpt lat="43.81648" lon="5.4088">
        <ele>721</ele>
        <time>2014-05-20T14:29:35Z</time>
      </trkpt>
      <trkpt lat="43.81645" lon="5.4088">
        <ele>722</ele>
        <time>2014-05-20T14:29:37Z</time>
      </trkpt>
      <trkpt lat="43.81645" lon="5.40881">
        <ele>722</ele>
        <time>2014-05-20T14:29:38Z</time>
      </trkpt>
      <trkpt lat="43.81633" lon="5.40884">
        <ele>723</ele>
        <time>2014-05-20T14:29:47Z</time>
      </trkpt>
      <trkpt lat="43.8163" lon="5.40886">
        <ele>723</ele>
        <time>2014-05-20T14:29:50Z</time>
      </trkpt>
      <trkpt lat="43.81627" lon="5.40887">
        <ele>723</ele>
        <time>2014-05-20T14:29:52Z</time>
      </trkpt>
      <trkpt lat="43.81618" lon="5.40888">
        <ele>724</ele>
        <time>2014-05-20T14:29:58Z</time>
      </trkpt>
      <trkpt lat="43.81616" lon="5.40888">
        <ele>724</ele>
        <time>2014-05-20T14:29:59Z</time>
      </trkpt>
      <trkpt lat="43.81612" lon="5.4089">
        <ele>725</ele>
        <time>2014-05-20T14:30:03Z</time>
      </trkpt>
      <trkpt lat="43.81612" lon="5.40891">
        <ele>725</ele>
        <time>2014-05-20T14:30:04Z</time>
      </trkpt>
      <trkpt lat="43.81611" lon="5.40893">
        <ele>724</ele>
        <time>2014-05-20T14:30:06Z</time>
      </trkpt>
      <trkpt lat="43.81609" lon="5.40895">
        <ele>725</ele>
        <time>2014-05-20T14:30:11Z</time>
      </trkpt>
      <trkpt lat="43.81599" lon="5.40897">
        <ele>725</ele>
        <time>2014-05-20T14:30:18Z</time>
      </trkpt>
      <trkpt lat="43.81596" lon="5.40897">
        <ele>725</ele>
        <time>2014-05-20T14:30:20Z</time>
      </trkpt>
      <trkpt lat="43.81593" lon="5.40898">
        <ele>725</ele>
        <time>2014-05-20T14:30:22Z</time>
      </trkpt>
      <trkpt lat="43.81589" lon="5.409">
        <ele>726</ele>
        <time>2014-05-20T14:30:26Z</time>
      </trkpt>
      <trkpt lat="43.81588" lon="5.409">
        <ele>726</ele>
        <time>2014-05-20T14:30:28Z</time>
      </trkpt>
      <trkpt lat="43.81588" lon="5.40901">
        <ele>726</ele>
        <time>2014-05-20T14:30:29Z</time>
      </trkpt>
      <trkpt lat="43.81588" lon="5.40904">
        <ele>726</ele>
        <time>2014-05-20T14:30:31Z</time>
      </trkpt>
      <trkpt lat="43.81587" lon="5.40905">
        <ele>726</ele>
        <time>2014-05-20T14:30:33Z</time>
      </trkpt>
      <trkpt lat="43.81584" lon="5.40906">
        <ele>726</ele>
        <time>2014-05-20T14:30:35Z</time>
      </trkpt>
      <trkpt lat="43.81581" lon="5.40908">
        <ele>733</ele>
        <time>2014-05-20T14:30:38Z</time>
      </trkpt>
      <trkpt lat="43.81573" lon="5.4091">
        <ele>735</ele>
        <time>2014-05-20T14:30:44Z</time>
      </trkpt>
      <trkpt lat="43.81569" lon="5.40911">
        <ele>736</ele>
        <time>2014-05-20T14:30:47Z</time>
      </trkpt>
      <trkpt lat="43.81568" lon="5.40912">
        <ele>737</ele>
        <time>2014-05-20T14:30:48Z</time>
      </trkpt>
      <trkpt lat="43.81567" lon="5.40912">
        <ele>737</ele>
        <time>2014-05-20T14:30:49Z</time>
      </trkpt>
      <trkpt lat="43.81566" lon="5.40915">
        <ele>737</ele>
        <time>2014-05-20T14:30:51Z</time>
      </trkpt>
      <trkpt lat="43.81566" lon="5.40918">
        <ele>733</ele>
        <time>2014-05-20T14:30:54Z</time>
      </trkpt>
      <trkpt lat="43.81566" lon="5.40921">
        <ele>733</ele>
        <time>2014-05-20T14:30:57Z</time>
      </trkpt>
      <trkpt lat="43.81565" lon="5.40923">
        <ele>734</ele>
        <time>2014-05-20T14:30:59Z</time>
      </trkpt>
      <trkpt lat="43.81564" lon="5.40924">
        <ele>734</ele>
        <time>2014-05-20T14:31:00Z</time>
      </trkpt>
      <trkpt lat="43.81559" lon="5.40925">
        <ele>735</ele>
        <time>2014-05-20T14:31:05Z</time>
      </trkpt>
      <trkpt lat="43.81554" lon="5.40932">
        <ele>737</ele>
        <time>2014-05-20T14:31:13Z</time>
      </trkpt>
      <trkpt lat="43.81551" lon="5.40934">
        <ele>738</ele>
        <time>2014-05-20T14:31:17Z</time>
      </trkpt>
      <trkpt lat="43.81546" lon="5.40934">
        <ele>738</ele>
        <time>2014-05-20T14:31:21Z</time>
      </trkpt>
      <trkpt lat="43.81546" lon="5.40935">
        <ele>739</ele>
        <time>2014-05-20T14:31:22Z</time>
      </trkpt>
      <trkpt lat="43.81545" lon="5.40936">
        <ele>739</ele>
        <time>2014-05-20T14:31:24Z</time>
      </trkpt>
      <trkpt lat="43.81545" lon="5.4094">
        <ele>739</ele>
        <time>2014-05-20T14:31:27Z</time>
      </trkpt>
      <trkpt lat="43.81547" lon="5.40944">
        <ele>739</ele>
        <time>2014-05-20T14:31:30Z</time>
      </trkpt>
      <trkpt lat="43.81546" lon="5.40945">
        <ele>739</ele>
        <time>2014-05-20T14:31:31Z</time>
      </trkpt>
      <trkpt lat="43.81544" lon="5.40947">
        <ele>739</ele>
        <time>2014-05-20T14:31:34Z</time>
      </trkpt>
      <trkpt lat="43.81544" lon="5.4095">
        <ele>739</ele>
        <time>2014-05-20T14:31:36Z</time>
      </trkpt>
      <trkpt lat="43.81541" lon="5.40952">
        <ele>739</ele>
        <time>2014-05-20T14:31:40Z</time>
      </trkpt>
      <trkpt lat="43.8154" lon="5.40954">
        <ele>740</ele>
        <time>2014-05-20T14:31:44Z</time>
      </trkpt>
      <trkpt lat="43.81536" lon="5.40955">
        <ele>740</ele>
        <time>2014-05-20T14:31:47Z</time>
      </trkpt>
      <trkpt lat="43.81531" lon="5.40956">
        <ele>741</ele>
        <time>2014-05-20T14:31:51Z</time>
      </trkpt>
      <trkpt lat="43.81527" lon="5.40959">
        <ele>741</ele>
        <time>2014-05-20T14:31:56Z</time>
      </trkpt>
      <trkpt lat="43.81518" lon="5.40961">
        <ele>742</ele>
        <time>2014-05-20T14:32:04Z</time>
      </trkpt>
      <trkpt lat="43.81516" lon="5.40966">
        <ele>742</ele>
        <time>2014-05-20T14:32:09Z</time>
      </trkpt>
      <trkpt lat="43.81509" lon="5.40972">
        <ele>742</ele>
        <time>2014-05-20T14:32:18Z</time>
      </trkpt>
      <trkpt lat="43.81508" lon="5.40972">
        <ele>742</ele>
        <time>2014-05-20T14:32:19Z</time>
      </trkpt>
      <trkpt lat="43.81506" lon="5.40974">
        <ele>742</ele>
        <time>2014-05-20T14:32:22Z</time>
      </trkpt>
      <trkpt lat="43.81498" lon="5.40977">
        <ele>754</ele>
        <time>2014-05-20T14:32:29Z</time>
      </trkpt>
      <trkpt lat="43.81496" lon="5.40978">
        <ele>753</ele>
        <time>2014-05-20T14:32:32Z</time>
      </trkpt>
      <trkpt lat="43.81496" lon="5.40978">
        <ele>754</ele>
        <time>2014-05-20T14:32:34Z</time>
      </trkpt>
      <trkpt lat="43.81494" lon="5.4098">
        <ele>753</ele>
        <time>2014-05-20T14:32:45Z</time>
      </trkpt>
      <trkpt lat="43.81496" lon="5.40982">
        <ele>752</ele>
        <time>2014-05-20T14:32:55Z</time>
      </trkpt>
      <trkpt lat="43.81497" lon="5.40983">
        <ele>752</ele>
        <time>2014-05-20T14:32:57Z</time>
      </trkpt>
      <trkpt lat="43.81499" lon="5.40985">
        <ele>752</ele>
        <time>2014-05-20T14:33:02Z</time>
      </trkpt>
      <trkpt lat="43.81498" lon="5.40985">
        <ele>752</ele>
        <time>2014-05-20T14:33:03Z</time>
      </trkpt>
      <trkpt lat="43.81499" lon="5.40988">
        <ele>751</ele>
        <time>2014-05-20T14:33:09Z</time>
      </trkpt>
      <trkpt lat="43.81498" lon="5.40987">
        <ele>751</ele>
        <time>2014-05-20T14:33:11Z</time>
      </trkpt>
      <trkpt lat="43.81499" lon="5.40988">
        <ele>751</ele>
        <time>2014-05-20T14:33:15Z</time>
      </trkpt>
      <trkpt lat="43.81499" lon="5.40989">
        <ele>750</ele>
        <time>2014-05-20T14:33:19Z</time>
      </trkpt>
      <trkpt lat="43.81496" lon="5.40985">
        <ele>752</ele>
        <time>2014-05-20T14:33:32Z</time>
      </trkpt>
      <trkpt lat="43.81491" lon="5.40986">
        <ele>752</ele>
        <time>2014-05-20T14:33:38Z</time>
      </trkpt>
      <trkpt lat="43.81491" lon="5.40988">
        <ele>752</ele>
        <time>2014-05-20T14:33:40Z</time>
      </trkpt>
      <trkpt lat="43.81489" lon="5.40989">
        <ele>752</ele>
        <time>2014-05-20T14:33:42Z</time>
      </trkpt>
      <trkpt lat="43.81487" lon="5.4099">
        <ele>752</ele>
        <time>2014-05-20T14:33:44Z</time>
      </trkpt>
      <trkpt lat="43.81482" lon="5.40988">
        <ele>754</ele>
        <time>2014-05-20T14:33:48Z</time>
      </trkpt>
      <trkpt lat="43.81475" lon="5.40986">
        <ele>756</ele>
        <time>2014-05-20T14:33:52Z</time>
      </trkpt>
      <trkpt lat="43.8147" lon="5.40983">
        <ele>757</ele>
        <time>2014-05-20T14:33:55Z</time>
      </trkpt>
      <trkpt lat="43.81468" lon="5.40983">
        <ele>757</ele>
        <time>2014-05-20T14:33:58Z</time>
      </trkpt>
      <trkpt lat="43.81464" lon="5.40983">
        <ele>758</ele>
        <time>2014-05-20T14:34:02Z</time>
      </trkpt>
      <trkpt lat="43.8146" lon="5.40984">
        <ele>758</ele>
        <time>2014-05-20T14:34:06Z</time>
      </trkpt>
      <trkpt lat="43.81458" lon="5.40985">
        <ele>759</ele>
        <time>2014-05-20T14:34:10Z</time>
      </trkpt>
      <trkpt lat="43.81455" lon="5.40985">
        <ele>759</ele>
        <time>2014-05-20T14:34:12Z</time>
      </trkpt>
      <trkpt lat="43.81453" lon="5.40986">
        <ele>759</ele>
        <time>2014-05-20T14:34:14Z</time>
      </trkpt>
      <trkpt lat="43.81451" lon="5.40988">
        <ele>760</ele>
        <time>2014-05-20T14:34:16Z</time>
      </trkpt>
      <trkpt lat="43.81446" lon="5.4099">
        <ele>760</ele>
        <time>2014-05-20T14:34:20Z</time>
      </trkpt>
      <trkpt lat="43.81444" lon="5.4099">
        <ele>761</ele>
        <time>2014-05-20T14:34:22Z</time>
      </trkpt>
      <trkpt lat="43.8144" lon="5.40991">
        <ele>761</ele>
        <time>2014-05-20T14:34:25Z</time>
      </trkpt>
      <trkpt lat="43.81439" lon="5.40992">
        <ele>761</ele>
        <time>2014-05-20T14:34:26Z</time>
      </trkpt>
      <trkpt lat="43.81434" lon="5.40994">
        <ele>762</ele>
        <time>2014-05-20T14:34:30Z</time>
      </trkpt>
      <trkpt lat="43.81432" lon="5.40995">
        <ele>762</ele>
        <time>2014-05-20T14:34:33Z</time>
      </trkpt>
      <trkpt lat="43.81431" lon="5.40997">
        <ele>762</ele>
        <time>2014-05-20T14:34:34Z</time>
      </trkpt>
      <trkpt lat="43.81429" lon="5.41">
        <ele>763</ele>
        <time>2014-05-20T14:34:40Z</time>
      </trkpt>
      <trkpt lat="43.81429" lon="5.41002">
        <ele>763</ele>
        <time>2014-05-20T14:34:42Z</time>
      </trkpt>
      <trkpt lat="43.8143" lon="5.41003">
        <ele>762</ele>
        <time>2014-05-20T14:34:45Z</time>
      </trkpt>
      <trkpt lat="43.81431" lon="5.41004">
        <ele>762</ele>
        <time>2014-05-20T14:34:47Z</time>
      </trkpt>
      <trkpt lat="43.81431" lon="5.41007">
        <ele>762</ele>
        <time>2014-05-20T14:34:53Z</time>
      </trkpt>
      <trkpt lat="43.81431" lon="5.41009">
        <ele>762</ele>
        <time>2014-05-20T14:35:00Z</time>
      </trkpt>
      <trkpt lat="43.81431" lon="5.4101">
        <ele>763</ele>
        <time>2014-05-20T14:35:02Z</time>
      </trkpt>
      <trkpt lat="43.81429" lon="5.41011">
        <ele>763</ele>
        <time>2014-05-20T14:35:12Z</time>
      </trkpt>
      <trkpt lat="43.81428" lon="5.41013">
        <ele>763</ele>
        <time>2014-05-20T14:35:15Z</time>
      </trkpt>
      <trkpt lat="43.81424" lon="5.41013">
        <ele>763</ele>
        <time>2014-05-20T14:35:20Z</time>
      </trkpt>
      <trkpt lat="43.8142" lon="5.41012">
        <ele>763</ele>
        <time>2014-05-20T14:35:25Z</time>
      </trkpt>
      <trkpt lat="43.81419" lon="5.41013">
        <ele>763</ele>
        <time>2014-05-20T14:35:27Z</time>
      </trkpt>
      <trkpt lat="43.81415" lon="5.41013">
        <ele>768</ele>
        <time>2014-05-20T14:35:31Z</time>
      </trkpt>
      <trkpt lat="43.81412" lon="5.41014">
        <ele>769</ele>
        <time>2014-05-20T14:35:34Z</time>
      </trkpt>
      <trkpt lat="43.81408" lon="5.41015">
        <ele>770</ele>
        <time>2014-05-20T14:35:39Z</time>
      </trkpt>
      <trkpt lat="43.81406" lon="5.41015">
        <ele>770</ele>
        <time>2014-05-20T14:35:41Z</time>
      </trkpt>
      <trkpt lat="43.81403" lon="5.41014">
        <ele>770</ele>
        <time>2014-05-20T14:35:44Z</time>
      </trkpt>
      <trkpt lat="43.81402" lon="5.41015">
        <ele>771</ele>
        <time>2014-05-20T14:35:46Z</time>
      </trkpt>
      <trkpt lat="43.81401" lon="5.41016">
        <ele>771</ele>
        <time>2014-05-20T14:35:48Z</time>
      </trkpt>
      <trkpt lat="43.814" lon="5.41017">
        <ele>771</ele>
        <time>2014-05-20T14:35:51Z</time>
      </trkpt>
      <trkpt lat="43.814" lon="5.41018">
        <ele>771</ele>
        <time>2014-05-20T14:35:52Z</time>
      </trkpt>
      <trkpt lat="43.81399" lon="5.41019">
        <ele>772</ele>
        <time>2014-05-20T14:35:54Z</time>
      </trkpt>
      <trkpt lat="43.81399" lon="5.41019">
        <ele>772</ele>
        <time>2014-05-20T14:35:55Z</time>
      </trkpt>
      <trkpt lat="43.81396" lon="5.41019">
        <ele>772</ele>
        <time>2014-05-20T14:35:59Z</time>
      </trkpt>
      <trkpt lat="43.81395" lon="5.41019">
        <ele>773</ele>
        <time>2014-05-20T14:36:01Z</time>
      </trkpt>
      <trkpt lat="43.81395" lon="5.41022">
        <ele>773</ele>
        <time>2014-05-20T14:36:05Z</time>
      </trkpt>
      <trkpt lat="43.81394" lon="5.41023">
        <ele>773</ele>
        <time>2014-05-20T14:36:08Z</time>
      </trkpt>
      <trkpt lat="43.81392" lon="5.41024">
        <ele>773</ele>
        <time>2014-05-20T14:36:11Z</time>
      </trkpt>
      <trkpt lat="43.81392" lon="5.41025">
        <ele>773</ele>
        <time>2014-05-20T14:36:13Z</time>
      </trkpt>
      <trkpt lat="43.81391" lon="5.41025">
        <ele>774</ele>
        <time>2014-05-20T14:36:14Z</time>
      </trkpt>
      <trkpt lat="43.81388" lon="5.41026">
        <ele>774</ele>
        <time>2014-05-20T14:36:18Z</time>
      </trkpt>
      <trkpt lat="43.81386" lon="5.41025">
        <ele>774</ele>
        <time>2014-05-20T14:36:22Z</time>
      </trkpt>
      <trkpt lat="43.81382" lon="5.41025">
        <ele>775</ele>
        <time>2014-05-20T14:36:28Z</time>
      </trkpt>
      <trkpt lat="43.81377" lon="5.41025">
        <ele>775</ele>
        <time>2014-05-20T14:36:35Z</time>
      </trkpt>
      <trkpt lat="43.81375" lon="5.41025">
        <ele>776</ele>
        <time>2014-05-20T14:36:37Z</time>
      </trkpt>
      <trkpt lat="43.81371" lon="5.41025">
        <ele>776</ele>
        <time>2014-05-20T14:36:39Z</time>
      </trkpt>
      <trkpt lat="43.81367" lon="5.41025">
        <ele>777</ele>
        <time>2014-05-20T14:36:42Z</time>
      </trkpt>
      <trkpt lat="43.81363" lon="5.41028">
        <ele>777</ele>
        <time>2014-05-20T14:36:45Z</time>
      </trkpt>
      <trkpt lat="43.81361" lon="5.41028">
        <ele>777</ele>
        <time>2014-05-20T14:36:47Z</time>
      </trkpt>
      <trkpt lat="43.81354" lon="5.4103">
        <ele>778</ele>
        <time>2014-05-20T14:36:53Z</time>
      </trkpt>
      <trkpt lat="43.81354" lon="5.41031">
        <ele>778</ele>
        <time>2014-05-20T14:36:54Z</time>
      </trkpt>
      <trkpt lat="43.81349" lon="5.41032">
        <ele>779</ele>
        <time>2014-05-20T14:36:58Z</time>
      </trkpt>
      <trkpt lat="43.81339" lon="5.41034">
        <ele>779</ele>
        <time>2014-05-20T14:37:06Z</time>
      </trkpt>
      <trkpt lat="43.81333" lon="5.41037">
        <ele>792</ele>
        <time>2014-05-20T14:37:12Z</time>
      </trkpt>
      <trkpt lat="43.81331" lon="5.41037">
        <ele>792</ele>
        <time>2014-05-20T14:37:14Z</time>
      </trkpt>
      <trkpt lat="43.81327" lon="5.41037">
        <ele>792</ele>
        <time>2014-05-20T14:37:17Z</time>
      </trkpt>
      <trkpt lat="43.81317" lon="5.41039">
        <ele>793</ele>
        <time>2014-05-20T14:37:26Z</time>
      </trkpt>
      <trkpt lat="43.81317" lon="5.41039">
        <ele>793</ele>
        <time>2014-05-20T14:37:27Z</time>
      </trkpt>
      <trkpt lat="43.81313" lon="5.41039">
        <ele>793</ele>
        <time>2014-05-20T14:37:32Z</time>
      </trkpt>
      <trkpt lat="43.8131" lon="5.41041">
        <ele>794</ele>
        <time>2014-05-20T14:37:38Z</time>
      </trkpt>
      <trkpt lat="43.81309" lon="5.41041">
        <ele>794</ele>
        <time>2014-05-20T14:37:40Z</time>
      </trkpt>
      <trkpt lat="43.81308" lon="5.41042">
        <ele>794</ele>
        <time>2014-05-20T14:37:41Z</time>
      </trkpt>
      <trkpt lat="43.81305" lon="5.41044">
        <ele>794</ele>
        <time>2014-05-20T14:37:46Z</time>
      </trkpt>
      <trkpt lat="43.81304" lon="5.41043">
        <ele>794</ele>
        <time>2014-05-20T14:37:47Z</time>
      </trkpt>
      <trkpt lat="43.81301" lon="5.41044">
        <ele>795</ele>
        <time>2014-05-20T14:37:50Z</time>
      </trkpt>
      <trkpt lat="43.81298" lon="5.41043">
        <ele>795</ele>
        <time>2014-05-20T14:37:53Z</time>
      </trkpt>
      <trkpt lat="43.81293" lon="5.41044">
        <ele>796</ele>
        <time>2014-05-20T14:37:59Z</time>
      </trkpt>
      <trkpt lat="43.81289" lon="5.41046">
        <ele>796</ele>
        <time>2014-05-20T14:38:03Z</time>
      </trkpt>
      <trkpt lat="43.81286" lon="5.41047">
        <ele>797</ele>
        <time>2014-05-20T14:38:06Z</time>
      </trkpt>
      <trkpt lat="43.81284" lon="5.41048">
        <ele>797</ele>
        <time>2014-05-20T14:38:11Z</time>
      </trkpt>
      <trkpt lat="43.81282" lon="5.41051">
        <ele>797</ele>
        <time>2014-05-20T14:38:18Z</time>
      </trkpt>
      <trkpt lat="43.81281" lon="5.41052">
        <ele>797</ele>
        <time>2014-05-20T14:38:21Z</time>
      </trkpt>
      <trkpt lat="43.8128" lon="5.41055">
        <ele>797</ele>
        <time>2014-05-20T14:38:26Z</time>
      </trkpt>
      <trkpt lat="43.81279" lon="5.41056">
        <ele>797</ele>
        <time>2014-05-20T14:38:28Z</time>
      </trkpt>
      <trkpt lat="43.81278" lon="5.41057">
        <ele>798</ele>
        <time>2014-05-20T14:38:31Z</time>
      </trkpt>
      <trkpt lat="43.81273" lon="5.41054">
        <ele>798</ele>
        <time>2014-05-20T14:38:39Z</time>
      </trkpt>
      <trkpt lat="43.81271" lon="5.41054">
        <ele>798</ele>
        <time>2014-05-20T14:38:42Z</time>
      </trkpt>
      <trkpt lat="43.8127" lon="5.41053">
        <ele>798</ele>
        <time>2014-05-20T14:38:44Z</time>
      </trkpt>
      <trkpt lat="43.81268" lon="5.41051">
        <ele>799</ele>
        <time>2014-05-20T14:38:48Z</time>
      </trkpt>
      <trkpt lat="43.81267" lon="5.41051">
        <ele>799</ele>
        <time>2014-05-20T14:38:49Z</time>
      </trkpt>
      <trkpt lat="43.81267" lon="5.41049">
        <ele>799</ele>
        <time>2014-05-20T14:38:52Z</time>
      </trkpt>
      <trkpt lat="43.81265" lon="5.41048">
        <ele>799</ele>
        <time>2014-05-20T14:38:57Z</time>
      </trkpt>
      <trkpt lat="43.81264" lon="5.41045">
        <ele>799</ele>
        <time>2014-05-20T14:39:03Z</time>
      </trkpt>
      <trkpt lat="43.81262" lon="5.41045">
        <ele>799</ele>
        <time>2014-05-20T14:39:06Z</time>
      </trkpt>
      <trkpt lat="43.81262" lon="5.41046">
        <ele>799</ele>
        <time>2014-05-20T14:39:09Z</time>
      </trkpt>
      <trkpt lat="43.81263" lon="5.41048">
        <ele>799</ele>
        <time>2014-05-20T14:39:20Z</time>
      </trkpt>
      <trkpt lat="43.81263" lon="5.41048">
        <ele>799</ele>
        <time>2014-05-20T14:39:27Z</time>
      </trkpt>
      <trkpt lat="43.81262" lon="5.41049">
        <ele>799</ele>
        <time>2014-05-20T14:39:34Z</time>
      </trkpt>
      <trkpt lat="43.81259" lon="5.4105">
        <ele>799</ele>
        <time>2014-05-20T14:39:48Z</time>
      </trkpt>
      <trkpt lat="43.81259" lon="5.4105">
        <ele>799</ele>
        <time>2014-05-20T14:39:50Z</time>
      </trkpt>
      <trkpt lat="43.81256" lon="5.41051">
        <ele>800</ele>
        <time>2014-05-20T14:40:00Z</time>
      </trkpt>
      <trkpt lat="43.81256" lon="5.41051">
        <ele>800</ele>
        <time>2014-05-20T14:40:04Z</time>
      </trkpt>
      <trkpt lat="43.81255" lon="5.41048">
        <ele>800</ele>
        <time>2014-05-20T14:40:07Z</time>
      </trkpt>
      <trkpt lat="43.81254" lon="5.41048">
        <ele>800</ele>
        <time>2014-05-20T14:40:10Z</time>
      </trkpt>
      <trkpt lat="43.81253" lon="5.41048">
        <ele>800</ele>
        <time>2014-05-20T14:40:14Z</time>
      </trkpt>
      <trkpt lat="43.81252" lon="5.41048">
        <ele>800</ele>
        <time>2014-05-20T14:40:16Z</time>
      </trkpt>
      <trkpt lat="43.8125" lon="5.41049">
        <ele>815</ele>
        <time>2014-05-20T14:40:22Z</time>
      </trkpt>
      <trkpt lat="43.81246" lon="5.4105">
        <ele>815</ele>
        <time>2014-05-20T14:40:30Z</time>
      </trkpt>
      <trkpt lat="43.81246" lon="5.4105">
        <ele>815</ele>
        <time>2014-05-20T14:40:33Z</time>
      </trkpt>
      <trkpt lat="43.81249" lon="5.41049">
        <ele>815</ele>
        <time>2014-05-20T14:40:45Z</time>
      </trkpt>
      <trkpt lat="43.81255" lon="5.41047">
        <ele>800</ele>
        <time>2014-05-20T14:40:59Z</time>
      </trkpt>
      <trkpt lat="43.81256" lon="5.41045">
        <ele>800</ele>
        <time>2014-05-20T14:41:05Z</time>
      </trkpt>
      <trkpt lat="43.81256" lon="5.41043">
        <ele>800</ele>
        <time>2014-05-20T14:41:09Z</time>
      </trkpt>
      <trkpt lat="43.81257" lon="5.41046">
        <ele>800</ele>
        <time>2014-05-20T14:41:19Z</time>
      </trkpt>
      <trkpt lat="43.81257" lon="5.41047">
        <ele>800</ele>
        <time>2014-05-20T14:41:23Z</time>
      </trkpt>
      <trkpt lat="43.81258" lon="5.41044">
        <ele>800</ele>
        <time>2014-05-20T14:41:30Z</time>
      </trkpt>
      <trkpt lat="43.81257" lon="5.41044">
        <ele>800</ele>
        <time>2014-05-20T14:41:33Z</time>
      </trkpt>
      <trkpt lat="43.81256" lon="5.41042">
        <ele>800</ele>
        <time>2014-05-20T14:41:36Z</time>
      </trkpt>
      <trkpt lat="43.81255" lon="5.41042">
        <ele>800</ele>
        <time>2014-05-20T14:41:37Z</time>
      </trkpt>
      <trkpt lat="43.81254" lon="5.41042">
        <ele>800</ele>
        <time>2014-05-20T14:41:39Z</time>
      </trkpt>
      <trkpt lat="43.81252" lon="5.41042">
        <ele>800</ele>
        <time>2014-05-20T14:41:41Z</time>
      </trkpt>
      <trkpt lat="43.81251" lon="5.41041">
        <ele>800</ele>
        <time>2014-05-20T14:41:43Z</time>
      </trkpt>
      <trkpt lat="43.81245" lon="5.41039">
        <ele>816</ele>
        <time>2014-05-20T14:41:48Z</time>
      </trkpt>
      <trkpt lat="43.81244" lon="5.41039">
        <ele>816</ele>
        <time>2014-05-20T14:41:49Z</time>
      </trkpt>
      <trkpt lat="43.81244" lon="5.4104">
        <ele>816</ele>
        <time>2014-05-20T14:41:50Z</time>
      </trkpt>
      <trkpt lat="43.81242" lon="5.4104">
        <ele>817</ele>
        <time>2014-05-20T14:41:55Z</time>
      </trkpt>
      <trkpt lat="43.81241" lon="5.41041">
        <ele>817</ele>
        <time>2014-05-20T14:41:59Z</time>
      </trkpt>
      <trkpt lat="43.81242" lon="5.41045">
        <ele>816</ele>
        <time>2014-05-20T14:42:06Z</time>
      </trkpt>
      <trkpt lat="43.81243" lon="5.41047">
        <ele>816</ele>
        <time>2014-05-20T14:42:10Z</time>
      </trkpt>
      <trkpt lat="43.81242" lon="5.41052">
        <ele>815</ele>
        <time>2014-05-20T14:42:18Z</time>
      </trkpt>
      <trkpt lat="43.81243" lon="5.41056">
        <ele>815</ele>
        <time>2014-05-20T14:42:22Z</time>
      </trkpt>
      <trkpt lat="43.81245" lon="5.41057">
        <ele>814</ele>
        <time>2014-05-20T14:42:24Z</time>
      </trkpt>
      <trkpt lat="43.81247" lon="5.41059">
        <ele>814</ele>
        <time>2014-05-20T14:42:26Z</time>
      </trkpt>
      <trkpt lat="43.81253" lon="5.41067">
        <ele>800</ele>
        <time>2014-05-20T14:42:33Z</time>
      </trkpt>
      <trkpt lat="43.81254" lon="5.41067">
        <ele>800</ele>
        <time>2014-05-20T14:42:35Z</time>
      </trkpt>
      <trkpt lat="43.81257" lon="5.41069">
        <ele>800</ele>
        <time>2014-05-20T14:42:38Z</time>
      </trkpt>
      <trkpt lat="43.81259" lon="5.41074">
        <ele>800</ele>
        <time>2014-05-20T14:42:43Z</time>
      </trkpt>
      <trkpt lat="43.81258" lon="5.41077">
        <ele>801</ele>
        <time>2014-05-20T14:42:47Z</time>
      </trkpt>
      <trkpt lat="43.81257" lon="5.41077">
        <ele>801</ele>
        <time>2014-05-20T14:42:49Z</time>
      </trkpt>
      <trkpt lat="43.81253" lon="5.41075">
        <ele>801</ele>
        <time>2014-05-20T14:42:56Z</time>
      </trkpt>
      <trkpt lat="43.8125" lon="5.41075">
        <ele>808</ele>
        <time>2014-05-20T14:42:59Z</time>
      </trkpt>
      <trkpt lat="43.81249" lon="5.41075">
        <ele>808</ele>
        <time>2014-05-20T14:43:00Z</time>
      </trkpt>
      <trkpt lat="43.81246" lon="5.41074">
        <ele>809</ele>
        <time>2014-05-20T14:43:04Z</time>
      </trkpt>
      <trkpt lat="43.81244" lon="5.41075">
        <ele>809</ele>
        <time>2014-05-20T14:43:07Z</time>
      </trkpt>
      <trkpt lat="43.81243" lon="5.41076">
        <ele>809</ele>
        <time>2014-05-20T14:43:08Z</time>
      </trkpt>
      <trkpt lat="43.81243" lon="5.41076">
        <ele>809</ele>
        <time>2014-05-20T14:43:09Z</time>
      </trkpt>
      <trkpt lat="43.8124" lon="5.41075">
        <ele>810</ele>
        <time>2014-05-20T14:43:13Z</time>
      </trkpt>
      <trkpt lat="43.81239" lon="5.41076">
        <ele>811</ele>
        <time>2014-05-20T14:43:14Z</time>
      </trkpt>
      <trkpt lat="43.81234" lon="5.41074">
        <ele>813</ele>
        <time>2014-05-20T14:43:21Z</time>
      </trkpt>
      <trkpt lat="43.81233" lon="5.41075">
        <ele>813</ele>
        <time>2014-05-20T14:43:22Z</time>
      </trkpt>
      <trkpt lat="43.81232" lon="5.41075">
        <ele>813</ele>
        <time>2014-05-20T14:43:23Z</time>
      </trkpt>
      <trkpt lat="43.8123" lon="5.41077">
        <ele>813</ele>
        <time>2014-05-20T14:43:26Z</time>
      </trkpt>
      <trkpt lat="43.81229" lon="5.41077">
        <ele>814</ele>
        <time>2014-05-20T14:43:29Z</time>
      </trkpt>
      <trkpt lat="43.81226" lon="5.41076">
        <ele>815</ele>
        <time>2014-05-20T14:43:34Z</time>
      </trkpt>
      <trkpt lat="43.81225" lon="5.41074">
        <ele>815</ele>
        <time>2014-05-20T14:43:37Z</time>
      </trkpt>
      <trkpt lat="43.81222" lon="5.41073">
        <ele>816</ele>
        <time>2014-05-20T14:43:41Z</time>
      </trkpt>
      <trkpt lat="43.8122" lon="5.41073">
        <ele>817</ele>
        <time>2014-05-20T14:43:44Z</time>
      </trkpt>
      <trkpt lat="43.81217" lon="5.41072">
        <ele>817</ele>
        <time>2014-05-20T14:43:47Z</time>
      </trkpt>
      <trkpt lat="43.81216" lon="5.41073">
        <ele>818</ele>
        <time>2014-05-20T14:43:50Z</time>
      </trkpt>
      <trkpt lat="43.81215" lon="5.41073">
        <ele>818</ele>
        <time>2014-05-20T14:43:51Z</time>
      </trkpt>
      <trkpt lat="43.81215" lon="5.41075">
        <ele>818</ele>
        <time>2014-05-20T14:43:53Z</time>
      </trkpt>
      <trkpt lat="43.81218" lon="5.41077">
        <ele>817</ele>
        <time>2014-05-20T14:43:56Z</time>
      </trkpt>
      <trkpt lat="43.81219" lon="5.4108">
        <ele>817</ele>
        <time>2014-05-20T14:43:58Z</time>
      </trkpt>
      <trkpt lat="43.81221" lon="5.41083">
        <ele>816</ele>
        <time>2014-05-20T14:44:01Z</time>
      </trkpt>
      <trkpt lat="43.81222" lon="5.41084">
        <ele>819</ele>
        <time>2014-05-20T14:44:02Z</time>
      </trkpt>
      <trkpt lat="43.81224" lon="5.41085">
        <ele>818</ele>
        <time>2014-05-20T14:44:05Z</time>
      </trkpt>
      <trkpt lat="43.81226" lon="5.41088">
        <ele>818</ele>
        <time>2014-05-20T14:44:08Z</time>
      </trkpt>
      <trkpt lat="43.81228" lon="5.41089">
        <ele>817</ele>
        <time>2014-05-20T14:44:10Z</time>
      </trkpt>
      <trkpt lat="43.81228" lon="5.4109">
        <ele>817</ele>
        <time>2014-05-20T14:44:11Z</time>
      </trkpt>
      <trkpt lat="43.81232" lon="5.41093">
        <ele>816</ele>
        <time>2014-05-20T14:44:16Z</time>
      </trkpt>
      <trkpt lat="43.81234" lon="5.41097">
        <ele>817</ele>
        <time>2014-05-20T14:44:20Z</time>
      </trkpt>
      <trkpt lat="43.81237" lon="5.41102">
        <ele>817</ele>
        <time>2014-05-20T14:44:25Z</time>
      </trkpt>
      <trkpt lat="43.81237" lon="5.41106">
        <ele>819</ele>
        <time>2014-05-20T14:44:31Z</time>
      </trkpt>
      <trkpt lat="43.81236" lon="5.41107">
        <ele>819</ele>
        <time>2014-05-20T14:44:32Z</time>
      </trkpt>
      <trkpt lat="43.81233" lon="5.41108">
        <ele>820</ele>
        <time>2014-05-20T14:44:35Z</time>
      </trkpt>
      <trkpt lat="43.81231" lon="5.41109">
        <ele>821</ele>
        <time>2014-05-20T14:44:42Z</time>
      </trkpt>
      <trkpt lat="43.8123" lon="5.41108">
        <ele>821</ele>
        <time>2014-05-20T14:44:44Z</time>
      </trkpt>
      <trkpt lat="43.81229" lon="5.41109">
        <ele>821</ele>
        <time>2014-05-20T14:44:46Z</time>
      </trkpt>
      <trkpt lat="43.81226" lon="5.41108">
        <ele>821</ele>
        <time>2014-05-20T14:44:51Z</time>
      </trkpt>
      <trkpt lat="43.81226" lon="5.41109">
        <ele>822</ele>
        <time>2014-05-20T14:44:53Z</time>
      </trkpt>
      <trkpt lat="43.81223" lon="5.41107">
        <ele>822</ele>
        <time>2014-05-20T14:44:57Z</time>
      </trkpt>
      <trkpt lat="43.81221" lon="5.41105">
        <ele>822</ele>
        <time>2014-05-20T14:44:59Z</time>
      </trkpt>
      <trkpt lat="43.81215" lon="5.41102">
        <ele>823</ele>
        <time>2014-05-20T14:45:06Z</time>
      </trkpt>
      <trkpt lat="43.81213" lon="5.41102">
        <ele>823</ele>
        <time>2014-05-20T14:45:08Z</time>
      </trkpt>
      <trkpt lat="43.81211" lon="5.41101">
        <ele>823</ele>
        <time>2014-05-20T14:45:10Z</time>
      </trkpt>
      <trkpt lat="43.81209" lon="5.411">
        <ele>824</ele>
        <time>2014-05-20T14:45:11Z</time>
      </trkpt>
      <trkpt lat="43.81208" lon="5.411">
        <ele>824</ele>
        <time>2014-05-20T14:45:12Z</time>
      </trkpt>
      <trkpt lat="43.81206" lon="5.41098">
        <ele>824</ele>
        <time>2014-05-20T14:45:14Z</time>
      </trkpt>
      <trkpt lat="43.81204" lon="5.41097">
        <ele>825</ele>
        <time>2014-05-20T14:45:16Z</time>
      </trkpt>
      <trkpt lat="43.81203" lon="5.41096">
        <ele>825</ele>
        <time>2014-05-20T14:45:18Z</time>
      </trkpt>
      <trkpt lat="43.81201" lon="5.41096">
        <ele>825</ele>
        <time>2014-05-20T14:45:20Z</time>
      </trkpt>
      <trkpt lat="43.81199" lon="5.41096">
        <ele>825</ele>
        <time>2014-05-20T14:45:23Z</time>
      </trkpt>
      <trkpt lat="43.81198" lon="5.41096">
        <ele>826</ele>
        <time>2014-05-20T14:45:25Z</time>
      </trkpt>
      <trkpt lat="43.81194" lon="5.41095">
        <ele>826</ele>
        <time>2014-05-20T14:45:30Z</time>
      </trkpt>
      <trkpt lat="43.81194" lon="5.41095">
        <ele>826</ele>
        <time>2014-05-20T14:45:31Z</time>
      </trkpt>
      <trkpt lat="43.81193" lon="5.41094">
        <ele>826</ele>
        <time>2014-05-20T14:45:33Z</time>
      </trkpt>
      <trkpt lat="43.8119" lon="5.41095">
        <ele>827</ele>
        <time>2014-05-20T14:45:38Z</time>
      </trkpt>
      <trkpt lat="43.81187" lon="5.41095">
        <ele>827</ele>
        <time>2014-05-20T14:45:46Z</time>
      </trkpt>
      <trkpt lat="43.81186" lon="5.41094">
        <ele>827</ele>
        <time>2014-05-20T14:45:48Z</time>
      </trkpt>
      <trkpt lat="43.81185" lon="5.41093">
        <ele>827</ele>
        <time>2014-05-20T14:45:49Z</time>
      </trkpt>
      <trkpt lat="43.81185" lon="5.41092">
        <ele>827</ele>
        <time>2014-05-20T14:45:50Z</time>
      </trkpt>
      <trkpt lat="43.81185" lon="5.41091">
        <ele>827</ele>
        <time>2014-05-20T14:45:51Z</time>
      </trkpt>
      <trkpt lat="43.81181" lon="5.41088">
        <ele>828</ele>
        <time>2014-05-20T14:45:58Z</time>
      </trkpt>
      <trkpt lat="43.8118" lon="5.41086">
        <ele>828</ele>
        <time>2014-05-20T14:46:01Z</time>
      </trkpt>
      <trkpt lat="43.81175" lon="5.41085">
        <ele>829</ele>
        <time>2014-05-20T14:46:08Z</time>
      </trkpt>
      <trkpt lat="43.81171" lon="5.41083">
        <ele>828</ele>
        <time>2014-05-20T14:46:14Z</time>
      </trkpt>
      <trkpt lat="43.81171" lon="5.41083">
        <ele>829</ele>
        <time>2014-05-20T14:46:15Z</time>
      </trkpt>
      <trkpt lat="43.81172" lon="5.41081">
        <ele>828</ele>
        <time>2014-05-20T14:46:22Z</time>
      </trkpt>
      <trkpt lat="43.81168" lon="5.41082">
        <ele>829</ele>
        <time>2014-05-20T14:46:27Z</time>
      </trkpt>
      <trkpt lat="43.81165" lon="5.41082">
        <ele>832</ele>
        <time>2014-05-20T14:46:29Z</time>
      </trkpt>
      <trkpt lat="43.81167" lon="5.41082">
        <ele>831</ele>
        <time>2014-05-20T14:46:33Z</time>
      </trkpt>
      <trkpt lat="43.81167" lon="5.41082">
        <ele>830</ele>
        <time>2014-05-20T14:46:34Z</time>
      </trkpt>
      <trkpt lat="43.81167" lon="5.41084">
        <ele>830</ele>
        <time>2014-05-20T14:46:37Z</time>
      </trkpt>
      <trkpt lat="43.81168" lon="5.41085">
        <ele>830</ele>
        <time>2014-05-20T14:46:39Z</time>
      </trkpt>
      <trkpt lat="43.8117" lon="5.41083">
        <ele>829</ele>
        <time>2014-05-20T14:46:43Z</time>
      </trkpt>
      <trkpt lat="43.81172" lon="5.41082">
        <ele>828</ele>
        <time>2014-05-20T14:46:46Z</time>
      </trkpt>
      <trkpt lat="43.81173" lon="5.4108">
        <ele>828</ele>
        <time>2014-05-20T14:46:54Z</time>
      </trkpt>
      <trkpt lat="43.81177" lon="5.4108">
        <ele>827</ele>
        <time>2014-05-20T14:47:02Z</time>
      </trkpt>
      <trkpt lat="43.81179" lon="5.4108">
        <ele>826</ele>
        <time>2014-05-20T14:47:05Z</time>
      </trkpt>
      <trkpt lat="43.8118" lon="5.41079">
        <ele>826</ele>
        <time>2014-05-20T14:47:11Z</time>
      </trkpt>
      <trkpt lat="43.8118" lon="5.41078">
        <ele>826</ele>
        <time>2014-05-20T14:47:13Z</time>
      </trkpt>
      <trkpt lat="43.8118" lon="5.41078">
        <ele>826</ele>
        <time>2014-05-20T14:47:17Z</time>
      </trkpt>
      <trkpt lat="43.81179" lon="5.41078">
        <ele>826</ele>
        <time>2014-05-20T14:47:22Z</time>
      </trkpt>
      <trkpt lat="43.81176" lon="5.41081">
        <ele>827</ele>
        <time>2014-05-20T14:47:38Z</time>
      </trkpt>
      <trkpt lat="43.81175" lon="5.41084">
        <ele>829</ele>
        <time>2014-05-20T14:47:41Z</time>
      </trkpt>
      <trkpt lat="43.81176" lon="5.41086">
        <ele>829</ele>
        <time>2014-05-20T14:47:44Z</time>
      </trkpt>
      <trkpt lat="43.81175" lon="5.41086">
        <ele>829</ele>
        <time>2014-05-20T14:47:45Z</time>
      </trkpt>
      <trkpt lat="43.81177" lon="5.4109">
        <ele>828</ele>
        <time>2014-05-20T14:47:50Z</time>
      </trkpt>
      <trkpt lat="43.81178" lon="5.41092">
        <ele>828</ele>
        <time>2014-05-20T14:47:52Z</time>
      </trkpt>
      <trkpt lat="43.8118" lon="5.41095">
        <ele>828</ele>
        <time>2014-05-20T14:47:55Z</time>
      </trkpt>
      <trkpt lat="43.81182" lon="5.411">
        <ele>828</ele>
        <time>2014-05-20T14:48:00Z</time>
      </trkpt>
      <trkpt lat="43.81184" lon="5.41104">
        <ele>828</ele>
        <time>2014-05-20T14:48:05Z</time>
      </trkpt>
      <trkpt lat="43.81186" lon="5.41109">
        <ele>828</ele>
        <time>2014-05-20T14:48:12Z</time>
      </trkpt>
      <trkpt lat="43.81189" lon="5.41115">
        <ele>828</ele>
        <time>2014-05-20T14:48:18Z</time>
      </trkpt>
      <trkpt lat="43.81189" lon="5.41116">
        <ele>828</ele>
        <time>2014-05-20T14:48:19Z</time>
      </trkpt>
      <trkpt lat="43.81191" lon="5.41122">
        <ele>829</ele>
        <time>2014-05-20T14:48:25Z</time>
      </trkpt>
      <trkpt lat="43.8119" lon="5.41124">
        <ele>829</ele>
        <time>2014-05-20T14:48:27Z</time>
      </trkpt>
      <trkpt lat="43.81189" lon="5.41125">
        <ele>829</ele>
        <time>2014-05-20T14:48:28Z</time>
      </trkpt>
      <trkpt lat="43.81188" lon="5.41127">
        <ele>830</ele>
        <time>2014-05-20T14:48:30Z</time>
      </trkpt>
      <trkpt lat="43.81185" lon="5.41126">
        <ele>830</ele>
        <time>2014-05-20T14:48:34Z</time>
      </trkpt>
      <trkpt lat="43.81183" lon="5.41127">
        <ele>830</ele>
        <time>2014-05-20T14:48:37Z</time>
      </trkpt>
      <trkpt lat="43.81181" lon="5.41126">
        <ele>830</ele>
        <time>2014-05-20T14:48:39Z</time>
      </trkpt>
      <trkpt lat="43.8118" lon="5.41126">
        <ele>830</ele>
        <time>2014-05-20T14:48:41Z</time>
      </trkpt>
      <trkpt lat="43.81179" lon="5.41126">
        <ele>830</ele>
        <time>2014-05-20T14:48:43Z</time>
      </trkpt>
      <trkpt lat="43.81177" lon="5.41127">
        <ele>831</ele>
        <time>2014-05-20T14:48:46Z</time>
      </trkpt>
      <trkpt lat="43.81173" lon="5.41126">
        <ele>831</ele>
        <time>2014-05-20T14:48:51Z</time>
      </trkpt>
      <trkpt lat="43.81172" lon="5.41127">
        <ele>831</ele>
        <time>2014-05-20T14:48:54Z</time>
      </trkpt>
      <trkpt lat="43.81169" lon="5.41125">
        <ele>831</ele>
        <time>2014-05-20T14:48:58Z</time>
      </trkpt>
      <trkpt lat="43.81166" lon="5.41125">
        <ele>843</ele>
        <time>2014-05-20T14:49:02Z</time>
      </trkpt>
      <trkpt lat="43.81162" lon="5.41123">
        <ele>843</ele>
        <time>2014-05-20T14:49:07Z</time>
      </trkpt>
      <trkpt lat="43.81159" lon="5.41122">
        <ele>843</ele>
        <time>2014-05-20T14:49:10Z</time>
      </trkpt>
      <trkpt lat="43.81153" lon="5.41118">
        <ele>843</ele>
        <time>2014-05-20T14:49:19Z</time>
      </trkpt>
      <trkpt lat="43.8115" lon="5.41116">
        <ele>843</ele>
        <time>2014-05-20T14:49:22Z</time>
      </trkpt>
      <trkpt lat="43.81148" lon="5.41116">
        <ele>843</ele>
        <time>2014-05-20T14:49:24Z</time>
      </trkpt>
      <trkpt lat="43.81146" lon="5.41116">
        <ele>843</ele>
        <time>2014-05-20T14:49:26Z</time>
      </trkpt>
      <trkpt lat="43.81145" lon="5.41116">
        <ele>843</ele>
        <time>2014-05-20T14:49:27Z</time>
      </trkpt>
      <trkpt lat="43.81144" lon="5.41115">
        <ele>843</ele>
        <time>2014-05-20T14:49:29Z</time>
      </trkpt>
      <trkpt lat="43.81142" lon="5.41114">
        <ele>844</ele>
        <time>2014-05-20T14:49:31Z</time>
      </trkpt>
      <trkpt lat="43.81137" lon="5.41114">
        <ele>844</ele>
        <time>2014-05-20T14:49:37Z</time>
      </trkpt>
      <trkpt lat="43.81132" lon="5.41112">
        <ele>845</ele>
        <time>2014-05-20T14:49:42Z</time>
      </trkpt>
      <trkpt lat="43.81129" lon="5.41109">
        <ele>845</ele>
        <time>2014-05-20T14:49:45Z</time>
      </trkpt>
      <trkpt lat="43.81125" lon="5.41107">
        <ele>845</ele>
        <time>2014-05-20T14:49:50Z</time>
      </trkpt>
      <trkpt lat="43.81122" lon="5.41106">
        <ele>846</ele>
        <time>2014-05-20T14:49:53Z</time>
      </trkpt>
      <trkpt lat="43.8112" lon="5.41105">
        <ele>846</ele>
        <time>2014-05-20T14:49:56Z</time>
      </trkpt>
      <trkpt lat="43.81117" lon="5.41105">
        <ele>847</ele>
        <time>2014-05-20T14:49:59Z</time>
      </trkpt>
      <trkpt lat="43.81115" lon="5.41104">
        <ele>847</ele>
        <time>2014-05-20T14:50:01Z</time>
      </trkpt>
      <trkpt lat="43.81114" lon="5.41104">
        <ele>847</ele>
        <time>2014-05-20T14:50:02Z</time>
      </trkpt>
      <trkpt lat="43.81113" lon="5.41104">
        <ele>847</ele>
        <time>2014-05-20T14:50:04Z</time>
      </trkpt>
      <trkpt lat="43.81111" lon="5.41106">
        <ele>848</ele>
        <time>2014-05-20T14:50:07Z</time>
      </trkpt>
      <trkpt lat="43.81109" lon="5.41111">
        <ele>848</ele>
        <time>2014-05-20T14:50:13Z</time>
      </trkpt>
      <trkpt lat="43.81109" lon="5.41115">
        <ele>848</ele>
        <time>2014-05-20T14:50:18Z</time>
      </trkpt>
      <trkpt lat="43.81108" lon="5.41123">
        <ele>848</ele>
        <time>2014-05-20T14:50:26Z</time>
      </trkpt>
      <trkpt lat="43.81106" lon="5.41129">
        <ele>848</ele>
        <time>2014-05-20T14:50:31Z</time>
      </trkpt>
      <trkpt lat="43.81106" lon="5.41137">
        <ele>848</ele>
        <time>2014-05-20T14:50:38Z</time>
      </trkpt>
      <trkpt lat="43.81102" lon="5.41149">
        <ele>849</ele>
        <time>2014-05-20T14:50:47Z</time>
      </trkpt>
      <trkpt lat="43.81102" lon="5.41155">
        <ele>850</ele>
        <time>2014-05-20T14:50:52Z</time>
      </trkpt>
      <trkpt lat="43.811" lon="5.41164">
        <ele>850</ele>
        <time>2014-05-20T14:51:00Z</time>
      </trkpt>
      <trkpt lat="43.81101" lon="5.41174">
        <ele>852</ele>
        <time>2014-05-20T14:51:08Z</time>
      </trkpt>
      <trkpt lat="43.811" lon="5.41177">
        <ele>852</ele>
        <time>2014-05-20T14:51:10Z</time>
      </trkpt>
      <trkpt lat="43.81098" lon="5.41179">
        <ele>852</ele>
        <time>2014-05-20T14:51:14Z</time>
      </trkpt>
      <trkpt lat="43.81096" lon="5.41179">
        <ele>852</ele>
        <time>2014-05-20T14:51:19Z</time>
      </trkpt>
      <trkpt lat="43.81095" lon="5.41178">
        <ele>852</ele>
        <time>2014-05-20T14:51:29Z</time>
      </trkpt>
      <trkpt lat="43.81095" lon="5.41177">
        <ele>852</ele>
        <time>2014-05-20T14:51:35Z</time>
      </trkpt>
      <trkpt lat="43.81093" lon="5.41176">
        <ele>852</ele>
        <time>2014-05-20T14:51:50Z</time>
      </trkpt>
      <trkpt lat="43.81093" lon="5.41177">
        <ele>852</ele>
        <time>2014-05-20T14:51:52Z</time>
      </trkpt>
      <trkpt lat="43.81093" lon="5.41176">
        <ele>852</ele>
        <time>2014-05-20T14:51:56Z</time>
      </trkpt>
      <trkpt lat="43.81093" lon="5.41177">
        <ele>852</ele>
        <time>2014-05-20T14:52:02Z</time>
      </trkpt>
      <trkpt lat="43.81094" lon="5.41177">
        <ele>852</ele>
        <time>2014-05-20T14:52:11Z</time>
      </trkpt>
      <trkpt lat="43.81094" lon="5.41177">
        <ele>852</ele>
        <time>2014-05-20T14:52:15Z</time>
      </trkpt>
      <trkpt lat="43.81094" lon="5.41177">
        <ele>852</ele>
        <time>2014-05-20T14:52:37Z</time>
      </trkpt>
      <trkpt lat="43.81094" lon="5.41178">
        <ele>852</ele>
        <time>2014-05-20T14:52:44Z</time>
      </trkpt>
      <trkpt lat="43.81094" lon="5.41178">
        <ele>852</ele>
        <time>2014-05-20T14:52:49Z</time>
      </trkpt>
      <trkpt lat="43.81091" lon="5.41177">
        <ele>852</ele>
        <time>2014-05-20T14:52:57Z</time>
      </trkpt>
      <trkpt lat="43.81091" lon="5.41177">
        <ele>852</ele>
        <time>2014-05-20T14:53:00Z</time>
      </trkpt>
      <trkpt lat="43.81092" lon="5.41176">
        <ele>852</ele>
        <time>2014-05-20T14:53:05Z</time>
      </trkpt>
      <trkpt lat="43.81091" lon="5.41178">
        <ele>852</ele>
        <time>2014-05-20T14:53:12Z</time>
      </trkpt>
      <trkpt lat="43.81092" lon="5.41178">
        <ele>852</ele>
        <time>2014-05-20T14:53:16Z</time>
      </trkpt>
      <trkpt lat="43.81092" lon="5.41178">
        <ele>852</ele>
        <time>2014-05-20T14:53:19Z</time>
      </trkpt>
      <trkpt lat="43.81089" lon="5.41175">
        <ele>853</ele>
        <time>2014-05-20T14:53:26Z</time>
      </trkpt>
      <trkpt lat="43.81078" lon="5.41164">
        <ele>854</ele>
        <time>2014-05-20T14:53:42Z</time>
      </trkpt>
      <trkpt lat="43.81075" lon="5.41159">
        <ele>853</ele>
        <time>2014-05-20T14:53:46Z</time>
      </trkpt>
      <trkpt lat="43.81071" lon="5.41156">
        <ele>853</ele>
        <time>2014-05-20T14:53:51Z</time>
      </trkpt>
      <trkpt lat="43.81069" lon="5.41153">
        <ele>853</ele>
        <time>2014-05-20T14:53:55Z</time>
      </trkpt>
      <trkpt lat="43.81064" lon="5.41147">
        <ele>853</ele>
        <time>2014-05-20T14:54:02Z</time>
      </trkpt>
      <trkpt lat="43.8106" lon="5.41142">
        <ele>853</ele>
        <time>2014-05-20T14:54:07Z</time>
      </trkpt>
      <trkpt lat="43.81057" lon="5.41139">
        <ele>853</ele>
        <time>2014-05-20T14:54:11Z</time>
      </trkpt>
      <trkpt lat="43.81049" lon="5.41127">
        <ele>853</ele>
        <time>2014-05-20T14:54:23Z</time>
      </trkpt>
      <trkpt lat="43.81045" lon="5.41119">
        <ele>853</ele>
        <time>2014-05-20T14:54:31Z</time>
      </trkpt>
      <trkpt lat="43.81044" lon="5.41115">
        <ele>853</ele>
        <time>2014-05-20T14:54:34Z</time>
      </trkpt>
      <trkpt lat="43.81042" lon="5.41111">
        <ele>853</ele>
        <time>2014-05-20T14:54:37Z</time>
      </trkpt>
      <trkpt lat="43.8104" lon="5.41104">
        <ele>853</ele>
        <time>2014-05-20T14:54:43Z</time>
      </trkpt>
      <trkpt lat="43.81039" lon="5.41101">
        <ele>853</ele>
        <time>2014-05-20T14:54:45Z</time>
      </trkpt>
      <trkpt lat="43.81038" lon="5.41098">
        <ele>853</ele>
        <time>2014-05-20T14:54:47Z</time>
      </trkpt>
      <trkpt lat="43.81033" lon="5.41087">
        <ele>854</ele>
        <time>2014-05-20T14:54:56Z</time>
      </trkpt>
      <trkpt lat="43.81031" lon="5.41083">
        <ele>858</ele>
        <time>2014-05-20T14:55:00Z</time>
      </trkpt>
      <trkpt lat="43.81028" lon="5.4108">
        <ele>858</ele>
        <time>2014-05-20T14:55:04Z</time>
      </trkpt>
      <trkpt lat="43.81026" lon="5.41071">
        <ele>859</ele>
        <time>2014-05-20T14:55:10Z</time>
      </trkpt>
      <trkpt lat="43.81023" lon="5.41069">
        <ele>859</ele>
        <time>2014-05-20T14:55:13Z</time>
      </trkpt>
      <trkpt lat="43.81018" lon="5.41058">
        <ele>859</ele>
        <time>2014-05-20T14:55:21Z</time>
      </trkpt>
      <trkpt lat="43.81017" lon="5.41054">
        <ele>859</ele>
        <time>2014-05-20T14:55:24Z</time>
      </trkpt>
      <trkpt lat="43.81013" lon="5.41049">
        <ele>860</ele>
        <time>2014-05-20T14:55:29Z</time>
      </trkpt>
      <trkpt lat="43.81011" lon="5.41042">
        <ele>860</ele>
        <time>2014-05-20T14:55:34Z</time>
      </trkpt>
      <trkpt lat="43.81008" lon="5.41035">
        <ele>861</ele>
        <time>2014-05-20T14:55:41Z</time>
      </trkpt>
      <trkpt lat="43.81001" lon="5.41008">
        <ele>864</ele>
        <time>2014-05-20T14:56:00Z</time>
      </trkpt>
      <trkpt lat="43.81001" lon="5.41007">
        <ele>864</ele>
        <time>2014-05-20T14:56:01Z</time>
      </trkpt>
      <trkpt lat="43.80997" lon="5.40996">
        <ele>865</ele>
        <time>2014-05-20T14:56:09Z</time>
      </trkpt>
      <trkpt lat="43.80995" lon="5.40992">
        <ele>865</ele>
        <time>2014-05-20T14:56:12Z</time>
      </trkpt>
      <trkpt lat="43.80992" lon="5.40984">
        <ele>865</ele>
        <time>2014-05-20T14:56:18Z</time>
      </trkpt>
      <trkpt lat="43.80988" lon="5.40978">
        <ele>865</ele>
        <time>2014-05-20T14:56:24Z</time>
      </trkpt>
      <trkpt lat="43.80986" lon="5.40974">
        <ele>865</ele>
        <time>2014-05-20T14:56:27Z</time>
      </trkpt>
      <trkpt lat="43.80983" lon="5.40969">
        <ele>865</ele>
        <time>2014-05-20T14:56:32Z</time>
      </trkpt>
      <trkpt lat="43.80983" lon="5.40968">
        <ele>865</ele>
        <time>2014-05-20T14:56:33Z</time>
      </trkpt>
      <trkpt lat="43.80976" lon="5.4096">
        <ele>865</ele>
        <time>2014-05-20T14:56:41Z</time>
      </trkpt>
      <trkpt lat="43.80975" lon="5.40957">
        <ele>866</ele>
        <time>2014-05-20T14:56:43Z</time>
      </trkpt>
      <trkpt lat="43.80972" lon="5.40953">
        <ele>866</ele>
        <time>2014-05-20T14:56:46Z</time>
      </trkpt>
      <trkpt lat="43.80967" lon="5.40945">
        <ele>866</ele>
        <time>2014-05-20T14:56:52Z</time>
      </trkpt>
      <trkpt lat="43.80963" lon="5.40938">
        <ele>866</ele>
        <time>2014-05-20T14:56:58Z</time>
      </trkpt>
      <trkpt lat="43.80962" lon="5.40935">
        <ele>866</ele>
        <time>2014-05-20T14:57:00Z</time>
      </trkpt>
      <trkpt lat="43.80959" lon="5.40929">
        <ele>866</ele>
        <time>2014-05-20T14:57:05Z</time>
      </trkpt>
      <trkpt lat="43.80956" lon="5.40917">
        <ele>871</ele>
        <time>2014-05-20T14:57:13Z</time>
      </trkpt>
      <trkpt lat="43.80956" lon="5.40915">
        <ele>871</ele>
        <time>2014-05-20T14:57:14Z</time>
      </trkpt>
      <trkpt lat="43.80955" lon="5.40905">
        <ele>871</ele>
        <time>2014-05-20T14:57:21Z</time>
      </trkpt>
      <trkpt lat="43.80956" lon="5.40895">
        <ele>871</ele>
        <time>2014-05-20T14:57:28Z</time>
      </trkpt>
      <trkpt lat="43.80955" lon="5.40887">
        <ele>871</ele>
        <time>2014-05-20T14:57:34Z</time>
      </trkpt>
      <trkpt lat="43.80956" lon="5.40883">
        <ele>871</ele>
        <time>2014-05-20T14:57:37Z</time>
      </trkpt>
      <trkpt lat="43.80957" lon="5.40871">
        <ele>871</ele>
        <time>2014-05-20T14:57:45Z</time>
      </trkpt>
      <trkpt lat="43.80966" lon="5.40851">
        <ele>873</ele>
        <time>2014-05-20T14:58:00Z</time>
      </trkpt>
      <trkpt lat="43.80972" lon="5.40841">
        <ele>874</ele>
        <time>2014-05-20T14:58:11Z</time>
      </trkpt>
      <trkpt lat="43.8097" lon="5.4084">
        <ele>874</ele>
        <time>2014-05-20T14:58:16Z</time>
      </trkpt>
      <trkpt lat="43.8097" lon="5.40842">
        <ele>874</ele>
        <time>2014-05-20T14:58:23Z</time>
      </trkpt>
      <trkpt lat="43.80971" lon="5.40842">
        <ele>874</ele>
        <time>2014-05-20T14:58:34Z</time>
      </trkpt>
      <trkpt lat="43.80971" lon="5.40843">
        <ele>874</ele>
        <time>2014-05-20T14:58:45Z</time>
      </trkpt>
      <trkpt lat="43.80972" lon="5.40841">
        <ele>874</ele>
        <time>2014-05-20T14:58:51Z</time>
      </trkpt>
      <trkpt lat="43.80973" lon="5.40836">
        <ele>875</ele>
        <time>2014-05-20T14:58:55Z</time>
      </trkpt>
      <trkpt lat="43.80981" lon="5.40825">
        <ele>875</ele>
        <time>2014-05-20T14:59:05Z</time>
      </trkpt>
      <trkpt lat="43.80984" lon="5.40819">
        <ele>875</ele>
        <time>2014-05-20T14:59:10Z</time>
      </trkpt>
      <trkpt lat="43.80987" lon="5.4081">
        <ele>874</ele>
        <time>2014-05-20T14:59:17Z</time>
      </trkpt>
      <trkpt lat="43.8099" lon="5.40806">
        <ele>874</ele>
        <time>2014-05-20T14:59:21Z</time>
      </trkpt>
      <trkpt lat="43.80993" lon="5.40798">
        <ele>873</ele>
        <time>2014-05-20T14:59:27Z</time>
      </trkpt>
      <trkpt lat="43.80997" lon="5.40788">
        <ele>873</ele>
        <time>2014-05-20T14:59:35Z</time>
      </trkpt>
      <trkpt lat="43.81002" lon="5.40776">
        <ele>882</ele>
        <time>2014-05-20T14:59:44Z</time>
      </trkpt>
      <trkpt lat="43.81004" lon="5.40771">
        <ele>882</ele>
        <time>2014-05-20T14:59:48Z</time>
      </trkpt>
      <trkpt lat="43.81008" lon="5.40763">
        <ele>881</ele>
        <time>2014-05-20T14:59:54Z</time>
      </trkpt>
      <trkpt lat="43.8101" lon="5.40755">
        <ele>880</ele>
        <time>2014-05-20T15:00:00Z</time>
      </trkpt>
      <trkpt lat="43.81017" lon="5.40736">
        <ele>880</ele>
        <time>2014-05-20T15:00:14Z</time>
      </trkpt>
      <trkpt lat="43.81018" lon="5.40732">
        <ele>880</ele>
        <time>2014-05-20T15:00:17Z</time>
      </trkpt>
      <trkpt lat="43.81019" lon="5.40729">
        <ele>880</ele>
        <time>2014-05-20T15:00:19Z</time>
      </trkpt>
      <trkpt lat="43.81023" lon="5.40713">
        <ele>881</ele>
        <time>2014-05-20T15:00:30Z</time>
      </trkpt>
      <trkpt lat="43.81025" lon="5.40702">
        <ele>881</ele>
        <time>2014-05-20T15:00:38Z</time>
      </trkpt>
      <trkpt lat="43.81027" lon="5.40692">
        <ele>880</ele>
        <time>2014-05-20T15:00:44Z</time>
      </trkpt>
      <trkpt lat="43.81028" lon="5.40678">
        <ele>880</ele>
        <time>2014-05-20T15:00:53Z</time>
      </trkpt>
      <trkpt lat="43.81031" lon="5.40657">
        <ele>879</ele>
        <time>2014-05-20T15:01:06Z</time>
      </trkpt>
      <trkpt lat="43.81032" lon="5.40645">
        <ele>879</ele>
        <time>2014-05-20T15:01:14Z</time>
      </trkpt>
      <trkpt lat="43.81033" lon="5.4064">
        <ele>880</ele>
        <time>2014-05-20T15:01:17Z</time>
      </trkpt>
      <trkpt lat="43.81033" lon="5.40628">
        <ele>880</ele>
        <time>2014-05-20T15:01:25Z</time>
      </trkpt>
      <trkpt lat="43.81031" lon="5.40609">
        <ele>880</ele>
        <time>2014-05-20T15:01:37Z</time>
      </trkpt>
      <trkpt lat="43.81029" lon="5.40599">
        <ele>880</ele>
        <time>2014-05-20T15:01:43Z</time>
      </trkpt>
      <trkpt lat="43.81028" lon="5.40595">
        <ele>881</ele>
        <time>2014-05-20T15:01:46Z</time>
      </trkpt>
      <trkpt lat="43.81026" lon="5.40589">
        <ele>881</ele>
        <time>2014-05-20T15:01:50Z</time>
      </trkpt>
      <trkpt lat="43.81024" lon="5.40585">
        <ele>881</ele>
        <time>2014-05-20T15:01:53Z</time>
      </trkpt>
      <trkpt lat="43.81021" lon="5.40583">
        <ele>880</ele>
        <time>2014-05-20T15:01:56Z</time>
      </trkpt>
      <trkpt lat="43.81021" lon="5.40581">
        <ele>880</ele>
        <time>2014-05-20T15:01:57Z</time>
      </trkpt>
      <trkpt lat="43.81018" lon="5.40578">
        <ele>880</ele>
        <time>2014-05-20T15:02:00Z</time>
      </trkpt>
      <trkpt lat="43.81015" lon="5.40576">
        <ele>880</ele>
        <time>2014-05-20T15:02:03Z</time>
      </trkpt>
      <trkpt lat="43.81012" lon="5.40575">
        <ele>881</ele>
        <time>2014-05-20T15:02:06Z</time>
      </trkpt>
      <trkpt lat="43.81006" lon="5.40572">
        <ele>881</ele>
        <time>2014-05-20T15:02:12Z</time>
      </trkpt>
      <trkpt lat="43.80995" lon="5.40567">
        <ele>882</ele>
        <time>2014-05-20T15:02:23Z</time>
      </trkpt>
      <trkpt lat="43.80993" lon="5.40567">
        <ele>882</ele>
        <time>2014-05-20T15:02:25Z</time>
      </trkpt>
      <trkpt lat="43.8099" lon="5.40565">
        <ele>882</ele>
        <time>2014-05-20T15:02:28Z</time>
      </trkpt>
      <trkpt lat="43.80984" lon="5.40561">
        <ele>881</ele>
        <time>2014-05-20T15:02:34Z</time>
      </trkpt>
      <trkpt lat="43.80982" lon="5.4056">
        <ele>881</ele>
        <time>2014-05-20T15:02:36Z</time>
      </trkpt>
      <trkpt lat="43.80979" lon="5.40559">
        <ele>881</ele>
        <time>2014-05-20T15:02:39Z</time>
      </trkpt>
      <trkpt lat="43.80969" lon="5.40553">
        <ele>881</ele>
        <time>2014-05-20T15:02:49Z</time>
      </trkpt>
      <trkpt lat="43.80959" lon="5.40548">
        <ele>880</ele>
        <time>2014-05-20T15:02:58Z</time>
      </trkpt>
      <trkpt lat="43.80953" lon="5.40547">
        <ele>880</ele>
        <time>2014-05-20T15:03:03Z</time>
      </trkpt>
      <trkpt lat="43.8095" lon="5.40548">
        <ele>880</ele>
        <time>2014-05-20T15:03:07Z</time>
      </trkpt>
      <trkpt lat="43.80945" lon="5.40547">
        <ele>880</ele>
        <time>2014-05-20T15:03:12Z</time>
      </trkpt>
      <trkpt lat="43.80936" lon="5.40547">
        <ele>880</ele>
        <time>2014-05-20T15:03:19Z</time>
      </trkpt>
      <trkpt lat="43.80932" lon="5.40547">
        <ele>880</ele>
        <time>2014-05-20T15:03:22Z</time>
      </trkpt>
      <trkpt lat="43.80926" lon="5.40549">
        <ele>880</ele>
        <time>2014-05-20T15:03:27Z</time>
      </trkpt>
      <trkpt lat="43.8092" lon="5.40549">
        <ele>880</ele>
        <time>2014-05-20T15:03:31Z</time>
      </trkpt>
      <trkpt lat="43.80918" lon="5.4055">
        <ele>880</ele>
        <time>2014-05-20T15:03:33Z</time>
      </trkpt>
      <trkpt lat="43.80908" lon="5.40551">
        <ele>879</ele>
        <time>2014-05-20T15:03:41Z</time>
      </trkpt>
      <trkpt lat="43.80905" lon="5.40552">
        <ele>879</ele>
        <time>2014-05-20T15:03:43Z</time>
      </trkpt>
      <trkpt lat="43.80902" lon="5.40553">
        <ele>879</ele>
        <time>2014-05-20T15:03:46Z</time>
      </trkpt>
      <trkpt lat="43.80891" lon="5.40554">
        <ele>879</ele>
        <time>2014-05-20T15:03:55Z</time>
      </trkpt>
      <trkpt lat="43.80877" lon="5.40551">
        <ele>879</ele>
        <time>2014-05-20T15:04:08Z</time>
      </trkpt>
      <trkpt lat="43.80876" lon="5.40552">
        <ele>879</ele>
        <time>2014-05-20T15:04:09Z</time>
      </trkpt>
      <trkpt lat="43.8087" lon="5.4055">
        <ele>879</ele>
        <time>2014-05-20T15:04:14Z</time>
      </trkpt>
      <trkpt lat="43.80867" lon="5.40548">
        <ele>879</ele>
        <time>2014-05-20T15:04:17Z</time>
      </trkpt>
      <trkpt lat="43.80858" lon="5.40543">
        <ele>879</ele>
        <time>2014-05-20T15:04:25Z</time>
      </trkpt>
      <trkpt lat="43.80851" lon="5.40537">
        <ele>879</ele>
        <time>2014-05-20T15:04:32Z</time>
      </trkpt>
      <trkpt lat="43.80846" lon="5.40531">
        <ele>879</ele>
        <time>2014-05-20T15:04:37Z</time>
      </trkpt>
      <trkpt lat="43.80842" lon="5.40524">
        <ele>879</ele>
        <time>2014-05-20T15:04:42Z</time>
      </trkpt>
      <trkpt lat="43.8084" lon="5.40519">
        <ele>880</ele>
        <time>2014-05-20T15:04:46Z</time>
      </trkpt>
      <trkpt lat="43.80836" lon="5.40513">
        <ele>880</ele>
        <time>2014-05-20T15:04:50Z</time>
      </trkpt>
      <trkpt lat="43.80834" lon="5.40509">
        <ele>880</ele>
        <time>2014-05-20T15:04:53Z</time>
      </trkpt>
      <trkpt lat="43.80832" lon="5.40505">
        <ele>880</ele>
        <time>2014-05-20T15:04:56Z</time>
      </trkpt>
      <trkpt lat="43.8083" lon="5.40499">
        <ele>881</ele>
        <time>2014-05-20T15:05:00Z</time>
      </trkpt>
      <trkpt lat="43.80824" lon="5.40488">
        <ele>880</ele>
        <time>2014-05-20T15:05:08Z</time>
      </trkpt>
      <trkpt lat="43.80819" lon="5.40476">
        <ele>879</ele>
        <time>2014-05-20T15:05:18Z</time>
      </trkpt>
      <trkpt lat="43.80813" lon="5.40466">
        <ele>878</ele>
        <time>2014-05-20T15:05:28Z</time>
      </trkpt>
      <trkpt lat="43.80813" lon="5.40467">
        <ele>878</ele>
        <time>2014-05-20T15:05:31Z</time>
      </trkpt>
      <trkpt lat="43.80812" lon="5.40466">
        <ele>878</ele>
        <time>2014-05-20T15:05:37Z</time>
      </trkpt>
      <trkpt lat="43.80811" lon="5.40463">
        <ele>878</ele>
        <time>2014-05-20T15:05:58Z</time>
      </trkpt>
      <trkpt lat="43.80809" lon="5.40461">
        <ele>878</ele>
        <time>2014-05-20T15:06:01Z</time>
      </trkpt>
      <trkpt lat="43.80808" lon="5.40457">
        <ele>878</ele>
        <time>2014-05-20T15:06:04Z</time>
      </trkpt>
      <trkpt lat="43.80802" lon="5.40448">
        <ele>878</ele>
        <time>2014-05-20T15:06:13Z</time>
      </trkpt>
      <trkpt lat="43.808" lon="5.40444">
        <ele>878</ele>
        <time>2014-05-20T15:06:17Z</time>
      </trkpt>
      <trkpt lat="43.80792" lon="5.40423">
        <ele>878</ele>
        <time>2014-05-20T15:06:34Z</time>
      </trkpt>
      <trkpt lat="43.80791" lon="5.40417">
        <ele>877</ele>
        <time>2014-05-20T15:06:38Z</time>
      </trkpt>
      <trkpt lat="43.80789" lon="5.40398">
        <ele>877</ele>
        <time>2014-05-20T15:06:50Z</time>
      </trkpt>
      <trkpt lat="43.80789" lon="5.4039">
        <ele>877</ele>
        <time>2014-05-20T15:06:55Z</time>
      </trkpt>
      <trkpt lat="43.8079" lon="5.40387">
        <ele>877</ele>
        <time>2014-05-20T15:06:57Z</time>
      </trkpt>
      <trkpt lat="43.80789" lon="5.40374">
        <ele>877</ele>
        <time>2014-05-20T15:07:06Z</time>
      </trkpt>
      <trkpt lat="43.80788" lon="5.40357">
        <ele>877</ele>
        <time>2014-05-20T15:07:18Z</time>
      </trkpt>
      <trkpt lat="43.80784" lon="5.40336">
        <ele>877</ele>
        <time>2014-05-20T15:07:33Z</time>
      </trkpt>
      <trkpt lat="43.80783" lon="5.40329">
        <ele>876</ele>
        <time>2014-05-20T15:07:38Z</time>
      </trkpt>
      <trkpt lat="43.80782" lon="5.40323">
        <ele>876</ele>
        <time>2014-05-20T15:07:42Z</time>
      </trkpt>
      <trkpt lat="43.80781" lon="5.40317">
        <ele>876</ele>
        <time>2014-05-20T15:07:46Z</time>
      </trkpt>
      <trkpt lat="43.80775" lon="5.40296">
        <ele>876</ele>
        <time>2014-05-20T15:08:00Z</time>
      </trkpt>
      <trkpt lat="43.80773" lon="5.40282">
        <ele>876</ele>
        <time>2014-05-20T15:08:10Z</time>
      </trkpt>
      <trkpt lat="43.80772" lon="5.40278">
        <ele>876</ele>
        <time>2014-05-20T15:08:12Z</time>
      </trkpt>
      <trkpt lat="43.80769" lon="5.40264">
        <ele>876</ele>
        <time>2014-05-20T15:08:22Z</time>
      </trkpt>
      <trkpt lat="43.80764" lon="5.40257">
        <ele>876</ele>
        <time>2014-05-20T15:08:29Z</time>
      </trkpt>
      <trkpt lat="43.80761" lon="5.40252">
        <ele>876</ele>
        <time>2014-05-20T15:08:33Z</time>
      </trkpt>
      <trkpt lat="43.80757" lon="5.40245">
        <ele>876</ele>
        <time>2014-05-20T15:08:39Z</time>
      </trkpt>
      <trkpt lat="43.80751" lon="5.40235">
        <ele>875</ele>
        <time>2014-05-20T15:08:48Z</time>
      </trkpt>
      <trkpt lat="43.80747" lon="5.40229">
        <ele>875</ele>
        <time>2014-05-20T15:08:54Z</time>
      </trkpt>
      <trkpt lat="43.80742" lon="5.40221">
        <ele>874</ele>
        <time>2014-05-20T15:09:00Z</time>
      </trkpt>
      <trkpt lat="43.80741" lon="5.40218">
        <ele>874</ele>
        <time>2014-05-20T15:09:02Z</time>
      </trkpt>
      <trkpt lat="43.80741" lon="5.40204">
        <ele>874</ele>
        <time>2014-05-20T15:09:11Z</time>
      </trkpt>
      <trkpt lat="43.8074" lon="5.40196">
        <ele>874</ele>
        <time>2014-05-20T15:09:16Z</time>
      </trkpt>
      <trkpt lat="43.80735" lon="5.40179">
        <ele>874</ele>
        <time>2014-05-20T15:09:27Z</time>
      </trkpt>
      <trkpt lat="43.80734" lon="5.40172">
        <ele>875</ele>
        <time>2014-05-20T15:09:31Z</time>
      </trkpt>
      <trkpt lat="43.8073" lon="5.40156">
        <ele>875</ele>
        <time>2014-05-20T15:09:41Z</time>
      </trkpt>
      <trkpt lat="43.80728" lon="5.40144">
        <ele>875</ele>
        <time>2014-05-20T15:09:48Z</time>
      </trkpt>
      <trkpt lat="43.80728" lon="5.40137">
        <ele>875</ele>
        <time>2014-05-20T15:09:53Z</time>
      </trkpt>
      <trkpt lat="43.80728" lon="5.40131">
        <ele>875</ele>
        <time>2014-05-20T15:09:57Z</time>
      </trkpt>
      <trkpt lat="43.80729" lon="5.40125">
        <ele>875</ele>
        <time>2014-05-20T15:10:02Z</time>
      </trkpt>
      <trkpt lat="43.80733" lon="5.40119">
        <ele>876</ele>
        <time>2014-05-20T15:10:09Z</time>
      </trkpt>
      <trkpt lat="43.80734" lon="5.40117">
        <ele>876</ele>
        <time>2014-05-20T15:10:11Z</time>
      </trkpt>
      <trkpt lat="43.80735" lon="5.40117">
        <ele>876</ele>
        <time>2014-05-20T15:10:14Z</time>
      </trkpt>
      <trkpt lat="43.80737" lon="5.40115">
        <ele>876</ele>
        <time>2014-05-20T15:10:17Z</time>
      </trkpt>
      <trkpt lat="43.8074" lon="5.40109">
        <ele>876</ele>
        <time>2014-05-20T15:10:23Z</time>
      </trkpt>
      <trkpt lat="43.80741" lon="5.40107">
        <ele>876</ele>
        <time>2014-05-20T15:10:25Z</time>
      </trkpt>
      <trkpt lat="43.80743" lon="5.40105">
        <ele>876</ele>
        <time>2014-05-20T15:10:37Z</time>
      </trkpt>
      <trkpt lat="43.80748" lon="5.40094">
        <ele>877</ele>
        <time>2014-05-20T15:10:47Z</time>
      </trkpt>
      <trkpt lat="43.8075" lon="5.40091">
        <ele>877</ele>
        <time>2014-05-20T15:10:50Z</time>
      </trkpt>
      <trkpt lat="43.80753" lon="5.40084">
        <ele>877</ele>
        <time>2014-05-20T15:10:56Z</time>
      </trkpt>
      <trkpt lat="43.80761" lon="5.40073">
        <ele>877</ele>
        <time>2014-05-20T15:11:06Z</time>
      </trkpt>
      <trkpt lat="43.80765" lon="5.40066">
        <ele>876</ele>
        <time>2014-05-20T15:11:12Z</time>
      </trkpt>
      <trkpt lat="43.80774" lon="5.40053">
        <ele>876</ele>
        <time>2014-05-20T15:11:24Z</time>
      </trkpt>
      <trkpt lat="43.80776" lon="5.40048">
        <ele>876</ele>
        <time>2014-05-20T15:11:28Z</time>
      </trkpt>
      <trkpt lat="43.80779" lon="5.40045">
        <ele>876</ele>
        <time>2014-05-20T15:11:31Z</time>
      </trkpt>
      <trkpt lat="43.80783" lon="5.40039">
        <ele>876</ele>
        <time>2014-05-20T15:11:36Z</time>
      </trkpt>
      <trkpt lat="43.80785" lon="5.40035">
        <ele>876</ele>
        <time>2014-05-20T15:11:39Z</time>
      </trkpt>
      <trkpt lat="43.80787" lon="5.40032">
        <ele>876</ele>
        <time>2014-05-20T15:11:42Z</time>
      </trkpt>
      <trkpt lat="43.80788" lon="5.40029">
        <ele>876</ele>
        <time>2014-05-20T15:11:44Z</time>
      </trkpt>
      <trkpt lat="43.80792" lon="5.40025">
        <ele>876</ele>
        <time>2014-05-20T15:11:48Z</time>
      </trkpt>
      <trkpt lat="43.80795" lon="5.40019">
        <ele>876</ele>
        <time>2014-05-20T15:11:53Z</time>
      </trkpt>
      <trkpt lat="43.80804" lon="5.4001">
        <ele>876</ele>
        <time>2014-05-20T15:12:03Z</time>
      </trkpt>
      <trkpt lat="43.8081" lon="5.40001">
        <ele>876</ele>
        <time>2014-05-20T15:12:12Z</time>
      </trkpt>
      <trkpt lat="43.80812" lon="5.39995">
        <ele>881</ele>
        <time>2014-05-20T15:12:17Z</time>
      </trkpt>
      <trkpt lat="43.80819" lon="5.39987">
        <ele>880</ele>
        <time>2014-05-20T15:12:26Z</time>
      </trkpt>
      <trkpt lat="43.80821" lon="5.39986">
        <ele>880</ele>
        <time>2014-05-20T15:12:27Z</time>
      </trkpt>
      <trkpt lat="43.80827" lon="5.3998">
        <ele>881</ele>
        <time>2014-05-20T15:12:36Z</time>
      </trkpt>
      <trkpt lat="43.80831" lon="5.39976">
        <ele>881</ele>
        <time>2014-05-20T15:12:41Z</time>
      </trkpt>
      <trkpt lat="43.80834" lon="5.39969">
        <ele>875</ele>
        <time>2014-05-20T15:12:48Z</time>
      </trkpt>
      <trkpt lat="43.8084" lon="5.39963">
        <ele>876</ele>
        <time>2014-05-20T15:12:55Z</time>
      </trkpt>
      <trkpt lat="43.80843" lon="5.39957">
        <ele>876</ele>
        <time>2014-05-20T15:13:00Z</time>
      </trkpt>
      <trkpt lat="43.80849" lon="5.39952">
        <ele>876</ele>
        <time>2014-05-20T15:13:07Z</time>
      </trkpt>
      <trkpt lat="43.80855" lon="5.39947">
        <ele>876</ele>
        <time>2014-05-20T15:13:14Z</time>
      </trkpt>
      <trkpt lat="43.80864" lon="5.39939">
        <ele>876</ele>
        <time>2014-05-20T15:13:29Z</time>
      </trkpt>
      <trkpt lat="43.80865" lon="5.39939">
        <ele>876</ele>
        <time>2014-05-20T15:13:32Z</time>
      </trkpt>
      <trkpt lat="43.8087" lon="5.39931">
        <ele>876</ele>
        <time>2014-05-20T15:13:41Z</time>
      </trkpt>
      <trkpt lat="43.80876" lon="5.3992">
        <ele>876</ele>
        <time>2014-05-20T15:13:51Z</time>
      </trkpt>
      <trkpt lat="43.80878" lon="5.39916">
        <ele>880</ele>
        <time>2014-05-20T15:13:55Z</time>
      </trkpt>
      <trkpt lat="43.8088" lon="5.39912">
        <ele>880</ele>
        <time>2014-05-20T15:13:58Z</time>
      </trkpt>
      <trkpt lat="43.80887" lon="5.39899">
        <ele>879</ele>
        <time>2014-05-20T15:14:08Z</time>
      </trkpt>
      <trkpt lat="43.80888" lon="5.39893">
        <ele>879</ele>
        <time>2014-05-20T15:14:12Z</time>
      </trkpt>
      <trkpt lat="43.80889" lon="5.39889">
        <ele>880</ele>
        <time>2014-05-20T15:14:15Z</time>
      </trkpt>
      <trkpt lat="43.80887" lon="5.39876">
        <ele>880</ele>
        <time>2014-05-20T15:14:24Z</time>
      </trkpt>
      <trkpt lat="43.80888" lon="5.3987">
        <ele>880</ele>
        <time>2014-05-20T15:14:30Z</time>
      </trkpt>
      <trkpt lat="43.80891" lon="5.39862">
        <ele>880</ele>
        <time>2014-05-20T15:14:43Z</time>
      </trkpt>
      <trkpt lat="43.80897" lon="5.39856">
        <ele>880</ele>
        <time>2014-05-20T15:14:57Z</time>
      </trkpt>
      <trkpt lat="43.80897" lon="5.39854">
        <ele>879</ele>
        <time>2014-05-20T15:14:59Z</time>
      </trkpt>
      <trkpt lat="43.80897" lon="5.39848">
        <ele>879</ele>
        <time>2014-05-20T15:15:03Z</time>
      </trkpt>
      <trkpt lat="43.80896" lon="5.39842">
        <ele>879</ele>
        <time>2014-05-20T15:15:08Z</time>
      </trkpt>
      <trkpt lat="43.80895" lon="5.3984">
        <ele>879</ele>
        <time>2014-05-20T15:15:10Z</time>
      </trkpt>
      <trkpt lat="43.80893" lon="5.39835">
        <ele>880</ele>
        <time>2014-05-20T15:15:15Z</time>
      </trkpt>
      <trkpt lat="43.80891" lon="5.3983">
        <ele>877</ele>
        <time>2014-05-20T15:15:20Z</time>
      </trkpt>
      <trkpt lat="43.80889" lon="5.39827">
        <ele>877</ele>
        <time>2014-05-20T15:15:24Z</time>
      </trkpt>
      <trkpt lat="43.80888" lon="5.39826">
        <ele>877</ele>
        <time>2014-05-20T15:15:26Z</time>
      </trkpt>
      <trkpt lat="43.80887" lon="5.39824">
        <ele>877</ele>
        <time>2014-05-20T15:15:29Z</time>
      </trkpt>
      <trkpt lat="43.80886" lon="5.39819">
        <ele>877</ele>
        <time>2014-05-20T15:15:33Z</time>
      </trkpt>
      <trkpt lat="43.80885" lon="5.39817">
        <ele>877</ele>
        <time>2014-05-20T15:15:35Z</time>
      </trkpt>
      <trkpt lat="43.80885" lon="5.39814">
        <ele>877</ele>
        <time>2014-05-20T15:15:38Z</time>
      </trkpt>
      <trkpt lat="43.80884" lon="5.3981">
        <ele>876</ele>
        <time>2014-05-20T15:15:42Z</time>
      </trkpt>
      <trkpt lat="43.80882" lon="5.39805">
        <ele>876</ele>
        <time>2014-05-20T15:15:48Z</time>
      </trkpt>
      <trkpt lat="43.80882" lon="5.39803">
        <ele>876</ele>
        <time>2014-05-20T15:15:50Z</time>
      </trkpt>
      <trkpt lat="43.80873" lon="5.39792">
        <ele>876</ele>
        <time>2014-05-20T15:16:06Z</time>
      </trkpt>
      <trkpt lat="43.80873" lon="5.39785">
        <ele>875</ele>
        <time>2014-05-20T15:16:15Z</time>
      </trkpt>
      <trkpt lat="43.80871" lon="5.39782">
        <ele>875</ele>
        <time>2014-05-20T15:16:18Z</time>
      </trkpt>
      <trkpt lat="43.80871" lon="5.39781">
        <ele>875</ele>
        <time>2014-05-20T15:16:19Z</time>
      </trkpt>
      <trkpt lat="43.8087" lon="5.3978">
        <ele>875</ele>
        <time>2014-05-20T15:16:20Z</time>
      </trkpt>
      <trkpt lat="43.80871" lon="5.39776">
        <ele>875</ele>
        <time>2014-05-20T15:16:23Z</time>
      </trkpt>
      <trkpt lat="43.80869" lon="5.39773">
        <ele>874</ele>
        <time>2014-05-20T15:16:28Z</time>
      </trkpt>
      <trkpt lat="43.80869" lon="5.3977">
        <ele>874</ele>
        <time>2014-05-20T15:16:32Z</time>
      </trkpt>
      <trkpt lat="43.80869" lon="5.39766">
        <ele>874</ele>
        <time>2014-05-20T15:16:36Z</time>
      </trkpt>
      <trkpt lat="43.80865" lon="5.39761">
        <ele>874</ele>
        <time>2014-05-20T15:16:43Z</time>
      </trkpt>
      <trkpt lat="43.80865" lon="5.39759">
        <ele>874</ele>
        <time>2014-05-20T15:16:45Z</time>
      </trkpt>
      <trkpt lat="43.80863" lon="5.39755">
        <ele>873</ele>
        <time>2014-05-20T15:16:48Z</time>
      </trkpt>
      <trkpt lat="43.80863" lon="5.39754">
        <ele>873</ele>
        <time>2014-05-20T15:16:50Z</time>
      </trkpt>
      <trkpt lat="43.80862" lon="5.39749">
        <ele>866</ele>
        <time>2014-05-20T15:16:55Z</time>
      </trkpt>
      <trkpt lat="43.80862" lon="5.39748">
        <ele>866</ele>
        <time>2014-05-20T15:16:56Z</time>
      </trkpt>
      <trkpt lat="43.80862" lon="5.39746">
        <ele>866</ele>
        <time>2014-05-20T15:16:58Z</time>
      </trkpt>
      <trkpt lat="43.80862" lon="5.39743">
        <ele>866</ele>
        <time>2014-05-20T15:17:01Z</time>
      </trkpt>
      <trkpt lat="43.80862" lon="5.39742">
        <ele>866</ele>
        <time>2014-05-20T15:17:05Z</time>
      </trkpt>
      <trkpt lat="43.80862" lon="5.39739">
        <ele>866</ele>
        <time>2014-05-20T15:17:09Z</time>
      </trkpt>
      <trkpt lat="43.80861" lon="5.39736">
        <ele>866</ele>
        <time>2014-05-20T15:17:17Z</time>
      </trkpt>
      <trkpt lat="43.80861" lon="5.39735">
        <ele>866</ele>
        <time>2014-05-20T15:17:19Z</time>
      </trkpt>
      <trkpt lat="43.80859" lon="5.39734">
        <ele>866</ele>
        <time>2014-05-20T15:17:23Z</time>
      </trkpt>
      <trkpt lat="43.80859" lon="5.39732">
        <ele>866</ele>
        <time>2014-05-20T15:17:27Z</time>
      </trkpt>
      <trkpt lat="43.80859" lon="5.3973">
        <ele>865</ele>
        <time>2014-05-20T15:17:36Z</time>
      </trkpt>
      <trkpt lat="43.80859" lon="5.39729">
        <ele>865</ele>
        <time>2014-05-20T15:17:37Z</time>
      </trkpt>
      <trkpt lat="43.80859" lon="5.39728">
        <ele>865</ele>
        <time>2014-05-20T15:17:41Z</time>
      </trkpt>
      <trkpt lat="43.80859" lon="5.39729">
        <ele>865</ele>
        <time>2014-05-20T15:17:44Z</time>
      </trkpt>
      <trkpt lat="43.8086" lon="5.3973">
        <ele>865</ele>
        <time>2014-05-20T15:17:50Z</time>
      </trkpt>
      <trkpt lat="43.8086" lon="5.3973">
        <ele>865</ele>
        <time>2014-05-20T15:17:54Z</time>
      </trkpt>
      <trkpt lat="43.80859" lon="5.39729">
        <ele>865</ele>
        <time>2014-05-20T15:17:58Z</time>
      </trkpt>
      <trkpt lat="43.80861" lon="5.39729">
        <ele>865</ele>
        <time>2014-05-20T15:18:06Z</time>
      </trkpt>
      <trkpt lat="43.8086" lon="5.39729">
        <ele>865</ele>
        <time>2014-05-20T15:18:08Z</time>
      </trkpt>
      <trkpt lat="43.8086" lon="5.39729">
        <ele>865</ele>
        <time>2014-05-20T15:18:10Z</time>
      </trkpt>
      <trkpt lat="43.8086" lon="5.39729">
        <ele>865</ele>
        <time>2014-05-20T15:18:14Z</time>
      </trkpt>
      <trkpt lat="43.8086" lon="5.39729">
        <ele>865</ele>
        <time>2014-05-20T15:18:20Z</time>
      </trkpt>
      <trkpt lat="43.8086" lon="5.39728">
        <ele>865</ele>
        <time>2014-05-20T15:18:24Z</time>
      </trkpt>
      <trkpt lat="43.80859" lon="5.39728">
        <ele>865</ele>
        <time>2014-05-20T15:18:28Z</time>
      </trkpt>
      <trkpt lat="43.80859" lon="5.39727">
        <ele>865</ele>
        <time>2014-05-20T15:18:30Z</time>
      </trkpt>
      <trkpt lat="43.80859" lon="5.39725">
        <ele>865</ele>
        <time>2014-05-20T15:18:33Z</time>
      </trkpt>
      <trkpt lat="43.80859" lon="5.39723">
        <ele>865</ele>
        <time>2014-05-20T15:18:36Z</time>
      </trkpt>
      <trkpt lat="43.8086" lon="5.39719">
        <ele>864</ele>
        <time>2014-05-20T15:18:41Z</time>
      </trkpt>
      <trkpt lat="43.80859" lon="5.39717">
        <ele>864</ele>
        <time>2014-05-20T15:18:44Z</time>
      </trkpt>
      <trkpt lat="43.80859" lon="5.39712">
        <ele>864</ele>
        <time>2014-05-20T15:18:50Z</time>
      </trkpt>
      <trkpt lat="43.80858" lon="5.39706">
        <ele>863</ele>
        <time>2014-05-20T15:18:57Z</time>
      </trkpt>
      <trkpt lat="43.80857" lon="5.39701">
        <ele>863</ele>
        <time>2014-05-20T15:19:03Z</time>
      </trkpt>
      <trkpt lat="43.80855" lon="5.39695">
        <ele>862</ele>
        <time>2014-05-20T15:19:11Z</time>
      </trkpt>
      <trkpt lat="43.80854" lon="5.39693">
        <ele>862</ele>
        <time>2014-05-20T15:19:13Z</time>
      </trkpt>
      <trkpt lat="43.80853" lon="5.39688">
        <ele>861</ele>
        <time>2014-05-20T15:19:17Z</time>
      </trkpt>
      <trkpt lat="43.80852" lon="5.39684">
        <ele>861</ele>
        <time>2014-05-20T15:19:21Z</time>
      </trkpt>
      <trkpt lat="43.80851" lon="5.39681">
        <ele>860</ele>
        <time>2014-05-20T15:19:24Z</time>
      </trkpt>
      <trkpt lat="43.80851" lon="5.39675">
        <ele>860</ele>
        <time>2014-05-20T15:19:28Z</time>
      </trkpt>
      <trkpt lat="43.8085" lon="5.39671">
        <ele>859</ele>
        <time>2014-05-20T15:19:31Z</time>
      </trkpt>
      <trkpt lat="43.8085" lon="5.39669">
        <ele>859</ele>
        <time>2014-05-20T15:19:33Z</time>
      </trkpt>
      <trkpt lat="43.80849" lon="5.39664">
        <ele>852</ele>
        <time>2014-05-20T15:19:38Z</time>
      </trkpt>
      <trkpt lat="43.80846" lon="5.39655">
        <ele>852</ele>
        <time>2014-05-20T15:19:46Z</time>
      </trkpt>
      <trkpt lat="43.80846" lon="5.39652">
        <ele>851</ele>
        <time>2014-05-20T15:19:48Z</time>
      </trkpt>
      <trkpt lat="43.80845" lon="5.3965">
        <ele>851</ele>
        <time>2014-05-20T15:19:51Z</time>
      </trkpt>
      <trkpt lat="43.80844" lon="5.39644">
        <ele>850</ele>
        <time>2014-05-20T15:19:59Z</time>
      </trkpt>
      <trkpt lat="43.80842" lon="5.39638">
        <ele>850</ele>
        <time>2014-05-20T15:20:06Z</time>
      </trkpt>
      <trkpt lat="43.80843" lon="5.39635">
        <ele>849</ele>
        <time>2014-05-20T15:20:11Z</time>
      </trkpt>
      <trkpt lat="43.80842" lon="5.39634">
        <ele>849</ele>
        <time>2014-05-20T15:20:13Z</time>
      </trkpt>
      <trkpt lat="43.80843" lon="5.39634">
        <ele>849</ele>
        <time>2014-05-20T15:20:14Z</time>
      </trkpt>
      <trkpt lat="43.80842" lon="5.39633">
        <ele>849</ele>
        <time>2014-05-20T15:20:15Z</time>
      </trkpt>
      <trkpt lat="43.80842" lon="5.39628">
        <ele>848</ele>
        <time>2014-05-20T15:20:21Z</time>
      </trkpt>
      <trkpt lat="43.80842" lon="5.39625">
        <ele>848</ele>
        <time>2014-05-20T15:20:24Z</time>
      </trkpt>
      <trkpt lat="43.80842" lon="5.39607">
        <ele>845</ele>
        <time>2014-05-20T15:20:41Z</time>
      </trkpt>
      <trkpt lat="43.80843" lon="5.396">
        <ele>844</ele>
        <time>2014-05-20T15:20:47Z</time>
      </trkpt>
      <trkpt lat="43.80843" lon="5.39592">
        <ele>843</ele>
        <time>2014-05-20T15:20:53Z</time>
      </trkpt>
      <trkpt lat="43.80845" lon="5.39587">
        <ele>842</ele>
        <time>2014-05-20T15:20:57Z</time>
      </trkpt>
      <trkpt lat="43.80845" lon="5.39584">
        <ele>842</ele>
        <time>2014-05-20T15:21:00Z</time>
      </trkpt>
      <trkpt lat="43.80846" lon="5.39578">
        <ele>836</ele>
        <time>2014-05-20T15:21:04Z</time>
      </trkpt>
      <trkpt lat="43.80847" lon="5.39571">
        <ele>836</ele>
        <time>2014-05-20T15:21:10Z</time>
      </trkpt>
      <trkpt lat="43.80848" lon="5.39563">
        <ele>835</ele>
        <time>2014-05-20T15:21:17Z</time>
      </trkpt>
      <trkpt lat="43.80848" lon="5.39552">
        <ele>834</ele>
        <time>2014-05-20T15:21:26Z</time>
      </trkpt>
      <trkpt lat="43.80849" lon="5.39546">
        <ele>833</ele>
        <time>2014-05-20T15:21:31Z</time>
      </trkpt>
      <trkpt lat="43.80848" lon="5.39541">
        <ele>832</ele>
        <time>2014-05-20T15:21:35Z</time>
      </trkpt>
      <trkpt lat="43.80847" lon="5.39537">
        <ele>832</ele>
        <time>2014-05-20T15:21:39Z</time>
      </trkpt>
      <trkpt lat="43.80846" lon="5.39531">
        <ele>832</ele>
        <time>2014-05-20T15:21:44Z</time>
      </trkpt>
      <trkpt lat="43.80847" lon="5.39524">
        <ele>831</ele>
        <time>2014-05-20T15:21:50Z</time>
      </trkpt>
      <trkpt lat="43.8085" lon="5.39517">
        <ele>831</ele>
        <time>2014-05-20T15:21:56Z</time>
      </trkpt>
      <trkpt lat="43.8085" lon="5.39516">
        <ele>831</ele>
        <time>2014-05-20T15:21:57Z</time>
      </trkpt>
      <trkpt lat="43.80849" lon="5.39505">
        <ele>830</ele>
        <time>2014-05-20T15:22:05Z</time>
      </trkpt>
      <trkpt lat="43.8085" lon="5.395">
        <ele>824</ele>
        <time>2014-05-20T15:22:09Z</time>
      </trkpt>
      <trkpt lat="43.8085" lon="5.39491">
        <ele>823</ele>
        <time>2014-05-20T15:22:16Z</time>
      </trkpt>
      <trkpt lat="43.80849" lon="5.39488">
        <ele>823</ele>
        <time>2014-05-20T15:22:20Z</time>
      </trkpt>
      <trkpt lat="43.80849" lon="5.39484">
        <ele>823</ele>
        <time>2014-05-20T15:22:27Z</time>
      </trkpt>
      <trkpt lat="43.80849" lon="5.39483">
        <ele>822</ele>
        <time>2014-05-20T15:22:30Z</time>
      </trkpt>
      <trkpt lat="43.80849" lon="5.39482">
        <ele>822</ele>
        <time>2014-05-20T15:22:34Z</time>
      </trkpt>
      <trkpt lat="43.80849" lon="5.39481">
        <ele>822</ele>
        <time>2014-05-20T15:22:36Z</time>
      </trkpt>
      <trkpt lat="43.80849" lon="5.39481">
        <ele>822</ele>
        <time>2014-05-20T15:22:40Z</time>
      </trkpt>
      <trkpt lat="43.80849" lon="5.39482">
        <ele>822</ele>
        <time>2014-05-20T15:22:47Z</time>
      </trkpt>
      <trkpt lat="43.80853" lon="5.39483">
        <ele>822</ele>
        <time>2014-05-20T15:22:59Z</time>
      </trkpt>
      <trkpt lat="43.80852" lon="5.39484">
        <ele>822</ele>
        <time>2014-05-20T15:23:04Z</time>
      </trkpt>
      <trkpt lat="43.80852" lon="5.39482">
        <ele>822</ele>
        <time>2014-05-20T15:23:07Z</time>
      </trkpt>
      <trkpt lat="43.80851" lon="5.39481">
        <ele>822</ele>
        <time>2014-05-20T15:23:10Z</time>
      </trkpt>
      <trkpt lat="43.8085" lon="5.39477">
        <ele>822</ele>
        <time>2014-05-20T15:23:14Z</time>
      </trkpt>
      <trkpt lat="43.8085" lon="5.39476">
        <ele>821</ele>
        <time>2014-05-20T15:23:15Z</time>
      </trkpt>
      <trkpt lat="43.80849" lon="5.39471">
        <ele>821</ele>
        <time>2014-05-20T15:23:20Z</time>
      </trkpt>
      <trkpt lat="43.80849" lon="5.39465">
        <ele>820</ele>
        <time>2014-05-20T15:23:26Z</time>
      </trkpt>
      <trkpt lat="43.80848" lon="5.39458">
        <ele>820</ele>
        <time>2014-05-20T15:23:31Z</time>
      </trkpt>
      <trkpt lat="43.80847" lon="5.39449">
        <ele>820</ele>
        <time>2014-05-20T15:23:37Z</time>
      </trkpt>
      <trkpt lat="43.80844" lon="5.39444">
        <ele>820</ele>
        <time>2014-05-20T15:23:41Z</time>
      </trkpt>
      <trkpt lat="43.80845" lon="5.39433">
        <ele>820</ele>
        <time>2014-05-20T15:23:48Z</time>
      </trkpt>
      <trkpt lat="43.80844" lon="5.3943">
        <ele>821</ele>
        <time>2014-05-20T15:23:51Z</time>
      </trkpt>
      <trkpt lat="43.80846" lon="5.39423">
        <ele>821</ele>
        <time>2014-05-20T15:23:56Z</time>
      </trkpt>
      <trkpt lat="43.80845" lon="5.39416">
        <ele>818</ele>
        <time>2014-05-20T15:24:01Z</time>
      </trkpt>
      <trkpt lat="43.80846" lon="5.39404">
        <ele>816</ele>
        <time>2014-05-20T15:24:09Z</time>
      </trkpt>
      <trkpt lat="43.80847" lon="5.39398">
        <ele>814</ele>
        <time>2014-05-20T15:24:13Z</time>
      </trkpt>
      <trkpt lat="43.80847" lon="5.3939">
        <ele>813</ele>
        <time>2014-05-20T15:24:19Z</time>
      </trkpt>
      <trkpt lat="43.80845" lon="5.3938">
        <ele>813</ele>
        <time>2014-05-20T15:24:25Z</time>
      </trkpt>
      <trkpt lat="43.80845" lon="5.39373">
        <ele>812</ele>
        <time>2014-05-20T15:24:30Z</time>
      </trkpt>
      <trkpt lat="43.80844" lon="5.39367">
        <ele>812</ele>
        <time>2014-05-20T15:24:34Z</time>
      </trkpt>
      <trkpt lat="43.80844" lon="5.39364">
        <ele>813</ele>
        <time>2014-05-20T15:24:36Z</time>
      </trkpt>
      <trkpt lat="43.80845" lon="5.39359">
        <ele>813</ele>
        <time>2014-05-20T15:24:39Z</time>
      </trkpt>
      <trkpt lat="43.80845" lon="5.39355">
        <ele>813</ele>
        <time>2014-05-20T15:24:42Z</time>
      </trkpt>
      <trkpt lat="43.80843" lon="5.3935">
        <ele>815</ele>
        <time>2014-05-20T15:24:46Z</time>
      </trkpt>
      <trkpt lat="43.80842" lon="5.39344">
        <ele>816</ele>
        <time>2014-05-20T15:24:50Z</time>
      </trkpt>
      <trkpt lat="43.80843" lon="5.39336">
        <ele>818</ele>
        <time>2014-05-20T15:24:55Z</time>
      </trkpt>
      <trkpt lat="43.80841" lon="5.39321">
        <ele>813</ele>
        <time>2014-05-20T15:25:06Z</time>
      </trkpt>
      <trkpt lat="43.80839" lon="5.39314">
        <ele>811</ele>
        <time>2014-05-20T15:25:11Z</time>
      </trkpt>
      <trkpt lat="43.8084" lon="5.39306">
        <ele>809</ele>
        <time>2014-05-20T15:25:16Z</time>
      </trkpt>
      <trkpt lat="43.8084" lon="5.393">
        <ele>808</ele>
        <time>2014-05-20T15:25:20Z</time>
      </trkpt>
      <trkpt lat="43.80838" lon="5.39295">
        <ele>807</ele>
        <time>2014-05-20T15:25:25Z</time>
      </trkpt>
      <trkpt lat="43.80838" lon="5.39291">
        <ele>807</ele>
        <time>2014-05-20T15:25:28Z</time>
      </trkpt>
      <trkpt lat="43.80836" lon="5.39286">
        <ele>807</ele>
        <time>2014-05-20T15:25:32Z</time>
      </trkpt>
      <trkpt lat="43.80836" lon="5.39278">
        <ele>807</ele>
        <time>2014-05-20T15:25:38Z</time>
      </trkpt>
      <trkpt lat="43.80834" lon="5.39272">
        <ele>808</ele>
        <time>2014-05-20T15:25:43Z</time>
      </trkpt>
      <trkpt lat="43.80832" lon="5.39268">
        <ele>825</ele>
        <time>2014-05-20T15:25:47Z</time>
      </trkpt>
      <trkpt lat="43.80828" lon="5.39263">
        <ele>824</ele>
        <time>2014-05-20T15:25:52Z</time>
      </trkpt>
      <trkpt lat="43.80824" lon="5.39257">
        <ele>823</ele>
        <time>2014-05-20T15:25:57Z</time>
      </trkpt>
      <trkpt lat="43.80823" lon="5.39253">
        <ele>823</ele>
        <time>2014-05-20T15:26:00Z</time>
      </trkpt>
      <trkpt lat="43.80822" lon="5.39252">
        <ele>823</ele>
        <time>2014-05-20T15:26:01Z</time>
      </trkpt>
      <trkpt lat="43.80821" lon="5.39241">
        <ele>820</ele>
        <time>2014-05-20T15:26:09Z</time>
      </trkpt>
      <trkpt lat="43.8082" lon="5.39228">
        <ele>820</ele>
        <time>2014-05-20T15:26:17Z</time>
      </trkpt>
      <trkpt lat="43.80818" lon="5.39225">
        <ele>821</ele>
        <time>2014-05-20T15:26:20Z</time>
      </trkpt>
      <trkpt lat="43.80815" lon="5.39221">
        <ele>821</ele>
        <time>2014-05-20T15:26:24Z</time>
      </trkpt>
      <trkpt lat="43.80812" lon="5.39216">
        <ele>821</ele>
        <time>2014-05-20T15:26:28Z</time>
      </trkpt>
      <trkpt lat="43.80811" lon="5.39212">
        <ele>821</ele>
        <time>2014-05-20T15:26:31Z</time>
      </trkpt>
      <trkpt lat="43.8081" lon="5.39205">
        <ele>821</ele>
        <time>2014-05-20T15:26:35Z</time>
      </trkpt>
      <trkpt lat="43.80808" lon="5.39197">
        <ele>820</ele>
        <time>2014-05-20T15:26:41Z</time>
      </trkpt>
      <trkpt lat="43.80804" lon="5.39189">
        <ele>820</ele>
        <time>2014-05-20T15:26:47Z</time>
      </trkpt>
      <trkpt lat="43.80801" lon="5.39184">
        <ele>820</ele>
        <time>2014-05-20T15:26:51Z</time>
      </trkpt>
      <trkpt lat="43.808" lon="5.39182">
        <ele>820</ele>
        <time>2014-05-20T15:26:53Z</time>
      </trkpt>
      <trkpt lat="43.80791" lon="5.39166">
        <ele>812</ele>
        <time>2014-05-20T15:27:06Z</time>
      </trkpt>
      <trkpt lat="43.80787" lon="5.39153">
        <ele>812</ele>
        <time>2014-05-20T15:27:14Z</time>
      </trkpt>
      <trkpt lat="43.80785" lon="5.3915">
        <ele>813</ele>
        <time>2014-05-20T15:27:16Z</time>
      </trkpt>
      <trkpt lat="43.80776" lon="5.39117">
        <ele>811</ele>
        <time>2014-05-20T15:27:35Z</time>
      </trkpt>
      <trkpt lat="43.80775" lon="5.39112">
        <ele>811</ele>
        <time>2014-05-20T15:27:38Z</time>
      </trkpt>
      <trkpt lat="43.80774" lon="5.39109">
        <ele>811</ele>
        <time>2014-05-20T15:27:40Z</time>
      </trkpt>
      <trkpt lat="43.80773" lon="5.39099">
        <ele>811</ele>
        <time>2014-05-20T15:27:46Z</time>
      </trkpt>
      <trkpt lat="43.80773" lon="5.39095">
        <ele>811</ele>
        <time>2014-05-20T15:27:49Z</time>
      </trkpt>
      <trkpt lat="43.80771" lon="5.39084">
        <ele>812</ele>
        <time>2014-05-20T15:27:56Z</time>
      </trkpt>
      <trkpt lat="43.8077" lon="5.39071">
        <ele>804</ele>
        <time>2014-05-20T15:28:04Z</time>
      </trkpt>
      <trkpt lat="43.8077" lon="5.3907">
        <ele>803</ele>
        <time>2014-05-20T15:28:05Z</time>
      </trkpt>
      <trkpt lat="43.80769" lon="5.39065">
        <ele>803</ele>
        <time>2014-05-20T15:28:08Z</time>
      </trkpt>
      <trkpt lat="43.80767" lon="5.39057">
        <ele>801</ele>
        <time>2014-05-20T15:28:12Z</time>
      </trkpt>
      <trkpt lat="43.80766" lon="5.39049">
        <ele>800</ele>
        <time>2014-05-20T15:28:17Z</time>
      </trkpt>
      <trkpt lat="43.80765" lon="5.39042">
        <ele>800</ele>
        <time>2014-05-20T15:28:21Z</time>
      </trkpt>
      <trkpt lat="43.80764" lon="5.39032">
        <ele>799</ele>
        <time>2014-05-20T15:28:27Z</time>
      </trkpt>
      <trkpt lat="43.80763" lon="5.39027">
        <ele>799</ele>
        <time>2014-05-20T15:28:30Z</time>
      </trkpt>
      <trkpt lat="43.80762" lon="5.39019">
        <ele>800</ele>
        <time>2014-05-20T15:28:35Z</time>
      </trkpt>
      <trkpt lat="43.80757" lon="5.38999">
        <ele>800</ele>
        <time>2014-05-20T15:28:47Z</time>
      </trkpt>
      <trkpt lat="43.80754" lon="5.38985">
        <ele>795</ele>
        <time>2014-05-20T15:28:56Z</time>
      </trkpt>
      <trkpt lat="43.80751" lon="5.38978">
        <ele>792</ele>
        <time>2014-05-20T15:29:01Z</time>
      </trkpt>
      <trkpt lat="43.80748" lon="5.38964">
        <ele>800</ele>
        <time>2014-05-20T15:29:10Z</time>
      </trkpt>
      <trkpt lat="43.80747" lon="5.38961">
        <ele>800</ele>
        <time>2014-05-20T15:29:12Z</time>
      </trkpt>
      <trkpt lat="43.80746" lon="5.38957">
        <ele>799</ele>
        <time>2014-05-20T15:29:15Z</time>
      </trkpt>
      <trkpt lat="43.80742" lon="5.38951">
        <ele>798</ele>
        <time>2014-05-20T15:29:20Z</time>
      </trkpt>
      <trkpt lat="43.80742" lon="5.38948">
        <ele>797</ele>
        <time>2014-05-20T15:29:22Z</time>
      </trkpt>
      <trkpt lat="43.80739" lon="5.38934">
        <ele>795</ele>
        <time>2014-05-20T15:29:32Z</time>
      </trkpt>
      <trkpt lat="43.80739" lon="5.38932">
        <ele>794</ele>
        <time>2014-05-20T15:29:33Z</time>
      </trkpt>
      <trkpt lat="43.80739" lon="5.38926">
        <ele>793</ele>
        <time>2014-05-20T15:29:37Z</time>
      </trkpt>
      <trkpt lat="43.80736" lon="5.38914">
        <ele>786</ele>
        <time>2014-05-20T15:29:47Z</time>
      </trkpt>
      <trkpt lat="43.80737" lon="5.38912">
        <ele>786</ele>
        <time>2014-05-20T15:29:52Z</time>
      </trkpt>
      <trkpt lat="43.80737" lon="5.38906">
        <ele>785</ele>
        <time>2014-05-20T15:30:02Z</time>
      </trkpt>
      <trkpt lat="43.80738" lon="5.38904">
        <ele>785</ele>
        <time>2014-05-20T15:30:09Z</time>
      </trkpt>
      <trkpt lat="43.80738" lon="5.38904">
        <ele>785</ele>
        <time>2014-05-20T15:30:13Z</time>
      </trkpt>
      <trkpt lat="43.80738" lon="5.38904">
        <ele>785</ele>
        <time>2014-05-20T15:30:16Z</time>
      </trkpt>
      <trkpt lat="43.80737" lon="5.38904">
        <ele>785</ele>
        <time>2014-05-20T15:30:23Z</time>
      </trkpt>
      <trkpt lat="43.80736" lon="5.38904">
        <ele>785</ele>
        <time>2014-05-20T15:30:25Z</time>
      </trkpt>
      <trkpt lat="43.80737" lon="5.38904">
        <ele>785</ele>
        <time>2014-05-20T15:30:28Z</time>
      </trkpt>
      <trkpt lat="43.80736" lon="5.38904">
        <ele>785</ele>
        <time>2014-05-20T15:30:30Z</time>
      </trkpt>
      <trkpt lat="43.80736" lon="5.38904">
        <ele>785</ele>
        <time>2014-05-20T15:30:34Z</time>
      </trkpt>
      <trkpt lat="43.80736" lon="5.38905">
        <ele>785</ele>
        <time>2014-05-20T15:30:37Z</time>
      </trkpt>
      <trkpt lat="43.80736" lon="5.38904">
        <ele>785</ele>
        <time>2014-05-20T15:30:39Z</time>
      </trkpt>
      <trkpt lat="43.80737" lon="5.38904">
        <ele>785</ele>
        <time>2014-05-20T15:30:43Z</time>
      </trkpt>
      <trkpt lat="43.80737" lon="5.38904">
        <ele>785</ele>
        <time>2014-05-20T15:30:51Z</time>
      </trkpt>
      <trkpt lat="43.80737" lon="5.38904">
        <ele>785</ele>
        <time>2014-05-20T15:30:53Z</time>
      </trkpt>
      <trkpt lat="43.80737" lon="5.38904">
        <ele>785</ele>
        <time>2014-05-20T15:30:55Z</time>
      </trkpt>
      <trkpt lat="43.80737" lon="5.38904">
        <ele>785</ele>
        <time>2014-05-20T15:31:03Z</time>
      </trkpt>
      <trkpt lat="43.80736" lon="5.38904">
        <ele>785</ele>
        <time>2014-05-20T15:31:06Z</time>
      </trkpt>
      <trkpt lat="43.80737" lon="5.38905">
        <ele>785</ele>
        <time>2014-05-20T15:31:10Z</time>
      </trkpt>
      <trkpt lat="43.80737" lon="5.38905">
        <ele>785</ele>
        <time>2014-05-20T15:31:12Z</time>
      </trkpt>
      <trkpt lat="43.80737" lon="5.38904">
        <ele>785</ele>
        <time>2014-05-20T15:31:17Z</time>
      </trkpt>
      <trkpt lat="43.80737" lon="5.38902">
        <ele>785</ele>
        <time>2014-05-20T15:31:21Z</time>
      </trkpt>
      <trkpt lat="43.80737" lon="5.38901">
        <ele>785</ele>
        <time>2014-05-20T15:31:23Z</time>
      </trkpt>
      <trkpt lat="43.80736" lon="5.38896">
        <ele>784</ele>
        <time>2014-05-20T15:31:29Z</time>
      </trkpt>
      <trkpt lat="43.80737" lon="5.3889">
        <ele>784</ele>
        <time>2014-05-20T15:31:34Z</time>
      </trkpt>
      <trkpt lat="43.80737" lon="5.38888">
        <ele>784</ele>
        <time>2014-05-20T15:31:36Z</time>
      </trkpt>
      <trkpt lat="43.80738" lon="5.38871">
        <ele>783</ele>
        <time>2014-05-20T15:31:48Z</time>
      </trkpt>
      <trkpt lat="43.80739" lon="5.38861">
        <ele>782</ele>
        <time>2014-05-20T15:31:54Z</time>
      </trkpt>
      <trkpt lat="43.80738" lon="5.38851">
        <ele>782</ele>
        <time>2014-05-20T15:32:00Z</time>
      </trkpt>
      <trkpt lat="43.80738" lon="5.38838">
        <ele>782</ele>
        <time>2014-05-20T15:32:08Z</time>
      </trkpt>
      <trkpt lat="43.80737" lon="5.38832">
        <ele>779</ele>
        <time>2014-05-20T15:32:12Z</time>
      </trkpt>
      <trkpt lat="43.80737" lon="5.38828">
        <ele>779</ele>
        <time>2014-05-20T15:32:14Z</time>
      </trkpt>
      <trkpt lat="43.80737" lon="5.38826">
        <ele>779</ele>
        <time>2014-05-20T15:32:15Z</time>
      </trkpt>
      <trkpt lat="43.80736" lon="5.38821">
        <ele>779</ele>
        <time>2014-05-20T15:32:18Z</time>
      </trkpt>
      <trkpt lat="43.80732" lon="5.38808">
        <ele>778</ele>
        <time>2014-05-20T15:32:27Z</time>
      </trkpt>
      <trkpt lat="43.8073" lon="5.38802">
        <ele>777</ele>
        <time>2014-05-20T15:32:31Z</time>
      </trkpt>
      <trkpt lat="43.80724" lon="5.38786">
        <ele>777</ele>
        <time>2014-05-20T15:32:42Z</time>
      </trkpt>
      <trkpt lat="43.80724" lon="5.38784">
        <ele>777</ele>
        <time>2014-05-20T15:32:44Z</time>
      </trkpt>
      <trkpt lat="43.80723" lon="5.38782">
        <ele>777</ele>
        <time>2014-05-20T15:32:45Z</time>
      </trkpt>
      <trkpt lat="43.80722" lon="5.38782">
        <ele>777</ele>
        <time>2014-05-20T15:32:46Z</time>
      </trkpt>
      <trkpt lat="43.80721" lon="5.38781">
        <ele>777</ele>
        <time>2014-05-20T15:32:47Z</time>
      </trkpt>
      <trkpt lat="43.8072" lon="5.38782">
        <ele>777</ele>
        <time>2014-05-20T15:32:48Z</time>
      </trkpt>
      <trkpt lat="43.80719" lon="5.38784">
        <ele>776</ele>
        <time>2014-05-20T15:32:50Z</time>
      </trkpt>
      <trkpt lat="43.80718" lon="5.38786">
        <ele>776</ele>
        <time>2014-05-20T15:32:52Z</time>
      </trkpt>
      <trkpt lat="43.80718" lon="5.38794">
        <ele>776</ele>
        <time>2014-05-20T15:32:59Z</time>
      </trkpt>
      <trkpt lat="43.80716" lon="5.388">
        <ele>776</ele>
        <time>2014-05-20T15:33:03Z</time>
      </trkpt>
      <trkpt lat="43.80715" lon="5.38808">
        <ele>776</ele>
        <time>2014-05-20T15:33:10Z</time>
      </trkpt>
      <trkpt lat="43.80713" lon="5.38814">
        <ele>776</ele>
        <time>2014-05-20T15:33:14Z</time>
      </trkpt>
      <trkpt lat="43.80711" lon="5.38822">
        <ele>776</ele>
        <time>2014-05-20T15:33:21Z</time>
      </trkpt>
      <trkpt lat="43.80709" lon="5.38825">
        <ele>775</ele>
        <time>2014-05-20T15:33:24Z</time>
      </trkpt>
      <trkpt lat="43.80708" lon="5.38828">
        <ele>775</ele>
        <time>2014-05-20T15:33:26Z</time>
      </trkpt>
      <trkpt lat="43.80706" lon="5.38834">
        <ele>779</ele>
        <time>2014-05-20T15:33:30Z</time>
      </trkpt>
      <trkpt lat="43.80703" lon="5.3884">
        <ele>779</ele>
        <time>2014-05-20T15:33:35Z</time>
      </trkpt>
      <trkpt lat="43.80701" lon="5.38842">
        <ele>779</ele>
        <time>2014-05-20T15:33:37Z</time>
      </trkpt>
      <trkpt lat="43.80698" lon="5.38848">
        <ele>779</ele>
        <time>2014-05-20T15:33:42Z</time>
      </trkpt>
      <trkpt lat="43.80695" lon="5.38852">
        <ele>779</ele>
        <time>2014-05-20T15:33:46Z</time>
      </trkpt>
      <trkpt lat="43.80693" lon="5.38855">
        <ele>779</ele>
        <time>2014-05-20T15:33:49Z</time>
      </trkpt>
      <trkpt lat="43.80689" lon="5.38858">
        <ele>779</ele>
        <time>2014-05-20T15:33:53Z</time>
      </trkpt>
      <trkpt lat="43.80683" lon="5.38862">
        <ele>779</ele>
        <time>2014-05-20T15:33:59Z</time>
      </trkpt>
      <trkpt lat="43.80678" lon="5.38864">
        <ele>779</ele>
        <time>2014-05-20T15:34:05Z</time>
      </trkpt>
      <trkpt lat="43.80676" lon="5.38865">
        <ele>779</ele>
        <time>2014-05-20T15:34:07Z</time>
      </trkpt>
      <trkpt lat="43.80671" lon="5.38867">
        <ele>779</ele>
        <time>2014-05-20T15:34:12Z</time>
      </trkpt>
      <trkpt lat="43.80668" lon="5.38866">
        <ele>779</ele>
        <time>2014-05-20T15:34:16Z</time>
      </trkpt>
      <trkpt lat="43.80664" lon="5.38867">
        <ele>780</ele>
        <time>2014-05-20T15:34:21Z</time>
      </trkpt>
      <trkpt lat="43.80662" lon="5.38868">
        <ele>781</ele>
        <time>2014-05-20T15:34:23Z</time>
      </trkpt>
      <trkpt lat="43.8066" lon="5.38869">
        <ele>781</ele>
        <time>2014-05-20T15:34:26Z</time>
      </trkpt>
      <trkpt lat="43.80655" lon="5.38869">
        <ele>781</ele>
        <time>2014-05-20T15:34:30Z</time>
      </trkpt>
      <trkpt lat="43.80653" lon="5.38869">
        <ele>781</ele>
        <time>2014-05-20T15:34:32Z</time>
      </trkpt>
      <trkpt lat="43.80652" lon="5.38869">
        <ele>781</ele>
        <time>2014-05-20T15:34:33Z</time>
      </trkpt>
      <trkpt lat="43.80649" lon="5.38867">
        <ele>781</ele>
        <time>2014-05-20T15:34:37Z</time>
      </trkpt>
      <trkpt lat="43.80648" lon="5.38865">
        <ele>781</ele>
        <time>2014-05-20T15:34:39Z</time>
      </trkpt>
      <trkpt lat="43.80648" lon="5.38863">
        <ele>781</ele>
        <time>2014-05-20T15:34:40Z</time>
      </trkpt>
      <trkpt lat="43.80649" lon="5.38857">
        <ele>780</ele>
        <time>2014-05-20T15:34:46Z</time>
      </trkpt>
      <trkpt lat="43.80651" lon="5.38855">
        <ele>779</ele>
        <time>2014-05-20T15:34:50Z</time>
      </trkpt>
      <trkpt lat="43.80658" lon="5.38852">
        <ele>778</ele>
        <time>2014-05-20T15:35:01Z</time>
      </trkpt>
      <trkpt lat="43.80659" lon="5.3885">
        <ele>777</ele>
        <time>2014-05-20T15:35:04Z</time>
      </trkpt>
      <trkpt lat="43.8066" lon="5.38849">
        <ele>777</ele>
        <time>2014-05-20T15:35:06Z</time>
      </trkpt>
      <trkpt lat="43.80662" lon="5.38848">
        <ele>776</ele>
        <time>2014-05-20T15:35:08Z</time>
      </trkpt>
      <trkpt lat="43.80663" lon="5.38845">
        <ele>775</ele>
        <time>2014-05-20T15:35:10Z</time>
      </trkpt>
      <trkpt lat="43.80665" lon="5.3884">
        <ele>773</ele>
        <time>2014-05-20T15:35:16Z</time>
      </trkpt>
      <trkpt lat="43.80666" lon="5.38833">
        <ele>769</ele>
        <time>2014-05-20T15:35:22Z</time>
      </trkpt>
      <trkpt lat="43.80664" lon="5.38821">
        <ele>769</ele>
        <time>2014-05-20T15:35:31Z</time>
      </trkpt>
      <trkpt lat="43.80663" lon="5.38819">
        <ele>769</ele>
        <time>2014-05-20T15:35:33Z</time>
      </trkpt>
      <trkpt lat="43.80661" lon="5.38817">
        <ele>769</ele>
        <time>2014-05-20T15:35:36Z</time>
      </trkpt>
      <trkpt lat="43.80658" lon="5.38813">
        <ele>768</ele>
        <time>2014-05-20T15:35:40Z</time>
      </trkpt>
      <trkpt lat="43.80657" lon="5.38808">
        <ele>768</ele>
        <time>2014-05-20T15:35:44Z</time>
      </trkpt>
      <trkpt lat="43.80654" lon="5.38803">
        <ele>768</ele>
        <time>2014-05-20T15:35:49Z</time>
      </trkpt>
      <trkpt lat="43.80654" lon="5.38796">
        <ele>768</ele>
        <time>2014-05-20T15:35:53Z</time>
      </trkpt>
      <trkpt lat="43.80652" lon="5.38792">
        <ele>767</ele>
        <time>2014-05-20T15:35:56Z</time>
      </trkpt>
      <trkpt lat="43.80651" lon="5.38787">
        <ele>767</ele>
        <time>2014-05-20T15:35:59Z</time>
      </trkpt>
      <trkpt lat="43.80649" lon="5.38785">
        <ele>767</ele>
        <time>2014-05-20T15:36:01Z</time>
      </trkpt>
      <trkpt lat="43.80648" lon="5.38781">
        <ele>767</ele>
        <time>2014-05-20T15:36:04Z</time>
      </trkpt>
      <trkpt lat="43.80648" lon="5.3878">
        <ele>766</ele>
        <time>2014-05-20T15:36:05Z</time>
      </trkpt>
      <trkpt lat="43.80646" lon="5.38774">
        <ele>766</ele>
        <time>2014-05-20T15:36:10Z</time>
      </trkpt>
      <trkpt lat="43.80645" lon="5.38771">
        <ele>766</ele>
        <time>2014-05-20T15:36:12Z</time>
      </trkpt>
      <trkpt lat="43.80644" lon="5.3877">
        <ele>766</ele>
        <time>2014-05-20T15:36:13Z</time>
      </trkpt>
      <trkpt lat="43.80643" lon="5.38768">
        <ele>766</ele>
        <time>2014-05-20T15:36:15Z</time>
      </trkpt>
      <trkpt lat="43.80642" lon="5.38767">
        <ele>766</ele>
        <time>2014-05-20T15:36:16Z</time>
      </trkpt>
      <trkpt lat="43.8064" lon="5.38757">
        <ele>765</ele>
        <time>2014-05-20T15:36:24Z</time>
      </trkpt>
      <trkpt lat="43.80638" lon="5.38753">
        <ele>765</ele>
        <time>2014-05-20T15:36:27Z</time>
      </trkpt>
      <trkpt lat="43.80636" lon="5.38751">
        <ele>765</ele>
        <time>2014-05-20T15:36:30Z</time>
      </trkpt>
      <trkpt lat="43.80635" lon="5.38746">
        <ele>758</ele>
        <time>2014-05-20T15:36:34Z</time>
      </trkpt>
      <trkpt lat="43.80632" lon="5.38744">
        <ele>757</ele>
        <time>2014-05-20T15:36:38Z</time>
      </trkpt>
      <trkpt lat="43.80631" lon="5.38742">
        <ele>757</ele>
        <time>2014-05-20T15:36:40Z</time>
      </trkpt>
      <trkpt lat="43.80625" lon="5.38736">
        <ele>757</ele>
        <time>2014-05-20T15:36:47Z</time>
      </trkpt>
      <trkpt lat="43.80624" lon="5.38732">
        <ele>756</ele>
        <time>2014-05-20T15:36:50Z</time>
      </trkpt>
      <trkpt lat="43.80622" lon="5.3873">
        <ele>756</ele>
        <time>2014-05-20T15:36:52Z</time>
      </trkpt>
      <trkpt lat="43.80622" lon="5.38728">
        <ele>756</ele>
        <time>2014-05-20T15:36:53Z</time>
      </trkpt>
      <trkpt lat="43.80621" lon="5.38724">
        <ele>756</ele>
        <time>2014-05-20T15:36:56Z</time>
      </trkpt>
      <trkpt lat="43.80618" lon="5.38721">
        <ele>755</ele>
        <time>2014-05-20T15:36:59Z</time>
      </trkpt>
      <trkpt lat="43.80617" lon="5.38719">
        <ele>755</ele>
        <time>2014-05-20T15:37:01Z</time>
      </trkpt>
      <trkpt lat="43.80612" lon="5.38712">
        <ele>754</ele>
        <time>2014-05-20T15:37:08Z</time>
      </trkpt>
      <trkpt lat="43.8061" lon="5.3871">
        <ele>754</ele>
        <time>2014-05-20T15:37:11Z</time>
      </trkpt>
      <trkpt lat="43.80607" lon="5.38706">
        <ele>753</ele>
        <time>2014-05-20T15:37:15Z</time>
      </trkpt>
      <trkpt lat="43.80605" lon="5.38701">
        <ele>753</ele>
        <time>2014-05-20T15:37:19Z</time>
      </trkpt>
      <trkpt lat="43.80599" lon="5.38685">
        <ele>749</ele>
        <time>2014-05-20T15:37:32Z</time>
      </trkpt>
      <trkpt lat="43.80597" lon="5.38682">
        <ele>748</ele>
        <time>2014-05-20T15:37:35Z</time>
      </trkpt>
      <trkpt lat="43.80595" lon="5.38676">
        <ele>746</ele>
        <time>2014-05-20T15:37:40Z</time>
      </trkpt>
      <trkpt lat="43.80593" lon="5.38671">
        <ele>744</ele>
        <time>2014-05-20T15:37:44Z</time>
      </trkpt>
      <trkpt lat="43.80592" lon="5.38665">
        <ele>740</ele>
        <time>2014-05-20T15:37:48Z</time>
      </trkpt>
      <trkpt lat="43.80591" lon="5.38662">
        <ele>740</ele>
        <time>2014-05-20T15:37:51Z</time>
      </trkpt>
      <trkpt lat="43.80587" lon="5.38658">
        <ele>740</ele>
        <time>2014-05-20T15:37:55Z</time>
      </trkpt>
      <trkpt lat="43.80585" lon="5.38654">
        <ele>740</ele>
        <time>2014-05-20T15:37:59Z</time>
      </trkpt>
      <trkpt lat="43.80583" lon="5.38652">
        <ele>736</ele>
        <time>2014-05-20T15:38:01Z</time>
      </trkpt>
      <trkpt lat="43.8058" lon="5.38649">
        <ele>736</ele>
        <time>2014-05-20T15:38:05Z</time>
      </trkpt>
      <trkpt lat="43.80579" lon="5.38645">
        <ele>736</ele>
        <time>2014-05-20T15:38:08Z</time>
      </trkpt>
      <trkpt lat="43.80578" lon="5.38644">
        <ele>735</ele>
        <time>2014-05-20T15:38:10Z</time>
      </trkpt>
      <trkpt lat="43.80577" lon="5.38641">
        <ele>735</ele>
        <time>2014-05-20T15:38:13Z</time>
      </trkpt>
      <trkpt lat="43.80576" lon="5.3864">
        <ele>735</ele>
        <time>2014-05-20T15:38:14Z</time>
      </trkpt>
      <trkpt lat="43.80572" lon="5.38638">
        <ele>735</ele>
        <time>2014-05-20T15:38:18Z</time>
      </trkpt>
      <trkpt lat="43.80571" lon="5.38637">
        <ele>735</ele>
        <time>2014-05-20T15:38:20Z</time>
      </trkpt>
      <trkpt lat="43.80568" lon="5.38635">
        <ele>735</ele>
        <time>2014-05-20T15:38:24Z</time>
      </trkpt>
      <trkpt lat="43.80565" lon="5.38629">
        <ele>734</ele>
        <time>2014-05-20T15:38:30Z</time>
      </trkpt>
      <trkpt lat="43.80564" lon="5.38629">
        <ele>734</ele>
        <time>2014-05-20T15:38:31Z</time>
      </trkpt>
      <trkpt lat="43.80562" lon="5.38628">
        <ele>734</ele>
        <time>2014-05-20T15:38:33Z</time>
      </trkpt>
      <trkpt lat="43.80556" lon="5.38626">
        <ele>734</ele>
        <time>2014-05-20T15:38:38Z</time>
      </trkpt>
      <trkpt lat="43.80552" lon="5.38621">
        <ele>734</ele>
        <time>2014-05-20T15:38:44Z</time>
      </trkpt>
      <trkpt lat="43.8055" lon="5.38618">
        <ele>734</ele>
        <time>2014-05-20T15:38:47Z</time>
      </trkpt>
      <trkpt lat="43.80549" lon="5.38617">
        <ele>733</ele>
        <time>2014-05-20T15:38:49Z</time>
      </trkpt>
      <trkpt lat="43.80543" lon="5.38608">
        <ele>733</ele>
        <time>2014-05-20T15:38:59Z</time>
      </trkpt>
      <trkpt lat="43.80542" lon="5.38605">
        <ele>733</ele>
        <time>2014-05-20T15:39:02Z</time>
      </trkpt>
      <trkpt lat="43.8054" lon="5.38594">
        <ele>732</ele>
        <time>2014-05-20T15:39:10Z</time>
      </trkpt>
      <trkpt lat="43.80541" lon="5.38586">
        <ele>731</ele>
        <time>2014-05-20T15:39:17Z</time>
      </trkpt>
      <trkpt lat="43.80541" lon="5.38582">
        <ele>721</ele>
        <time>2014-05-20T15:39:20Z</time>
      </trkpt>
      <trkpt lat="43.80541" lon="5.38576">
        <ele>721</ele>
        <time>2014-05-20T15:39:25Z</time>
      </trkpt>
      <trkpt lat="43.80541" lon="5.38571">
        <ele>721</ele>
        <time>2014-05-20T15:39:29Z</time>
      </trkpt>
      <trkpt lat="43.80542" lon="5.38564">
        <ele>720</ele>
        <time>2014-05-20T15:39:35Z</time>
      </trkpt>
      <trkpt lat="43.80541" lon="5.38563">
        <ele>720</ele>
        <time>2014-05-20T15:39:40Z</time>
      </trkpt>
      <trkpt lat="43.80538" lon="5.38561">
        <ele>720</ele>
        <time>2014-05-20T15:39:48Z</time>
      </trkpt>
      <trkpt lat="43.80532" lon="5.3856">
        <ele>720</ele>
        <time>2014-05-20T15:40:02Z</time>
      </trkpt>
      <trkpt lat="43.80532" lon="5.38559">
        <ele>720</ele>
        <time>2014-05-20T15:40:05Z</time>
      </trkpt>
      <trkpt lat="43.80532" lon="5.38556">
        <ele>720</ele>
        <time>2014-05-20T15:40:13Z</time>
      </trkpt>
      <trkpt lat="43.80531" lon="5.38557">
        <ele>720</ele>
        <time>2014-05-20T15:40:17Z</time>
      </trkpt>
      <trkpt lat="43.80532" lon="5.38558">
        <ele>720</ele>
        <time>2014-05-20T15:40:25Z</time>
      </trkpt>
      <trkpt lat="43.80532" lon="5.38557">
        <ele>720</ele>
        <time>2014-05-20T15:40:31Z</time>
      </trkpt>
      <trkpt lat="43.80531" lon="5.38559">
        <ele>720</ele>
        <time>2014-05-20T15:40:41Z</time>
      </trkpt>
      <trkpt lat="43.8053" lon="5.3856">
        <ele>720</ele>
        <time>2014-05-20T15:40:53Z</time>
      </trkpt>
      <trkpt lat="43.80529" lon="5.38559">
        <ele>720</ele>
        <time>2014-05-20T15:41:05Z</time>
      </trkpt>
      <trkpt lat="43.8053" lon="5.38557">
        <ele>720</ele>
        <time>2014-05-20T15:41:11Z</time>
      </trkpt>
      <trkpt lat="43.80532" lon="5.38554">
        <ele>720</ele>
        <time>2014-05-20T15:41:22Z</time>
      </trkpt>
      <trkpt lat="43.80532" lon="5.38553">
        <ele>720</ele>
        <time>2014-05-20T15:41:24Z</time>
      </trkpt>
      <trkpt lat="43.80533" lon="5.38554">
        <ele>720</ele>
        <time>2014-05-20T15:41:33Z</time>
      </trkpt>
      <trkpt lat="43.80532" lon="5.38553">
        <ele>720</ele>
        <time>2014-05-20T15:41:35Z</time>
      </trkpt>
      <trkpt lat="43.80533" lon="5.38553">
        <ele>720</ele>
        <time>2014-05-20T15:41:38Z</time>
      </trkpt>
      <trkpt lat="43.80534" lon="5.38553">
        <ele>720</ele>
        <time>2014-05-20T15:41:48Z</time>
      </trkpt>
      <trkpt lat="43.80533" lon="5.38554">
        <ele>720</ele>
        <time>2014-05-20T15:41:57Z</time>
      </trkpt>
      <trkpt lat="43.80533" lon="5.38553">
        <ele>720</ele>
        <time>2014-05-20T15:42:03Z</time>
      </trkpt>
      <trkpt lat="43.80533" lon="5.3855">
        <ele>719</ele>
        <time>2014-05-20T15:42:11Z</time>
      </trkpt>
      <trkpt lat="43.80532" lon="5.38551">
        <ele>720</ele>
        <time>2014-05-20T15:42:16Z</time>
      </trkpt>
      <trkpt lat="43.80532" lon="5.38552">
        <ele>720</ele>
        <time>2014-05-20T15:42:19Z</time>
      </trkpt>
      <trkpt lat="43.80532" lon="5.38554">
        <ele>720</ele>
        <time>2014-05-20T15:42:27Z</time>
      </trkpt>
      <trkpt lat="43.80533" lon="5.38554">
        <ele>720</ele>
        <time>2014-05-20T15:42:33Z</time>
      </trkpt>
      <trkpt lat="43.80534" lon="5.38551">
        <ele>719</ele>
        <time>2014-05-20T15:42:40Z</time>
      </trkpt>
      <trkpt lat="43.80535" lon="5.38551">
        <ele>719</ele>
        <time>2014-05-20T15:42:42Z</time>
      </trkpt>
      <trkpt lat="43.80536" lon="5.38551">
        <ele>719</ele>
        <time>2014-05-20T15:42:46Z</time>
      </trkpt>
      <trkpt lat="43.80536" lon="5.38552">
        <ele>720</ele>
        <time>2014-05-20T15:42:49Z</time>
      </trkpt>
      <trkpt lat="43.80536" lon="5.38553">
        <ele>720</ele>
        <time>2014-05-20T15:43:00Z</time>
      </trkpt>
      <trkpt lat="43.80535" lon="5.38554">
        <ele>720</ele>
        <time>2014-05-20T15:43:04Z</time>
      </trkpt>
      <trkpt lat="43.80534" lon="5.3856">
        <ele>720</ele>
        <time>2014-05-20T15:43:10Z</time>
      </trkpt>
      <trkpt lat="43.80533" lon="5.38568">
        <ele>721</ele>
        <time>2014-05-20T15:43:15Z</time>
      </trkpt>
      <trkpt lat="43.80532" lon="5.38572">
        <ele>721</ele>
        <time>2014-05-20T15:43:18Z</time>
      </trkpt>
      <trkpt lat="43.80531" lon="5.38594">
        <ele>732</ele>
        <time>2014-05-20T15:43:32Z</time>
      </trkpt>
      <trkpt lat="43.80531" lon="5.38597">
        <ele>732</ele>
        <time>2014-05-20T15:43:34Z</time>
      </trkpt>
      <trkpt lat="43.80534" lon="5.38601">
        <ele>732</ele>
        <time>2014-05-20T15:43:38Z</time>
      </trkpt>
      <trkpt lat="43.80536" lon="5.38605">
        <ele>733</ele>
        <time>2014-05-20T15:43:41Z</time>
      </trkpt>
      <trkpt lat="43.80538" lon="5.38608">
        <ele>733</ele>
        <time>2014-05-20T15:43:43Z</time>
      </trkpt>
      <trkpt lat="43.80542" lon="5.38615">
        <ele>733</ele>
        <time>2014-05-20T15:43:49Z</time>
      </trkpt>
      <trkpt lat="43.80546" lon="5.38617">
        <ele>734</ele>
        <time>2014-05-20T15:43:59Z</time>
      </trkpt>
      <trkpt lat="43.80546" lon="5.38616">
        <ele>733</ele>
        <time>2014-05-20T15:44:02Z</time>
      </trkpt>
      <trkpt lat="43.80544" lon="5.38611">
        <ele>733</ele>
        <time>2014-05-20T15:44:07Z</time>
      </trkpt>
      <trkpt lat="43.80542" lon="5.38609">
        <ele>733</ele>
        <time>2014-05-20T15:44:10Z</time>
      </trkpt>
      <trkpt lat="43.80541" lon="5.38608">
        <ele>733</ele>
        <time>2014-05-20T15:44:12Z</time>
      </trkpt>
      <trkpt lat="43.80541" lon="5.38607">
        <ele>733</ele>
        <time>2014-05-20T15:44:13Z</time>
      </trkpt>
      <trkpt lat="43.8054" lon="5.38607">
        <ele>733</ele>
        <time>2014-05-20T15:44:15Z</time>
      </trkpt>
      <trkpt lat="43.80538" lon="5.38605">
        <ele>733</ele>
        <time>2014-05-20T15:44:19Z</time>
      </trkpt>
      <trkpt lat="43.80537" lon="5.38602">
        <ele>732</ele>
        <time>2014-05-20T15:44:23Z</time>
      </trkpt>
      <trkpt lat="43.80537" lon="5.38598">
        <ele>732</ele>
        <time>2014-05-20T15:44:26Z</time>
      </trkpt>
      <trkpt lat="43.80537" lon="5.38594">
        <ele>732</ele>
        <time>2014-05-20T15:44:28Z</time>
      </trkpt>
      <trkpt lat="43.80537" lon="5.3859">
        <ele>732</ele>
        <time>2014-05-20T15:44:31Z</time>
      </trkpt>
      <trkpt lat="43.80537" lon="5.38587">
        <ele>731</ele>
        <time>2014-05-20T15:44:33Z</time>
      </trkpt>
      <trkpt lat="43.80535" lon="5.3858">
        <ele>721</ele>
        <time>2014-05-20T15:44:39Z</time>
      </trkpt>
      <trkpt lat="43.80536" lon="5.38572">
        <ele>721</ele>
        <time>2014-05-20T15:44:45Z</time>
      </trkpt>
      <trkpt lat="43.80536" lon="5.3857">
        <ele>721</ele>
        <time>2014-05-20T15:44:47Z</time>
      </trkpt>
      <trkpt lat="43.80537" lon="5.38568">
        <ele>721</ele>
        <time>2014-05-20T15:44:50Z</time>
      </trkpt>
      <trkpt lat="43.80537" lon="5.38566">
        <ele>721</ele>
        <time>2014-05-20T15:44:53Z</time>
      </trkpt>
      <trkpt lat="43.80536" lon="5.38565">
        <ele>721</ele>
        <time>2014-05-20T15:44:56Z</time>
      </trkpt>
      <trkpt lat="43.80536" lon="5.38561">
        <ele>720</ele>
        <time>2014-05-20T15:45:05Z</time>
      </trkpt>
      <trkpt lat="43.80535" lon="5.38558">
        <ele>720</ele>
        <time>2014-05-20T15:45:12Z</time>
      </trkpt>
      <trkpt lat="43.80534" lon="5.38554">
        <ele>720</ele>
        <time>2014-05-20T15:45:15Z</time>
      </trkpt>
      <trkpt lat="43.80536" lon="5.38545">
        <ele>719</ele>
        <time>2014-05-20T15:45:23Z</time>
      </trkpt>
      <trkpt lat="43.80536" lon="5.38541">
        <ele>719</ele>
        <time>2014-05-20T15:45:27Z</time>
      </trkpt>
      <trkpt lat="43.80538" lon="5.38523">
        <ele>717</ele>
        <time>2014-05-20T15:45:42Z</time>
      </trkpt>
      <trkpt lat="43.80537" lon="5.38515">
        <ele>716</ele>
        <time>2014-05-20T15:45:48Z</time>
      </trkpt>
      <trkpt lat="43.80537" lon="5.38513">
        <ele>716</ele>
        <time>2014-05-20T15:45:52Z</time>
      </trkpt>
      <trkpt lat="43.80539" lon="5.38504">
        <ele>716</ele>
        <time>2014-05-20T15:46:11Z</time>
      </trkpt>
      <trkpt lat="43.80537" lon="5.38496">
        <ele>706</ele>
        <time>2014-05-20T15:46:19Z</time>
      </trkpt>
      <trkpt lat="43.80535" lon="5.38492">
        <ele>706</ele>
        <time>2014-05-20T15:46:24Z</time>
      </trkpt>
      <trkpt lat="43.80534" lon="5.38486">
        <ele>706</ele>
        <time>2014-05-20T15:46:31Z</time>
      </trkpt>
      <trkpt lat="43.80533" lon="5.38485">
        <ele>706</ele>
        <time>2014-05-20T15:46:32Z</time>
      </trkpt>
      <trkpt lat="43.8053" lon="5.38485">
        <ele>706</ele>
        <time>2014-05-20T15:46:35Z</time>
      </trkpt>
      <trkpt lat="43.80529" lon="5.38484">
        <ele>706</ele>
        <time>2014-05-20T15:46:38Z</time>
      </trkpt>
      <trkpt lat="43.80528" lon="5.38484">
        <ele>706</ele>
        <time>2014-05-20T15:46:40Z</time>
      </trkpt>
      <trkpt lat="43.80526" lon="5.38483">
        <ele>707</ele>
        <time>2014-05-20T15:46:46Z</time>
      </trkpt>
      <trkpt lat="43.80526" lon="5.38483">
        <ele>707</ele>
        <time>2014-05-20T15:46:48Z</time>
      </trkpt>
      <trkpt lat="43.80525" lon="5.38483">
        <ele>707</ele>
        <time>2014-05-20T15:46:50Z</time>
      </trkpt>
      <trkpt lat="43.80525" lon="5.38483">
        <ele>707</ele>
        <time>2014-05-20T15:46:56Z</time>
      </trkpt>
      <trkpt lat="43.80523" lon="5.38488">
        <ele>707</ele>
        <time>2014-05-20T15:47:02Z</time>
      </trkpt>
      <trkpt lat="43.80523" lon="5.38493">
        <ele>708</ele>
        <time>2014-05-20T15:47:08Z</time>
      </trkpt>
      <trkpt lat="43.80522" lon="5.38495">
        <ele>708</ele>
        <time>2014-05-20T15:47:10Z</time>
      </trkpt>
      <trkpt lat="43.80522" lon="5.38497">
        <ele>708</ele>
        <time>2014-05-20T15:47:12Z</time>
      </trkpt>
      <trkpt lat="43.80521" lon="5.38498">
        <ele>708</ele>
        <time>2014-05-20T15:47:14Z</time>
      </trkpt>
      <trkpt lat="43.80519" lon="5.38499">
        <ele>708</ele>
        <time>2014-05-20T15:47:17Z</time>
      </trkpt>
      <trkpt lat="43.80519" lon="5.38501">
        <ele>715</ele>
        <time>2014-05-20T15:47:20Z</time>
      </trkpt>
      <trkpt lat="43.80518" lon="5.38501">
        <ele>715</ele>
        <time>2014-05-20T15:47:21Z</time>
      </trkpt>
      <trkpt lat="43.80517" lon="5.38501">
        <ele>715</ele>
        <time>2014-05-20T15:47:23Z</time>
      </trkpt>
      <trkpt lat="43.80515" lon="5.38499">
        <ele>709</ele>
        <time>2014-05-20T15:47:27Z</time>
      </trkpt>
      <trkpt lat="43.80513" lon="5.38498">
        <ele>709</ele>
        <time>2014-05-20T15:47:29Z</time>
      </trkpt>
      <trkpt lat="43.80512" lon="5.38497">
        <ele>710</ele>
        <time>2014-05-20T15:47:33Z</time>
      </trkpt>
      <trkpt lat="43.8051" lon="5.38497">
        <ele>710</ele>
        <time>2014-05-20T15:47:38Z</time>
      </trkpt>
      <trkpt lat="43.80509" lon="5.38495">
        <ele>710</ele>
        <time>2014-05-20T15:47:41Z</time>
      </trkpt>
      <trkpt lat="43.80509" lon="5.38494">
        <ele>710</ele>
        <time>2014-05-20T15:47:43Z</time>
      </trkpt>
      <trkpt lat="43.80507" lon="5.38494">
        <ele>710</ele>
        <time>2014-05-20T15:47:49Z</time>
      </trkpt>
      <trkpt lat="43.80506" lon="5.38492">
        <ele>710</ele>
        <time>2014-05-20T15:47:53Z</time>
      </trkpt>
      <trkpt lat="43.80503" lon="5.38486">
        <ele>709</ele>
        <time>2014-05-20T15:48:01Z</time>
      </trkpt>
      <trkpt lat="43.80502" lon="5.38484">
        <ele>709</ele>
        <time>2014-05-20T15:48:04Z</time>
      </trkpt>
      <trkpt lat="43.80502" lon="5.38483">
        <ele>709</ele>
        <time>2014-05-20T15:48:05Z</time>
      </trkpt>
      <trkpt lat="43.805" lon="5.38476">
        <ele>707</ele>
        <time>2014-05-20T15:48:14Z</time>
      </trkpt>
      <trkpt lat="43.80499" lon="5.38473">
        <ele>723</ele>
        <time>2014-05-20T15:48:18Z</time>
      </trkpt>
      <trkpt lat="43.80497" lon="5.38467">
        <ele>723</ele>
        <time>2014-05-20T15:48:25Z</time>
      </trkpt>
      <trkpt lat="43.80497" lon="5.38463">
        <ele>723</ele>
        <time>2014-05-20T15:48:30Z</time>
      </trkpt>
      <trkpt lat="43.80496" lon="5.38462">
        <ele>723</ele>
        <time>2014-05-20T15:48:32Z</time>
      </trkpt>
      <trkpt lat="43.80493" lon="5.38447">
        <ele>722</ele>
        <time>2014-05-20T15:48:48Z</time>
      </trkpt>
      <trkpt lat="43.80493" lon="5.38438">
        <ele>720</ele>
        <time>2014-05-20T15:48:57Z</time>
      </trkpt>
      <trkpt lat="43.80492" lon="5.38432">
        <ele>718</ele>
        <time>2014-05-20T15:49:03Z</time>
      </trkpt>
      <trkpt lat="43.80495" lon="5.38424">
        <ele>713</ele>
        <time>2014-05-20T15:49:11Z</time>
      </trkpt>
      <trkpt lat="43.80496" lon="5.3841">
        <ele>711</ele>
        <time>2014-05-20T15:49:21Z</time>
      </trkpt>
      <trkpt lat="43.80498" lon="5.38403">
        <ele>713</ele>
        <time>2014-05-20T15:49:27Z</time>
      </trkpt>
      <trkpt lat="43.80498" lon="5.38399">
        <ele>714</ele>
        <time>2014-05-20T15:49:30Z</time>
      </trkpt>
      <trkpt lat="43.805" lon="5.38398">
        <ele>715</ele>
        <time>2014-05-20T15:49:35Z</time>
      </trkpt>
      <trkpt lat="43.80499" lon="5.38397">
        <ele>715</ele>
        <time>2014-05-20T15:49:38Z</time>
      </trkpt>
      <trkpt lat="43.80498" lon="5.38397">
        <ele>715</ele>
        <time>2014-05-20T15:49:42Z</time>
      </trkpt>
      <trkpt lat="43.80496" lon="5.38396">
        <ele>715</ele>
        <time>2014-05-20T15:49:49Z</time>
      </trkpt>
      <trkpt lat="43.80495" lon="5.38396">
        <ele>715</ele>
        <time>2014-05-20T15:49:52Z</time>
      </trkpt>
      <trkpt lat="43.80497" lon="5.38396">
        <ele>715</ele>
        <time>2014-05-20T15:49:57Z</time>
      </trkpt>
      <trkpt lat="43.80498" lon="5.38396">
        <ele>715</ele>
        <time>2014-05-20T15:50:00Z</time>
      </trkpt>
      <trkpt lat="43.80493" lon="5.38394">
        <ele>716</ele>
        <time>2014-05-20T15:50:06Z</time>
      </trkpt>
      <trkpt lat="43.80497" lon="5.38393">
        <ele>716</ele>
        <time>2014-05-20T15:50:18Z</time>
      </trkpt>
      <trkpt lat="43.80496" lon="5.38393">
        <ele>716</ele>
        <time>2014-05-20T15:50:20Z</time>
      </trkpt>
      <trkpt lat="43.805" lon="5.38394">
        <ele>715</ele>
        <time>2014-05-20T15:50:28Z</time>
      </trkpt>
      <trkpt lat="43.80499" lon="5.38395">
        <ele>715</ele>
        <time>2014-05-20T15:50:35Z</time>
      </trkpt>
      <trkpt lat="43.80497" lon="5.38396">
        <ele>715</ele>
        <time>2014-05-20T15:50:44Z</time>
      </trkpt>
      <trkpt lat="43.80499" lon="5.38387">
        <ele>717</ele>
        <time>2014-05-20T15:50:52Z</time>
      </trkpt>
      <trkpt lat="43.80498" lon="5.38381">
        <ele>717</ele>
        <time>2014-05-20T15:50:57Z</time>
      </trkpt>
      <trkpt lat="43.80499" lon="5.38378">
        <ele>717</ele>
        <time>2014-05-20T15:50:59Z</time>
      </trkpt>
      <trkpt lat="43.80498" lon="5.38372">
        <ele>718</ele>
        <time>2014-05-20T15:51:04Z</time>
      </trkpt>
      <trkpt lat="43.80498" lon="5.38367">
        <ele>718</ele>
        <time>2014-05-20T15:51:08Z</time>
      </trkpt>
      <trkpt lat="43.80498" lon="5.38365">
        <ele>718</ele>
        <time>2014-05-20T15:51:10Z</time>
      </trkpt>
      <trkpt lat="43.805" lon="5.38359">
        <ele>717</ele>
        <time>2014-05-20T15:51:14Z</time>
      </trkpt>
      <trkpt lat="43.80498" lon="5.38356">
        <ele>717</ele>
        <time>2014-05-20T15:51:18Z</time>
      </trkpt>
      <trkpt lat="43.805" lon="5.38345">
        <ele>715</ele>
        <time>2014-05-20T15:51:26Z</time>
      </trkpt>
      <trkpt lat="43.805" lon="5.38343">
        <ele>715</ele>
        <time>2014-05-20T15:51:28Z</time>
      </trkpt>
      <trkpt lat="43.805" lon="5.38341">
        <ele>707</ele>
        <time>2014-05-20T15:51:29Z</time>
      </trkpt>
      <trkpt lat="43.80499" lon="5.3833">
        <ele>713</ele>
        <time>2014-05-20T15:51:38Z</time>
      </trkpt>
      <trkpt lat="43.805" lon="5.38325">
        <ele>713</ele>
        <time>2014-05-20T15:51:42Z</time>
      </trkpt>
      <trkpt lat="43.805" lon="5.38324">
        <ele>714</ele>
        <time>2014-05-20T15:51:43Z</time>
      </trkpt>
      <trkpt lat="43.80499" lon="5.38322">
        <ele>714</ele>
        <time>2014-05-20T15:51:45Z</time>
      </trkpt>
      <trkpt lat="43.80497" lon="5.38324">
        <ele>714</ele>
        <time>2014-05-20T15:51:49Z</time>
      </trkpt>
      <trkpt lat="43.80496" lon="5.38324">
        <ele>714</ele>
        <time>2014-05-20T15:51:51Z</time>
      </trkpt>
      <trkpt lat="43.80494" lon="5.38322">
        <ele>714</ele>
        <time>2014-05-20T15:51:55Z</time>
      </trkpt>
      <trkpt lat="43.80493" lon="5.3832">
        <ele>714</ele>
        <time>2014-05-20T15:51:57Z</time>
      </trkpt>
      <trkpt lat="43.80489" lon="5.3831">
        <ele>715</ele>
        <time>2014-05-20T15:52:06Z</time>
      </trkpt>
      <trkpt lat="43.80489" lon="5.38308">
        <ele>715</ele>
        <time>2014-05-20T15:52:08Z</time>
      </trkpt>
      <trkpt lat="43.80488" lon="5.38303">
        <ele>715</ele>
        <time>2014-05-20T15:52:12Z</time>
      </trkpt>
      <trkpt lat="43.80487" lon="5.38301">
        <ele>715</ele>
        <time>2014-05-20T15:52:14Z</time>
      </trkpt>
      <trkpt lat="43.80485" lon="5.38292">
        <ele>715</ele>
        <time>2014-05-20T15:52:20Z</time>
      </trkpt>
      <trkpt lat="43.80483" lon="5.38285">
        <ele>715</ele>
        <time>2014-05-20T15:52:27Z</time>
      </trkpt>
      <trkpt lat="43.80483" lon="5.38284">
        <ele>715</ele>
        <time>2014-05-20T15:52:29Z</time>
      </trkpt>
      <trkpt lat="43.80482" lon="5.38284">
        <ele>715</ele>
        <time>2014-05-20T15:52:30Z</time>
      </trkpt>
      <trkpt lat="43.80482" lon="5.38283">
        <ele>715</ele>
        <time>2014-05-20T15:52:38Z</time>
      </trkpt>
      <trkpt lat="43.80483" lon="5.38279">
        <ele>715</ele>
        <time>2014-05-20T15:52:52Z</time>
      </trkpt>
      <trkpt lat="43.80484" lon="5.38279">
        <ele>715</ele>
        <time>2014-05-20T15:52:55Z</time>
      </trkpt>
      <trkpt lat="43.80484" lon="5.38279">
        <ele>715</ele>
        <time>2014-05-20T15:52:57Z</time>
      </trkpt>
      <trkpt lat="43.80485" lon="5.38278">
        <ele>715</ele>
        <time>2014-05-20T15:53:09Z</time>
      </trkpt>
      <trkpt lat="43.80486" lon="5.38278">
        <ele>715</ele>
        <time>2014-05-20T15:53:10Z</time>
      </trkpt>
      <trkpt lat="43.80486" lon="5.38276">
        <ele>715</ele>
        <time>2014-05-20T15:53:12Z</time>
      </trkpt>
      <trkpt lat="43.8049" lon="5.38268">
        <ele>715</ele>
        <time>2014-05-20T15:53:18Z</time>
      </trkpt>
      <trkpt lat="43.80491" lon="5.38265">
        <ele>715</ele>
        <time>2014-05-20T15:53:20Z</time>
      </trkpt>
      <trkpt lat="43.80495" lon="5.38255">
        <ele>714</ele>
        <time>2014-05-20T15:53:28Z</time>
      </trkpt>
      <trkpt lat="43.80499" lon="5.38244">
        <ele>713</ele>
        <time>2014-05-20T15:53:36Z</time>
      </trkpt>
      <trkpt lat="43.80503" lon="5.38228">
        <ele>706</ele>
        <time>2014-05-20T15:53:47Z</time>
      </trkpt>
      <trkpt lat="43.80504" lon="5.38217">
        <ele>705</ele>
        <time>2014-05-20T15:53:54Z</time>
      </trkpt>
      <trkpt lat="43.80506" lon="5.38211">
        <ele>704</ele>
        <time>2014-05-20T15:53:58Z</time>
      </trkpt>
      <trkpt lat="43.80507" lon="5.38195">
        <ele>705</ele>
        <time>2014-05-20T15:54:08Z</time>
      </trkpt>
      <trkpt lat="43.8051" lon="5.3818">
        <ele>706</ele>
        <time>2014-05-20T15:54:17Z</time>
      </trkpt>
      <trkpt lat="43.80512" lon="5.38172">
        <ele>707</ele>
        <time>2014-05-20T15:54:22Z</time>
      </trkpt>
      <trkpt lat="43.80513" lon="5.38169">
        <ele>706</ele>
        <time>2014-05-20T15:54:24Z</time>
      </trkpt>
      <trkpt lat="43.80514" lon="5.38164">
        <ele>708</ele>
        <time>2014-05-20T15:54:27Z</time>
      </trkpt>
      <trkpt lat="43.80513" lon="5.3815">
        <ele>707</ele>
        <time>2014-05-20T15:54:35Z</time>
      </trkpt>
      <trkpt lat="43.80514" lon="5.38141">
        <ele>707</ele>
        <time>2014-05-20T15:54:40Z</time>
      </trkpt>
      <trkpt lat="43.80513" lon="5.38133">
        <ele>707</ele>
        <time>2014-05-20T15:54:45Z</time>
      </trkpt>
      <trkpt lat="43.80514" lon="5.38128">
        <ele>707</ele>
        <time>2014-05-20T15:54:48Z</time>
      </trkpt>
      <trkpt lat="43.80513" lon="5.3811">
        <ele>707</ele>
        <time>2014-05-20T15:54:59Z</time>
      </trkpt>
      <trkpt lat="43.80513" lon="5.38108">
        <ele>708</ele>
        <time>2014-05-20T15:55:00Z</time>
      </trkpt>
      <trkpt lat="43.80515" lon="5.38104">
        <ele>708</ele>
        <time>2014-05-20T15:55:02Z</time>
      </trkpt>
      <trkpt lat="43.80517" lon="5.38095">
        <ele>708</ele>
        <time>2014-05-20T15:55:08Z</time>
      </trkpt>
      <trkpt lat="43.80515" lon="5.38079">
        <ele>712</ele>
        <time>2014-05-20T15:55:20Z</time>
      </trkpt>
      <trkpt lat="43.80515" lon="5.38077">
        <ele>712</ele>
        <time>2014-05-20T15:55:22Z</time>
      </trkpt>
      <trkpt lat="43.80517" lon="5.38067">
        <ele>713</ele>
        <time>2014-05-20T15:55:30Z</time>
      </trkpt>
      <trkpt lat="43.80516" lon="5.38066">
        <ele>713</ele>
        <time>2014-05-20T15:55:31Z</time>
      </trkpt>
      <trkpt lat="43.80517" lon="5.38056">
        <ele>713</ele>
        <time>2014-05-20T15:55:38Z</time>
      </trkpt>
      <trkpt lat="43.80517" lon="5.38049">
        <ele>714</ele>
        <time>2014-05-20T15:55:43Z</time>
      </trkpt>
      <trkpt lat="43.80516" lon="5.38048">
        <ele>714</ele>
        <time>2014-05-20T15:55:44Z</time>
      </trkpt>
      <trkpt lat="43.80515" lon="5.38047">
        <ele>714</ele>
        <time>2014-05-20T15:55:45Z</time>
      </trkpt>
      <trkpt lat="43.80515" lon="5.38046">
        <ele>714</ele>
        <time>2014-05-20T15:55:46Z</time>
      </trkpt>
      <trkpt lat="43.80517" lon="5.38022">
        <ele>716</ele>
        <time>2014-05-20T15:56:02Z</time>
      </trkpt>
      <trkpt lat="43.80517" lon="5.38013">
        <ele>717</ele>
        <time>2014-05-20T15:56:08Z</time>
      </trkpt>
      <trkpt lat="43.80516" lon="5.38008">
        <ele>718</ele>
        <time>2014-05-20T15:56:11Z</time>
      </trkpt>
      <trkpt lat="43.80516" lon="5.37994">
        <ele>722</ele>
        <time>2014-05-20T15:56:20Z</time>
      </trkpt>
      <trkpt lat="43.80516" lon="5.3799">
        <ele>722</ele>
        <time>2014-05-20T15:56:23Z</time>
      </trkpt>
      <trkpt lat="43.80515" lon="5.37984">
        <ele>722</ele>
        <time>2014-05-20T15:56:27Z</time>
      </trkpt>
      <trkpt lat="43.80515" lon="5.37979">
        <ele>722</ele>
        <time>2014-05-20T15:56:31Z</time>
      </trkpt>
      <trkpt lat="43.80516" lon="5.37971">
        <ele>722</ele>
        <time>2014-05-20T15:56:36Z</time>
      </trkpt>
      <trkpt lat="43.80515" lon="5.37963">
        <ele>723</ele>
        <time>2014-05-20T15:56:43Z</time>
      </trkpt>
      <trkpt lat="43.80516" lon="5.3796">
        <ele>723</ele>
        <time>2014-05-20T15:56:45Z</time>
      </trkpt>
      <trkpt lat="43.80516" lon="5.37956">
        <ele>723</ele>
        <time>2014-05-20T15:56:48Z</time>
      </trkpt>
      <trkpt lat="43.80518" lon="5.3795">
        <ele>724</ele>
        <time>2014-05-20T15:56:52Z</time>
      </trkpt>
      <trkpt lat="43.80519" lon="5.37945">
        <ele>724</ele>
        <time>2014-05-20T15:56:55Z</time>
      </trkpt>
      <trkpt lat="43.80518" lon="5.37942">
        <ele>724</ele>
        <time>2014-05-20T15:56:57Z</time>
      </trkpt>
      <trkpt lat="43.80516" lon="5.37934">
        <ele>725</ele>
        <time>2014-05-20T15:57:02Z</time>
      </trkpt>
      <trkpt lat="43.80515" lon="5.37927">
        <ele>726</ele>
        <time>2014-05-20T15:57:07Z</time>
      </trkpt>
      <trkpt lat="43.80513" lon="5.37922">
        <ele>727</ele>
        <time>2014-05-20T15:57:10Z</time>
      </trkpt>
      <trkpt lat="43.80512" lon="5.37916">
        <ele>728</ele>
        <time>2014-05-20T15:57:14Z</time>
      </trkpt>
      <trkpt lat="43.80511" lon="5.37912">
        <ele>728</ele>
        <time>2014-05-20T15:57:17Z</time>
      </trkpt>
      <trkpt lat="43.80511" lon="5.37907">
        <ele>728</ele>
        <time>2014-05-20T15:57:20Z</time>
      </trkpt>
      <trkpt lat="43.80512" lon="5.37902">
        <ele>727</ele>
        <time>2014-05-20T15:57:23Z</time>
      </trkpt>
      <trkpt lat="43.80515" lon="5.37894">
        <ele>727</ele>
        <time>2014-05-20T15:57:29Z</time>
      </trkpt>
      <trkpt lat="43.80517" lon="5.37889">
        <ele>726</ele>
        <time>2014-05-20T15:57:33Z</time>
      </trkpt>
      <trkpt lat="43.80518" lon="5.37884">
        <ele>726</ele>
        <time>2014-05-20T15:57:36Z</time>
      </trkpt>
      <trkpt lat="43.80518" lon="5.37883">
        <ele>726</ele>
        <time>2014-05-20T15:57:39Z</time>
      </trkpt>
      <trkpt lat="43.80518" lon="5.37881">
        <ele>726</ele>
        <time>2014-05-20T15:57:42Z</time>
      </trkpt>
      <trkpt lat="43.8052" lon="5.37878">
        <ele>726</ele>
        <time>2014-05-20T15:57:46Z</time>
      </trkpt>
      <trkpt lat="43.80521" lon="5.37876">
        <ele>726</ele>
        <time>2014-05-20T15:57:50Z</time>
      </trkpt>
      <trkpt lat="43.80523" lon="5.37872">
        <ele>725</ele>
        <time>2014-05-20T15:57:56Z</time>
      </trkpt>
      <trkpt lat="43.80523" lon="5.3787">
        <ele>725</ele>
        <time>2014-05-20T15:58:00Z</time>
      </trkpt>
      <trkpt lat="43.80524" lon="5.3787">
        <ele>725</ele>
        <time>2014-05-20T15:58:03Z</time>
      </trkpt>
      <trkpt lat="43.80525" lon="5.37867">
        <ele>725</ele>
        <time>2014-05-20T15:58:09Z</time>
      </trkpt>
      <trkpt lat="43.80528" lon="5.3786">
        <ele>725</ele>
        <time>2014-05-20T15:58:21Z</time>
      </trkpt>
      <trkpt lat="43.8053" lon="5.37855">
        <ele>725</ele>
        <time>2014-05-20T15:58:28Z</time>
      </trkpt>
      <trkpt lat="43.80531" lon="5.37852">
        <ele>725</ele>
        <time>2014-05-20T15:58:32Z</time>
      </trkpt>
      <trkpt lat="43.80537" lon="5.37839">
        <ele>724</ele>
        <time>2014-05-20T15:58:45Z</time>
      </trkpt>
      <trkpt lat="43.8054" lon="5.37833">
        <ele>723</ele>
        <time>2014-05-20T15:58:51Z</time>
      </trkpt>
      <trkpt lat="43.80542" lon="5.3783">
        <ele>723</ele>
        <time>2014-05-20T15:58:54Z</time>
      </trkpt>
      <trkpt lat="43.80543" lon="5.37828">
        <ele>723</ele>
        <time>2014-05-20T15:58:56Z</time>
      </trkpt>
      <trkpt lat="43.80544" lon="5.37826">
        <ele>723</ele>
        <time>2014-05-20T15:58:59Z</time>
      </trkpt>
      <trkpt lat="43.80546" lon="5.37822">
        <ele>722</ele>
        <time>2014-05-20T15:59:02Z</time>
      </trkpt>
      <trkpt lat="43.80547" lon="5.37818">
        <ele>722</ele>
        <time>2014-05-20T15:59:06Z</time>
      </trkpt>
      <trkpt lat="43.8055" lon="5.37812">
        <ele>722</ele>
        <time>2014-05-20T15:59:11Z</time>
      </trkpt>
      <trkpt lat="43.80557" lon="5.37794">
        <ele>722</ele>
        <time>2014-05-20T15:59:25Z</time>
      </trkpt>
      <trkpt lat="43.80564" lon="5.37778">
        <ele>722</ele>
        <time>2014-05-20T15:59:37Z</time>
      </trkpt>
      <trkpt lat="43.80571" lon="5.37759">
        <ele>721</ele>
        <time>2014-05-20T15:59:51Z</time>
      </trkpt>
      <trkpt lat="43.80574" lon="5.37754">
        <ele>721</ele>
        <time>2014-05-20T15:59:55Z</time>
      </trkpt>
      <trkpt lat="43.80576" lon="5.37748">
        <ele>721</ele>
        <time>2014-05-20T15:59:59Z</time>
      </trkpt>
      <trkpt lat="43.80576" lon="5.37744">
        <ele>721</ele>
        <time>2014-05-20T16:00:02Z</time>
      </trkpt>
      <trkpt lat="43.80578" lon="5.37741">
        <ele>721</ele>
        <time>2014-05-20T16:00:05Z</time>
      </trkpt>
      <trkpt lat="43.80579" lon="5.37739">
        <ele>721</ele>
        <time>2014-05-20T16:00:07Z</time>
      </trkpt>
      <trkpt lat="43.80581" lon="5.37734">
        <ele>721</ele>
        <time>2014-05-20T16:00:11Z</time>
      </trkpt>
      <trkpt lat="43.80582" lon="5.37731">
        <ele>721</ele>
        <time>2014-05-20T16:00:13Z</time>
      </trkpt>
      <trkpt lat="43.80584" lon="5.37725">
        <ele>718</ele>
        <time>2014-05-20T16:00:18Z</time>
      </trkpt>
      <trkpt lat="43.80585" lon="5.37722">
        <ele>718</ele>
        <time>2014-05-20T16:00:20Z</time>
      </trkpt>
      <trkpt lat="43.80587" lon="5.37716">
        <ele>718</ele>
        <time>2014-05-20T16:00:25Z</time>
      </trkpt>
      <trkpt lat="43.80588" lon="5.37714">
        <ele>718</ele>
        <time>2014-05-20T16:00:27Z</time>
      </trkpt>
      <trkpt lat="43.80591" lon="5.37707">
        <ele>718</ele>
        <time>2014-05-20T16:00:33Z</time>
      </trkpt>
      <trkpt lat="43.80592" lon="5.37702">
        <ele>718</ele>
        <time>2014-05-20T16:00:37Z</time>
      </trkpt>
      <trkpt lat="43.80593" lon="5.37699">
        <ele>718</ele>
        <time>2014-05-20T16:00:40Z</time>
      </trkpt>
      <trkpt lat="43.80595" lon="5.37697">
        <ele>719</ele>
        <time>2014-05-20T16:00:43Z</time>
      </trkpt>
      <trkpt lat="43.80598" lon="5.37687">
        <ele>719</ele>
        <time>2014-05-20T16:00:50Z</time>
      </trkpt>
      <trkpt lat="43.806" lon="5.37684">
        <ele>719</ele>
        <time>2014-05-20T16:00:53Z</time>
      </trkpt>
      <trkpt lat="43.80602" lon="5.37681">
        <ele>719</ele>
        <time>2014-05-20T16:00:55Z</time>
      </trkpt>
      <trkpt lat="43.80604" lon="5.37675">
        <ele>720</ele>
        <time>2014-05-20T16:00:59Z</time>
      </trkpt>
      <trkpt lat="43.80605" lon="5.37662">
        <ele>721</ele>
        <time>2014-05-20T16:01:07Z</time>
      </trkpt>
      <trkpt lat="43.80603" lon="5.37655">
        <ele>721</ele>
        <time>2014-05-20T16:01:13Z</time>
      </trkpt>
      <trkpt lat="43.80602" lon="5.37651">
        <ele>721</ele>
        <time>2014-05-20T16:01:17Z</time>
      </trkpt>
      <trkpt lat="43.80602" lon="5.3765">
        <ele>721</ele>
        <time>2014-05-20T16:01:18Z</time>
      </trkpt>
      <trkpt lat="43.80602" lon="5.37634">
        <ele>720</ele>
        <time>2014-05-20T16:01:28Z</time>
      </trkpt>
      <trkpt lat="43.80602" lon="5.3763">
        <ele>720</ele>
        <time>2014-05-20T16:01:31Z</time>
      </trkpt>
      <trkpt lat="43.80602" lon="5.37628">
        <ele>719</ele>
        <time>2014-05-20T16:01:32Z</time>
      </trkpt>
      <trkpt lat="43.80603" lon="5.37625">
        <ele>719</ele>
        <time>2014-05-20T16:01:34Z</time>
      </trkpt>
      <trkpt lat="43.80602" lon="5.37618">
        <ele>719</ele>
        <time>2014-05-20T16:01:39Z</time>
      </trkpt>
      <trkpt lat="43.80603" lon="5.3761">
        <ele>719</ele>
        <time>2014-05-20T16:01:43Z</time>
      </trkpt>
      <trkpt lat="43.80603" lon="5.37604">
        <ele>719</ele>
        <time>2014-05-20T16:01:46Z</time>
      </trkpt>
      <trkpt lat="43.80603" lon="5.37585">
        <ele>719</ele>
        <time>2014-05-20T16:01:57Z</time>
      </trkpt>
      <trkpt lat="43.80602" lon="5.37574">
        <ele>716</ele>
        <time>2014-05-20T16:02:04Z</time>
      </trkpt>
      <trkpt lat="43.80603" lon="5.37569">
        <ele>716</ele>
        <time>2014-05-20T16:02:07Z</time>
      </trkpt>
      <trkpt lat="43.80602" lon="5.37565">
        <ele>716</ele>
        <time>2014-05-20T16:02:09Z</time>
      </trkpt>
      <trkpt lat="43.80603" lon="5.37556">
        <ele>715</ele>
        <time>2014-05-20T16:02:14Z</time>
      </trkpt>
      <trkpt lat="43.80602" lon="5.37551">
        <ele>715</ele>
        <time>2014-05-20T16:02:17Z</time>
      </trkpt>
      <trkpt lat="43.80603" lon="5.3754">
        <ele>715</ele>
        <time>2014-05-20T16:02:23Z</time>
      </trkpt>
      <trkpt lat="43.80604" lon="5.37531">
        <ele>714</ele>
        <time>2014-05-20T16:02:28Z</time>
      </trkpt>
      <trkpt lat="43.80603" lon="5.37526">
        <ele>714</ele>
        <time>2014-05-20T16:02:31Z</time>
      </trkpt>
      <trkpt lat="43.80603" lon="5.37522">
        <ele>714</ele>
        <time>2014-05-20T16:02:34Z</time>
      </trkpt>
      <trkpt lat="43.80604" lon="5.37516">
        <ele>714</ele>
        <time>2014-05-20T16:02:37Z</time>
      </trkpt>
      <trkpt lat="43.80603" lon="5.37503">
        <ele>714</ele>
        <time>2014-05-20T16:02:46Z</time>
      </trkpt>
      <trkpt lat="43.80604" lon="5.37498">
        <ele>715</ele>
        <time>2014-05-20T16:02:49Z</time>
      </trkpt>
      <trkpt lat="43.80603" lon="5.37495">
        <ele>715</ele>
        <time>2014-05-20T16:02:51Z</time>
      </trkpt>
      <trkpt lat="43.80601" lon="5.37484">
        <ele>715</ele>
        <time>2014-05-20T16:02:59Z</time>
      </trkpt>
      <trkpt lat="43.80598" lon="5.37479">
        <ele>715</ele>
        <time>2014-05-20T16:03:03Z</time>
      </trkpt>
      <trkpt lat="43.80596" lon="5.37477">
        <ele>715</ele>
        <time>2014-05-20T16:03:06Z</time>
      </trkpt>
      <trkpt lat="43.80596" lon="5.37475">
        <ele>716</ele>
        <time>2014-05-20T16:03:11Z</time>
      </trkpt>
      <trkpt lat="43.80595" lon="5.37476">
        <ele>716</ele>
        <time>2014-05-20T16:03:13Z</time>
      </trkpt>
      <trkpt lat="43.80595" lon="5.37475">
        <ele>716</ele>
        <time>2014-05-20T16:03:16Z</time>
      </trkpt>
      <trkpt lat="43.80595" lon="5.37472">
        <ele>716</ele>
        <time>2014-05-20T16:03:35Z</time>
      </trkpt>
      <trkpt lat="43.80593" lon="5.37471">
        <ele>716</ele>
        <time>2014-05-20T16:03:38Z</time>
      </trkpt>
      <trkpt lat="43.80591" lon="5.37473">
        <ele>716</ele>
        <time>2014-05-20T16:03:42Z</time>
      </trkpt>
      <trkpt lat="43.80589" lon="5.37474">
        <ele>716</ele>
        <time>2014-05-20T16:03:46Z</time>
      </trkpt>
      <trkpt lat="43.80587" lon="5.37474">
        <ele>716</ele>
        <time>2014-05-20T16:03:49Z</time>
      </trkpt>
      <trkpt lat="43.80586" lon="5.37474">
        <ele>716</ele>
        <time>2014-05-20T16:03:50Z</time>
      </trkpt>
      <trkpt lat="43.80581" lon="5.37472">
        <ele>713</ele>
        <time>2014-05-20T16:03:56Z</time>
      </trkpt>
      <trkpt lat="43.80577" lon="5.37473">
        <ele>713</ele>
        <time>2014-05-20T16:04:00Z</time>
      </trkpt>
      <trkpt lat="43.80574" lon="5.37472">
        <ele>713</ele>
        <time>2014-05-20T16:04:03Z</time>
      </trkpt>
      <trkpt lat="43.80569" lon="5.37471">
        <ele>713</ele>
        <time>2014-05-20T16:04:09Z</time>
      </trkpt>
      <trkpt lat="43.80565" lon="5.37469">
        <ele>712</ele>
        <time>2014-05-20T16:04:13Z</time>
      </trkpt>
      <trkpt lat="43.8056" lon="5.37468">
        <ele>712</ele>
        <time>2014-05-20T16:04:18Z</time>
      </trkpt>
      <trkpt lat="43.80556" lon="5.37465">
        <ele>712</ele>
        <time>2014-05-20T16:04:24Z</time>
      </trkpt>
      <trkpt lat="43.80552" lon="5.37464">
        <ele>712</ele>
        <time>2014-05-20T16:04:28Z</time>
      </trkpt>
      <trkpt lat="43.80548" lon="5.37463">
        <ele>711</ele>
        <time>2014-05-20T16:04:32Z</time>
      </trkpt>
      <trkpt lat="43.80544" lon="5.37462">
        <ele>711</ele>
        <time>2014-05-20T16:04:37Z</time>
      </trkpt>
      <trkpt lat="43.80539" lon="5.3746">
        <ele>711</ele>
        <time>2014-05-20T16:04:43Z</time>
      </trkpt>
      <trkpt lat="43.80533" lon="5.37459">
        <ele>710</ele>
        <time>2014-05-20T16:04:50Z</time>
      </trkpt>
      <trkpt lat="43.80531" lon="5.37457">
        <ele>710</ele>
        <time>2014-05-20T16:04:52Z</time>
      </trkpt>
      <trkpt lat="43.80529" lon="5.37457">
        <ele>710</ele>
        <time>2014-05-20T16:04:55Z</time>
      </trkpt>
      <trkpt lat="43.80524" lon="5.37456">
        <ele>709</ele>
        <time>2014-05-20T16:05:00Z</time>
      </trkpt>
      <trkpt lat="43.80517" lon="5.37453">
        <ele>709</ele>
        <time>2014-05-20T16:05:07Z</time>
      </trkpt>
      <trkpt lat="43.80511" lon="5.37449">
        <ele>708</ele>
        <time>2014-05-20T16:05:14Z</time>
      </trkpt>
      <trkpt lat="43.80505" lon="5.37447">
        <ele>708</ele>
        <time>2014-05-20T16:05:20Z</time>
      </trkpt>
      <trkpt lat="43.80501" lon="5.37447">
        <ele>708</ele>
        <time>2014-05-20T16:05:24Z</time>
      </trkpt>
      <trkpt lat="43.80494" lon="5.37444">
        <ele>701</ele>
        <time>2014-05-20T16:05:32Z</time>
      </trkpt>
      <trkpt lat="43.80493" lon="5.37444">
        <ele>701</ele>
        <time>2014-05-20T16:05:33Z</time>
      </trkpt>
      <trkpt lat="43.80484" lon="5.37442">
        <ele>701</ele>
        <time>2014-05-20T16:05:41Z</time>
      </trkpt>
      <trkpt lat="43.80483" lon="5.37443">
        <ele>701</ele>
        <time>2014-05-20T16:05:43Z</time>
      </trkpt>
      <trkpt lat="43.8048" lon="5.37441">
        <ele>700</ele>
        <time>2014-05-20T16:05:46Z</time>
      </trkpt>
      <trkpt lat="43.80478" lon="5.37441">
        <ele>700</ele>
        <time>2014-05-20T16:05:48Z</time>
      </trkpt>
      <trkpt lat="43.80476" lon="5.37439">
        <ele>700</ele>
        <time>2014-05-20T16:05:50Z</time>
      </trkpt>
      <trkpt lat="43.80472" lon="5.37438">
        <ele>700</ele>
        <time>2014-05-20T16:05:53Z</time>
      </trkpt>
      <trkpt lat="43.80463" lon="5.37435">
        <ele>699</ele>
        <time>2014-05-20T16:06:00Z</time>
      </trkpt>
      <trkpt lat="43.80459" lon="5.37434">
        <ele>699</ele>
        <time>2014-05-20T16:06:04Z</time>
      </trkpt>
      <trkpt lat="43.80457" lon="5.37434">
        <ele>699</ele>
        <time>2014-05-20T16:06:06Z</time>
      </trkpt>
      <trkpt lat="43.80453" lon="5.37432">
        <ele>698</ele>
        <time>2014-05-20T16:06:11Z</time>
      </trkpt>
      <trkpt lat="43.80452" lon="5.37431">
        <ele>698</ele>
        <time>2014-05-20T16:06:14Z</time>
      </trkpt>
      <trkpt lat="43.8045" lon="5.37431">
        <ele>698</ele>
        <time>2014-05-20T16:06:16Z</time>
      </trkpt>
      <trkpt lat="43.80445" lon="5.3743">
        <ele>697</ele>
        <time>2014-05-20T16:06:21Z</time>
      </trkpt>
      <trkpt lat="43.80441" lon="5.37429">
        <ele>697</ele>
        <time>2014-05-20T16:06:25Z</time>
      </trkpt>
      <trkpt lat="43.80436" lon="5.37425">
        <ele>696</ele>
        <time>2014-05-20T16:06:31Z</time>
      </trkpt>
      <trkpt lat="43.80428" lon="5.37423">
        <ele>694</ele>
        <time>2014-05-20T16:06:37Z</time>
      </trkpt>
      <trkpt lat="43.80421" lon="5.37417">
        <ele>692</ele>
        <time>2014-05-20T16:06:43Z</time>
      </trkpt>
      <trkpt lat="43.80419" lon="5.37417">
        <ele>692</ele>
        <time>2014-05-20T16:06:44Z</time>
      </trkpt>
      <trkpt lat="43.80415" lon="5.37418">
        <ele>691</ele>
        <time>2014-05-20T16:06:47Z</time>
      </trkpt>
      <trkpt lat="43.80414" lon="5.37418">
        <ele>692</ele>
        <time>2014-05-20T16:06:48Z</time>
      </trkpt>
      <trkpt lat="43.80407" lon="5.37416">
        <ele>691</ele>
        <time>2014-05-20T16:06:54Z</time>
      </trkpt>
      <trkpt lat="43.80405" lon="5.37415">
        <ele>691</ele>
        <time>2014-05-20T16:06:56Z</time>
      </trkpt>
      <trkpt lat="43.80399" lon="5.37413">
        <ele>690</ele>
        <time>2014-05-20T16:07:01Z</time>
      </trkpt>
      <trkpt lat="43.80397" lon="5.3741">
        <ele>690</ele>
        <time>2014-05-20T16:07:03Z</time>
      </trkpt>
      <trkpt lat="43.80392" lon="5.37409">
        <ele>690</ele>
        <time>2014-05-20T16:07:07Z</time>
      </trkpt>
      <trkpt lat="43.80385" lon="5.37408">
        <ele>690</ele>
        <time>2014-05-20T16:07:13Z</time>
      </trkpt>
      <trkpt lat="43.80383" lon="5.37407">
        <ele>690</ele>
        <time>2014-05-20T16:07:15Z</time>
      </trkpt>
      <trkpt lat="43.80381" lon="5.37404">
        <ele>690</ele>
        <time>2014-05-20T16:07:19Z</time>
      </trkpt>
      <trkpt lat="43.80379" lon="5.37403">
        <ele>690</ele>
        <time>2014-05-20T16:07:21Z</time>
      </trkpt>
      <trkpt lat="43.80375" lon="5.37402">
        <ele>690</ele>
        <time>2014-05-20T16:07:25Z</time>
      </trkpt>
      <trkpt lat="43.8037" lon="5.374">
        <ele>690</ele>
        <time>2014-05-20T16:07:30Z</time>
      </trkpt>
      <trkpt lat="43.80369" lon="5.374">
        <ele>690</ele>
        <time>2014-05-20T16:07:31Z</time>
      </trkpt>
      <trkpt lat="43.80367" lon="5.37398">
        <ele>690</ele>
        <time>2014-05-20T16:07:34Z</time>
      </trkpt>
      <trkpt lat="43.80363" lon="5.37397">
        <ele>690</ele>
        <time>2014-05-20T16:07:38Z</time>
      </trkpt>
      <trkpt lat="43.80356" lon="5.37396">
        <ele>690</ele>
        <time>2014-05-20T16:07:44Z</time>
      </trkpt>
      <trkpt lat="43.80353" lon="5.37397">
        <ele>690</ele>
        <time>2014-05-20T16:07:46Z</time>
      </trkpt>
      <trkpt lat="43.80345" lon="5.37396">
        <ele>690</ele>
        <time>2014-05-20T16:07:53Z</time>
      </trkpt>
      <trkpt lat="43.80343" lon="5.37395">
        <ele>690</ele>
        <time>2014-05-20T16:07:55Z</time>
      </trkpt>
      <trkpt lat="43.8034" lon="5.37393">
        <ele>690</ele>
        <time>2014-05-20T16:07:58Z</time>
      </trkpt>
      <trkpt lat="43.80339" lon="5.37392">
        <ele>690</ele>
        <time>2014-05-20T16:08:00Z</time>
      </trkpt>
      <trkpt lat="43.80335" lon="5.37391">
        <ele>690</ele>
        <time>2014-05-20T16:08:03Z</time>
      </trkpt>
      <trkpt lat="43.80331" lon="5.37389">
        <ele>688</ele>
        <time>2014-05-20T16:08:08Z</time>
      </trkpt>
      <trkpt lat="43.80325" lon="5.37385">
        <ele>687</ele>
        <time>2014-05-20T16:08:15Z</time>
      </trkpt>
      <trkpt lat="43.80322" lon="5.37385">
        <ele>687</ele>
        <time>2014-05-20T16:08:18Z</time>
      </trkpt>
      <trkpt lat="43.8032" lon="5.37383">
        <ele>687</ele>
        <time>2014-05-20T16:08:20Z</time>
      </trkpt>
      <trkpt lat="43.80316" lon="5.37382">
        <ele>687</ele>
        <time>2014-05-20T16:08:23Z</time>
      </trkpt>
      <trkpt lat="43.80313" lon="5.3738">
        <ele>687</ele>
        <time>2014-05-20T16:08:26Z</time>
      </trkpt>
      <trkpt lat="43.80308" lon="5.37378">
        <ele>687</ele>
        <time>2014-05-20T16:08:30Z</time>
      </trkpt>
      <trkpt lat="43.80303" lon="5.37374">
        <ele>686</ele>
        <time>2014-05-20T16:08:35Z</time>
      </trkpt>
      <trkpt lat="43.80298" lon="5.37368">
        <ele>686</ele>
        <time>2014-05-20T16:08:41Z</time>
      </trkpt>
      <trkpt lat="43.80296" lon="5.37366">
        <ele>686</ele>
        <time>2014-05-20T16:08:45Z</time>
      </trkpt>
      <trkpt lat="43.80296" lon="5.37366">
        <ele>686</ele>
        <time>2014-05-20T16:08:46Z</time>
      </trkpt>
      <trkpt lat="43.80297" lon="5.37365">
        <ele>686</ele>
        <time>2014-05-20T16:08:48Z</time>
      </trkpt>
      <trkpt lat="43.80298" lon="5.37365">
        <ele>686</ele>
        <time>2014-05-20T16:08:50Z</time>
      </trkpt>
      <trkpt lat="43.80297" lon="5.37363">
        <ele>686</ele>
        <time>2014-05-20T16:08:55Z</time>
      </trkpt>
      <trkpt lat="43.80296" lon="5.37362">
        <ele>686</ele>
        <time>2014-05-20T16:08:57Z</time>
      </trkpt>
      <trkpt lat="43.80294" lon="5.37362">
        <ele>686</ele>
        <time>2014-05-20T16:08:59Z</time>
      </trkpt>
      <trkpt lat="43.80294" lon="5.37362">
        <ele>686</ele>
        <time>2014-05-20T16:09:00Z</time>
      </trkpt>
      <trkpt lat="43.80293" lon="5.37361">
        <ele>685</ele>
        <time>2014-05-20T16:09:05Z</time>
      </trkpt>
      <trkpt lat="43.80292" lon="5.37362">
        <ele>685</ele>
        <time>2014-05-20T16:09:08Z</time>
      </trkpt>
      <trkpt lat="43.80291" lon="5.37362">
        <ele>685</ele>
        <time>2014-05-20T16:09:11Z</time>
      </trkpt>
      <trkpt lat="43.80292" lon="5.37361">
        <ele>685</ele>
        <time>2014-05-20T16:09:18Z</time>
      </trkpt>
      <trkpt lat="43.80291" lon="5.3736">
        <ele>685</ele>
        <time>2014-05-20T16:09:25Z</time>
      </trkpt>
      <trkpt lat="43.80287" lon="5.37362">
        <ele>685</ele>
        <time>2014-05-20T16:09:30Z</time>
      </trkpt>
      <trkpt lat="43.80285" lon="5.37364">
        <ele>685</ele>
        <time>2014-05-20T16:09:33Z</time>
      </trkpt>
      <trkpt lat="43.80284" lon="5.37366">
        <ele>685</ele>
        <time>2014-05-20T16:09:35Z</time>
      </trkpt>
      <trkpt lat="43.80281" lon="5.37369">
        <ele>685</ele>
        <time>2014-05-20T16:09:40Z</time>
      </trkpt>
      <trkpt lat="43.8028" lon="5.37371">
        <ele>686</ele>
        <time>2014-05-20T16:09:42Z</time>
      </trkpt>
      <trkpt lat="43.80279" lon="5.37373">
        <ele>686</ele>
        <time>2014-05-20T16:09:45Z</time>
      </trkpt>
      <trkpt lat="43.80276" lon="5.37375">
        <ele>686</ele>
        <time>2014-05-20T16:09:49Z</time>
      </trkpt>
      <trkpt lat="43.80271" lon="5.37378">
        <ele>686</ele>
        <time>2014-05-20T16:09:54Z</time>
      </trkpt>
      <trkpt lat="43.80269" lon="5.37377">
        <ele>686</ele>
        <time>2014-05-20T16:09:57Z</time>
      </trkpt>
      <trkpt lat="43.80267" lon="5.37378">
        <ele>686</ele>
        <time>2014-05-20T16:10:00Z</time>
      </trkpt>
      <trkpt lat="43.80264" lon="5.37377">
        <ele>686</ele>
        <time>2014-05-20T16:10:03Z</time>
      </trkpt>
      <trkpt lat="43.8026" lon="5.3738">
        <ele>686</ele>
        <time>2014-05-20T16:10:07Z</time>
      </trkpt>
      <trkpt lat="43.80252" lon="5.37385">
        <ele>686</ele>
        <time>2014-05-20T16:10:19Z</time>
      </trkpt>
      <trkpt lat="43.80251" lon="5.37384">
        <ele>686</ele>
        <time>2014-05-20T16:10:21Z</time>
      </trkpt>
      <trkpt lat="43.80245" lon="5.37384">
        <ele>677</ele>
        <time>2014-05-20T16:10:28Z</time>
      </trkpt>
      <trkpt lat="43.80243" lon="5.37383">
        <ele>677</ele>
        <time>2014-05-20T16:10:31Z</time>
      </trkpt>
      <trkpt lat="43.80241" lon="5.37384">
        <ele>677</ele>
        <time>2014-05-20T16:10:34Z</time>
      </trkpt>
      <trkpt lat="43.8024" lon="5.37384">
        <ele>677</ele>
        <time>2014-05-20T16:10:36Z</time>
      </trkpt>
      <trkpt lat="43.80238" lon="5.37383">
        <ele>676</ele>
        <time>2014-05-20T16:10:39Z</time>
      </trkpt>
      <trkpt lat="43.80235" lon="5.3738">
        <ele>676</ele>
        <time>2014-05-20T16:10:42Z</time>
      </trkpt>
      <trkpt lat="43.80232" lon="5.37378">
        <ele>675</ele>
        <time>2014-05-20T16:10:47Z</time>
      </trkpt>
      <trkpt lat="43.8023" lon="5.37378">
        <ele>675</ele>
        <time>2014-05-20T16:10:49Z</time>
      </trkpt>
      <trkpt lat="43.80226" lon="5.37381">
        <ele>675</ele>
        <time>2014-05-20T16:10:54Z</time>
      </trkpt>
      <trkpt lat="43.80221" lon="5.3738">
        <ele>674</ele>
        <time>2014-05-20T16:11:02Z</time>
      </trkpt>
      <trkpt lat="43.80219" lon="5.37382">
        <ele>674</ele>
        <time>2014-05-20T16:11:09Z</time>
      </trkpt>
      <trkpt lat="43.80218" lon="5.37381">
        <ele>674</ele>
        <time>2014-05-20T16:11:10Z</time>
      </trkpt>
      <trkpt lat="43.80217" lon="5.37382">
        <ele>674</ele>
        <time>2014-05-20T16:11:12Z</time>
      </trkpt>
      <trkpt lat="43.80216" lon="5.37382">
        <ele>673</ele>
        <time>2014-05-20T16:11:14Z</time>
      </trkpt>
      <trkpt lat="43.80214" lon="5.37382">
        <ele>673</ele>
        <time>2014-05-20T16:11:18Z</time>
      </trkpt>
      <trkpt lat="43.80213" lon="5.37381">
        <ele>673</ele>
        <time>2014-05-20T16:11:21Z</time>
      </trkpt>
      <trkpt lat="43.80211" lon="5.37382">
        <ele>673</ele>
        <time>2014-05-20T16:11:24Z</time>
      </trkpt>
      <trkpt lat="43.80208" lon="5.37381">
        <ele>672</ele>
        <time>2014-05-20T16:11:30Z</time>
      </trkpt>
      <trkpt lat="43.80206" lon="5.37381">
        <ele>672</ele>
        <time>2014-05-20T16:11:33Z</time>
      </trkpt>
      <trkpt lat="43.80204" lon="5.3738">
        <ele>672</ele>
        <time>2014-05-20T16:11:35Z</time>
      </trkpt>
      <trkpt lat="43.802" lon="5.37379">
        <ele>671</ele>
        <time>2014-05-20T16:11:41Z</time>
      </trkpt>
      <trkpt lat="43.80199" lon="5.37378">
        <ele>671</ele>
        <time>2014-05-20T16:11:44Z</time>
      </trkpt>
      <trkpt lat="43.80199" lon="5.37375">
        <ele>671</ele>
        <time>2014-05-20T16:11:47Z</time>
      </trkpt>
      <trkpt lat="43.80197" lon="5.37374">
        <ele>670</ele>
        <time>2014-05-20T16:11:52Z</time>
      </trkpt>
      <trkpt lat="43.80195" lon="5.37372">
        <ele>670</ele>
        <time>2014-05-20T16:11:54Z</time>
      </trkpt>
      <trkpt lat="43.80195" lon="5.37372">
        <ele>670</ele>
        <time>2014-05-20T16:11:56Z</time>
      </trkpt>
      <trkpt lat="43.80193" lon="5.3737">
        <ele>669</ele>
        <time>2014-05-20T16:11:59Z</time>
      </trkpt>
      <trkpt lat="43.80193" lon="5.3737">
        <ele>669</ele>
        <time>2014-05-20T16:12:01Z</time>
      </trkpt>
      <trkpt lat="43.80192" lon="5.3737">
        <ele>669</ele>
        <time>2014-05-20T16:12:05Z</time>
      </trkpt>
      <trkpt lat="43.80191" lon="5.3737">
        <ele>669</ele>
        <time>2014-05-20T16:12:07Z</time>
      </trkpt>
      <trkpt lat="43.8019" lon="5.37371">
        <ele>669</ele>
        <time>2014-05-20T16:12:08Z</time>
      </trkpt>
      <trkpt lat="43.80189" lon="5.37371">
        <ele>669</ele>
        <time>2014-05-20T16:12:09Z</time>
      </trkpt>
      <trkpt lat="43.80187" lon="5.37372">
        <ele>669</ele>
        <time>2014-05-20T16:12:13Z</time>
      </trkpt>
      <trkpt lat="43.80182" lon="5.37368">
        <ele>668</ele>
        <time>2014-05-20T16:12:24Z</time>
      </trkpt>
      <trkpt lat="43.80181" lon="5.37366">
        <ele>667</ele>
        <time>2014-05-20T16:12:26Z</time>
      </trkpt>
      <trkpt lat="43.8018" lon="5.37365">
        <ele>667</ele>
        <time>2014-05-20T16:12:28Z</time>
      </trkpt>
      <trkpt lat="43.80179" lon="5.37363">
        <ele>666</ele>
        <time>2014-05-20T16:12:32Z</time>
      </trkpt>
      <trkpt lat="43.80177" lon="5.37362">
        <ele>666</ele>
        <time>2014-05-20T16:12:37Z</time>
      </trkpt>
      <trkpt lat="43.80175" lon="5.37362">
        <ele>666</ele>
        <time>2014-05-20T16:12:40Z</time>
      </trkpt>
      <trkpt lat="43.80173" lon="5.3736">
        <ele>665</ele>
        <time>2014-05-20T16:12:45Z</time>
      </trkpt>
      <trkpt lat="43.80172" lon="5.3736">
        <ele>665</ele>
        <time>2014-05-20T16:12:47Z</time>
      </trkpt>
      <trkpt lat="43.80171" lon="5.37357">
        <ele>664</ele>
        <time>2014-05-20T16:12:52Z</time>
      </trkpt>
      <trkpt lat="43.8017" lon="5.37355">
        <ele>663</ele>
        <time>2014-05-20T16:12:57Z</time>
      </trkpt>
      <trkpt lat="43.80169" lon="5.37354">
        <ele>663</ele>
        <time>2014-05-20T16:13:05Z</time>
      </trkpt>
      <trkpt lat="43.8017" lon="5.37354">
        <ele>663</ele>
        <time>2014-05-20T16:13:10Z</time>
      </trkpt>
      <trkpt lat="43.8017" lon="5.37356">
        <ele>664</ele>
        <time>2014-05-20T16:13:18Z</time>
      </trkpt>
      <trkpt lat="43.80169" lon="5.37357">
        <ele>664</ele>
        <time>2014-05-20T16:13:19Z</time>
      </trkpt>
      <trkpt lat="43.80167" lon="5.37358">
        <ele>664</ele>
        <time>2014-05-20T16:13:22Z</time>
      </trkpt>
      <trkpt lat="43.80164" lon="5.37362">
        <ele>651</ele>
        <time>2014-05-20T16:13:27Z</time>
      </trkpt>
      <trkpt lat="43.80162" lon="5.37363">
        <ele>651</ele>
        <time>2014-05-20T16:13:31Z</time>
      </trkpt>
      <trkpt lat="43.8016" lon="5.37362">
        <ele>650</ele>
        <time>2014-05-20T16:13:35Z</time>
      </trkpt>
      <trkpt lat="43.80158" lon="5.37359">
        <ele>650</ele>
        <time>2014-05-20T16:13:39Z</time>
      </trkpt>
      <trkpt lat="43.80158" lon="5.37357">
        <ele>650</ele>
        <time>2014-05-20T16:13:41Z</time>
      </trkpt>
      <trkpt lat="43.80157" lon="5.37357">
        <ele>650</ele>
        <time>2014-05-20T16:13:43Z</time>
      </trkpt>
      <trkpt lat="43.80156" lon="5.37358">
        <ele>650</ele>
        <time>2014-05-20T16:13:46Z</time>
      </trkpt>
      <trkpt lat="43.80154" lon="5.37357">
        <ele>650</ele>
        <time>2014-05-20T16:13:49Z</time>
      </trkpt>
      <trkpt lat="43.80153" lon="5.37356">
        <ele>650</ele>
        <time>2014-05-20T16:13:51Z</time>
      </trkpt>
      <trkpt lat="43.80153" lon="5.37355">
        <ele>650</ele>
        <time>2014-05-20T16:13:53Z</time>
      </trkpt>
      <trkpt lat="43.80152" lon="5.37355">
        <ele>650</ele>
        <time>2014-05-20T16:13:57Z</time>
      </trkpt>
      <trkpt lat="43.80153" lon="5.37354">
        <ele>650</ele>
        <time>2014-05-20T16:13:59Z</time>
      </trkpt>
      <trkpt lat="43.80153" lon="5.37347">
        <ele>650</ele>
        <time>2014-05-20T16:14:06Z</time>
      </trkpt>
      <trkpt lat="43.80152" lon="5.37346">
        <ele>649</ele>
        <time>2014-05-20T16:14:09Z</time>
      </trkpt>
      <trkpt lat="43.8015" lon="5.37345">
        <ele>649</ele>
        <time>2014-05-20T16:14:12Z</time>
      </trkpt>
      <trkpt lat="43.80148" lon="5.37343">
        <ele>649</ele>
        <time>2014-05-20T16:14:15Z</time>
      </trkpt>
      <trkpt lat="43.80147" lon="5.37342">
        <ele>649</ele>
        <time>2014-05-20T16:14:18Z</time>
      </trkpt>
      <trkpt lat="43.80146" lon="5.37342">
        <ele>649</ele>
        <time>2014-05-20T16:14:21Z</time>
      </trkpt>
      <trkpt lat="43.80145" lon="5.37342">
        <ele>648</ele>
        <time>2014-05-20T16:14:24Z</time>
      </trkpt>
      <trkpt lat="43.8014" lon="5.37343">
        <ele>648</ele>
        <time>2014-05-20T16:14:36Z</time>
      </trkpt>
      <trkpt lat="43.80138" lon="5.37342">
        <ele>647</ele>
        <time>2014-05-20T16:14:40Z</time>
      </trkpt>
      <trkpt lat="43.80137" lon="5.37342">
        <ele>647</ele>
        <time>2014-05-20T16:14:43Z</time>
      </trkpt>
      <trkpt lat="43.80134" lon="5.3734">
        <ele>646</ele>
        <time>2014-05-20T16:14:48Z</time>
      </trkpt>
      <trkpt lat="43.80132" lon="5.37339">
        <ele>646</ele>
        <time>2014-05-20T16:14:52Z</time>
      </trkpt>
      <trkpt lat="43.80131" lon="5.37339">
        <ele>646</ele>
        <time>2014-05-20T16:14:53Z</time>
      </trkpt>
      <trkpt lat="43.80129" lon="5.37338">
        <ele>645</ele>
        <time>2014-05-20T16:14:56Z</time>
      </trkpt>
      <trkpt lat="43.80126" lon="5.37338">
        <ele>645</ele>
        <time>2014-05-20T16:14:59Z</time>
      </trkpt>
      <trkpt lat="43.80125" lon="5.37337">
        <ele>644</ele>
        <time>2014-05-20T16:15:00Z</time>
      </trkpt>
      <trkpt lat="43.80122" lon="5.37336">
        <ele>644</ele>
        <time>2014-05-20T16:15:04Z</time>
      </trkpt>
      <trkpt lat="43.80118" lon="5.37334">
        <ele>642</ele>
        <time>2014-05-20T16:15:09Z</time>
      </trkpt>
      <trkpt lat="43.80115" lon="5.37331">
        <ele>638</ele>
        <time>2014-05-20T16:15:15Z</time>
      </trkpt>
      <trkpt lat="43.80113" lon="5.37328">
        <ele>637</ele>
        <time>2014-05-20T16:15:20Z</time>
      </trkpt>
      <trkpt lat="43.80111" lon="5.37326">
        <ele>637</ele>
        <time>2014-05-20T16:15:25Z</time>
      </trkpt>
      <trkpt lat="43.80113" lon="5.37327">
        <ele>638</ele>
        <time>2014-05-20T16:15:36Z</time>
      </trkpt>
      <trkpt lat="43.80113" lon="5.37327">
        <ele>638</ele>
        <time>2014-05-20T16:15:40Z</time>
      </trkpt>
      <trkpt lat="43.80114" lon="5.3733">
        <ele>638</ele>
        <time>2014-05-20T16:15:52Z</time>
      </trkpt>
      <trkpt lat="43.80113" lon="5.37332">
        <ele>637</ele>
        <time>2014-05-20T16:16:03Z</time>
      </trkpt>
      <trkpt lat="43.8011" lon="5.37335">
        <ele>640</ele>
        <time>2014-05-20T16:16:17Z</time>
      </trkpt>
      <trkpt lat="43.80107" lon="5.37334">
        <ele>639</ele>
        <time>2014-05-20T16:16:25Z</time>
      </trkpt>
      <trkpt lat="43.80103" lon="5.3733">
        <ele>635</ele>
        <time>2014-05-20T16:16:37Z</time>
      </trkpt>
      <trkpt lat="43.80101" lon="5.37327">
        <ele>634</ele>
        <time>2014-05-20T16:16:42Z</time>
      </trkpt>
      <trkpt lat="43.80098" lon="5.37325">
        <ele>634</ele>
        <time>2014-05-20T16:16:49Z</time>
      </trkpt>
      <trkpt lat="43.80097" lon="5.37323">
        <ele>634</ele>
        <time>2014-05-20T16:16:53Z</time>
      </trkpt>
      <trkpt lat="43.80095" lon="5.37322">
        <ele>633</ele>
        <time>2014-05-20T16:16:56Z</time>
      </trkpt>
      <trkpt lat="43.80094" lon="5.3732">
        <ele>633</ele>
        <time>2014-05-20T16:17:00Z</time>
      </trkpt>
      <trkpt lat="43.80094" lon="5.37317">
        <ele>634</ele>
        <time>2014-05-20T16:17:03Z</time>
      </trkpt>
      <trkpt lat="43.80094" lon="5.37316">
        <ele>634</ele>
        <time>2014-05-20T16:17:05Z</time>
      </trkpt>
      <trkpt lat="43.80092" lon="5.37315">
        <ele>634</ele>
        <time>2014-05-20T16:17:09Z</time>
      </trkpt>
      <trkpt lat="43.80083" lon="5.37312">
        <ele>622</ele>
        <time>2014-05-20T16:17:21Z</time>
      </trkpt>
      <trkpt lat="43.80083" lon="5.37312">
        <ele>622</ele>
        <time>2014-05-20T16:17:22Z</time>
      </trkpt>
      <trkpt lat="43.8008" lon="5.3731">
        <ele>622</ele>
        <time>2014-05-20T16:17:25Z</time>
      </trkpt>
      <trkpt lat="43.80073" lon="5.37308">
        <ele>621</ele>
        <time>2014-05-20T16:17:32Z</time>
      </trkpt>
      <trkpt lat="43.80069" lon="5.37308">
        <ele>621</ele>
        <time>2014-05-20T16:17:36Z</time>
      </trkpt>
      <trkpt lat="43.80062" lon="5.37306">
        <ele>620</ele>
        <time>2014-05-20T16:17:43Z</time>
      </trkpt>
      <trkpt lat="43.80051" lon="5.37304">
        <ele>619</ele>
        <time>2014-05-20T16:17:55Z</time>
      </trkpt>
      <trkpt lat="43.80049" lon="5.37302">
        <ele>619</ele>
        <time>2014-05-20T16:17:58Z</time>
      </trkpt>
      <trkpt lat="43.80044" lon="5.37301">
        <ele>618</ele>
        <time>2014-05-20T16:18:05Z</time>
      </trkpt>
      <trkpt lat="43.80039" lon="5.37298">
        <ele>617</ele>
        <time>2014-05-20T16:18:10Z</time>
      </trkpt>
      <trkpt lat="43.80038" lon="5.37298">
        <ele>617</ele>
        <time>2014-05-20T16:18:11Z</time>
      </trkpt>
      <trkpt lat="43.80036" lon="5.37298">
        <ele>617</ele>
        <time>2014-05-20T16:18:14Z</time>
      </trkpt>
      <trkpt lat="43.80031" lon="5.37297">
        <ele>616</ele>
        <time>2014-05-20T16:18:18Z</time>
      </trkpt>
      <trkpt lat="43.80029" lon="5.37297">
        <ele>616</ele>
        <time>2014-05-20T16:18:20Z</time>
      </trkpt>
      <trkpt lat="43.80025" lon="5.37296">
        <ele>616</ele>
        <time>2014-05-20T16:18:24Z</time>
      </trkpt>
      <trkpt lat="43.8002" lon="5.37292">
        <ele>615</ele>
        <time>2014-05-20T16:18:29Z</time>
      </trkpt>
      <trkpt lat="43.80016" lon="5.3729">
        <ele>615</ele>
        <time>2014-05-20T16:18:32Z</time>
      </trkpt>
      <trkpt lat="43.80011" lon="5.37286">
        <ele>615</ele>
        <time>2014-05-20T16:18:37Z</time>
      </trkpt>
      <trkpt lat="43.80008" lon="5.37285">
        <ele>614</ele>
        <time>2014-05-20T16:18:39Z</time>
      </trkpt>
      <trkpt lat="43.80004" lon="5.37283">
        <ele>614</ele>
        <time>2014-05-20T16:18:44Z</time>
      </trkpt>
      <trkpt lat="43.80002" lon="5.37284">
        <ele>614</ele>
        <time>2014-05-20T16:18:47Z</time>
      </trkpt>
      <trkpt lat="43.80001" lon="5.37285">
        <ele>614</ele>
        <time>2014-05-20T16:18:49Z</time>
      </trkpt>
      <trkpt lat="43.8" lon="5.37285">
        <ele>601</ele>
        <time>2014-05-20T16:18:50Z</time>
      </trkpt>
      <trkpt lat="43.79996" lon="5.37284">
        <ele>601</ele>
        <time>2014-05-20T16:18:55Z</time>
      </trkpt>
      <trkpt lat="43.79994" lon="5.37285">
        <ele>601</ele>
        <time>2014-05-20T16:18:58Z</time>
      </trkpt>
      <trkpt lat="43.79992" lon="5.37284">
        <ele>601</ele>
        <time>2014-05-20T16:19:03Z</time>
      </trkpt>
      <trkpt lat="43.79992" lon="5.37284">
        <ele>601</ele>
        <time>2014-05-20T16:19:10Z</time>
      </trkpt>
      <trkpt lat="43.7999" lon="5.37282">
        <ele>601</ele>
        <time>2014-05-20T16:19:18Z</time>
      </trkpt>
      <trkpt lat="43.79987" lon="5.37281">
        <ele>601</ele>
        <time>2014-05-20T16:19:24Z</time>
      </trkpt>
      <trkpt lat="43.79985" lon="5.37279">
        <ele>601</ele>
        <time>2014-05-20T16:19:27Z</time>
      </trkpt>
      <trkpt lat="43.7998" lon="5.37278">
        <ele>600</ele>
        <time>2014-05-20T16:19:36Z</time>
      </trkpt>
      <trkpt lat="43.79977" lon="5.37279">
        <ele>600</ele>
        <time>2014-05-20T16:19:42Z</time>
      </trkpt>
      <trkpt lat="43.79972" lon="5.37279">
        <ele>599</ele>
        <time>2014-05-20T16:19:50Z</time>
      </trkpt>
      <trkpt lat="43.79966" lon="5.37281">
        <ele>598</ele>
        <time>2014-05-20T16:19:58Z</time>
      </trkpt>
      <trkpt lat="43.79963" lon="5.37283">
        <ele>598</ele>
        <time>2014-05-20T16:20:01Z</time>
      </trkpt>
      <trkpt lat="43.79957" lon="5.37286">
        <ele>597</ele>
        <time>2014-05-20T16:20:08Z</time>
      </trkpt>
      <trkpt lat="43.79951" lon="5.37291">
        <ele>596</ele>
        <time>2014-05-20T16:20:16Z</time>
      </trkpt>
      <trkpt lat="43.79949" lon="5.37295">
        <ele>596</ele>
        <time>2014-05-20T16:20:21Z</time>
      </trkpt>
      <trkpt lat="43.79945" lon="5.37299">
        <ele>595</ele>
        <time>2014-05-20T16:20:26Z</time>
      </trkpt>
      <trkpt lat="43.79943" lon="5.37303">
        <ele>595</ele>
        <time>2014-05-20T16:20:31Z</time>
      </trkpt>
      <trkpt lat="43.79944" lon="5.37305">
        <ele>595</ele>
        <time>2014-05-20T16:20:35Z</time>
      </trkpt>
      <trkpt lat="43.79943" lon="5.37306">
        <ele>595</ele>
        <time>2014-05-20T16:20:37Z</time>
      </trkpt>
      <trkpt lat="43.79942" lon="5.37307">
        <ele>594</ele>
        <time>2014-05-20T16:20:41Z</time>
      </trkpt>
      <trkpt lat="43.79941" lon="5.37307">
        <ele>594</ele>
        <time>2014-05-20T16:20:49Z</time>
      </trkpt>
      <trkpt lat="43.79938" lon="5.37315">
        <ele>593</ele>
        <time>2014-05-20T16:21:00Z</time>
      </trkpt>
      <trkpt lat="43.79933" lon="5.37321">
        <ele>591</ele>
        <time>2014-05-20T16:21:08Z</time>
      </trkpt>
      <trkpt lat="43.79927" lon="5.37334">
        <ele>589</ele>
        <time>2014-05-20T16:21:21Z</time>
      </trkpt>
      <trkpt lat="43.79923" lon="5.37349">
        <ele>592</ele>
        <time>2014-05-20T16:21:33Z</time>
      </trkpt>
      <trkpt lat="43.79923" lon="5.3736">
        <ele>594</ele>
        <time>2014-05-20T16:21:41Z</time>
      </trkpt>
      <trkpt lat="43.79922" lon="5.37363">
        <ele>594</ele>
        <time>2014-05-20T16:21:43Z</time>
      </trkpt>
      <trkpt lat="43.79923" lon="5.37369">
        <ele>595</ele>
        <time>2014-05-20T16:21:47Z</time>
      </trkpt>
      <trkpt lat="43.7992" lon="5.37386">
        <ele>596</ele>
        <time>2014-05-20T16:21:59Z</time>
      </trkpt>
      <trkpt lat="43.7992" lon="5.37391">
        <ele>596</ele>
        <time>2014-05-20T16:22:02Z</time>
      </trkpt>
      <trkpt lat="43.7992" lon="5.37394">
        <ele>595</ele>
        <time>2014-05-20T16:22:04Z</time>
      </trkpt>
      <trkpt lat="43.7992" lon="5.37397">
        <ele>595</ele>
        <time>2014-05-20T16:22:06Z</time>
      </trkpt>
      <trkpt lat="43.79919" lon="5.37403">
        <ele>594</ele>
        <time>2014-05-20T16:22:10Z</time>
      </trkpt>
      <trkpt lat="43.79919" lon="5.37407">
        <ele>594</ele>
        <time>2014-05-20T16:22:13Z</time>
      </trkpt>
      <trkpt lat="43.79918" lon="5.37412">
        <ele>593</ele>
        <time>2014-05-20T16:22:16Z</time>
      </trkpt>
      <trkpt lat="43.79916" lon="5.37418">
        <ele>592</ele>
        <time>2014-05-20T16:22:21Z</time>
      </trkpt>
      <trkpt lat="43.79915" lon="5.3742">
        <ele>593</ele>
        <time>2014-05-20T16:22:23Z</time>
      </trkpt>
      <trkpt lat="43.7991" lon="5.37421">
        <ele>595</ele>
        <time>2014-05-20T16:22:27Z</time>
      </trkpt>
      <trkpt lat="43.79907" lon="5.37421">
        <ele>596</ele>
        <time>2014-05-20T16:22:30Z</time>
      </trkpt>
      <trkpt lat="43.79906" lon="5.37421">
        <ele>597</ele>
        <time>2014-05-20T16:22:31Z</time>
      </trkpt>
      <trkpt lat="43.79905" lon="5.3742">
        <ele>597</ele>
        <time>2014-05-20T16:22:33Z</time>
      </trkpt>
      <trkpt lat="43.79905" lon="5.37418">
        <ele>597</ele>
        <time>2014-05-20T16:22:35Z</time>
      </trkpt>
      <trkpt lat="43.79904" lon="5.37417">
        <ele>597</ele>
        <time>2014-05-20T16:22:38Z</time>
      </trkpt>
      <trkpt lat="43.79904" lon="5.37412">
        <ele>590</ele>
        <time>2014-05-20T16:22:43Z</time>
      </trkpt>
      <trkpt lat="43.79904" lon="5.3741">
        <ele>590</ele>
        <time>2014-05-20T16:22:45Z</time>
      </trkpt>
      <trkpt lat="43.79904" lon="5.37408">
        <ele>590</ele>
        <time>2014-05-20T16:22:47Z</time>
      </trkpt>
      <trkpt lat="43.79904" lon="5.37406">
        <ele>590</ele>
        <time>2014-05-20T16:22:49Z</time>
      </trkpt>
      <trkpt lat="43.79903" lon="5.37403">
        <ele>590</ele>
        <time>2014-05-20T16:22:53Z</time>
      </trkpt>
      <trkpt lat="43.799" lon="5.37399">
        <ele>590</ele>
        <time>2014-05-20T16:22:59Z</time>
      </trkpt>
      <trkpt lat="43.79898" lon="5.37393">
        <ele>590</ele>
        <time>2014-05-20T16:23:06Z</time>
      </trkpt>
      <trkpt lat="43.79897" lon="5.3739">
        <ele>589</ele>
        <time>2014-05-20T16:23:09Z</time>
      </trkpt>
      <trkpt lat="43.79893" lon="5.37386">
        <ele>589</ele>
        <time>2014-05-20T16:23:14Z</time>
      </trkpt>
      <trkpt lat="43.79892" lon="5.37381">
        <ele>589</ele>
        <time>2014-05-20T16:23:17Z</time>
      </trkpt>
      <trkpt lat="43.7989" lon="5.37379">
        <ele>589</ele>
        <time>2014-05-20T16:23:19Z</time>
      </trkpt>
      <trkpt lat="43.79888" lon="5.37376">
        <ele>588</ele>
        <time>2014-05-20T16:23:22Z</time>
      </trkpt>
      <trkpt lat="43.79887" lon="5.37371">
        <ele>588</ele>
        <time>2014-05-20T16:23:26Z</time>
      </trkpt>
      <trkpt lat="43.79886" lon="5.3737">
        <ele>588</ele>
        <time>2014-05-20T16:23:29Z</time>
      </trkpt>
      <trkpt lat="43.79885" lon="5.37368">
        <ele>588</ele>
        <time>2014-05-20T16:23:31Z</time>
      </trkpt>
      <trkpt lat="43.79884" lon="5.37365">
        <ele>588</ele>
        <time>2014-05-20T16:23:34Z</time>
      </trkpt>
      <trkpt lat="43.79882" lon="5.37359">
        <ele>587</ele>
        <time>2014-05-20T16:23:40Z</time>
      </trkpt>
      <trkpt lat="43.79882" lon="5.37357">
        <ele>587</ele>
        <time>2014-05-20T16:23:41Z</time>
      </trkpt>
      <trkpt lat="43.79882" lon="5.37353">
        <ele>587</ele>
        <time>2014-05-20T16:23:44Z</time>
      </trkpt>
      <trkpt lat="43.7988" lon="5.37351">
        <ele>586</ele>
        <time>2014-05-20T16:23:46Z</time>
      </trkpt>
      <trkpt lat="43.79879" lon="5.37347">
        <ele>586</ele>
        <time>2014-05-20T16:23:49Z</time>
      </trkpt>
      <trkpt lat="43.79879" lon="5.37344">
        <ele>586</ele>
        <time>2014-05-20T16:23:51Z</time>
      </trkpt>
      <trkpt lat="43.79878" lon="5.37343">
        <ele>586</ele>
        <time>2014-05-20T16:23:52Z</time>
      </trkpt>
      <trkpt lat="43.79877" lon="5.3734">
        <ele>586</ele>
        <time>2014-05-20T16:23:55Z</time>
      </trkpt>
      <trkpt lat="43.79875" lon="5.37336">
        <ele>586</ele>
        <time>2014-05-20T16:23:59Z</time>
      </trkpt>
      <trkpt lat="43.79874" lon="5.37333">
        <ele>579</ele>
        <time>2014-05-20T16:24:02Z</time>
      </trkpt>
      <trkpt lat="43.79871" lon="5.37331">
        <ele>579</ele>
        <time>2014-05-20T16:24:06Z</time>
      </trkpt>
      <trkpt lat="43.7987" lon="5.3733">
        <ele>579</ele>
        <time>2014-05-20T16:24:07Z</time>
      </trkpt>
      <trkpt lat="43.79869" lon="5.37327">
        <ele>579</ele>
        <time>2014-05-20T16:24:09Z</time>
      </trkpt>
      <trkpt lat="43.79869" lon="5.37322">
        <ele>579</ele>
        <time>2014-05-20T16:24:13Z</time>
      </trkpt>
      <trkpt lat="43.79866" lon="5.37318">
        <ele>579</ele>
        <time>2014-05-20T16:24:16Z</time>
      </trkpt>
      <trkpt lat="43.79861" lon="5.37313">
        <ele>578</ele>
        <time>2014-05-20T16:24:22Z</time>
      </trkpt>
      <trkpt lat="43.79856" lon="5.37304">
        <ele>578</ele>
        <time>2014-05-20T16:24:30Z</time>
      </trkpt>
      <trkpt lat="43.79851" lon="5.37296">
        <ele>577</ele>
        <time>2014-05-20T16:24:39Z</time>
      </trkpt>
      <trkpt lat="43.79847" lon="5.37292">
        <ele>577</ele>
        <time>2014-05-20T16:24:44Z</time>
      </trkpt>
      <trkpt lat="43.79846" lon="5.3729">
        <ele>577</ele>
        <time>2014-05-20T16:24:46Z</time>
      </trkpt>
      <trkpt lat="43.79843" lon="5.37288">
        <ele>576</ele>
        <time>2014-05-20T16:24:49Z</time>
      </trkpt>
      <trkpt lat="43.79837" lon="5.37283">
        <ele>576</ele>
        <time>2014-05-20T16:24:54Z</time>
      </trkpt>
      <trkpt lat="43.79836" lon="5.37279">
        <ele>575</ele>
        <time>2014-05-20T16:24:57Z</time>
      </trkpt>
      <trkpt lat="43.79835" lon="5.37278">
        <ele>575</ele>
        <time>2014-05-20T16:24:58Z</time>
      </trkpt>
      <trkpt lat="43.79833" lon="5.37276">
        <ele>574</ele>
        <time>2014-05-20T16:25:00Z</time>
      </trkpt>
      <trkpt lat="43.79833" lon="5.37272">
        <ele>573</ele>
        <time>2014-05-20T16:25:03Z</time>
      </trkpt>
      <trkpt lat="43.79832" lon="5.37271">
        <ele>573</ele>
        <time>2014-05-20T16:25:04Z</time>
      </trkpt>
      <trkpt lat="43.79832" lon="5.37268">
        <ele>572</ele>
        <time>2014-05-20T16:25:06Z</time>
      </trkpt>
      <trkpt lat="43.79829" lon="5.37263">
        <ele>571</ele>
        <time>2014-05-20T16:25:10Z</time>
      </trkpt>
      <trkpt lat="43.79828" lon="5.37259">
        <ele>571</ele>
        <time>2014-05-20T16:25:13Z</time>
      </trkpt>
      <trkpt lat="43.79828" lon="5.37257">
        <ele>570</ele>
        <time>2014-05-20T16:25:15Z</time>
      </trkpt>
      <trkpt lat="43.79827" lon="5.37255">
        <ele>570</ele>
        <time>2014-05-20T16:25:17Z</time>
      </trkpt>
      <trkpt lat="43.79826" lon="5.37254">
        <ele>570</ele>
        <time>2014-05-20T16:25:18Z</time>
      </trkpt>
      <trkpt lat="43.79824" lon="5.37251">
        <ele>570</ele>
        <time>2014-05-20T16:25:21Z</time>
      </trkpt>
      <trkpt lat="43.79823" lon="5.37248">
        <ele>568</ele>
        <time>2014-05-20T16:25:23Z</time>
      </trkpt>
      <trkpt lat="43.79822" lon="5.37246">
        <ele>568</ele>
        <time>2014-05-20T16:25:25Z</time>
      </trkpt>
      <trkpt lat="43.79821" lon="5.37244">
        <ele>568</ele>
        <time>2014-05-20T16:25:27Z</time>
      </trkpt>
      <trkpt lat="43.7982" lon="5.37239">
        <ele>568</ele>
        <time>2014-05-20T16:25:30Z</time>
      </trkpt>
      <trkpt lat="43.79818" lon="5.37234">
        <ele>569</ele>
        <time>2014-05-20T16:25:34Z</time>
      </trkpt>
      <trkpt lat="43.79816" lon="5.37228">
        <ele>569</ele>
        <time>2014-05-20T16:25:38Z</time>
      </trkpt>
      <trkpt lat="43.79814" lon="5.37226">
        <ele>569</ele>
        <time>2014-05-20T16:25:41Z</time>
      </trkpt>
      <trkpt lat="43.79813" lon="5.37221">
        <ele>569</ele>
        <time>2014-05-20T16:25:45Z</time>
      </trkpt>
      <trkpt lat="43.7981" lon="5.37211">
        <ele>569</ele>
        <time>2014-05-20T16:25:54Z</time>
      </trkpt>
      <trkpt lat="43.79809" lon="5.37209">
        <ele>569</ele>
        <time>2014-05-20T16:25:55Z</time>
      </trkpt>
      <trkpt lat="43.79808" lon="5.37209">
        <ele>569</ele>
        <time>2014-05-20T16:25:56Z</time>
      </trkpt>
      <trkpt lat="43.79807" lon="5.37206">
        <ele>569</ele>
        <time>2014-05-20T16:25:58Z</time>
      </trkpt>
      <trkpt lat="43.79801" lon="5.37191">
        <ele>568</ele>
        <time>2014-05-20T16:26:10Z</time>
      </trkpt>
      <trkpt lat="43.79799" lon="5.37184">
        <ele>568</ele>
        <time>2014-05-20T16:26:14Z</time>
      </trkpt>
      <trkpt lat="43.79798" lon="5.37175">
        <ele>568</ele>
        <time>2014-05-20T16:26:20Z</time>
      </trkpt>
      <trkpt lat="43.79797" lon="5.37174">
        <ele>568</ele>
        <time>2014-05-20T16:26:21Z</time>
      </trkpt>
      <trkpt lat="43.79794" lon="5.37166">
        <ele>564</ele>
        <time>2014-05-20T16:26:26Z</time>
      </trkpt>
      <trkpt lat="43.79794" lon="5.37162">
        <ele>564</ele>
        <time>2014-05-20T16:26:28Z</time>
      </trkpt>
      <trkpt lat="43.79793" lon="5.37159">
        <ele>564</ele>
        <time>2014-05-20T16:26:30Z</time>
      </trkpt>
      <trkpt lat="43.79792" lon="5.37158">
        <ele>564</ele>
        <time>2014-05-20T16:26:32Z</time>
      </trkpt>
      <trkpt lat="43.79792" lon="5.37155">
        <ele>564</ele>
        <time>2014-05-20T16:26:34Z</time>
      </trkpt>
      <trkpt lat="43.79792" lon="5.37152">
        <ele>564</ele>
        <time>2014-05-20T16:26:38Z</time>
      </trkpt>
      <trkpt lat="43.79791" lon="5.3715">
        <ele>564</ele>
        <time>2014-05-20T16:26:40Z</time>
      </trkpt>
      <trkpt lat="43.7979" lon="5.37148">
        <ele>563</ele>
        <time>2014-05-20T16:26:43Z</time>
      </trkpt>
      <trkpt lat="43.79789" lon="5.37143">
        <ele>563</ele>
        <time>2014-05-20T16:26:52Z</time>
      </trkpt>
      <trkpt lat="43.79785" lon="5.3714">
        <ele>563</ele>
        <time>2014-05-20T16:26:57Z</time>
      </trkpt>
      <trkpt lat="43.79785" lon="5.37138">
        <ele>563</ele>
        <time>2014-05-20T16:27:00Z</time>
      </trkpt>
      <trkpt lat="43.79785" lon="5.37137">
        <ele>563</ele>
        <time>2014-05-20T16:27:02Z</time>
      </trkpt>
      <trkpt lat="43.79781" lon="5.37133">
        <ele>562</ele>
        <time>2014-05-20T16:27:11Z</time>
      </trkpt>
      <trkpt lat="43.79781" lon="5.3713">
        <ele>562</ele>
        <time>2014-05-20T16:27:14Z</time>
      </trkpt>
      <trkpt lat="43.79779" lon="5.37128">
        <ele>562</ele>
        <time>2014-05-20T16:27:16Z</time>
      </trkpt>
      <trkpt lat="43.79778" lon="5.37127">
        <ele>562</ele>
        <time>2014-05-20T16:27:18Z</time>
      </trkpt>
      <trkpt lat="43.79777" lon="5.37127">
        <ele>561</ele>
        <time>2014-05-20T16:27:19Z</time>
      </trkpt>
      <trkpt lat="43.79776" lon="5.37123">
        <ele>561</ele>
        <time>2014-05-20T16:27:23Z</time>
      </trkpt>
      <trkpt lat="43.79776" lon="5.37122">
        <ele>561</ele>
        <time>2014-05-20T16:27:24Z</time>
      </trkpt>
      <trkpt lat="43.79775" lon="5.37119">
        <ele>561</ele>
        <time>2014-05-20T16:27:27Z</time>
      </trkpt>
      <trkpt lat="43.79774" lon="5.37117">
        <ele>560</ele>
        <time>2014-05-20T16:27:29Z</time>
      </trkpt>
      <trkpt lat="43.79773" lon="5.37111">
        <ele>560</ele>
        <time>2014-05-20T16:27:33Z</time>
      </trkpt>
      <trkpt lat="43.7977" lon="5.37103">
        <ele>558</ele>
        <time>2014-05-20T16:27:39Z</time>
      </trkpt>
      <trkpt lat="43.79767" lon="5.37101">
        <ele>557</ele>
        <time>2014-05-20T16:27:43Z</time>
      </trkpt>
      <trkpt lat="43.79765" lon="5.371">
        <ele>557</ele>
        <time>2014-05-20T16:27:44Z</time>
      </trkpt>
      <trkpt lat="43.79763" lon="5.37098">
        <ele>556</ele>
        <time>2014-05-20T16:27:48Z</time>
      </trkpt>
      <trkpt lat="43.79761" lon="5.37098">
        <ele>555</ele>
        <time>2014-05-20T16:27:50Z</time>
      </trkpt>
      <trkpt lat="43.79757" lon="5.37085">
        <ele>550</ele>
        <time>2014-05-20T16:28:00Z</time>
      </trkpt>
      <trkpt lat="43.79757" lon="5.37084">
        <ele>550</ele>
        <time>2014-05-20T16:28:01Z</time>
      </trkpt>
    </trkseg>
  </trk>
</gpx>